<?xml version="1.0" encoding="UTF-8"?>
<gpx version="1.1" creator="https://www.www-youtrack-es.amenigma.com" xsi:schemaLocation="http://www.topografix.com/GPX/1/1 http://www.topografix.com/GPX/1/1/gpx.xsd http://www.garmin.com/xmlschemas/GpxExtensions/v3 http://www.garmin.com/xmlschemas/GpxExtensionsv3.xsd http://www.garmin.com/xmlschemas/TrackPointExtension/v1 http://www.garmin.com/xmlschemas/TrackPointExtensionv1.xsd" xmlns:gpxtpx="http://www.garmin.com/xmlschemas/TrackPointExtension/v1" xmlns:gpxx="http://www.garmin.com/xmlschemas/GpxExtensions/v3" xmlns:xsi="http://www.w3.org/2001/XMLSchema-instance">
  <metadata>
    <link href="https://www.www-youtrack-es.amenigma.com">
      <text>YouTrack.es</text>
    </link>
    <time>2026-09-01T06:37:30Z</time>
  </metadata>
  <trk>
    <src>https://www.www-youtrack-es.amenigma.com</src>
    <link href="https://www.www-youtrack-es.amenigma.com/ruta/8222-carros-de-foc">
      <text>YouTrack.es</text>
    </link>
    <trkseg>
      <trkpt lat="42.5844765734" lon="1.0480640363">
        <ele>1654.57</ele>
        <time>2019-09-05T07:05:31Z</time>
      </trkpt>
      <trkpt lat="42.5844789203" lon="1.0480632819">
        <ele>1645.91</ele>
        <time>2019-09-05T07:05:32Z</time>
      </trkpt>
      <trkpt lat="42.5844797585" lon="1.0480626114">
        <ele>1641.11</ele>
        <time>2019-09-05T07:05:33Z</time>
      </trkpt>
      <trkpt lat="42.5844805967" lon="1.0480629466">
        <ele>1637.74</ele>
        <time>2019-09-05T07:05:35Z</time>
      </trkpt>
      <trkpt lat="42.5844725501" lon="1.0480599292">
        <ele>1636.30</ele>
        <time>2019-09-05T07:05:51Z</time>
      </trkpt>
      <trkpt lat="42.5844728015" lon="1.0480432492">
        <ele>1636.78</ele>
        <time>2019-09-05T07:06:11Z</time>
      </trkpt>
      <trkpt lat="42.5844556186" lon="1.0480209533">
        <ele>1636.78</ele>
        <time>2019-09-05T07:06:28Z</time>
      </trkpt>
      <trkpt lat="42.5844327360" lon="1.0479783732">
        <ele>1636.78</ele>
        <time>2019-09-05T07:06:48Z</time>
      </trkpt>
      <trkpt lat="42.5844328199" lon="1.0479943827">
        <ele>1636.78</ele>
        <time>2019-09-05T07:07:04Z</time>
      </trkpt>
      <trkpt lat="42.5844439678" lon="1.0479935445">
        <ele>1636.78</ele>
        <time>2019-09-05T07:07:20Z</time>
      </trkpt>
      <trkpt lat="42.5844557863" lon="1.0480386391">
        <ele>1636.78</ele>
        <time>2019-09-05T07:07:37Z</time>
      </trkpt>
      <trkpt lat="42.5844707061" lon="1.0480975639">
        <ele>1636.78</ele>
        <time>2019-09-05T07:07:59Z</time>
      </trkpt>
      <trkpt lat="42.5844905712" lon="1.0480792914">
        <ele>1636.78</ele>
        <time>2019-09-05T07:08:23Z</time>
      </trkpt>
      <trkpt lat="42.5845103525" lon="1.0480336100">
        <ele>1636.78</ele>
        <time>2019-09-05T07:08:41Z</time>
      </trkpt>
      <trkpt lat="42.5844904035" lon="1.0480095539">
        <ele>1636.78</ele>
        <time>2019-09-05T07:08:58Z</time>
      </trkpt>
      <trkpt lat="42.5844924990" lon="1.0479545686">
        <ele>1636.78</ele>
        <time>2019-09-05T07:09:21Z</time>
      </trkpt>
      <trkpt lat="42.5845313910" lon="1.0479346197">
        <ele>1636.78</ele>
        <time>2019-09-05T07:09:43Z</time>
      </trkpt>
      <trkpt lat="42.5845126994" lon="1.0479710810">
        <ele>1636.78</ele>
        <time>2019-09-05T07:10:03Z</time>
      </trkpt>
      <trkpt lat="42.5845115259" lon="1.0479288362">
        <ele>1636.78</ele>
        <time>2019-09-05T07:10:25Z</time>
      </trkpt>
      <trkpt lat="42.5845265295" lon="1.0478824843">
        <ele>1636.78</ele>
        <time>2019-09-05T07:10:41Z</time>
      </trkpt>
      <trkpt lat="42.5845313072" lon="1.0477883555">
        <ele>1636.78</ele>
        <time>2019-09-05T07:10:55Z</time>
      </trkpt>
      <trkpt lat="42.5845634099" lon="1.0476354696">
        <ele>1636.78</ele>
        <time>2019-09-05T07:11:10Z</time>
      </trkpt>
      <trkpt lat="42.5845818501" lon="1.0474311188">
        <ele>1636.78</ele>
        <time>2019-09-05T07:11:26Z</time>
      </trkpt>
      <trkpt lat="42.5846158806" lon="1.0472746287">
        <ele>1642.55</ele>
        <time>2019-09-05T07:11:39Z</time>
      </trkpt>
      <trkpt lat="42.5846270286" lon="1.0472588707">
        <ele>1642.07</ele>
        <time>2019-09-05T07:11:40Z</time>
      </trkpt>
      <trkpt lat="42.5846609753" lon="1.0471891332">
        <ele>1642.55</ele>
        <time>2019-09-05T07:11:46Z</time>
      </trkpt>
      <trkpt lat="42.5847411901" lon="1.0470599681">
        <ele>1643.03</ele>
        <time>2019-09-05T07:11:58Z</time>
      </trkpt>
      <trkpt lat="42.5847674254" lon="1.0468701180">
        <ele>1645.43</ele>
        <time>2019-09-05T07:12:14Z</time>
      </trkpt>
      <trkpt lat="42.5847762264" lon="1.0466913320">
        <ele>1647.36</ele>
        <time>2019-09-05T07:12:31Z</time>
      </trkpt>
      <trkpt lat="42.5847042259" lon="1.0465712193">
        <ele>1649.28</ele>
        <time>2019-09-05T07:12:46Z</time>
      </trkpt>
      <trkpt lat="42.5847318023" lon="1.0463696346">
        <ele>1650.24</ele>
        <time>2019-09-05T07:12:59Z</time>
      </trkpt>
      <trkpt lat="42.5847468898" lon="1.0461367853">
        <ele>1651.68</ele>
        <time>2019-09-05T07:13:15Z</time>
      </trkpt>
      <trkpt lat="42.5847605523" lon="1.0460597556">
        <ele>1652.16</ele>
        <time>2019-09-05T07:13:21Z</time>
      </trkpt>
      <trkpt lat="42.5847603846" lon="1.0459254775">
        <ele>1652.64</ele>
        <time>2019-09-05T07:13:34Z</time>
      </trkpt>
      <trkpt lat="42.5847408548" lon="1.0456850845">
        <ele>1654.09</ele>
        <time>2019-09-05T07:13:51Z</time>
      </trkpt>
      <trkpt lat="42.5847276952" lon="1.0454761237">
        <ele>1655.05</ele>
        <time>2019-09-05T07:14:05Z</time>
      </trkpt>
      <trkpt lat="42.5846943352" lon="1.0452254210">
        <ele>1655.05</ele>
        <time>2019-09-05T07:14:20Z</time>
      </trkpt>
      <trkpt lat="42.5846572872" lon="1.0450139455">
        <ele>1655.53</ele>
        <time>2019-09-05T07:14:34Z</time>
      </trkpt>
      <trkpt lat="42.5845676009" lon="1.0447737202">
        <ele>1656.01</ele>
        <time>2019-09-05T07:14:51Z</time>
      </trkpt>
      <trkpt lat="42.5845243502" lon="1.0445324052">
        <ele>1655.53</ele>
        <time>2019-09-05T07:15:07Z</time>
      </trkpt>
      <trkpt lat="42.5844705384" lon="1.0443329997">
        <ele>1656.01</ele>
        <time>2019-09-05T07:15:21Z</time>
      </trkpt>
      <trkpt lat="42.5844432134" lon="1.0442351829">
        <ele>1656.01</ele>
        <time>2019-09-05T07:15:31Z</time>
      </trkpt>
      <trkpt lat="42.5843601488" lon="1.0440759268">
        <ele>1656.49</ele>
        <time>2019-09-05T07:15:44Z</time>
      </trkpt>
      <trkpt lat="42.5843343325" lon="1.0438792873">
        <ele>1656.49</ele>
        <time>2019-09-05T07:15:59Z</time>
      </trkpt>
      <trkpt lat="42.5843111146" lon="1.0436615255">
        <ele>1656.97</ele>
        <time>2019-09-05T07:16:14Z</time>
      </trkpt>
      <trkpt lat="42.5843234360" lon="1.0435415804">
        <ele>1656.97</ele>
        <time>2019-09-05T07:16:22Z</time>
      </trkpt>
      <trkpt lat="42.5843379367" lon="1.0433569271">
        <ele>1656.97</ele>
        <time>2019-09-05T07:16:34Z</time>
      </trkpt>
      <trkpt lat="42.5844063330" lon="1.0432841722">
        <ele>1656.97</ele>
        <time>2019-09-05T07:16:47Z</time>
      </trkpt>
      <trkpt lat="42.5844563730" lon="1.0432424303">
        <ele>1656.97</ele>
        <time>2019-09-05T07:16:51Z</time>
      </trkpt>
      <trkpt lat="42.5845408626" lon="1.0429167934">
        <ele>1656.49</ele>
        <time>2019-09-05T07:17:09Z</time>
      </trkpt>
      <trkpt lat="42.5845860410" lon="1.0426857881">
        <ele>1656.97</ele>
        <time>2019-09-05T07:17:25Z</time>
      </trkpt>
      <trkpt lat="42.5845587160" lon="1.0424597282">
        <ele>1657.45</ele>
        <time>2019-09-05T07:17:39Z</time>
      </trkpt>
      <trkpt lat="42.5844675209" lon="1.0422873124">
        <ele>1656.97</ele>
        <time>2019-09-05T07:17:53Z</time>
      </trkpt>
      <trkpt lat="42.5845168065" lon="1.0421471670">
        <ele>1658.41</ele>
        <time>2019-09-05T07:18:07Z</time>
      </trkpt>
      <trkpt lat="42.5845505018" lon="1.0421139747">
        <ele>1659.85</ele>
        <time>2019-09-05T07:18:19Z</time>
      </trkpt>
      <trkpt lat="42.5845392700" lon="1.0420747474">
        <ele>1660.33</ele>
        <time>2019-09-05T07:18:22Z</time>
      </trkpt>
      <trkpt lat="42.5845064968" lon="1.0419928562">
        <ele>1660.81</ele>
        <time>2019-09-05T07:18:27Z</time>
      </trkpt>
      <trkpt lat="42.5844446383" lon="1.0419025831">
        <ele>1662.74</ele>
        <time>2019-09-05T07:18:39Z</time>
      </trkpt>
      <trkpt lat="42.5843926705" lon="1.0417755134">
        <ele>1664.66</ele>
        <time>2019-09-05T07:18:52Z</time>
      </trkpt>
      <trkpt lat="42.5844211690" lon="1.0417975578">
        <ele>1667.06</ele>
        <time>2019-09-05T07:19:05Z</time>
      </trkpt>
      <trkpt lat="42.5845182315" lon="1.0418369528">
        <ele>1668.51</ele>
        <time>2019-09-05T07:19:17Z</time>
      </trkpt>
      <trkpt lat="42.5846363325" lon="1.0418175906">
        <ele>1670.91</ele>
        <time>2019-09-05T07:19:30Z</time>
      </trkpt>
      <trkpt lat="42.5846974365" lon="1.0417170078">
        <ele>1672.83</ele>
        <time>2019-09-05T07:19:41Z</time>
      </trkpt>
      <trkpt lat="42.5847154576" lon="1.0416393075">
        <ele>1674.27</ele>
        <time>2019-09-05T07:19:47Z</time>
      </trkpt>
      <trkpt lat="42.5847226661" lon="1.0415767785">
        <ele>1674.75</ele>
        <time>2019-09-05T07:19:51Z</time>
      </trkpt>
      <trkpt lat="42.5847473089" lon="1.0414393153">
        <ele>1675.23</ele>
        <time>2019-09-05T07:20:00Z</time>
      </trkpt>
      <trkpt lat="42.5847508293" lon="1.0414166842">
        <ele>1675.23</ele>
        <time>2019-09-05T07:20:02Z</time>
      </trkpt>
      <trkpt lat="42.5847631507" lon="1.0413729306">
        <ele>1675.23</ele>
        <time>2019-09-05T07:20:05Z</time>
      </trkpt>
      <trkpt lat="42.5847837701" lon="1.0413009301">
        <ele>1675.23</ele>
        <time>2019-09-05T07:20:10Z</time>
      </trkpt>
      <trkpt lat="42.5848198961" lon="1.0412378144">
        <ele>1675.23</ele>
        <time>2019-09-05T07:20:15Z</time>
      </trkpt>
      <trkpt lat="42.5848165434" lon="1.0411252454">
        <ele>1676.20</ele>
        <time>2019-09-05T07:20:24Z</time>
      </trkpt>
      <trkpt lat="42.5847935770" lon="1.0411087330">
        <ele>1676.20</ele>
        <time>2019-09-05T07:20:32Z</time>
      </trkpt>
      <trkpt lat="42.5847687665" lon="1.0410464555">
        <ele>1676.20</ele>
        <time>2019-09-05T07:20:36Z</time>
      </trkpt>
      <trkpt lat="42.5847142842" lon="1.0408739559">
        <ele>1676.20</ele>
        <time>2019-09-05T07:20:46Z</time>
      </trkpt>
      <trkpt lat="42.5846805889" lon="1.0407001153">
        <ele>1677.16</ele>
        <time>2019-09-05T07:20:58Z</time>
      </trkpt>
      <trkpt lat="42.5846251007" lon="1.0405240115">
        <ele>1677.64</ele>
        <time>2019-09-05T07:21:10Z</time>
      </trkpt>
      <trkpt lat="42.5846014638" lon="1.0404841974">
        <ele>1677.64</ele>
        <time>2019-09-05T07:21:14Z</time>
      </trkpt>
      <trkpt lat="42.5845587160" lon="1.0403769091">
        <ele>1677.64</ele>
        <time>2019-09-05T07:21:21Z</time>
      </trkpt>
      <trkpt lat="42.5844979472" lon="1.0401974525">
        <ele>1677.64</ele>
        <time>2019-09-05T07:21:33Z</time>
      </trkpt>
      <trkpt lat="42.5843987893" lon="1.0400236119">
        <ele>1678.12</ele>
        <time>2019-09-05T07:21:45Z</time>
      </trkpt>
      <trkpt lat="42.5843521021" lon="1.0399283096">
        <ele>1678.60</ele>
        <time>2019-09-05T07:21:53Z</time>
      </trkpt>
      <trkpt lat="42.5843339972" lon="1.0398993082">
        <ele>1678.60</ele>
        <time>2019-09-05T07:21:55Z</time>
      </trkpt>
      <trkpt lat="42.5842955243" lon="1.0398266371">
        <ele>1679.08</ele>
        <time>2019-09-05T07:22:01Z</time>
      </trkpt>
      <trkpt lat="42.5842488371" lon="1.0397281498">
        <ele>1679.08</ele>
        <time>2019-09-05T07:22:09Z</time>
      </trkpt>
      <trkpt lat="42.5842279661" lon="1.0396906827">
        <ele>1679.56</ele>
        <time>2019-09-05T07:22:12Z</time>
      </trkpt>
      <trkpt lat="42.5841580611" lon="1.0395740904">
        <ele>1680.04</ele>
        <time>2019-09-05T07:22:21Z</time>
      </trkpt>
      <trkpt lat="42.5841335859" lon="1.0394980665">
        <ele>1679.56</ele>
        <time>2019-09-05T07:22:26Z</time>
      </trkpt>
      <trkpt lat="42.5841301493" lon="1.0394414049">
        <ele>1679.56</ele>
        <time>2019-09-05T07:22:30Z</time>
      </trkpt>
      <trkpt lat="42.5840749964" lon="1.0393456835">
        <ele>1680.04</ele>
        <time>2019-09-05T07:22:37Z</time>
      </trkpt>
      <trkpt lat="42.5840360206" lon="1.0392870102">
        <ele>1680.04</ele>
        <time>2019-09-05T07:22:41Z</time>
      </trkpt>
      <trkpt lat="42.5840169098" lon="1.0392192006">
        <ele>1680.04</ele>
        <time>2019-09-05T07:22:46Z</time>
      </trkpt>
      <trkpt lat="42.5839584880" lon="1.0390923824">
        <ele>1680.52</ele>
        <time>2019-09-05T07:22:57Z</time>
      </trkpt>
      <trkpt lat="42.5839536265" lon="1.0390812345">
        <ele>1680.52</ele>
        <time>2019-09-05T07:22:58Z</time>
      </trkpt>
      <trkpt lat="42.5839394610" lon="1.0390371457">
        <ele>1680.52</ele>
        <time>2019-09-05T07:23:01Z</time>
      </trkpt>
      <trkpt lat="42.5838646106" lon="1.0388632212">
        <ele>1681.48</ele>
        <time>2019-09-05T07:23:14Z</time>
      </trkpt>
      <trkpt lat="42.5838507805" lon="1.0388239939">
        <ele>1681.48</ele>
        <time>2019-09-05T07:23:17Z</time>
      </trkpt>
      <trkpt lat="42.5837472640" lon="1.0387089103">
        <ele>1681.96</ele>
        <time>2019-09-05T07:23:29Z</time>
      </trkpt>
      <trkpt lat="42.5836714916" lon="1.0386243369">
        <ele>1682.44</ele>
        <time>2019-09-05T07:23:37Z</time>
      </trkpt>
      <trkpt lat="42.5836631097" lon="1.0386116803">
        <ele>1682.93</ele>
        <time>2019-09-05T07:23:38Z</time>
      </trkpt>
      <trkpt lat="42.5835640356" lon="1.0384816770">
        <ele>1683.41</ele>
        <time>2019-09-05T07:23:49Z</time>
      </trkpt>
      <trkpt lat="42.5835292507" lon="1.0383551940">
        <ele>1683.89</ele>
        <time>2019-09-05T07:23:58Z</time>
      </trkpt>
      <trkpt lat="42.5835290831" lon="1.0383060761">
        <ele>1683.89</ele>
        <time>2019-09-05T07:24:01Z</time>
      </trkpt>
      <trkpt lat="42.5835037697" lon="1.0382259451">
        <ele>1683.89</ele>
        <time>2019-09-05T07:24:06Z</time>
      </trkpt>
      <trkpt lat="42.5834670570" lon="1.0381158907">
        <ele>1683.89</ele>
        <time>2019-09-05T07:24:14Z</time>
      </trkpt>
      <trkpt lat="42.5834568311" lon="1.0380230192">
        <ele>1683.89</ele>
        <time>2019-09-05T07:24:21Z</time>
      </trkpt>
      <trkpt lat="42.5834106468" lon="1.0379090253">
        <ele>1683.89</ele>
        <time>2019-09-05T07:24:29Z</time>
      </trkpt>
      <trkpt lat="42.5833952241" lon="1.0377848055">
        <ele>1684.37</ele>
        <time>2019-09-05T07:24:38Z</time>
      </trkpt>
      <trkpt lat="42.5833704136" lon="1.0377037525">
        <ele>1684.37</ele>
        <time>2019-09-05T07:24:43Z</time>
      </trkpt>
      <trkpt lat="42.5833252352" lon="1.0375624336">
        <ele>1684.85</ele>
        <time>2019-09-05T07:24:53Z</time>
      </trkpt>
      <trkpt lat="42.5832977425" lon="1.0374983959">
        <ele>1684.85</ele>
        <time>2019-09-05T07:24:59Z</time>
      </trkpt>
      <trkpt lat="42.5832369737" lon="1.0373376310">
        <ele>1684.37</ele>
        <time>2019-09-05T07:25:10Z</time>
      </trkpt>
      <trkpt lat="42.5832271669" lon="1.0372918658">
        <ele>1684.37</ele>
        <time>2019-09-05T07:25:14Z</time>
      </trkpt>
      <trkpt lat="42.5831899513" lon="1.0371584259">
        <ele>1683.89</ele>
        <time>2019-09-05T07:25:24Z</time>
      </trkpt>
      <trkpt lat="42.5831865985" lon="1.0371456016">
        <ele>1683.89</ele>
        <time>2019-09-05T07:25:25Z</time>
      </trkpt>
      <trkpt lat="42.5831876881" lon="1.0371192824">
        <ele>1684.37</ele>
        <time>2019-09-05T07:25:27Z</time>
      </trkpt>
      <trkpt lat="42.5831629615" lon="1.0370185319">
        <ele>1684.37</ele>
        <time>2019-09-05T07:25:35Z</time>
      </trkpt>
      <trkpt lat="42.5831588544" lon="1.0369923804">
        <ele>1684.37</ele>
        <time>2019-09-05T07:25:37Z</time>
      </trkpt>
      <trkpt lat="42.5831377320" lon="1.0369358025">
        <ele>1684.37</ele>
        <time>2019-09-05T07:25:43Z</time>
      </trkpt>
      <trkpt lat="42.5831268355" lon="1.0368328728">
        <ele>1684.37</ele>
        <time>2019-09-05T07:25:50Z</time>
      </trkpt>
      <trkpt lat="42.5830908772" lon="1.0367438570">
        <ele>1684.37</ele>
        <time>2019-09-05T07:25:56Z</time>
      </trkpt>
      <trkpt lat="42.5830777176" lon="1.0367014445">
        <ele>1684.37</ele>
        <time>2019-09-05T07:25:59Z</time>
      </trkpt>
      <trkpt lat="42.5830163620" lon="1.0365816671">
        <ele>1683.89</ele>
        <time>2019-09-05T07:26:07Z</time>
      </trkpt>
      <trkpt lat="42.5829810742" lon="1.0364218242">
        <ele>1684.37</ele>
        <time>2019-09-05T07:26:18Z</time>
      </trkpt>
      <trkpt lat="42.5829193834" lon="1.0363002028">
        <ele>1684.85</ele>
        <time>2019-09-05T07:26:28Z</time>
      </trkpt>
      <trkpt lat="42.5828544237" lon="1.0362264421">
        <ele>1685.33</ele>
        <time>2019-09-05T07:26:33Z</time>
      </trkpt>
      <trkpt lat="42.5828104187" lon="1.0361126158">
        <ele>1684.85</ele>
        <time>2019-09-05T07:26:42Z</time>
      </trkpt>
      <trkpt lat="42.5828200579" lon="1.0359888151">
        <ele>1685.81</ele>
        <time>2019-09-05T07:26:51Z</time>
      </trkpt>
      <trkpt lat="42.5828155316" lon="1.0358472448">
        <ele>1686.29</ele>
        <time>2019-09-05T07:27:02Z</time>
      </trkpt>
      <trkpt lat="42.5828124303" lon="1.0358338337">
        <ele>1686.29</ele>
        <time>2019-09-05T07:27:03Z</time>
      </trkpt>
      <trkpt lat="42.5827849377" lon="1.0357524455">
        <ele>1686.29</ele>
        <time>2019-09-05T07:27:08Z</time>
      </trkpt>
      <trkpt lat="42.5827376638" lon="1.0356769245">
        <ele>1686.29</ele>
        <time>2019-09-05T07:27:13Z</time>
      </trkpt>
      <trkpt lat="42.5826974306" lon="1.0355365276">
        <ele>1686.77</ele>
        <time>2019-09-05T07:27:22Z</time>
      </trkpt>
      <trkpt lat="42.5826711953" lon="1.0354452487">
        <ele>1686.77</ele>
        <time>2019-09-05T07:27:29Z</time>
      </trkpt>
      <trkpt lat="42.5826614723" lon="1.0354174208">
        <ele>1686.77</ele>
        <time>2019-09-05T07:27:31Z</time>
      </trkpt>
      <trkpt lat="42.5826032180" lon="1.0352571588">
        <ele>1687.73</ele>
        <time>2019-09-05T07:27:42Z</time>
      </trkpt>
      <trkpt lat="42.5825953390" lon="1.0352170933">
        <ele>1687.73</ele>
        <time>2019-09-05T07:27:45Z</time>
      </trkpt>
      <trkpt lat="42.5825248472" lon="1.0351192765">
        <ele>1688.21</ele>
        <time>2019-09-05T07:27:54Z</time>
      </trkpt>
      <trkpt lat="42.5824624021" lon="1.0350181907">
        <ele>1688.21</ele>
        <time>2019-09-05T07:28:02Z</time>
      </trkpt>
      <trkpt lat="42.5824449677" lon="1.0349208768">
        <ele>1688.21</ele>
        <time>2019-09-05T07:28:09Z</time>
      </trkpt>
      <trkpt lat="42.5824426208" lon="1.0349022690">
        <ele>1688.21</ele>
        <time>2019-09-05T07:28:10Z</time>
      </trkpt>
      <trkpt lat="42.5824407768" lon="1.0348838288">
        <ele>1688.69</ele>
        <time>2019-09-05T07:28:11Z</time>
      </trkpt>
      <trkpt lat="42.5824378431" lon="1.0348539054">
        <ele>1688.69</ele>
        <time>2019-09-05T07:28:13Z</time>
      </trkpt>
      <trkpt lat="42.5824287906" lon="1.0348415840">
        <ele>1689.17</ele>
        <time>2019-09-05T07:28:14Z</time>
      </trkpt>
      <trkpt lat="42.5824127812" lon="1.0348078888">
        <ele>1689.17</ele>
        <time>2019-09-05T07:28:17Z</time>
      </trkpt>
      <trkpt lat="42.5824030582" lon="1.0347642191">
        <ele>1689.17</ele>
        <time>2019-09-05T07:28:20Z</time>
      </trkpt>
      <trkpt lat="42.5823955983" lon="1.0347484611">
        <ele>1689.17</ele>
        <time>2019-09-05T07:28:21Z</time>
      </trkpt>
      <trkpt lat="42.5823919941" lon="1.0347335413">
        <ele>1689.17</ele>
        <time>2019-09-05T07:28:22Z</time>
      </trkpt>
      <trkpt lat="42.5823866297" lon="1.0347189568">
        <ele>1689.17</ele>
        <time>2019-09-05T07:28:23Z</time>
      </trkpt>
      <trkpt lat="42.5823821034" lon="1.0346903745">
        <ele>1689.17</ele>
        <time>2019-09-05T07:28:25Z</time>
      </trkpt>
      <trkpt lat="42.5823784154" lon="1.0346740298">
        <ele>1689.17</ele>
        <time>2019-09-05T07:28:26Z</time>
      </trkpt>
      <trkpt lat="42.5823713746" lon="1.0346578527">
        <ele>1689.17</ele>
        <time>2019-09-05T07:28:27Z</time>
      </trkpt>
      <trkpt lat="42.5823527668" lon="1.0346259177">
        <ele>1689.17</ele>
        <time>2019-09-05T07:28:29Z</time>
      </trkpt>
      <trkpt lat="42.5823468156" lon="1.0346099921">
        <ele>1689.17</ele>
        <time>2019-09-05T07:28:30Z</time>
      </trkpt>
      <trkpt lat="42.5823060796" lon="1.0344977584">
        <ele>1689.65</ele>
        <time>2019-09-05T07:28:39Z</time>
      </trkpt>
      <trkpt lat="42.5823060796" lon="1.0344794020">
        <ele>1689.65</ele>
        <time>2019-09-05T07:28:40Z</time>
      </trkpt>
      <trkpt lat="42.5823033135" lon="1.0344604589">
        <ele>1689.65</ele>
        <time>2019-09-05T07:28:41Z</time>
      </trkpt>
      <trkpt lat="42.5822950993" lon="1.0344436113">
        <ele>1689.65</ele>
        <time>2019-09-05T07:28:42Z</time>
      </trkpt>
      <trkpt lat="42.5822838675" lon="1.0344162025">
        <ele>1690.14</ele>
        <time>2019-09-05T07:28:44Z</time>
      </trkpt>
      <trkpt lat="42.5822695345" lon="1.0343597084">
        <ele>1690.14</ele>
        <time>2019-09-05T07:28:48Z</time>
      </trkpt>
      <trkpt lat="42.5822222605" lon="1.0342416074">
        <ele>1690.62</ele>
        <time>2019-09-05T07:28:57Z</time>
      </trkpt>
      <trkpt lat="42.5822216738" lon="1.0342135280">
        <ele>1690.62</ele>
        <time>2019-09-05T07:28:59Z</time>
      </trkpt>
      <trkpt lat="42.5822130404" lon="1.0341617279">
        <ele>1691.10</ele>
        <time>2019-09-05T07:29:03Z</time>
      </trkpt>
      <trkpt lat="42.5821913313" lon="1.0340683535">
        <ele>1691.58</ele>
        <time>2019-09-05T07:29:09Z</time>
      </trkpt>
      <trkpt lat="42.5821838714" lon="1.0340208281">
        <ele>1692.06</ele>
        <time>2019-09-05T07:29:12Z</time>
      </trkpt>
      <trkpt lat="42.5821720529" lon="1.0339272860">
        <ele>1693.02</ele>
        <time>2019-09-05T07:29:19Z</time>
      </trkpt>
      <trkpt lat="42.5821587257" lon="1.0339039005">
        <ele>1693.02</ele>
        <time>2019-09-05T07:29:21Z</time>
      </trkpt>
      <trkpt lat="42.5821220130" lon="1.0338148847">
        <ele>1693.02</ele>
        <time>2019-09-05T07:29:28Z</time>
      </trkpt>
      <trkpt lat="42.5820789300" lon="1.0336543713">
        <ele>1693.98</ele>
        <time>2019-09-05T07:29:41Z</time>
      </trkpt>
      <trkpt lat="42.5820735656" lon="1.0336380266">
        <ele>1693.98</ele>
        <time>2019-09-05T07:29:42Z</time>
      </trkpt>
      <trkpt lat="42.5820547063" lon="1.0335681215">
        <ele>1694.46</ele>
        <time>2019-09-05T07:29:47Z</time>
      </trkpt>
      <trkpt lat="42.5819884893" lon="1.0334444884">
        <ele>1694.94</ele>
        <time>2019-09-05T07:29:56Z</time>
      </trkpt>
      <trkpt lat="42.5819315761" lon="1.0333801992">
        <ele>1695.42</ele>
        <time>2019-09-05T07:30:07Z</time>
      </trkpt>
      <trkpt lat="42.5819066819" lon="1.0333230346">
        <ele>1696.38</ele>
        <time>2019-09-05T07:30:13Z</time>
      </trkpt>
      <trkpt lat="42.5818312448" lon="1.0332358629">
        <ele>1696.86</ele>
        <time>2019-09-05T07:30:22Z</time>
      </trkpt>
      <trkpt lat="42.5817828812" lon="1.0331216175">
        <ele>1697.34</ele>
        <time>2019-09-05T07:30:34Z</time>
      </trkpt>
      <trkpt lat="42.5817273092" lon="1.0329341143">
        <ele>1697.83</ele>
        <time>2019-09-05T07:30:48Z</time>
      </trkpt>
      <trkpt lat="42.5817023311" lon="1.0328684840">
        <ele>1697.83</ele>
        <time>2019-09-05T07:30:52Z</time>
      </trkpt>
      <trkpt lat="42.5816424843" lon="1.0327429231">
        <ele>1697.83</ele>
        <time>2019-09-05T07:31:02Z</time>
      </trkpt>
      <trkpt lat="42.5815996528" lon="1.0325242393">
        <ele>1698.79</ele>
        <time>2019-09-05T07:31:17Z</time>
      </trkpt>
      <trkpt lat="42.5815712381" lon="1.0324251652">
        <ele>1698.79</ele>
        <time>2019-09-05T07:31:24Z</time>
      </trkpt>
      <trkpt lat="42.5815087091" lon="1.0322508216">
        <ele>1699.75</ele>
        <time>2019-09-05T07:31:36Z</time>
      </trkpt>
      <trkpt lat="42.5814724993" lon="1.0321424436">
        <ele>1700.23</ele>
        <time>2019-09-05T07:31:43Z</time>
      </trkpt>
      <trkpt lat="42.5814290810" lon="1.0319733806">
        <ele>1700.71</ele>
        <time>2019-09-05T07:31:54Z</time>
      </trkpt>
      <trkpt lat="42.5813610200" lon="1.0318458080">
        <ele>1701.19</ele>
        <time>2019-09-05T07:32:05Z</time>
      </trkpt>
      <trkpt lat="42.5813646242" lon="1.0317319818">
        <ele>1701.67</ele>
        <time>2019-09-05T07:32:21Z</time>
      </trkpt>
      <trkpt lat="42.5813305099" lon="1.0315530282">
        <ele>1703.11</ele>
        <time>2019-09-05T07:32:35Z</time>
      </trkpt>
      <trkpt lat="42.5812998321" lon="1.0314309038">
        <ele>1704.55</ele>
        <time>2019-09-05T07:32:47Z</time>
      </trkpt>
      <trkpt lat="42.5812800508" lon="1.0312710609">
        <ele>1706.96</ele>
        <time>2019-09-05T07:33:02Z</time>
      </trkpt>
      <trkpt lat="42.5812352076" lon="1.0311190132">
        <ele>1709.36</ele>
        <time>2019-09-05T07:33:17Z</time>
      </trkpt>
      <trkpt lat="42.5811787136" lon="1.0310128145">
        <ele>1710.32</ele>
        <time>2019-09-05T07:33:29Z</time>
      </trkpt>
      <trkpt lat="42.5811182801" lon="1.0309202783">
        <ele>1710.80</ele>
        <time>2019-09-05T07:33:41Z</time>
      </trkpt>
      <trkpt lat="42.5810549129" lon="1.0307716671">
        <ele>1713.21</ele>
        <time>2019-09-05T07:33:56Z</time>
      </trkpt>
      <trkpt lat="42.5810000952" lon="1.0305698309">
        <ele>1714.17</ele>
        <time>2019-09-05T07:34:10Z</time>
      </trkpt>
      <trkpt lat="42.5809263345" lon="1.0304704215">
        <ele>1716.09</ele>
        <time>2019-09-05T07:34:23Z</time>
      </trkpt>
      <trkpt lat="42.5809140131" lon="1.0304286797">
        <ele>1716.57</ele>
        <time>2019-09-05T07:34:26Z</time>
      </trkpt>
      <trkpt lat="42.5808417611" lon="1.0302792303">
        <ele>1717.53</ele>
        <time>2019-09-05T07:34:40Z</time>
      </trkpt>
      <trkpt lat="42.5807885360" lon="1.0301341396">
        <ele>1719.46</ele>
        <time>2019-09-05T07:34:55Z</time>
      </trkpt>
      <trkpt lat="42.5806898810" lon="1.0299895518">
        <ele>1720.90</ele>
        <time>2019-09-05T07:35:11Z</time>
      </trkpt>
      <trkpt lat="42.5806394219" lon="1.0298768152">
        <ele>1720.90</ele>
        <time>2019-09-05T07:35:20Z</time>
      </trkpt>
      <trkpt lat="42.5805773959" lon="1.0297032259">
        <ele>1720.90</ele>
        <time>2019-09-05T07:35:33Z</time>
      </trkpt>
      <trkpt lat="42.5805713609" lon="1.0295114480">
        <ele>1723.30</ele>
        <time>2019-09-05T07:35:49Z</time>
      </trkpt>
      <trkpt lat="42.5805599615" lon="1.0294079315">
        <ele>1725.22</ele>
        <time>2019-09-05T07:36:04Z</time>
      </trkpt>
      <trkpt lat="42.5805623084" lon="1.0293214303">
        <ele>1725.22</ele>
        <time>2019-09-05T07:36:23Z</time>
      </trkpt>
      <trkpt lat="42.5805780664" lon="1.0291730706">
        <ele>1726.18</ele>
        <time>2019-09-05T07:36:36Z</time>
      </trkpt>
      <trkpt lat="42.5805820897" lon="1.0290558077">
        <ele>1727.63</ele>
        <time>2019-09-05T07:36:51Z</time>
      </trkpt>
      <trkpt lat="42.5806249212" lon="1.0288897622">
        <ele>1729.07</ele>
        <time>2019-09-05T07:37:08Z</time>
      </trkpt>
      <trkpt lat="42.5806336384" lon="1.0288762674">
        <ele>1729.07</ele>
        <time>2019-09-05T07:37:09Z</time>
      </trkpt>
      <trkpt lat="42.5806903001" lon="1.0288424045">
        <ele>1730.03</ele>
        <time>2019-09-05T07:37:24Z</time>
      </trkpt>
      <trkpt lat="42.5806679204" lon="1.0285035241">
        <ele>1730.99</ele>
        <time>2019-09-05T07:37:40Z</time>
      </trkpt>
      <trkpt lat="42.5806328841" lon="1.0282985866">
        <ele>1732.43</ele>
        <time>2019-09-05T07:37:54Z</time>
      </trkpt>
      <trkpt lat="42.5806426909" lon="1.0281033721">
        <ele>1734.84</ele>
        <time>2019-09-05T07:38:08Z</time>
      </trkpt>
      <trkpt lat="42.5807090756" lon="1.0279190540">
        <ele>1737.24</ele>
        <time>2019-09-05T07:38:24Z</time>
      </trkpt>
      <trkpt lat="42.5807992648" lon="1.0277773160">
        <ele>1739.16</ele>
        <time>2019-09-05T07:38:40Z</time>
      </trkpt>
      <trkpt lat="42.5808770489" lon="1.0276264418">
        <ele>1739.64</ele>
        <time>2019-09-05T07:38:53Z</time>
      </trkpt>
      <trkpt lat="42.5809117500" lon="1.0275220033">
        <ele>1741.57</ele>
        <time>2019-09-05T07:39:07Z</time>
      </trkpt>
      <trkpt lat="42.5808967464" lon="1.0273527727">
        <ele>1743.49</ele>
        <time>2019-09-05T07:39:22Z</time>
      </trkpt>
      <trkpt lat="42.5809411705" lon="1.0271954443">
        <ele>1745.41</ele>
        <time>2019-09-05T07:39:37Z</time>
      </trkpt>
      <trkpt lat="42.5809662323" lon="1.0271451529">
        <ele>1747.81</ele>
        <time>2019-09-05T07:39:53Z</time>
      </trkpt>
      <trkpt lat="42.5810251571" lon="1.0270599928">
        <ele>1749.74</ele>
        <time>2019-09-05T07:40:05Z</time>
      </trkpt>
      <trkpt lat="42.5810842495" lon="1.0269874055">
        <ele>1751.18</ele>
        <time>2019-09-05T07:40:16Z</time>
      </trkpt>
      <trkpt lat="42.5811424199" lon="1.0268031713">
        <ele>1753.10</ele>
        <time>2019-09-05T07:40:30Z</time>
      </trkpt>
      <trkpt lat="42.5811748579" lon="1.0267090425">
        <ele>1754.54</ele>
        <time>2019-09-05T07:40:39Z</time>
      </trkpt>
      <trkpt lat="42.5812210422" lon="1.0265947133">
        <ele>1755.99</ele>
        <time>2019-09-05T07:40:51Z</time>
      </trkpt>
      <trkpt lat="42.5812285021" lon="1.0264629498">
        <ele>1757.91</ele>
        <time>2019-09-05T07:41:05Z</time>
      </trkpt>
      <trkpt lat="42.5812375546" lon="1.0262777098">
        <ele>1760.31</ele>
        <time>2019-09-05T07:41:23Z</time>
      </trkpt>
      <trkpt lat="42.5811514724" lon="1.0261796415">
        <ele>1762.71</ele>
        <time>2019-09-05T07:41:38Z</time>
      </trkpt>
      <trkpt lat="42.5810868479" lon="1.0260648932">
        <ele>1765.60</ele>
        <time>2019-09-05T07:41:52Z</time>
      </trkpt>
      <trkpt lat="42.5810106564" lon="1.0259853490">
        <ele>1768.00</ele>
        <time>2019-09-05T07:42:04Z</time>
      </trkpt>
      <trkpt lat="42.5809981674" lon="1.0259530786">
        <ele>1768.96</ele>
        <time>2019-09-05T07:42:21Z</time>
      </trkpt>
      <trkpt lat="42.5810050406" lon="1.0258746240">
        <ele>1769.44</ele>
        <time>2019-09-05T07:42:35Z</time>
      </trkpt>
      <trkpt lat="42.5810422562" lon="1.0257313773">
        <ele>1770.41</ele>
        <time>2019-09-05T07:42:50Z</time>
      </trkpt>
      <trkpt lat="42.5810764544" lon="1.0255999491">
        <ele>1770.89</ele>
        <time>2019-09-05T07:43:02Z</time>
      </trkpt>
      <trkpt lat="42.5810949784" lon="1.0253990348">
        <ele>1772.81</ele>
        <time>2019-09-05T07:43:16Z</time>
      </trkpt>
      <trkpt lat="42.5811311044" lon="1.0253054928">
        <ele>1773.77</ele>
        <time>2019-09-05T07:43:26Z</time>
      </trkpt>
      <trkpt lat="42.5811824016" lon="1.0251403693">
        <ele>1775.21</ele>
        <time>2019-09-05T07:43:41Z</time>
      </trkpt>
      <trkpt lat="42.5812293403" lon="1.0250589810">
        <ele>1775.21</ele>
        <time>2019-09-05T07:43:47Z</time>
      </trkpt>
      <trkpt lat="42.5812560786" lon="1.0248642694">
        <ele>1775.69</ele>
        <time>2019-09-05T07:43:59Z</time>
      </trkpt>
      <trkpt lat="42.5812930427" lon="1.0247102100">
        <ele>1776.17</ele>
        <time>2019-09-05T07:44:09Z</time>
      </trkpt>
      <trkpt lat="42.5812914502" lon="1.0246921051">
        <ele>1776.17</ele>
        <time>2019-09-05T07:44:10Z</time>
      </trkpt>
      <trkpt lat="42.5812953059" lon="1.0246734973">
        <ele>1776.17</ele>
        <time>2019-09-05T07:44:11Z</time>
      </trkpt>
      <trkpt lat="42.5813410711" lon="1.0246118903">
        <ele>1775.69</ele>
        <time>2019-09-05T07:44:17Z</time>
      </trkpt>
      <trkpt lat="42.5813917816" lon="1.0244739242">
        <ele>1774.73</ele>
        <time>2019-09-05T07:44:29Z</time>
      </trkpt>
      <trkpt lat="42.5813904405" lon="1.0244539753">
        <ele>1774.73</ele>
        <time>2019-09-05T07:44:30Z</time>
      </trkpt>
      <trkpt lat="42.5813834835" lon="1.0243989900">
        <ele>1774.73</ele>
        <time>2019-09-05T07:44:33Z</time>
      </trkpt>
      <trkpt lat="42.5814243872" lon="1.0242335312">
        <ele>1775.21</ele>
        <time>2019-09-05T07:44:46Z</time>
      </trkpt>
      <trkpt lat="42.5814448390" lon="1.0240570921">
        <ele>1776.17</ele>
        <time>2019-09-05T07:45:00Z</time>
      </trkpt>
      <trkpt lat="42.5814672187" lon="1.0238172021">
        <ele>1775.69</ele>
        <time>2019-09-05T07:45:14Z</time>
      </trkpt>
      <trkpt lat="42.5814802106" lon="1.0236210655">
        <ele>1777.13</ele>
        <time>2019-09-05T07:45:28Z</time>
      </trkpt>
      <trkpt lat="42.5815421529" lon="1.0234198160">
        <ele>1779.54</ele>
        <time>2019-09-05T07:45:44Z</time>
      </trkpt>
      <trkpt lat="42.5815384649" lon="1.0232749768">
        <ele>1780.98</ele>
        <time>2019-09-05T07:45:54Z</time>
      </trkpt>
      <trkpt lat="42.5815606769" lon="1.0231370945">
        <ele>1781.94</ele>
        <time>2019-09-05T07:46:04Z</time>
      </trkpt>
      <trkpt lat="42.5815904327" lon="1.0229796823">
        <ele>1784.82</ele>
        <time>2019-09-05T07:46:18Z</time>
      </trkpt>
      <trkpt lat="42.5816306658" lon="1.0229017306">
        <ele>1788.19</ele>
        <time>2019-09-05T07:46:29Z</time>
      </trkpt>
      <trkpt lat="42.5816403888" lon="1.0227626748">
        <ele>1789.15</ele>
        <time>2019-09-05T07:46:38Z</time>
      </trkpt>
      <trkpt lat="42.5816476811" lon="1.0227516107">
        <ele>1789.15</ele>
        <time>2019-09-05T07:46:39Z</time>
      </trkpt>
      <trkpt lat="42.5816258043" lon="1.0226138122">
        <ele>1788.67</ele>
        <time>2019-09-05T07:46:48Z</time>
      </trkpt>
      <trkpt lat="42.5816166680" lon="1.0224703979">
        <ele>1786.27</ele>
        <time>2019-09-05T07:47:00Z</time>
      </trkpt>
      <trkpt lat="42.5815791171" lon="1.0222481098">
        <ele>1786.75</ele>
        <time>2019-09-05T07:47:14Z</time>
      </trkpt>
      <trkpt lat="42.5815878343" lon="1.0221076291">
        <ele>1785.79</ele>
        <time>2019-09-05T07:47:27Z</time>
      </trkpt>
      <trkpt lat="42.5815558992" lon="1.0218798928">
        <ele>1786.75</ele>
        <time>2019-09-05T07:47:39Z</time>
      </trkpt>
      <trkpt lat="42.5815170072" lon="1.0217272583">
        <ele>1787.23</ele>
        <time>2019-09-05T07:47:51Z</time>
      </trkpt>
      <trkpt lat="42.5814933702" lon="1.0215918068">
        <ele>1789.63</ele>
        <time>2019-09-05T07:48:05Z</time>
      </trkpt>
      <trkpt lat="42.5814689789" lon="1.0215316247">
        <ele>1790.11</ele>
        <time>2019-09-05T07:48:16Z</time>
      </trkpt>
      <trkpt lat="42.5814698171" lon="1.0215100832">
        <ele>1790.59</ele>
        <time>2019-09-05T07:48:31Z</time>
      </trkpt>
      <trkpt lat="42.5814481080" lon="1.0215134360">
        <ele>1790.59</ele>
        <time>2019-09-05T07:48:45Z</time>
      </trkpt>
      <trkpt lat="42.5814501196" lon="1.0214789864">
        <ele>1791.55</ele>
        <time>2019-09-05T07:49:04Z</time>
      </trkpt>
      <trkpt lat="42.5814472698" lon="1.0214203969">
        <ele>1791.07</ele>
        <time>2019-09-05T07:49:18Z</time>
      </trkpt>
      <trkpt lat="42.5814236328" lon="1.0213338118">
        <ele>1790.59</ele>
        <time>2019-09-05T07:49:27Z</time>
      </trkpt>
      <trkpt lat="42.5813660491" lon="1.0212069936">
        <ele>1790.59</ele>
        <time>2019-09-05T07:49:39Z</time>
      </trkpt>
      <trkpt lat="42.5813415740" lon="1.0210743081">
        <ele>1790.59</ele>
        <time>2019-09-05T07:49:53Z</time>
      </trkpt>
      <trkpt lat="42.5812884327" lon="1.0208942648">
        <ele>1790.59</ele>
        <time>2019-09-05T07:50:07Z</time>
      </trkpt>
      <trkpt lat="42.5812220480" lon="1.0207129642">
        <ele>1791.07</ele>
        <time>2019-09-05T07:50:20Z</time>
      </trkpt>
      <trkpt lat="42.5811982434" lon="1.0206724796">
        <ele>1793.48</ele>
        <time>2019-09-05T07:50:28Z</time>
      </trkpt>
      <trkpt lat="42.5811998360" lon="1.0206680372">
        <ele>1792.03</ele>
        <time>2019-09-05T07:50:30Z</time>
      </trkpt>
      <trkpt lat="42.5811965670" lon="1.0206076875">
        <ele>1792.03</ele>
        <time>2019-09-05T07:50:47Z</time>
      </trkpt>
      <trkpt lat="42.5811242312" lon="1.0205055121">
        <ele>1792.03</ele>
        <time>2019-09-05T07:51:01Z</time>
      </trkpt>
      <trkpt lat="42.5810931344" lon="1.0203806218">
        <ele>1791.55</ele>
        <time>2019-09-05T07:51:17Z</time>
      </trkpt>
      <trkpt lat="42.5810067169" lon="1.0202113073">
        <ele>1792.52</ele>
        <time>2019-09-05T07:51:31Z</time>
      </trkpt>
      <trkpt lat="42.5809390750" lon="1.0199839901">
        <ele>1793.48</ele>
        <time>2019-09-05T07:51:46Z</time>
      </trkpt>
      <trkpt lat="42.5808967464" lon="1.0198134184">
        <ele>1794.44</ele>
        <time>2019-09-05T07:52:00Z</time>
      </trkpt>
      <trkpt lat="42.5808839221" lon="1.0198002588">
        <ele>1794.44</ele>
        <time>2019-09-05T07:52:01Z</time>
      </trkpt>
      <trkpt lat="42.5808798149" lon="1.0197894461">
        <ele>1794.44</ele>
        <time>2019-09-05T07:52:02Z</time>
      </trkpt>
      <trkpt lat="42.5808286853" lon="1.0197101533">
        <ele>1794.92</ele>
        <time>2019-09-05T07:52:10Z</time>
      </trkpt>
      <trkpt lat="42.5807841774" lon="1.0195404198">
        <ele>1794.92</ele>
        <time>2019-09-05T07:52:26Z</time>
      </trkpt>
      <trkpt lat="42.5807428546" lon="1.0193692613">
        <ele>1795.40</ele>
        <time>2019-09-05T07:52:39Z</time>
      </trkpt>
      <trkpt lat="42.5806597061" lon="1.0192934889">
        <ele>1796.36</ele>
        <time>2019-09-05T07:52:50Z</time>
      </trkpt>
      <trkpt lat="42.5806528330" lon="1.0192053951">
        <ele>1797.32</ele>
        <time>2019-09-05T07:53:00Z</time>
      </trkpt>
      <trkpt lat="42.5806473847" lon="1.0190712009">
        <ele>1797.80</ele>
        <time>2019-09-05T07:53:09Z</time>
      </trkpt>
      <trkpt lat="42.5806025416" lon="1.0189132858">
        <ele>1798.28</ele>
        <time>2019-09-05T07:53:24Z</time>
      </trkpt>
      <trkpt lat="42.5806458760" lon="1.0187852941">
        <ele>1799.24</ele>
        <time>2019-09-05T07:53:35Z</time>
      </trkpt>
      <trkpt lat="42.5806826726" lon="1.0186667740">
        <ele>1800.21</ele>
        <time>2019-09-05T07:53:49Z</time>
      </trkpt>
      <trkpt lat="42.5806861091" lon="1.0184735712">
        <ele>1800.69</ele>
        <time>2019-09-05T07:54:06Z</time>
      </trkpt>
      <trkpt lat="42.5807452016" lon="1.0182338487">
        <ele>1799.73</ele>
        <time>2019-09-05T07:54:23Z</time>
      </trkpt>
      <trkpt lat="42.5808012765" lon="1.0180740058">
        <ele>1801.17</ele>
        <time>2019-09-05T07:54:38Z</time>
      </trkpt>
      <trkpt lat="42.5808330439" lon="1.0178487003">
        <ele>1800.69</ele>
        <time>2019-09-05T07:54:54Z</time>
      </trkpt>
      <trkpt lat="42.5808342174" lon="1.0178256501">
        <ele>1800.69</ele>
        <time>2019-09-05T07:54:55Z</time>
      </trkpt>
      <trkpt lat="42.5808417611" lon="1.0178043600">
        <ele>1800.69</ele>
        <time>2019-09-05T07:54:56Z</time>
      </trkpt>
      <trkpt lat="42.5808875263" lon="1.0176033620">
        <ele>1801.65</ele>
        <time>2019-09-05T07:55:11Z</time>
      </trkpt>
      <trkpt lat="42.5808971655" lon="1.0174326226">
        <ele>1802.61</ele>
        <time>2019-09-05T07:55:24Z</time>
      </trkpt>
      <trkpt lat="42.5809240714" lon="1.0172716901">
        <ele>1802.61</ele>
        <time>2019-09-05T07:55:38Z</time>
      </trkpt>
      <trkpt lat="42.5809878577" lon="1.0171260126">
        <ele>1804.05</ele>
        <time>2019-09-05T07:55:54Z</time>
      </trkpt>
      <trkpt lat="42.5810484588" lon="1.0170917306">
        <ele>1805.97</ele>
        <time>2019-09-05T07:56:08Z</time>
      </trkpt>
      <trkpt lat="42.5811305176" lon="1.0168675147">
        <ele>1805.97</ele>
        <time>2019-09-05T07:56:22Z</time>
      </trkpt>
      <trkpt lat="42.5811584294" lon="1.0168454703">
        <ele>1805.97</ele>
        <time>2019-09-05T07:56:24Z</time>
      </trkpt>
      <trkpt lat="42.5812169351" lon="1.0168049019">
        <ele>1807.42</ele>
        <time>2019-09-05T07:56:36Z</time>
      </trkpt>
      <trkpt lat="42.5812945515" lon="1.0166572966">
        <ele>1808.86</ele>
        <time>2019-09-05T07:56:51Z</time>
      </trkpt>
      <trkpt lat="42.5813223794" lon="1.0165782552">
        <ele>1809.34</ele>
        <time>2019-09-05T07:57:05Z</time>
      </trkpt>
      <trkpt lat="42.5813326053" lon="1.0165255331">
        <ele>1809.34</ele>
        <time>2019-09-05T07:57:09Z</time>
      </trkpt>
      <trkpt lat="42.5813062023" lon="1.0163960326">
        <ele>1810.30</ele>
        <time>2019-09-05T07:57:19Z</time>
      </trkpt>
      <trkpt lat="42.5812955573" lon="1.0162263829">
        <ele>1811.26</ele>
        <time>2019-09-05T07:57:33Z</time>
      </trkpt>
      <trkpt lat="42.5812994130" lon="1.0160729103">
        <ele>1812.70</ele>
        <time>2019-09-05T07:57:47Z</time>
      </trkpt>
      <trkpt lat="42.5812774524" lon="1.0159489419">
        <ele>1814.15</ele>
        <time>2019-09-05T07:58:02Z</time>
      </trkpt>
      <trkpt lat="42.5812828168" lon="1.0157720000">
        <ele>1815.59</ele>
        <time>2019-09-05T07:58:16Z</time>
      </trkpt>
      <trkpt lat="42.5812626164" lon="1.0156437568">
        <ele>1817.51</ele>
        <time>2019-09-05T07:58:26Z</time>
      </trkpt>
      <trkpt lat="42.5812475290" lon="1.0154571757">
        <ele>1819.43</ele>
        <time>2019-09-05T07:58:40Z</time>
      </trkpt>
      <trkpt lat="42.5812766980" lon="1.0152574349">
        <ele>1820.87</ele>
        <time>2019-09-05T07:58:55Z</time>
      </trkpt>
      <trkpt lat="42.5812785421" lon="1.0152108315">
        <ele>1821.35</ele>
        <time>2019-09-05T07:58:58Z</time>
      </trkpt>
      <trkpt lat="42.5812829006" lon="1.0150100011">
        <ele>1824.24</ele>
        <time>2019-09-05T07:59:15Z</time>
      </trkpt>
      <trkpt lat="42.5812664721" lon="1.0147662554">
        <ele>1826.16</ele>
        <time>2019-09-05T07:59:31Z</time>
      </trkpt>
      <trkpt lat="42.5812607724" lon="1.0146924946">
        <ele>1828.56</ele>
        <time>2019-09-05T07:59:41Z</time>
      </trkpt>
      <trkpt lat="42.5812585093" lon="1.0146375932">
        <ele>1828.56</ele>
        <time>2019-09-05T07:59:45Z</time>
      </trkpt>
      <trkpt lat="42.5812654663" lon="1.0145277064">
        <ele>1830.01</ele>
        <time>2019-09-05T07:59:57Z</time>
      </trkpt>
      <trkpt lat="42.5812794641" lon="1.0144418757">
        <ele>1831.93</ele>
        <time>2019-09-05T08:00:05Z</time>
      </trkpt>
      <trkpt lat="42.5812736806" lon="1.0144373495">
        <ele>1832.41</ele>
        <time>2019-09-05T08:00:13Z</time>
      </trkpt>
      <trkpt lat="42.5812906958" lon="1.0144819412">
        <ele>1832.41</ele>
        <time>2019-09-05T08:00:34Z</time>
      </trkpt>
      <trkpt lat="42.5812622812" lon="1.0144438874">
        <ele>1831.45</ele>
        <time>2019-09-05T08:00:54Z</time>
      </trkpt>
      <trkpt lat="42.5812668912" lon="1.0142879002">
        <ele>1832.89</ele>
        <time>2019-09-05T08:01:13Z</time>
      </trkpt>
      <trkpt lat="42.5811976567" lon="1.0143262055">
        <ele>1834.33</ele>
        <time>2019-09-05T08:01:26Z</time>
      </trkpt>
      <trkpt lat="42.5811326969" lon="1.0143814422">
        <ele>1837.22</ele>
        <time>2019-09-05T08:01:40Z</time>
      </trkpt>
      <trkpt lat="42.5810955651" lon="1.0143782571">
        <ele>1840.58</ele>
        <time>2019-09-05T08:01:52Z</time>
      </trkpt>
      <trkpt lat="42.5810060464" lon="1.0144291352">
        <ele>1842.02</ele>
        <time>2019-09-05T08:02:06Z</time>
      </trkpt>
      <trkpt lat="42.5809370633" lon="1.0144381039">
        <ele>1842.50</ele>
        <time>2019-09-05T08:02:14Z</time>
      </trkpt>
      <trkpt lat="42.5809045415" lon="1.0143223498">
        <ele>1844.43</ele>
        <time>2019-09-05T08:02:28Z</time>
      </trkpt>
      <trkpt lat="42.5809028652" lon="1.0141705535">
        <ele>1845.39</ele>
        <time>2019-09-05T08:02:38Z</time>
      </trkpt>
      <trkpt lat="42.5809330400" lon="1.0140895844">
        <ele>1845.87</ele>
        <time>2019-09-05T08:02:43Z</time>
      </trkpt>
      <trkpt lat="42.5809259154" lon="1.0138465092">
        <ele>1849.23</ele>
        <time>2019-09-05T08:03:01Z</time>
      </trkpt>
      <trkpt lat="42.5809763744" lon="1.0136803798">
        <ele>1850.68</ele>
        <time>2019-09-05T08:03:16Z</time>
      </trkpt>
      <trkpt lat="42.5810860097" lon="1.0134890210">
        <ele>1853.08</ele>
        <time>2019-09-05T08:03:34Z</time>
      </trkpt>
      <trkpt lat="42.5811518915" lon="1.0133529827">
        <ele>1855.00</ele>
        <time>2019-09-05T08:03:49Z</time>
      </trkpt>
      <trkpt lat="42.5812023506" lon="1.0132014379">
        <ele>1857.40</ele>
        <time>2019-09-05T08:04:06Z</time>
      </trkpt>
      <trkpt lat="42.5811935496" lon="1.0131167807">
        <ele>1859.33</ele>
        <time>2019-09-05T08:04:21Z</time>
      </trkpt>
      <trkpt lat="42.5811465271" lon="1.0130211432">
        <ele>1860.29</ele>
        <time>2019-09-05T08:04:30Z</time>
      </trkpt>
      <trkpt lat="42.5811356306" lon="1.0130162816">
        <ele>1860.29</ele>
        <time>2019-09-05T08:04:31Z</time>
      </trkpt>
      <trkpt lat="42.5810788013" lon="1.0129934829">
        <ele>1860.77</ele>
        <time>2019-09-05T08:04:37Z</time>
      </trkpt>
      <trkpt lat="42.5810704194" lon="1.0129894596">
        <ele>1860.77</ele>
        <time>2019-09-05T08:04:38Z</time>
      </trkpt>
      <trkpt lat="42.5809600297" lon="1.0129882861">
        <ele>1861.25</ele>
        <time>2019-09-05T08:04:49Z</time>
      </trkpt>
      <trkpt lat="42.5808870234" lon="1.0130051337">
        <ele>1862.21</ele>
        <time>2019-09-05T08:04:56Z</time>
      </trkpt>
      <trkpt lat="42.5808752887" lon="1.0130016971">
        <ele>1862.21</ele>
        <time>2019-09-05T08:04:57Z</time>
      </trkpt>
      <trkpt lat="42.5807537511" lon="1.0129647329">
        <ele>1863.17</ele>
        <time>2019-09-05T08:05:09Z</time>
      </trkpt>
      <trkpt lat="42.5806914736" lon="1.0128150322">
        <ele>1865.58</ele>
        <time>2019-09-05T08:05:23Z</time>
      </trkpt>
      <trkpt lat="42.5806931499" lon="1.0125504993">
        <ele>1867.50</ele>
        <time>2019-09-05T08:05:44Z</time>
      </trkpt>
      <trkpt lat="42.5806962512" lon="1.0125012137">
        <ele>1868.46</ele>
        <time>2019-09-05T08:05:49Z</time>
      </trkpt>
      <trkpt lat="42.5807012804" lon="1.0123274568">
        <ele>1870.86</ele>
        <time>2019-09-05T08:06:05Z</time>
      </trkpt>
      <trkpt lat="42.5807623845" lon="1.0121533647">
        <ele>1872.30</ele>
        <time>2019-09-05T08:06:19Z</time>
      </trkpt>
      <trkpt lat="42.5807929784" lon="1.0119319148">
        <ele>1875.19</ele>
        <time>2019-09-05T08:06:37Z</time>
      </trkpt>
      <trkpt lat="42.5808419287" lon="1.0116946232">
        <ele>1878.07</ele>
        <time>2019-09-05T08:06:56Z</time>
      </trkpt>
      <trkpt lat="42.5808362290" lon="1.0115915257">
        <ele>1879.03</ele>
        <time>2019-09-05T08:07:13Z</time>
      </trkpt>
      <trkpt lat="42.5808472931" lon="1.0115818027">
        <ele>1879.51</ele>
        <time>2019-09-05T08:07:28Z</time>
      </trkpt>
      <trkpt lat="42.5808410905" lon="1.0115439165">
        <ele>1880.00</ele>
        <time>2019-09-05T08:07:40Z</time>
      </trkpt>
      <trkpt lat="42.5808275118" lon="1.0114731733">
        <ele>1880.96</ele>
        <time>2019-09-05T08:07:51Z</time>
      </trkpt>
      <trkpt lat="42.5808648951" lon="1.0114177689">
        <ele>1881.92</ele>
        <time>2019-09-05T08:08:04Z</time>
      </trkpt>
      <trkpt lat="42.5808863528" lon="1.0111922957">
        <ele>1884.32</ele>
        <time>2019-09-05T08:08:19Z</time>
      </trkpt>
      <trkpt lat="42.5809559226" lon="1.0109837539">
        <ele>1886.72</ele>
        <time>2019-09-05T08:08:36Z</time>
      </trkpt>
      <trkpt lat="42.5809863489" lon="1.0108918883">
        <ele>1888.17</ele>
        <time>2019-09-05T08:08:44Z</time>
      </trkpt>
      <trkpt lat="42.5810060464" lon="1.0108690895">
        <ele>1889.13</ele>
        <time>2019-09-05T08:08:55Z</time>
      </trkpt>
      <trkpt lat="42.5810099859" lon="1.0107442830">
        <ele>1889.61</ele>
        <time>2019-09-05T08:09:07Z</time>
      </trkpt>
      <trkpt lat="42.5810293481" lon="1.0106312949">
        <ele>1892.01</ele>
        <time>2019-09-05T08:09:19Z</time>
      </trkpt>
      <trkpt lat="42.5810540747" lon="1.0104951728">
        <ele>1894.42</ele>
        <time>2019-09-05T08:09:34Z</time>
      </trkpt>
      <trkpt lat="42.5810515601" lon="1.0103147104">
        <ele>1897.30</ele>
        <time>2019-09-05T08:09:54Z</time>
      </trkpt>
      <trkpt lat="42.5810219720" lon="1.0101661831">
        <ele>1900.18</ele>
        <time>2019-09-05T08:10:10Z</time>
      </trkpt>
      <trkpt lat="42.5809753686" lon="1.0100780893">
        <ele>1900.66</ele>
        <time>2019-09-05T08:10:19Z</time>
      </trkpt>
      <trkpt lat="42.5809207186" lon="1.0100234393">
        <ele>1901.63</ele>
        <time>2019-09-05T08:10:26Z</time>
      </trkpt>
      <trkpt lat="42.5808341336" lon="1.0099531990">
        <ele>1903.55</ele>
        <time>2019-09-05T08:10:37Z</time>
      </trkpt>
      <trkpt lat="42.5808840059" lon="1.0098876525">
        <ele>1904.99</ele>
        <time>2019-09-05T08:10:48Z</time>
      </trkpt>
      <trkpt lat="42.5809931383" lon="1.0099540371">
        <ele>1906.43</ele>
        <time>2019-09-05T08:11:02Z</time>
      </trkpt>
      <trkpt lat="42.5811985787" lon="1.0099682026">
        <ele>1908.35</ele>
        <time>2019-09-05T08:11:24Z</time>
      </trkpt>
      <trkpt lat="42.5812426675" lon="1.0099961143">
        <ele>1909.32</ele>
        <time>2019-09-05T08:11:36Z</time>
      </trkpt>
      <trkpt lat="42.5812840741" lon="1.0099864751">
        <ele>1909.32</ele>
        <time>2019-09-05T08:11:43Z</time>
      </trkpt>
      <trkpt lat="42.5812990777" lon="1.0098913405">
        <ele>1908.83</ele>
        <time>2019-09-05T08:11:58Z</time>
      </trkpt>
      <trkpt lat="42.5812439248" lon="1.0098785162">
        <ele>1909.80</ele>
        <time>2019-09-05T08:12:12Z</time>
      </trkpt>
      <trkpt lat="42.5811693259" lon="1.0098873172">
        <ele>1911.72</ele>
        <time>2019-09-05T08:12:24Z</time>
      </trkpt>
      <trkpt lat="42.5811404083" lon="1.0098426417">
        <ele>1913.16</ele>
        <time>2019-09-05T08:12:38Z</time>
      </trkpt>
      <trkpt lat="42.5811492093" lon="1.0098293982">
        <ele>1914.12</ele>
        <time>2019-09-05T08:12:54Z</time>
      </trkpt>
      <trkpt lat="42.5812173542" lon="1.0098935198">
        <ele>1912.68</ele>
        <time>2019-09-05T08:13:09Z</time>
      </trkpt>
      <trkpt lat="42.5812527258" lon="1.0098845512">
        <ele>1912.20</ele>
        <time>2019-09-05T08:13:13Z</time>
      </trkpt>
      <trkpt lat="42.5812785421" lon="1.0098843835">
        <ele>1911.24</ele>
        <time>2019-09-05T08:13:17Z</time>
      </trkpt>
      <trkpt lat="42.5813709944" lon="1.0100292228">
        <ele>1909.80</ele>
        <time>2019-09-05T08:13:29Z</time>
      </trkpt>
      <trkpt lat="42.5814674702" lon="1.0101087671">
        <ele>1909.80</ele>
        <time>2019-09-05T08:13:39Z</time>
      </trkpt>
      <trkpt lat="42.5814997405" lon="1.0101391096">
        <ele>1910.28</ele>
        <time>2019-09-05T08:13:43Z</time>
      </trkpt>
      <trkpt lat="42.5815085415" lon="1.0101440549">
        <ele>1910.28</ele>
        <time>2019-09-05T08:13:44Z</time>
      </trkpt>
      <trkpt lat="42.5815263949" lon="1.0101600643">
        <ele>1910.76</ele>
        <time>2019-09-05T08:13:46Z</time>
      </trkpt>
      <trkpt lat="42.5815906003" lon="1.0102147143">
        <ele>1911.24</ele>
        <time>2019-09-05T08:13:52Z</time>
      </trkpt>
      <trkpt lat="42.5816588290" lon="1.0103408620">
        <ele>1912.20</ele>
        <time>2019-09-05T08:14:02Z</time>
      </trkpt>
      <trkpt lat="42.5816653669" lon="1.0103547759">
        <ele>1912.68</ele>
        <time>2019-09-05T08:14:03Z</time>
      </trkpt>
      <trkpt lat="42.5817379542" lon="1.0104256868">
        <ele>1914.12</ele>
        <time>2019-09-05T08:14:12Z</time>
      </trkpt>
      <trkpt lat="42.5817967951" lon="1.0104100127">
        <ele>1915.56</ele>
        <time>2019-09-05T08:14:21Z</time>
      </trkpt>
      <trkpt lat="42.5818226114" lon="1.0103363357">
        <ele>1916.04</ele>
        <time>2019-09-05T08:14:32Z</time>
      </trkpt>
      <trkpt lat="42.5818153191" lon="1.0102821887">
        <ele>1917.01</ele>
        <time>2019-09-05T08:14:45Z</time>
      </trkpt>
      <trkpt lat="42.5818143971" lon="1.0102241021">
        <ele>1917.49</ele>
        <time>2019-09-05T08:14:57Z</time>
      </trkpt>
      <trkpt lat="42.5818209350" lon="1.0102178995">
        <ele>1918.45</ele>
        <time>2019-09-05T08:15:09Z</time>
      </trkpt>
      <trkpt lat="42.5818329211" lon="1.0102813505">
        <ele>1917.97</ele>
        <time>2019-09-05T08:15:25Z</time>
      </trkpt>
      <trkpt lat="42.5818470865" lon="1.0102796741">
        <ele>1917.97</ele>
        <time>2019-09-05T08:15:35Z</time>
      </trkpt>
      <trkpt lat="42.5818502717" lon="1.0102802608">
        <ele>1917.49</ele>
        <time>2019-09-05T08:15:59Z</time>
      </trkpt>
      <trkpt lat="42.5818597432" lon="1.0103123635">
        <ele>1917.97</ele>
        <time>2019-09-05T08:16:11Z</time>
      </trkpt>
      <trkpt lat="42.5818582345" lon="1.0103426222">
        <ele>1917.01</ele>
        <time>2019-09-05T08:16:21Z</time>
      </trkpt>
      <trkpt lat="42.5818451587" lon="1.0103202425">
        <ele>1916.53</ele>
        <time>2019-09-05T08:16:37Z</time>
      </trkpt>
      <trkpt lat="42.5818568096" lon="1.0103580449">
        <ele>1917.01</ele>
        <time>2019-09-05T08:16:48Z</time>
      </trkpt>
      <trkpt lat="42.5818351004" lon="1.0103978589">
        <ele>1916.53</ele>
        <time>2019-09-05T08:17:01Z</time>
      </trkpt>
      <trkpt lat="42.5817915983" lon="1.0104266927">
        <ele>1916.04</ele>
        <time>2019-09-05T08:17:10Z</time>
      </trkpt>
      <trkpt lat="42.5817150716" lon="1.0104304645">
        <ele>1915.56</ele>
        <time>2019-09-05T08:17:20Z</time>
      </trkpt>
      <trkpt lat="42.5817050971" lon="1.0104271956">
        <ele>1915.56</ele>
        <time>2019-09-05T08:17:21Z</time>
      </trkpt>
      <trkpt lat="42.5816461723" lon="1.0103716236">
        <ele>1913.64</ele>
        <time>2019-09-05T08:17:25Z</time>
      </trkpt>
      <trkpt lat="42.5816388801" lon="1.0103567038">
        <ele>1913.16</ele>
        <time>2019-09-05T08:17:26Z</time>
      </trkpt>
      <trkpt lat="42.5816333480" lon="1.0103420354">
        <ele>1913.16</ele>
        <time>2019-09-05T08:17:27Z</time>
      </trkpt>
      <trkpt lat="42.5816310011" lon="1.0103263613">
        <ele>1913.16</ele>
        <time>2019-09-05T08:17:28Z</time>
      </trkpt>
      <trkpt lat="42.5816283189" lon="1.0103104357">
        <ele>1913.16</ele>
        <time>2019-09-05T08:17:29Z</time>
      </trkpt>
      <trkpt lat="42.5816082861" lon="1.0102293827">
        <ele>1911.72</ele>
        <time>2019-09-05T08:17:36Z</time>
      </trkpt>
      <trkpt lat="42.5815107208" lon="1.0101359244">
        <ele>1909.80</ele>
        <time>2019-09-05T08:17:45Z</time>
      </trkpt>
      <trkpt lat="42.5814268179" lon="1.0100739822">
        <ele>1909.32</ele>
        <time>2019-09-05T08:17:55Z</time>
      </trkpt>
      <trkpt lat="42.5812891871" lon="1.0100158956">
        <ele>1908.35</ele>
        <time>2019-09-05T08:18:07Z</time>
      </trkpt>
      <trkpt lat="42.5812569167" lon="1.0100031551">
        <ele>1908.35</ele>
        <time>2019-09-05T08:18:18Z</time>
      </trkpt>
      <trkpt lat="42.5811983272" lon="1.0099901631">
        <ele>1907.87</ele>
        <time>2019-09-05T08:18:26Z</time>
      </trkpt>
      <trkpt lat="42.5811879337" lon="1.0099915881">
        <ele>1907.87</ele>
        <time>2019-09-05T08:18:27Z</time>
      </trkpt>
      <trkpt lat="42.5810674857" lon="1.0099937674">
        <ele>1907.39</ele>
        <time>2019-09-05T08:18:37Z</time>
      </trkpt>
      <trkpt lat="42.5810539071" lon="1.0099925939">
        <ele>1907.39</ele>
        <time>2019-09-05T08:18:38Z</time>
      </trkpt>
      <trkpt lat="42.5810381491" lon="1.0099901631">
        <ele>1907.39</ele>
        <time>2019-09-05T08:18:39Z</time>
      </trkpt>
      <trkpt lat="42.5810223073" lon="1.0099825356">
        <ele>1906.91</ele>
        <time>2019-09-05T08:18:40Z</time>
      </trkpt>
      <trkpt lat="42.5810057949" lon="1.0099750757">
        <ele>1906.91</ele>
        <time>2019-09-05T08:18:41Z</time>
      </trkpt>
      <trkpt lat="42.5809499715" lon="1.0099474993">
        <ele>1906.43</ele>
        <time>2019-09-05T08:18:46Z</time>
      </trkpt>
      <trkpt lat="42.5808985904" lon="1.0098900832">
        <ele>1905.95</ele>
        <time>2019-09-05T08:18:51Z</time>
      </trkpt>
      <trkpt lat="42.5808854308" lon="1.0098830424">
        <ele>1905.95</ele>
        <time>2019-09-05T08:18:52Z</time>
      </trkpt>
      <trkpt lat="42.5808710977" lon="1.0098735709">
        <ele>1905.95</ele>
        <time>2019-09-05T08:18:53Z</time>
      </trkpt>
      <trkpt lat="42.5808545016" lon="1.0098630935">
        <ele>1905.47</ele>
        <time>2019-09-05T08:18:54Z</time>
      </trkpt>
      <trkpt lat="42.5808427669" lon="1.0098532867">
        <ele>1905.47</ele>
        <time>2019-09-05T08:18:55Z</time>
      </trkpt>
      <trkpt lat="42.5808280986" lon="1.0098535381">
        <ele>1905.47</ele>
        <time>2019-09-05T08:18:56Z</time>
      </trkpt>
      <trkpt lat="42.5808142684" lon="1.0098715592">
        <ele>1904.99</ele>
        <time>2019-09-05T08:18:58Z</time>
      </trkpt>
      <trkpt lat="42.5808129273" lon="1.0098939389">
        <ele>1904.99</ele>
        <time>2019-09-05T08:18:59Z</time>
      </trkpt>
      <trkpt lat="42.5808171183" lon="1.0099093616">
        <ele>1904.51</ele>
        <time>2019-09-05T08:19:00Z</time>
      </trkpt>
      <trkpt lat="42.5808387436" lon="1.0099628381">
        <ele>1904.03</ele>
        <time>2019-09-05T08:19:04Z</time>
      </trkpt>
      <trkpt lat="42.5808987580" lon="1.0100420471">
        <ele>1902.59</ele>
        <time>2019-09-05T08:19:12Z</time>
      </trkpt>
      <trkpt lat="42.5809094869" lon="1.0100597329">
        <ele>1902.59</ele>
        <time>2019-09-05T08:19:13Z</time>
      </trkpt>
      <trkpt lat="42.5810071360" lon="1.0101822764">
        <ele>1901.63</ele>
        <time>2019-09-05T08:19:24Z</time>
      </trkpt>
      <trkpt lat="42.5810582656" lon="1.0102517623">
        <ele>1901.14</ele>
        <time>2019-09-05T08:19:29Z</time>
      </trkpt>
      <trkpt lat="42.5810674019" lon="1.0102676041">
        <ele>1901.14</ele>
        <time>2019-09-05T08:19:30Z</time>
      </trkpt>
      <trkpt lat="42.5810978282" lon="1.0103520937">
        <ele>1900.18</ele>
        <time>2019-09-05T08:19:38Z</time>
      </trkpt>
      <trkpt lat="42.5811003428" lon="1.0103797540">
        <ele>1900.18</ele>
        <time>2019-09-05T08:19:40Z</time>
      </trkpt>
      <trkpt lat="42.5811029412" lon="1.0104717035">
        <ele>1898.26</ele>
        <time>2019-09-05T08:19:49Z</time>
      </trkpt>
      <trkpt lat="42.5811071321" lon="1.0105556063">
        <ele>1896.82</ele>
        <time>2019-09-05T08:19:54Z</time>
      </trkpt>
      <trkpt lat="42.5811108202" lon="1.0106250085">
        <ele>1896.34</ele>
        <time>2019-09-05T08:19:57Z</time>
      </trkpt>
      <trkpt lat="42.5811111555" lon="1.0106457118">
        <ele>1896.34</ele>
        <time>2019-09-05T08:19:58Z</time>
      </trkpt>
      <trkpt lat="42.5810808130" lon="1.0106986854">
        <ele>1894.90</ele>
        <time>2019-09-05T08:20:03Z</time>
      </trkpt>
      <trkpt lat="42.5810725987" lon="1.0107112583">
        <ele>1894.42</ele>
        <time>2019-09-05T08:20:04Z</time>
      </trkpt>
      <trkpt lat="42.5810665637" lon="1.0107240826">
        <ele>1894.42</ele>
        <time>2019-09-05T08:20:05Z</time>
      </trkpt>
      <trkpt lat="42.5810578465" lon="1.0107431095">
        <ele>1894.42</ele>
        <time>2019-09-05T08:20:06Z</time>
      </trkpt>
      <trkpt lat="42.5810472015" lon="1.0107608791">
        <ele>1893.93</ele>
        <time>2019-09-05T08:20:07Z</time>
      </trkpt>
      <trkpt lat="42.5810361374" lon="1.0107794870">
        <ele>1893.93</ele>
        <time>2019-09-05T08:20:08Z</time>
      </trkpt>
      <trkpt lat="42.5809985865" lon="1.0108787287">
        <ele>1891.53</ele>
        <time>2019-09-05T08:20:18Z</time>
      </trkpt>
      <trkpt lat="42.5809978321" lon="1.0109125078">
        <ele>1891.05</ele>
        <time>2019-09-05T08:20:20Z</time>
      </trkpt>
      <trkpt lat="42.5809928030" lon="1.0110812355">
        <ele>1889.61</ele>
        <time>2019-09-05T08:20:31Z</time>
      </trkpt>
      <trkpt lat="42.5810224749" lon="1.0111711733">
        <ele>1888.65</ele>
        <time>2019-09-05T08:20:45Z</time>
      </trkpt>
      <trkpt lat="42.5809999276" lon="1.0112818144">
        <ele>1887.21</ele>
        <time>2019-09-05T08:20:56Z</time>
      </trkpt>
      <trkpt lat="42.5809673220" lon="1.0113599338">
        <ele>1886.24</ele>
        <time>2019-09-05T08:21:11Z</time>
      </trkpt>
      <trkpt lat="42.5809612032" lon="1.0115222074">
        <ele>1885.76</ele>
        <time>2019-09-05T08:21:24Z</time>
      </trkpt>
      <trkpt lat="42.5808625482" lon="1.0115932859">
        <ele>1884.32</ele>
        <time>2019-09-05T08:21:34Z</time>
      </trkpt>
      <trkpt lat="42.5807655696" lon="1.0115381330">
        <ele>1882.40</ele>
        <time>2019-09-05T08:21:44Z</time>
      </trkpt>
      <trkpt lat="42.5807519909" lon="1.0115284100">
        <ele>1882.40</ele>
        <time>2019-09-05T08:21:45Z</time>
      </trkpt>
      <trkpt lat="42.5806809124" lon="1.0114244744">
        <ele>1880.48</ele>
        <time>2019-09-05T08:21:57Z</time>
      </trkpt>
      <trkpt lat="42.5806627236" lon="1.0112818982">
        <ele>1879.51</ele>
        <time>2019-09-05T08:22:09Z</time>
      </trkpt>
      <trkpt lat="42.5806602091" lon="1.0110508092">
        <ele>1877.11</ele>
        <time>2019-09-05T08:22:23Z</time>
      </trkpt>
      <trkpt lat="42.5806260109" lon="1.0108242463">
        <ele>1875.19</ele>
        <time>2019-09-05T08:22:38Z</time>
      </trkpt>
      <trkpt lat="42.5806022063" lon="1.0107545089">
        <ele>1874.23</ele>
        <time>2019-09-05T08:22:54Z</time>
      </trkpt>
      <trkpt lat="42.5805097539" lon="1.0105235036">
        <ele>1872.79</ele>
        <time>2019-09-05T08:23:06Z</time>
      </trkpt>
      <trkpt lat="42.5804528408" lon="1.0103753116">
        <ele>1872.30</ele>
        <time>2019-09-05T08:23:17Z</time>
      </trkpt>
      <trkpt lat="42.5803923234" lon="1.0101434682">
        <ele>1871.82</ele>
        <time>2019-09-05T08:23:33Z</time>
      </trkpt>
      <trkpt lat="42.5803211611" lon="1.0098284762">
        <ele>1871.82</ele>
        <time>2019-09-05T08:23:52Z</time>
      </trkpt>
      <trkpt lat="42.5803098455" lon="1.0096480139">
        <ele>1872.79</ele>
        <time>2019-09-05T08:24:02Z</time>
      </trkpt>
      <trkpt lat="42.5803232566" lon="1.0094529670">
        <ele>1874.23</ele>
        <time>2019-09-05T08:24:15Z</time>
      </trkpt>
      <trkpt lat="42.5803540181" lon="1.0092296731">
        <ele>1876.63</ele>
        <time>2019-09-05T08:24:30Z</time>
      </trkpt>
      <trkpt lat="42.5803544372" lon="1.0091233067">
        <ele>1878.07</ele>
        <time>2019-09-05T08:24:38Z</time>
      </trkpt>
      <trkpt lat="42.5803512521" lon="1.0091056209">
        <ele>1878.07</ele>
        <time>2019-09-05T08:24:39Z</time>
      </trkpt>
      <trkpt lat="42.5803557783" lon="1.0090179462">
        <ele>1879.03</ele>
        <time>2019-09-05T08:24:46Z</time>
      </trkpt>
      <trkpt lat="42.5803854503" lon="1.0088763759">
        <ele>1880.00</ele>
        <time>2019-09-05T08:24:58Z</time>
      </trkpt>
      <trkpt lat="42.5804100931" lon="1.0087657347">
        <ele>1880.48</ele>
        <time>2019-09-05T08:25:05Z</time>
      </trkpt>
      <trkpt lat="42.5804014597" lon="1.0086825024">
        <ele>1880.96</ele>
        <time>2019-09-05T08:25:11Z</time>
      </trkpt>
      <trkpt lat="42.5803947542" lon="1.0085314605">
        <ele>1881.44</ele>
        <time>2019-09-05T08:25:22Z</time>
      </trkpt>
      <trkpt lat="42.5803830195" lon="1.0084975138">
        <ele>1881.44</ele>
        <time>2019-09-05T08:25:24Z</time>
      </trkpt>
      <trkpt lat="42.5803040620" lon="1.0084002838">
        <ele>1882.40</ele>
        <time>2019-09-05T08:25:35Z</time>
      </trkpt>
      <trkpt lat="42.5801883917" lon="1.0083149560">
        <ele>1882.88</ele>
        <time>2019-09-05T08:25:46Z</time>
      </trkpt>
      <trkpt lat="42.5801783334" lon="1.0083166324">
        <ele>1882.88</ele>
        <time>2019-09-05T08:25:47Z</time>
      </trkpt>
      <trkpt lat="42.5801659282" lon="1.0083188117">
        <ele>1882.88</ele>
        <time>2019-09-05T08:25:48Z</time>
      </trkpt>
      <trkpt lat="42.5801528525" lon="1.0083186440">
        <ele>1882.88</ele>
        <time>2019-09-05T08:25:49Z</time>
      </trkpt>
      <trkpt lat="42.5801413693" lon="1.0083200689">
        <ele>1882.88</ele>
        <time>2019-09-05T08:25:50Z</time>
      </trkpt>
      <trkpt lat="42.5801184867" lon="1.0083344858">
        <ele>1883.36</ele>
        <time>2019-09-05T08:25:52Z</time>
      </trkpt>
      <trkpt lat="42.5800987054" lon="1.0083515849">
        <ele>1883.36</ele>
        <time>2019-09-05T08:25:54Z</time>
      </trkpt>
      <trkpt lat="42.5799880642" lon="1.0084145330">
        <ele>1884.32</ele>
        <time>2019-09-05T08:26:05Z</time>
      </trkpt>
      <trkpt lat="42.5798907503" lon="1.0084852763">
        <ele>1886.24</ele>
        <time>2019-09-05T08:26:16Z</time>
      </trkpt>
      <trkpt lat="42.5797644351" lon="1.0085460451">
        <ele>1888.65</ele>
        <time>2019-09-05T08:26:31Z</time>
      </trkpt>
      <trkpt lat="42.5796441548" lon="1.0085566062">
        <ele>1890.09</ele>
        <time>2019-09-05T08:26:43Z</time>
      </trkpt>
      <trkpt lat="42.5795033388" lon="1.0085474700">
        <ele>1891.05</ele>
        <time>2019-09-05T08:26:55Z</time>
      </trkpt>
      <trkpt lat="42.5793508720" lon="1.0085515771">
        <ele>1892.97</ele>
        <time>2019-09-05T08:27:09Z</time>
      </trkpt>
      <trkpt lat="42.5792802125" lon="1.0086130165">
        <ele>1893.45</ele>
        <time>2019-09-05T08:27:17Z</time>
      </trkpt>
      <trkpt lat="42.5792746805" lon="1.0086280201">
        <ele>1893.45</ele>
        <time>2019-09-05T08:27:18Z</time>
      </trkpt>
      <trkpt lat="42.5792503729" lon="1.0086820833">
        <ele>1893.93</ele>
        <time>2019-09-05T08:27:22Z</time>
      </trkpt>
      <trkpt lat="42.5792422425" lon="1.0087011103">
        <ele>1893.93</ele>
        <time>2019-09-05T08:27:23Z</time>
      </trkpt>
      <trkpt lat="42.5792284124" lon="1.0087395832">
        <ele>1894.42</ele>
        <time>2019-09-05T08:27:26Z</time>
      </trkpt>
      <trkpt lat="42.5792243052" lon="1.0087538324">
        <ele>1894.42</ele>
        <time>2019-09-05T08:27:27Z</time>
      </trkpt>
      <trkpt lat="42.5792146660" lon="1.0087674949">
        <ele>1894.42</ele>
        <time>2019-09-05T08:27:28Z</time>
      </trkpt>
      <trkpt lat="42.5791663863" lon="1.0088325385">
        <ele>1895.38</ele>
        <time>2019-09-05T08:27:38Z</time>
      </trkpt>
      <trkpt lat="42.5791108143" lon="1.0088539124">
        <ele>1896.34</ele>
        <time>2019-09-05T08:27:44Z</time>
      </trkpt>
      <trkpt lat="42.5790333655" lon="1.0088631324">
        <ele>1897.78</ele>
        <time>2019-09-05T08:27:54Z</time>
      </trkpt>
      <trkpt lat="42.5789282564" lon="1.0088798124">
        <ele>1899.22</ele>
        <time>2019-09-05T08:28:08Z</time>
      </trkpt>
      <trkpt lat="42.5788708404" lon="1.0088930558">
        <ele>1900.66</ele>
        <time>2019-09-05T08:28:21Z</time>
      </trkpt>
      <trkpt lat="42.5788204651" lon="1.0089270025">
        <ele>1900.66</ele>
        <time>2019-09-05T08:28:28Z</time>
      </trkpt>
      <trkpt lat="42.5788110774" lon="1.0089390725">
        <ele>1900.18</ele>
        <time>2019-09-05T08:28:29Z</time>
      </trkpt>
      <trkpt lat="42.5788151007" lon="1.0090551618">
        <ele>1900.18</ele>
        <time>2019-09-05T08:28:39Z</time>
      </trkpt>
      <trkpt lat="42.5788309425" lon="1.0090858396">
        <ele>1900.18</ele>
        <time>2019-09-05T08:28:51Z</time>
      </trkpt>
      <trkpt lat="42.5788036175" lon="1.0091028549">
        <ele>1899.70</ele>
        <time>2019-09-05T08:29:08Z</time>
      </trkpt>
      <trkpt lat="42.5788179506" lon="1.0091087222">
        <ele>1900.18</ele>
        <time>2019-09-05T08:29:29Z</time>
      </trkpt>
      <trkpt lat="42.5787846744" lon="1.0090690758">
        <ele>1899.70</ele>
        <time>2019-09-05T08:29:48Z</time>
      </trkpt>
      <trkpt lat="42.5787847582" lon="1.0090638790">
        <ele>1900.18</ele>
        <time>2019-09-05T08:30:07Z</time>
      </trkpt>
      <trkpt lat="42.5787915476" lon="1.0090747755">
        <ele>1905.95</ele>
        <time>2019-09-05T08:30:15Z</time>
      </trkpt>
      <trkpt lat="42.5787899550" lon="1.0090762842">
        <ele>1903.07</ele>
        <time>2019-09-05T08:30:16Z</time>
      </trkpt>
      <trkpt lat="42.5787513983" lon="1.0091335326">
        <ele>1900.18</ele>
        <time>2019-09-05T08:30:36Z</time>
      </trkpt>
      <trkpt lat="42.5787488837" lon="1.0091027711">
        <ele>1900.18</ele>
        <time>2019-09-05T08:30:56Z</time>
      </trkpt>
      <trkpt lat="42.5787679944" lon="1.0090653040">
        <ele>1900.18</ele>
        <time>2019-09-05T08:31:42Z</time>
      </trkpt>
      <trkpt lat="42.5787712634" lon="1.0090809781">
        <ele>1900.18</ele>
        <time>2019-09-05T08:31:43Z</time>
      </trkpt>
      <trkpt lat="42.5787584390" lon="1.0090866778">
        <ele>1900.18</ele>
        <time>2019-09-05T08:31:57Z</time>
      </trkpt>
      <trkpt lat="42.5787589420" lon="1.0090808105">
        <ele>1900.18</ele>
        <time>2019-09-05T08:32:16Z</time>
      </trkpt>
      <trkpt lat="42.5787772983" lon="1.0091191158">
        <ele>1900.18</ele>
        <time>2019-09-05T08:32:31Z</time>
      </trkpt>
      <trkpt lat="42.5788088143" lon="1.0091558285">
        <ele>1899.70</ele>
        <time>2019-09-05T08:32:49Z</time>
      </trkpt>
      <trkpt lat="42.5787960738" lon="1.0091776215">
        <ele>1899.70</ele>
        <time>2019-09-05T08:33:11Z</time>
      </trkpt>
      <trkpt lat="42.5787638873" lon="1.0091669764">
        <ele>1899.22</ele>
        <time>2019-09-05T08:33:26Z</time>
      </trkpt>
      <trkpt lat="42.5787844229" lon="1.0091362987">
        <ele>1899.70</ele>
        <time>2019-09-05T08:33:45Z</time>
      </trkpt>
      <trkpt lat="42.5787901226" lon="1.0091580916">
        <ele>1899.70</ele>
        <time>2019-09-05T08:34:03Z</time>
      </trkpt>
      <trkpt lat="42.5787911285" lon="1.0090561677">
        <ele>1900.18</ele>
        <time>2019-09-05T08:34:21Z</time>
      </trkpt>
      <trkpt lat="42.5788228121" lon="1.0090154316">
        <ele>1901.14</ele>
        <time>2019-09-05T08:34:30Z</time>
      </trkpt>
      <trkpt lat="42.5788287632" lon="1.0090196226">
        <ele>1901.63</ele>
        <time>2019-09-05T08:34:50Z</time>
      </trkpt>
      <trkpt lat="42.5788975786" lon="1.0089252423">
        <ele>1901.14</ele>
        <time>2019-09-05T08:35:03Z</time>
      </trkpt>
      <trkpt lat="42.5789045356" lon="1.0088938102">
        <ele>1901.14</ele>
        <time>2019-09-05T08:35:15Z</time>
      </trkpt>
      <trkpt lat="42.5789331179" lon="1.0088331252">
        <ele>1901.14</ele>
        <time>2019-09-05T08:35:32Z</time>
      </trkpt>
      <trkpt lat="42.5789788831" lon="1.0088045429">
        <ele>1902.11</ele>
        <time>2019-09-05T08:35:44Z</time>
      </trkpt>
      <trkpt lat="42.5789953116" lon="1.0087727755">
        <ele>1902.11</ele>
        <time>2019-09-05T08:35:46Z</time>
      </trkpt>
      <trkpt lat="42.5789458584" lon="1.0086055566">
        <ele>1902.59</ele>
        <time>2019-09-05T08:35:58Z</time>
      </trkpt>
      <trkpt lat="42.5789210480" lon="1.0085571930">
        <ele>1902.11</ele>
        <time>2019-09-05T08:36:08Z</time>
      </trkpt>
      <trkpt lat="42.5789104030" lon="1.0085024592">
        <ele>1902.11</ele>
        <time>2019-09-05T08:36:12Z</time>
      </trkpt>
      <trkpt lat="42.5789269153" lon="1.0084245075">
        <ele>1901.63</ele>
        <time>2019-09-05T08:36:19Z</time>
      </trkpt>
      <trkpt lat="42.5789545756" lon="1.0083784070">
        <ele>1901.14</ele>
        <time>2019-09-05T08:36:29Z</time>
      </trkpt>
      <trkpt lat="42.5789661426" lon="1.0083385929">
        <ele>1901.14</ele>
        <time>2019-09-05T08:36:32Z</time>
      </trkpt>
      <trkpt lat="42.5790022686" lon="1.0082584620">
        <ele>1901.63</ele>
        <time>2019-09-05T08:36:42Z</time>
      </trkpt>
      <trkpt lat="42.5790275820" lon="1.0082147922">
        <ele>1902.11</ele>
        <time>2019-09-05T08:36:50Z</time>
      </trkpt>
      <trkpt lat="42.5790875126" lon="1.0082077514">
        <ele>1903.07</ele>
        <time>2019-09-05T08:37:01Z</time>
      </trkpt>
      <trkpt lat="42.5791419949" lon="1.0081656743">
        <ele>1904.51</ele>
        <time>2019-09-05T08:37:13Z</time>
      </trkpt>
      <trkpt lat="42.5791503768" lon="1.0080976132">
        <ele>1906.91</ele>
        <time>2019-09-05T08:37:24Z</time>
      </trkpt>
      <trkpt lat="42.5790812261" lon="1.0080109444">
        <ele>1908.83</ele>
        <time>2019-09-05T08:37:38Z</time>
      </trkpt>
      <trkpt lat="42.5790416636" lon="1.0079842061">
        <ele>1909.80</ele>
        <time>2019-09-05T08:37:51Z</time>
      </trkpt>
      <trkpt lat="42.5790011790" lon="1.0079535283">
        <ele>1911.24</ele>
        <time>2019-09-05T08:38:11Z</time>
      </trkpt>
      <trkpt lat="42.5789104030" lon="1.0078878980">
        <ele>1913.16</ele>
        <time>2019-09-05T08:38:24Z</time>
      </trkpt>
      <trkpt lat="42.5788332894" lon="1.0078160651">
        <ele>1915.08</ele>
        <time>2019-09-05T08:38:38Z</time>
      </trkpt>
      <trkpt lat="42.5787629653" lon="1.0077292286">
        <ele>1917.49</ele>
        <time>2019-09-05T08:38:51Z</time>
      </trkpt>
      <trkpt lat="42.5787218940" lon="1.0076146480">
        <ele>1920.37</ele>
        <time>2019-09-05T08:39:05Z</time>
      </trkpt>
      <trkpt lat="42.5787225645" lon="1.0076020751">
        <ele>1920.37</ele>
        <time>2019-09-05T08:39:06Z</time>
      </trkpt>
      <trkpt lat="42.5787943974" lon="1.0075535439">
        <ele>1922.29</ele>
        <time>2019-09-05T08:39:16Z</time>
      </trkpt>
      <trkpt lat="42.5788045395" lon="1.0075585730">
        <ele>1922.29</ele>
        <time>2019-09-05T08:39:17Z</time>
      </trkpt>
      <trkpt lat="42.5788162742" lon="1.0075641051">
        <ele>1922.29</ele>
        <time>2019-09-05T08:39:18Z</time>
      </trkpt>
      <trkpt lat="42.5788425095" lon="1.0075820424">
        <ele>1922.29</ele>
        <time>2019-09-05T08:39:21Z</time>
      </trkpt>
      <trkpt lat="42.5789467804" lon="1.0076361895">
        <ele>1921.81</ele>
        <time>2019-09-05T08:39:33Z</time>
      </trkpt>
      <trkpt lat="42.5789578445" lon="1.0076373629">
        <ele>1921.81</ele>
        <time>2019-09-05T08:39:34Z</time>
      </trkpt>
      <trkpt lat="42.5790528953" lon="1.0076440684">
        <ele>1922.77</ele>
        <time>2019-09-05T08:39:44Z</time>
      </trkpt>
      <trkpt lat="42.5790619478" lon="1.0076366924">
        <ele>1922.77</ele>
        <time>2019-09-05T08:39:45Z</time>
      </trkpt>
      <trkpt lat="42.5790700782" lon="1.0076230299">
        <ele>1922.77</ele>
        <time>2019-09-05T08:39:46Z</time>
      </trkpt>
      <trkpt lat="42.5790770352" lon="1.0076103732">
        <ele>1922.77</ele>
        <time>2019-09-05T08:39:47Z</time>
      </trkpt>
      <trkpt lat="42.5791167654" lon="1.0075264703">
        <ele>1923.74</ele>
        <time>2019-09-05T08:39:54Z</time>
      </trkpt>
      <trkpt lat="42.5791197829" lon="1.0075113829">
        <ele>1923.74</ele>
        <time>2019-09-05T08:39:55Z</time>
      </trkpt>
      <trkpt lat="42.5791225489" lon="1.0074100457">
        <ele>1925.18</ele>
        <time>2019-09-05T08:40:04Z</time>
      </trkpt>
      <trkpt lat="42.5791171007" lon="1.0072663799">
        <ele>1926.62</ele>
        <time>2019-09-05T08:40:18Z</time>
      </trkpt>
      <trkpt lat="42.5791109819" lon="1.0072434135">
        <ele>1926.62</ele>
        <time>2019-09-05T08:40:19Z</time>
      </trkpt>
      <trkpt lat="42.5791082159" lon="1.0071985703">
        <ele>1926.62</ele>
        <time>2019-09-05T08:40:21Z</time>
      </trkpt>
      <trkpt lat="42.5791006722" lon="1.0071550682">
        <ele>1927.10</ele>
        <time>2019-09-05T08:40:29Z</time>
      </trkpt>
      <trkpt lat="42.5790881831" lon="1.0071305092">
        <ele>1927.10</ele>
        <time>2019-09-05T08:40:31Z</time>
      </trkpt>
      <trkpt lat="42.5790446810" lon="1.0070469417">
        <ele>1926.62</ele>
        <time>2019-09-05T08:40:42Z</time>
      </trkpt>
      <trkpt lat="42.5790103152" lon="1.0069813114">
        <ele>1926.62</ele>
        <time>2019-09-05T08:40:46Z</time>
      </trkpt>
      <trkpt lat="42.5789673999" lon="1.0069057066">
        <ele>1927.10</ele>
        <time>2019-09-05T08:40:55Z</time>
      </trkpt>
      <trkpt lat="42.5788862631" lon="1.0068193730">
        <ele>1927.58</ele>
        <time>2019-09-05T08:41:07Z</time>
      </trkpt>
      <trkpt lat="42.5787678268" lon="1.0067618731">
        <ele>1929.02</ele>
        <time>2019-09-05T08:41:22Z</time>
      </trkpt>
      <trkpt lat="42.5787342153" lon="1.0067752004">
        <ele>1929.02</ele>
        <time>2019-09-05T08:41:25Z</time>
      </trkpt>
      <trkpt lat="42.5787227321" lon="1.0067767929">
        <ele>1929.02</ele>
        <time>2019-09-05T08:41:26Z</time>
      </trkpt>
      <trkpt lat="42.5787102431" lon="1.0067745298">
        <ele>1929.02</ele>
        <time>2019-09-05T08:41:27Z</time>
      </trkpt>
      <trkpt lat="42.5786980055" lon="1.0067753680">
        <ele>1929.02</ele>
        <time>2019-09-05T08:41:28Z</time>
      </trkpt>
      <trkpt lat="42.5786762964" lon="1.0067806486">
        <ele>1928.54</ele>
        <time>2019-09-05T08:41:30Z</time>
      </trkpt>
      <trkpt lat="42.5786646456" lon="1.0067838337">
        <ele>1928.54</ele>
        <time>2019-09-05T08:41:31Z</time>
      </trkpt>
      <trkpt lat="42.5786534138" lon="1.0067832470">
        <ele>1928.06</ele>
        <time>2019-09-05T08:41:32Z</time>
      </trkpt>
      <trkpt lat="42.5786041282" lon="1.0067793075">
        <ele>1927.58</ele>
        <time>2019-09-05T08:41:36Z</time>
      </trkpt>
      <trkpt lat="42.5785918906" lon="1.0067761224">
        <ele>1927.58</ele>
        <time>2019-09-05T08:41:37Z</time>
      </trkpt>
      <trkpt lat="42.5785777252" lon="1.0067765415">
        <ele>1927.58</ele>
        <time>2019-09-05T08:41:38Z</time>
      </trkpt>
      <trkpt lat="42.5784396753" lon="1.0067896172">
        <ele>1928.06</ele>
        <time>2019-09-05T08:41:50Z</time>
      </trkpt>
      <trkpt lat="42.5784273539" lon="1.0067907907">
        <ele>1928.06</ele>
        <time>2019-09-05T08:41:51Z</time>
      </trkpt>
      <trkpt lat="42.5784158707" lon="1.0067777988">
        <ele>1928.06</ele>
        <time>2019-09-05T08:41:52Z</time>
      </trkpt>
      <trkpt lat="42.5784041360" lon="1.0067697521">
        <ele>1928.06</ele>
        <time>2019-09-05T08:41:53Z</time>
      </trkpt>
      <trkpt lat="42.5783915631" lon="1.0067581013">
        <ele>1928.06</ele>
        <time>2019-09-05T08:41:54Z</time>
      </trkpt>
      <trkpt lat="42.5783019606" lon="1.0066841729">
        <ele>1927.58</ele>
        <time>2019-09-05T08:42:05Z</time>
      </trkpt>
      <trkpt lat="42.5782666728" lon="1.0065443628">
        <ele>1929.02</ele>
        <time>2019-09-05T08:42:18Z</time>
      </trkpt>
      <trkpt lat="42.5783213228" lon="1.0064489767">
        <ele>1932.87</ele>
        <time>2019-09-05T08:42:29Z</time>
      </trkpt>
      <trkpt lat="42.5782750547" lon="1.0063790716">
        <ele>1934.79</ele>
        <time>2019-09-05T08:42:42Z</time>
      </trkpt>
      <trkpt lat="42.5781815965" lon="1.0063452087">
        <ele>1935.27</ele>
        <time>2019-09-05T08:42:55Z</time>
      </trkpt>
      <trkpt lat="42.5781029742" lon="1.0063095856">
        <ele>1935.27</ele>
        <time>2019-09-05T08:43:01Z</time>
      </trkpt>
      <trkpt lat="42.5780282076" lon="1.0062378366">
        <ele>1937.19</ele>
        <time>2019-09-05T08:43:11Z</time>
      </trkpt>
      <trkpt lat="42.5779620744" lon="1.0061552748">
        <ele>1939.12</ele>
        <time>2019-09-05T08:43:24Z</time>
      </trkpt>
      <trkpt lat="42.5779190753" lon="1.0061268602">
        <ele>1940.08</ele>
        <time>2019-09-05T08:43:28Z</time>
      </trkpt>
      <trkpt lat="42.5778632518" lon="1.0060680192">
        <ele>1941.04</ele>
        <time>2019-09-05T08:43:39Z</time>
      </trkpt>
      <trkpt lat="42.5778222643" lon="1.0060574580">
        <ele>1941.04</ele>
        <time>2019-09-05T08:43:52Z</time>
      </trkpt>
      <trkpt lat="42.5778024830" lon="1.0059733037">
        <ele>1941.52</ele>
        <time>2019-09-05T08:44:04Z</time>
      </trkpt>
      <trkpt lat="42.5777675305" lon="1.0058630817">
        <ele>1943.92</ele>
        <time>2019-09-05T08:44:21Z</time>
      </trkpt>
      <trkpt lat="42.5776775088" lon="1.0057880636">
        <ele>1946.81</ele>
        <time>2019-09-05T08:44:34Z</time>
      </trkpt>
      <trkpt lat="42.5775959529" lon="1.0057113692">
        <ele>1950.17</ele>
        <time>2019-09-05T08:44:51Z</time>
      </trkpt>
      <trkpt lat="42.5774945319" lon="1.0057288874">
        <ele>1952.57</ele>
        <time>2019-09-05T08:45:05Z</time>
      </trkpt>
      <trkpt lat="42.5774127245" lon="1.0057289712">
        <ele>1955.46</ele>
        <time>2019-09-05T08:45:21Z</time>
      </trkpt>
      <trkpt lat="42.5773210265" lon="1.0056798533">
        <ele>1956.90</ele>
        <time>2019-09-05T08:45:34Z</time>
      </trkpt>
      <trkpt lat="42.5772552285" lon="1.0056842119">
        <ele>1958.82</ele>
        <time>2019-09-05T08:45:47Z</time>
      </trkpt>
      <trkpt lat="42.5771842338" lon="1.0056121275">
        <ele>1961.23</ele>
        <time>2019-09-05T08:46:01Z</time>
      </trkpt>
      <trkpt lat="42.5770812202" lon="1.0055775102">
        <ele>1963.63</ele>
        <time>2019-09-05T08:46:14Z</time>
      </trkpt>
      <trkpt lat="42.5769872591" lon="1.0055266321">
        <ele>1963.63</ele>
        <time>2019-09-05T08:46:24Z</time>
      </trkpt>
      <trkpt lat="42.5769722555" lon="1.0055235308">
        <ele>1963.63</ele>
        <time>2019-09-05T08:46:25Z</time>
      </trkpt>
      <trkpt lat="42.5768941361" lon="1.0055226088">
        <ele>1964.11</ele>
        <time>2019-09-05T08:46:33Z</time>
      </trkpt>
      <trkpt lat="42.5767870992" lon="1.0055005644">
        <ele>1964.59</ele>
        <time>2019-09-05T08:46:43Z</time>
      </trkpt>
      <trkpt lat="42.5766743626" lon="1.0054703895">
        <ele>1965.55</ele>
        <time>2019-09-05T08:46:55Z</time>
      </trkpt>
      <trkpt lat="42.5766090676" lon="1.0054496862">
        <ele>1966.03</ele>
        <time>2019-09-05T08:47:00Z</time>
      </trkpt>
      <trkpt lat="42.5765674096" lon="1.0053908452">
        <ele>1966.03</ele>
        <time>2019-09-05T08:47:09Z</time>
      </trkpt>
      <trkpt lat="42.5764650665" lon="1.0053222813">
        <ele>1966.99</ele>
        <time>2019-09-05T08:47:20Z</time>
      </trkpt>
      <trkpt lat="42.5763455406" lon="1.0052675474">
        <ele>1968.44</ele>
        <time>2019-09-05T08:47:34Z</time>
      </trkpt>
      <trkpt lat="42.5762656610" lon="1.0052293260">
        <ele>1968.92</ele>
        <time>2019-09-05T08:47:45Z</time>
      </trkpt>
      <trkpt lat="42.5761227496" lon="1.0052026715">
        <ele>1969.40</ele>
        <time>2019-09-05T08:47:56Z</time>
      </trkpt>
      <trkpt lat="42.5760138687" lon="1.0051680543">
        <ele>1970.36</ele>
        <time>2019-09-05T08:48:07Z</time>
      </trkpt>
      <trkpt lat="42.5758959353" lon="1.0051648691">
        <ele>1972.76</ele>
        <time>2019-09-05T08:48:22Z</time>
      </trkpt>
      <trkpt lat="42.5758308079" lon="1.0051144101">
        <ele>1976.13</ele>
        <time>2019-09-05T08:48:37Z</time>
      </trkpt>
      <trkpt lat="42.5757533591" lon="1.0051100515">
        <ele>1979.49</ele>
        <time>2019-09-05T08:48:49Z</time>
      </trkpt>
      <trkpt lat="42.5757148862" lon="1.0050722491">
        <ele>1982.38</ele>
        <time>2019-09-05T08:49:00Z</time>
      </trkpt>
      <trkpt lat="42.5756294746" lon="1.0050177667">
        <ele>1984.78</ele>
        <time>2019-09-05T08:49:14Z</time>
      </trkpt>
      <trkpt lat="42.5755543727" lon="1.0049616080">
        <ele>1987.66</ele>
        <time>2019-09-05T08:49:30Z</time>
      </trkpt>
      <trkpt lat="42.5755293947" lon="1.0049139988">
        <ele>1991.03</ele>
        <time>2019-09-05T08:49:40Z</time>
      </trkpt>
      <trkpt lat="42.5754903350" lon="1.0048257373">
        <ele>1993.43</ele>
        <time>2019-09-05T08:49:54Z</time>
      </trkpt>
      <trkpt lat="42.5753908418" lon="1.0047524795">
        <ele>1995.35</ele>
        <time>2019-09-05T08:50:08Z</time>
      </trkpt>
      <trkpt lat="42.5753786042" lon="1.0046969075">
        <ele>1997.28</ele>
        <time>2019-09-05T08:50:19Z</time>
      </trkpt>
      <trkpt lat="42.5753241219" lon="1.0046161059">
        <ele>1999.20</ele>
        <time>2019-09-05T08:50:29Z</time>
      </trkpt>
      <trkpt lat="42.5752568990" lon="1.0045566782">
        <ele>2001.60</ele>
        <time>2019-09-05T08:50:42Z</time>
      </trkpt>
      <trkpt lat="42.5752188452" lon="1.0045393277">
        <ele>2003.04</ele>
        <time>2019-09-05T08:50:50Z</time>
      </trkpt>
      <trkpt lat="42.5751414802" lon="1.0045355558">
        <ele>2005.45</ele>
        <time>2019-09-05T08:51:03Z</time>
      </trkpt>
      <trkpt lat="42.5750098843" lon="1.0045535769">
        <ele>2007.37</ele>
        <time>2019-09-05T08:51:17Z</time>
      </trkpt>
      <trkpt lat="42.5749377161" lon="1.0045256652">
        <ele>2008.33</ele>
        <time>2019-09-05T08:51:27Z</time>
      </trkpt>
      <trkpt lat="42.5748844910" lon="1.0044787265">
        <ele>2009.77</ele>
        <time>2019-09-05T08:51:39Z</time>
      </trkpt>
      <trkpt lat="42.5747473631" lon="1.0044245794">
        <ele>2010.73</ele>
        <time>2019-09-05T08:51:52Z</time>
      </trkpt>
      <trkpt lat="42.5746229757" lon="1.0043840948">
        <ele>2011.22</ele>
        <time>2019-09-05T08:52:05Z</time>
      </trkpt>
      <trkpt lat="42.5745189562" lon="1.0043135192">
        <ele>2012.66</ele>
        <time>2019-09-05T08:52:16Z</time>
      </trkpt>
      <trkpt lat="42.5744425971" lon="1.0042603780">
        <ele>2013.14</ele>
        <time>2019-09-05T08:52:28Z</time>
      </trkpt>
      <trkpt lat="42.5743892882" lon="1.0041845217">
        <ele>2014.58</ele>
        <time>2019-09-05T08:52:39Z</time>
      </trkpt>
      <trkpt lat="42.5743006077" lon="1.0041172151">
        <ele>2016.02</ele>
        <time>2019-09-05T08:52:53Z</time>
      </trkpt>
      <trkpt lat="42.5742105860" lon="1.0040655825">
        <ele>2017.94</ele>
        <time>2019-09-05T08:53:05Z</time>
      </trkpt>
      <trkpt lat="42.5741619710" lon="1.0040486511">
        <ele>2018.43</ele>
        <time>2019-09-05T08:53:15Z</time>
      </trkpt>
      <trkpt lat="42.5741323829" lon="1.0040283669">
        <ele>2017.94</ele>
        <time>2019-09-05T08:53:19Z</time>
      </trkpt>
      <trkpt lat="42.5740522519" lon="1.0039996170">
        <ele>2018.43</ele>
        <time>2019-09-05T08:53:28Z</time>
      </trkpt>
      <trkpt lat="42.5739622302" lon="1.0039903130">
        <ele>2020.83</ele>
        <time>2019-09-05T08:53:40Z</time>
      </trkpt>
      <trkpt lat="42.5739136990" lon="1.0039825179">
        <ele>2020.83</ele>
        <time>2019-09-05T08:53:45Z</time>
      </trkpt>
      <trkpt lat="42.5739030540" lon="1.0039788298">
        <ele>2020.83</ele>
        <time>2019-09-05T08:53:46Z</time>
      </trkpt>
      <trkpt lat="42.5738276169" lon="1.0039130319">
        <ele>2021.79</ele>
        <time>2019-09-05T08:53:56Z</time>
      </trkpt>
      <trkpt lat="42.5737294648" lon="1.0038831923">
        <ele>2023.23</ele>
        <time>2019-09-05T08:54:07Z</time>
      </trkpt>
      <trkpt lat="42.5736536924" lon="1.0038298834">
        <ele>2024.19</ele>
        <time>2019-09-05T08:54:18Z</time>
      </trkpt>
      <trkpt lat="42.5735364296" lon="1.0037871357">
        <ele>2025.15</ele>
        <time>2019-09-05T08:54:29Z</time>
      </trkpt>
      <trkpt lat="42.5734419655" lon="1.0037781671">
        <ele>2026.12</ele>
        <time>2019-09-05T08:54:40Z</time>
      </trkpt>
      <trkpt lat="42.5733340904" lon="1.0037383530">
        <ele>2026.60</ele>
        <time>2019-09-05T08:54:51Z</time>
      </trkpt>
      <trkpt lat="42.5732419733" lon="1.0037034843">
        <ele>2028.04</ele>
        <time>2019-09-05T08:55:03Z</time>
      </trkpt>
      <trkpt lat="42.5732296519" lon="1.0036995448">
        <ele>2028.04</ele>
        <time>2019-09-05T08:55:04Z</time>
      </trkpt>
      <trkpt lat="42.5732179172" lon="1.0037049931">
        <ele>2028.52</ele>
        <time>2019-09-05T08:55:05Z</time>
      </trkpt>
      <trkpt lat="42.5731609203" lon="1.0036801826">
        <ele>2029.96</ele>
        <time>2019-09-05T08:55:12Z</time>
      </trkpt>
      <trkpt lat="42.5731395464" lon="1.0036593955">
        <ele>2029.96</ele>
        <time>2019-09-05T08:55:14Z</time>
      </trkpt>
      <trkpt lat="42.5730402209" lon="1.0036143847">
        <ele>2030.92</ele>
        <time>2019-09-05T08:55:23Z</time>
      </trkpt>
      <trkpt lat="42.5730156619" lon="1.0036085173">
        <ele>2030.92</ele>
        <time>2019-09-05T08:55:25Z</time>
      </trkpt>
      <trkpt lat="42.5729147438" lon="1.0035615787">
        <ele>2031.40</ele>
        <time>2019-09-05T08:55:35Z</time>
      </trkpt>
      <trkpt lat="42.5727733411" lon="1.0035302304">
        <ele>2031.88</ele>
        <time>2019-09-05T08:55:46Z</time>
      </trkpt>
      <trkpt lat="42.5727067888" lon="1.0035254527">
        <ele>2031.88</ele>
        <time>2019-09-05T08:55:52Z</time>
      </trkpt>
      <trkpt lat="42.5726948865" lon="1.0035201721">
        <ele>2031.88</ele>
        <time>2019-09-05T08:55:53Z</time>
      </trkpt>
      <trkpt lat="42.5726816431" lon="1.0035175737">
        <ele>2031.88</ele>
        <time>2019-09-05T08:55:54Z</time>
      </trkpt>
      <trkpt lat="42.5726675615" lon="1.0035121255">
        <ele>2031.88</ele>
        <time>2019-09-05T08:55:55Z</time>
      </trkpt>
      <trkpt lat="42.5726530608" lon="1.0035081860">
        <ele>2032.36</ele>
        <time>2019-09-05T08:55:56Z</time>
      </trkpt>
      <trkpt lat="42.5726397336" lon="1.0035100300">
        <ele>2032.36</ele>
        <time>2019-09-05T08:55:57Z</time>
      </trkpt>
      <trkpt lat="42.5725506339" lon="1.0035214294">
        <ele>2032.84</ele>
        <time>2019-09-05T08:56:05Z</time>
      </trkpt>
      <trkpt lat="42.5725175254" lon="1.0035126284">
        <ele>2033.33</ele>
        <time>2019-09-05T08:56:08Z</time>
      </trkpt>
      <trkpt lat="42.5725036953" lon="1.0035100300">
        <ele>2033.33</ele>
        <time>2019-09-05T08:56:09Z</time>
      </trkpt>
      <trkpt lat="42.5724525657" lon="1.0035494249">
        <ele>2034.29</ele>
        <time>2019-09-05T08:56:18Z</time>
      </trkpt>
      <trkpt lat="42.5723605324" lon="1.0035307333">
        <ele>2036.69</ele>
        <time>2019-09-05T08:56:30Z</time>
      </trkpt>
      <trkpt lat="42.5722332112" lon="1.0034930147">
        <ele>2038.61</ele>
        <time>2019-09-05T08:56:43Z</time>
      </trkpt>
      <trkpt lat="42.5722237397" lon="1.0034937691">
        <ele>2038.61</ele>
        <time>2019-09-05T08:56:44Z</time>
      </trkpt>
      <trkpt lat="42.5722125079" lon="1.0034927633">
        <ele>2038.61</ele>
        <time>2019-09-05T08:56:45Z</time>
      </trkpt>
      <trkpt lat="42.5721353944" lon="1.0035241116">
        <ele>2040.05</ele>
        <time>2019-09-05T08:56:54Z</time>
      </trkpt>
      <trkpt lat="42.5720493961" lon="1.0035018157">
        <ele>2040.54</ele>
        <time>2019-09-05T08:57:05Z</time>
      </trkpt>
      <trkpt lat="42.5719607156" lon="1.0034927633">
        <ele>2039.57</ele>
        <time>2019-09-05T08:57:15Z</time>
      </trkpt>
      <trkpt lat="42.5719491486" lon="1.0034982115">
        <ele>2039.57</ele>
        <time>2019-09-05T08:57:16Z</time>
      </trkpt>
      <trkpt lat="42.5719305407" lon="1.0035109520">
        <ele>2039.57</ele>
        <time>2019-09-05T08:57:18Z</time>
      </trkpt>
      <trkpt lat="42.5719111785" lon="1.0035143886">
        <ele>2039.57</ele>
        <time>2019-09-05T08:57:20Z</time>
      </trkpt>
      <trkpt lat="42.5719001144" lon="1.0035143048">
        <ele>2039.09</ele>
        <time>2019-09-05T08:57:21Z</time>
      </trkpt>
      <trkpt lat="42.5718879607" lon="1.0035169870">
        <ele>2038.61</ele>
        <time>2019-09-05T08:57:22Z</time>
      </trkpt>
      <trkpt lat="42.5718736276" lon="1.0035246145">
        <ele>2038.61</ele>
        <time>2019-09-05T08:57:23Z</time>
      </trkpt>
      <trkpt lat="42.5718611386" lon="1.0035302304">
        <ele>2038.61</ele>
        <time>2019-09-05T08:57:24Z</time>
      </trkpt>
      <trkpt lat="42.5718520861" lon="1.0035380255">
        <ele>2038.61</ele>
        <time>2019-09-05T08:57:25Z</time>
      </trkpt>
      <trkpt lat="42.5718453806" lon="1.0035516042">
        <ele>2038.61</ele>
        <time>2019-09-05T08:57:26Z</time>
      </trkpt>
      <trkpt lat="42.5718401838" lon="1.0035610758">
        <ele>2038.61</ele>
        <time>2019-09-05T08:57:27Z</time>
      </trkpt>
      <trkpt lat="42.5718318857" lon="1.0035635903">
        <ele>2038.61</ele>
        <time>2019-09-05T08:57:28Z</time>
      </trkpt>
      <trkpt lat="42.5718182232" lon="1.0035672784">
        <ele>2038.13</ele>
        <time>2019-09-05T08:57:29Z</time>
      </trkpt>
      <trkpt lat="42.5718057342" lon="1.0035749897">
        <ele>2038.13</ele>
        <time>2019-09-05T08:57:30Z</time>
      </trkpt>
      <trkpt lat="42.5717912335" lon="1.0035817791">
        <ele>2038.13</ele>
        <time>2019-09-05T08:57:31Z</time>
      </trkpt>
      <trkpt lat="42.5717729609" lon="1.0035838746">
        <ele>2038.13</ele>
        <time>2019-09-05T08:57:32Z</time>
      </trkpt>
      <trkpt lat="42.5717561971" lon="1.0035813600">
        <ele>2038.13</ele>
        <time>2019-09-05T08:57:33Z</time>
      </trkpt>
      <trkpt lat="42.5717429537" lon="1.0035809409">
        <ele>2038.13</ele>
        <time>2019-09-05T08:57:34Z</time>
      </trkpt>
      <trkpt lat="42.5716886390" lon="1.0035925079">
        <ele>2037.65</ele>
        <time>2019-09-05T08:57:40Z</time>
      </trkpt>
      <trkpt lat="42.5716753956" lon="1.0036029015">
        <ele>2037.65</ele>
        <time>2019-09-05T08:57:41Z</time>
      </trkpt>
      <trkpt lat="42.5716621522" lon="1.0036139656">
        <ele>2037.65</ele>
        <time>2019-09-05T08:57:42Z</time>
      </trkpt>
      <trkpt lat="42.5716495793" lon="1.0036216769">
        <ele>2037.65</ele>
        <time>2019-09-05T08:57:43Z</time>
      </trkpt>
      <trkpt lat="42.5716137048" lon="1.0036313161">
        <ele>2038.13</ele>
        <time>2019-09-05T08:57:46Z</time>
      </trkpt>
      <trkpt lat="42.5715500861" lon="1.0036241915">
        <ele>2038.61</ele>
        <time>2019-09-05T08:57:54Z</time>
      </trkpt>
      <trkpt lat="42.5714811031" lon="1.0036506783">
        <ele>2039.09</ele>
        <time>2019-09-05T08:58:01Z</time>
      </trkpt>
      <trkpt lat="42.5713837892" lon="1.0036783386">
        <ele>2040.05</ele>
        <time>2019-09-05T08:58:13Z</time>
      </trkpt>
      <trkpt lat="42.5713278819" lon="1.0036686156">
        <ele>2039.57</ele>
        <time>2019-09-05T08:58:21Z</time>
      </trkpt>
      <trkpt lat="42.5712868944" lon="1.0036706273">
        <ele>2039.57</ele>
        <time>2019-09-05T08:58:26Z</time>
      </trkpt>
      <trkpt lat="42.5712378602" lon="1.0036930069">
        <ele>2039.57</ele>
        <time>2019-09-05T08:58:30Z</time>
      </trkpt>
      <trkpt lat="42.5712250359" lon="1.0037068371">
        <ele>2039.57</ele>
        <time>2019-09-05T08:58:31Z</time>
      </trkpt>
      <trkpt lat="42.5712094456" lon="1.0037210863">
        <ele>2039.57</ele>
        <time>2019-09-05T08:58:32Z</time>
      </trkpt>
      <trkpt lat="42.5711975433" lon="1.0037305579">
        <ele>2039.57</ele>
        <time>2019-09-05T08:58:33Z</time>
      </trkpt>
      <trkpt lat="42.5711868145" lon="1.0037406161">
        <ele>2039.57</ele>
        <time>2019-09-05T08:58:34Z</time>
      </trkpt>
      <trkpt lat="42.5711776782" lon="1.0037526861">
        <ele>2039.09</ele>
        <time>2019-09-05T08:58:35Z</time>
      </trkpt>
      <trkpt lat="42.5711687934" lon="1.0037640017">
        <ele>2039.09</ele>
        <time>2019-09-05T08:58:36Z</time>
      </trkpt>
      <trkpt lat="42.5711335894" lon="1.0037914105">
        <ele>2039.09</ele>
        <time>2019-09-05T08:58:40Z</time>
      </trkpt>
      <trkpt lat="42.5710963737" lon="1.0038002953">
        <ele>2039.09</ele>
        <time>2019-09-05T08:58:44Z</time>
      </trkpt>
      <trkpt lat="42.5710002333" lon="1.0038577951">
        <ele>2039.57</ele>
        <time>2019-09-05T08:58:53Z</time>
      </trkpt>
      <trkpt lat="42.5709786080" lon="1.0038660094">
        <ele>2039.57</ele>
        <time>2019-09-05T08:58:55Z</time>
      </trkpt>
      <trkpt lat="42.5709649455" lon="1.0038718767">
        <ele>2039.57</ele>
        <time>2019-09-05T08:58:56Z</time>
      </trkpt>
      <trkpt lat="42.5709098764" lon="1.0039111879">
        <ele>2040.05</ele>
        <time>2019-09-05T08:59:02Z</time>
      </trkpt>
      <trkpt lat="42.5708658714" lon="1.0039681010">
        <ele>2040.54</ele>
        <time>2019-09-05T08:59:13Z</time>
      </trkpt>
      <trkpt lat="42.5707888417" lon="1.0039729625">
        <ele>2040.05</ele>
        <time>2019-09-05T08:59:20Z</time>
      </trkpt>
      <trkpt lat="42.5707637798" lon="1.0039848648">
        <ele>2040.05</ele>
        <time>2019-09-05T08:59:22Z</time>
      </trkpt>
      <trkpt lat="42.5707103871" lon="1.0039940011">
        <ele>2040.05</ele>
        <time>2019-09-05T08:59:26Z</time>
      </trkpt>
      <trkpt lat="42.5706028473" lon="1.0039945878">
        <ele>2040.54</ele>
        <time>2019-09-05T08:59:36Z</time>
      </trkpt>
      <trkpt lat="42.5704739336" lon="1.0040204041">
        <ele>2040.54</ele>
        <time>2019-09-05T08:59:46Z</time>
      </trkpt>
      <trkpt lat="42.5703673996" lon="1.0039933305">
        <ele>2041.02</ele>
        <time>2019-09-05T08:59:55Z</time>
      </trkpt>
      <trkpt lat="42.5703192875" lon="1.0039940011">
        <ele>2041.02</ele>
        <time>2019-09-05T08:59:59Z</time>
      </trkpt>
      <trkpt lat="42.5702125020" lon="1.0039925762">
        <ele>2041.02</ele>
        <time>2019-09-05T09:00:07Z</time>
      </trkpt>
      <trkpt lat="42.5701446086" lon="1.0039587133">
        <ele>2041.02</ele>
        <time>2019-09-05T09:00:13Z</time>
      </trkpt>
      <trkpt lat="42.5701204687" lon="1.0039507505">
        <ele>2041.02</ele>
        <time>2019-09-05T09:00:15Z</time>
      </trkpt>
      <trkpt lat="42.5700516533" lon="1.0038974416">
        <ele>2041.02</ele>
        <time>2019-09-05T09:00:22Z</time>
      </trkpt>
      <trkpt lat="42.5699341390" lon="1.0039028060">
        <ele>2041.50</ele>
        <time>2019-09-05T09:00:32Z</time>
      </trkpt>
      <trkpt lat="42.5698404294" lon="1.0039640777">
        <ele>2042.46</ele>
        <time>2019-09-05T09:00:44Z</time>
      </trkpt>
      <trkpt lat="42.5697611365" lon="1.0039469786">
        <ele>2043.42</ele>
        <time>2019-09-05T09:00:52Z</time>
      </trkpt>
      <trkpt lat="42.5696958415" lon="1.0039372556">
        <ele>2043.42</ele>
        <time>2019-09-05T09:00:58Z</time>
      </trkpt>
      <trkpt lat="42.5695949234" lon="1.0039334837">
        <ele>2044.38</ele>
        <time>2019-09-05T09:01:08Z</time>
      </trkpt>
      <trkpt lat="42.5694737211" lon="1.0039716214">
        <ele>2044.38</ele>
        <time>2019-09-05T09:01:21Z</time>
      </trkpt>
      <trkpt lat="42.5694049895" lon="1.0040457174">
        <ele>2045.82</ele>
        <time>2019-09-05T09:01:34Z</time>
      </trkpt>
      <trkpt lat="42.5693510100" lon="1.0041480605">
        <ele>2047.26</ele>
        <time>2019-09-05T09:01:47Z</time>
      </trkpt>
      <trkpt lat="42.5692980364" lon="1.0041844379">
        <ele>2048.23</ele>
        <time>2019-09-05T09:01:55Z</time>
      </trkpt>
      <trkpt lat="42.5691977050" lon="1.0042224918">
        <ele>2049.19</ele>
        <time>2019-09-05T09:02:07Z</time>
      </trkpt>
      <trkpt lat="42.5690944400" lon="1.0042482242">
        <ele>2051.11</ele>
        <time>2019-09-05T09:02:24Z</time>
      </trkpt>
      <trkpt lat="42.5689798594" lon="1.0043058917">
        <ele>2052.07</ele>
        <time>2019-09-05T09:02:39Z</time>
      </trkpt>
      <trkpt lat="42.5688364450" lon="1.0042199772">
        <ele>2055.44</ele>
        <time>2019-09-05T09:02:59Z</time>
      </trkpt>
      <trkpt lat="42.5687060226" lon="1.0042212345">
        <ele>2057.84</ele>
        <time>2019-09-05T09:03:19Z</time>
      </trkpt>
      <trkpt lat="42.5686232094" lon="1.0041516647">
        <ele>2059.76</ele>
        <time>2019-09-05T09:03:34Z</time>
      </trkpt>
      <trkpt lat="42.5685505383" lon="1.0041079111">
        <ele>2062.17</ele>
        <time>2019-09-05T09:03:52Z</time>
      </trkpt>
      <trkpt lat="42.5684554875" lon="1.0039668437">
        <ele>2064.57</ele>
        <time>2019-09-05T09:04:08Z</time>
      </trkpt>
      <trkpt lat="42.5684454292" lon="1.0039004590">
        <ele>2066.97</ele>
        <time>2019-09-05T09:04:24Z</time>
      </trkpt>
      <trkpt lat="42.5683847442" lon="1.0037476569">
        <ele>2068.89</ele>
        <time>2019-09-05T09:04:36Z</time>
      </trkpt>
      <trkpt lat="42.5683934614" lon="1.0036000516">
        <ele>2070.82</ele>
        <time>2019-09-05T09:04:52Z</time>
      </trkpt>
      <trkpt lat="42.5684642047" lon="1.0033832956">
        <ele>2072.26</ele>
        <time>2019-09-05T09:05:09Z</time>
      </trkpt>
      <trkpt lat="42.5684829801" lon="1.0032739956">
        <ele>2073.70</ele>
        <time>2019-09-05T09:05:21Z</time>
      </trkpt>
      <trkpt lat="42.5684651267" lon="1.0032101255">
        <ele>2076.59</ele>
        <time>2019-09-05T09:05:37Z</time>
      </trkpt>
      <trkpt lat="42.5684401486" lon="1.0031787772">
        <ele>2077.07</ele>
        <time>2019-09-05T09:05:49Z</time>
      </trkpt>
      <trkpt lat="42.5683541503" lon="1.0031324252">
        <ele>2080.43</ele>
        <time>2019-09-05T09:06:04Z</time>
      </trkpt>
      <trkpt lat="42.5682890229" lon="1.0030860733">
        <ele>2081.39</ele>
        <time>2019-09-05T09:06:14Z</time>
      </trkpt>
      <trkpt lat="42.5682118256" lon="1.0030484386">
        <ele>2083.31</ele>
        <time>2019-09-05T09:06:24Z</time>
      </trkpt>
      <trkpt lat="42.5681497157" lon="1.0030468460">
        <ele>2085.24</ele>
        <time>2019-09-05T09:06:32Z</time>
      </trkpt>
      <trkpt lat="42.5680489652" lon="1.0030181799">
        <ele>2085.72</ele>
        <time>2019-09-05T09:06:42Z</time>
      </trkpt>
      <trkpt lat="42.5679724384" lon="1.0030171741">
        <ele>2086.68</ele>
        <time>2019-09-05T09:06:50Z</time>
      </trkpt>
      <trkpt lat="42.5678488053" lon="1.0030688904">
        <ele>2087.64</ele>
        <time>2019-09-05T09:07:02Z</time>
      </trkpt>
      <trkpt lat="42.5677121803" lon="1.0031112190">
        <ele>2089.56</ele>
        <time>2019-09-05T09:07:16Z</time>
      </trkpt>
      <trkpt lat="42.5676148664" lon="1.0031805374">
        <ele>2092.45</ele>
        <time>2019-09-05T09:07:35Z</time>
      </trkpt>
      <trkpt lat="42.5675269403" lon="1.0031885840">
        <ele>2094.37</ele>
        <time>2019-09-05T09:07:47Z</time>
      </trkpt>
      <trkpt lat="42.5674310513" lon="1.0031755082">
        <ele>2097.73</ele>
        <time>2019-09-05T09:07:59Z</time>
      </trkpt>
      <trkpt lat="42.5673962664" lon="1.0031476803">
        <ele>2100.14</ele>
        <time>2019-09-05T09:08:11Z</time>
      </trkpt>
      <trkpt lat="42.5673772395" lon="1.0030867439">
        <ele>2102.06</ele>
        <time>2019-09-05T09:08:25Z</time>
      </trkpt>
      <trkpt lat="42.5673494954" lon="1.0029673856">
        <ele>2103.98</ele>
        <time>2019-09-05T09:08:36Z</time>
      </trkpt>
      <trkpt lat="42.5673253555" lon="1.0029398929">
        <ele>2103.98</ele>
        <time>2019-09-05T09:08:40Z</time>
      </trkpt>
      <trkpt lat="42.5672886427" lon="1.0028596781">
        <ele>2104.94</ele>
        <time>2019-09-05T09:08:50Z</time>
      </trkpt>
      <trkpt lat="42.5672195759" lon="1.0027946346">
        <ele>2104.94</ele>
        <time>2019-09-05T09:09:00Z</time>
      </trkpt>
      <trkpt lat="42.5671480782" lon="1.0027956404">
        <ele>2105.42</ele>
        <time>2019-09-05T09:09:10Z</time>
      </trkpt>
      <trkpt lat="42.5671148859" lon="1.0028050281">
        <ele>2105.42</ele>
        <time>2019-09-05T09:09:15Z</time>
      </trkpt>
      <trkpt lat="42.5670106150" lon="1.0028796270">
        <ele>2106.39</ele>
        <time>2019-09-05T09:09:28Z</time>
      </trkpt>
      <trkpt lat="42.5669944379" lon="1.0029049404">
        <ele>2106.39</ele>
        <time>2019-09-05T09:09:40Z</time>
      </trkpt>
      <trkpt lat="42.5670216791" lon="1.0029033478">
        <ele>2106.39</ele>
        <time>2019-09-05T09:09:57Z</time>
      </trkpt>
      <trkpt lat="42.5670349225" lon="1.0029110592">
        <ele>2107.83</ele>
        <time>2019-09-05T09:10:13Z</time>
      </trkpt>
      <trkpt lat="42.5669682864" lon="1.0029219557">
        <ele>2106.39</ele>
        <time>2019-09-05T09:10:24Z</time>
      </trkpt>
      <trkpt lat="42.5669107027" lon="1.0029168427">
        <ele>2106.87</ele>
        <time>2019-09-05T09:10:33Z</time>
      </trkpt>
      <trkpt lat="42.5668533705" lon="1.0029131547">
        <ele>2106.87</ele>
        <time>2019-09-05T09:10:45Z</time>
      </trkpt>
      <trkpt lat="42.5667838845" lon="1.0029310919">
        <ele>2106.39</ele>
        <time>2019-09-05T09:10:53Z</time>
      </trkpt>
      <trkpt lat="42.5667399634" lon="1.0029481072">
        <ele>2106.39</ele>
        <time>2019-09-05T09:11:05Z</time>
      </trkpt>
      <trkpt lat="42.5667155720" lon="1.0029582493">
        <ele>2106.39</ele>
        <time>2019-09-05T09:11:07Z</time>
      </trkpt>
      <trkpt lat="42.5667006522" lon="1.0029631946">
        <ele>2106.39</ele>
        <time>2019-09-05T09:11:08Z</time>
      </trkpt>
      <trkpt lat="42.5666860677" lon="1.0029667988">
        <ele>2106.39</ele>
        <time>2019-09-05T09:11:09Z</time>
      </trkpt>
      <trkpt lat="42.5666579045" lon="1.0029809643">
        <ele>2105.91</ele>
        <time>2019-09-05T09:11:12Z</time>
      </trkpt>
      <trkpt lat="42.5666435715" lon="1.0029880051">
        <ele>2105.91</ele>
        <time>2019-09-05T09:11:13Z</time>
      </trkpt>
      <trkpt lat="42.5666311663" lon="1.0029968899">
        <ele>2106.39</ele>
        <time>2019-09-05T09:11:14Z</time>
      </trkpt>
      <trkpt lat="42.5665138196" lon="1.0030418169">
        <ele>2106.87</ele>
        <time>2019-09-05T09:11:25Z</time>
      </trkpt>
      <trkpt lat="42.5664844830" lon="1.0030861571">
        <ele>2106.87</ele>
        <time>2019-09-05T09:11:29Z</time>
      </trkpt>
      <trkpt lat="42.5664340239" lon="1.0031237081">
        <ele>2107.83</ele>
        <time>2019-09-05T09:11:36Z</time>
      </trkpt>
      <trkpt lat="42.5664228760" lon="1.0031290725">
        <ele>2107.83</ele>
        <time>2019-09-05T09:11:37Z</time>
      </trkpt>
      <trkpt lat="42.5664148293" lon="1.0031349398">
        <ele>2107.83</ele>
        <time>2019-09-05T09:11:38Z</time>
      </trkpt>
      <trkpt lat="42.5663635321" lon="1.0031454172">
        <ele>2108.31</ele>
        <time>2019-09-05T09:11:44Z</time>
      </trkpt>
      <trkpt lat="42.5663260650" lon="1.0031611752">
        <ele>2108.79</ele>
        <time>2019-09-05T09:11:48Z</time>
      </trkpt>
      <trkpt lat="42.5663157552" lon="1.0031695571">
        <ele>2108.79</ele>
        <time>2019-09-05T09:11:49Z</time>
      </trkpt>
      <trkpt lat="42.5662810542" lon="1.0032035876">
        <ele>2108.79</ele>
        <time>2019-09-05T09:11:53Z</time>
      </trkpt>
      <trkpt lat="42.5662500411" lon="1.0032133106">
        <ele>2108.79</ele>
        <time>2019-09-05T09:11:56Z</time>
      </trkpt>
      <trkpt lat="42.5662389770" lon="1.0032205191">
        <ele>2108.79</ele>
        <time>2019-09-05T09:11:57Z</time>
      </trkpt>
      <trkpt lat="42.5662280805" lon="1.0032274760">
        <ele>2108.79</ele>
        <time>2019-09-05T09:11:58Z</time>
      </trkpt>
      <trkpt lat="42.5662167650" lon="1.0032295715">
        <ele>2108.79</ele>
        <time>2019-09-05T09:11:59Z</time>
      </trkpt>
      <trkpt lat="42.5662045274" lon="1.0032292362">
        <ele>2108.79</ele>
        <time>2019-09-05T09:12:00Z</time>
      </trkpt>
      <trkpt lat="42.5661487039" lon="1.0032427311">
        <ele>2109.27</ele>
        <time>2019-09-05T09:12:05Z</time>
      </trkpt>
      <trkpt lat="42.5660715904" lon="1.0032508615">
        <ele>2110.23</ele>
        <time>2019-09-05T09:12:13Z</time>
      </trkpt>
      <trkpt lat="42.5660171919" lon="1.0032715648">
        <ele>2110.71</ele>
        <time>2019-09-05T09:12:18Z</time>
      </trkpt>
      <trkpt lat="42.5659808982" lon="1.0032817069">
        <ele>2110.71</ele>
        <time>2019-09-05T09:12:22Z</time>
      </trkpt>
      <trkpt lat="42.5659420900" lon="1.0033040028">
        <ele>2111.19</ele>
        <time>2019-09-05T09:12:26Z</time>
      </trkpt>
      <trkpt lat="42.5659311935" lon="1.0033091996">
        <ele>2111.19</ele>
        <time>2019-09-05T09:12:27Z</time>
      </trkpt>
      <trkpt lat="42.5658769626" lon="1.0033457447">
        <ele>2111.19</ele>
        <time>2019-09-05T09:12:33Z</time>
      </trkpt>
      <trkpt lat="42.5657786429" lon="1.0033945274">
        <ele>2111.19</ele>
        <time>2019-09-05T09:12:43Z</time>
      </trkpt>
      <trkpt lat="42.5657015294" lon="1.0034209304">
        <ele>2112.15</ele>
        <time>2019-09-05T09:12:52Z</time>
      </trkpt>
      <trkpt lat="42.5656921417" lon="1.0034262110">
        <ele>2112.15</ele>
        <time>2019-09-05T09:12:53Z</time>
      </trkpt>
      <trkpt lat="42.5656824186" lon="1.0034329165">
        <ele>2112.15</ele>
        <time>2019-09-05T09:12:54Z</time>
      </trkpt>
      <trkpt lat="42.5656097475" lon="1.0034819506">
        <ele>2112.15</ele>
        <time>2019-09-05T09:13:04Z</time>
      </trkpt>
      <trkpt lat="42.5655798241" lon="1.0034664441">
        <ele>2112.63</ele>
        <time>2019-09-05T09:13:07Z</time>
      </trkpt>
      <trkpt lat="42.5655666646" lon="1.0034667794">
        <ele>2112.63</ele>
        <time>2019-09-05T09:13:08Z</time>
      </trkpt>
      <trkpt lat="42.5655014534" lon="1.0034597386">
        <ele>2113.12</ele>
        <time>2019-09-05T09:13:14Z</time>
      </trkpt>
      <trkpt lat="42.5653836038" lon="1.0034817830">
        <ele>2114.08</ele>
        <time>2019-09-05T09:13:26Z</time>
      </trkpt>
      <trkpt lat="42.5653009582" lon="1.0034791008">
        <ele>2116.00</ele>
        <time>2019-09-05T09:13:37Z</time>
      </trkpt>
      <trkpt lat="42.5652563665" lon="1.0034803580">
        <ele>2116.48</ele>
        <time>2019-09-05T09:13:42Z</time>
      </trkpt>
      <trkpt lat="42.5652449671" lon="1.0034855548">
        <ele>2116.96</ele>
        <time>2019-09-05T09:13:43Z</time>
      </trkpt>
      <trkpt lat="42.5651704520" lon="1.0035093594">
        <ele>2117.44</ele>
        <time>2019-09-05T09:13:52Z</time>
      </trkpt>
      <trkpt lat="42.5651434623" lon="1.0035352595">
        <ele>2117.92</ele>
        <time>2019-09-05T09:13:56Z</time>
      </trkpt>
      <trkpt lat="42.5650676060" lon="1.0035540350">
        <ele>2118.88</ele>
        <time>2019-09-05T09:14:05Z</time>
      </trkpt>
      <trkpt lat="42.5650583021" lon="1.0035543703">
        <ele>2119.36</ele>
        <time>2019-09-05T09:14:06Z</time>
      </trkpt>
      <trkpt lat="42.5650374312" lon="1.0035565495">
        <ele>2119.36</ele>
        <time>2019-09-05T09:14:08Z</time>
      </trkpt>
      <trkpt lat="42.5649923366" lon="1.0035641771">
        <ele>2119.36</ele>
        <time>2019-09-05T09:14:14Z</time>
      </trkpt>
      <trkpt lat="42.5649301428" lon="1.0035696253">
        <ele>2119.36</ele>
        <time>2019-09-05T09:14:20Z</time>
      </trkpt>
      <trkpt lat="42.5648343377" lon="1.0035544541">
        <ele>2120.32</ele>
        <time>2019-09-05T09:14:31Z</time>
      </trkpt>
      <trkpt lat="42.5647583138" lon="1.0035780910">
        <ele>2122.25</ele>
        <time>2019-09-05T09:14:42Z</time>
      </trkpt>
      <trkpt lat="42.5646904204" lon="1.0035762470">
        <ele>2122.73</ele>
        <time>2019-09-05T09:14:50Z</time>
      </trkpt>
      <trkpt lat="42.5646451581" lon="1.0036444757">
        <ele>2123.69</ele>
        <time>2019-09-05T09:14:59Z</time>
      </trkpt>
      <trkpt lat="42.5646262988" lon="1.0036642570">
        <ele>2123.69</ele>
        <time>2019-09-05T09:15:01Z</time>
      </trkpt>
      <trkpt lat="42.5645921845" lon="1.0037256964">
        <ele>2123.69</ele>
        <time>2019-09-05T09:15:06Z</time>
      </trkpt>
      <trkpt lat="42.5645620935" lon="1.0037634149">
        <ele>2124.65</ele>
        <time>2019-09-05T09:15:18Z</time>
      </trkpt>
      <trkpt lat="42.5645526219" lon="1.0037599783">
        <ele>2124.65</ele>
        <time>2019-09-05T09:15:37Z</time>
      </trkpt>
      <trkpt lat="42.5645719003" lon="1.0037375987">
        <ele>2125.13</ele>
        <time>2019-09-05T09:15:52Z</time>
      </trkpt>
      <trkpt lat="42.5645017438" lon="1.0037738085">
        <ele>2125.13</ele>
        <time>2019-09-05T09:16:05Z</time>
      </trkpt>
      <trkpt lat="42.5644285697" lon="1.0037919972">
        <ele>2125.61</ele>
        <time>2019-09-05T09:16:18Z</time>
      </trkpt>
      <trkpt lat="42.5643493608" lon="1.0038190708">
        <ele>2127.53</ele>
        <time>2019-09-05T09:16:32Z</time>
      </trkpt>
      <trkpt lat="42.5642390549" lon="1.0038402770">
        <ele>2130.42</ele>
        <time>2019-09-05T09:16:48Z</time>
      </trkpt>
      <trkpt lat="42.5641832314" lon="1.0037722997">
        <ele>2132.34</ele>
        <time>2019-09-05T09:17:02Z</time>
      </trkpt>
      <trkpt lat="42.5641844887" lon="1.0036810208">
        <ele>2134.26</ele>
        <time>2019-09-05T09:17:13Z</time>
      </trkpt>
      <trkpt lat="42.5641902722" lon="1.0035763308">
        <ele>2136.67</ele>
        <time>2019-09-05T09:17:26Z</time>
      </trkpt>
      <trkpt lat="42.5641511288" lon="1.0035721399">
        <ele>2137.63</ele>
        <time>2019-09-05T09:17:30Z</time>
      </trkpt>
      <trkpt lat="42.5640088040" lon="1.0035959445">
        <ele>2137.63</ele>
        <time>2019-09-05T09:17:43Z</time>
      </trkpt>
      <trkpt lat="42.5639611110" lon="1.0035561305">
        <ele>2139.07</ele>
        <time>2019-09-05T09:17:55Z</time>
      </trkpt>
      <trkpt lat="42.5638441835" lon="1.0034832917">
        <ele>2140.99</ele>
        <time>2019-09-05T09:18:06Z</time>
      </trkpt>
      <trkpt lat="42.5637599453" lon="1.0034164041">
        <ele>2143.40</ele>
        <time>2019-09-05T09:18:17Z</time>
      </trkpt>
      <trkpt lat="42.5637012720" lon="1.0033364408">
        <ele>2145.80</ele>
        <time>2019-09-05T09:18:28Z</time>
      </trkpt>
      <trkpt lat="42.5636622962" lon="1.0033268016">
        <ele>2146.76</ele>
        <time>2019-09-05T09:18:34Z</time>
      </trkpt>
      <trkpt lat="42.5635733642" lon="1.0033328366">
        <ele>2148.20</ele>
        <time>2019-09-05T09:18:45Z</time>
      </trkpt>
      <trkpt lat="42.5635414291" lon="1.0033439845">
        <ele>2148.68</ele>
        <time>2019-09-05T09:18:51Z</time>
      </trkpt>
      <trkpt lat="42.5635120925" lon="1.0033844691">
        <ele>2148.20</ele>
        <time>2019-09-05T09:18:55Z</time>
      </trkpt>
      <trkpt lat="42.5633730367" lon="1.0033986345">
        <ele>2148.20</ele>
        <time>2019-09-05T09:19:08Z</time>
      </trkpt>
      <trkpt lat="42.5632918999" lon="1.0034485906">
        <ele>2147.72</ele>
        <time>2019-09-05T09:19:17Z</time>
      </trkpt>
      <trkpt lat="42.5632697716" lon="1.0034537036">
        <ele>2147.24</ele>
        <time>2019-09-05T09:19:20Z</time>
      </trkpt>
      <trkpt lat="42.5631671771" lon="1.0034557991">
        <ele>2147.72</ele>
        <time>2019-09-05T09:19:31Z</time>
      </trkpt>
      <trkpt lat="42.5630785804" lon="1.0033663642">
        <ele>2147.72</ele>
        <time>2019-09-05T09:19:42Z</time>
      </trkpt>
      <trkpt lat="42.5630702823" lon="1.0033611674">
        <ele>2148.20</ele>
        <time>2019-09-05T09:19:43Z</time>
      </trkpt>
      <trkpt lat="42.5629953481" lon="1.0033178329">
        <ele>2149.16</ele>
        <time>2019-09-05T09:19:54Z</time>
      </trkpt>
      <trkpt lat="42.5629437156" lon="1.0033259634">
        <ele>2149.16</ele>
        <time>2019-09-05T09:20:00Z</time>
      </trkpt>
      <trkpt lat="42.5628774986" lon="1.0032975487">
        <ele>2149.16</ele>
        <time>2019-09-05T09:20:06Z</time>
      </trkpt>
      <trkpt lat="42.5628315657" lon="1.0032739118">
        <ele>2149.16</ele>
        <time>2019-09-05T09:20:10Z</time>
      </trkpt>
      <trkpt lat="42.5628121197" lon="1.0032698046">
        <ele>2149.16</ele>
        <time>2019-09-05T09:20:12Z</time>
      </trkpt>
      <trkpt lat="42.5627334137" lon="1.0031965468">
        <ele>2149.16</ele>
        <time>2019-09-05T09:20:21Z</time>
      </trkpt>
      <trkpt lat="42.5626760814" lon="1.0031352751">
        <ele>2149.65</ele>
        <time>2019-09-05T09:20:27Z</time>
      </trkpt>
      <trkpt lat="42.5625993032" lon="1.0031013284">
        <ele>2150.61</ele>
        <time>2019-09-05T09:20:35Z</time>
      </trkpt>
      <trkpt lat="42.5625164062" lon="1.0030398890">
        <ele>2150.61</ele>
        <time>2019-09-05T09:20:41Z</time>
      </trkpt>
      <trkpt lat="42.5624906737" lon="1.0030135699">
        <ele>2150.61</ele>
        <time>2019-09-05T09:20:44Z</time>
      </trkpt>
      <trkpt lat="42.5623961259" lon="1.0029059462">
        <ele>2150.61</ele>
        <time>2019-09-05T09:20:55Z</time>
      </trkpt>
      <trkpt lat="42.5623201858" lon="1.0029639490">
        <ele>2151.57</ele>
        <time>2019-09-05T09:21:07Z</time>
      </trkpt>
      <trkpt lat="42.5622805394" lon="1.0029348638">
        <ele>2152.53</ele>
        <time>2019-09-05T09:21:14Z</time>
      </trkpt>
      <trkpt lat="42.5622420665" lon="1.0029086284">
        <ele>2153.01</ele>
        <time>2019-09-05T09:21:20Z</time>
      </trkpt>
      <trkpt lat="42.5621681381" lon="1.0028769448">
        <ele>2154.45</ele>
        <time>2019-09-05T09:21:30Z</time>
      </trkpt>
      <trkpt lat="42.5620946288" lon="1.0029023420">
        <ele>2156.37</ele>
        <time>2019-09-05T09:21:45Z</time>
      </trkpt>
      <trkpt lat="42.5620528031" lon="1.0029046051">
        <ele>2157.82</ele>
        <time>2019-09-05T09:21:54Z</time>
      </trkpt>
      <trkpt lat="42.5620163418" lon="1.0028888471">
        <ele>2158.78</ele>
        <time>2019-09-05T09:22:04Z</time>
      </trkpt>
      <trkpt lat="42.5619436707" lon="1.0028882604">
        <ele>2160.22</ele>
        <time>2019-09-05T09:22:14Z</time>
      </trkpt>
      <trkpt lat="42.5618583430" lon="1.0029074550">
        <ele>2161.66</ele>
        <time>2019-09-05T09:22:26Z</time>
      </trkpt>
      <trkpt lat="42.5617829897" lon="1.0029408149">
        <ele>2162.62</ele>
        <time>2019-09-05T09:22:37Z</time>
      </trkpt>
      <trkpt lat="42.5617025234" lon="1.0029621888">
        <ele>2164.06</ele>
        <time>2019-09-05T09:22:50Z</time>
      </trkpt>
      <trkpt lat="42.5616430957" lon="1.0030204430">
        <ele>2165.99</ele>
        <time>2019-09-05T09:23:04Z</time>
      </trkpt>
      <trkpt lat="42.5615681615" lon="1.0030776076">
        <ele>2167.43</ele>
        <time>2019-09-05T09:23:16Z</time>
      </trkpt>
      <trkpt lat="42.5615004357" lon="1.0031117219">
        <ele>2168.39</ele>
        <time>2019-09-05T09:23:30Z</time>
      </trkpt>
      <trkpt lat="42.5613907166" lon="1.0031287372">
        <ele>2170.79</ele>
        <time>2019-09-05T09:23:46Z</time>
      </trkpt>
      <trkpt lat="42.5612868648" lon="1.0031501111">
        <ele>2173.20</ele>
        <time>2019-09-05T09:24:01Z</time>
      </trkpt>
      <trkpt lat="42.5612034649" lon="1.0032319184">
        <ele>2175.12</ele>
        <time>2019-09-05T09:24:16Z</time>
      </trkpt>
      <trkpt lat="42.5611158740" lon="1.0032651946">
        <ele>2176.56</ele>
        <time>2019-09-05T09:24:34Z</time>
      </trkpt>
      <trkpt lat="42.5610064901" lon="1.0032748338">
        <ele>2178.97</ele>
        <time>2019-09-05T09:24:51Z</time>
      </trkpt>
      <trkpt lat="42.5609281193" lon="1.0032361932">
        <ele>2181.37</ele>
        <time>2019-09-05T09:25:04Z</time>
      </trkpt>
      <trkpt lat="42.5608588848" lon="1.0032092035">
        <ele>2182.81</ele>
        <time>2019-09-05T09:25:15Z</time>
      </trkpt>
      <trkpt lat="42.5607788377" lon="1.0031942837">
        <ele>2183.77</ele>
        <time>2019-09-05T09:25:26Z</time>
      </trkpt>
      <trkpt lat="42.5607271213" lon="1.0031630192">
        <ele>2184.25</ele>
        <time>2019-09-05T09:25:32Z</time>
      </trkpt>
      <trkpt lat="42.5606488343" lon="1.0031247977">
        <ele>2183.77</ele>
        <time>2019-09-05T09:25:41Z</time>
      </trkpt>
      <trkpt lat="42.5606116187" lon="1.0031153262">
        <ele>2183.77</ele>
        <time>2019-09-05T09:25:44Z</time>
      </trkpt>
      <trkpt lat="42.5604915060" lon="1.0031071957">
        <ele>2182.81</ele>
        <time>2019-09-05T09:25:56Z</time>
      </trkpt>
      <trkpt lat="42.5603511091" lon="1.0030573234">
        <ele>2181.37</ele>
        <time>2019-09-05T09:26:10Z</time>
      </trkpt>
      <trkpt lat="42.5603153184" lon="1.0030522943">
        <ele>2181.85</ele>
        <time>2019-09-05T09:26:13Z</time>
      </trkpt>
      <trkpt lat="42.5601950381" lon="1.0030376259">
        <ele>2181.85</ele>
        <time>2019-09-05T09:26:25Z</time>
      </trkpt>
      <trkpt lat="42.5601093750" lon="1.0030003265">
        <ele>2181.37</ele>
        <time>2019-09-05T09:26:40Z</time>
      </trkpt>
      <trkpt lat="42.5601009931" lon="1.0029817186">
        <ele>2185.21</ele>
        <time>2019-09-05T09:26:44Z</time>
      </trkpt>
      <trkpt lat="42.5600977242" lon="1.0029771086">
        <ele>2183.29</ele>
        <time>2019-09-05T09:26:45Z</time>
      </trkpt>
      <trkpt lat="42.5600903481" lon="1.0029574949">
        <ele>2181.37</ele>
        <time>2019-09-05T09:26:48Z</time>
      </trkpt>
      <trkpt lat="42.5600486901" lon="1.0028549004">
        <ele>2180.89</ele>
        <time>2019-09-05T09:27:00Z</time>
      </trkpt>
      <trkpt lat="42.5600058585" lon="1.0027852468">
        <ele>2180.89</ele>
        <time>2019-09-05T09:27:11Z</time>
      </trkpt>
      <trkpt lat="42.5599388871" lon="1.0027795471">
        <ele>2180.89</ele>
        <time>2019-09-05T09:27:27Z</time>
      </trkpt>
      <trkpt lat="42.5598215405" lon="1.0027778707">
        <ele>2182.81</ele>
        <time>2019-09-05T09:27:44Z</time>
      </trkpt>
      <trkpt lat="42.5597684830" lon="1.0027604364">
        <ele>2183.77</ele>
        <time>2019-09-05T09:27:57Z</time>
      </trkpt>
      <trkpt lat="42.5596826524" lon="1.0027026013">
        <ele>2184.25</ele>
        <time>2019-09-05T09:28:08Z</time>
      </trkpt>
      <trkpt lat="42.5596838258" lon="1.0026928782">
        <ele>2184.73</ele>
        <time>2019-09-05T09:28:21Z</time>
      </trkpt>
      <trkpt lat="42.5596240629" lon="1.0026292596">
        <ele>2185.21</ele>
        <time>2019-09-05T09:28:33Z</time>
      </trkpt>
      <trkpt lat="42.5595562533" lon="1.0026123282">
        <ele>2185.21</ele>
        <time>2019-09-05T09:28:46Z</time>
      </trkpt>
      <trkpt lat="42.5594777986" lon="1.0025591869">
        <ele>2185.21</ele>
        <time>2019-09-05T09:28:56Z</time>
      </trkpt>
      <trkpt lat="42.5594078936" lon="1.0025513917">
        <ele>2184.73</ele>
        <time>2019-09-05T09:29:06Z</time>
      </trkpt>
      <trkpt lat="42.5593792275" lon="1.0025748610">
        <ele>2185.21</ele>
        <time>2019-09-05T09:29:17Z</time>
      </trkpt>
      <trkpt lat="42.5593654811" lon="1.0025881883">
        <ele>2185.21</ele>
        <time>2019-09-05T09:29:35Z</time>
      </trkpt>
      <trkpt lat="42.5593190454" lon="1.0025870986">
        <ele>2185.69</ele>
        <time>2019-09-05T09:29:42Z</time>
      </trkpt>
      <trkpt lat="42.5592763815" lon="1.0025545768">
        <ele>2185.69</ele>
        <time>2019-09-05T09:29:47Z</time>
      </trkpt>
      <trkpt lat="42.5592058897" lon="1.0025182832">
        <ele>2186.18</ele>
        <time>2019-09-05T09:30:00Z</time>
      </trkpt>
      <trkpt lat="42.5591852702" lon="1.0025207978">
        <ele>2185.69</ele>
        <time>2019-09-05T09:30:09Z</time>
      </trkpt>
      <trkpt lat="42.5591587834" lon="1.0025098175">
        <ele>2185.69</ele>
        <time>2019-09-05T09:30:25Z</time>
      </trkpt>
      <trkpt lat="42.5590938237" lon="1.0025055427">
        <ele>2185.69</ele>
        <time>2019-09-05T09:30:35Z</time>
      </trkpt>
      <trkpt lat="42.5590189733" lon="1.0025183670">
        <ele>2185.69</ele>
        <time>2019-09-05T09:30:49Z</time>
      </trkpt>
      <trkpt lat="42.5589494873" lon="1.0025606118">
        <ele>2186.18</ele>
        <time>2019-09-05T09:31:00Z</time>
      </trkpt>
      <trkpt lat="42.5589011237" lon="1.0025662277">
        <ele>2186.18</ele>
        <time>2019-09-05T09:31:11Z</time>
      </trkpt>
      <trkpt lat="42.5588357449" lon="1.0025650542">
        <ele>2186.66</ele>
        <time>2019-09-05T09:31:21Z</time>
      </trkpt>
      <trkpt lat="42.5588233396" lon="1.0025705025">
        <ele>2186.66</ele>
        <time>2019-09-05T09:31:23Z</time>
      </trkpt>
      <trkpt lat="42.5587852020" lon="1.0026195366">
        <ele>2186.18</ele>
        <time>2019-09-05T09:31:42Z</time>
      </trkpt>
      <trkpt lat="42.5587351620" lon="1.0026264936">
        <ele>2185.69</ele>
        <time>2019-09-05T09:31:52Z</time>
      </trkpt>
      <trkpt lat="42.5586749800" lon="1.0025772918">
        <ele>2186.18</ele>
        <time>2019-09-05T09:32:01Z</time>
      </trkpt>
      <trkpt lat="42.5586113613" lon="1.0025615338">
        <ele>2186.66</ele>
        <time>2019-09-05T09:32:12Z</time>
      </trkpt>
      <trkpt lat="42.5585627463" lon="1.0025917925">
        <ele>2186.18</ele>
        <time>2019-09-05T09:32:21Z</time>
      </trkpt>
      <trkpt lat="42.5585112814" lon="1.0026466101">
        <ele>2186.18</ele>
        <time>2019-09-05T09:32:32Z</time>
      </trkpt>
      <trkpt lat="42.5584375206" lon="1.0026813112">
        <ele>2187.62</ele>
        <time>2019-09-05T09:32:43Z</time>
      </trkpt>
      <trkpt lat="42.5584218465" lon="1.0026965663">
        <ele>2188.10</ele>
        <time>2019-09-05T09:32:53Z</time>
      </trkpt>
      <trkpt lat="42.5584007241" lon="1.0026650503">
        <ele>2188.10</ele>
        <time>2019-09-05T09:33:18Z</time>
      </trkpt>
      <trkpt lat="42.5583575573" lon="1.0027115699">
        <ele>2188.10</ele>
        <time>2019-09-05T09:33:28Z</time>
      </trkpt>
      <trkpt lat="42.5583537016" lon="1.0027295072">
        <ele>2187.62</ele>
        <time>2019-09-05T09:33:29Z</time>
      </trkpt>
      <trkpt lat="42.5583327468" lon="1.0027512163">
        <ele>2187.14</ele>
        <time>2019-09-05T09:33:40Z</time>
      </trkpt>
      <trkpt lat="42.5582488440" lon="1.0027109832">
        <ele>2186.66</ele>
        <time>2019-09-05T09:33:53Z</time>
      </trkpt>
      <trkpt lat="42.5582297333" lon="1.0027147550">
        <ele>2186.18</ele>
        <time>2019-09-05T09:33:55Z</time>
      </trkpt>
      <trkpt lat="42.5581832137" lon="1.0027394816">
        <ele>2186.18</ele>
        <time>2019-09-05T09:34:00Z</time>
      </trkpt>
      <trkpt lat="42.5580601674" lon="1.0027651303">
        <ele>2186.66</ele>
        <time>2019-09-05T09:34:13Z</time>
      </trkpt>
      <trkpt lat="42.5579913519" lon="1.0027774516">
        <ele>2187.14</ele>
        <time>2019-09-05T09:34:20Z</time>
      </trkpt>
      <trkpt lat="42.5579643622" lon="1.0027748533">
        <ele>2187.14</ele>
        <time>2019-09-05T09:34:23Z</time>
      </trkpt>
      <trkpt lat="42.5579410605" lon="1.0027759429">
        <ele>2187.14</ele>
        <time>2019-09-05T09:34:25Z</time>
      </trkpt>
      <trkpt lat="42.5577907730" lon="1.0028612707">
        <ele>2187.14</ele>
        <time>2019-09-05T09:34:41Z</time>
      </trkpt>
      <trkpt lat="42.5577638671" lon="1.0028628632">
        <ele>2187.14</ele>
        <time>2019-09-05T09:34:44Z</time>
      </trkpt>
      <trkpt lat="42.5577098876" lon="1.0028551519">
        <ele>2187.62</ele>
        <time>2019-09-05T09:34:50Z</time>
      </trkpt>
      <trkpt lat="42.5576790422" lon="1.0028841533">
        <ele>2187.62</ele>
        <time>2019-09-05T09:35:01Z</time>
      </trkpt>
      <trkpt lat="42.5576046109" lon="1.0028523020">
        <ele>2188.58</ele>
        <time>2019-09-05T09:35:11Z</time>
      </trkpt>
      <trkpt lat="42.5575373881" lon="1.0028591752">
        <ele>2190.02</ele>
        <time>2019-09-05T09:35:21Z</time>
      </trkpt>
      <trkpt lat="42.5574794691" lon="1.0028564930">
        <ele>2190.98</ele>
        <time>2019-09-05T09:35:31Z</time>
      </trkpt>
      <trkpt lat="42.5574366376" lon="1.0027942993">
        <ele>2193.39</ele>
        <time>2019-09-05T09:35:42Z</time>
      </trkpt>
      <trkpt lat="42.5573680736" lon="1.0028079618">
        <ele>2194.83</ele>
        <time>2019-09-05T09:35:53Z</time>
      </trkpt>
      <trkpt lat="42.5573207159" lon="1.0027586762">
        <ele>2195.79</ele>
        <time>2019-09-05T09:36:03Z</time>
      </trkpt>
      <trkpt lat="42.5572743639" lon="1.0026886035">
        <ele>2197.23</ele>
        <time>2019-09-05T09:36:13Z</time>
      </trkpt>
      <trkpt lat="42.5572136790" lon="1.0026615299">
        <ele>2199.63</ele>
        <time>2019-09-05T09:36:24Z</time>
      </trkpt>
      <trkpt lat="42.5571579393" lon="1.0026746895">
        <ele>2200.59</ele>
        <time>2019-09-05T09:36:34Z</time>
      </trkpt>
      <trkpt lat="42.5571016967" lon="1.0026830714">
        <ele>2201.08</ele>
        <time>2019-09-05T09:36:44Z</time>
      </trkpt>
      <trkpt lat="42.5570959970" lon="1.0026772879">
        <ele>2201.08</ele>
        <time>2019-09-05T09:36:45Z</time>
      </trkpt>
      <trkpt lat="42.5570219848" lon="1.0026349593">
        <ele>2202.04</ele>
        <time>2019-09-05T09:36:56Z</time>
      </trkpt>
      <trkpt lat="42.5569359027" lon="1.0025820695">
        <ele>2203.00</ele>
        <time>2019-09-05T09:37:07Z</time>
      </trkpt>
      <trkpt lat="42.5568654109" lon="1.0025589354">
        <ele>2203.00</ele>
        <time>2019-09-05T09:37:15Z</time>
      </trkpt>
      <trkpt lat="42.5568255968" lon="1.0025285929">
        <ele>2203.00</ele>
        <time>2019-09-05T09:37:20Z</time>
      </trkpt>
      <trkpt lat="42.5567587931" lon="1.0025293473">
        <ele>2203.00</ele>
        <time>2019-09-05T09:37:28Z</time>
      </trkpt>
      <trkpt lat="42.5566223357" lon="1.0024701711">
        <ele>2203.00</ele>
        <time>2019-09-05T09:37:42Z</time>
      </trkpt>
      <trkpt lat="42.5564973615" lon="1.0024193767">
        <ele>2203.48</ele>
        <time>2019-09-05T09:37:55Z</time>
      </trkpt>
      <trkpt lat="42.5564684439" lon="1.0024385713">
        <ele>2203.96</ele>
        <time>2019-09-05T09:37:59Z</time>
      </trkpt>
      <trkpt lat="42.5563693698" lon="1.0025421716">
        <ele>2203.48</ele>
        <time>2019-09-05T09:38:13Z</time>
      </trkpt>
      <trkpt lat="42.5562837906" lon="1.0025494639">
        <ele>2203.00</ele>
        <time>2019-09-05T09:38:23Z</time>
      </trkpt>
      <trkpt lat="42.5561995525" lon="1.0025570914">
        <ele>2203.00</ele>
        <time>2019-09-05T09:38:32Z</time>
      </trkpt>
      <trkpt lat="42.5561489258" lon="1.0025622044">
        <ele>2203.00</ele>
        <time>2019-09-05T09:38:37Z</time>
      </trkpt>
      <trkpt lat="42.5560552999" lon="1.0025462788">
        <ele>2203.48</ele>
        <time>2019-09-05T09:38:45Z</time>
      </trkpt>
      <trkpt lat="42.5559686311" lon="1.0025423393">
        <ele>2203.48</ele>
        <time>2019-09-05T09:38:52Z</time>
      </trkpt>
      <trkpt lat="42.5558017474" lon="1.0025601089">
        <ele>2203.48</ele>
        <time>2019-09-05T09:39:06Z</time>
      </trkpt>
      <trkpt lat="42.5557701476" lon="1.0026017670">
        <ele>2203.48</ele>
        <time>2019-09-05T09:39:10Z</time>
      </trkpt>
      <trkpt lat="42.5557565689" lon="1.0026321094">
        <ele>2203.48</ele>
        <time>2019-09-05T09:39:13Z</time>
      </trkpt>
      <trkpt lat="42.5556523819" lon="1.0026578419">
        <ele>2203.96</ele>
        <time>2019-09-05T09:39:25Z</time>
      </trkpt>
      <trkpt lat="42.5556460954" lon="1.0026622005">
        <ele>2203.96</ele>
        <time>2019-09-05T09:39:26Z</time>
      </trkpt>
      <trkpt lat="42.5555578340" lon="1.0026839096">
        <ele>2203.96</ele>
        <time>2019-09-05T09:39:37Z</time>
      </trkpt>
      <trkpt lat="42.5554636214" lon="1.0027088039">
        <ele>2205.40</ele>
        <time>2019-09-05T09:39:50Z</time>
      </trkpt>
      <trkpt lat="42.5553995837" lon="1.0027544014">
        <ele>2206.36</ele>
        <time>2019-09-05T09:40:01Z</time>
      </trkpt>
      <trkpt lat="42.5553347915" lon="1.0027825646">
        <ele>2207.81</ele>
        <time>2019-09-05T09:40:13Z</time>
      </trkpt>
      <trkpt lat="42.5552652217" lon="1.0028207861">
        <ele>2208.29</ele>
        <time>2019-09-05T09:40:23Z</time>
      </trkpt>
      <trkpt lat="42.5551933888" lon="1.0028867517">
        <ele>2208.77</ele>
        <time>2019-09-05T09:40:34Z</time>
      </trkpt>
      <trkpt lat="42.5551123358" lon="1.0029207822">
        <ele>2210.69</ele>
        <time>2019-09-05T09:40:46Z</time>
      </trkpt>
      <trkpt lat="42.5550508965" lon="1.0029755998">
        <ele>2211.65</ele>
        <time>2019-09-05T09:40:56Z</time>
      </trkpt>
      <trkpt lat="42.5549651496" lon="1.0030392185">
        <ele>2213.09</ele>
        <time>2019-09-05T09:41:09Z</time>
      </trkpt>
      <trkpt lat="42.5549525768" lon="1.0030453373">
        <ele>2213.09</ele>
        <time>2019-09-05T09:41:11Z</time>
      </trkpt>
      <trkpt lat="42.5548539218" lon="1.0030354466">
        <ele>2213.57</ele>
        <time>2019-09-05T09:41:25Z</time>
      </trkpt>
      <trkpt lat="42.5547841005" lon="1.0030693933">
        <ele>2215.50</ele>
        <time>2019-09-05T09:41:36Z</time>
      </trkpt>
      <trkpt lat="42.5547296181" lon="1.0031135660">
        <ele>2216.46</ele>
        <time>2019-09-05T09:41:45Z</time>
      </trkpt>
      <trkpt lat="42.5546937436" lon="1.0031442437">
        <ele>2218.38</ele>
        <time>2019-09-05T09:41:55Z</time>
      </trkpt>
      <trkpt lat="42.5546296220" lon="1.0031604208">
        <ele>2219.82</ele>
        <time>2019-09-05T09:42:08Z</time>
      </trkpt>
      <trkpt lat="42.5545797497" lon="1.0031429864">
        <ele>2221.74</ele>
        <time>2019-09-05T09:42:22Z</time>
      </trkpt>
      <trkpt lat="42.5545773190" lon="1.0031303298">
        <ele>2221.26</ele>
        <time>2019-09-05T09:42:34Z</time>
      </trkpt>
      <trkpt lat="42.5545080844" lon="1.0031556431">
        <ele>2222.71</ele>
        <time>2019-09-05T09:42:45Z</time>
      </trkpt>
      <trkpt lat="42.5544446334" lon="1.0031646118">
        <ele>2224.63</ele>
        <time>2019-09-05T09:42:55Z</time>
      </trkpt>
      <trkpt lat="42.5543585513" lon="1.0032148194">
        <ele>2226.07</ele>
        <time>2019-09-05T09:43:08Z</time>
      </trkpt>
      <trkpt lat="42.5542907417" lon="1.0032803658">
        <ele>2227.03</ele>
        <time>2019-09-05T09:43:19Z</time>
      </trkpt>
      <trkpt lat="42.5542393606" lon="1.0033371113">
        <ele>2228.95</ele>
        <time>2019-09-05T09:43:31Z</time>
      </trkpt>
      <trkpt lat="42.5542311464" lon="1.0033584852">
        <ele>2230.40</ele>
        <time>2019-09-05T09:43:39Z</time>
      </trkpt>
      <trkpt lat="42.5542157236" lon="1.0033765063">
        <ele>2231.84</ele>
        <time>2019-09-05T09:43:47Z</time>
      </trkpt>
      <trkpt lat="42.5541616604" lon="1.0034000594">
        <ele>2233.76</ele>
        <time>2019-09-05T09:43:59Z</time>
      </trkpt>
      <trkpt lat="42.5540948566" lon="1.0034147277">
        <ele>2235.68</ele>
        <time>2019-09-05T09:44:10Z</time>
      </trkpt>
      <trkpt lat="42.5540249515" lon="1.0034236964">
        <ele>2236.64</ele>
        <time>2019-09-05T09:44:21Z</time>
      </trkpt>
      <trkpt lat="42.5539506041" lon="1.0034395382">
        <ele>2238.57</ele>
        <time>2019-09-05T09:44:36Z</time>
      </trkpt>
      <trkpt lat="42.5539012346" lon="1.0034551285">
        <ele>2240.01</ele>
        <time>2019-09-05T09:44:48Z</time>
      </trkpt>
      <trkpt lat="42.5538157392" lon="1.0034796875">
        <ele>2241.93</ele>
        <time>2019-09-05T09:45:02Z</time>
      </trkpt>
      <trkpt lat="42.5537915155" lon="1.0035197530">
        <ele>2243.37</ele>
        <time>2019-09-05T09:45:12Z</time>
      </trkpt>
      <trkpt lat="42.5537569821" lon="1.0035688709">
        <ele>2244.82</ele>
        <time>2019-09-05T09:45:25Z</time>
      </trkpt>
      <trkpt lat="42.5536858197" lon="1.0036444757">
        <ele>2246.26</ele>
        <time>2019-09-05T09:45:39Z</time>
      </trkpt>
      <trkpt lat="42.5536775216" lon="1.0036513489">
        <ele>2246.26</ele>
        <time>2019-09-05T09:45:40Z</time>
      </trkpt>
      <trkpt lat="42.5536595006" lon="1.0036878102">
        <ele>2246.26</ele>
        <time>2019-09-05T09:45:43Z</time>
      </trkpt>
      <trkpt lat="42.5535725802" lon="1.0037319828">
        <ele>2246.74</ele>
        <time>2019-09-05T09:45:53Z</time>
      </trkpt>
      <trkpt lat="42.5535593368" lon="1.0037366766">
        <ele>2246.74</ele>
        <time>2019-09-05T09:45:55Z</time>
      </trkpt>
      <trkpt lat="42.5534132402" lon="1.0037843697">
        <ele>2246.74</ele>
        <time>2019-09-05T09:46:10Z</time>
      </trkpt>
      <trkpt lat="42.5533805508" lon="1.0038017202">
        <ele>2246.74</ele>
        <time>2019-09-05T09:46:14Z</time>
      </trkpt>
      <trkpt lat="42.5532639585" lon="1.0038147960">
        <ele>2246.74</ele>
        <time>2019-09-05T09:46:26Z</time>
      </trkpt>
      <trkpt lat="42.5531708356" lon="1.0038339905">
        <ele>2247.22</ele>
        <time>2019-09-05T09:46:38Z</time>
      </trkpt>
      <trkpt lat="42.5531123299" lon="1.0038191546">
        <ele>2246.74</ele>
        <time>2019-09-05T09:46:45Z</time>
      </trkpt>
      <trkpt lat="42.5530493818" lon="1.0038583819">
        <ele>2247.22</ele>
        <time>2019-09-05T09:46:55Z</time>
      </trkpt>
      <trkpt lat="42.5530321989" lon="1.0038952623">
        <ele>2247.22</ele>
        <time>2019-09-05T09:47:03Z</time>
      </trkpt>
      <trkpt lat="42.5529650599" lon="1.0039423686">
        <ele>2247.22</ele>
        <time>2019-09-05T09:47:13Z</time>
      </trkpt>
      <trkpt lat="42.5529420096" lon="1.0039417818">
        <ele>2247.22</ele>
        <time>2019-09-05T09:47:17Z</time>
      </trkpt>
      <trkpt lat="42.5528802350" lon="1.0039431229">
        <ele>2248.18</ele>
        <time>2019-09-05T09:47:25Z</time>
      </trkpt>
      <trkpt lat="42.5528228190" lon="1.0039893910">
        <ele>2250.58</ele>
        <time>2019-09-05T09:47:38Z</time>
      </trkpt>
      <trkpt lat="42.5527823344" lon="1.0039857868">
        <ele>2252.51</ele>
        <time>2019-09-05T09:47:49Z</time>
      </trkpt>
      <trkpt lat="42.5527606253" lon="1.0040129442">
        <ele>2253.95</ele>
        <time>2019-09-05T09:47:58Z</time>
      </trkpt>
      <trkpt lat="42.5526871160" lon="1.0040119383">
        <ele>2255.87</ele>
        <time>2019-09-05T09:48:12Z</time>
      </trkpt>
      <trkpt lat="42.5526297837" lon="1.0040633194">
        <ele>2257.31</ele>
        <time>2019-09-05T09:48:23Z</time>
      </trkpt>
      <trkpt lat="42.5525592919" lon="1.0041061509">
        <ele>2258.27</ele>
        <time>2019-09-05T09:48:33Z</time>
      </trkpt>
      <trkpt lat="42.5524902251" lon="1.0041202325">
        <ele>2260.20</ele>
        <time>2019-09-05T09:48:46Z</time>
      </trkpt>
      <trkpt lat="42.5524395984" lon="1.0041118506">
        <ele>2262.60</ele>
        <time>2019-09-05T09:48:59Z</time>
      </trkpt>
      <trkpt lat="42.5523992814" lon="1.0041444562">
        <ele>2265.00</ele>
        <time>2019-09-05T09:49:11Z</time>
      </trkpt>
      <trkpt lat="42.5523389317" lon="1.0041507427">
        <ele>2266.45</ele>
        <time>2019-09-05T09:49:25Z</time>
      </trkpt>
      <trkpt lat="42.5522587169" lon="1.0041993577">
        <ele>2269.33</ele>
        <time>2019-09-05T09:49:39Z</time>
      </trkpt>
      <trkpt lat="42.5522190705" lon="1.0042042192">
        <ele>2270.77</ele>
        <time>2019-09-05T09:49:48Z</time>
      </trkpt>
      <trkpt lat="42.5521654263" lon="1.0041948315">
        <ele>2272.21</ele>
        <time>2019-09-05T09:50:00Z</time>
      </trkpt>
      <trkpt lat="42.5520691182" lon="1.0042380821">
        <ele>2273.66</ele>
        <time>2019-09-05T09:50:14Z</time>
      </trkpt>
      <trkpt lat="42.5519716367" lon="1.0042017885">
        <ele>2275.10</ele>
        <time>2019-09-05T09:50:26Z</time>
      </trkpt>
      <trkpt lat="42.5518933497" lon="1.0042198095">
        <ele>2275.58</ele>
        <time>2019-09-05T09:50:35Z</time>
      </trkpt>
      <trkpt lat="42.5518358499" lon="1.0042394232">
        <ele>2276.06</ele>
        <time>2019-09-05T09:50:43Z</time>
      </trkpt>
      <trkpt lat="42.5517220236" lon="1.0042061470">
        <ele>2277.02</ele>
        <time>2019-09-05T09:50:56Z</time>
      </trkpt>
      <trkpt lat="42.5516221114" lon="1.0042015370">
        <ele>2277.50</ele>
        <time>2019-09-05T09:51:08Z</time>
      </trkpt>
      <trkpt lat="42.5515992288" lon="1.0041981842">
        <ele>2277.98</ele>
        <time>2019-09-05T09:51:11Z</time>
      </trkpt>
      <trkpt lat="42.5515849795" lon="1.0041810852">
        <ele>2277.98</ele>
        <time>2019-09-05T09:51:13Z</time>
      </trkpt>
      <trkpt lat="42.5514994003" lon="1.0041878745">
        <ele>2278.46</ele>
        <time>2019-09-05T09:51:24Z</time>
      </trkpt>
      <trkpt lat="42.5514853187" lon="1.0041992739">
        <ele>2278.46</ele>
        <time>2019-09-05T09:51:26Z</time>
      </trkpt>
      <trkpt lat="42.5514284894" lon="1.0043020360">
        <ele>2279.42</ele>
        <time>2019-09-05T09:51:37Z</time>
      </trkpt>
      <trkpt lat="42.5513521302" lon="1.0043348093">
        <ele>2280.87</ele>
        <time>2019-09-05T09:51:49Z</time>
      </trkpt>
      <trkpt lat="42.5513041019" lon="1.0044105817">
        <ele>2282.79</ele>
        <time>2019-09-05T09:52:01Z</time>
      </trkpt>
      <trkpt lat="42.5512682274" lon="1.0044247471">
        <ele>2282.79</ele>
        <time>2019-09-05T09:52:11Z</time>
      </trkpt>
      <trkpt lat="42.5512632821" lon="1.0044095758">
        <ele>2282.31</ele>
        <time>2019-09-05T09:52:23Z</time>
      </trkpt>
      <trkpt lat="42.5512577500" lon="1.0044648126">
        <ele>2282.31</ele>
        <time>2019-09-05T09:52:43Z</time>
      </trkpt>
      <trkpt lat="42.5512437522" lon="1.0044848453">
        <ele>2281.83</ele>
        <time>2019-09-05T09:53:02Z</time>
      </trkpt>
      <trkpt lat="42.5512392260" lon="1.0044632200">
        <ele>2281.35</ele>
        <time>2019-09-05T09:53:33Z</time>
      </trkpt>
      <trkpt lat="42.5512347836" lon="1.0044729430">
        <ele>2281.35</ele>
        <time>2019-09-05T09:53:55Z</time>
      </trkpt>
      <trkpt lat="42.5512349512" lon="1.0044773854">
        <ele>2280.87</ele>
        <time>2019-09-05T09:54:02Z</time>
      </trkpt>
      <trkpt lat="42.5512237195" lon="1.0044683330">
        <ele>2281.35</ele>
        <time>2019-09-05T09:54:26Z</time>
      </trkpt>
      <trkpt lat="42.5512267370" lon="1.0044654831">
        <ele>2281.35</ele>
        <time>2019-09-05T09:54:54Z</time>
      </trkpt>
      <trkpt lat="42.5512406509" lon="1.0044724401">
        <ele>2281.35</ele>
        <time>2019-09-05T09:55:39Z</time>
      </trkpt>
      <trkpt lat="42.5512381364" lon="1.0044704285">
        <ele>2281.35</ele>
        <time>2019-09-05T09:55:46Z</time>
      </trkpt>
      <trkpt lat="42.5512446743" lon="1.0044605378">
        <ele>2281.35</ele>
        <time>2019-09-05T09:55:57Z</time>
      </trkpt>
      <trkpt lat="42.5512439199" lon="1.0044703446">
        <ele>2281.35</ele>
        <time>2019-09-05T09:56:32Z</time>
      </trkpt>
      <trkpt lat="42.5512491167" lon="1.0044765472">
        <ele>2281.35</ele>
        <time>2019-09-05T09:57:09Z</time>
      </trkpt>
      <trkpt lat="42.5512412377" lon="1.0044695064">
        <ele>2281.35</ele>
        <time>2019-09-05T09:57:45Z</time>
      </trkpt>
      <trkpt lat="42.5512504578" lon="1.0044881143">
        <ele>2281.35</ele>
        <time>2019-09-05T09:58:41Z</time>
      </trkpt>
      <trkpt lat="42.5512330234" lon="1.0044917185">
        <ele>2281.35</ele>
        <time>2019-09-05T09:58:59Z</time>
      </trkpt>
      <trkpt lat="42.5512596779" lon="1.0044863541">
        <ele>2281.35</ele>
        <time>2019-09-05T09:59:11Z</time>
      </trkpt>
      <trkpt lat="42.5512643717" lon="1.0044207238">
        <ele>2281.35</ele>
        <time>2019-09-05T09:59:24Z</time>
      </trkpt>
      <trkpt lat="42.5512739271" lon="1.0044063907">
        <ele>2281.35</ele>
        <time>2019-09-05T09:59:47Z</time>
      </trkpt>
      <trkpt lat="42.5512745976" lon="1.0044068936">
        <ele>2281.35</ele>
        <time>2019-09-05T09:59:49Z</time>
      </trkpt>
      <trkpt lat="42.5512797944" lon="1.0044225678">
        <ele>2280.38</ele>
        <time>2019-09-05T09:59:59Z</time>
      </trkpt>
      <trkpt lat="42.5512795430" lon="1.0044276807">
        <ele>2280.87</ele>
        <time>2019-09-05T10:00:17Z</time>
      </trkpt>
      <trkpt lat="42.5512859970" lon="1.0044208914">
        <ele>2280.87</ele>
        <time>2019-09-05T10:00:33Z</time>
      </trkpt>
      <trkpt lat="42.5512891822" lon="1.0044006910">
        <ele>2280.87</ele>
        <time>2019-09-05T10:00:46Z</time>
      </trkpt>
      <trkpt lat="42.5513062812" lon="1.0043899622">
        <ele>2280.38</ele>
        <time>2019-09-05T10:01:01Z</time>
      </trkpt>
      <trkpt lat="42.5512965582" lon="1.0044351406">
        <ele>2280.87</ele>
        <time>2019-09-05T10:01:16Z</time>
      </trkpt>
      <trkpt lat="42.5512702391" lon="1.0044821631">
        <ele>2280.87</ele>
        <time>2019-09-05T10:01:29Z</time>
      </trkpt>
      <trkpt lat="42.5512636174" lon="1.0044721887">
        <ele>2280.38</ele>
        <time>2019-09-05T10:01:46Z</time>
      </trkpt>
      <trkpt lat="42.5512419920" lon="1.0044612922">
        <ele>2280.87</ele>
        <time>2019-09-05T10:02:02Z</time>
      </trkpt>
      <trkpt lat="42.5512285810" lon="1.0044397507">
        <ele>2280.87</ele>
        <time>2019-09-05T10:02:20Z</time>
      </trkpt>
      <trkpt lat="42.5512579177" lon="1.0044938140">
        <ele>2280.87</ele>
        <time>2019-09-05T10:02:27Z</time>
      </trkpt>
      <trkpt lat="42.5512352865" lon="1.0045529064">
        <ele>2280.87</ele>
        <time>2019-09-05T10:02:35Z</time>
      </trkpt>
      <trkpt lat="42.5512142479" lon="1.0045977496">
        <ele>2280.87</ele>
        <time>2019-09-05T10:02:44Z</time>
      </trkpt>
      <trkpt lat="42.5511882640" lon="1.0046600271">
        <ele>2280.87</ele>
        <time>2019-09-05T10:02:55Z</time>
      </trkpt>
      <trkpt lat="42.5511803851" lon="1.0046701692">
        <ele>2280.87</ele>
        <time>2019-09-05T10:02:59Z</time>
      </trkpt>
      <trkpt lat="42.5511625316" lon="1.0047658067">
        <ele>2282.79</ele>
        <time>2019-09-05T10:03:09Z</time>
      </trkpt>
      <trkpt lat="42.5511588436" lon="1.0048237257">
        <ele>2284.71</ele>
        <time>2019-09-05T10:03:20Z</time>
      </trkpt>
      <trkpt lat="42.5511323567" lon="1.0048295092">
        <ele>2285.19</ele>
        <time>2019-09-05T10:03:23Z</time>
      </trkpt>
      <trkpt lat="42.5510772038" lon="1.0049069580">
        <ele>2286.15</ele>
        <time>2019-09-05T10:03:32Z</time>
      </trkpt>
      <trkpt lat="42.5510492921" lon="1.0049763601">
        <ele>2287.59</ele>
        <time>2019-09-05T10:03:42Z</time>
      </trkpt>
      <trkpt lat="42.5509803090" lon="1.0050527193">
        <ele>2289.04</ele>
        <time>2019-09-05T10:03:55Z</time>
      </trkpt>
      <trkpt lat="42.5509549119" lon="1.0051270667">
        <ele>2290.00</ele>
        <time>2019-09-05T10:04:05Z</time>
      </trkpt>
      <trkpt lat="42.5509209651" lon="1.0052253865">
        <ele>2290.96</ele>
        <time>2019-09-05T10:04:15Z</time>
      </trkpt>
      <trkpt lat="42.5508670695" lon="1.0052895918">
        <ele>2292.40</ele>
        <time>2019-09-05T10:04:28Z</time>
      </trkpt>
      <trkpt lat="42.5508501381" lon="1.0053520370">
        <ele>2294.32</ele>
        <time>2019-09-05T10:04:42Z</time>
      </trkpt>
      <trkpt lat="42.5508549158" lon="1.0054164100">
        <ele>2296.25</ele>
        <time>2019-09-05T10:04:53Z</time>
      </trkpt>
      <trkpt lat="42.5508688297" lon="1.0054470040">
        <ele>2297.21</ele>
        <time>2019-09-05T10:05:03Z</time>
      </trkpt>
      <trkpt lat="42.5509055424" lon="1.0055003129">
        <ele>2300.09</ele>
        <time>2019-09-05T10:05:16Z</time>
      </trkpt>
      <trkpt lat="42.5509269163" lon="1.0055695474">
        <ele>2302.49</ele>
        <time>2019-09-05T10:05:29Z</time>
      </trkpt>
      <trkpt lat="42.5509099849" lon="1.0056085233">
        <ele>2303.46</ele>
        <time>2019-09-05T10:05:40Z</time>
      </trkpt>
      <trkpt lat="42.5509140920" lon="1.0056728125">
        <ele>2305.38</ele>
        <time>2019-09-05T10:05:53Z</time>
      </trkpt>
      <trkpt lat="42.5508788042" lon="1.0057221819">
        <ele>2306.82</ele>
        <time>2019-09-05T10:06:04Z</time>
      </trkpt>
      <trkpt lat="42.5508208014" lon="1.0057561286">
        <ele>2308.26</ele>
        <time>2019-09-05T10:06:18Z</time>
      </trkpt>
      <trkpt lat="42.5507890340" lon="1.0057771672">
        <ele>2310.19</ele>
        <time>2019-09-05T10:06:30Z</time>
      </trkpt>
      <trkpt lat="42.5507430173" lon="1.0058054142">
        <ele>2311.15</ele>
        <time>2019-09-05T10:06:41Z</time>
      </trkpt>
      <trkpt lat="42.5506874453" lon="1.0057858005">
        <ele>2310.67</ele>
        <time>2019-09-05T10:06:53Z</time>
      </trkpt>
      <trkpt lat="42.5506427698" lon="1.0058020614">
        <ele>2310.67</ele>
        <time>2019-09-05T10:07:02Z</time>
      </trkpt>
      <trkpt lat="42.5505395886" lon="1.0058498383">
        <ele>2310.67</ele>
        <time>2019-09-05T10:07:14Z</time>
      </trkpt>
      <trkpt lat="42.5504789874" lon="1.0058946814">
        <ele>2312.11</ele>
        <time>2019-09-05T10:07:25Z</time>
      </trkpt>
      <trkpt lat="42.5503996108" lon="1.0059619043">
        <ele>2314.03</ele>
        <time>2019-09-05T10:07:39Z</time>
      </trkpt>
      <trkpt lat="42.5503249280" lon="1.0059919115">
        <ele>2315.95</ele>
        <time>2019-09-05T10:07:54Z</time>
      </trkpt>
      <trkpt lat="42.5502584595" lon="1.0059860442">
        <ele>2318.36</ele>
        <time>2019-09-05T10:08:07Z</time>
      </trkpt>
      <trkpt lat="42.5502298772" lon="1.0060124472">
        <ele>2320.28</ele>
        <time>2019-09-05T10:08:21Z</time>
      </trkpt>
      <trkpt lat="42.5501997024" lon="1.0060299654">
        <ele>2322.20</ele>
        <time>2019-09-05T10:08:33Z</time>
      </trkpt>
      <trkpt lat="42.5501520094" lon="1.0060571227">
        <ele>2323.64</ele>
        <time>2019-09-05T10:08:45Z</time>
      </trkpt>
      <trkpt lat="42.5501101837" lon="1.0061085038">
        <ele>2325.09</ele>
        <time>2019-09-05T10:08:57Z</time>
      </trkpt>
      <trkpt lat="42.5500319805" lon="1.0060781613">
        <ele>2327.01</ele>
        <time>2019-09-05T10:09:09Z</time>
      </trkpt>
      <trkpt lat="42.5499821920" lon="1.0061171371">
        <ele>2327.97</ele>
        <time>2019-09-05T10:09:23Z</time>
      </trkpt>
      <trkpt lat="42.5499057490" lon="1.0061669257">
        <ele>2329.89</ele>
        <time>2019-09-05T10:09:38Z</time>
      </trkpt>
      <trkpt lat="42.5498405378" lon="1.0061738826">
        <ele>2332.30</ele>
        <time>2019-09-05T10:09:53Z</time>
      </trkpt>
      <trkpt lat="42.5497322436" lon="1.0062666703">
        <ele>2334.70</ele>
        <time>2019-09-05T10:10:12Z</time>
      </trkpt>
      <trkpt lat="42.5496756658" lon="1.0062989406">
        <ele>2335.66</ele>
        <time>2019-09-05T10:10:24Z</time>
      </trkpt>
      <trkpt lat="42.5496538728" lon="1.0063031316">
        <ele>2337.58</ele>
        <time>2019-09-05T10:10:39Z</time>
      </trkpt>
      <trkpt lat="42.5496364385" lon="1.0063784849">
        <ele>2338.54</ele>
        <time>2019-09-05T10:10:53Z</time>
      </trkpt>
      <trkpt lat="42.5495738257" lon="1.0064136889">
        <ele>2340.95</ele>
        <time>2019-09-05T10:11:09Z</time>
      </trkpt>
      <trkpt lat="42.5495382864" lon="1.0064757988">
        <ele>2343.35</ele>
        <time>2019-09-05T10:11:23Z</time>
      </trkpt>
      <trkpt lat="42.5495185051" lon="1.0065113381">
        <ele>2344.79</ele>
        <time>2019-09-05T10:11:33Z</time>
      </trkpt>
      <trkpt lat="42.5495165773" lon="1.0065209772">
        <ele>2346.72</ele>
        <time>2019-09-05T10:11:46Z</time>
      </trkpt>
      <trkpt lat="42.5494899228" lon="1.0065187979">
        <ele>2348.16</ele>
        <time>2019-09-05T10:11:59Z</time>
      </trkpt>
      <trkpt lat="42.5494843069" lon="1.0065040458">
        <ele>2348.16</ele>
        <time>2019-09-05T10:12:17Z</time>
      </trkpt>
      <trkpt lat="42.5494211074" lon="1.0065228213">
        <ele>2348.16</ele>
        <time>2019-09-05T10:12:34Z</time>
      </trkpt>
      <trkpt lat="42.5493577402" lon="1.0065336339">
        <ele>2349.60</ele>
        <time>2019-09-05T10:12:48Z</time>
      </trkpt>
      <trkpt lat="42.5493087061" lon="1.0065462068">
        <ele>2350.56</ele>
        <time>2019-09-05T10:13:03Z</time>
      </trkpt>
      <trkpt lat="42.5492771063" lon="1.0065943189">
        <ele>2352.00</ele>
        <time>2019-09-05T10:13:14Z</time>
      </trkpt>
      <trkpt lat="42.5492639467" lon="1.0066159442">
        <ele>2353.93</ele>
        <time>2019-09-05T10:13:26Z</time>
      </trkpt>
      <trkpt lat="42.5492415670" lon="1.0066664871">
        <ele>2355.37</ele>
        <time>2019-09-05T10:13:40Z</time>
      </trkpt>
      <trkpt lat="42.5491735898" lon="1.0067100730">
        <ele>2357.29</ele>
        <time>2019-09-05T10:13:51Z</time>
      </trkpt>
      <trkpt lat="42.5490904413" lon="1.0067676567">
        <ele>2357.77</ele>
        <time>2019-09-05T10:14:03Z</time>
      </trkpt>
      <trkpt lat="42.5490239728" lon="1.0068050399">
        <ele>2358.73</ele>
        <time>2019-09-05T10:14:16Z</time>
      </trkpt>
      <trkpt lat="42.5489295926" lon="1.0068454407">
        <ele>2359.21</ele>
        <time>2019-09-05T10:14:29Z</time>
      </trkpt>
      <trkpt lat="42.5488830730" lon="1.0068872664">
        <ele>2360.17</ele>
        <time>2019-09-05T10:14:42Z</time>
      </trkpt>
      <trkpt lat="42.5488403253" lon="1.0069010127">
        <ele>2361.62</ele>
        <time>2019-09-05T10:14:55Z</time>
      </trkpt>
      <trkpt lat="42.5488038640" lon="1.0069700796">
        <ele>2364.02</ele>
        <time>2019-09-05T10:15:10Z</time>
      </trkpt>
      <trkpt lat="42.5487716775" lon="1.0070038587">
        <ele>2366.42</ele>
        <time>2019-09-05T10:15:24Z</time>
      </trkpt>
      <trkpt lat="42.5487369765" lon="1.0070373863">
        <ele>2368.83</ele>
        <time>2019-09-05T10:15:37Z</time>
      </trkpt>
      <trkpt lat="42.5487055443" lon="1.0070813913">
        <ele>2369.79</ele>
        <time>2019-09-05T10:15:51Z</time>
      </trkpt>
      <trkpt lat="42.5486850925" lon="1.0071203671">
        <ele>2372.19</ele>
        <time>2019-09-05T10:16:06Z</time>
      </trkpt>
      <trkpt lat="42.5486742798" lon="1.0071593430">
        <ele>2374.11</ele>
        <time>2019-09-05T10:16:18Z</time>
      </trkpt>
      <trkpt lat="42.5486380700" lon="1.0072233807">
        <ele>2376.04</ele>
        <time>2019-09-05T10:16:31Z</time>
      </trkpt>
      <trkpt lat="42.5486118346" lon="1.0072414856">
        <ele>2377.48</ele>
        <time>2019-09-05T10:16:45Z</time>
      </trkpt>
      <trkpt lat="42.5486059673" lon="1.0072680563">
        <ele>2378.44</ele>
        <time>2019-09-05T10:16:56Z</time>
      </trkpt>
      <trkpt lat="42.5485888682" lon="1.0073000751">
        <ele>2381.32</ele>
        <time>2019-09-05T10:17:10Z</time>
      </trkpt>
      <trkpt lat="42.5485631358" lon="1.0073339380">
        <ele>2383.25</ele>
        <time>2019-09-05T10:17:23Z</time>
      </trkpt>
      <trkpt lat="42.5485615432" lon="1.0073646158">
        <ele>2385.17</ele>
        <time>2019-09-05T10:17:36Z</time>
      </trkpt>
      <trkpt lat="42.5485210586" lon="1.0073841456">
        <ele>2386.61</ele>
        <time>2019-09-05T10:17:47Z</time>
      </trkpt>
      <trkpt lat="42.5485076476" lon="1.0074121412">
        <ele>2388.53</ele>
        <time>2019-09-05T10:17:59Z</time>
      </trkpt>
      <trkpt lat="42.5484819151" lon="1.0074107163">
        <ele>2389.97</ele>
        <time>2019-09-05T10:18:09Z</time>
      </trkpt>
      <trkpt lat="42.5484449510" lon="1.0073794518">
        <ele>2390.94</ele>
        <time>2019-09-05T10:18:23Z</time>
      </trkpt>
      <trkpt lat="42.5484321266" lon="1.0073535517">
        <ele>2390.94</ele>
        <time>2019-09-05T10:18:45Z</time>
      </trkpt>
      <trkpt lat="42.5483825058" lon="1.0073680524">
        <ele>2391.42</ele>
        <time>2019-09-05T10:18:54Z</time>
      </trkpt>
      <trkpt lat="42.5483091641" lon="1.0073776916">
        <ele>2393.34</ele>
        <time>2019-09-05T10:19:08Z</time>
      </trkpt>
      <trkpt lat="42.5482374988" lon="1.0073536355">
        <ele>2395.26</ele>
        <time>2019-09-05T10:19:22Z</time>
      </trkpt>
      <trkpt lat="42.5481970143" lon="1.0073702317">
        <ele>2397.18</ele>
        <time>2019-09-05T10:19:36Z</time>
      </trkpt>
      <trkpt lat="42.5481057353" lon="1.0073351953">
        <ele>2399.59</ele>
        <time>2019-09-05T10:19:50Z</time>
      </trkpt>
      <trkpt lat="42.5480483193" lon="1.0073106363">
        <ele>2400.07</ele>
        <time>2019-09-05T10:20:00Z</time>
      </trkpt>
      <trkpt lat="42.5480189826" lon="1.0073240474">
        <ele>2401.99</ele>
        <time>2019-09-05T10:20:11Z</time>
      </trkpt>
      <trkpt lat="42.5480151270" lon="1.0073390510">
        <ele>2403.91</ele>
        <time>2019-09-05T10:20:26Z</time>
      </trkpt>
      <trkpt lat="42.5479983632" lon="1.0073631909">
        <ele>2404.39</ele>
        <time>2019-09-05T10:20:38Z</time>
      </trkpt>
      <trkpt lat="42.5479547773" lon="1.0074087884">
        <ele>2406.32</ele>
        <time>2019-09-05T10:20:49Z</time>
      </trkpt>
      <trkpt lat="42.5479237642" lon="1.0074290726">
        <ele>2408.24</ele>
        <time>2019-09-05T10:21:03Z</time>
      </trkpt>
      <trkpt lat="42.5478502549" lon="1.0074323416">
        <ele>2409.68</ele>
        <time>2019-09-05T10:21:17Z</time>
      </trkpt>
      <trkpt lat="42.5477753207" lon="1.0073786136">
        <ele>2411.60</ele>
        <time>2019-09-05T10:21:31Z</time>
      </trkpt>
      <trkpt lat="42.5477319025" lon="1.0073759314">
        <ele>2412.09</ele>
        <time>2019-09-05T10:21:41Z</time>
      </trkpt>
      <trkpt lat="42.5476985425" lon="1.0074041784">
        <ele>2414.97</ele>
        <time>2019-09-05T10:21:55Z</time>
      </trkpt>
      <trkpt lat="42.5476678647" lon="1.0073935334">
        <ele>2416.41</ele>
        <time>2019-09-05T10:22:08Z</time>
      </trkpt>
      <trkpt lat="42.5476556271" lon="1.0073900968">
        <ele>2416.41</ele>
        <time>2019-09-05T10:22:20Z</time>
      </trkpt>
      <trkpt lat="42.5476431381" lon="1.0074166674">
        <ele>2417.37</ele>
        <time>2019-09-05T10:22:42Z</time>
      </trkpt>
      <trkpt lat="42.5476335827" lon="1.0074539669">
        <ele>2418.33</ele>
        <time>2019-09-05T10:22:52Z</time>
      </trkpt>
      <trkpt lat="42.5476778392" lon="1.0074792802">
        <ele>2420.26</ele>
        <time>2019-09-05T10:23:02Z</time>
      </trkpt>
      <trkpt lat="42.5477010570" lon="1.0074763466">
        <ele>2420.26</ele>
        <time>2019-09-05T10:23:06Z</time>
      </trkpt>
      <trkpt lat="42.5477668550" lon="1.0074758437">
        <ele>2420.74</ele>
        <time>2019-09-05T10:23:15Z</time>
      </trkpt>
      <trkpt lat="42.5477790087" lon="1.0075186752">
        <ele>2422.18</ele>
        <time>2019-09-05T10:23:25Z</time>
      </trkpt>
      <trkpt lat="42.5478087645" lon="1.0075410549">
        <ele>2423.62</ele>
        <time>2019-09-05T10:23:35Z</time>
      </trkpt>
      <trkpt lat="42.5478023943" lon="1.0076018237">
        <ele>2425.06</ele>
        <time>2019-09-05T10:23:47Z</time>
      </trkpt>
      <trkpt lat="42.5477775838" lon="1.0076546296">
        <ele>2426.99</ele>
        <time>2019-09-05T10:24:01Z</time>
      </trkpt>
      <trkpt lat="42.5477865525" lon="1.0077115428">
        <ele>2427.47</ele>
        <time>2019-09-05T10:24:14Z</time>
      </trkpt>
      <trkpt lat="42.5477581378" lon="1.0077727307">
        <ele>2428.43</ele>
        <time>2019-09-05T10:24:24Z</time>
      </trkpt>
      <trkpt lat="42.5477247778" lon="1.0078636743">
        <ele>2429.39</ele>
        <time>2019-09-05T10:24:37Z</time>
      </trkpt>
      <trkpt lat="42.5476889871" lon="1.0079277959">
        <ele>2430.35</ele>
        <time>2019-09-05T10:24:50Z</time>
      </trkpt>
      <trkpt lat="42.5476833712" lon="1.0079714656">
        <ele>2431.31</ele>
        <time>2019-09-05T10:24:59Z</time>
      </trkpt>
      <trkpt lat="42.5476727262" lon="1.0080239363">
        <ele>2432.75</ele>
        <time>2019-09-05T10:25:09Z</time>
      </trkpt>
      <trkpt lat="42.5476666912" lon="1.0080849566">
        <ele>2434.20</ele>
        <time>2019-09-05T10:25:21Z</time>
      </trkpt>
      <trkpt lat="42.5476359297" lon="1.0081057437">
        <ele>2436.12</ele>
        <time>2019-09-05T10:25:33Z</time>
      </trkpt>
      <trkpt lat="42.5476055034" lon="1.0081285425">
        <ele>2437.56</ele>
        <time>2019-09-05T10:25:46Z</time>
      </trkpt>
      <trkpt lat="42.5475617498" lon="1.0081695300">
        <ele>2439.48</ele>
        <time>2019-09-05T10:25:58Z</time>
      </trkpt>
      <trkpt lat="42.5475344248" lon="1.0082232580">
        <ele>2440.92</ele>
        <time>2019-09-05T10:26:09Z</time>
      </trkpt>
      <trkpt lat="42.5475247856" lon="1.0082875472">
        <ele>2442.85</ele>
        <time>2019-09-05T10:26:24Z</time>
      </trkpt>
      <trkpt lat="42.5475475006" lon="1.0083186440">
        <ele>2444.29</ele>
        <time>2019-09-05T10:26:34Z</time>
      </trkpt>
      <trkpt lat="42.5476042461" lon="1.0082928278">
        <ele>2445.73</ele>
        <time>2019-09-05T10:26:45Z</time>
      </trkpt>
      <trkpt lat="42.5476425514" lon="1.0083064903">
        <ele>2447.65</ele>
        <time>2019-09-05T10:26:54Z</time>
      </trkpt>
      <trkpt lat="42.5476896577" lon="1.0083107650">
        <ele>2448.62</ele>
        <time>2019-09-05T10:27:04Z</time>
      </trkpt>
      <trkpt lat="42.5477102771" lon="1.0083492380">
        <ele>2450.06</ele>
        <time>2019-09-05T10:27:15Z</time>
      </trkpt>
      <trkpt lat="42.5476918370" lon="1.0084068216">
        <ele>2451.98</ele>
        <time>2019-09-05T10:27:26Z</time>
      </trkpt>
      <trkpt lat="42.5477038231" lon="1.0084416904">
        <ele>2453.42</ele>
        <time>2019-09-05T10:27:39Z</time>
      </trkpt>
      <trkpt lat="42.5476859696" lon="1.0084978491">
        <ele>2455.34</ele>
        <time>2019-09-05T10:27:51Z</time>
      </trkpt>
      <trkpt lat="42.5476944353" lon="1.0085117631">
        <ele>2456.31</ele>
        <time>2019-09-05T10:27:58Z</time>
      </trkpt>
      <trkpt lat="42.5477037393" lon="1.0085394233">
        <ele>2456.31</ele>
        <time>2019-09-05T10:28:06Z</time>
      </trkpt>
      <trkpt lat="42.5477146357" lon="1.0086277686">
        <ele>2458.23</ele>
        <time>2019-09-05T10:28:18Z</time>
      </trkpt>
      <trkpt lat="42.5477161445" lon="1.0087090731">
        <ele>2459.67</ele>
        <time>2019-09-05T10:28:31Z</time>
      </trkpt>
      <trkpt lat="42.5477030687" lon="1.0087490547">
        <ele>2460.63</ele>
        <time>2019-09-05T10:28:41Z</time>
      </trkpt>
      <trkpt lat="42.5477205031" lon="1.0087777209">
        <ele>2462.07</ele>
        <time>2019-09-05T10:28:50Z</time>
      </trkpt>
      <trkpt lat="42.5476799347" lon="1.0087951552">
        <ele>2463.52</ele>
        <time>2019-09-05T10:28:59Z</time>
      </trkpt>
      <trkpt lat="42.5476612430" lon="1.0088181216">
        <ele>2464.48</ele>
        <time>2019-09-05T10:29:09Z</time>
      </trkpt>
      <trkpt lat="42.5476289727" lon="1.0088584386">
        <ele>2465.92</ele>
        <time>2019-09-05T10:29:19Z</time>
      </trkpt>
      <trkpt lat="42.5476049166" lon="1.0089085624">
        <ele>2467.36</ele>
        <time>2019-09-05T10:29:33Z</time>
      </trkpt>
      <trkpt lat="42.5476055034" lon="1.0089014377">
        <ele>2468.32</ele>
        <time>2019-09-05T10:29:46Z</time>
      </trkpt>
      <trkpt lat="42.5476364326" lon="1.0089311935">
        <ele>2469.28</ele>
        <time>2019-09-05T10:29:57Z</time>
      </trkpt>
      <trkpt lat="42.5476316549" lon="1.0089752823">
        <ele>2470.73</ele>
        <time>2019-09-05T10:30:11Z</time>
      </trkpt>
      <trkpt lat="42.5476568006" lon="1.0089512262">
        <ele>2471.69</ele>
        <time>2019-09-05T10:30:19Z</time>
      </trkpt>
      <trkpt lat="42.5476541184" lon="1.0089850053">
        <ele>2473.61</ele>
        <time>2019-09-05T10:30:32Z</time>
      </trkpt>
      <trkpt lat="42.5476158969" lon="1.0090431757">
        <ele>2475.53</ele>
        <time>2019-09-05T10:30:45Z</time>
      </trkpt>
      <trkpt lat="42.5475548767" lon="1.0090665612">
        <ele>2476.97</ele>
        <time>2019-09-05T10:30:58Z</time>
      </trkpt>
      <trkpt lat="42.5475832913" lon="1.0090918746">
        <ele>2479.38</ele>
        <time>2019-09-05T10:31:09Z</time>
      </trkpt>
      <trkpt lat="42.5475949422" lon="1.0091311019">
        <ele>2481.30</ele>
        <time>2019-09-05T10:31:21Z</time>
      </trkpt>
      <trkpt lat="42.5476151425" lon="1.0091617797">
        <ele>2482.26</ele>
        <time>2019-09-05T10:31:29Z</time>
      </trkpt>
      <trkpt lat="42.5476303976" lon="1.0092192795">
        <ele>2484.18</ele>
        <time>2019-09-05T10:31:40Z</time>
      </trkpt>
      <trkpt lat="42.5476344209" lon="1.0092757735">
        <ele>2486.11</ele>
        <time>2019-09-05T10:31:53Z</time>
      </trkpt>
      <trkpt lat="42.5476201717" lon="1.0093108099">
        <ele>2488.03</ele>
        <time>2019-09-05T10:32:05Z</time>
      </trkpt>
      <trkpt lat="42.5475816987" lon="1.0093436670">
        <ele>2489.47</ele>
        <time>2019-09-05T10:32:18Z</time>
      </trkpt>
      <trkpt lat="42.5475671142" lon="1.0094099678">
        <ele>2491.39</ele>
        <time>2019-09-05T10:32:29Z</time>
      </trkpt>
      <trkpt lat="42.5475438964" lon="1.0095057730">
        <ele>2492.36</ele>
        <time>2019-09-05T10:32:40Z</time>
      </trkpt>
      <trkpt lat="42.5475390349" lon="1.0095737502">
        <ele>2493.80</ele>
        <time>2019-09-05T10:32:54Z</time>
      </trkpt>
      <trkpt lat="42.5475382805" lon="1.0096268076">
        <ele>2495.24</ele>
        <time>2019-09-05T10:33:07Z</time>
      </trkpt>
      <trkpt lat="42.5475011487" lon="1.0096558090">
        <ele>2497.16</ele>
        <time>2019-09-05T10:33:16Z</time>
      </trkpt>
      <trkpt lat="42.5474615861" lon="1.0096791945">
        <ele>2498.12</ele>
        <time>2019-09-05T10:33:29Z</time>
      </trkpt>
      <trkpt lat="42.5474286452" lon="1.0097202659">
        <ele>2499.57</ele>
        <time>2019-09-05T10:33:40Z</time>
      </trkpt>
      <trkpt lat="42.5474367756" lon="1.0097501893">
        <ele>2500.05</ele>
        <time>2019-09-05T10:33:53Z</time>
      </trkpt>
      <trkpt lat="42.5474325009" lon="1.0097508598">
        <ele>2499.57</ele>
        <time>2019-09-05T10:34:12Z</time>
      </trkpt>
      <trkpt lat="42.5474420562" lon="1.0097522847">
        <ele>2500.05</ele>
        <time>2019-09-05T10:34:26Z</time>
      </trkpt>
      <trkpt lat="42.5474499352" lon="1.0097457469">
        <ele>2500.05</ele>
        <time>2019-09-05T10:34:43Z</time>
      </trkpt>
      <trkpt lat="42.5474568922" lon="1.0097346827">
        <ele>2499.08</ele>
        <time>2019-09-05T10:35:05Z</time>
      </trkpt>
      <trkpt lat="42.5474532042" lon="1.0097284801">
        <ele>2499.08</ele>
        <time>2019-09-05T10:35:31Z</time>
      </trkpt>
      <trkpt lat="42.5474618375" lon="1.0097320005">
        <ele>2499.08</ele>
        <time>2019-09-05T10:36:07Z</time>
      </trkpt>
      <trkpt lat="42.5474682078" lon="1.0097382870">
        <ele>2499.08</ele>
        <time>2019-09-05T10:36:31Z</time>
      </trkpt>
      <trkpt lat="42.5474612508" lon="1.0097564757">
        <ele>2492.84</ele>
        <time>2019-09-05T10:36:58Z</time>
      </trkpt>
      <trkpt lat="42.5474609155" lon="1.0097568948">
        <ele>2496.20</ele>
        <time>2019-09-05T10:36:59Z</time>
      </trkpt>
      <trkpt lat="42.5474609993" lon="1.0097555537">
        <ele>2499.08</ele>
        <time>2019-09-05T10:37:04Z</time>
      </trkpt>
      <trkpt lat="42.5474582333" lon="1.0097515304">
        <ele>2499.08</ele>
        <time>2019-09-05T10:37:40Z</time>
      </trkpt>
      <trkpt lat="42.5474543776" lon="1.0097471718">
        <ele>2499.08</ele>
        <time>2019-09-05T10:38:18Z</time>
      </trkpt>
      <trkpt lat="42.5474539585" lon="1.0097532067">
        <ele>2499.08</ele>
        <time>2019-09-05T10:38:49Z</time>
      </trkpt>
      <trkpt lat="42.5474543776" lon="1.0097537935">
        <ele>2499.08</ele>
        <time>2019-09-05T10:39:15Z</time>
      </trkpt>
      <trkpt lat="42.5474598259" lon="1.0097454954">
        <ele>2499.08</ele>
        <time>2019-09-05T10:39:43Z</time>
      </trkpt>
      <trkpt lat="42.5474568922" lon="1.0097411368">
        <ele>2499.08</ele>
        <time>2019-09-05T10:39:53Z</time>
      </trkpt>
      <trkpt lat="42.5474507734" lon="1.0097366944">
        <ele>2499.08</ele>
        <time>2019-09-05T10:40:06Z</time>
      </trkpt>
      <trkpt lat="42.5474501867" lon="1.0097240377">
        <ele>2499.08</ele>
        <time>2019-09-05T10:40:19Z</time>
      </trkpt>
      <trkpt lat="42.5474398769" lon="1.0097345989">
        <ele>2499.08</ele>
        <time>2019-09-05T10:40:32Z</time>
      </trkpt>
      <trkpt lat="42.5474014878" lon="1.0097567271">
        <ele>2499.08</ele>
        <time>2019-09-05T10:40:42Z</time>
      </trkpt>
      <trkpt lat="42.5473590754" lon="1.0098161548">
        <ele>2499.57</ele>
        <time>2019-09-05T10:40:51Z</time>
      </trkpt>
      <trkpt lat="42.5473489333" lon="1.0098413005">
        <ele>2502.93</ele>
        <time>2019-09-05T10:40:54Z</time>
      </trkpt>
      <trkpt lat="42.5473324209" lon="1.0098953638">
        <ele>2503.41</ele>
        <time>2019-09-05T10:40:59Z</time>
      </trkpt>
      <trkpt lat="42.5472882483" lon="1.0100097768">
        <ele>2504.37</ele>
        <time>2019-09-05T10:41:11Z</time>
      </trkpt>
      <trkpt lat="42.5472830515" lon="1.0100262892">
        <ele>2503.89</ele>
        <time>2019-09-05T10:41:19Z</time>
      </trkpt>
      <trkpt lat="42.5472725742" lon="1.0100948531">
        <ele>2503.41</ele>
        <time>2019-09-05T10:41:30Z</time>
      </trkpt>
      <trkpt lat="42.5472530443" lon="1.0101916641">
        <ele>2501.97</ele>
        <time>2019-09-05T10:41:42Z</time>
      </trkpt>
      <trkpt lat="42.5472525414" lon="1.0102275386">
        <ele>2501.49</ele>
        <time>2019-09-05T10:41:45Z</time>
      </trkpt>
      <trkpt lat="42.5472506974" lon="1.0102720466">
        <ele>2500.53</ele>
        <time>2019-09-05T10:41:56Z</time>
      </trkpt>
      <trkpt lat="42.5472470094" lon="1.0102889780">
        <ele>2500.53</ele>
        <time>2019-09-05T10:41:59Z</time>
      </trkpt>
      <trkpt lat="42.5471691415" lon="1.0103750601">
        <ele>2500.53</ele>
        <time>2019-09-05T10:42:11Z</time>
      </trkpt>
      <trkpt lat="42.5471562333" lon="1.0103966855">
        <ele>2500.53</ele>
        <time>2019-09-05T10:42:19Z</time>
      </trkpt>
      <trkpt lat="42.5471276511" lon="1.0104515869">
        <ele>2500.05</ele>
        <time>2019-09-05T10:42:30Z</time>
      </trkpt>
      <trkpt lat="42.5471134856" lon="1.0104981065">
        <ele>2500.53</ele>
        <time>2019-09-05T10:42:41Z</time>
      </trkpt>
      <trkpt lat="42.5471002422" lon="1.0105419438">
        <ele>2501.01</ele>
        <time>2019-09-05T10:42:52Z</time>
      </trkpt>
      <trkpt lat="42.5470804609" lon="1.0106063168">
        <ele>2501.49</ele>
        <time>2019-09-05T10:43:03Z</time>
      </trkpt>
      <trkpt lat="42.5470766053" lon="1.0106175486">
        <ele>2501.49</ele>
        <time>2019-09-05T10:43:04Z</time>
      </trkpt>
      <trkpt lat="42.5470668823" lon="1.0106724501">
        <ele>2501.97</ele>
        <time>2019-09-05T10:43:09Z</time>
      </trkpt>
      <trkpt lat="42.5470740907" lon="1.0107131023">
        <ele>2501.97</ele>
        <time>2019-09-05T10:43:12Z</time>
      </trkpt>
      <trkpt lat="42.5470996555" lon="1.0107954126">
        <ele>2502.93</ele>
        <time>2019-09-05T10:43:22Z</time>
      </trkpt>
      <trkpt lat="42.5470867474" lon="1.0108757950">
        <ele>2503.41</ele>
        <time>2019-09-05T10:43:32Z</time>
      </trkpt>
      <trkpt lat="42.5470719952" lon="1.0109811556">
        <ele>2504.85</ele>
        <time>2019-09-05T10:43:43Z</time>
      </trkpt>
      <trkpt lat="42.5470474362" lon="1.0110806488">
        <ele>2507.26</ele>
        <time>2019-09-05T10:43:56Z</time>
      </trkpt>
      <trkpt lat="42.5470222067" lon="1.0111237317">
        <ele>2507.26</ele>
        <time>2019-09-05T10:44:01Z</time>
      </trkpt>
      <trkpt lat="42.5470088795" lon="1.0112475324">
        <ele>2505.81</ele>
        <time>2019-09-05T10:44:11Z</time>
      </trkpt>
      <trkpt lat="42.5469880085" lon="1.0112798866">
        <ele>2505.81</ele>
        <time>2019-09-05T10:44:15Z</time>
      </trkpt>
      <trkpt lat="42.5469217077" lon="1.0113399848">
        <ele>2504.85</ele>
        <time>2019-09-05T10:44:26Z</time>
      </trkpt>
      <trkpt lat="42.5468920358" lon="1.0113699920">
        <ele>2505.81</ele>
        <time>2019-09-05T10:44:31Z</time>
      </trkpt>
      <trkpt lat="42.5468320213" lon="1.0114134941">
        <ele>2507.74</ele>
        <time>2019-09-05T10:44:41Z</time>
      </trkpt>
      <trkpt lat="42.5468180235" lon="1.0114417411">
        <ele>2509.18</ele>
        <time>2019-09-05T10:44:50Z</time>
      </trkpt>
      <trkpt lat="42.5468132459" lon="1.0114654619">
        <ele>2510.62</ele>
        <time>2019-09-05T10:45:00Z</time>
      </trkpt>
      <trkpt lat="42.5468101446" lon="1.0115021747">
        <ele>2511.10</ele>
        <time>2019-09-05T10:45:14Z</time>
      </trkpt>
      <trkpt lat="42.5468271598" lon="1.0115427431">
        <ele>2511.58</ele>
        <time>2019-09-05T10:45:24Z</time>
      </trkpt>
      <trkpt lat="42.5468456000" lon="1.0115645360">
        <ele>2513.02</ele>
        <time>2019-09-05T10:45:32Z</time>
      </trkpt>
      <trkpt lat="42.5468387268" lon="1.0116409790">
        <ele>2513.98</ele>
        <time>2019-09-05T10:45:43Z</time>
      </trkpt>
      <trkpt lat="42.5468274951" lon="1.0116982274">
        <ele>2513.50</ele>
        <time>2019-09-05T10:45:53Z</time>
      </trkpt>
      <trkpt lat="42.5468420796" lon="1.0117372032">
        <ele>2513.02</ele>
        <time>2019-09-05T10:46:02Z</time>
      </trkpt>
      <trkpt lat="42.5468559936" lon="1.0117402207">
        <ele>2513.02</ele>
        <time>2019-09-05T10:46:17Z</time>
      </trkpt>
      <trkpt lat="42.5468595140" lon="1.0118072759">
        <ele>2513.98</ele>
        <time>2019-09-05T10:46:29Z</time>
      </trkpt>
      <trkpt lat="42.5468563288" lon="1.0118480120">
        <ele>2514.47</ele>
        <time>2019-09-05T10:46:38Z</time>
      </trkpt>
      <trkpt lat="42.5468439236" lon="1.0118992254">
        <ele>2516.39</ele>
        <time>2019-09-05T10:46:49Z</time>
      </trkpt>
      <trkpt lat="42.5468051154" lon="1.0119011533">
        <ele>2517.83</ele>
        <time>2019-09-05T10:47:00Z</time>
      </trkpt>
      <trkpt lat="42.5468038581" lon="1.0119558033">
        <ele>2519.75</ele>
        <time>2019-09-05T10:47:09Z</time>
      </trkpt>
      <trkpt lat="42.5468203705" lon="1.0119653586">
        <ele>2520.23</ele>
        <time>2019-09-05T10:47:13Z</time>
      </trkpt>
      <trkpt lat="42.5468519703" lon="1.0120051727">
        <ele>2520.71</ele>
        <time>2019-09-05T10:47:17Z</time>
      </trkpt>
      <trkpt lat="42.5468385592" lon="1.0120290611">
        <ele>2521.68</ele>
        <time>2019-09-05T10:47:21Z</time>
      </trkpt>
      <trkpt lat="42.5468558259" lon="1.0120769218">
        <ele>2522.64</ele>
        <time>2019-09-05T10:47:32Z</time>
      </trkpt>
      <trkpt lat="42.5468712486" lon="1.0121463239">
        <ele>2523.60</ele>
        <time>2019-09-05T10:47:42Z</time>
      </trkpt>
      <trkpt lat="42.5468713325" lon="1.0121700447">
        <ele>2523.12</ele>
        <time>2019-09-05T10:47:44Z</time>
      </trkpt>
      <trkpt lat="42.5468883477" lon="1.0122268740">
        <ele>2522.16</ele>
        <time>2019-09-05T10:47:49Z</time>
      </trkpt>
      <trkpt lat="42.5468695723" lon="1.0123254452">
        <ele>2522.64</ele>
        <time>2019-09-05T10:47:59Z</time>
      </trkpt>
      <trkpt lat="42.5469164271" lon="1.0124293808">
        <ele>2523.12</ele>
        <time>2019-09-05T10:48:11Z</time>
      </trkpt>
      <trkpt lat="42.5469086319" lon="1.0124539398">
        <ele>2523.60</ele>
        <time>2019-09-05T10:48:21Z</time>
      </trkpt>
      <trkpt lat="42.5468879286" lon="1.0125271138">
        <ele>2526.48</ele>
        <time>2019-09-05T10:48:33Z</time>
      </trkpt>
      <trkpt lat="42.5468654651" lon="1.0125735495">
        <ele>2527.92</ele>
        <time>2019-09-05T10:48:43Z</time>
      </trkpt>
      <trkpt lat="42.5468416605" lon="1.0125850327">
        <ele>2528.40</ele>
        <time>2019-09-05T10:48:47Z</time>
      </trkpt>
      <trkpt lat="42.5467844959" lon="1.0125572048">
        <ele>2528.89</ele>
        <time>2019-09-05T10:48:54Z</time>
      </trkpt>
      <trkpt lat="42.5467381440" lon="1.0125855356">
        <ele>2529.37</ele>
        <time>2019-09-05T10:49:02Z</time>
      </trkpt>
      <trkpt lat="42.5467329472" lon="1.0126707796">
        <ele>2531.29</ele>
        <time>2019-09-05T10:49:12Z</time>
      </trkpt>
      <trkpt lat="42.5467286725" lon="1.0126893036">
        <ele>2531.77</ele>
        <time>2019-09-05T10:49:14Z</time>
      </trkpt>
      <trkpt lat="42.5467118248" lon="1.0127693508">
        <ele>2532.73</ele>
        <time>2019-09-05T10:49:23Z</time>
      </trkpt>
      <trkpt lat="42.5467093941" lon="1.0127904732">
        <ele>2532.73</ele>
        <time>2019-09-05T10:49:25Z</time>
      </trkpt>
      <trkpt lat="42.5466989167" lon="1.0128652398">
        <ele>2533.21</ele>
        <time>2019-09-05T10:49:31Z</time>
      </trkpt>
      <trkpt lat="42.5466434285" lon="1.0129589494">
        <ele>2534.17</ele>
        <time>2019-09-05T10:49:42Z</time>
      </trkpt>
      <trkpt lat="42.5466405787" lon="1.0130516533">
        <ele>2535.13</ele>
        <time>2019-09-05T10:49:52Z</time>
      </trkpt>
      <trkpt lat="42.5466185343" lon="1.0131309461">
        <ele>2536.10</ele>
        <time>2019-09-05T10:50:04Z</time>
      </trkpt>
      <trkpt lat="42.5465974119" lon="1.0131598637">
        <ele>2536.10</ele>
        <time>2019-09-05T10:50:08Z</time>
      </trkpt>
      <trkpt lat="42.5465837494" lon="1.0132737737">
        <ele>2535.61</ele>
        <time>2019-09-05T10:50:17Z</time>
      </trkpt>
      <trkpt lat="42.5465617888" lon="1.0133400746">
        <ele>2536.10</ele>
        <time>2019-09-05T10:50:26Z</time>
      </trkpt>
      <trkpt lat="42.5465199631" lon="1.0134326946">
        <ele>2538.50</ele>
        <time>2019-09-05T10:50:39Z</time>
      </trkpt>
      <trkpt lat="42.5464872736" lon="1.0134601872">
        <ele>2539.46</ele>
        <time>2019-09-05T10:50:49Z</time>
      </trkpt>
      <trkpt lat="42.5464516506" lon="1.0134707484">
        <ele>2540.90</ele>
        <time>2019-09-05T10:50:58Z</time>
      </trkpt>
      <trkpt lat="42.5464399159" lon="1.0135142505">
        <ele>2542.82</ele>
        <time>2019-09-05T10:51:08Z</time>
      </trkpt>
      <trkpt lat="42.5464250799" lon="1.0135943815">
        <ele>2541.86</ele>
        <time>2019-09-05T10:51:18Z</time>
      </trkpt>
      <trkpt lat="42.5463886186" lon="1.0136402305">
        <ele>2541.86</ele>
        <time>2019-09-05T10:51:26Z</time>
      </trkpt>
      <trkpt lat="42.5463536661" lon="1.0137161706">
        <ele>2541.38</ele>
        <time>2019-09-05T10:51:39Z</time>
      </trkpt>
      <trkpt lat="42.5463202223" lon="1.0137872491">
        <ele>2540.42</ele>
        <time>2019-09-05T10:51:48Z</time>
      </trkpt>
      <trkpt lat="42.5462718587" lon="1.0138562322">
        <ele>2542.34</ele>
        <time>2019-09-05T10:52:01Z</time>
      </trkpt>
      <trkpt lat="42.5462530833" lon="1.0139267240">
        <ele>2544.75</ele>
        <time>2019-09-05T10:52:15Z</time>
      </trkpt>
      <trkpt lat="42.5462221541" lon="1.0140063521">
        <ele>2547.15</ele>
        <time>2019-09-05T10:52:28Z</time>
      </trkpt>
      <trkpt lat="42.5461654086" lon="1.0140824597">
        <ele>2549.55</ele>
        <time>2019-09-05T10:52:42Z</time>
      </trkpt>
      <trkpt lat="42.5461571943" lon="1.0141087789">
        <ele>2550.03</ele>
        <time>2019-09-05T10:52:46Z</time>
      </trkpt>
      <trkpt lat="42.5461262651" lon="1.0141340084">
        <ele>2551.00</ele>
        <time>2019-09-05T10:52:54Z</time>
      </trkpt>
      <trkpt lat="42.5461268518" lon="1.0142050032">
        <ele>2552.44</ele>
        <time>2019-09-05T10:53:05Z</time>
      </trkpt>
      <trkpt lat="42.5460965931" lon="1.0142368544">
        <ele>2553.40</ele>
        <time>2019-09-05T10:53:17Z</time>
      </trkpt>
      <trkpt lat="42.5460697711" lon="1.0142935999">
        <ele>2555.32</ele>
        <time>2019-09-05T10:53:29Z</time>
      </trkpt>
      <trkpt lat="42.5460552704" lon="1.0143588111">
        <ele>2556.28</ele>
        <time>2019-09-05T10:53:41Z</time>
      </trkpt>
      <trkpt lat="42.5460090023" lon="1.0143772513">
        <ele>2558.21</ele>
        <time>2019-09-05T10:53:55Z</time>
      </trkpt>
      <trkpt lat="42.5459709484" lon="1.0144440550">
        <ele>2559.65</ele>
        <time>2019-09-05T10:54:08Z</time>
      </trkpt>
      <trkpt lat="42.5459276978" lon="1.0144984536">
        <ele>2561.09</ele>
        <time>2019-09-05T10:54:20Z</time>
      </trkpt>
      <trkpt lat="42.5459050667" lon="1.0145786684">
        <ele>2563.49</ele>
        <time>2019-09-05T10:54:33Z</time>
      </trkpt>
      <trkpt lat="42.5458976068" lon="1.0146282893">
        <ele>2563.97</ele>
        <time>2019-09-05T10:54:39Z</time>
      </trkpt>
      <trkpt lat="42.5458887219" lon="1.0147196520">
        <ele>2564.45</ele>
        <time>2019-09-05T10:54:48Z</time>
      </trkpt>
      <trkpt lat="42.5458848663" lon="1.0147515871">
        <ele>2564.93</ele>
        <time>2019-09-05T10:55:03Z</time>
      </trkpt>
      <trkpt lat="42.5458787475" lon="1.0147325601">
        <ele>2564.93</ele>
        <time>2019-09-05T10:55:17Z</time>
      </trkpt>
      <trkpt lat="42.5458313059" lon="1.0146782454">
        <ele>2564.93</ele>
        <time>2019-09-05T10:55:26Z</time>
      </trkpt>
      <trkpt lat="42.5457598921" lon="1.0146299656">
        <ele>2564.93</ele>
        <time>2019-09-05T10:55:46Z</time>
      </trkpt>
      <trkpt lat="42.5457492471" lon="1.0146558657">
        <ele>2564.45</ele>
        <time>2019-09-05T10:55:58Z</time>
      </trkpt>
      <trkpt lat="42.5457501691" lon="1.0146567039">
        <ele>2564.45</ele>
        <time>2019-09-05T10:56:00Z</time>
      </trkpt>
      <trkpt lat="42.5457577128" lon="1.0146482382">
        <ele>2564.45</ele>
        <time>2019-09-05T10:56:05Z</time>
      </trkpt>
      <trkpt lat="42.5457778294" lon="1.0146482382">
        <ele>2563.97</ele>
        <time>2019-09-05T10:56:11Z</time>
      </trkpt>
      <trkpt lat="42.5457753986" lon="1.0146302171">
        <ele>2564.45</ele>
        <time>2019-09-05T10:56:20Z</time>
      </trkpt>
      <trkpt lat="42.5457780808" lon="1.0146382637">
        <ele>2564.45</ele>
        <time>2019-09-05T10:56:21Z</time>
      </trkpt>
      <trkpt lat="42.5457455590" lon="1.0146479867">
        <ele>2563.97</ele>
        <time>2019-09-05T10:56:27Z</time>
      </trkpt>
      <trkpt lat="42.5457349978" lon="1.0146400239">
        <ele>2563.01</ele>
        <time>2019-09-05T10:56:35Z</time>
      </trkpt>
      <trkpt lat="42.5457241014" lon="1.0146828555">
        <ele>2562.05</ele>
        <time>2019-09-05T10:56:45Z</time>
      </trkpt>
      <trkpt lat="42.5457380991" lon="1.0146961827">
        <ele>2561.57</ele>
        <time>2019-09-05T10:56:47Z</time>
      </trkpt>
      <trkpt lat="42.5457571261" lon="1.0147240106">
        <ele>2561.09</ele>
        <time>2019-09-05T10:56:55Z</time>
      </trkpt>
      <trkpt lat="42.5457737222" lon="1.0147527605">
        <ele>2561.09</ele>
        <time>2019-09-05T10:57:02Z</time>
      </trkpt>
      <trkpt lat="42.5457386021" lon="1.0148140322">
        <ele>2560.61</ele>
        <time>2019-09-05T10:57:11Z</time>
      </trkpt>
      <trkpt lat="42.5457193237" lon="1.0148690175">
        <ele>2560.13</ele>
        <time>2019-09-05T10:57:17Z</time>
      </trkpt>
      <trkpt lat="42.5457194075" lon="1.0148789082">
        <ele>2560.13</ele>
        <time>2019-09-05T10:57:24Z</time>
      </trkpt>
      <trkpt lat="42.5457329024" lon="1.0149436165">
        <ele>2560.13</ele>
        <time>2019-09-05T10:57:33Z</time>
      </trkpt>
      <trkpt lat="42.5457195751" lon="1.0149828438">
        <ele>2560.61</ele>
        <time>2019-09-05T10:57:39Z</time>
      </trkpt>
      <trkpt lat="42.5456951000" lon="1.0149931535">
        <ele>2560.61</ele>
        <time>2019-09-05T10:57:41Z</time>
      </trkpt>
      <trkpt lat="42.5456780847" lon="1.0150349792">
        <ele>2560.61</ele>
        <time>2019-09-05T10:57:46Z</time>
      </trkpt>
      <trkpt lat="42.5456362590" lon="1.0150599573">
        <ele>2561.09</ele>
        <time>2019-09-05T10:57:55Z</time>
      </trkpt>
      <trkpt lat="42.5456379354" lon="1.0150826722">
        <ele>2561.57</ele>
        <time>2019-09-05T10:57:59Z</time>
      </trkpt>
      <trkpt lat="42.5455701258" lon="1.0150752123">
        <ele>2562.53</ele>
        <time>2019-09-05T10:58:06Z</time>
      </trkpt>
      <trkpt lat="42.5455187447" lon="1.0151176248">
        <ele>2563.01</ele>
        <time>2019-09-05T10:58:13Z</time>
      </trkpt>
      <trkpt lat="42.5455054175" lon="1.0151440278">
        <ele>2563.01</ele>
        <time>2019-09-05T10:58:15Z</time>
      </trkpt>
      <trkpt lat="42.5454914197" lon="1.0151747894">
        <ele>2563.97</ele>
        <time>2019-09-05T10:58:21Z</time>
      </trkpt>
      <trkpt lat="42.5454785116" lon="1.0152064729">
        <ele>2564.93</ele>
        <time>2019-09-05T10:58:31Z</time>
      </trkpt>
      <trkpt lat="42.5454698782" lon="1.0152076464">
        <ele>2565.42</ele>
        <time>2019-09-05T10:58:33Z</time>
      </trkpt>
      <trkpt lat="42.5454675313" lon="1.0152626317">
        <ele>2565.90</ele>
        <time>2019-09-05T10:58:41Z</time>
      </trkpt>
      <trkpt lat="42.5454545394" lon="1.0153016075">
        <ele>2567.34</ele>
        <time>2019-09-05T10:58:54Z</time>
      </trkpt>
      <trkpt lat="42.5454443134" lon="1.0153343808">
        <ele>2567.82</ele>
        <time>2019-09-05T10:59:05Z</time>
      </trkpt>
      <trkpt lat="42.5454521924" lon="1.0153715964">
        <ele>2567.82</ele>
        <time>2019-09-05T10:59:12Z</time>
      </trkpt>
      <trkpt lat="42.5454366021" lon="1.0154097341">
        <ele>2568.78</ele>
        <time>2019-09-05T10:59:24Z</time>
      </trkpt>
      <trkpt lat="42.5454009790" lon="1.0154461116">
        <ele>2570.70</ele>
        <time>2019-09-05T10:59:36Z</time>
      </trkpt>
      <trkpt lat="42.5453810301" lon="1.0154829081">
        <ele>2572.63</ele>
        <time>2019-09-05T10:59:49Z</time>
      </trkpt>
      <trkpt lat="42.5453502685" lon="1.0155138373">
        <ele>2574.07</ele>
        <time>2019-09-05T11:00:02Z</time>
      </trkpt>
      <trkpt lat="42.5453163218" lon="1.0155225545">
        <ele>2575.99</ele>
        <time>2019-09-05T11:00:14Z</time>
      </trkpt>
      <trkpt lat="42.5452983845" lon="1.0155447666">
        <ele>2577.43</ele>
        <time>2019-09-05T11:00:27Z</time>
      </trkpt>
      <trkpt lat="42.5452813692" lon="1.0155671462">
        <ele>2578.39</ele>
        <time>2019-09-05T11:00:38Z</time>
      </trkpt>
      <trkpt lat="42.5452769268" lon="1.0155796353">
        <ele>2579.84</ele>
        <time>2019-09-05T11:00:54Z</time>
      </trkpt>
      <trkpt lat="42.5452686287" lon="1.0156016797">
        <ele>2580.80</ele>
        <time>2019-09-05T11:01:01Z</time>
      </trkpt>
      <trkpt lat="42.5452399626" lon="1.0156471934">
        <ele>2582.72</ele>
        <time>2019-09-05T11:01:16Z</time>
      </trkpt>
      <trkpt lat="42.5452339277" lon="1.0156601854">
        <ele>2583.20</ele>
        <time>2019-09-05T11:01:22Z</time>
      </trkpt>
      <trkpt lat="42.5452097878" lon="1.0156909470">
        <ele>2584.64</ele>
        <time>2019-09-05T11:01:33Z</time>
      </trkpt>
      <trkpt lat="42.5451961253" lon="1.0157441720">
        <ele>2586.08</ele>
        <time>2019-09-05T11:01:45Z</time>
      </trkpt>
      <trkpt lat="42.5451493543" lon="1.0157477763">
        <ele>2587.53</ele>
        <time>2019-09-05T11:01:56Z</time>
      </trkpt>
      <trkpt lat="42.5451176707" lon="1.0157668870">
        <ele>2588.97</ele>
        <time>2019-09-05T11:02:09Z</time>
      </trkpt>
      <trkpt lat="42.5451061875" lon="1.0158001631">
        <ele>2590.41</ele>
        <time>2019-09-05T11:02:21Z</time>
      </trkpt>
      <trkpt lat="42.5451029185" lon="1.0158361215">
        <ele>2591.85</ele>
        <time>2019-09-05T11:02:30Z</time>
      </trkpt>
      <trkpt lat="42.5451077800" lon="1.0158679727">
        <ele>2592.81</ele>
        <time>2019-09-05T11:02:40Z</time>
      </trkpt>
      <trkpt lat="42.5451056845" lon="1.0158813838">
        <ele>2593.29</ele>
        <time>2019-09-05T11:02:51Z</time>
      </trkpt>
      <trkpt lat="42.5450665411" lon="1.0158497840">
        <ele>2594.25</ele>
        <time>2019-09-05T11:03:03Z</time>
      </trkpt>
      <trkpt lat="42.5450437423" lon="1.0158441681">
        <ele>2595.22</ele>
        <time>2019-09-05T11:03:08Z</time>
      </trkpt>
      <trkpt lat="42.5450279005" lon="1.0158443358">
        <ele>2595.70</ele>
        <time>2019-09-05T11:03:12Z</time>
      </trkpt>
      <trkpt lat="42.5450466760" lon="1.0158802103">
        <ele>2596.66</ele>
        <time>2019-09-05T11:03:18Z</time>
      </trkpt>
      <trkpt lat="42.5450435746" lon="1.0158947948">
        <ele>2598.10</ele>
        <time>2019-09-05T11:03:29Z</time>
      </trkpt>
      <trkpt lat="42.5450447481" lon="1.0158835631">
        <ele>2598.58</ele>
        <time>2019-09-05T11:03:38Z</time>
      </trkpt>
      <trkpt lat="42.5450331811" lon="1.0158923641">
        <ele>2598.58</ele>
        <time>2019-09-05T11:03:46Z</time>
      </trkpt>
      <trkpt lat="42.5450216141" lon="1.0159040987">
        <ele>2598.58</ele>
        <time>2019-09-05T11:04:12Z</time>
      </trkpt>
      <trkpt lat="42.5450095441" lon="1.0158999916">
        <ele>2598.58</ele>
        <time>2019-09-05T11:04:28Z</time>
      </trkpt>
      <trkpt lat="42.5450025871" lon="1.0159092955">
        <ele>2602.43</ele>
        <time>2019-09-05T11:04:39Z</time>
      </trkpt>
      <trkpt lat="42.5450026710" lon="1.0159103014">
        <ele>2600.50</ele>
        <time>2019-09-05T11:04:40Z</time>
      </trkpt>
      <trkpt lat="42.5450033415" lon="1.0159171745">
        <ele>2599.06</ele>
        <time>2019-09-05T11:04:43Z</time>
      </trkpt>
      <trkpt lat="42.5449844822" lon="1.0159237962">
        <ele>2598.58</ele>
        <time>2019-09-05T11:05:04Z</time>
      </trkpt>
      <trkpt lat="42.5449294131" lon="1.0159135703">
        <ele>2598.58</ele>
        <time>2019-09-05T11:05:16Z</time>
      </trkpt>
      <trkpt lat="42.5449263956" lon="1.0159154143">
        <ele>2598.58</ele>
        <time>2019-09-05T11:05:27Z</time>
      </trkpt>
      <trkpt lat="42.5449351128" lon="1.0159419850">
        <ele>2598.58</ele>
        <time>2019-09-05T11:05:38Z</time>
      </trkpt>
      <trkpt lat="42.5449399743" lon="1.0159507859">
        <ele>2603.39</ele>
        <time>2019-09-05T11:05:40Z</time>
      </trkpt>
      <trkpt lat="42.5449410640" lon="1.0159548931">
        <ele>2603.39</ele>
        <time>2019-09-05T11:05:41Z</time>
      </trkpt>
      <trkpt lat="42.5449218694" lon="1.0159859899">
        <ele>2604.35</ele>
        <time>2019-09-05T11:05:52Z</time>
      </trkpt>
      <trkpt lat="42.5448758528" lon="1.0159571562">
        <ele>2605.79</ele>
        <time>2019-09-05T11:06:04Z</time>
      </trkpt>
      <trkpt lat="42.5448667165" lon="1.0159760155">
        <ele>2607.23</ele>
        <time>2019-09-05T11:06:15Z</time>
      </trkpt>
      <trkpt lat="42.5448609330" lon="1.0160087049">
        <ele>2608.67</ele>
        <time>2019-09-05T11:06:27Z</time>
      </trkpt>
      <trkpt lat="42.5448673032" lon="1.0160303302">
        <ele>2610.60</ele>
        <time>2019-09-05T11:06:40Z</time>
      </trkpt>
      <trkpt lat="42.5448657107" lon="1.0160419811">
        <ele>2610.60</ele>
        <time>2019-09-05T11:06:58Z</time>
      </trkpt>
      <trkpt lat="42.5448123179" lon="1.0160245467">
        <ele>2612.52</ele>
        <time>2019-09-05T11:07:12Z</time>
      </trkpt>
      <trkpt lat="42.5448077917" lon="1.0160234571">
        <ele>2613.48</ele>
        <time>2019-09-05T11:07:26Z</time>
      </trkpt>
      <trkpt lat="42.5448001642" lon="1.0160186794">
        <ele>2613.48</ele>
        <time>2019-09-05T11:07:52Z</time>
      </trkpt>
      <trkpt lat="42.5448205322" lon="1.0160224512">
        <ele>2613.96</ele>
        <time>2019-09-05T11:08:14Z</time>
      </trkpt>
      <trkpt lat="42.5448243879" lon="1.0160153266">
        <ele>2613.96</ele>
        <time>2019-09-05T11:08:36Z</time>
      </trkpt>
      <trkpt lat="42.5448155031" lon="1.0160506144">
        <ele>2613.96</ele>
        <time>2019-09-05T11:08:56Z</time>
      </trkpt>
      <trkpt lat="42.5447885972" lon="1.0160777718">
        <ele>2613.96</ele>
        <time>2019-09-05T11:09:07Z</time>
      </trkpt>
      <trkpt lat="42.5447410718" lon="1.0160599183">
        <ele>2613.96</ele>
        <time>2019-09-05T11:09:20Z</time>
      </trkpt>
      <trkpt lat="42.5447206199" lon="1.0160887521">
        <ele>2613.96</ele>
        <time>2019-09-05T11:09:35Z</time>
      </trkpt>
      <trkpt lat="42.5447067060" lon="1.0161144007">
        <ele>2622.61</ele>
        <time>2019-09-05T11:09:44Z</time>
      </trkpt>
      <trkpt lat="42.5447024312" lon="1.0161141492">
        <ele>2622.61</ele>
        <time>2019-09-05T11:09:45Z</time>
      </trkpt>
      <trkpt lat="42.5446745194" lon="1.0161613394">
        <ele>2624.06</ele>
        <time>2019-09-05T11:09:59Z</time>
      </trkpt>
      <trkpt lat="42.5446601026" lon="1.0161899216">
        <ele>2625.98</ele>
        <time>2019-09-05T11:10:11Z</time>
      </trkpt>
      <trkpt lat="42.5446597673" lon="1.0162347648">
        <ele>2627.90</ele>
        <time>2019-09-05T11:10:23Z</time>
      </trkpt>
      <trkpt lat="42.5446603540" lon="1.0162485950">
        <ele>2628.38</ele>
        <time>2019-09-05T11:10:27Z</time>
      </trkpt>
      <trkpt lat="42.5446410757" lon="1.0162835475">
        <ele>2630.30</ele>
        <time>2019-09-05T11:10:38Z</time>
      </trkpt>
      <trkpt lat="42.5446499605" lon="1.0163050052">
        <ele>2630.79</ele>
        <time>2019-09-05T11:10:45Z</time>
      </trkpt>
      <trkpt lat="42.5446846616" lon="1.0163765866">
        <ele>2631.75</ele>
        <time>2019-09-05T11:10:51Z</time>
      </trkpt>
      <trkpt lat="42.5446387287" lon="1.0163970385">
        <ele>2634.63</ele>
        <time>2019-09-05T11:11:05Z</time>
      </trkpt>
      <trkpt lat="42.5446117390" lon="1.0163942724">
        <ele>2636.55</ele>
        <time>2019-09-05T11:11:17Z</time>
      </trkpt>
      <trkpt lat="42.5446025189" lon="1.0164694581">
        <ele>2637.99</ele>
        <time>2019-09-05T11:11:29Z</time>
      </trkpt>
      <trkpt lat="42.5445525628" lon="1.0164337512">
        <ele>2640.88</ele>
        <time>2019-09-05T11:11:43Z</time>
      </trkpt>
      <trkpt lat="42.5445205439" lon="1.0164100304">
        <ele>2642.80</ele>
        <time>2019-09-05T11:11:54Z</time>
      </trkpt>
      <trkpt lat="42.5445245672" lon="1.0164336674">
        <ele>2643.76</ele>
        <time>2019-09-05T11:12:02Z</time>
      </trkpt>
      <trkpt lat="42.5445130002" lon="1.0164571367">
        <ele>2646.17</ele>
        <time>2019-09-05T11:12:13Z</time>
      </trkpt>
      <trkpt lat="42.5444674026" lon="1.0164417978">
        <ele>2647.61</ele>
        <time>2019-09-05T11:12:26Z</time>
      </trkpt>
      <trkpt lat="42.5444239844" lon="1.0164356790">
        <ele>2649.53</ele>
        <time>2019-09-05T11:12:36Z</time>
      </trkpt>
      <trkpt lat="42.5443819072" lon="1.0164098628">
        <ele>2651.93</ele>
        <time>2019-09-05T11:12:50Z</time>
      </trkpt>
      <trkpt lat="42.5443610363" lon="1.0164000560">
        <ele>2653.38</ele>
        <time>2019-09-05T11:13:03Z</time>
      </trkpt>
      <trkpt lat="42.5443513133" lon="1.0163782630">
        <ele>2652.90</ele>
        <time>2019-09-05T11:13:14Z</time>
      </trkpt>
      <trkpt lat="42.5443197973" lon="1.0163308214">
        <ele>2653.38</ele>
        <time>2019-09-05T11:13:27Z</time>
      </trkpt>
      <trkpt lat="42.5442866050" lon="1.0163113754">
        <ele>2654.82</ele>
        <time>2019-09-05T11:13:40Z</time>
      </trkpt>
      <trkpt lat="42.5442805700" lon="1.0163644329">
        <ele>2656.26</ele>
        <time>2019-09-05T11:13:51Z</time>
      </trkpt>
      <trkpt lat="42.5442795642" lon="1.0163689591">
        <ele>2657.70</ele>
        <time>2019-09-05T11:14:00Z</time>
      </trkpt>
      <trkpt lat="42.5442703441" lon="1.0163692106">
        <ele>2659.14</ele>
        <time>2019-09-05T11:14:13Z</time>
      </trkpt>
      <trkpt lat="42.5442440249" lon="1.0163602419">
        <ele>2660.59</ele>
        <time>2019-09-05T11:14:24Z</time>
      </trkpt>
      <trkpt lat="42.5442170352" lon="1.0163381975">
        <ele>2662.03</ele>
        <time>2019-09-05T11:14:38Z</time>
      </trkpt>
      <trkpt lat="42.5441661570" lon="1.0163464956">
        <ele>2663.95</ele>
        <time>2019-09-05T11:14:50Z</time>
      </trkpt>
      <trkpt lat="42.5441667438" lon="1.0163818672">
        <ele>2665.87</ele>
        <time>2019-09-05T11:15:03Z</time>
      </trkpt>
      <trkpt lat="42.5441838428" lon="1.0164302308">
        <ele>2667.80</ele>
        <time>2019-09-05T11:15:14Z</time>
      </trkpt>
      <trkpt lat="42.5441843458" lon="1.0164759122">
        <ele>2668.76</ele>
        <time>2019-09-05T11:15:26Z</time>
      </trkpt>
      <trkpt lat="42.5441461243" lon="1.0164604895">
        <ele>2670.20</ele>
        <time>2019-09-05T11:15:38Z</time>
      </trkpt>
      <trkpt lat="42.5441075675" lon="1.0164395347">
        <ele>2672.12</ele>
        <time>2019-09-05T11:15:52Z</time>
      </trkpt>
      <trkpt lat="42.5440811645" lon="1.0164318234">
        <ele>2673.56</ele>
        <time>2019-09-05T11:16:03Z</time>
      </trkpt>
      <trkpt lat="42.5440404285" lon="1.0164226033">
        <ele>2675.01</ele>
        <time>2019-09-05T11:16:13Z</time>
      </trkpt>
      <trkpt lat="42.5440188870" lon="1.0164084379">
        <ele>2676.45</ele>
        <time>2019-09-05T11:16:24Z</time>
      </trkpt>
      <trkpt lat="42.5439924002" lon="1.0163905844">
        <ele>2677.41</ele>
        <time>2019-09-05T11:16:36Z</time>
      </trkpt>
      <trkpt lat="42.5439706910" lon="1.0164050851">
        <ele>2679.81</ele>
        <time>2019-09-05T11:16:49Z</time>
      </trkpt>
      <trkpt lat="42.5439792406" lon="1.0164632555">
        <ele>2681.73</ele>
        <time>2019-09-05T11:17:02Z</time>
      </trkpt>
      <trkpt lat="42.5439741276" lon="1.0164725594">
        <ele>2683.18</ele>
        <time>2019-09-05T11:17:15Z</time>
      </trkpt>
      <trkpt lat="42.5439643208" lon="1.0164641775">
        <ele>2683.18</ele>
        <time>2019-09-05T11:17:35Z</time>
      </trkpt>
      <trkpt lat="42.5439255964" lon="1.0164554603">
        <ele>2684.14</ele>
        <time>2019-09-05T11:17:46Z</time>
      </trkpt>
      <trkpt lat="42.5439062342" lon="1.0164619144">
        <ele>2685.58</ele>
        <time>2019-09-05T11:17:59Z</time>
      </trkpt>
      <trkpt lat="42.5439042225" lon="1.0164786782">
        <ele>2686.54</ele>
        <time>2019-09-05T11:18:04Z</time>
      </trkpt>
      <trkpt lat="42.5438517518" lon="1.0164357629">
        <ele>2687.98</ele>
        <time>2019-09-05T11:18:16Z</time>
      </trkpt>
      <trkpt lat="42.5438262708" lon="1.0164281353">
        <ele>2689.43</ele>
        <time>2019-09-05T11:18:30Z</time>
      </trkpt>
      <trkpt lat="42.5437986944" lon="1.0163969547">
        <ele>2690.87</ele>
        <time>2019-09-05T11:18:43Z</time>
      </trkpt>
      <trkpt lat="42.5438022148" lon="1.0164334159">
        <ele>2692.79</ele>
        <time>2019-09-05T11:18:55Z</time>
      </trkpt>
      <trkpt lat="42.5437695254" lon="1.0164347570">
        <ele>2694.71</ele>
        <time>2019-09-05T11:19:07Z</time>
      </trkpt>
      <trkpt lat="42.5437513366" lon="1.0164076835">
        <ele>2696.15</ele>
        <time>2019-09-05T11:19:13Z</time>
      </trkpt>
      <trkpt lat="42.5437282026" lon="1.0163899139">
        <ele>2696.64</ele>
        <time>2019-09-05T11:19:24Z</time>
      </trkpt>
      <trkpt lat="42.5437046494" lon="1.0163847171">
        <ele>2697.60</ele>
        <time>2019-09-05T11:19:32Z</time>
      </trkpt>
      <trkpt lat="42.5436805096" lon="1.0163990501">
        <ele>2700.00</ele>
        <time>2019-09-05T11:19:44Z</time>
      </trkpt>
      <trkpt lat="42.5436549447" lon="1.0164337512">
        <ele>2702.40</ele>
        <time>2019-09-05T11:19:57Z</time>
      </trkpt>
      <trkpt lat="42.5436125323" lon="1.0164768342">
        <ele>2704.33</ele>
        <time>2019-09-05T11:20:09Z</time>
      </trkpt>
      <trkpt lat="42.5435986184" lon="1.0165165644">
        <ele>2706.73</ele>
        <time>2019-09-05T11:20:21Z</time>
      </trkpt>
      <trkpt lat="42.5436123647" lon="1.0165604018">
        <ele>2707.21</ele>
        <time>2019-09-05T11:20:31Z</time>
      </trkpt>
      <trkpt lat="42.5435886439" lon="1.0166010540">
        <ele>2709.13</ele>
        <time>2019-09-05T11:20:41Z</time>
      </trkpt>
      <trkpt lat="42.5435516797" lon="1.0166163929">
        <ele>2711.54</ele>
        <time>2019-09-05T11:20:53Z</time>
      </trkpt>
      <trkpt lat="42.5435566250" lon="1.0166615713">
        <ele>2712.98</ele>
        <time>2019-09-05T11:21:02Z</time>
      </trkpt>
      <trkpt lat="42.5435058307" lon="1.0167054087">
        <ele>2714.90</ele>
        <time>2019-09-05T11:21:15Z</time>
      </trkpt>
      <trkpt lat="42.5435127039" lon="1.0167383496">
        <ele>2714.90</ele>
        <time>2019-09-05T11:21:26Z</time>
      </trkpt>
      <trkpt lat="42.5435118657" lon="1.0167289618">
        <ele>2714.90</ele>
        <time>2019-09-05T11:21:46Z</time>
      </trkpt>
      <trkpt lat="42.5434997119" lon="1.0167266987">
        <ele>2714.42</ele>
        <time>2019-09-05T11:23:00Z</time>
      </trkpt>
      <trkpt lat="42.5435232650" lon="1.0167468153">
        <ele>2714.42</ele>
        <time>2019-09-05T11:23:32Z</time>
      </trkpt>
      <trkpt lat="42.5435340777" lon="1.0167647526">
        <ele>2714.42</ele>
        <time>2019-09-05T11:23:42Z</time>
      </trkpt>
      <trkpt lat="42.5435144641" lon="1.0167682730">
        <ele>2714.42</ele>
        <time>2019-09-05T11:24:30Z</time>
      </trkpt>
      <trkpt lat="42.5435131229" lon="1.0167862941">
        <ele>2714.42</ele>
        <time>2019-09-05T11:25:26Z</time>
      </trkpt>
      <trkpt lat="42.5435129553" lon="1.0167831089">
        <ele>2714.42</ele>
        <time>2019-09-05T11:25:30Z</time>
      </trkpt>
      <trkpt lat="42.5435314793" lon="1.0168116074">
        <ele>2714.42</ele>
        <time>2019-09-05T11:25:37Z</time>
      </trkpt>
      <trkpt lat="42.5435306411" lon="1.0167935863">
        <ele>2714.42</ele>
        <time>2019-09-05T11:25:58Z</time>
      </trkpt>
      <trkpt lat="42.5435310602" lon="1.0167653393">
        <ele>2714.42</ele>
        <time>2019-09-05T11:26:32Z</time>
      </trkpt>
      <trkpt lat="42.5435334910" lon="1.0167364217">
        <ele>2714.42</ele>
        <time>2019-09-05T11:27:20Z</time>
      </trkpt>
      <trkpt lat="42.5435241032" lon="1.0167468991">
        <ele>2714.42</ele>
        <time>2019-09-05T11:27:54Z</time>
      </trkpt>
      <trkpt lat="42.5435231812" lon="1.0167465638">
        <ele>2714.42</ele>
        <time>2019-09-05T11:28:15Z</time>
      </trkpt>
      <trkpt lat="42.5435247738" lon="1.0167555325">
        <ele>2714.42</ele>
        <time>2019-09-05T11:28:38Z</time>
      </trkpt>
      <trkpt lat="42.5435220916" lon="1.0167545266">
        <ele>2714.42</ele>
        <time>2019-09-05T11:29:01Z</time>
      </trkpt>
      <trkpt lat="42.5435199123" lon="1.0167598911">
        <ele>2714.42</ele>
        <time>2019-09-05T11:29:19Z</time>
      </trkpt>
      <trkpt lat="42.5435257796" lon="1.0167523474">
        <ele>2714.42</ele>
        <time>2019-09-05T11:29:42Z</time>
      </trkpt>
      <trkpt lat="42.5435343292" lon="1.0167411994">
        <ele>2714.42</ele>
        <time>2019-09-05T11:30:26Z</time>
      </trkpt>
      <trkpt lat="42.5435359217" lon="1.0167572927">
        <ele>2714.42</ele>
        <time>2019-09-05T11:30:56Z</time>
      </trkpt>
      <trkpt lat="42.5435460638" lon="1.0167623218">
        <ele>2714.42</ele>
        <time>2019-09-05T11:31:19Z</time>
      </trkpt>
      <trkpt lat="42.5435396098" lon="1.0167650040">
        <ele>2714.42</ele>
        <time>2019-09-05T11:31:35Z</time>
      </trkpt>
      <trkpt lat="42.5435094349" lon="1.0167202447">
        <ele>2714.42</ele>
        <time>2019-09-05T11:31:49Z</time>
      </trkpt>
      <trkpt lat="42.5435097702" lon="1.0167173110">
        <ele>2714.42</ele>
        <time>2019-09-05T11:32:09Z</time>
      </trkpt>
      <trkpt lat="42.5435237680" lon="1.0167616513">
        <ele>2714.42</ele>
        <time>2019-09-05T11:32:21Z</time>
      </trkpt>
      <trkpt lat="42.5435258634" lon="1.0167619027">
        <ele>2714.42</ele>
        <time>2019-09-05T11:32:47Z</time>
      </trkpt>
      <trkpt lat="42.5435218401" lon="1.0167570412">
        <ele>2714.42</ele>
        <time>2019-09-05T11:33:07Z</time>
      </trkpt>
      <trkpt lat="42.5435168948" lon="1.0167571250">
        <ele>2714.42</ele>
        <time>2019-09-05T11:33:28Z</time>
      </trkpt>
      <trkpt lat="42.5434975326" lon="1.0167495813">
        <ele>2714.42</ele>
        <time>2019-09-05T11:33:41Z</time>
      </trkpt>
      <trkpt lat="42.5434814394" lon="1.0167798400">
        <ele>2714.42</ele>
        <time>2019-09-05T11:33:49Z</time>
      </trkpt>
      <trkpt lat="42.5434873067" lon="1.0167951789">
        <ele>2714.42</ele>
        <time>2019-09-05T11:33:51Z</time>
      </trkpt>
      <trkpt lat="42.5434977841" lon="1.0168649163">
        <ele>2710.09</ele>
        <time>2019-09-05T11:33:58Z</time>
      </trkpt>
      <trkpt lat="42.5434952695" lon="1.0168967675">
        <ele>2708.65</ele>
        <time>2019-09-05T11:34:01Z</time>
      </trkpt>
      <trkpt lat="42.5435391068" lon="1.0169939138">
        <ele>2707.69</ele>
        <time>2019-09-05T11:34:12Z</time>
      </trkpt>
      <trkpt lat="42.5435520150" lon="1.0170178860">
        <ele>2707.21</ele>
        <time>2019-09-05T11:34:14Z</time>
      </trkpt>
      <trkpt lat="42.5435843691" lon="1.0170969274">
        <ele>2705.77</ele>
        <time>2019-09-05T11:34:26Z</time>
      </trkpt>
      <trkpt lat="42.5435878895" lon="1.0171503201">
        <ele>2704.33</ele>
        <time>2019-09-05T11:34:37Z</time>
      </trkpt>
      <trkpt lat="42.5435817707" lon="1.0171960853">
        <ele>2702.40</ele>
        <time>2019-09-05T11:34:47Z</time>
      </trkpt>
      <trkpt lat="42.5435928348" lon="1.0172496457">
        <ele>2700.96</ele>
        <time>2019-09-05T11:34:55Z</time>
      </trkpt>
      <trkpt lat="42.5435871352" lon="1.0172896273">
        <ele>2699.04</ele>
        <time>2019-09-05T11:35:03Z</time>
      </trkpt>
      <trkpt lat="42.5435920805" lon="1.0173746198">
        <ele>2697.12</ele>
        <time>2019-09-05T11:35:14Z</time>
      </trkpt>
      <trkpt lat="42.5436047371" lon="1.0174296889">
        <ele>2695.19</ele>
        <time>2019-09-05T11:35:21Z</time>
      </trkpt>
      <trkpt lat="42.5436078385" lon="1.0174638033">
        <ele>2693.27</ele>
        <time>2019-09-05T11:35:33Z</time>
      </trkpt>
      <trkpt lat="42.5436240155" lon="1.0174938943">
        <ele>2693.75</ele>
        <time>2019-09-05T11:35:45Z</time>
      </trkpt>
      <trkpt lat="42.5436417013" lon="1.0175380670">
        <ele>2693.27</ele>
        <time>2019-09-05T11:35:53Z</time>
      </trkpt>
      <trkpt lat="42.5436502509" lon="1.0175908729">
        <ele>2691.83</ele>
        <time>2019-09-05T11:36:01Z</time>
      </trkpt>
      <trkpt lat="42.5436489098" lon="1.0177051183">
        <ele>2689.91</ele>
        <time>2019-09-05T11:36:13Z</time>
      </trkpt>
      <trkpt lat="42.5436585490" lon="1.0177969001">
        <ele>2687.50</ele>
        <time>2019-09-05T11:36:24Z</time>
      </trkpt>
      <trkpt lat="42.5436867122" lon="1.0178779531">
        <ele>2684.62</ele>
        <time>2019-09-05T11:36:34Z</time>
      </trkpt>
      <trkpt lat="42.5437079184" lon="1.0179207847">
        <ele>2683.66</ele>
        <time>2019-09-05T11:36:44Z</time>
      </trkpt>
      <trkpt lat="42.5437223352" lon="1.0179852415">
        <ele>2683.18</ele>
        <time>2019-09-05T11:36:52Z</time>
      </trkpt>
      <trkpt lat="42.5437674299" lon="1.0180997383">
        <ele>2681.25</ele>
        <time>2019-09-05T11:37:04Z</time>
      </trkpt>
      <trkpt lat="42.5438097585" lon="1.0181603394">
        <ele>2679.81</ele>
        <time>2019-09-05T11:37:14Z</time>
      </trkpt>
      <trkpt lat="42.5438555237" lon="1.0182315856">
        <ele>2678.37</ele>
        <time>2019-09-05T11:37:24Z</time>
      </trkpt>
      <trkpt lat="42.5438906439" lon="1.0182610899">
        <ele>2678.37</ele>
        <time>2019-09-05T11:37:28Z</time>
      </trkpt>
      <trkpt lat="42.5439584535" lon="1.0183473397">
        <ele>2677.41</ele>
        <time>2019-09-05T11:37:39Z</time>
      </trkpt>
      <trkpt lat="42.5440127682" lon="1.0184063483">
        <ele>2677.41</ele>
        <time>2019-09-05T11:37:47Z</time>
      </trkpt>
      <trkpt lat="42.5440382492" lon="1.0184774268">
        <ele>2677.41</ele>
        <time>2019-09-05T11:37:56Z</time>
      </trkpt>
      <trkpt lat="42.5440583657" lon="1.0185061768">
        <ele>2676.45</ele>
        <time>2019-09-05T11:37:59Z</time>
      </trkpt>
      <trkpt lat="42.5441845134" lon="1.0185513552">
        <ele>2674.52</ele>
        <time>2019-09-05T11:38:11Z</time>
      </trkpt>
      <trkpt lat="42.5443033688" lon="1.0186661035">
        <ele>2672.60</ele>
        <time>2019-09-05T11:38:23Z</time>
      </trkpt>
      <trkpt lat="42.5443747826" lon="1.0187763255">
        <ele>2670.20</ele>
        <time>2019-09-05T11:38:34Z</time>
      </trkpt>
      <trkpt lat="42.5444421731" lon="1.0188937560">
        <ele>2667.31</ele>
        <time>2019-09-05T11:38:45Z</time>
      </trkpt>
      <trkpt lat="42.5444601104" lon="1.0189485736">
        <ele>2665.87</ele>
        <time>2019-09-05T11:38:55Z</time>
      </trkpt>
      <trkpt lat="42.5444557518" lon="1.0189788323">
        <ele>2664.91</ele>
        <time>2019-09-05T11:39:04Z</time>
      </trkpt>
      <trkpt lat="42.5444946438" lon="1.0190592986">
        <ele>2662.99</ele>
        <time>2019-09-05T11:39:12Z</time>
      </trkpt>
      <trkpt lat="42.5445326138" lon="1.0192134418">
        <ele>2661.55</ele>
        <time>2019-09-05T11:39:23Z</time>
      </trkpt>
      <trkpt lat="42.5445553288" lon="1.0192518309">
        <ele>2660.11</ele>
        <time>2019-09-05T11:39:26Z</time>
      </trkpt>
      <trkpt lat="42.5446358789" lon="1.0193436127">
        <ele>2658.18</ele>
        <time>2019-09-05T11:39:36Z</time>
      </trkpt>
      <trkpt lat="42.5446445961" lon="1.0193533357">
        <ele>2657.70</ele>
        <time>2019-09-05T11:39:37Z</time>
      </trkpt>
      <trkpt lat="42.5447422452" lon="1.0194593668">
        <ele>2655.78</ele>
        <time>2019-09-05T11:39:49Z</time>
      </trkpt>
      <trkpt lat="42.5448141620" lon="1.0195638053">
        <ele>2654.34</ele>
        <time>2019-09-05T11:40:02Z</time>
      </trkpt>
      <trkpt lat="42.5448128209" lon="1.0196096543">
        <ele>2653.38</ele>
        <time>2019-09-05T11:40:06Z</time>
      </trkpt>
      <trkpt lat="42.5448191073" lon="1.0196781345">
        <ele>2652.42</ele>
        <time>2019-09-05T11:40:11Z</time>
      </trkpt>
      <trkpt lat="42.5448341947" lon="1.0197848361">
        <ele>2650.49</ele>
        <time>2019-09-05T11:40:20Z</time>
      </trkpt>
      <trkpt lat="42.5448346976" lon="1.0198338702">
        <ele>2648.57</ele>
        <time>2019-09-05T11:40:31Z</time>
      </trkpt>
      <trkpt lat="42.5448258128" lon="1.0198896099">
        <ele>2647.61</ele>
        <time>2019-09-05T11:40:49Z</time>
      </trkpt>
      <trkpt lat="42.5448277406" lon="1.0198981594">
        <ele>2647.61</ele>
        <time>2019-09-05T11:40:50Z</time>
      </trkpt>
      <trkpt lat="42.5448516291" lon="1.0199347045">
        <ele>2647.61</ele>
        <time>2019-09-05T11:40:54Z</time>
      </trkpt>
      <trkpt lat="42.5448720809" lon="1.0200457647">
        <ele>2646.65</ele>
        <time>2019-09-05T11:41:05Z</time>
      </trkpt>
      <trkpt lat="42.5448629446" lon="1.0201204475">
        <ele>2643.76</ele>
        <time>2019-09-05T11:41:16Z</time>
      </trkpt>
      <trkpt lat="42.5448526349" lon="1.0201724153">
        <ele>2642.80</ele>
        <time>2019-09-05T11:41:22Z</time>
      </trkpt>
      <trkpt lat="42.5448334403" lon="1.0202526301">
        <ele>2640.40</ele>
        <time>2019-09-05T11:41:32Z</time>
      </trkpt>
      <trkpt lat="42.5448376313" lon="1.0203204397">
        <ele>2637.99</ele>
        <time>2019-09-05T11:41:45Z</time>
      </trkpt>
      <trkpt lat="42.5448099710" lon="1.0203268938">
        <ele>2636.07</ele>
        <time>2019-09-05T11:41:56Z</time>
      </trkpt>
      <trkpt lat="42.5448378827" lon="1.0203569010">
        <ele>2634.63</ele>
        <time>2019-09-05T11:42:08Z</time>
      </trkpt>
      <trkpt lat="42.5448617712" lon="1.0203980561">
        <ele>2634.15</ele>
        <time>2019-09-05T11:42:19Z</time>
      </trkpt>
      <trkpt lat="42.5448745955" lon="1.0204594117">
        <ele>2632.23</ele>
        <time>2019-09-05T11:42:31Z</time>
      </trkpt>
      <trkpt lat="42.5448658783" lon="1.0205145646">
        <ele>2630.30</ele>
        <time>2019-09-05T11:42:42Z</time>
      </trkpt>
      <trkpt lat="42.5448719133" lon="1.0205563903">
        <ele>2628.38</ele>
        <time>2019-09-05T11:42:52Z</time>
      </trkpt>
      <trkpt lat="42.5448460132" lon="1.0206025746">
        <ele>2625.50</ele>
        <time>2019-09-05T11:43:03Z</time>
      </trkpt>
      <trkpt lat="42.5448478572" lon="1.0206404608">
        <ele>2624.06</ele>
        <time>2019-09-05T11:43:13Z</time>
      </trkpt>
      <trkpt lat="42.5448202807" lon="1.0206806101">
        <ele>2621.17</ele>
        <time>2019-09-05T11:43:24Z</time>
      </trkpt>
      <trkpt lat="42.5448314287" lon="1.0207504313">
        <ele>2619.73</ele>
        <time>2019-09-05T11:43:34Z</time>
      </trkpt>
      <trkpt lat="42.5448361225" lon="1.0208396148">
        <ele>2617.81</ele>
        <time>2019-09-05T11:43:42Z</time>
      </trkpt>
      <trkpt lat="42.5448536407" lon="1.0209802631">
        <ele>2615.40</ele>
        <time>2019-09-05T11:43:53Z</time>
      </trkpt>
      <trkpt lat="42.5448745117" lon="1.0210621543">
        <ele>2613.96</ele>
        <time>2019-09-05T11:44:01Z</time>
      </trkpt>
      <trkpt lat="42.5448854081" lon="1.0212258529">
        <ele>2612.52</ele>
        <time>2019-09-05T11:44:14Z</time>
      </trkpt>
      <trkpt lat="42.5449134875" lon="1.0213070735">
        <ele>2612.04</ele>
        <time>2019-09-05T11:44:26Z</time>
      </trkpt>
      <trkpt lat="42.5449271500" lon="1.0213745479">
        <ele>2610.60</ele>
        <time>2019-09-05T11:44:39Z</time>
      </trkpt>
      <trkpt lat="42.5449306704" lon="1.0214465484">
        <ele>2610.60</ele>
        <time>2019-09-05T11:44:53Z</time>
      </trkpt>
      <trkpt lat="42.5449248869" lon="1.0214838479">
        <ele>2610.12</ele>
        <time>2019-09-05T11:44:56Z</time>
      </trkpt>
      <trkpt lat="42.5449668802" lon="1.0216097441">
        <ele>2609.64</ele>
        <time>2019-09-05T11:45:08Z</time>
      </trkpt>
      <trkpt lat="42.5449820515" lon="1.0216506477">
        <ele>2609.64</ele>
        <time>2019-09-05T11:45:21Z</time>
      </trkpt>
      <trkpt lat="42.5450320076" lon="1.0218254942">
        <ele>2608.67</ele>
        <time>2019-09-05T11:45:32Z</time>
      </trkpt>
      <trkpt lat="42.5450205244" lon="1.0219844989">
        <ele>2607.23</ele>
        <time>2019-09-05T11:45:44Z</time>
      </trkpt>
      <trkpt lat="42.5450177584" lon="1.0220865067">
        <ele>2605.79</ele>
        <time>2019-09-05T11:45:51Z</time>
      </trkpt>
      <trkpt lat="42.5450321753" lon="1.0221454315">
        <ele>2606.27</ele>
        <time>2019-09-05T11:45:55Z</time>
      </trkpt>
      <trkpt lat="42.5450502802" lon="1.0222243890">
        <ele>2606.27</ele>
        <time>2019-09-05T11:46:01Z</time>
      </trkpt>
      <trkpt lat="42.5450566504" lon="1.0222717468">
        <ele>2606.27</ele>
        <time>2019-09-05T11:46:04Z</time>
      </trkpt>
      <trkpt lat="42.5450335164" lon="1.0224750079">
        <ele>2607.23</ele>
        <time>2019-09-05T11:46:16Z</time>
      </trkpt>
      <trkpt lat="42.5450236257" lon="1.0226081125">
        <ele>2608.19</ele>
        <time>2019-09-05T11:46:26Z</time>
      </trkpt>
      <trkpt lat="42.5450013299" lon="1.0226630140">
        <ele>2609.64</ele>
        <time>2019-09-05T11:46:35Z</time>
      </trkpt>
      <trkpt lat="42.5449617673" lon="1.0227162391">
        <ele>2610.60</ele>
        <time>2019-09-05T11:46:45Z</time>
      </trkpt>
      <trkpt lat="42.5449498650" lon="1.0227898322">
        <ele>2610.60</ele>
        <time>2019-09-05T11:46:55Z</time>
      </trkpt>
      <trkpt lat="42.5449251384" lon="1.0228244495">
        <ele>2610.60</ele>
        <time>2019-09-05T11:47:05Z</time>
      </trkpt>
      <trkpt lat="42.5448783673" lon="1.0228876490">
        <ele>2610.60</ele>
        <time>2019-09-05T11:47:16Z</time>
      </trkpt>
      <trkpt lat="42.5448621064" lon="1.0229372699">
        <ele>2607.71</ele>
        <time>2019-09-05T11:47:21Z</time>
      </trkpt>
      <trkpt lat="42.5448428281" lon="1.0229990445">
        <ele>2606.75</ele>
        <time>2019-09-05T11:47:32Z</time>
      </trkpt>
      <trkpt lat="42.5448012538" lon="1.0230764095">
        <ele>2605.31</ele>
        <time>2019-09-05T11:47:41Z</time>
      </trkpt>
      <trkpt lat="42.5447686482" lon="1.0231833626">
        <ele>2603.87</ele>
        <time>2019-09-05T11:47:52Z</time>
      </trkpt>
      <trkpt lat="42.5447629485" lon="1.0232252721">
        <ele>2603.87</ele>
        <time>2019-09-05T11:47:55Z</time>
      </trkpt>
      <trkpt lat="42.5447507109" lon="1.0232648347">
        <ele>2603.39</ele>
        <time>2019-09-05T11:47:58Z</time>
      </trkpt>
      <trkpt lat="42.5447221287" lon="1.0233159643">
        <ele>2602.43</ele>
        <time>2019-09-05T11:48:02Z</time>
      </trkpt>
      <trkpt lat="42.5446554925" lon="1.0233964305">
        <ele>2600.98</ele>
        <time>2019-09-05T11:48:13Z</time>
      </trkpt>
      <trkpt lat="42.5446259044" lon="1.0234662518">
        <ele>2600.50</ele>
        <time>2019-09-05T11:48:20Z</time>
      </trkpt>
      <trkpt lat="42.5446151756" lon="1.0235286970">
        <ele>2600.98</ele>
        <time>2019-09-05T11:48:31Z</time>
      </trkpt>
      <trkpt lat="42.5445959810" lon="1.0236121807">
        <ele>2600.50</ele>
        <time>2019-09-05T11:48:42Z</time>
      </trkpt>
      <trkpt lat="42.5445602741" lon="1.0237701796">
        <ele>2599.54</ele>
        <time>2019-09-05T11:48:53Z</time>
      </trkpt>
      <trkpt lat="42.5445501320" lon="1.0237984266">
        <ele>2599.54</ele>
        <time>2019-09-05T11:48:55Z</time>
      </trkpt>
      <trkpt lat="42.5444994215" lon="1.0239484627">
        <ele>2597.62</ele>
        <time>2019-09-05T11:49:09Z</time>
      </trkpt>
      <trkpt lat="42.5444665644" lon="1.0240005143">
        <ele>2595.70</ele>
        <time>2019-09-05T11:49:20Z</time>
      </trkpt>
      <trkpt lat="42.5444090646" lon="1.0241550766">
        <ele>2592.81</ele>
        <time>2019-09-05T11:49:32Z</time>
      </trkpt>
      <trkpt lat="42.5444022752" lon="1.0241621174">
        <ele>2592.81</ele>
        <time>2019-09-05T11:49:33Z</time>
      </trkpt>
      <trkpt lat="42.5443612039" lon="1.0241989139">
        <ele>2591.85</ele>
        <time>2019-09-05T11:49:43Z</time>
      </trkpt>
      <trkpt lat="42.5443554204" lon="1.0242122412">
        <ele>2592.81</ele>
        <time>2019-09-05T11:50:01Z</time>
      </trkpt>
      <trkpt lat="42.5443116669" lon="1.0242645442">
        <ele>2591.37</ele>
        <time>2019-09-05T11:50:13Z</time>
      </trkpt>
      <trkpt lat="42.5443057157" lon="1.0243656300">
        <ele>2590.41</ele>
        <time>2019-09-05T11:50:22Z</time>
      </trkpt>
      <trkpt lat="42.5443034526" lon="1.0244440846">
        <ele>2590.41</ele>
        <time>2019-09-05T11:50:28Z</time>
      </trkpt>
      <trkpt lat="42.5442628842" lon="1.0245792009">
        <ele>2590.41</ele>
        <time>2019-09-05T11:50:41Z</time>
      </trkpt>
      <trkpt lat="42.5442526583" lon="1.0246268101">
        <ele>2590.41</ele>
        <time>2019-09-05T11:50:51Z</time>
      </trkpt>
      <trkpt lat="42.5442210585" lon="1.0246663727">
        <ele>2590.41</ele>
        <time>2019-09-05T11:51:02Z</time>
      </trkpt>
      <trkpt lat="42.5441777240" lon="1.0246347729">
        <ele>2587.04</ele>
        <time>2019-09-05T11:51:15Z</time>
      </trkpt>
      <trkpt lat="42.5441493932" lon="1.0246729106">
        <ele>2586.56</ele>
        <time>2019-09-05T11:51:26Z</time>
      </trkpt>
      <trkpt lat="42.5441182125" lon="1.0247164965">
        <ele>2586.08</ele>
        <time>2019-09-05T11:51:36Z</time>
      </trkpt>
      <trkpt lat="42.5440987665" lon="1.0247696377">
        <ele>2585.60</ele>
        <time>2019-09-05T11:51:46Z</time>
      </trkpt>
      <trkpt lat="42.5440658256" lon="1.0248158220">
        <ele>2584.16</ele>
        <time>2019-09-05T11:51:55Z</time>
      </trkpt>
      <trkpt lat="42.5440393388" lon="1.0248615034">
        <ele>2584.16</ele>
        <time>2019-09-05T11:52:05Z</time>
      </trkpt>
      <trkpt lat="42.5440343097" lon="1.0249278881">
        <ele>2584.16</ele>
        <time>2019-09-05T11:52:15Z</time>
      </trkpt>
      <trkpt lat="42.5440145284" lon="1.0249883216">
        <ele>2581.76</ele>
        <time>2019-09-05T11:52:26Z</time>
      </trkpt>
      <trkpt lat="42.5439933222" lon="1.0250209272">
        <ele>2580.80</ele>
        <time>2019-09-05T11:52:37Z</time>
      </trkpt>
      <trkpt lat="42.5439715292" lon="1.0250068456">
        <ele>2578.87</ele>
        <time>2019-09-05T11:52:45Z</time>
      </trkpt>
      <trkpt lat="42.5439669192" lon="1.0250293091">
        <ele>2578.39</ele>
        <time>2019-09-05T11:52:55Z</time>
      </trkpt>
      <trkpt lat="42.5439466350" lon="1.0250773374">
        <ele>2576.95</ele>
        <time>2019-09-05T11:53:06Z</time>
      </trkpt>
      <trkpt lat="42.5439456291" lon="1.0251478292">
        <ele>2575.51</ele>
        <time>2019-09-05T11:53:16Z</time>
      </trkpt>
      <trkpt lat="42.5439281110" lon="1.0251977853">
        <ele>2573.11</ele>
        <time>2019-09-05T11:53:26Z</time>
      </trkpt>
      <trkpt lat="42.5439024623" lon="1.0252547823">
        <ele>2570.22</ele>
        <time>2019-09-05T11:53:39Z</time>
      </trkpt>
      <trkpt lat="42.5438609719" lon="1.0252618231">
        <ele>2569.26</ele>
        <time>2019-09-05T11:53:49Z</time>
      </trkpt>
      <trkpt lat="42.5438316353" lon="1.0252785031">
        <ele>2567.82</ele>
        <time>2019-09-05T11:53:59Z</time>
      </trkpt>
      <trkpt lat="42.5438389275" lon="1.0253400262">
        <ele>2566.38</ele>
        <time>2019-09-05T11:54:06Z</time>
      </trkpt>
      <trkpt lat="42.5438460521" lon="1.0254287068">
        <ele>2565.90</ele>
        <time>2019-09-05T11:54:14Z</time>
      </trkpt>
      <trkpt lat="42.5438267738" lon="1.0255214106">
        <ele>2565.42</ele>
        <time>2019-09-05T11:54:27Z</time>
      </trkpt>
      <trkpt lat="42.5438032206" lon="1.0256082471">
        <ele>2563.97</ele>
        <time>2019-09-05T11:54:35Z</time>
      </trkpt>
      <trkpt lat="42.5437763147" lon="1.0257343110">
        <ele>2561.57</ele>
        <time>2019-09-05T11:54:46Z</time>
      </trkpt>
      <trkpt lat="42.5437721238" lon="1.0257430281">
        <ele>2561.57</ele>
        <time>2019-09-05T11:54:47Z</time>
      </trkpt>
      <trkpt lat="42.5437572040" lon="1.0257989354">
        <ele>2560.61</ele>
        <time>2019-09-05T11:54:57Z</time>
      </trkpt>
      <trkpt lat="42.5437484868" lon="1.0258235782">
        <ele>2559.65</ele>
        <time>2019-09-05T11:55:08Z</time>
      </trkpt>
      <trkpt lat="42.5437119417" lon="1.0258490592">
        <ele>2557.73</ele>
        <time>2019-09-05T11:55:19Z</time>
      </trkpt>
      <trkpt lat="42.5436924119" lon="1.0259063076">
        <ele>2556.28</ele>
        <time>2019-09-05T11:55:29Z</time>
      </trkpt>
      <trkpt lat="42.5436814316" lon="1.0259371530">
        <ele>2554.84</ele>
        <time>2019-09-05T11:55:40Z</time>
      </trkpt>
      <trkpt lat="42.5436449703" lon="1.0259647295">
        <ele>2553.40</ele>
        <time>2019-09-05T11:55:50Z</time>
      </trkpt>
      <trkpt lat="42.5436215010" lon="1.0259877797">
        <ele>2551.00</ele>
        <time>2019-09-05T11:56:01Z</time>
      </trkpt>
      <trkpt lat="42.5435880572" lon="1.0260134283">
        <ele>2549.55</ele>
        <time>2019-09-05T11:56:11Z</time>
      </trkpt>
      <trkpt lat="42.5435495004" lon="1.0260956548">
        <ele>2546.67</ele>
        <time>2019-09-05T11:56:22Z</time>
      </trkpt>
      <trkpt lat="42.5435251091" lon="1.0261726007">
        <ele>2545.23</ele>
        <time>2019-09-05T11:56:33Z</time>
      </trkpt>
      <trkpt lat="42.5434970297" lon="1.0262892768">
        <ele>2542.34</ele>
        <time>2019-09-05T11:56:45Z</time>
      </trkpt>
      <trkpt lat="42.5434736442" lon="1.0263344552">
        <ele>2540.42</ele>
        <time>2019-09-05T11:56:56Z</time>
      </trkpt>
      <trkpt lat="42.5434539467" lon="1.0264181904">
        <ele>2538.50</ele>
        <time>2019-09-05T11:57:08Z</time>
      </trkpt>
      <trkpt lat="42.5434477441" lon="1.0264322720">
        <ele>2537.54</ele>
        <time>2019-09-05T11:57:18Z</time>
      </trkpt>
      <trkpt lat="42.5434235204" lon="1.0264947172">
        <ele>2535.13</ele>
        <time>2019-09-05T11:57:30Z</time>
      </trkpt>
      <trkpt lat="42.5434068404" lon="1.0265414882">
        <ele>2533.69</ele>
        <time>2019-09-05T11:57:41Z</time>
      </trkpt>
      <trkpt lat="42.5433855504" lon="1.0265945457">
        <ele>2531.77</ele>
        <time>2019-09-05T11:57:53Z</time>
      </trkpt>
      <trkpt lat="42.5433572195" lon="1.0266501177">
        <ele>2530.33</ele>
        <time>2019-09-05T11:58:04Z</time>
      </trkpt>
      <trkpt lat="42.5433095265" lon="1.0267926101">
        <ele>2527.92</ele>
        <time>2019-09-05T11:58:17Z</time>
      </trkpt>
      <trkpt lat="42.5433231890" lon="1.0268915165">
        <ele>2526.96</ele>
        <time>2019-09-05T11:58:26Z</time>
      </trkpt>
      <trkpt lat="42.5433515199" lon="1.0270072706">
        <ele>2525.04</ele>
        <time>2019-09-05T11:58:37Z</time>
      </trkpt>
      <trkpt lat="42.5433412101" lon="1.0270228609">
        <ele>2524.56</ele>
        <time>2019-09-05T11:58:49Z</time>
      </trkpt>
      <trkpt lat="42.5433391985" lon="1.0270257946">
        <ele>2524.56</ele>
        <time>2019-09-05T11:58:53Z</time>
      </trkpt>
      <trkpt lat="42.5433211774" lon="1.0271260422">
        <ele>2522.64</ele>
        <time>2019-09-05T11:59:05Z</time>
      </trkpt>
      <trkpt lat="42.5433066767" lon="1.0271660239">
        <ele>2521.19</ele>
        <time>2019-09-05T11:59:12Z</time>
      </trkpt>
      <trkpt lat="42.5433037430" lon="1.0272604879">
        <ele>2520.23</ele>
        <time>2019-09-05T11:59:21Z</time>
      </trkpt>
      <trkpt lat="42.5433033239" lon="1.0272997990">
        <ele>2519.27</ele>
        <time>2019-09-05T11:59:32Z</time>
      </trkpt>
      <trkpt lat="42.5433061738" lon="1.0273497552">
        <ele>2518.31</ele>
        <time>2019-09-05T11:59:40Z</time>
      </trkpt>
      <trkpt lat="42.5433072634" lon="1.0274517629">
        <ele>2517.35</ele>
        <time>2019-09-05T11:59:51Z</time>
      </trkpt>
      <trkpt lat="42.5432972051" lon="1.0274702869">
        <ele>2517.35</ele>
        <time>2019-09-05T11:59:54Z</time>
      </trkpt>
      <trkpt lat="42.5432853028" lon="1.0276173055">
        <ele>2515.91</ele>
        <time>2019-09-05T12:00:08Z</time>
      </trkpt>
      <trkpt lat="42.5432620011" lon="1.0276707821">
        <ele>2514.95</ele>
        <time>2019-09-05T12:00:15Z</time>
      </trkpt>
      <trkpt lat="42.5432257913" lon="1.0278012883">
        <ele>2511.58</ele>
        <time>2019-09-05T12:00:24Z</time>
      </trkpt>
      <trkpt lat="42.5431999750" lon="1.0278263502">
        <ele>2511.10</ele>
        <time>2019-09-05T12:00:27Z</time>
      </trkpt>
      <trkpt lat="42.5431565568" lon="1.0279474687">
        <ele>2510.14</ele>
        <time>2019-09-05T12:00:38Z</time>
      </trkpt>
      <trkpt lat="42.5431101210" lon="1.0281063896">
        <ele>2508.70</ele>
        <time>2019-09-05T12:00:50Z</time>
      </trkpt>
      <trkpt lat="42.5431077741" lon="1.0281186271">
        <ele>2508.70</ele>
        <time>2019-09-05T12:00:51Z</time>
      </trkpt>
      <trkpt lat="42.5430715643" lon="1.0282620415">
        <ele>2506.77</ele>
        <time>2019-09-05T12:01:02Z</time>
      </trkpt>
      <trkpt lat="42.5430364441" lon="1.0283922963">
        <ele>2505.81</ele>
        <time>2019-09-05T12:01:11Z</time>
      </trkpt>
      <trkpt lat="42.5429869909" lon="1.0285318550">
        <ele>2504.37</ele>
        <time>2019-09-05T12:01:22Z</time>
      </trkpt>
      <trkpt lat="42.5428885873" lon="1.0286671389">
        <ele>2502.93</ele>
        <time>2019-09-05T12:01:35Z</time>
      </trkpt>
      <trkpt lat="42.5427900162" lon="1.0287990700">
        <ele>2500.05</ele>
        <time>2019-09-05T12:01:50Z</time>
      </trkpt>
      <trkpt lat="42.5427698996" lon="1.0288445838">
        <ele>2499.57</ele>
        <time>2019-09-05T12:01:55Z</time>
      </trkpt>
      <trkpt lat="42.5427465141" lon="1.0288835596">
        <ele>2498.60</ele>
        <time>2019-09-05T12:01:59Z</time>
      </trkpt>
      <trkpt lat="42.5427377969" lon="1.0289102979">
        <ele>2497.64</ele>
        <time>2019-09-05T12:02:01Z</time>
      </trkpt>
      <trkpt lat="42.5427119806" lon="1.0289819632">
        <ele>2496.68</ele>
        <time>2019-09-05T12:02:06Z</time>
      </trkpt>
      <trkpt lat="42.5425887667" lon="1.0292236973">
        <ele>2496.20</ele>
        <time>2019-09-05T12:02:23Z</time>
      </trkpt>
      <trkpt lat="42.5425281655" lon="1.0294205043">
        <ele>2496.68</ele>
        <time>2019-09-05T12:02:35Z</time>
      </trkpt>
      <trkpt lat="42.5424450170" lon="1.0296105221">
        <ele>2496.20</ele>
        <time>2019-09-05T12:02:48Z</time>
      </trkpt>
      <trkpt lat="42.5423893612" lon="1.0298627336">
        <ele>2496.20</ele>
        <time>2019-09-05T12:03:02Z</time>
      </trkpt>
      <trkpt lat="42.5423455238" lon="1.0300210677">
        <ele>2496.20</ele>
        <time>2019-09-05T12:03:13Z</time>
      </trkpt>
      <trkpt lat="42.5423099007" lon="1.0301661585">
        <ele>2496.20</ele>
        <time>2019-09-05T12:03:24Z</time>
      </trkpt>
      <trkpt lat="42.5423209649" lon="1.0302467924">
        <ele>2496.20</ele>
        <time>2019-09-05T12:03:34Z</time>
      </trkpt>
      <trkpt lat="42.5422850903" lon="1.0303509794">
        <ele>2496.20</ele>
        <time>2019-09-05T12:03:47Z</time>
      </trkpt>
      <trkpt lat="42.5422439352" lon="1.0304136761">
        <ele>2495.24</ele>
        <time>2019-09-05T12:03:57Z</time>
      </trkpt>
      <trkpt lat="42.5422087312" lon="1.0304563399">
        <ele>2493.80</ele>
        <time>2019-09-05T12:04:08Z</time>
      </trkpt>
      <trkpt lat="42.5421485491" lon="1.0304083955">
        <ele>2492.84</ele>
        <time>2019-09-05T12:04:20Z</time>
      </trkpt>
      <trkpt lat="42.5421337131" lon="1.0304063000">
        <ele>2492.36</ele>
        <time>2019-09-05T12:04:22Z</time>
      </trkpt>
      <trkpt lat="42.5420669932" lon="1.0304259975">
        <ele>2492.84</ele>
        <time>2019-09-05T12:04:32Z</time>
      </trkpt>
      <trkpt lat="42.5420408417" lon="1.0304188728">
        <ele>2491.87</ele>
        <time>2019-09-05T12:04:42Z</time>
      </trkpt>
      <trkpt lat="42.5420519896" lon="1.0304135922">
        <ele>2491.39</ele>
        <time>2019-09-05T12:05:01Z</time>
      </trkpt>
      <trkpt lat="42.5420475472" lon="1.0304182023">
        <ele>2491.39</ele>
        <time>2019-09-05T12:05:36Z</time>
      </trkpt>
      <trkpt lat="42.5420539174" lon="1.0304097366">
        <ele>2490.91</ele>
        <time>2019-09-05T12:06:02Z</time>
      </trkpt>
      <trkpt lat="42.5420471281" lon="1.0304516461">
        <ele>2490.43</ele>
        <time>2019-09-05T12:06:16Z</time>
      </trkpt>
      <trkpt lat="42.5420125946" lon="1.0304877721">
        <ele>2488.03</ele>
        <time>2019-09-05T12:06:26Z</time>
      </trkpt>
      <trkpt lat="42.5419202261" lon="1.0304703377">
        <ele>2485.63</ele>
        <time>2019-09-05T12:06:36Z</time>
      </trkpt>
      <trkpt lat="42.5418359041" lon="1.0305080563">
        <ele>2482.74</ele>
        <time>2019-09-05T12:06:48Z</time>
      </trkpt>
      <trkpt lat="42.5418181345" lon="1.0305199586">
        <ele>2481.78</ele>
        <time>2019-09-05T12:06:58Z</time>
      </trkpt>
      <trkpt lat="42.5417945813" lon="1.0305114929">
        <ele>2479.86</ele>
        <time>2019-09-05T12:07:10Z</time>
      </trkpt>
      <trkpt lat="42.5417483971" lon="1.0305803083">
        <ele>2477.45</ele>
        <time>2019-09-05T12:07:22Z</time>
      </trkpt>
      <trkpt lat="42.5417251792" lon="1.0306276660">
        <ele>2475.05</ele>
        <time>2019-09-05T12:07:32Z</time>
      </trkpt>
      <trkpt lat="42.5417252630" lon="1.0306238942">
        <ele>2474.57</ele>
        <time>2019-09-05T12:07:46Z</time>
      </trkpt>
      <trkpt lat="42.5417270232" lon="1.0306155123">
        <ele>2474.57</ele>
        <time>2019-09-05T12:08:23Z</time>
      </trkpt>
      <trkpt lat="42.5417294540" lon="1.0306166857">
        <ele>2475.05</ele>
        <time>2019-09-05T12:08:51Z</time>
      </trkpt>
      <trkpt lat="42.5417404342" lon="1.0306177754">
        <ele>2474.57</ele>
        <time>2019-09-05T12:09:47Z</time>
      </trkpt>
      <trkpt lat="42.5417322200" lon="1.0305890255">
        <ele>2474.57</ele>
        <time>2019-09-05T12:10:12Z</time>
      </trkpt>
      <trkpt lat="42.5417316332" lon="1.0305406619">
        <ele>2474.57</ele>
        <time>2019-09-05T12:10:26Z</time>
      </trkpt>
      <trkpt lat="42.5416842755" lon="1.0305082239">
        <ele>2474.57</ele>
        <time>2019-09-05T12:10:40Z</time>
      </trkpt>
      <trkpt lat="42.5416466407" lon="1.0305190366">
        <ele>2474.57</ele>
        <time>2019-09-05T12:10:50Z</time>
      </trkpt>
      <trkpt lat="42.5416023843" lon="1.0305544082">
        <ele>2469.76</ele>
        <time>2019-09-05T12:10:56Z</time>
      </trkpt>
      <trkpt lat="42.5415940862" lon="1.0305571742">
        <ele>2469.76</ele>
        <time>2019-09-05T12:10:57Z</time>
      </trkpt>
      <trkpt lat="42.5415955950" lon="1.0305658914">
        <ele>2469.76</ele>
        <time>2019-09-05T12:11:07Z</time>
      </trkpt>
      <trkpt lat="42.5415950920" lon="1.0305819847">
        <ele>2469.28</ele>
        <time>2019-09-05T12:11:09Z</time>
      </trkpt>
      <trkpt lat="42.5416066591" lon="1.0306804720">
        <ele>2467.84</ele>
        <time>2019-09-05T12:11:19Z</time>
      </trkpt>
      <trkpt lat="42.5416358281" lon="1.0307124071">
        <ele>2469.28</ele>
        <time>2019-09-05T12:11:32Z</time>
      </trkpt>
      <trkpt lat="42.5416918192" lon="1.0307782050">
        <ele>2469.76</ele>
        <time>2019-09-05T12:11:44Z</time>
      </trkpt>
      <trkpt lat="42.5417283643" lon="1.0307927895">
        <ele>2471.21</ele>
        <time>2019-09-05T12:11:55Z</time>
      </trkpt>
      <trkpt lat="42.5417597126" lon="1.0308079608">
        <ele>2471.21</ele>
        <time>2019-09-05T12:12:06Z</time>
      </trkpt>
      <trkpt lat="42.5417977665" lon="1.0307901911">
        <ele>2472.17</ele>
        <time>2019-09-05T12:12:19Z</time>
      </trkpt>
      <trkpt lat="42.5418120157" lon="1.0307958070">
        <ele>2472.17</ele>
        <time>2019-09-05T12:12:21Z</time>
      </trkpt>
      <trkpt lat="42.5418510754" lon="1.0308108106">
        <ele>2473.13</ele>
        <time>2019-09-05T12:12:31Z</time>
      </trkpt>
      <trkpt lat="42.5418795738" lon="1.0308371298">
        <ele>2473.13</ele>
        <time>2019-09-05T12:12:41Z</time>
      </trkpt>
      <trkpt lat="42.5419086590" lon="1.0308669694">
        <ele>2473.13</ele>
        <time>2019-09-05T12:12:51Z</time>
      </trkpt>
      <trkpt lat="42.5419601239" lon="1.0308875050">
        <ele>2473.13</ele>
        <time>2019-09-05T12:12:59Z</time>
      </trkpt>
      <trkpt lat="42.5420075655" lon="1.0309161711">
        <ele>2474.57</ele>
        <time>2019-09-05T12:13:11Z</time>
      </trkpt>
      <trkpt lat="42.5420628861" lon="1.0309069511">
        <ele>2474.09</ele>
        <time>2019-09-05T12:13:25Z</time>
      </trkpt>
      <trkpt lat="42.5421327911" lon="1.0309307557">
        <ele>2472.65</ele>
        <time>2019-09-05T12:13:36Z</time>
      </trkpt>
      <trkpt lat="42.5421848428" lon="1.0310037620">
        <ele>2472.65</ele>
        <time>2019-09-05T12:13:47Z</time>
      </trkpt>
      <trkpt lat="42.5422294345" lon="1.0310594179">
        <ele>2473.13</ele>
        <time>2019-09-05T12:13:54Z</time>
      </trkpt>
      <trkpt lat="42.5422551669" lon="1.0311070271">
        <ele>2473.13</ele>
        <time>2019-09-05T12:14:02Z</time>
      </trkpt>
      <trkpt lat="42.5422741100" lon="1.0311260540">
        <ele>2473.61</ele>
        <time>2019-09-05T12:14:07Z</time>
      </trkpt>
      <trkpt lat="42.5422900356" lon="1.0312067717">
        <ele>2475.05</ele>
        <time>2019-09-05T12:14:16Z</time>
      </trkpt>
      <trkpt lat="42.5422665663" lon="1.0313219391">
        <ele>2473.61</ele>
        <time>2019-09-05T12:14:26Z</time>
      </trkpt>
      <trkpt lat="42.5422675721" lon="1.0313611664">
        <ele>2472.65</ele>
        <time>2019-09-05T12:14:44Z</time>
      </trkpt>
      <trkpt lat="42.5422732718" lon="1.0313942749">
        <ele>2472.65</ele>
        <time>2019-09-05T12:14:53Z</time>
      </trkpt>
      <trkpt lat="42.5422674883" lon="1.0313806962">
        <ele>2472.65</ele>
        <time>2019-09-05T12:15:06Z</time>
      </trkpt>
      <trkpt lat="42.5423023570" lon="1.0314662755">
        <ele>2471.21</ele>
        <time>2019-09-05T12:15:19Z</time>
      </trkpt>
      <trkpt lat="42.5423126668" lon="1.0315053351">
        <ele>2469.76</ele>
        <time>2019-09-05T12:15:31Z</time>
      </trkpt>
      <trkpt lat="42.5423222221" lon="1.0315624997">
        <ele>2468.80</ele>
        <time>2019-09-05T12:15:37Z</time>
      </trkpt>
      <trkpt lat="42.5423310231" lon="1.0315878969">
        <ele>2468.80</ele>
        <time>2019-09-05T12:15:39Z</time>
      </trkpt>
      <trkpt lat="42.5423375610" lon="1.0316501744">
        <ele>2467.36</ele>
        <time>2019-09-05T12:15:43Z</time>
      </trkpt>
      <trkpt lat="42.5423444342" lon="1.0317411181">
        <ele>2464.96</ele>
        <time>2019-09-05T12:15:53Z</time>
      </trkpt>
      <trkpt lat="42.5423384830" lon="1.0318069160">
        <ele>2463.52</ele>
        <time>2019-09-05T12:16:00Z</time>
      </trkpt>
      <trkpt lat="42.5423533190" lon="1.0319412779">
        <ele>2461.11</ele>
        <time>2019-09-05T12:16:13Z</time>
      </trkpt>
      <trkpt lat="42.5423572585" lon="1.0319478158">
        <ele>2460.63</ele>
        <time>2019-09-05T12:16:15Z</time>
      </trkpt>
      <trkpt lat="42.5423604436" lon="1.0319504980">
        <ele>2460.63</ele>
        <time>2019-09-05T12:16:19Z</time>
      </trkpt>
      <trkpt lat="42.5423778780" lon="1.0319941677">
        <ele>2459.67</ele>
        <time>2019-09-05T12:16:30Z</time>
      </trkpt>
      <trkpt lat="42.5423896126" lon="1.0321334749">
        <ele>2459.19</ele>
        <time>2019-09-05T12:16:41Z</time>
      </trkpt>
      <trkpt lat="42.5423865952" lon="1.0321729537">
        <ele>2459.19</ele>
        <time>2019-09-05T12:16:44Z</time>
      </trkpt>
      <trkpt lat="42.5423789676" lon="1.0322424397">
        <ele>2460.15</ele>
        <time>2019-09-05T12:16:55Z</time>
      </trkpt>
      <trkpt lat="42.5423979107" lon="1.0323250014">
        <ele>2461.59</ele>
        <time>2019-09-05T12:17:07Z</time>
      </trkpt>
      <trkpt lat="42.5423843320" lon="1.0324576870">
        <ele>2459.67</ele>
        <time>2019-09-05T12:17:21Z</time>
      </trkpt>
      <trkpt lat="42.5423846673" lon="1.0325643048">
        <ele>2456.79</ele>
        <time>2019-09-05T12:17:32Z</time>
      </trkpt>
      <trkpt lat="42.5423943065" lon="1.0326377302">
        <ele>2455.34</ele>
        <time>2019-09-05T12:17:44Z</time>
      </trkpt>
      <trkpt lat="42.5424000900" lon="1.0327290092">
        <ele>2452.94</ele>
        <time>2019-09-05T12:17:54Z</time>
      </trkpt>
      <trkpt lat="42.5423907023" lon="1.0328401532">
        <ele>2450.06</ele>
        <time>2019-09-05T12:18:04Z</time>
      </trkpt>
      <trkpt lat="42.5423865113" lon="1.0328615271">
        <ele>2449.58</ele>
        <time>2019-09-05T12:18:17Z</time>
      </trkpt>
      <trkpt lat="42.5423908699" lon="1.0328761954">
        <ele>2449.58</ele>
        <time>2019-09-05T12:18:33Z</time>
      </trkpt>
      <trkpt lat="42.5424146745" lon="1.0328715853">
        <ele>2449.58</ele>
        <time>2019-09-05T12:18:49Z</time>
      </trkpt>
      <trkpt lat="42.5424557459" lon="1.0329480283">
        <ele>2448.62</ele>
        <time>2019-09-05T12:18:58Z</time>
      </trkpt>
      <trkpt lat="42.5424487889" lon="1.0329846572">
        <ele>2447.65</ele>
        <time>2019-09-05T12:19:07Z</time>
      </trkpt>
      <trkpt lat="42.5424460229" lon="1.0330161732">
        <ele>2446.21</ele>
        <time>2019-09-05T12:19:19Z</time>
      </trkpt>
      <trkpt lat="42.5424471125" lon="1.0330363736">
        <ele>2445.25</ele>
        <time>2019-09-05T12:19:34Z</time>
      </trkpt>
      <trkpt lat="42.5424571708" lon="1.0330730025">
        <ele>2444.77</ele>
        <time>2019-09-05T12:19:46Z</time>
      </trkpt>
      <trkpt lat="42.5424559973" lon="1.0330932867">
        <ele>2443.33</ele>
        <time>2019-09-05T12:19:52Z</time>
      </trkpt>
      <trkpt lat="42.5424513035" lon="1.0332076158">
        <ele>2441.41</ele>
        <time>2019-09-05T12:20:03Z</time>
      </trkpt>
      <trkpt lat="42.5424301811" lon="1.0332632717">
        <ele>2439.00</ele>
        <time>2019-09-05T12:20:12Z</time>
      </trkpt>
      <trkpt lat="42.5424067955" lon="1.0332656186">
        <ele>2437.56</ele>
        <time>2019-09-05T12:20:21Z</time>
      </trkpt>
      <trkpt lat="42.5423992518" lon="1.0332339350">
        <ele>2437.56</ele>
        <time>2019-09-05T12:20:26Z</time>
      </trkpt>
      <trkpt lat="42.5423999224" lon="1.0332340188">
        <ele>2437.56</ele>
        <time>2019-09-05T12:20:32Z</time>
      </trkpt>
      <trkpt lat="42.5423651375" lon="1.0332188476">
        <ele>2435.64</ele>
        <time>2019-09-05T12:20:44Z</time>
      </trkpt>
      <trkpt lat="42.5423509721" lon="1.0332134832">
        <ele>2435.16</ele>
        <time>2019-09-05T12:20:47Z</time>
      </trkpt>
      <trkpt lat="42.5423011836" lon="1.0332187638">
        <ele>2433.23</ele>
        <time>2019-09-05T12:20:57Z</time>
      </trkpt>
      <trkpt lat="42.5422623754" lon="1.0332245473">
        <ele>2432.27</ele>
        <time>2019-09-05T12:21:06Z</time>
      </trkpt>
      <trkpt lat="42.5422433484" lon="1.0332161654">
        <ele>2431.31</ele>
        <time>2019-09-05T12:21:16Z</time>
      </trkpt>
      <trkpt lat="42.5422745291" lon="1.0331465956">
        <ele>2431.31</ele>
        <time>2019-09-05T12:21:24Z</time>
      </trkpt>
      <trkpt lat="42.5422645546" lon="1.0331161693">
        <ele>2431.31</ele>
        <time>2019-09-05T12:21:33Z</time>
      </trkpt>
      <trkpt lat="42.5422454439" lon="1.0331227072">
        <ele>2430.83</ele>
        <time>2019-09-05T12:21:44Z</time>
      </trkpt>
      <trkpt lat="42.5422362238" lon="1.0331296641">
        <ele>2429.87</ele>
        <time>2019-09-05T12:21:54Z</time>
      </trkpt>
      <trkpt lat="42.5422050431" lon="1.0331289098">
        <ele>2428.43</ele>
        <time>2019-09-05T12:22:05Z</time>
      </trkpt>
      <trkpt lat="42.5421699230" lon="1.0331276525">
        <ele>2428.43</ele>
        <time>2019-09-05T12:22:15Z</time>
      </trkpt>
      <trkpt lat="42.5421613734" lon="1.0330545623">
        <ele>2429.87</ele>
        <time>2019-09-05T12:22:25Z</time>
      </trkpt>
      <trkpt lat="42.5421393290" lon="1.0330611840">
        <ele>2428.43</ele>
        <time>2019-09-05T12:22:36Z</time>
      </trkpt>
      <trkpt lat="42.5420954078" lon="1.0330560710">
        <ele>2428.43</ele>
        <time>2019-09-05T12:22:46Z</time>
      </trkpt>
      <trkpt lat="42.5420526601" lon="1.0330663808">
        <ele>2429.39</ele>
        <time>2019-09-05T12:22:56Z</time>
      </trkpt>
      <trkpt lat="42.5419917237" lon="1.0331027582">
        <ele>2431.31</ele>
        <time>2019-09-05T12:23:06Z</time>
      </trkpt>
      <trkpt lat="42.5419526640" lon="1.0331797041">
        <ele>2431.79</ele>
        <time>2019-09-05T12:23:17Z</time>
      </trkpt>
      <trkpt lat="42.5419464614" lon="1.0332136508">
        <ele>2432.27</ele>
        <time>2019-09-05T12:23:26Z</time>
      </trkpt>
      <trkpt lat="42.5419339724" lon="1.0332561471">
        <ele>2433.23</ele>
        <time>2019-09-05T12:23:36Z</time>
      </trkpt>
      <trkpt lat="42.5419368222" lon="1.0333021637">
        <ele>2432.27</ele>
        <time>2019-09-05T12:23:45Z</time>
      </trkpt>
      <trkpt lat="42.5419327989" lon="1.0333319195">
        <ele>2431.79</ele>
        <time>2019-09-05T12:23:48Z</time>
      </trkpt>
      <trkpt lat="42.5419011153" lon="1.0334014054">
        <ele>2431.79</ele>
        <time>2019-09-05T12:23:54Z</time>
      </trkpt>
      <trkpt lat="42.5418303721" lon="1.0334444046">
        <ele>2431.31</ele>
        <time>2019-09-05T12:24:04Z</time>
      </trkpt>
      <trkpt lat="42.5418146141" lon="1.0334621742">
        <ele>2432.27</ele>
        <time>2019-09-05T12:24:07Z</time>
      </trkpt>
      <trkpt lat="42.5417976826" lon="1.0334947798">
        <ele>2432.27</ele>
        <time>2019-09-05T12:24:10Z</time>
      </trkpt>
      <trkpt lat="42.5417217426" lon="1.0335906688">
        <ele>2431.79</ele>
        <time>2019-09-05T12:24:20Z</time>
      </trkpt>
      <trkpt lat="42.5416950043" lon="1.0336393677">
        <ele>2431.31</ele>
        <time>2019-09-05T12:24:31Z</time>
      </trkpt>
      <trkpt lat="42.5416911487" lon="1.0336582270">
        <ele>2431.31</ele>
        <time>2019-09-05T12:24:51Z</time>
      </trkpt>
      <trkpt lat="42.5416772347" lon="1.0337536130">
        <ele>2431.31</ele>
        <time>2019-09-05T12:25:05Z</time>
      </trkpt>
      <trkpt lat="42.5416681822" lon="1.0338025633">
        <ele>2431.31</ele>
        <time>2019-09-05T12:25:11Z</time>
      </trkpt>
      <trkpt lat="42.5416046474" lon="1.0338231828">
        <ele>2431.79</ele>
        <time>2019-09-05T12:25:21Z</time>
      </trkpt>
      <trkpt lat="42.5415813457" lon="1.0338183213">
        <ele>2431.79</ele>
        <time>2019-09-05T12:25:24Z</time>
      </trkpt>
      <trkpt lat="42.5415212475" lon="1.0338255297">
        <ele>2431.31</ele>
        <time>2019-09-05T12:25:37Z</time>
      </trkpt>
      <trkpt lat="42.5415069144" lon="1.0338303912">
        <ele>2431.31</ele>
        <time>2019-09-05T12:26:09Z</time>
      </trkpt>
      <trkpt lat="42.5414721295" lon="1.0339072533">
        <ele>2432.27</ele>
        <time>2019-09-05T12:26:20Z</time>
      </trkpt>
      <trkpt lat="42.5414593890" lon="1.0339184012">
        <ele>2432.75</ele>
        <time>2019-09-05T12:26:22Z</time>
      </trkpt>
      <trkpt lat="42.5414365064" lon="1.0339341592">
        <ele>2432.75</ele>
        <time>2019-09-05T12:26:25Z</time>
      </trkpt>
      <trkpt lat="42.5413795933" lon="1.0339997057">
        <ele>2433.23</ele>
        <time>2019-09-05T12:26:37Z</time>
      </trkpt>
      <trkpt lat="42.5413591415" lon="1.0340774897">
        <ele>2434.68</ele>
        <time>2019-09-05T12:26:48Z</time>
      </trkpt>
      <trkpt lat="42.5413509272" lon="1.0341396835">
        <ele>2436.12</ele>
        <time>2019-09-05T12:26:59Z</time>
      </trkpt>
      <trkpt lat="42.5413509272" lon="1.0342105944">
        <ele>2438.04</ele>
        <time>2019-09-05T12:27:11Z</time>
      </trkpt>
      <trkpt lat="42.5413339958" lon="1.0342343990">
        <ele>2438.52</ele>
        <time>2019-09-05T12:27:14Z</time>
      </trkpt>
      <trkpt lat="42.5413127057" lon="1.0342580359">
        <ele>2438.52</ele>
        <time>2019-09-05T12:27:17Z</time>
      </trkpt>
      <trkpt lat="42.5412754901" lon="1.0343390051">
        <ele>2439.00</ele>
        <time>2019-09-05T12:27:27Z</time>
      </trkpt>
      <trkpt lat="42.5412661023" lon="1.0344374087">
        <ele>2439.96</ele>
        <time>2019-09-05T12:27:34Z</time>
      </trkpt>
      <trkpt lat="42.5412611570" lon="1.0345113371">
        <ele>2439.96</ele>
        <time>2019-09-05T12:27:44Z</time>
      </trkpt>
      <trkpt lat="42.5412658509" lon="1.0345747881">
        <ele>2439.96</ele>
        <time>2019-09-05T12:27:49Z</time>
      </trkpt>
      <trkpt lat="42.5412711315" lon="1.0347406659">
        <ele>2440.92</ele>
        <time>2019-09-05T12:28:02Z</time>
      </trkpt>
      <trkpt lat="42.5413188245" lon="1.0348796379">
        <ele>2442.37</ele>
        <time>2019-09-05T12:28:15Z</time>
      </trkpt>
      <trkpt lat="42.5413116999" lon="1.0349103156">
        <ele>2443.81</ele>
        <time>2019-09-05T12:28:25Z</time>
      </trkpt>
      <trkpt lat="42.5413184054" lon="1.0349149257">
        <ele>2443.81</ele>
        <time>2019-09-05T12:28:38Z</time>
      </trkpt>
      <trkpt lat="42.5413289666" lon="1.0349290911">
        <ele>2443.81</ele>
        <time>2019-09-05T12:28:40Z</time>
      </trkpt>
      <trkpt lat="42.5413422938" lon="1.0349489562">
        <ele>2443.81</ele>
        <time>2019-09-05T12:28:42Z</time>
      </trkpt>
      <trkpt lat="42.5413789228" lon="1.0350193642">
        <ele>2443.81</ele>
        <time>2019-09-05T12:28:49Z</time>
      </trkpt>
      <trkpt lat="42.5414075051" lon="1.0351593420">
        <ele>2444.29</ele>
        <time>2019-09-05T12:29:01Z</time>
      </trkpt>
      <trkpt lat="42.5414318964" lon="1.0352180991">
        <ele>2446.69</ele>
        <time>2019-09-05T12:29:12Z</time>
      </trkpt>
      <trkpt lat="42.5414510909" lon="1.0352236312">
        <ele>2447.17</ele>
        <time>2019-09-05T12:29:16Z</time>
      </trkpt>
      <trkpt lat="42.5414756499" lon="1.0352807958">
        <ele>2447.17</ele>
        <time>2019-09-05T12:29:21Z</time>
      </trkpt>
      <trkpt lat="42.5414801762" lon="1.0353662912">
        <ele>2447.17</ele>
        <time>2019-09-05T12:29:32Z</time>
      </trkpt>
      <trkpt lat="42.5414791703" lon="1.0353614297">
        <ele>2447.17</ele>
        <time>2019-09-05T12:29:46Z</time>
      </trkpt>
      <trkpt lat="42.5414847862" lon="1.0353589989">
        <ele>2447.17</ele>
        <time>2019-09-05T12:30:02Z</time>
      </trkpt>
      <trkpt lat="42.5414797571" lon="1.0353563167">
        <ele>2447.17</ele>
        <time>2019-09-05T12:30:08Z</time>
      </trkpt>
      <trkpt lat="42.5414667651" lon="1.0353022534">
        <ele>2447.17</ele>
        <time>2019-09-05T12:30:12Z</time>
      </trkpt>
      <trkpt lat="42.5413709600" lon="1.0352421552">
        <ele>2447.17</ele>
        <time>2019-09-05T12:30:25Z</time>
      </trkpt>
      <trkpt lat="42.5413174834" lon="1.0352273192">
        <ele>2448.62</ele>
        <time>2019-09-05T12:30:35Z</time>
      </trkpt>
      <trkpt lat="42.5412763283" lon="1.0353058577">
        <ele>2449.58</ele>
        <time>2019-09-05T12:30:44Z</time>
      </trkpt>
      <trkpt lat="42.5412720535" lon="1.0353248846">
        <ele>2449.58</ele>
        <time>2019-09-05T12:30:46Z</time>
      </trkpt>
      <trkpt lat="42.5412609056" lon="1.0353433248">
        <ele>2450.06</ele>
        <time>2019-09-05T12:30:48Z</time>
      </trkpt>
      <trkpt lat="42.5412453990" lon="1.0353779420">
        <ele>2450.54</ele>
        <time>2019-09-05T12:30:51Z</time>
      </trkpt>
      <trkpt lat="42.5412169844" lon="1.0355533753">
        <ele>2451.02</ele>
        <time>2019-09-05T12:31:05Z</time>
      </trkpt>
      <trkpt lat="42.5412573013" lon="1.0356475040">
        <ele>2449.58</ele>
        <time>2019-09-05T12:31:16Z</time>
      </trkpt>
      <trkpt lat="42.5412334129" lon="1.0357387830">
        <ele>2448.13</ele>
        <time>2019-09-05T12:31:27Z</time>
      </trkpt>
      <trkpt lat="42.5412353408" lon="1.0357662756">
        <ele>2447.17</ele>
        <time>2019-09-05T12:31:30Z</time>
      </trkpt>
      <trkpt lat="42.5412186608" lon="1.0359033197">
        <ele>2445.73</ele>
        <time>2019-09-05T12:31:41Z</time>
      </trkpt>
      <trkpt lat="42.5412550382" lon="1.0359809361">
        <ele>2444.77</ele>
        <time>2019-09-05T12:31:51Z</time>
      </trkpt>
      <trkpt lat="42.5413108617" lon="1.0359708779">
        <ele>2443.33</ele>
        <time>2019-09-05T12:32:01Z</time>
      </trkpt>
      <trkpt lat="42.5413715467" lon="1.0360044893">
        <ele>2441.89</ele>
        <time>2019-09-05T12:32:11Z</time>
      </trkpt>
      <trkpt lat="42.5414282084" lon="1.0360028967">
        <ele>2439.00</ele>
        <time>2019-09-05T12:32:23Z</time>
      </trkpt>
      <trkpt lat="42.5414525159" lon="1.0359874740">
        <ele>2437.56</ele>
        <time>2019-09-05T12:32:32Z</time>
      </trkpt>
      <trkpt lat="42.5414650887" lon="1.0359804332">
        <ele>2436.60</ele>
        <time>2019-09-05T12:32:35Z</time>
      </trkpt>
      <trkpt lat="42.5415320601" lon="1.0360497516">
        <ele>2436.12</ele>
        <time>2019-09-05T12:32:46Z</time>
      </trkpt>
      <trkpt lat="42.5415794179" lon="1.0360856261">
        <ele>2434.20</ele>
        <time>2019-09-05T12:32:55Z</time>
      </trkpt>
      <trkpt lat="42.5416093413" lon="1.0361393541">
        <ele>2432.75</ele>
        <time>2019-09-05T12:33:06Z</time>
      </trkpt>
      <trkpt lat="42.5416453835" lon="1.0361624882">
        <ele>2431.79</ele>
        <time>2019-09-05T12:33:14Z</time>
      </trkpt>
      <trkpt lat="42.5417022966" lon="1.0362139530">
        <ele>2430.83</ele>
        <time>2019-09-05T12:33:22Z</time>
      </trkpt>
      <trkpt lat="42.5418179668" lon="1.0362818465">
        <ele>2430.83</ele>
        <time>2019-09-05T12:33:35Z</time>
      </trkpt>
      <trkpt lat="42.5418704376" lon="1.0363079142">
        <ele>2429.87</ele>
        <time>2019-09-05T12:33:45Z</time>
      </trkpt>
      <trkpt lat="42.5419318769" lon="1.0362935811">
        <ele>2427.95</ele>
        <time>2019-09-05T12:33:57Z</time>
      </trkpt>
      <trkpt lat="42.5419613812" lon="1.0362704471">
        <ele>2426.50</ele>
        <time>2019-09-05T12:34:04Z</time>
      </trkpt>
      <trkpt lat="42.5420148578" lon="1.0362864565">
        <ele>2424.10</ele>
        <time>2019-09-05T12:34:11Z</time>
      </trkpt>
      <trkpt lat="42.5420924742" lon="1.0362603050">
        <ele>2423.62</ele>
        <time>2019-09-05T12:34:23Z</time>
      </trkpt>
      <trkpt lat="42.5421416759" lon="1.0362596344">
        <ele>2422.66</ele>
        <time>2019-09-05T12:34:28Z</time>
      </trkpt>
      <trkpt lat="42.5421710964" lon="1.0363115184">
        <ele>2422.18</ele>
        <time>2019-09-05T12:34:32Z</time>
      </trkpt>
      <trkpt lat="42.5422026124" lon="1.0363334790">
        <ele>2421.70</ele>
        <time>2019-09-05T12:34:36Z</time>
      </trkpt>
      <trkpt lat="42.5422860123" lon="1.0364672542">
        <ele>2420.74</ele>
        <time>2019-09-05T12:34:49Z</time>
      </trkpt>
      <trkpt lat="42.5423061289" lon="1.0366492253">
        <ele>2421.70</ele>
        <time>2019-09-05T12:35:01Z</time>
      </trkpt>
      <trkpt lat="42.5422993395" lon="1.0368080623">
        <ele>2422.18</ele>
        <time>2019-09-05T12:35:13Z</time>
      </trkpt>
      <trkpt lat="42.5422569271" lon="1.0368834995">
        <ele>2423.14</ele>
        <time>2019-09-05T12:35:21Z</time>
      </trkpt>
      <trkpt lat="42.5421824958" lon="1.0370877665">
        <ele>2424.58</ele>
        <time>2019-09-05T12:35:35Z</time>
      </trkpt>
      <trkpt lat="42.5421590265" lon="1.0371760279">
        <ele>2424.58</ele>
        <time>2019-09-05T12:35:42Z</time>
      </trkpt>
      <trkpt lat="42.5421539135" lon="1.0373745952">
        <ele>2424.58</ele>
        <time>2019-09-05T12:35:56Z</time>
      </trkpt>
      <trkpt lat="42.5421684142" lon="1.0375427362">
        <ele>2424.58</ele>
        <time>2019-09-05T12:36:07Z</time>
      </trkpt>
      <trkpt lat="42.5421115849" lon="1.0376247112">
        <ele>2422.66</ele>
        <time>2019-09-05T12:36:15Z</time>
      </trkpt>
      <trkpt lat="42.5420711841" lon="1.0377482604">
        <ele>2421.22</ele>
        <time>2019-09-05T12:36:23Z</time>
      </trkpt>
      <trkpt lat="42.5420540851" lon="1.0377897508">
        <ele>2421.22</ele>
        <time>2019-09-05T12:36:26Z</time>
      </trkpt>
      <trkpt lat="42.5420281012" lon="1.0379736498">
        <ele>2420.26</ele>
        <time>2019-09-05T12:36:38Z</time>
      </trkpt>
      <trkpt lat="42.5419852696" lon="1.0381193273">
        <ele>2419.30</ele>
        <time>2019-09-05T12:36:50Z</time>
      </trkpt>
      <trkpt lat="42.5419332180" lon="1.0382567905">
        <ele>2418.33</ele>
        <time>2019-09-05T12:37:02Z</time>
      </trkpt>
      <trkpt lat="42.5419436954" lon="1.0382875521">
        <ele>2417.85</ele>
        <time>2019-09-05T12:37:10Z</time>
      </trkpt>
      <trkpt lat="42.5419463776" lon="1.0383285396">
        <ele>2417.37</ele>
        <time>2019-09-05T12:37:13Z</time>
      </trkpt>
      <trkpt lat="42.5419556815" lon="1.0384797491">
        <ele>2414.01</ele>
        <time>2019-09-05T12:37:23Z</time>
      </trkpt>
      <trkpt lat="42.5419633090" lon="1.0385367461">
        <ele>2412.09</ele>
        <time>2019-09-05T12:37:28Z</time>
      </trkpt>
      <trkpt lat="42.5420246646" lon="1.0386145301">
        <ele>2409.68</ele>
        <time>2019-09-05T12:37:38Z</time>
      </trkpt>
      <trkpt lat="42.5420850143" lon="1.0386621393">
        <ele>2410.16</ele>
        <time>2019-09-05T12:37:48Z</time>
      </trkpt>
      <trkpt lat="42.5421281811" lon="1.0387102515">
        <ele>2410.64</ele>
        <time>2019-09-05T12:37:58Z</time>
      </trkpt>
      <trkpt lat="42.5421983376" lon="1.0388422664">
        <ele>2410.64</ele>
        <time>2019-09-05T12:38:13Z</time>
      </trkpt>
      <trkpt lat="42.5422355533" lon="1.0388703458">
        <ele>2411.12</ele>
        <time>2019-09-05T12:38:22Z</time>
      </trkpt>
      <trkpt lat="42.5422554184" lon="1.0388538335">
        <ele>2412.09</ele>
        <time>2019-09-05T12:38:30Z</time>
      </trkpt>
      <trkpt lat="42.5422751158" lon="1.0388488043">
        <ele>2412.57</ele>
        <time>2019-09-05T12:38:43Z</time>
      </trkpt>
      <trkpt lat="42.5423146784" lon="1.0388693400">
        <ele>2411.12</ele>
        <time>2019-09-05T12:38:56Z</time>
      </trkpt>
      <trkpt lat="42.5423280895" lon="1.0388859361">
        <ele>2410.64</ele>
        <time>2019-09-05T12:39:19Z</time>
      </trkpt>
      <trkpt lat="42.5423478708" lon="1.0389017779">
        <ele>2410.64</ele>
        <time>2019-09-05T12:39:31Z</time>
      </trkpt>
      <trkpt lat="42.5423103198" lon="1.0389160272">
        <ele>2410.64</ele>
        <time>2019-09-05T12:39:47Z</time>
      </trkpt>
      <trkpt lat="42.5423072185" lon="1.0389247444">
        <ele>2410.64</ele>
        <time>2019-09-05T12:40:00Z</time>
      </trkpt>
      <trkpt lat="42.5422970764" lon="1.0389269236">
        <ele>2410.64</ele>
        <time>2019-09-05T12:40:17Z</time>
      </trkpt>
      <trkpt lat="42.5422924664" lon="1.0389321204">
        <ele>2410.64</ele>
        <time>2019-09-05T12:40:38Z</time>
      </trkpt>
      <trkpt lat="42.5423027761" lon="1.0389221460">
        <ele>2410.64</ele>
        <time>2019-09-05T12:40:54Z</time>
      </trkpt>
      <trkpt lat="42.5423614495" lon="1.0389402509">
        <ele>2410.64</ele>
        <time>2019-09-05T12:41:05Z</time>
      </trkpt>
      <trkpt lat="42.5423813146" lon="1.0389690846">
        <ele>2408.24</ele>
        <time>2019-09-05T12:41:10Z</time>
      </trkpt>
      <trkpt lat="42.5424063765" lon="1.0390147660">
        <ele>2406.80</ele>
        <time>2019-09-05T12:41:22Z</time>
      </trkpt>
      <trkpt lat="42.5424022693" lon="1.0390916280">
        <ele>2405.84</ele>
        <time>2019-09-05T12:41:33Z</time>
      </trkpt>
      <trkpt lat="42.5423917919" lon="1.0391607787">
        <ele>2403.43</ele>
        <time>2019-09-05T12:41:45Z</time>
      </trkpt>
      <trkpt lat="42.5424357969" lon="1.0391934682">
        <ele>2401.03</ele>
        <time>2019-09-05T12:41:56Z</time>
      </trkpt>
      <trkpt lat="42.5424783770" lon="1.0392373893">
        <ele>2400.55</ele>
        <time>2019-09-05T12:42:02Z</time>
      </trkpt>
      <trkpt lat="42.5425460190" lon="1.0392369702">
        <ele>2398.63</ele>
        <time>2019-09-05T12:42:12Z</time>
      </trkpt>
      <trkpt lat="42.5425890181" lon="1.0392150097">
        <ele>2397.18</ele>
        <time>2019-09-05T12:42:21Z</time>
      </trkpt>
      <trkpt lat="42.5426158402" lon="1.0392489564">
        <ele>2394.78</ele>
        <time>2019-09-05T12:42:33Z</time>
      </trkpt>
      <trkpt lat="42.5426440872" lon="1.0392479505">
        <ele>2393.34</ele>
        <time>2019-09-05T12:42:44Z</time>
      </trkpt>
      <trkpt lat="42.5426550675" lon="1.0392345395">
        <ele>2391.90</ele>
        <time>2019-09-05T12:42:53Z</time>
      </trkpt>
      <trkpt lat="42.5426797941" lon="1.0392901115">
        <ele>2389.97</ele>
        <time>2019-09-05T12:43:06Z</time>
      </trkpt>
      <trkpt lat="42.5427079573" lon="1.0392572545">
        <ele>2388.53</ele>
        <time>2019-09-05T12:43:15Z</time>
      </trkpt>
      <trkpt lat="42.5427521300" lon="1.0392899439">
        <ele>2386.61</ele>
        <time>2019-09-05T12:43:27Z</time>
      </trkpt>
      <trkpt lat="42.5427556504" lon="1.0393051989">
        <ele>2385.17</ele>
        <time>2019-09-05T12:43:39Z</time>
      </trkpt>
      <trkpt lat="42.5427735876" lon="1.0393082164">
        <ele>2384.21</ele>
        <time>2019-09-05T12:43:53Z</time>
      </trkpt>
      <trkpt lat="42.5428013317" lon="1.0393199511">
        <ele>2382.76</ele>
        <time>2019-09-05T12:44:04Z</time>
      </trkpt>
      <trkpt lat="42.5428152457" lon="1.0393290035">
        <ele>2381.32</ele>
        <time>2019-09-05T12:44:15Z</time>
      </trkpt>
      <trkpt lat="42.5428488571" lon="1.0393611062">
        <ele>2379.88</ele>
        <time>2019-09-05T12:44:27Z</time>
      </trkpt>
      <trkpt lat="42.5428689737" lon="1.0393338650">
        <ele>2379.40</ele>
        <time>2019-09-05T12:44:38Z</time>
      </trkpt>
      <trkpt lat="42.5429082848" lon="1.0393233038">
        <ele>2379.40</ele>
        <time>2019-09-05T12:44:48Z</time>
      </trkpt>
      <trkpt lat="42.5429358613" lon="1.0393171012">
        <ele>2377.96</ele>
        <time>2019-09-05T12:44:58Z</time>
      </trkpt>
      <trkpt lat="42.5429264735" lon="1.0393984057">
        <ele>2376.04</ele>
        <time>2019-09-05T12:45:08Z</time>
      </trkpt>
      <trkpt lat="42.5429325085" lon="1.0394354537">
        <ele>2374.59</ele>
        <time>2019-09-05T12:45:17Z</time>
      </trkpt>
      <trkpt lat="42.5428955443" lon="1.0394814704">
        <ele>2373.15</ele>
        <time>2019-09-05T12:45:27Z</time>
      </trkpt>
      <trkpt lat="42.5429016631" lon="1.0395292472">
        <ele>2371.71</ele>
        <time>2019-09-05T12:45:37Z</time>
      </trkpt>
      <trkpt lat="42.5428777747" lon="1.0395847354">
        <ele>2369.79</ele>
        <time>2019-09-05T12:45:47Z</time>
      </trkpt>
      <trkpt lat="42.5428657047" lon="1.0396190174">
        <ele>2368.83</ele>
        <time>2019-09-05T12:45:56Z</time>
      </trkpt>
      <trkpt lat="42.5428256392" lon="1.0396444146">
        <ele>2367.38</ele>
        <time>2019-09-05T12:46:08Z</time>
      </trkpt>
      <trkpt lat="42.5427750964" lon="1.0396766849">
        <ele>2365.94</ele>
        <time>2019-09-05T12:46:18Z</time>
      </trkpt>
      <trkpt lat="42.5427196920" lon="1.0397288203">
        <ele>2364.02</ele>
        <time>2019-09-05T12:46:31Z</time>
      </trkpt>
      <trkpt lat="42.5427114777" lon="1.0397468414">
        <ele>2363.54</ele>
        <time>2019-09-05T12:46:33Z</time>
      </trkpt>
      <trkpt lat="42.5426511280" lon="1.0398523696">
        <ele>2362.58</ele>
        <time>2019-09-05T12:46:45Z</time>
      </trkpt>
      <trkpt lat="42.5426433329" lon="1.0398549680">
        <ele>2363.06</ele>
        <time>2019-09-05T12:46:46Z</time>
      </trkpt>
      <trkpt lat="42.5425937120" lon="1.0399047565">
        <ele>2363.06</ele>
        <time>2019-09-05T12:46:55Z</time>
      </trkpt>
      <trkpt lat="42.5425449293" lon="1.0398852266">
        <ele>2363.54</ele>
        <time>2019-09-05T12:47:04Z</time>
      </trkpt>
      <trkpt lat="42.5425126590" lon="1.0398941115">
        <ele>2362.58</ele>
        <time>2019-09-05T12:47:15Z</time>
      </trkpt>
      <trkpt lat="42.5424692407" lon="1.0399568081">
        <ele>2360.17</ele>
        <time>2019-09-05T12:47:25Z</time>
      </trkpt>
      <trkpt lat="42.5424176082" lon="1.0400194209">
        <ele>2358.73</ele>
        <time>2019-09-05T12:47:37Z</time>
      </trkpt>
      <trkpt lat="42.5423624553" lon="1.0400769208">
        <ele>2357.29</ele>
        <time>2019-09-05T12:47:47Z</time>
      </trkpt>
      <trkpt lat="42.5423475355" lon="1.0400867276">
        <ele>2357.29</ele>
        <time>2019-09-05T12:47:49Z</time>
      </trkpt>
      <trkpt lat="42.5423051231" lon="1.0401508491">
        <ele>2355.85</ele>
        <time>2019-09-05T12:48:01Z</time>
      </trkpt>
      <trkpt lat="42.5423176959" lon="1.0401770007">
        <ele>2355.37</ele>
        <time>2019-09-05T12:48:11Z</time>
      </trkpt>
      <trkpt lat="42.5423135050" lon="1.0402169824">
        <ele>2352.96</ele>
        <time>2019-09-05T12:48:22Z</time>
      </trkpt>
      <trkpt lat="42.5423146784" lon="1.0402543657">
        <ele>2352.00</ele>
        <time>2019-09-05T12:48:34Z</time>
      </trkpt>
      <trkpt lat="42.5423158519" lon="1.0403252766">
        <ele>2349.60</ele>
        <time>2019-09-05T12:48:46Z</time>
      </trkpt>
      <trkpt lat="42.5423145946" lon="1.0403486621">
        <ele>2347.68</ele>
        <time>2019-09-05T12:48:56Z</time>
      </trkpt>
      <trkpt lat="42.5423060451" lon="1.0403919965">
        <ele>2346.23</ele>
        <time>2019-09-05T12:49:06Z</time>
      </trkpt>
      <trkpt lat="42.5422893651" lon="1.0404181480">
        <ele>2345.75</ele>
        <time>2019-09-05T12:49:09Z</time>
      </trkpt>
      <trkpt lat="42.5422993395" lon="1.0404748097">
        <ele>2344.79</ele>
        <time>2019-09-05T12:49:13Z</time>
      </trkpt>
      <trkpt lat="42.5423365552" lon="1.0406770650">
        <ele>2344.31</ele>
        <time>2019-09-05T12:49:28Z</time>
      </trkpt>
      <trkpt lat="42.5423736870" lon="1.0408755485">
        <ele>2344.31</ele>
        <time>2019-09-05T12:49:42Z</time>
      </trkpt>
      <trkpt lat="42.5423764531" lon="1.0409017839">
        <ele>2344.31</ele>
        <time>2019-09-05T12:49:54Z</time>
      </trkpt>
      <trkpt lat="42.5423795544" lon="1.0409619659">
        <ele>2344.31</ele>
        <time>2019-09-05T12:50:08Z</time>
      </trkpt>
      <trkpt lat="42.5424104836" lon="1.0410709307">
        <ele>2344.79</ele>
        <time>2019-09-05T12:50:18Z</time>
      </trkpt>
      <trkpt lat="42.5424504653" lon="1.0410638899">
        <ele>2344.79</ele>
        <time>2019-09-05T12:50:23Z</time>
      </trkpt>
      <trkpt lat="42.5425394811" lon="1.0410236567">
        <ele>2344.79</ele>
        <time>2019-09-05T12:50:34Z</time>
      </trkpt>
      <trkpt lat="42.5425788760" lon="1.0409823339">
        <ele>2344.79</ele>
        <time>2019-09-05T12:50:40Z</time>
      </trkpt>
      <trkpt lat="42.5426136609" lon="1.0410336312">
        <ele>2344.79</ele>
        <time>2019-09-05T12:50:50Z</time>
      </trkpt>
      <trkpt lat="42.5425668061" lon="1.0411201324">
        <ele>2346.72</ele>
        <time>2019-09-05T12:51:00Z</time>
      </trkpt>
      <trkpt lat="42.5425208732" lon="1.0411981679">
        <ele>2347.20</ele>
        <time>2019-09-05T12:51:10Z</time>
      </trkpt>
      <trkpt lat="42.5425295066" lon="1.0412623733">
        <ele>2345.75</ele>
        <time>2019-09-05T12:51:20Z</time>
      </trkpt>
      <trkpt lat="42.5425211247" lon="1.0413733497">
        <ele>2345.27</ele>
        <time>2019-09-05T12:51:31Z</time>
      </trkpt>
      <trkpt lat="42.5425155088" lon="1.0414223839">
        <ele>2345.27</ele>
        <time>2019-09-05T12:51:35Z</time>
      </trkpt>
      <trkpt lat="42.5424638763" lon="1.0415343661">
        <ele>2344.79</ele>
        <time>2019-09-05T12:51:46Z</time>
      </trkpt>
      <trkpt lat="42.5424935482" lon="1.0415939614">
        <ele>2344.79</ele>
        <time>2019-09-05T12:51:55Z</time>
      </trkpt>
      <trkpt lat="42.5425309315" lon="1.0416041035">
        <ele>2344.31</ele>
        <time>2019-09-05T12:51:59Z</time>
      </trkpt>
      <trkpt lat="42.5426769443" lon="1.0416932032">
        <ele>2344.79</ele>
        <time>2019-09-05T12:52:13Z</time>
      </trkpt>
      <trkpt lat="42.5428232923" lon="1.0418408085">
        <ele>2345.75</ele>
        <time>2019-09-05T12:52:29Z</time>
      </trkpt>
      <trkpt lat="42.5428976398" lon="1.0419733264">
        <ele>2346.72</ele>
        <time>2019-09-05T12:52:43Z</time>
      </trkpt>
      <trkpt lat="42.5429603364" lon="1.0419936106">
        <ele>2348.64</ele>
        <time>2019-09-05T12:52:56Z</time>
      </trkpt>
      <trkpt lat="42.5429462548" lon="1.0420508590">
        <ele>2350.08</ele>
        <time>2019-09-05T12:53:05Z</time>
      </trkpt>
      <trkpt lat="42.5429433212" lon="1.0421093646">
        <ele>2352.00</ele>
        <time>2019-09-05T12:53:15Z</time>
      </trkpt>
      <trkpt lat="42.5429144874" lon="1.0421703849">
        <ele>2353.93</ele>
        <time>2019-09-05T12:53:28Z</time>
      </trkpt>
      <trkpt lat="42.5429059379" lon="1.0422264598">
        <ele>2355.37</ele>
        <time>2019-09-05T12:53:39Z</time>
      </trkpt>
      <trkpt lat="42.5429136492" lon="1.0422651004">
        <ele>2355.85</ele>
        <time>2019-09-05T12:53:50Z</time>
      </trkpt>
      <trkpt lat="42.5429336820" lon="1.0422953591">
        <ele>2358.25</ele>
        <time>2019-09-05T12:54:00Z</time>
      </trkpt>
      <trkpt lat="42.5429206900" lon="1.0423303116">
        <ele>2359.69</ele>
        <time>2019-09-05T12:54:14Z</time>
      </trkpt>
      <trkpt lat="42.5429433212" lon="1.0423629172">
        <ele>2361.62</ele>
        <time>2019-09-05T12:54:26Z</time>
      </trkpt>
      <trkpt lat="42.5429525413" lon="1.0423977021">
        <ele>2363.06</ele>
        <time>2019-09-05T12:54:38Z</time>
      </trkpt>
      <trkpt lat="42.5429832190" lon="1.0424356721">
        <ele>2364.50</ele>
        <time>2019-09-05T12:54:49Z</time>
      </trkpt>
      <trkpt lat="42.5430169981" lon="1.0424950998">
        <ele>2365.94</ele>
        <time>2019-09-05T12:55:02Z</time>
      </trkpt>
      <trkpt lat="42.5430400483" lon="1.0425755661">
        <ele>2366.90</ele>
        <time>2019-09-05T12:55:12Z</time>
      </trkpt>
      <trkpt lat="42.5430400483" lon="1.0426732991">
        <ele>2365.94</ele>
        <time>2019-09-05T12:55:24Z</time>
      </trkpt>
      <trkpt lat="42.5430533756" lon="1.0427577049">
        <ele>2364.50</ele>
        <time>2019-09-05T12:55:33Z</time>
      </trkpt>
      <trkpt lat="42.5430225302" lon="1.0427930765">
        <ele>2362.58</ele>
        <time>2019-09-05T12:55:43Z</time>
      </trkpt>
      <trkpt lat="42.5429952051" lon="1.0428906418">
        <ele>2360.17</ele>
        <time>2019-09-05T12:55:54Z</time>
      </trkpt>
      <trkpt lat="42.5429911818" lon="1.0429152008">
        <ele>2359.69</ele>
        <time>2019-09-05T12:55:56Z</time>
      </trkpt>
      <trkpt lat="42.5430170819" lon="1.0430542566">
        <ele>2360.17</ele>
        <time>2019-09-05T12:56:08Z</time>
      </trkpt>
      <trkpt lat="42.5430744980" lon="1.0431140196">
        <ele>2359.21</ele>
        <time>2019-09-05T12:56:21Z</time>
      </trkpt>
      <trkpt lat="42.5430862326" lon="1.0431697592">
        <ele>2356.81</ele>
        <time>2019-09-05T12:56:32Z</time>
      </trkpt>
      <trkpt lat="42.5430831313" lon="1.0432545841">
        <ele>2353.93</ele>
        <time>2019-09-05T12:56:45Z</time>
      </trkpt>
      <trkpt lat="42.5430466700" lon="1.0433282610">
        <ele>2351.04</ele>
        <time>2019-09-05T12:56:56Z</time>
      </trkpt>
      <trkpt lat="42.5430651940" lon="1.0433934722">
        <ele>2348.64</ele>
        <time>2019-09-05T12:57:08Z</time>
      </trkpt>
      <trkpt lat="42.5430529565" lon="1.0434518103">
        <ele>2346.23</ele>
        <time>2019-09-05T12:57:18Z</time>
      </trkpt>
      <trkpt lat="42.5430927705" lon="1.0434930492">
        <ele>2343.35</ele>
        <time>2019-09-05T12:57:29Z</time>
      </trkpt>
      <trkpt lat="42.5431115460" lon="1.0435332824">
        <ele>2342.39</ele>
        <time>2019-09-05T12:57:40Z</time>
      </trkpt>
      <trkpt lat="42.5431282260" lon="1.0435592663">
        <ele>2341.91</ele>
        <time>2019-09-05T12:57:46Z</time>
      </trkpt>
      <trkpt lat="42.5431827083" lon="1.0436108150">
        <ele>2340.95</ele>
        <time>2019-09-05T12:57:54Z</time>
      </trkpt>
      <trkpt lat="42.5432507694" lon="1.0436194483">
        <ele>2340.47</ele>
        <time>2019-09-05T12:58:02Z</time>
      </trkpt>
      <trkpt lat="42.5434013922" lon="1.0436269920">
        <ele>2338.54</ele>
        <time>2019-09-05T12:58:17Z</time>
      </trkpt>
      <trkpt lat="42.5435316470" lon="1.0436352901">
        <ele>2337.10</ele>
        <time>2019-09-05T12:58:30Z</time>
      </trkpt>
      <trkpt lat="42.5436462276" lon="1.0436765291">
        <ele>2335.18</ele>
        <time>2019-09-05T12:58:43Z</time>
      </trkpt>
      <trkpt lat="42.5436867122" lon="1.0436890181">
        <ele>2334.70</ele>
        <time>2019-09-05T12:58:47Z</time>
      </trkpt>
      <trkpt lat="42.5437566172" lon="1.0437010042">
        <ele>2333.74</ele>
        <time>2019-09-05T12:58:55Z</time>
      </trkpt>
      <trkpt lat="42.5437891390" lon="1.0437240545">
        <ele>2332.78</ele>
        <time>2019-09-05T12:58:59Z</time>
      </trkpt>
      <trkpt lat="42.5438949186" lon="1.0437919479">
        <ele>2331.33</ele>
        <time>2019-09-05T12:59:10Z</time>
      </trkpt>
      <trkpt lat="42.5439518318" lon="1.0439089593">
        <ele>2330.37</ele>
        <time>2019-09-05T12:59:21Z</time>
      </trkpt>
      <trkpt lat="42.5439567771" lon="1.0439222865">
        <ele>2330.37</ele>
        <time>2019-09-05T12:59:22Z</time>
      </trkpt>
      <trkpt lat="42.5439675059" lon="1.0439631063">
        <ele>2330.37</ele>
        <time>2019-09-05T12:59:25Z</time>
      </trkpt>
      <trkpt lat="42.5439772289" lon="1.0439769365">
        <ele>2330.37</ele>
        <time>2019-09-05T12:59:26Z</time>
      </trkpt>
      <trkpt lat="42.5439846050" lon="1.0439890064">
        <ele>2330.37</ele>
        <time>2019-09-05T12:59:27Z</time>
      </trkpt>
      <trkpt lat="42.5440425240" lon="1.0440817103">
        <ele>2329.41</ele>
        <time>2019-09-05T12:59:39Z</time>
      </trkpt>
      <trkpt lat="42.5440519955" lon="1.0440885834">
        <ele>2328.93</ele>
        <time>2019-09-05T12:59:40Z</time>
      </trkpt>
      <trkpt lat="42.5441323780" lon="1.0441525374">
        <ele>2327.01</ele>
        <time>2019-09-05T12:59:53Z</time>
      </trkpt>
      <trkpt lat="42.5441975053" lon="1.0441931058">
        <ele>2326.05</ele>
        <time>2019-09-05T13:00:04Z</time>
      </trkpt>
      <trkpt lat="42.5442800671" lon="1.0441683792">
        <ele>2324.12</ele>
        <time>2019-09-05T13:00:15Z</time>
      </trkpt>
      <trkpt lat="42.5443380699" lon="1.0441386234">
        <ele>2322.20</ele>
        <time>2019-09-05T13:00:26Z</time>
      </trkpt>
      <trkpt lat="42.5443546660" lon="1.0441278107">
        <ele>2322.20</ele>
        <time>2019-09-05T13:00:29Z</time>
      </trkpt>
      <trkpt lat="42.5443841703" lon="1.0441060178">
        <ele>2321.72</ele>
        <time>2019-09-05T13:00:33Z</time>
      </trkpt>
      <trkpt lat="42.5443940610" lon="1.0440994799">
        <ele>2321.24</ele>
        <time>2019-09-05T13:00:34Z</time>
      </trkpt>
      <trkpt lat="42.5445253216" lon="1.0440947860">
        <ele>2319.80</ele>
        <time>2019-09-05T13:00:46Z</time>
      </trkpt>
      <trkpt lat="42.5446083862" lon="1.0441352706">
        <ele>2321.24</ele>
        <time>2019-09-05T13:00:57Z</time>
      </trkpt>
      <trkpt lat="42.5447008386" lon="1.0441361926">
        <ele>2324.12</ele>
        <time>2019-09-05T13:01:10Z</time>
      </trkpt>
      <trkpt lat="42.5447688159" lon="1.0441401321">
        <ele>2325.57</ele>
        <time>2019-09-05T13:01:22Z</time>
      </trkpt>
      <trkpt lat="42.5448336080" lon="1.0441322532">
        <ele>2327.01</ele>
        <time>2019-09-05T13:01:34Z</time>
      </trkpt>
      <trkpt lat="42.5449099671" lon="1.0441537946">
        <ele>2327.49</ele>
        <time>2019-09-05T13:01:42Z</time>
      </trkpt>
      <trkpt lat="42.5449522957" lon="1.0441729054">
        <ele>2327.49</ele>
        <time>2019-09-05T13:01:46Z</time>
      </trkpt>
      <trkpt lat="42.5450142380" lon="1.0441978835">
        <ele>2327.49</ele>
        <time>2019-09-05T13:01:53Z</time>
      </trkpt>
      <trkpt lat="42.5450855680" lon="1.0441727377">
        <ele>2326.53</ele>
        <time>2019-09-05T13:02:04Z</time>
      </trkpt>
      <trkpt lat="42.5451701414" lon="1.0441667028">
        <ele>2323.64</ele>
        <time>2019-09-05T13:02:18Z</time>
      </trkpt>
      <trkpt lat="42.5451944489" lon="1.0441682115">
        <ele>2322.68</ele>
        <time>2019-09-05T13:02:21Z</time>
      </trkpt>
      <trkpt lat="42.5452048425" lon="1.0441698041">
        <ele>2322.20</ele>
        <time>2019-09-05T13:02:22Z</time>
      </trkpt>
      <trkpt lat="42.5453215186" lon="1.0441431496">
        <ele>2321.72</ele>
        <time>2019-09-05T13:02:35Z</time>
      </trkpt>
      <trkpt lat="42.5453920942" lon="1.0441025812">
        <ele>2322.20</ele>
        <time>2019-09-05T13:02:45Z</time>
      </trkpt>
      <trkpt lat="42.5454901624" lon="1.0440568998">
        <ele>2321.72</ele>
        <time>2019-09-05T13:02:58Z</time>
      </trkpt>
      <trkpt lat="42.5455759931" lon="1.0440632701">
        <ele>2321.72</ele>
        <time>2019-09-05T13:03:10Z</time>
      </trkpt>
      <trkpt lat="42.5456059165" lon="1.0440843087">
        <ele>2321.24</ele>
        <time>2019-09-05T13:03:15Z</time>
      </trkpt>
      <trkpt lat="42.5456059165" lon="1.0440843087">
        <ele>2325.57</ele>
        <time>2019-09-05T13:17:20Z</time>
      </trkpt>
      <trkpt lat="42.5456059165" lon="1.0440843087">
        <ele>2325.57</ele>
        <time>2019-09-05T13:17:21Z</time>
      </trkpt>
      <trkpt lat="42.5456059165" lon="1.0440843087">
        <ele>2325.57</ele>
        <time>2019-09-05T13:17:22Z</time>
      </trkpt>
      <trkpt lat="42.5456059165" lon="1.0440843087">
        <ele>2325.57</ele>
        <time>2019-09-05T13:17:23Z</time>
      </trkpt>
      <trkpt lat="42.5456059165" lon="1.0440843087">
        <ele>2325.57</ele>
        <time>2019-09-05T13:17:24Z</time>
      </trkpt>
      <trkpt lat="42.5456059165" lon="1.0440843087">
        <ele>2325.57</ele>
        <time>2019-09-05T13:17:25Z</time>
      </trkpt>
      <trkpt lat="42.5456059165" lon="1.0440843087">
        <ele>2325.57</ele>
        <time>2019-09-05T13:17:26Z</time>
      </trkpt>
      <trkpt lat="42.5456059165" lon="1.0440843087">
        <ele>2325.57</ele>
        <time>2019-09-05T13:17:27Z</time>
      </trkpt>
      <trkpt lat="42.5456059165" lon="1.0440843087">
        <ele>2325.57</ele>
        <time>2019-09-05T13:17:28Z</time>
      </trkpt>
      <trkpt lat="42.5456059165" lon="1.0440843087">
        <ele>2325.57</ele>
        <time>2019-09-05T13:17:29Z</time>
      </trkpt>
      <trkpt lat="42.5456059165" lon="1.0440843087">
        <ele>2325.57</ele>
        <time>2019-09-05T13:17:30Z</time>
      </trkpt>
      <trkpt lat="42.5456059165" lon="1.0440843087">
        <ele>2325.57</ele>
        <time>2019-09-05T13:17:31Z</time>
      </trkpt>
      <trkpt lat="42.5456059165" lon="1.0440843087">
        <ele>2325.57</ele>
        <time>2019-09-05T13:17:32Z</time>
      </trkpt>
      <trkpt lat="42.5456059165" lon="1.0440843087">
        <ele>2325.57</ele>
        <time>2019-09-05T13:17:33Z</time>
      </trkpt>
      <trkpt lat="42.5456059165" lon="1.0440843087">
        <ele>2325.57</ele>
        <time>2019-09-05T13:17:34Z</time>
      </trkpt>
      <trkpt lat="42.5456059165" lon="1.0440843087">
        <ele>2325.57</ele>
        <time>2019-09-05T13:17:35Z</time>
      </trkpt>
      <trkpt lat="42.5456059165" lon="1.0440843087">
        <ele>2325.57</ele>
        <time>2019-09-05T13:17:36Z</time>
      </trkpt>
      <trkpt lat="42.5456059165" lon="1.0440843087">
        <ele>2325.57</ele>
        <time>2019-09-05T13:17:37Z</time>
      </trkpt>
      <trkpt lat="42.5456059165" lon="1.0440843087">
        <ele>2325.57</ele>
        <time>2019-09-05T13:17:38Z</time>
      </trkpt>
      <trkpt lat="42.5456059165" lon="1.0440843087">
        <ele>2325.57</ele>
        <time>2019-09-05T13:17:39Z</time>
      </trkpt>
      <trkpt lat="42.5456059165" lon="1.0440843087">
        <ele>2325.57</ele>
        <time>2019-09-05T13:17:40Z</time>
      </trkpt>
      <trkpt lat="42.5456059165" lon="1.0440843087">
        <ele>2325.57</ele>
        <time>2019-09-05T13:17:41Z</time>
      </trkpt>
      <trkpt lat="42.5456059165" lon="1.0440843087">
        <ele>2325.57</ele>
        <time>2019-09-05T13:17:42Z</time>
      </trkpt>
      <trkpt lat="42.5456059165" lon="1.0440843087">
        <ele>2325.57</ele>
        <time>2019-09-05T13:17:43Z</time>
      </trkpt>
      <trkpt lat="42.5456059165" lon="1.0440843087">
        <ele>2325.57</ele>
        <time>2019-09-05T13:17:44Z</time>
      </trkpt>
      <trkpt lat="42.5456059165" lon="1.0440843087">
        <ele>2325.57</ele>
        <time>2019-09-05T13:17:45Z</time>
      </trkpt>
      <trkpt lat="42.5456059165" lon="1.0440843087">
        <ele>2325.57</ele>
        <time>2019-09-05T13:17:46Z</time>
      </trkpt>
      <trkpt lat="42.5456059165" lon="1.0440843087">
        <ele>2325.57</ele>
        <time>2019-09-05T13:17:47Z</time>
      </trkpt>
      <trkpt lat="42.5456059165" lon="1.0440843087">
        <ele>2325.57</ele>
        <time>2019-09-05T13:17:48Z</time>
      </trkpt>
      <trkpt lat="42.5456059165" lon="1.0440843087">
        <ele>2325.57</ele>
        <time>2019-09-05T13:17:49Z</time>
      </trkpt>
      <trkpt lat="42.5456059165" lon="1.0440843087">
        <ele>2325.57</ele>
        <time>2019-09-05T13:17:50Z</time>
      </trkpt>
      <trkpt lat="42.5456059165" lon="1.0440843087">
        <ele>2325.57</ele>
        <time>2019-09-05T13:17:51Z</time>
      </trkpt>
      <trkpt lat="42.5456059165" lon="1.0440843087">
        <ele>2325.57</ele>
        <time>2019-09-05T13:17:52Z</time>
      </trkpt>
      <trkpt lat="42.5456059165" lon="1.0440843087">
        <ele>2325.57</ele>
        <time>2019-09-05T13:17:53Z</time>
      </trkpt>
      <trkpt lat="42.5456059165" lon="1.0440843087">
        <ele>2325.57</ele>
        <time>2019-09-05T13:17:54Z</time>
      </trkpt>
      <trkpt lat="42.5456059165" lon="1.0440843087">
        <ele>2325.57</ele>
        <time>2019-09-05T13:17:55Z</time>
      </trkpt>
      <trkpt lat="42.5456059165" lon="1.0440843087">
        <ele>2325.57</ele>
        <time>2019-09-05T13:17:56Z</time>
      </trkpt>
      <trkpt lat="42.5456059165" lon="1.0440843087">
        <ele>2325.57</ele>
        <time>2019-09-05T13:17:57Z</time>
      </trkpt>
      <trkpt lat="42.5456059165" lon="1.0440843087">
        <ele>2325.57</ele>
        <time>2019-09-05T13:17:58Z</time>
      </trkpt>
      <trkpt lat="42.5456059165" lon="1.0440843087">
        <ele>2325.57</ele>
        <time>2019-09-05T13:17:59Z</time>
      </trkpt>
      <trkpt lat="42.5456059165" lon="1.0440843087">
        <ele>2325.57</ele>
        <time>2019-09-05T13:18:00Z</time>
      </trkpt>
      <trkpt lat="42.5456059165" lon="1.0440843087">
        <ele>2325.57</ele>
        <time>2019-09-05T13:18:01Z</time>
      </trkpt>
      <trkpt lat="42.5456059165" lon="1.0440843087">
        <ele>2325.57</ele>
        <time>2019-09-05T13:18:02Z</time>
      </trkpt>
      <trkpt lat="42.5456059165" lon="1.0440843087">
        <ele>2325.57</ele>
        <time>2019-09-05T13:18:03Z</time>
      </trkpt>
      <trkpt lat="42.5456059165" lon="1.0440843087">
        <ele>2325.57</ele>
        <time>2019-09-05T13:18:04Z</time>
      </trkpt>
      <trkpt lat="42.5456059165" lon="1.0440843087">
        <ele>2325.57</ele>
        <time>2019-09-05T13:18:05Z</time>
      </trkpt>
      <trkpt lat="42.5456059165" lon="1.0440843087">
        <ele>2325.57</ele>
        <time>2019-09-05T13:18:06Z</time>
      </trkpt>
      <trkpt lat="42.5456059165" lon="1.0440843087">
        <ele>2325.57</ele>
        <time>2019-09-05T13:18:07Z</time>
      </trkpt>
      <trkpt lat="42.5456059165" lon="1.0440843087">
        <ele>2325.57</ele>
        <time>2019-09-05T13:18:08Z</time>
      </trkpt>
      <trkpt lat="42.5456059165" lon="1.0440843087">
        <ele>2325.57</ele>
        <time>2019-09-05T13:18:09Z</time>
      </trkpt>
      <trkpt lat="42.5456059165" lon="1.0440843087">
        <ele>2325.57</ele>
        <time>2019-09-05T13:18:10Z</time>
      </trkpt>
      <trkpt lat="42.5456059165" lon="1.0440843087">
        <ele>2325.57</ele>
        <time>2019-09-05T13:18:11Z</time>
      </trkpt>
      <trkpt lat="42.5456059165" lon="1.0440843087">
        <ele>2325.57</ele>
        <time>2019-09-05T13:18:12Z</time>
      </trkpt>
      <trkpt lat="42.5456059165" lon="1.0440843087">
        <ele>2325.57</ele>
        <time>2019-09-05T13:18:13Z</time>
      </trkpt>
      <trkpt lat="42.5456059165" lon="1.0440843087">
        <ele>2325.57</ele>
        <time>2019-09-05T13:18:14Z</time>
      </trkpt>
      <trkpt lat="42.5456059165" lon="1.0440843087">
        <ele>2325.57</ele>
        <time>2019-09-05T13:18:15Z</time>
      </trkpt>
      <trkpt lat="42.5456059165" lon="1.0440843087">
        <ele>2325.57</ele>
        <time>2019-09-05T13:18:16Z</time>
      </trkpt>
      <trkpt lat="42.5456059165" lon="1.0440843087">
        <ele>2325.57</ele>
        <time>2019-09-05T13:18:17Z</time>
      </trkpt>
      <trkpt lat="42.5456059165" lon="1.0440843087">
        <ele>2325.57</ele>
        <time>2019-09-05T13:18:18Z</time>
      </trkpt>
      <trkpt lat="42.5456059165" lon="1.0440843087">
        <ele>2325.57</ele>
        <time>2019-09-05T13:18:19Z</time>
      </trkpt>
      <trkpt lat="42.5456059165" lon="1.0440843087">
        <ele>2325.57</ele>
        <time>2019-09-05T13:18:20Z</time>
      </trkpt>
      <trkpt lat="42.5456059165" lon="1.0440843087">
        <ele>2325.57</ele>
        <time>2019-09-05T13:18:21Z</time>
      </trkpt>
      <trkpt lat="42.5456059165" lon="1.0440843087">
        <ele>2325.57</ele>
        <time>2019-09-05T13:18:22Z</time>
      </trkpt>
      <trkpt lat="42.5456059165" lon="1.0440843087">
        <ele>2325.57</ele>
        <time>2019-09-05T13:18:23Z</time>
      </trkpt>
      <trkpt lat="42.5456059165" lon="1.0440843087">
        <ele>2325.57</ele>
        <time>2019-09-05T13:18:24Z</time>
      </trkpt>
      <trkpt lat="42.5456059165" lon="1.0440843087">
        <ele>2325.57</ele>
        <time>2019-09-05T13:18:25Z</time>
      </trkpt>
      <trkpt lat="42.5456059165" lon="1.0440843087">
        <ele>2325.57</ele>
        <time>2019-09-05T13:18:26Z</time>
      </trkpt>
      <trkpt lat="42.5456059165" lon="1.0440843087">
        <ele>2325.57</ele>
        <time>2019-09-05T13:18:27Z</time>
      </trkpt>
      <trkpt lat="42.5456059165" lon="1.0440843087">
        <ele>2325.57</ele>
        <time>2019-09-05T13:18:28Z</time>
      </trkpt>
      <trkpt lat="42.5456059165" lon="1.0440843087">
        <ele>2325.57</ele>
        <time>2019-09-05T13:18:29Z</time>
      </trkpt>
      <trkpt lat="42.5456059165" lon="1.0440843087">
        <ele>2325.57</ele>
        <time>2019-09-05T13:18:30Z</time>
      </trkpt>
      <trkpt lat="42.5456059165" lon="1.0440843087">
        <ele>2325.57</ele>
        <time>2019-09-05T13:18:31Z</time>
      </trkpt>
      <trkpt lat="42.5456059165" lon="1.0440843087">
        <ele>2325.57</ele>
        <time>2019-09-05T13:18:32Z</time>
      </trkpt>
      <trkpt lat="42.5456059165" lon="1.0440843087">
        <ele>2325.57</ele>
        <time>2019-09-05T13:18:33Z</time>
      </trkpt>
      <trkpt lat="42.5456059165" lon="1.0440843087">
        <ele>2325.57</ele>
        <time>2019-09-05T13:18:34Z</time>
      </trkpt>
      <trkpt lat="42.5456059165" lon="1.0440843087">
        <ele>2325.57</ele>
        <time>2019-09-05T13:18:35Z</time>
      </trkpt>
      <trkpt lat="42.5456059165" lon="1.0440843087">
        <ele>2325.57</ele>
        <time>2019-09-05T13:18:36Z</time>
      </trkpt>
      <trkpt lat="42.5456059165" lon="1.0440843087">
        <ele>2325.57</ele>
        <time>2019-09-05T13:18:37Z</time>
      </trkpt>
      <trkpt lat="42.5456059165" lon="1.0440843087">
        <ele>2325.57</ele>
        <time>2019-09-05T13:18:38Z</time>
      </trkpt>
      <trkpt lat="42.5456059165" lon="1.0440843087">
        <ele>2325.57</ele>
        <time>2019-09-05T13:18:39Z</time>
      </trkpt>
      <trkpt lat="42.5456059165" lon="1.0440843087">
        <ele>2325.57</ele>
        <time>2019-09-05T13:18:40Z</time>
      </trkpt>
      <trkpt lat="42.5456059165" lon="1.0440843087">
        <ele>2321.24</ele>
        <time>2019-09-05T14:24:30Z</time>
      </trkpt>
      <trkpt lat="42.5456059165" lon="1.0440843087">
        <ele>2321.24</ele>
        <time>2019-09-05T14:24:31Z</time>
      </trkpt>
      <trkpt lat="42.5456059165" lon="1.0440843087">
        <ele>2321.24</ele>
        <time>2019-09-05T14:24:32Z</time>
      </trkpt>
      <trkpt lat="42.5456059165" lon="1.0440843087">
        <ele>2321.24</ele>
        <time>2019-09-05T14:24:33Z</time>
      </trkpt>
      <trkpt lat="42.5456059165" lon="1.0440843087">
        <ele>2321.24</ele>
        <time>2019-09-05T14:24:34Z</time>
      </trkpt>
      <trkpt lat="42.5456059165" lon="1.0440843087">
        <ele>2321.24</ele>
        <time>2019-09-05T14:24:35Z</time>
      </trkpt>
      <trkpt lat="42.5456059165" lon="1.0440843087">
        <ele>2321.24</ele>
        <time>2019-09-05T14:24:36Z</time>
      </trkpt>
      <trkpt lat="42.5456059165" lon="1.0440843087">
        <ele>2321.24</ele>
        <time>2019-09-05T14:24:37Z</time>
      </trkpt>
      <trkpt lat="42.5456059165" lon="1.0440843087">
        <ele>2321.24</ele>
        <time>2019-09-05T14:24:38Z</time>
      </trkpt>
      <trkpt lat="42.5456059165" lon="1.0440843087">
        <ele>2321.24</ele>
        <time>2019-09-05T14:24:39Z</time>
      </trkpt>
      <trkpt lat="42.5456059165" lon="1.0440843087">
        <ele>2321.24</ele>
        <time>2019-09-05T14:24:40Z</time>
      </trkpt>
      <trkpt lat="42.5456059165" lon="1.0440843087">
        <ele>2321.24</ele>
        <time>2019-09-05T14:24:41Z</time>
      </trkpt>
      <trkpt lat="42.5456059165" lon="1.0440843087">
        <ele>2321.24</ele>
        <time>2019-09-05T14:24:42Z</time>
      </trkpt>
      <trkpt lat="42.5456059165" lon="1.0440843087">
        <ele>2321.24</ele>
        <time>2019-09-05T14:24:43Z</time>
      </trkpt>
      <trkpt lat="42.5456059165" lon="1.0440843087">
        <ele>2321.24</ele>
        <time>2019-09-05T14:24:44Z</time>
      </trkpt>
      <trkpt lat="42.5456059165" lon="1.0440843087">
        <ele>2321.24</ele>
        <time>2019-09-05T14:24:45Z</time>
      </trkpt>
      <trkpt lat="42.5456059165" lon="1.0440843087">
        <ele>2321.24</ele>
        <time>2019-09-05T14:24:46Z</time>
      </trkpt>
      <trkpt lat="42.5456059165" lon="1.0440843087">
        <ele>2321.24</ele>
        <time>2019-09-05T14:24:47Z</time>
      </trkpt>
      <trkpt lat="42.5456059165" lon="1.0440843087">
        <ele>2321.24</ele>
        <time>2019-09-05T14:24:48Z</time>
      </trkpt>
      <trkpt lat="42.5456059165" lon="1.0440843087">
        <ele>2321.24</ele>
        <time>2019-09-05T14:24:49Z</time>
      </trkpt>
      <trkpt lat="42.5456059165" lon="1.0440843087">
        <ele>2321.24</ele>
        <time>2019-09-05T14:24:50Z</time>
      </trkpt>
      <trkpt lat="42.5456059165" lon="1.0440843087">
        <ele>2321.24</ele>
        <time>2019-09-05T14:24:51Z</time>
      </trkpt>
      <trkpt lat="42.5456059165" lon="1.0440843087">
        <ele>2321.24</ele>
        <time>2019-09-05T14:24:52Z</time>
      </trkpt>
      <trkpt lat="42.5456059165" lon="1.0440843087">
        <ele>2321.24</ele>
        <time>2019-09-05T14:24:53Z</time>
      </trkpt>
      <trkpt lat="42.5456059165" lon="1.0440843087">
        <ele>2321.24</ele>
        <time>2019-09-05T14:24:54Z</time>
      </trkpt>
      <trkpt lat="42.5456059165" lon="1.0440843087">
        <ele>2321.24</ele>
        <time>2019-09-05T14:24:55Z</time>
      </trkpt>
      <trkpt lat="42.5456059165" lon="1.0440843087">
        <ele>2321.24</ele>
        <time>2019-09-05T14:24:56Z</time>
      </trkpt>
      <trkpt lat="42.5456059165" lon="1.0440843087">
        <ele>2321.24</ele>
        <time>2019-09-05T14:24:57Z</time>
      </trkpt>
      <trkpt lat="42.5456059165" lon="1.0440843087">
        <ele>2321.24</ele>
        <time>2019-09-05T14:24:58Z</time>
      </trkpt>
      <trkpt lat="42.5456059165" lon="1.0440843087">
        <ele>2321.24</ele>
        <time>2019-09-05T14:25:00Z</time>
      </trkpt>
      <trkpt lat="42.5456059165" lon="1.0440843087">
        <ele>2321.24</ele>
        <time>2019-09-05T14:25:01Z</time>
      </trkpt>
      <trkpt lat="42.5456059165" lon="1.0440843087">
        <ele>2321.24</ele>
        <time>2019-09-05T14:25:02Z</time>
      </trkpt>
      <trkpt lat="42.5456059165" lon="1.0440843087">
        <ele>2321.24</ele>
        <time>2019-09-05T14:25:03Z</time>
      </trkpt>
      <trkpt lat="42.5456059165" lon="1.0440843087">
        <ele>2321.24</ele>
        <time>2019-09-05T14:25:04Z</time>
      </trkpt>
      <trkpt lat="42.5456059165" lon="1.0440843087">
        <ele>2321.24</ele>
        <time>2019-09-05T14:25:05Z</time>
      </trkpt>
      <trkpt lat="42.5456059165" lon="1.0440843087">
        <ele>2321.24</ele>
        <time>2019-09-05T14:25:06Z</time>
      </trkpt>
      <trkpt lat="42.5456059165" lon="1.0440843087">
        <ele>2321.24</ele>
        <time>2019-09-05T14:25:07Z</time>
      </trkpt>
      <trkpt lat="42.5456059165" lon="1.0440843087">
        <ele>2321.24</ele>
        <time>2019-09-05T14:25:08Z</time>
      </trkpt>
      <trkpt lat="42.5456059165" lon="1.0440843087">
        <ele>2321.24</ele>
        <time>2019-09-05T14:25:09Z</time>
      </trkpt>
      <trkpt lat="42.5456059165" lon="1.0440843087">
        <ele>2321.24</ele>
        <time>2019-09-05T14:25:10Z</time>
      </trkpt>
      <trkpt lat="42.5456059165" lon="1.0440843087">
        <ele>2321.24</ele>
        <time>2019-09-05T14:25:11Z</time>
      </trkpt>
      <trkpt lat="42.5456059165" lon="1.0440843087">
        <ele>2321.24</ele>
        <time>2019-09-05T14:25:12Z</time>
      </trkpt>
      <trkpt lat="42.5456059165" lon="1.0440843087">
        <ele>2321.24</ele>
        <time>2019-09-05T14:25:13Z</time>
      </trkpt>
      <trkpt lat="42.5456059165" lon="1.0440843087">
        <ele>2321.24</ele>
        <time>2019-09-05T14:25:14Z</time>
      </trkpt>
      <trkpt lat="42.5456059165" lon="1.0440843087">
        <ele>2321.24</ele>
        <time>2019-09-05T14:25:15Z</time>
      </trkpt>
      <trkpt lat="42.5456059165" lon="1.0440843087">
        <ele>2321.24</ele>
        <time>2019-09-05T14:25:16Z</time>
      </trkpt>
      <trkpt lat="42.5456059165" lon="1.0440843087">
        <ele>2321.24</ele>
        <time>2019-09-05T14:25:17Z</time>
      </trkpt>
      <trkpt lat="42.5456059165" lon="1.0440843087">
        <ele>2321.24</ele>
        <time>2019-09-05T14:25:18Z</time>
      </trkpt>
      <trkpt lat="42.5456059165" lon="1.0440843087">
        <ele>2321.24</ele>
        <time>2019-09-05T14:25:19Z</time>
      </trkpt>
      <trkpt lat="42.5456059165" lon="1.0440843087">
        <ele>2321.24</ele>
        <time>2019-09-05T14:25:20Z</time>
      </trkpt>
      <trkpt lat="42.5456059165" lon="1.0440843087">
        <ele>2321.24</ele>
        <time>2019-09-05T14:25:21Z</time>
      </trkpt>
      <trkpt lat="42.5456059165" lon="1.0440843087">
        <ele>2321.24</ele>
        <time>2019-09-05T14:25:22Z</time>
      </trkpt>
      <trkpt lat="42.5456059165" lon="1.0440843087">
        <ele>2321.24</ele>
        <time>2019-09-05T14:25:23Z</time>
      </trkpt>
      <trkpt lat="42.5456059165" lon="1.0440843087">
        <ele>2321.24</ele>
        <time>2019-09-05T14:25:24Z</time>
      </trkpt>
      <trkpt lat="42.5456059165" lon="1.0440843087">
        <ele>2321.24</ele>
        <time>2019-09-05T14:25:25Z</time>
      </trkpt>
      <trkpt lat="42.5456059165" lon="1.0440843087">
        <ele>2321.24</ele>
        <time>2019-09-05T14:25:26Z</time>
      </trkpt>
      <trkpt lat="42.5456059165" lon="1.0440843087">
        <ele>2320.76</ele>
        <time>2019-09-05T14:32:59Z</time>
      </trkpt>
      <trkpt lat="42.5454111211" lon="1.0440420639">
        <ele>2320.76</ele>
        <time>2019-09-05T14:33:00Z</time>
      </trkpt>
      <trkpt lat="42.5453190878" lon="1.0440382082">
        <ele>2320.76</ele>
        <time>2019-09-05T14:33:06Z</time>
      </trkpt>
      <trkpt lat="42.5453312416" lon="1.0440134816">
        <ele>2320.76</ele>
        <time>2019-09-05T14:33:25Z</time>
      </trkpt>
      <trkpt lat="42.5453421380" lon="1.0440113861">
        <ele>2320.76</ele>
        <time>2019-09-05T14:33:51Z</time>
      </trkpt>
      <trkpt lat="42.5453422219" lon="1.0439960472">
        <ele>2320.76</ele>
        <time>2019-09-05T14:34:12Z</time>
      </trkpt>
      <trkpt lat="42.5453482568" lon="1.0440139845">
        <ele>2320.76</ele>
        <time>2019-09-05T14:34:41Z</time>
      </trkpt>
      <trkpt lat="42.5453557167" lon="1.0440083686">
        <ele>2320.76</ele>
        <time>2019-09-05T14:35:36Z</time>
      </trkpt>
      <trkpt lat="42.5453580637" lon="1.0440040100">
        <ele>2320.76</ele>
        <time>2019-09-05T14:35:45Z</time>
      </trkpt>
      <trkpt lat="42.5453580637" lon="1.0440040100">
        <ele>2386.13</ele>
        <time>2019-09-05T16:00:56Z</time>
      </trkpt>
      <trkpt lat="42.5453580637" lon="1.0440040100">
        <ele>2386.13</ele>
        <time>2019-09-05T16:00:57Z</time>
      </trkpt>
      <trkpt lat="42.5453580637" lon="1.0440040100">
        <ele>2386.13</ele>
        <time>2019-09-05T16:00:58Z</time>
      </trkpt>
      <trkpt lat="42.5453580637" lon="1.0440040100">
        <ele>2386.13</ele>
        <time>2019-09-05T16:00:59Z</time>
      </trkpt>
      <trkpt lat="42.5453580637" lon="1.0440040100">
        <ele>2386.13</ele>
        <time>2019-09-05T16:01:00Z</time>
      </trkpt>
      <trkpt lat="42.5453580637" lon="1.0440040100">
        <ele>2386.13</ele>
        <time>2019-09-05T16:01:01Z</time>
      </trkpt>
      <trkpt lat="42.5453580637" lon="1.0440040100">
        <ele>2386.13</ele>
        <time>2019-09-05T16:01:02Z</time>
      </trkpt>
      <trkpt lat="42.5453580637" lon="1.0440040100">
        <ele>2386.13</ele>
        <time>2019-09-05T16:01:03Z</time>
      </trkpt>
      <trkpt lat="42.5453580637" lon="1.0440040100">
        <ele>2386.13</ele>
        <time>2019-09-05T16:01:04Z</time>
      </trkpt>
      <trkpt lat="42.5453580637" lon="1.0440040100">
        <ele>2386.13</ele>
        <time>2019-09-05T16:01:05Z</time>
      </trkpt>
      <trkpt lat="42.5453580637" lon="1.0440040100">
        <ele>2386.13</ele>
        <time>2019-09-05T16:01:06Z</time>
      </trkpt>
      <trkpt lat="42.5453580637" lon="1.0440040100">
        <ele>2386.13</ele>
        <time>2019-09-05T16:01:07Z</time>
      </trkpt>
      <trkpt lat="42.5453580637" lon="1.0440040100">
        <ele>2386.13</ele>
        <time>2019-09-05T16:01:08Z</time>
      </trkpt>
      <trkpt lat="42.5453580637" lon="1.0440040100">
        <ele>2386.13</ele>
        <time>2019-09-05T16:01:09Z</time>
      </trkpt>
      <trkpt lat="42.5453580637" lon="1.0440040100">
        <ele>2386.13</ele>
        <time>2019-09-05T16:01:10Z</time>
      </trkpt>
      <trkpt lat="42.5453580637" lon="1.0440040100">
        <ele>2386.13</ele>
        <time>2019-09-05T16:01:11Z</time>
      </trkpt>
      <trkpt lat="42.5453580637" lon="1.0440040100">
        <ele>2386.13</ele>
        <time>2019-09-05T16:01:12Z</time>
      </trkpt>
      <trkpt lat="42.5453580637" lon="1.0440040100">
        <ele>2386.13</ele>
        <time>2019-09-05T16:01:13Z</time>
      </trkpt>
      <trkpt lat="42.5453580637" lon="1.0440040100">
        <ele>2386.13</ele>
        <time>2019-09-05T16:01:14Z</time>
      </trkpt>
      <trkpt lat="42.5453580637" lon="1.0440040100">
        <ele>2386.13</ele>
        <time>2019-09-05T16:01:15Z</time>
      </trkpt>
      <trkpt lat="42.5453580637" lon="1.0440040100">
        <ele>2386.13</ele>
        <time>2019-09-05T16:01:16Z</time>
      </trkpt>
      <trkpt lat="42.5453580637" lon="1.0440040100">
        <ele>2386.13</ele>
        <time>2019-09-05T16:01:17Z</time>
      </trkpt>
      <trkpt lat="42.5453580637" lon="1.0440040100">
        <ele>2386.13</ele>
        <time>2019-09-05T16:01:18Z</time>
      </trkpt>
      <trkpt lat="42.5453580637" lon="1.0440040100">
        <ele>2386.13</ele>
        <time>2019-09-05T16:01:19Z</time>
      </trkpt>
      <trkpt lat="42.5453580637" lon="1.0440040100">
        <ele>2386.13</ele>
        <time>2019-09-05T16:01:20Z</time>
      </trkpt>
      <trkpt lat="42.5453580637" lon="1.0440040100">
        <ele>2386.13</ele>
        <time>2019-09-05T16:01:21Z</time>
      </trkpt>
      <trkpt lat="42.5453580637" lon="1.0440040100">
        <ele>2386.13</ele>
        <time>2019-09-05T16:01:22Z</time>
      </trkpt>
      <trkpt lat="42.5453580637" lon="1.0440040100">
        <ele>2386.13</ele>
        <time>2019-09-05T16:01:23Z</time>
      </trkpt>
      <trkpt lat="42.5453580637" lon="1.0440040100">
        <ele>2386.13</ele>
        <time>2019-09-05T16:01:24Z</time>
      </trkpt>
      <trkpt lat="42.5453580637" lon="1.0440040100">
        <ele>2386.13</ele>
        <time>2019-09-05T16:01:25Z</time>
      </trkpt>
      <trkpt lat="42.5453580637" lon="1.0440040100">
        <ele>2386.13</ele>
        <time>2019-09-05T16:01:26Z</time>
      </trkpt>
      <trkpt lat="42.5453580637" lon="1.0440040100">
        <ele>2386.13</ele>
        <time>2019-09-05T16:01:27Z</time>
      </trkpt>
      <trkpt lat="42.5453580637" lon="1.0440040100">
        <ele>2386.13</ele>
        <time>2019-09-05T16:01:28Z</time>
      </trkpt>
      <trkpt lat="42.5453580637" lon="1.0440040100">
        <ele>2386.13</ele>
        <time>2019-09-05T16:01:29Z</time>
      </trkpt>
      <trkpt lat="42.5453580637" lon="1.0440040100">
        <ele>2386.13</ele>
        <time>2019-09-05T16:01:30Z</time>
      </trkpt>
      <trkpt lat="42.5453580637" lon="1.0440040100">
        <ele>2386.13</ele>
        <time>2019-09-05T16:01:31Z</time>
      </trkpt>
      <trkpt lat="42.5453580637" lon="1.0440040100">
        <ele>2386.13</ele>
        <time>2019-09-05T16:01:32Z</time>
      </trkpt>
      <trkpt lat="42.5453580637" lon="1.0440040100">
        <ele>2386.13</ele>
        <time>2019-09-05T16:01:33Z</time>
      </trkpt>
      <trkpt lat="42.5453580637" lon="1.0440040100">
        <ele>2386.13</ele>
        <time>2019-09-05T16:01:34Z</time>
      </trkpt>
      <trkpt lat="42.5453580637" lon="1.0440040100">
        <ele>2386.13</ele>
        <time>2019-09-05T16:01:35Z</time>
      </trkpt>
      <trkpt lat="42.5453580637" lon="1.0440040100">
        <ele>2386.13</ele>
        <time>2019-09-05T16:01:36Z</time>
      </trkpt>
      <trkpt lat="42.5453580637" lon="1.0440040100">
        <ele>2386.13</ele>
        <time>2019-09-05T16:01:37Z</time>
      </trkpt>
      <trkpt lat="42.5453580637" lon="1.0440040100">
        <ele>2386.13</ele>
        <time>2019-09-05T16:01:38Z</time>
      </trkpt>
      <trkpt lat="42.5453580637" lon="1.0440040100">
        <ele>2386.13</ele>
        <time>2019-09-05T16:01:39Z</time>
      </trkpt>
      <trkpt lat="42.5453580637" lon="1.0440040100">
        <ele>2386.13</ele>
        <time>2019-09-05T16:01:40Z</time>
      </trkpt>
      <trkpt lat="42.5453580637" lon="1.0440040100">
        <ele>2386.13</ele>
        <time>2019-09-05T16:01:42Z</time>
      </trkpt>
      <trkpt lat="42.5453580637" lon="1.0440040100">
        <ele>2386.13</ele>
        <time>2019-09-05T16:01:47Z</time>
      </trkpt>
      <trkpt lat="42.5453580637" lon="1.0440040100">
        <ele>2386.13</ele>
        <time>2019-09-05T16:01:48Z</time>
      </trkpt>
      <trkpt lat="42.5453580637" lon="1.0440040100">
        <ele>2386.13</ele>
        <time>2019-09-05T16:01:49Z</time>
      </trkpt>
      <trkpt lat="42.5453580637" lon="1.0440040100">
        <ele>2386.13</ele>
        <time>2019-09-05T16:01:50Z</time>
      </trkpt>
      <trkpt lat="42.5453580637" lon="1.0440040100">
        <ele>2386.13</ele>
        <time>2019-09-05T16:01:51Z</time>
      </trkpt>
      <trkpt lat="42.5456091017" lon="1.0442547966">
        <ele>2287.11</ele>
        <time>2019-09-06T05:32:57Z</time>
      </trkpt>
      <trkpt lat="42.5456136279" lon="1.0442528687">
        <ele>2287.11</ele>
        <time>2019-09-06T05:32:58Z</time>
      </trkpt>
      <trkpt lat="42.5456011388" lon="1.0442318302">
        <ele>2287.59</ele>
        <time>2019-09-06T05:33:21Z</time>
      </trkpt>
      <trkpt lat="42.5456495862" lon="1.0441045929">
        <ele>2287.59</ele>
        <time>2019-09-06T05:33:42Z</time>
      </trkpt>
      <trkpt lat="42.5456873886" lon="1.0440409742">
        <ele>2288.08</ele>
        <time>2019-09-06T05:34:15Z</time>
      </trkpt>
      <trkpt lat="42.5456702057" lon="1.0440531280">
        <ele>2287.59</ele>
        <time>2019-09-06T05:34:37Z</time>
      </trkpt>
      <trkpt lat="42.5456762407" lon="1.0440210253">
        <ele>2289.04</ele>
        <time>2019-09-06T05:35:01Z</time>
      </trkpt>
      <trkpt lat="42.5456640869" lon="1.0440480988">
        <ele>2289.04</ele>
        <time>2019-09-06T05:35:15Z</time>
      </trkpt>
      <trkpt lat="42.5456783362" lon="1.0440409742">
        <ele>2289.04</ele>
        <time>2019-09-06T05:35:36Z</time>
      </trkpt>
      <trkpt lat="42.5456407852" lon="1.0440319218">
        <ele>2289.52</ele>
        <time>2019-09-06T05:35:58Z</time>
      </trkpt>
      <trkpt lat="42.5455811899" lon="1.0440391302">
        <ele>2289.52</ele>
        <time>2019-09-06T05:36:18Z</time>
      </trkpt>
      <trkpt lat="42.5455590617" lon="1.0440413095">
        <ele>2289.52</ele>
        <time>2019-09-06T05:36:25Z</time>
      </trkpt>
      <trkpt lat="42.5455511827" lon="1.0440156609">
        <ele>2289.04</ele>
        <time>2019-09-06T05:36:27Z</time>
      </trkpt>
      <trkpt lat="42.5455192477" lon="1.0440092068">
        <ele>2287.59</ele>
        <time>2019-09-06T05:36:31Z</time>
      </trkpt>
      <trkpt lat="42.5453618355" lon="1.0441095382">
        <ele>2287.11</ele>
        <time>2019-09-06T05:36:46Z</time>
      </trkpt>
      <trkpt lat="42.5452478416" lon="1.0441524535">
        <ele>2287.59</ele>
        <time>2019-09-06T05:36:56Z</time>
      </trkpt>
      <trkpt lat="42.5451410562" lon="1.0441610031">
        <ele>2286.63</ele>
        <time>2019-09-06T05:37:08Z</time>
      </trkpt>
      <trkpt lat="42.5450991467" lon="1.0441443231">
        <ele>2289.04</ele>
        <time>2019-09-06T05:37:16Z</time>
      </trkpt>
      <trkpt lat="42.5450083707" lon="1.0441590752">
        <ele>2292.40</ele>
        <time>2019-09-06T05:37:31Z</time>
      </trkpt>
      <trkpt lat="42.5449341908" lon="1.0441380367">
        <ele>2293.36</ele>
        <time>2019-09-06T05:37:40Z</time>
      </trkpt>
      <trkpt lat="42.5448456779" lon="1.0441244580">
        <ele>2293.36</ele>
        <time>2019-09-06T05:37:51Z</time>
      </trkpt>
      <trkpt lat="42.5447483640" lon="1.0441298224">
        <ele>2292.40</ele>
        <time>2019-09-06T05:38:02Z</time>
      </trkpt>
      <trkpt lat="42.5446990784" lon="1.0441363603">
        <ele>2291.92</ele>
        <time>2019-09-06T05:38:07Z</time>
      </trkpt>
      <trkpt lat="42.5446166843" lon="1.0441206023">
        <ele>2289.52</ele>
        <time>2019-09-06T05:38:18Z</time>
      </trkpt>
      <trkpt lat="42.5445292611" lon="1.0441046767">
        <ele>2288.08</ele>
        <time>2019-09-06T05:38:30Z</time>
      </trkpt>
      <trkpt lat="42.5444791373" lon="1.0440907627">
        <ele>2287.11</ele>
        <time>2019-09-06T05:38:35Z</time>
      </trkpt>
      <trkpt lat="42.5444659777" lon="1.0440884158">
        <ele>2287.11</ele>
        <time>2019-09-06T05:38:36Z</time>
      </trkpt>
      <trkpt lat="42.5443617906" lon="1.0441376176">
        <ele>2287.59</ele>
        <time>2019-09-06T05:38:48Z</time>
      </trkpt>
      <trkpt lat="42.5442834198" lon="1.0441656969">
        <ele>2289.52</ele>
        <time>2019-09-06T05:38:58Z</time>
      </trkpt>
      <trkpt lat="42.5441713538" lon="1.0441803653">
        <ele>2292.40</ele>
        <time>2019-09-06T05:39:13Z</time>
      </trkpt>
      <trkpt lat="42.5440818351" lon="1.0441279784">
        <ele>2294.32</ele>
        <time>2019-09-06T05:39:26Z</time>
      </trkpt>
      <trkpt lat="42.5440207310" lon="1.0440572351">
        <ele>2296.25</ele>
        <time>2019-09-06T05:39:38Z</time>
      </trkpt>
      <trkpt lat="42.5439417735" lon="1.0439688060">
        <ele>2298.17</ele>
        <time>2019-09-06T05:39:50Z</time>
      </trkpt>
      <trkpt lat="42.5438877102" lon="1.0438205302">
        <ele>2299.13</ele>
        <time>2019-09-06T05:40:02Z</time>
      </trkpt>
      <trkpt lat="42.5438644923" lon="1.0437949654">
        <ele>2299.13</ele>
        <time>2019-09-06T05:40:05Z</time>
      </trkpt>
      <trkpt lat="42.5437671784" lon="1.0437233001">
        <ele>2300.57</ele>
        <time>2019-09-06T05:40:18Z</time>
      </trkpt>
      <trkpt lat="42.5436620694" lon="1.0436824802">
        <ele>2302.49</ele>
        <time>2019-09-06T05:40:32Z</time>
      </trkpt>
      <trkpt lat="42.5435709581" lon="1.0436607711">
        <ele>2304.42</ele>
        <time>2019-09-06T05:40:44Z</time>
      </trkpt>
      <trkpt lat="42.5434590597" lon="1.0436108150">
        <ele>2306.82</ele>
        <time>2019-09-06T05:40:59Z</time>
      </trkpt>
      <trkpt lat="42.5433479156" lon="1.0436145868">
        <ele>2308.26</ele>
        <time>2019-09-06T05:41:13Z</time>
      </trkpt>
      <trkpt lat="42.5432469137" lon="1.0436003376">
        <ele>2309.70</ele>
        <time>2019-09-06T05:41:26Z</time>
      </trkpt>
      <trkpt lat="42.5431463309" lon="1.0435672291">
        <ele>2311.63</ele>
        <time>2019-09-06T05:41:40Z</time>
      </trkpt>
      <trkpt lat="42.5430738274" lon="1.0435463581">
        <ele>2312.59</ele>
        <time>2019-09-06T05:41:50Z</time>
      </trkpt>
      <trkpt lat="42.5430071913" lon="1.0435335338">
        <ele>2312.59</ele>
        <time>2019-09-06T05:42:01Z</time>
      </trkpt>
      <trkpt lat="42.5429377891" lon="1.0435927100">
        <ele>2314.99</ele>
        <time>2019-09-06T05:42:13Z</time>
      </trkpt>
      <trkpt lat="42.5429166667" lon="1.0436791275">
        <ele>2315.47</ele>
        <time>2019-09-06T05:42:25Z</time>
      </trkpt>
      <trkpt lat="42.5429102965" lon="1.0436190292">
        <ele>2315.47</ele>
        <time>2019-09-06T05:42:37Z</time>
      </trkpt>
      <trkpt lat="42.5429058541" lon="1.0435771197">
        <ele>2315.47</ele>
        <time>2019-09-06T05:42:43Z</time>
      </trkpt>
      <trkpt lat="42.5429097097" lon="1.0435471963">
        <ele>2315.47</ele>
        <time>2019-09-06T05:42:45Z</time>
      </trkpt>
      <trkpt lat="42.5429507811" lon="1.0434179474">
        <ele>2315.95</ele>
        <time>2019-09-06T05:42:58Z</time>
      </trkpt>
      <trkpt lat="42.5429939479" lon="1.0434008483">
        <ele>2316.91</ele>
        <time>2019-09-06T05:43:08Z</time>
      </trkpt>
      <trkpt lat="42.5430132262" lon="1.0433508921">
        <ele>2318.84</ele>
        <time>2019-09-06T05:43:19Z</time>
      </trkpt>
      <trkpt lat="42.5429962110" lon="1.0432783887">
        <ele>2321.72</ele>
        <time>2019-09-06T05:43:33Z</time>
      </trkpt>
      <trkpt lat="42.5430441555" lon="1.0432191286">
        <ele>2324.61</ele>
        <time>2019-09-06T05:43:47Z</time>
      </trkpt>
      <trkpt lat="42.5430330914" lon="1.0431505647">
        <ele>2327.49</ele>
        <time>2019-09-06T05:44:01Z</time>
      </trkpt>
      <trkpt lat="42.5430442393" lon="1.0430890415">
        <ele>2330.37</ele>
        <time>2019-09-06T05:44:15Z</time>
      </trkpt>
      <trkpt lat="42.5430285651" lon="1.0430553462">
        <ele>2332.30</ele>
        <time>2019-09-06T05:44:27Z</time>
      </trkpt>
      <trkpt lat="42.5429815426" lon="1.0429812502">
        <ele>2334.22</ele>
        <time>2019-09-06T05:44:38Z</time>
      </trkpt>
      <trkpt lat="42.5429696403" lon="1.0429426096">
        <ele>2334.22</ele>
        <time>2019-09-06T05:44:41Z</time>
      </trkpt>
      <trkpt lat="42.5429630186" lon="1.0429161228">
        <ele>2334.22</ele>
        <time>2019-09-06T05:44:43Z</time>
      </trkpt>
      <trkpt lat="42.5429752562" lon="1.0427967645">
        <ele>2334.22</ele>
        <time>2019-09-06T05:44:56Z</time>
      </trkpt>
      <trkpt lat="42.5430139806" lon="1.0427370854">
        <ele>2336.62</ele>
        <time>2019-09-06T05:45:09Z</time>
      </trkpt>
      <trkpt lat="42.5430329237" lon="1.0426655877">
        <ele>2339.02</ele>
        <time>2019-09-06T05:45:20Z</time>
      </trkpt>
      <trkpt lat="42.5430042576" lon="1.0426007956">
        <ele>2340.95</ele>
        <time>2019-09-06T05:45:32Z</time>
      </trkpt>
      <trkpt lat="42.5429951213" lon="1.0425137077">
        <ele>2342.39</ele>
        <time>2019-09-06T05:45:44Z</time>
      </trkpt>
      <trkpt lat="42.5429825485" lon="1.0424184892">
        <ele>2341.91</ele>
        <time>2019-09-06T05:45:56Z</time>
      </trkpt>
      <trkpt lat="42.5429847278" lon="1.0423220973">
        <ele>2340.95</ele>
        <time>2019-09-06T05:46:07Z</time>
      </trkpt>
      <trkpt lat="42.5429487694" lon="1.0423169006">
        <ele>2339.02</ele>
        <time>2019-09-06T05:46:16Z</time>
      </trkpt>
      <trkpt lat="42.5429127272" lon="1.0423453990">
        <ele>2337.58</ele>
        <time>2019-09-06T05:46:29Z</time>
      </trkpt>
      <trkpt lat="42.5429199357" lon="1.0422905814">
        <ele>2336.14</ele>
        <time>2019-09-06T05:46:41Z</time>
      </trkpt>
      <trkpt lat="42.5428977236" lon="1.0422423854">
        <ele>2334.22</ele>
        <time>2019-09-06T05:46:54Z</time>
      </trkpt>
      <trkpt lat="42.5428922754" lon="1.0422246158">
        <ele>2332.78</ele>
        <time>2019-09-06T05:46:57Z</time>
      </trkpt>
      <trkpt lat="42.5429281499" lon="1.0421043355">
        <ele>2330.37</ele>
        <time>2019-09-06T05:47:09Z</time>
      </trkpt>
      <trkpt lat="42.5429144036" lon="1.0420217738">
        <ele>2328.45</ele>
        <time>2019-09-06T05:47:20Z</time>
      </trkpt>
      <trkpt lat="42.5428952929" lon="1.0419853125">
        <ele>2325.57</ele>
        <time>2019-09-06T05:47:31Z</time>
      </trkpt>
      <trkpt lat="42.5428434089" lon="1.0419574007">
        <ele>2323.64</ele>
        <time>2019-09-06T05:47:42Z</time>
      </trkpt>
      <trkpt lat="42.5428036787" lon="1.0419068579">
        <ele>2323.16</ele>
        <time>2019-09-06T05:47:49Z</time>
      </trkpt>
      <trkpt lat="42.5427012518" lon="1.0417486914">
        <ele>2322.20</ele>
        <time>2019-09-06T05:48:03Z</time>
      </trkpt>
      <trkpt lat="42.5425389782" lon="1.0416189395">
        <ele>2321.72</ele>
        <time>2019-09-06T05:48:19Z</time>
      </trkpt>
      <trkpt lat="42.5424555782" lon="1.0415534768">
        <ele>2321.24</ele>
        <time>2019-09-06T05:48:27Z</time>
      </trkpt>
      <trkpt lat="42.5424520578" lon="1.0415231343">
        <ele>2321.24</ele>
        <time>2019-09-06T05:48:30Z</time>
      </trkpt>
      <trkpt lat="42.5425099768" lon="1.0413600225">
        <ele>2321.72</ele>
        <time>2019-09-06T05:48:43Z</time>
      </trkpt>
      <trkpt lat="42.5425242260" lon="1.0412691627">
        <ele>2322.20</ele>
        <time>2019-09-06T05:48:53Z</time>
      </trkpt>
      <trkpt lat="42.5425103121" lon="1.0412147641">
        <ele>2323.64</ele>
        <time>2019-09-06T05:49:04Z</time>
      </trkpt>
      <trkpt lat="42.5425536465" lon="1.0411304422">
        <ele>2324.61</ele>
        <time>2019-09-06T05:49:15Z</time>
      </trkpt>
      <trkpt lat="42.5425903592" lon="1.0410556756">
        <ele>2324.61</ele>
        <time>2019-09-06T05:49:25Z</time>
      </trkpt>
      <trkpt lat="42.5425906107" lon="1.0409930628">
        <ele>2323.16</ele>
        <time>2019-09-06T05:49:35Z</time>
      </trkpt>
      <trkpt lat="42.5425448455" lon="1.0409882851">
        <ele>2322.68</ele>
        <time>2019-09-06T05:49:41Z</time>
      </trkpt>
      <trkpt lat="42.5424945541" lon="1.0410061385">
        <ele>2322.68</ele>
        <time>2019-09-06T05:49:45Z</time>
      </trkpt>
      <trkpt lat="42.5424554944" lon="1.0410103295">
        <ele>2322.68</ele>
        <time>2019-09-06T05:49:48Z</time>
      </trkpt>
      <trkpt lat="42.5423600245" lon="1.0410229862">
        <ele>2322.20</ele>
        <time>2019-09-06T05:49:57Z</time>
      </trkpt>
      <trkpt lat="42.5423224736" lon="1.0407918971">
        <ele>2323.16</ele>
        <time>2019-09-06T05:50:15Z</time>
      </trkpt>
      <trkpt lat="42.5423243176" lon="1.0407343134">
        <ele>2323.64</ele>
        <time>2019-09-06T05:50:30Z</time>
      </trkpt>
      <trkpt lat="42.5423150975" lon="1.0406934936">
        <ele>2324.61</ele>
        <time>2019-09-06T05:50:42Z</time>
      </trkpt>
      <trkpt lat="42.5423082244" lon="1.0406800825">
        <ele>2324.61</ele>
        <time>2019-09-06T05:50:44Z</time>
      </trkpt>
      <trkpt lat="42.5422995910" lon="1.0406520031">
        <ele>2324.61</ele>
        <time>2019-09-06T05:50:46Z</time>
      </trkpt>
      <trkpt lat="42.5422406662" lon="1.0403935891">
        <ele>2325.09</ele>
        <time>2019-09-06T05:51:03Z</time>
      </trkpt>
      <trkpt lat="42.5422771275" lon="1.0403473210">
        <ele>2325.09</ele>
        <time>2019-09-06T05:51:15Z</time>
      </trkpt>
      <trkpt lat="42.5422811508" lon="1.0402742308">
        <ele>2327.97</ele>
        <time>2019-09-06T05:51:28Z</time>
      </trkpt>
      <trkpt lat="42.5422727689" lon="1.0401870590">
        <ele>2329.89</ele>
        <time>2019-09-06T05:51:40Z</time>
      </trkpt>
      <trkpt lat="42.5422596931" lon="1.0401417129">
        <ele>2333.26</ele>
        <time>2019-09-06T05:51:52Z</time>
      </trkpt>
      <trkpt lat="42.5422935560" lon="1.0400848836">
        <ele>2334.70</ele>
        <time>2019-09-06T05:52:03Z</time>
      </trkpt>
      <trkpt lat="42.5423380639" lon="1.0400361847">
        <ele>2335.66</ele>
        <time>2019-09-06T05:52:12Z</time>
      </trkpt>
      <trkpt lat="42.5423901156" lon="1.0399798583">
        <ele>2336.62</ele>
        <time>2019-09-06T05:52:21Z</time>
      </trkpt>
      <trkpt lat="42.5424125791" lon="1.0399155691">
        <ele>2337.58</ele>
        <time>2019-09-06T05:52:31Z</time>
      </trkpt>
      <trkpt lat="42.5424630381" lon="1.0398360249">
        <ele>2339.02</ele>
        <time>2019-09-06T05:52:43Z</time>
      </trkpt>
      <trkpt lat="42.5424684864" lon="1.0398327559">
        <ele>2340.47</ele>
        <time>2019-09-06T05:52:55Z</time>
      </trkpt>
      <trkpt lat="42.5425005052" lon="1.0398062691">
        <ele>2340.95</ele>
        <time>2019-09-06T05:53:07Z</time>
      </trkpt>
      <trkpt lat="42.5425433367" lon="1.0398103762">
        <ele>2342.39</ele>
        <time>2019-09-06T05:53:16Z</time>
      </trkpt>
      <trkpt lat="42.5425859168" lon="1.0398040898">
        <ele>2342.87</ele>
        <time>2019-09-06T05:53:22Z</time>
      </trkpt>
      <trkpt lat="42.5426918641" lon="1.0397572350">
        <ele>2342.39</ele>
        <time>2019-09-06T05:53:34Z</time>
      </trkpt>
      <trkpt lat="42.5427176803" lon="1.0396978073">
        <ele>2343.35</ele>
        <time>2019-09-06T05:53:45Z</time>
      </trkpt>
      <trkpt lat="42.5427616015" lon="1.0396241304">
        <ele>2345.75</ele>
        <time>2019-09-06T05:53:59Z</time>
      </trkpt>
      <trkpt lat="42.5428168382" lon="1.0395544767">
        <ele>2347.20</ele>
        <time>2019-09-06T05:54:13Z</time>
      </trkpt>
      <trkpt lat="42.5428172573" lon="1.0395056102">
        <ele>2348.16</ele>
        <time>2019-09-06T05:54:20Z</time>
      </trkpt>
      <trkpt lat="42.5428461749" lon="1.0394388903">
        <ele>2350.56</ele>
        <time>2019-09-06T05:54:32Z</time>
      </trkpt>
      <trkpt lat="42.5428413134" lon="1.0393958911">
        <ele>2352.96</ele>
        <time>2019-09-06T05:54:43Z</time>
      </trkpt>
      <trkpt lat="42.5428681355" lon="1.0393512156">
        <ele>2354.41</ele>
        <time>2019-09-06T05:54:55Z</time>
      </trkpt>
      <trkpt lat="42.5428626873" lon="1.0393099766">
        <ele>2355.85</ele>
        <time>2019-09-06T05:55:04Z</time>
      </trkpt>
      <trkpt lat="42.5428755954" lon="1.0392690729">
        <ele>2358.25</ele>
        <time>2019-09-06T05:55:16Z</time>
      </trkpt>
      <trkpt lat="42.5428582449" lon="1.0392944701">
        <ele>2360.17</ele>
        <time>2019-09-06T05:55:27Z</time>
      </trkpt>
      <trkpt lat="42.5428096298" lon="1.0393137485">
        <ele>2361.62</ele>
        <time>2019-09-06T05:55:37Z</time>
      </trkpt>
      <trkpt lat="42.5427733362" lon="1.0393278301">
        <ele>2362.10</ele>
        <time>2019-09-06T05:55:46Z</time>
      </trkpt>
      <trkpt lat="42.5427370425" lon="1.0393011756">
        <ele>2364.50</ele>
        <time>2019-09-06T05:56:00Z</time>
      </trkpt>
      <trkpt lat="42.5427077897" lon="1.0392989963">
        <ele>2366.42</ele>
        <time>2019-09-06T05:56:11Z</time>
      </trkpt>
      <trkpt lat="42.5426626951" lon="1.0392649658">
        <ele>2368.83</ele>
        <time>2019-09-06T05:56:25Z</time>
      </trkpt>
      <trkpt lat="42.5426283292" lon="1.0392709170">
        <ele>2370.75</ele>
        <time>2019-09-06T05:56:38Z</time>
      </trkpt>
      <trkpt lat="42.5426201988" lon="1.0392306000">
        <ele>2372.67</ele>
        <time>2019-09-06T05:56:51Z</time>
      </trkpt>
      <trkpt lat="42.5425961427" lon="1.0392313544">
        <ele>2375.07</ele>
        <time>2019-09-06T05:57:04Z</time>
      </trkpt>
      <trkpt lat="42.5425332785" lon="1.0391936358">
        <ele>2378.44</ele>
        <time>2019-09-06T05:57:21Z</time>
      </trkpt>
      <trkpt lat="42.5425327756" lon="1.0391861759">
        <ele>2379.40</ele>
        <time>2019-09-06T05:57:35Z</time>
      </trkpt>
      <trkpt lat="42.5425285008" lon="1.0391985811">
        <ele>2379.40</ele>
        <time>2019-09-06T05:58:00Z</time>
      </trkpt>
      <trkpt lat="42.5425304286" lon="1.0392045323">
        <ele>2379.40</ele>
        <time>2019-09-06T05:58:19Z</time>
      </trkpt>
      <trkpt lat="42.5425397325" lon="1.0391976591">
        <ele>2379.88</ele>
        <time>2019-09-06T05:58:35Z</time>
      </trkpt>
      <trkpt lat="42.5425437558" lon="1.0392140038">
        <ele>2399.59</ele>
        <time>2019-09-06T05:58:52Z</time>
      </trkpt>
      <trkpt lat="42.5425441749" lon="1.0392150097">
        <ele>2389.97</ele>
        <time>2019-09-06T05:58:53Z</time>
      </trkpt>
      <trkpt lat="42.5425428338" lon="1.0392166860">
        <ele>2385.17</ele>
        <time>2019-09-06T05:58:54Z</time>
      </trkpt>
      <trkpt lat="42.5425385591" lon="1.0392355453">
        <ele>2381.32</ele>
        <time>2019-09-06T05:58:56Z</time>
      </trkpt>
      <trkpt lat="42.5425000023" lon="1.0392812267">
        <ele>2380.84</ele>
        <time>2019-09-06T05:59:05Z</time>
      </trkpt>
      <trkpt lat="42.5424521416" lon="1.0393065400">
        <ele>2382.28</ele>
        <time>2019-09-06T05:59:16Z</time>
      </trkpt>
      <trkpt lat="42.5424114056" lon="1.0391917080">
        <ele>2383.73</ele>
        <time>2019-09-06T05:59:27Z</time>
      </trkpt>
      <trkpt lat="42.5423467811" lon="1.0391932167">
        <ele>2385.17</ele>
        <time>2019-09-06T05:59:36Z</time>
      </trkpt>
      <trkpt lat="42.5423446018" lon="1.0391138401">
        <ele>2387.57</ele>
        <time>2019-09-06T05:59:49Z</time>
      </trkpt>
      <trkpt lat="42.5423205458" lon="1.0390350502">
        <ele>2389.49</ele>
        <time>2019-09-06T06:00:01Z</time>
      </trkpt>
      <trkpt lat="42.5423140917" lon="1.0389612895">
        <ele>2391.42</ele>
        <time>2019-09-06T06:00:13Z</time>
      </trkpt>
      <trkpt lat="42.5422974117" lon="1.0389508121">
        <ele>2392.86</ele>
        <time>2019-09-06T06:00:26Z</time>
      </trkpt>
      <trkpt lat="42.5422604475" lon="1.0389242414">
        <ele>2394.30</ele>
        <time>2019-09-06T06:00:39Z</time>
      </trkpt>
      <trkpt lat="42.5422314461" lon="1.0389120877">
        <ele>2394.78</ele>
        <time>2019-09-06T06:01:03Z</time>
      </trkpt>
      <trkpt lat="42.5421669055" lon="1.0388982575">
        <ele>2397.18</ele>
        <time>2019-09-06T06:01:15Z</time>
      </trkpt>
      <trkpt lat="42.5421291031" lon="1.0388981737">
        <ele>2397.18</ele>
        <time>2019-09-06T06:01:26Z</time>
      </trkpt>
      <trkpt lat="42.5421099085" lon="1.0388438590">
        <ele>2396.70</ele>
        <time>2019-09-06T06:01:31Z</time>
      </trkpt>
      <trkpt lat="42.5420540851" lon="1.0387280211">
        <ele>2396.70</ele>
        <time>2019-09-06T06:01:43Z</time>
      </trkpt>
      <trkpt lat="42.5419865269" lon="1.0386540927">
        <ele>2396.22</ele>
        <time>2019-09-06T06:01:53Z</time>
      </trkpt>
      <trkpt lat="42.5419136044" lon="1.0385472234">
        <ele>2394.78</ele>
        <time>2019-09-06T06:02:05Z</time>
      </trkpt>
      <trkpt lat="42.5418899674" lon="1.0383999534">
        <ele>2397.67</ele>
        <time>2019-09-06T06:02:19Z</time>
      </trkpt>
      <trkpt lat="42.5418872014" lon="1.0382473189">
        <ele>2401.03</ele>
        <time>2019-09-06T06:02:33Z</time>
      </trkpt>
      <trkpt lat="42.5419193879" lon="1.0381505080">
        <ele>2403.43</ele>
        <time>2019-09-06T06:02:45Z</time>
      </trkpt>
      <trkpt lat="42.5419501495" lon="1.0380832013">
        <ele>2403.91</ele>
        <time>2019-09-06T06:02:52Z</time>
      </trkpt>
      <trkpt lat="42.5419809949" lon="1.0379687883">
        <ele>2405.84</ele>
        <time>2019-09-06T06:03:03Z</time>
      </trkpt>
      <trkpt lat="42.5420245808" lon="1.0378044192">
        <ele>2406.32</ele>
        <time>2019-09-06T06:03:16Z</time>
      </trkpt>
      <trkpt lat="42.5420639757" lon="1.0376485158">
        <ele>2407.28</ele>
        <time>2019-09-06T06:03:29Z</time>
      </trkpt>
      <trkpt lat="42.5421197992" lon="1.0375455860">
        <ele>2408.72</ele>
        <time>2019-09-06T06:03:40Z</time>
      </trkpt>
      <trkpt lat="42.5421492197" lon="1.0374719929">
        <ele>2409.68</ele>
        <time>2019-09-06T06:03:48Z</time>
      </trkpt>
      <trkpt lat="42.5421279296" lon="1.0372670554">
        <ele>2411.60</ele>
        <time>2019-09-06T06:04:03Z</time>
      </trkpt>
      <trkpt lat="42.5421255827" lon="1.0371174384">
        <ele>2411.60</ele>
        <time>2019-09-06T06:04:12Z</time>
      </trkpt>
      <trkpt lat="42.5421574339" lon="1.0370083060">
        <ele>2411.12</ele>
        <time>2019-09-06T06:04:19Z</time>
      </trkpt>
      <trkpt lat="42.5422450248" lon="1.0368078947">
        <ele>2410.16</ele>
        <time>2019-09-06T06:04:34Z</time>
      </trkpt>
      <trkpt lat="42.5422803964" lon="1.0367491376">
        <ele>2409.68</ele>
        <time>2019-09-06T06:04:43Z</time>
      </trkpt>
      <trkpt lat="42.5422686618" lon="1.0366632231">
        <ele>2409.20</ele>
        <time>2019-09-06T06:04:54Z</time>
      </trkpt>
      <trkpt lat="42.5422688294" lon="1.0365745425">
        <ele>2409.20</ele>
        <time>2019-09-06T06:05:05Z</time>
      </trkpt>
      <trkpt lat="42.5422708411" lon="1.0364951659">
        <ele>2409.20</ele>
        <time>2019-09-06T06:05:13Z</time>
      </trkpt>
      <trkpt lat="42.5422608666" lon="1.0364436172">
        <ele>2408.24</ele>
        <time>2019-09-06T06:05:24Z</time>
      </trkpt>
      <trkpt lat="42.5422495510" lon="1.0363866203">
        <ele>2408.24</ele>
        <time>2019-09-06T06:05:38Z</time>
      </trkpt>
      <trkpt lat="42.5421404187" lon="1.0362802539">
        <ele>2408.24</ele>
        <time>2019-09-06T06:05:52Z</time>
      </trkpt>
      <trkpt lat="42.5420355611" lon="1.0362899769">
        <ele>2409.20</ele>
        <time>2019-09-06T06:06:04Z</time>
      </trkpt>
      <trkpt lat="42.5419866107" lon="1.0363176372">
        <ele>2410.16</ele>
        <time>2019-09-06T06:06:15Z</time>
      </trkpt>
      <trkpt lat="42.5419180468" lon="1.0362908989">
        <ele>2411.60</ele>
        <time>2019-09-06T06:06:25Z</time>
      </trkpt>
      <trkpt lat="42.5418763049" lon="1.0363185592">
        <ele>2413.05</ele>
        <time>2019-09-06T06:06:38Z</time>
      </trkpt>
      <trkpt lat="42.5418317132" lon="1.0363259353">
        <ele>2414.97</ele>
        <time>2019-09-06T06:06:50Z</time>
      </trkpt>
      <trkpt lat="42.5417924859" lon="1.0362807568">
        <ele>2416.41</ele>
        <time>2019-09-06T06:07:01Z</time>
      </trkpt>
      <trkpt lat="42.5417155400" lon="1.0362453014">
        <ele>2417.37</ele>
        <time>2019-09-06T06:07:12Z</time>
      </trkpt>
      <trkpt lat="42.5417090859" lon="1.0362404399">
        <ele>2417.37</ele>
        <time>2019-09-06T06:07:13Z</time>
      </trkpt>
      <trkpt lat="42.5416763127" lon="1.0362189822">
        <ele>2417.85</ele>
        <time>2019-09-06T06:07:16Z</time>
      </trkpt>
      <trkpt lat="42.5415934157" lon="1.0361673497">
        <ele>2417.85</ele>
        <time>2019-09-06T06:07:28Z</time>
      </trkpt>
      <trkpt lat="42.5415539369" lon="1.0361273680">
        <ele>2418.81</ele>
        <time>2019-09-06T06:07:40Z</time>
      </trkpt>
      <trkpt lat="42.5414997898" lon="1.0360595584">
        <ele>2421.22</ele>
        <time>2019-09-06T06:07:52Z</time>
      </trkpt>
      <trkpt lat="42.5414489955" lon="1.0360269528">
        <ele>2423.14</ele>
        <time>2019-09-06T06:08:04Z</time>
      </trkpt>
      <trkpt lat="42.5414045714" lon="1.0359949339">
        <ele>2424.10</ele>
        <time>2019-09-06T06:08:16Z</time>
      </trkpt>
      <trkpt lat="42.5413716305" lon="1.0360127874">
        <ele>2426.02</ele>
        <time>2019-09-06T06:08:28Z</time>
      </trkpt>
      <trkpt lat="42.5413361751" lon="1.0360179842">
        <ele>2427.47</ele>
        <time>2019-09-06T06:08:39Z</time>
      </trkpt>
      <trkpt lat="42.5412904099" lon="1.0359930061">
        <ele>2429.39</ele>
        <time>2019-09-06T06:08:50Z</time>
      </trkpt>
      <trkpt lat="42.5412261207" lon="1.0359811038">
        <ele>2431.31</ele>
        <time>2019-09-06T06:09:02Z</time>
      </trkpt>
      <trkpt lat="42.5411824510" lon="1.0359036550">
        <ele>2432.75</ele>
        <time>2019-09-06T06:09:13Z</time>
      </trkpt>
      <trkpt lat="42.5411955267" lon="1.0358386952">
        <ele>2433.71</ele>
        <time>2019-09-06T06:09:23Z</time>
      </trkpt>
      <trkpt lat="42.5412017293" lon="1.0357307363">
        <ele>2434.20</ele>
        <time>2019-09-06T06:09:36Z</time>
      </trkpt>
      <trkpt lat="42.5412315689" lon="1.0356750805">
        <ele>2436.60</ele>
        <time>2019-09-06T06:09:48Z</time>
      </trkpt>
      <trkpt lat="42.5412061717" lon="1.0355765931">
        <ele>2438.52</ele>
        <time>2019-09-06T06:10:01Z</time>
      </trkpt>
      <trkpt lat="42.5411696266" lon="1.0355295707">
        <ele>2439.48</ele>
        <time>2019-09-06T06:10:10Z</time>
      </trkpt>
      <trkpt lat="42.5411889050" lon="1.0353840608">
        <ele>2440.92</ele>
        <time>2019-09-06T06:10:23Z</time>
      </trkpt>
      <trkpt lat="42.5411932636" lon="1.0353725776">
        <ele>2440.92</ele>
        <time>2019-09-06T06:10:24Z</time>
      </trkpt>
      <trkpt lat="42.5412560441" lon="1.0352803767">
        <ele>2440.44</ele>
        <time>2019-09-06T06:10:36Z</time>
      </trkpt>
      <trkpt lat="42.5413066708" lon="1.0352199432">
        <ele>2439.48</ele>
        <time>2019-09-06T06:10:49Z</time>
      </trkpt>
      <trkpt lat="42.5413268711" lon="1.0352248047">
        <ele>2439.00</ele>
        <time>2019-09-06T06:10:52Z</time>
      </trkpt>
      <trkpt lat="42.5413710438" lon="1.0352265649">
        <ele>2437.08</ele>
        <time>2019-09-06T06:11:04Z</time>
      </trkpt>
      <trkpt lat="42.5413887296" lon="1.0352206137">
        <ele>2437.08</ele>
        <time>2019-09-06T06:11:14Z</time>
      </trkpt>
      <trkpt lat="42.5413691998" lon="1.0351307597">
        <ele>2436.60</ele>
        <time>2019-09-06T06:11:22Z</time>
      </trkpt>
      <trkpt lat="42.5413569622" lon="1.0350361280">
        <ele>2434.68</ele>
        <time>2019-09-06T06:11:28Z</time>
      </trkpt>
      <trkpt lat="42.5412870571" lon="1.0349065438">
        <ele>2432.75</ele>
        <time>2019-09-06T06:11:41Z</time>
      </trkpt>
      <trkpt lat="42.5411925092" lon="1.0348120797">
        <ele>2432.75</ele>
        <time>2019-09-06T06:11:52Z</time>
      </trkpt>
      <trkpt lat="42.5411136355" lon="1.0347197950">
        <ele>2433.23</ele>
        <time>2019-09-06T06:12:03Z</time>
      </trkpt>
      <trkpt lat="42.5410817005" lon="1.0346619599">
        <ele>2432.75</ele>
        <time>2019-09-06T06:12:15Z</time>
      </trkpt>
      <trkpt lat="42.5410255417" lon="1.0346219782">
        <ele>2431.79</ele>
        <time>2019-09-06T06:12:29Z</time>
      </trkpt>
      <trkpt lat="42.5409587380" lon="1.0346274264">
        <ele>2431.31</ele>
        <time>2019-09-06T06:12:39Z</time>
      </trkpt>
      <trkpt lat="42.5409229472" lon="1.0346234031">
        <ele>2431.31</ele>
        <time>2019-09-06T06:12:44Z</time>
      </trkpt>
      <trkpt lat="42.5408992264" lon="1.0346232355">
        <ele>2430.83</ele>
        <time>2019-09-06T06:12:46Z</time>
      </trkpt>
      <trkpt lat="42.5408107974" lon="1.0346194636">
        <ele>2430.35</ele>
        <time>2019-09-06T06:12:58Z</time>
      </trkpt>
      <trkpt lat="42.5407749228" lon="1.0346187931">
        <ele>2430.83</ele>
        <time>2019-09-06T06:13:04Z</time>
      </trkpt>
      <trkpt lat="42.5407521240" lon="1.0346201342">
        <ele>2430.83</ele>
        <time>2019-09-06T06:13:06Z</time>
      </trkpt>
      <trkpt lat="42.5407161657" lon="1.0346094053">
        <ele>2430.83</ele>
        <time>2019-09-06T06:13:10Z</time>
      </trkpt>
      <trkpt lat="42.5406745076" lon="1.0346006043">
        <ele>2430.83</ele>
        <time>2019-09-06T06:13:16Z</time>
      </trkpt>
      <trkpt lat="42.5405524671" lon="1.0346401669">
        <ele>2432.75</ele>
        <time>2019-09-06T06:13:30Z</time>
      </trkpt>
      <trkpt lat="42.5404753536" lon="1.0347232316">
        <ele>2434.20</ele>
        <time>2019-09-06T06:13:42Z</time>
      </trkpt>
      <trkpt lat="42.5403498765" lon="1.0347917117">
        <ele>2434.20</ele>
        <time>2019-09-06T06:13:57Z</time>
      </trkpt>
      <trkpt lat="42.5403192826" lon="1.0348146781">
        <ele>2433.23</ele>
        <time>2019-09-06T06:14:01Z</time>
      </trkpt>
      <trkpt lat="42.5402410794" lon="1.0348896123">
        <ele>2431.79</ele>
        <time>2019-09-06T06:14:10Z</time>
      </trkpt>
      <trkpt lat="42.5400849245" lon="1.0349299293">
        <ele>2431.31</ele>
        <time>2019-09-06T06:14:24Z</time>
      </trkpt>
      <trkpt lat="42.5399893709" lon="1.0349431727">
        <ele>2433.23</ele>
        <time>2019-09-06T06:14:36Z</time>
      </trkpt>
      <trkpt lat="42.5399432704" lon="1.0349910334">
        <ele>2435.16</ele>
        <time>2019-09-06T06:14:48Z</time>
      </trkpt>
      <trkpt lat="42.5399204716" lon="1.0350058693">
        <ele>2435.64</ele>
        <time>2019-09-06T06:14:52Z</time>
      </trkpt>
      <trkpt lat="42.5399044622" lon="1.0349796340">
        <ele>2436.60</ele>
        <time>2019-09-06T06:14:55Z</time>
      </trkpt>
      <trkpt lat="42.5398882013" lon="1.0349233076">
        <ele>2436.60</ele>
        <time>2019-09-06T06:14:59Z</time>
      </trkpt>
      <trkpt lat="42.5398675818" lon="1.0348787159">
        <ele>2436.60</ele>
        <time>2019-09-06T06:15:02Z</time>
      </trkpt>
      <trkpt lat="42.5398209784" lon="1.0348737705">
        <ele>2436.60</ele>
        <time>2019-09-06T06:15:06Z</time>
      </trkpt>
      <trkpt lat="42.5397554319" lon="1.0348142590">
        <ele>2436.60</ele>
        <time>2019-09-06T06:15:14Z</time>
      </trkpt>
      <trkpt lat="42.5396987703" lon="1.0347550828">
        <ele>2436.60</ele>
        <time>2019-09-06T06:15:20Z</time>
      </trkpt>
      <trkpt lat="42.5395881291" lon="1.0346163623">
        <ele>2436.12</ele>
        <time>2019-09-06T06:15:34Z</time>
      </trkpt>
      <trkpt lat="42.5395840220" lon="1.0345753748">
        <ele>2435.64</ele>
        <time>2019-09-06T06:15:43Z</time>
      </trkpt>
      <trkpt lat="42.5395671744" lon="1.0345580243">
        <ele>2434.68</ele>
        <time>2019-09-06T06:15:55Z</time>
      </trkpt>
      <trkpt lat="42.5395507459" lon="1.0345359799">
        <ele>2434.68</ele>
        <time>2019-09-06T06:15:58Z</time>
      </trkpt>
      <trkpt lat="42.5395271927" lon="1.0344476346">
        <ele>2432.75</ele>
        <time>2019-09-06T06:16:09Z</time>
      </trkpt>
      <trkpt lat="42.5395270251" lon="1.0343784001">
        <ele>2431.79</ele>
        <time>2019-09-06T06:16:16Z</time>
      </trkpt>
      <trkpt lat="42.5395587925" lon="1.0343193915">
        <ele>2430.83</ele>
        <time>2019-09-06T06:16:27Z</time>
      </trkpt>
      <trkpt lat="42.5395976007" lon="1.0342635680">
        <ele>2431.79</ele>
        <time>2019-09-06T06:16:37Z</time>
      </trkpt>
      <trkpt lat="42.5396440364" lon="1.0342177190">
        <ele>2431.79</ele>
        <time>2019-09-06T06:16:47Z</time>
      </trkpt>
      <trkpt lat="42.5397255085" lon="1.0341245960">
        <ele>2433.23</ele>
        <time>2019-09-06T06:17:00Z</time>
      </trkpt>
      <trkpt lat="42.5398110878" lon="1.0340520926">
        <ele>2433.71</ele>
        <time>2019-09-06T06:17:11Z</time>
      </trkpt>
      <trkpt lat="42.5398285221" lon="1.0339326505">
        <ele>2434.68</ele>
        <time>2019-09-06T06:17:23Z</time>
      </trkpt>
      <trkpt lat="42.5398115069" lon="1.0338360909">
        <ele>2435.16</ele>
        <time>2019-09-06T06:17:34Z</time>
      </trkpt>
      <trkpt lat="42.5398182962" lon="1.0337565467">
        <ele>2433.71</ele>
        <time>2019-09-06T06:17:46Z</time>
      </trkpt>
      <trkpt lat="42.5398290250" lon="1.0337295569">
        <ele>2432.27</ele>
        <time>2019-09-06T06:17:51Z</time>
      </trkpt>
      <trkpt lat="42.5397937372" lon="1.0336989630">
        <ele>2431.79</ele>
        <time>2019-09-06T06:17:54Z</time>
      </trkpt>
      <trkpt lat="42.5397524145" lon="1.0335910041">
        <ele>2431.31</ele>
        <time>2019-09-06T06:18:07Z</time>
      </trkpt>
      <trkpt lat="42.5397250894" lon="1.0335284751">
        <ele>2429.39</ele>
        <time>2019-09-06T06:18:19Z</time>
      </trkpt>
      <trkpt lat="42.5397186354" lon="1.0334817041">
        <ele>2428.43</ele>
        <time>2019-09-06T06:18:24Z</time>
      </trkpt>
      <trkpt lat="42.5397220720" lon="1.0333702248">
        <ele>2427.95</ele>
        <time>2019-09-06T06:18:37Z</time>
      </trkpt>
      <trkpt lat="42.5397010334" lon="1.0333510302">
        <ele>2428.43</ele>
        <time>2019-09-06T06:18:41Z</time>
      </trkpt>
      <trkpt lat="42.5396914780" lon="1.0332246311">
        <ele>2429.87</ele>
        <time>2019-09-06T06:18:53Z</time>
      </trkpt>
      <trkpt lat="42.5396697689" lon="1.0331626050">
        <ele>2429.39</ele>
        <time>2019-09-06T06:19:04Z</time>
      </trkpt>
      <trkpt lat="42.5396685116" lon="1.0331632756">
        <ele>2429.39</ele>
        <time>2019-09-06T06:19:17Z</time>
      </trkpt>
      <trkpt lat="42.5396475568" lon="1.0331270657">
        <ele>2429.39</ele>
        <time>2019-09-06T06:19:25Z</time>
      </trkpt>
      <trkpt lat="42.5396360736" lon="1.0331009142">
        <ele>2429.39</ele>
        <time>2019-09-06T06:19:27Z</time>
      </trkpt>
      <trkpt lat="42.5395209901" lon="1.0329647083">
        <ele>2428.91</ele>
        <time>2019-09-06T06:19:41Z</time>
      </trkpt>
      <trkpt lat="42.5395080820" lon="1.0329128243">
        <ele>2428.43</ele>
        <time>2019-09-06T06:19:45Z</time>
      </trkpt>
      <trkpt lat="42.5394984428" lon="1.0328855831">
        <ele>2428.43</ele>
        <time>2019-09-06T06:19:47Z</time>
      </trkpt>
      <trkpt lat="42.5394875463" lon="1.0328214616">
        <ele>2428.43</ele>
        <time>2019-09-06T06:19:52Z</time>
      </trkpt>
      <trkpt lat="42.5393963512" lon="1.0327145923">
        <ele>2428.91</ele>
        <time>2019-09-06T06:20:04Z</time>
      </trkpt>
      <trkpt lat="42.5393334869" lon="1.0325668193">
        <ele>2429.39</ele>
        <time>2019-09-06T06:20:15Z</time>
      </trkpt>
      <trkpt lat="42.5393001270" lon="1.0324896220">
        <ele>2429.39</ele>
        <time>2019-09-06T06:20:28Z</time>
      </trkpt>
      <trkpt lat="42.5393007137" lon="1.0324861016">
        <ele>2429.39</ele>
        <time>2019-09-06T06:20:55Z</time>
      </trkpt>
      <trkpt lat="42.5392603129" lon="1.0324241593">
        <ele>2429.39</ele>
        <time>2019-09-06T06:21:18Z</time>
      </trkpt>
      <trkpt lat="42.5392376818" lon="1.0324326251">
        <ele>2429.39</ele>
        <time>2019-09-06T06:21:21Z</time>
      </trkpt>
      <trkpt lat="42.5391455647" lon="1.0325368959">
        <ele>2429.87</ele>
        <time>2019-09-06T06:21:36Z</time>
      </trkpt>
      <trkpt lat="42.5390956085" lon="1.0325379018">
        <ele>2429.87</ele>
        <time>2019-09-06T06:21:46Z</time>
      </trkpt>
      <trkpt lat="42.5390764978" lon="1.0324396659">
        <ele>2431.31</ele>
        <time>2019-09-06T06:21:56Z</time>
      </trkpt>
      <trkpt lat="42.5390496757" lon="1.0323167033">
        <ele>2432.75</ele>
        <time>2019-09-06T06:22:08Z</time>
      </trkpt>
      <trkpt lat="42.5390236918" lon="1.0322700161">
        <ele>2432.27</ele>
        <time>2019-09-06T06:22:17Z</time>
      </trkpt>
      <trkpt lat="42.5390350912" lon="1.0322330520">
        <ele>2432.27</ele>
        <time>2019-09-06T06:22:20Z</time>
      </trkpt>
      <trkpt lat="42.5391182397" lon="1.0321509093">
        <ele>2429.87</ele>
        <time>2019-09-06T06:22:32Z</time>
      </trkpt>
      <trkpt lat="42.5391209219" lon="1.0321432818">
        <ele>2437.08</ele>
        <time>2019-09-06T06:22:36Z</time>
      </trkpt>
      <trkpt lat="42.5391210057" lon="1.0321427789">
        <ele>2433.23</ele>
        <time>2019-09-06T06:22:37Z</time>
      </trkpt>
      <trkpt lat="42.5391195808" lon="1.0321415216">
        <ele>2430.35</ele>
        <time>2019-09-06T06:22:39Z</time>
      </trkpt>
      <trkpt lat="42.5391176529" lon="1.0321244225">
        <ele>2429.39</ele>
        <time>2019-09-06T06:22:41Z</time>
      </trkpt>
      <trkpt lat="42.5391835347" lon="1.0320635699">
        <ele>2429.39</ele>
        <time>2019-09-06T06:22:51Z</time>
      </trkpt>
      <trkpt lat="42.5392349157" lon="1.0319640767">
        <ele>2429.39</ele>
        <time>2019-09-06T06:23:02Z</time>
      </trkpt>
      <trkpt lat="42.5392626598" lon="1.0319071636">
        <ele>2429.39</ele>
        <time>2019-09-06T06:23:11Z</time>
      </trkpt>
      <trkpt lat="42.5392683595" lon="1.0318938363">
        <ele>2429.39</ele>
        <time>2019-09-06T06:23:13Z</time>
      </trkpt>
      <trkpt lat="42.5392878894" lon="1.0318351630">
        <ele>2429.39</ele>
        <time>2019-09-06T06:23:18Z</time>
      </trkpt>
      <trkpt lat="42.5393676013" lon="1.0316980351">
        <ele>2430.83</ele>
        <time>2019-09-06T06:23:31Z</time>
      </trkpt>
      <trkpt lat="42.5393805932" lon="1.0316809360">
        <ele>2431.31</ele>
        <time>2019-09-06T06:23:33Z</time>
      </trkpt>
      <trkpt lat="42.5394014642" lon="1.0316768289">
        <ele>2431.31</ele>
        <time>2019-09-06T06:23:35Z</time>
      </trkpt>
      <trkpt lat="42.5394764822" lon="1.0316397808">
        <ele>2430.83</ele>
        <time>2019-09-06T06:23:44Z</time>
      </trkpt>
      <trkpt lat="42.5395377539" lon="1.0316153057">
        <ele>2431.79</ele>
        <time>2019-09-06T06:23:52Z</time>
      </trkpt>
      <trkpt lat="42.5396217406" lon="1.0315785091">
        <ele>2432.27</ele>
        <time>2019-09-06T06:24:03Z</time>
      </trkpt>
      <trkpt lat="42.5396473054" lon="1.0315701272">
        <ele>2432.75</ele>
        <time>2019-09-06T06:24:07Z</time>
      </trkpt>
      <trkpt lat="42.5397664122" lon="1.0315159801">
        <ele>2434.20</ele>
        <time>2019-09-06T06:24:20Z</time>
      </trkpt>
      <trkpt lat="42.5397882052" lon="1.0314633418">
        <ele>2435.64</ele>
        <time>2019-09-06T06:24:30Z</time>
      </trkpt>
      <trkpt lat="42.5397990178" lon="1.0314492602">
        <ele>2437.08</ele>
        <time>2019-09-06T06:24:38Z</time>
      </trkpt>
      <trkpt lat="42.5398367364" lon="1.0314253718">
        <ele>2437.56</ele>
        <time>2019-09-06T06:24:43Z</time>
      </trkpt>
      <trkpt lat="42.5399316195" lon="1.0313697997">
        <ele>2438.04</ele>
        <time>2019-09-06T06:24:53Z</time>
      </trkpt>
      <trkpt lat="42.5399581064" lon="1.0313026607">
        <ele>2438.04</ele>
        <time>2019-09-06T06:24:58Z</time>
      </trkpt>
      <trkpt lat="42.5400095712" lon="1.0312278941">
        <ele>2439.48</ele>
        <time>2019-09-06T06:25:10Z</time>
      </trkpt>
      <trkpt lat="42.5400180370" lon="1.0311962944">
        <ele>2439.96</ele>
        <time>2019-09-06T06:25:13Z</time>
      </trkpt>
      <trkpt lat="42.5400437694" lon="1.0311229527">
        <ele>2439.96</ele>
        <time>2019-09-06T06:25:19Z</time>
      </trkpt>
      <trkpt lat="42.5401156023" lon="1.0310792830">
        <ele>2439.00</ele>
        <time>2019-09-06T06:25:29Z</time>
      </trkpt>
      <trkpt lat="42.5402028579" lon="1.0309803765">
        <ele>2439.00</ele>
        <time>2019-09-06T06:25:41Z</time>
      </trkpt>
      <trkpt lat="42.5402381457" lon="1.0309601761">
        <ele>2439.00</ele>
        <time>2019-09-06T06:25:45Z</time>
      </trkpt>
      <trkpt lat="42.5402963161" lon="1.0308096372">
        <ele>2437.56</ele>
        <time>2019-09-06T06:25:57Z</time>
      </trkpt>
      <trkpt lat="42.5402974896" lon="1.0307647102">
        <ele>2437.56</ele>
        <time>2019-09-06T06:26:01Z</time>
      </trkpt>
      <trkpt lat="42.5403658021" lon="1.0307061207">
        <ele>2438.52</ele>
        <time>2019-09-06T06:26:12Z</time>
      </trkpt>
      <trkpt lat="42.5404124055" lon="1.0306759458">
        <ele>2438.52</ele>
        <time>2019-09-06T06:26:18Z</time>
      </trkpt>
      <trkpt lat="42.5404497050" lon="1.0306345392">
        <ele>2439.00</ele>
        <time>2019-09-06T06:26:24Z</time>
      </trkpt>
      <trkpt lat="42.5404965598" lon="1.0305499658">
        <ele>2439.48</ele>
        <time>2019-09-06T06:26:35Z</time>
      </trkpt>
      <trkpt lat="42.5404968951" lon="1.0305397399">
        <ele>2439.48</ele>
        <time>2019-09-06T06:26:36Z</time>
      </trkpt>
      <trkpt lat="42.5405351166" lon="1.0304582678">
        <ele>2439.48</ele>
        <time>2019-09-06T06:26:46Z</time>
      </trkpt>
      <trkpt lat="42.5405450072" lon="1.0304184537">
        <ele>2439.96</ele>
        <time>2019-09-06T06:26:57Z</time>
      </trkpt>
      <trkpt lat="42.5405450910" lon="1.0304067191">
        <ele>2439.48</ele>
        <time>2019-09-06T06:27:21Z</time>
      </trkpt>
      <trkpt lat="42.5405801274" lon="1.0303467046">
        <ele>2439.48</ele>
        <time>2019-09-06T06:27:31Z</time>
      </trkpt>
      <trkpt lat="42.5405274890" lon="1.0302561801">
        <ele>2440.92</ele>
        <time>2019-09-06T06:27:43Z</time>
      </trkpt>
      <trkpt lat="42.5404906925" lon="1.0302139353">
        <ele>2441.89</ele>
        <time>2019-09-06T06:27:54Z</time>
      </trkpt>
      <trkpt lat="42.5404333603" lon="1.0301848501">
        <ele>2443.81</ele>
        <time>2019-09-06T06:28:06Z</time>
      </trkpt>
      <trkpt lat="42.5404439215" lon="1.0301333852">
        <ele>2446.21</ele>
        <time>2019-09-06T06:28:19Z</time>
      </trkpt>
      <trkpt lat="42.5404829811" lon="1.0300977621">
        <ele>2447.17</ele>
        <time>2019-09-06T06:28:30Z</time>
      </trkpt>
      <trkpt lat="42.5404643733" lon="1.0300583672">
        <ele>2449.10</ele>
        <time>2019-09-06T06:28:41Z</time>
      </trkpt>
      <trkpt lat="42.5404741801" lon="1.0300321318">
        <ele>2451.50</ele>
        <time>2019-09-06T06:28:54Z</time>
      </trkpt>
      <trkpt lat="42.5405010022" lon="1.0300176311">
        <ele>2452.94</ele>
        <time>2019-09-06T06:29:05Z</time>
      </trkpt>
      <trkpt lat="42.5404852442" lon="1.0299567785">
        <ele>2454.38</ele>
        <time>2019-09-06T06:29:16Z</time>
      </trkpt>
      <trkpt lat="42.5404450111" lon="1.0299502406">
        <ele>2456.79</ele>
        <time>2019-09-06T06:29:27Z</time>
      </trkpt>
      <trkpt lat="42.5403951388" lon="1.0299131088">
        <ele>2458.71</ele>
        <time>2019-09-06T06:29:41Z</time>
      </trkpt>
      <trkpt lat="42.5403412431" lon="1.0298904777">
        <ele>2459.67</ele>
        <time>2019-09-06T06:29:51Z</time>
      </trkpt>
      <trkpt lat="42.5402911194" lon="1.0298436228">
        <ele>2461.59</ele>
        <time>2019-09-06T06:30:03Z</time>
      </trkpt>
      <trkpt lat="42.5402887724" lon="1.0298392642">
        <ele>2462.07</ele>
        <time>2019-09-06T06:30:04Z</time>
      </trkpt>
      <trkpt lat="42.5402266625" lon="1.0298026353">
        <ele>2463.52</ele>
        <time>2019-09-06T06:30:14Z</time>
      </trkpt>
      <trkpt lat="42.5402119104" lon="1.0297621507">
        <ele>2464.00</ele>
        <time>2019-09-06T06:30:20Z</time>
      </trkpt>
      <trkpt lat="42.5402134191" lon="1.0296970233">
        <ele>2465.92</ele>
        <time>2019-09-06T06:30:29Z</time>
      </trkpt>
      <trkpt lat="42.5401405804" lon="1.0296510067">
        <ele>2467.36</ele>
        <time>2019-09-06T06:30:41Z</time>
      </trkpt>
      <trkpt lat="42.5400900375" lon="1.0295987874">
        <ele>2468.80</ele>
        <time>2019-09-06T06:30:52Z</time>
      </trkpt>
      <trkpt lat="42.5400710944" lon="1.0295684449">
        <ele>2470.24</ele>
        <time>2019-09-06T06:30:59Z</time>
      </trkpt>
      <trkpt lat="42.5400161929" lon="1.0295187403">
        <ele>2472.17</ele>
        <time>2019-09-06T06:31:11Z</time>
      </trkpt>
      <trkpt lat="42.5399700087" lon="1.0295160580">
        <ele>2472.17</ele>
        <time>2019-09-06T06:31:17Z</time>
      </trkpt>
      <trkpt lat="42.5399395823" lon="1.0294318199">
        <ele>2473.13</ele>
        <time>2019-09-06T06:31:28Z</time>
      </trkpt>
      <trkpt lat="42.5399837550" lon="1.0293709673">
        <ele>2475.53</ele>
        <time>2019-09-06T06:31:40Z</time>
      </trkpt>
      <trkpt lat="42.5399788935" lon="1.0293034092">
        <ele>2476.01</ele>
        <time>2019-09-06T06:31:52Z</time>
      </trkpt>
      <trkpt lat="42.5399166159" lon="1.0292189196">
        <ele>2478.42</ele>
        <time>2019-09-06T06:32:05Z</time>
      </trkpt>
      <trkpt lat="42.5398544222" lon="1.0291430634">
        <ele>2478.90</ele>
        <time>2019-09-06T06:32:16Z</time>
      </trkpt>
      <trkpt lat="42.5398042984" lon="1.0291255452">
        <ele>2480.82</ele>
        <time>2019-09-06T06:32:27Z</time>
      </trkpt>
      <trkpt lat="42.5397752132" lon="1.0290967952">
        <ele>2481.30</ele>
        <time>2019-09-06T06:32:37Z</time>
      </trkpt>
      <trkpt lat="42.5397742912" lon="1.0290618427">
        <ele>2482.26</ele>
        <time>2019-09-06T06:32:47Z</time>
      </trkpt>
      <trkpt lat="42.5397678372" lon="1.0290183406">
        <ele>2484.18</ele>
        <time>2019-09-06T06:32:59Z</time>
      </trkpt>
      <trkpt lat="42.5397584494" lon="1.0289735813">
        <ele>2485.63</ele>
        <time>2019-09-06T06:33:10Z</time>
      </trkpt>
      <trkpt lat="42.5396678410" lon="1.0289733298">
        <ele>2487.55</ele>
        <time>2019-09-06T06:33:23Z</time>
      </trkpt>
      <trkpt lat="42.5396080781" lon="1.0289510339">
        <ele>2488.03</ele>
        <time>2019-09-06T06:33:33Z</time>
      </trkpt>
      <trkpt lat="42.5395766459" lon="1.0289011616">
        <ele>2489.95</ele>
        <time>2019-09-06T06:33:46Z</time>
      </trkpt>
      <trkpt lat="42.5395354070" lon="1.0288406443">
        <ele>2490.91</ele>
        <time>2019-09-06T06:33:56Z</time>
      </trkpt>
      <trkpt lat="42.5395207386" lon="1.0287562385">
        <ele>2492.36</ele>
        <time>2019-09-06T06:34:07Z</time>
      </trkpt>
      <trkpt lat="42.5395071600" lon="1.0286850762">
        <ele>2493.80</ele>
        <time>2019-09-06T06:34:18Z</time>
      </trkpt>
      <trkpt lat="42.5394792482" lon="1.0286311805">
        <ele>2495.24</ele>
        <time>2019-09-06T06:34:29Z</time>
      </trkpt>
      <trkpt lat="42.5394296274" lon="1.0285865888">
        <ele>2497.16</ele>
        <time>2019-09-06T06:34:42Z</time>
      </trkpt>
      <trkpt lat="42.5393708702" lon="1.0285994969">
        <ele>2498.60</ele>
        <time>2019-09-06T06:34:53Z</time>
      </trkpt>
      <trkpt lat="42.5393401086" lon="1.0285232216">
        <ele>2499.08</ele>
        <time>2019-09-06T06:35:03Z</time>
      </trkpt>
      <trkpt lat="42.5393109396" lon="1.0284664761">
        <ele>2500.53</ele>
        <time>2019-09-06T06:35:14Z</time>
      </trkpt>
      <trkpt lat="42.5392856263" lon="1.0284047853">
        <ele>2501.97</ele>
        <time>2019-09-06T06:35:26Z</time>
      </trkpt>
      <trkpt lat="42.5392370950" lon="1.0283099860">
        <ele>2503.41</ele>
        <time>2019-09-06T06:35:39Z</time>
      </trkpt>
      <trkpt lat="42.5392139610" lon="1.0282664839">
        <ele>2504.37</ele>
        <time>2019-09-06T06:35:49Z</time>
      </trkpt>
      <trkpt lat="42.5392070878" lon="1.0282632988">
        <ele>2504.37</ele>
        <time>2019-09-06T06:35:50Z</time>
      </trkpt>
      <trkpt lat="42.5391935930" lon="1.0282486305">
        <ele>2504.37</ele>
        <time>2019-09-06T06:35:52Z</time>
      </trkpt>
      <trkpt lat="42.5391118694" lon="1.0281650629">
        <ele>2503.41</ele>
        <time>2019-09-06T06:36:04Z</time>
      </trkpt>
      <trkpt lat="42.5390719716" lon="1.0281312838">
        <ele>2502.93</ele>
        <time>2019-09-06T06:36:11Z</time>
      </trkpt>
      <trkpt lat="42.5390506815" lon="1.0281285178">
        <ele>2502.93</ele>
        <time>2019-09-06T06:36:13Z</time>
      </trkpt>
      <trkpt lat="42.5389275514" lon="1.0280969180">
        <ele>2502.93</ele>
        <time>2019-09-06T06:36:27Z</time>
      </trkpt>
      <trkpt lat="42.5388565566" lon="1.0280336346">
        <ele>2503.89</ele>
        <time>2019-09-06T06:36:39Z</time>
      </trkpt>
      <trkpt lat="42.5387858134" lon="1.0280264262">
        <ele>2504.37</ele>
        <time>2019-09-06T06:36:50Z</time>
      </trkpt>
      <trkpt lat="42.5387030002" lon="1.0279705189">
        <ele>2503.89</ele>
        <time>2019-09-06T06:37:04Z</time>
      </trkpt>
      <trkpt lat="42.5386675447" lon="1.0278968420">
        <ele>2504.37</ele>
        <time>2019-09-06T06:37:14Z</time>
      </trkpt>
      <trkpt lat="42.5386387948" lon="1.0278297868">
        <ele>2505.81</ele>
        <time>2019-09-06T06:37:23Z</time>
      </trkpt>
      <trkpt lat="42.5386164151" lon="1.0277416091">
        <ele>2505.81</ele>
        <time>2019-09-06T06:37:34Z</time>
      </trkpt>
      <trkpt lat="42.5385890901" lon="1.0276698601">
        <ele>2506.29</ele>
        <time>2019-09-06T06:37:45Z</time>
      </trkpt>
      <trkpt lat="42.5385333505" lon="1.0276976880">
        <ele>2506.77</ele>
        <time>2019-09-06T06:37:55Z</time>
      </trkpt>
      <trkpt lat="42.5385062769" lon="1.0277458839">
        <ele>2507.74</ele>
        <time>2019-09-06T06:38:04Z</time>
      </trkpt>
      <trkpt lat="42.5384574942" lon="1.0277904756">
        <ele>2508.70</ele>
        <time>2019-09-06T06:38:13Z</time>
      </trkpt>
      <trkpt lat="42.5383971445" lon="1.0278117657">
        <ele>2510.14</ele>
        <time>2019-09-06T06:38:23Z</time>
      </trkpt>
      <trkpt lat="42.5383803807" lon="1.0278076585">
        <ele>2510.14</ele>
        <time>2019-09-06T06:38:25Z</time>
      </trkpt>
      <trkpt lat="42.5382752717" lon="1.0278271884">
        <ele>2510.62</ele>
        <time>2019-09-06T06:38:37Z</time>
      </trkpt>
      <trkpt lat="42.5382106472" lon="1.0278238356">
        <ele>2511.10</ele>
        <time>2019-09-06T06:38:48Z</time>
      </trkpt>
      <trkpt lat="42.5381461065" lon="1.0277833510">
        <ele>2512.06</ele>
        <time>2019-09-06T06:38:58Z</time>
      </trkpt>
      <trkpt lat="42.5380725134" lon="1.0277347360">
        <ele>2513.02</ele>
        <time>2019-09-06T06:39:09Z</time>
      </trkpt>
      <trkpt lat="42.5380486250" lon="1.0276947543">
        <ele>2513.98</ele>
        <time>2019-09-06T06:39:16Z</time>
      </trkpt>
      <trkpt lat="42.5380248204" lon="1.0276579577">
        <ele>2513.98</ele>
        <time>2019-09-06T06:39:20Z</time>
      </trkpt>
      <trkpt lat="42.5380072184" lon="1.0276334826">
        <ele>2513.98</ele>
        <time>2019-09-06T06:39:23Z</time>
      </trkpt>
      <trkpt lat="42.5379655603" lon="1.0275423713">
        <ele>2513.98</ele>
        <time>2019-09-06T06:39:32Z</time>
      </trkpt>
      <trkpt lat="42.5379311945" lon="1.0274496675">
        <ele>2515.43</ele>
        <time>2019-09-06T06:39:43Z</time>
      </trkpt>
      <trkpt lat="42.5378648099" lon="1.0274514277">
        <ele>2515.43</ele>
        <time>2019-09-06T06:39:52Z</time>
      </trkpt>
      <trkpt lat="42.5378472079" lon="1.0274156369">
        <ele>2515.43</ele>
        <time>2019-09-06T06:39:56Z</time>
      </trkpt>
      <trkpt lat="42.5377733633" lon="1.0273326561">
        <ele>2516.39</ele>
        <time>2019-09-06T06:40:07Z</time>
      </trkpt>
      <trkpt lat="42.5377687532" lon="1.0273256153">
        <ele>2516.39</ele>
        <time>2019-09-06T06:40:08Z</time>
      </trkpt>
      <trkpt lat="42.5377460383" lon="1.0272694565">
        <ele>2516.39</ele>
        <time>2019-09-06T06:40:18Z</time>
      </trkpt>
      <trkpt lat="42.5377002731" lon="1.0272212606">
        <ele>2517.35</ele>
        <time>2019-09-06T06:40:28Z</time>
      </trkpt>
      <trkpt lat="42.5376297813" lon="1.0271780938">
        <ele>2517.83</ele>
        <time>2019-09-06T06:40:38Z</time>
      </trkpt>
      <trkpt lat="42.5376114249" lon="1.0271457396">
        <ele>2517.83</ele>
        <time>2019-09-06T06:40:42Z</time>
      </trkpt>
      <trkpt lat="42.5375943258" lon="1.0270629264">
        <ele>2517.83</ele>
        <time>2019-09-06T06:40:53Z</time>
      </trkpt>
      <trkpt lat="42.5375598762" lon="1.0269858968">
        <ele>2518.79</ele>
        <time>2019-09-06T06:40:59Z</time>
      </trkpt>
      <trkpt lat="42.5374984369" lon="1.0269421432">
        <ele>2519.27</ele>
        <time>2019-09-06T06:41:10Z</time>
      </trkpt>
      <trkpt lat="42.5374426134" lon="1.0269415565">
        <ele>2517.83</ele>
        <time>2019-09-06T06:41:21Z</time>
      </trkpt>
      <trkpt lat="42.5374215748" lon="1.0269364435">
        <ele>2517.83</ele>
        <time>2019-09-06T06:41:24Z</time>
      </trkpt>
      <trkpt lat="42.5373231713" lon="1.0268634371">
        <ele>2517.35</ele>
        <time>2019-09-06T06:41:36Z</time>
      </trkpt>
      <trkpt lat="42.5372692756" lon="1.0268564802">
        <ele>2516.87</ele>
        <time>2019-09-06T06:41:46Z</time>
      </trkpt>
      <trkpt lat="42.5372182298" lon="1.0268527921">
        <ele>2517.35</ele>
        <time>2019-09-06T06:41:55Z</time>
      </trkpt>
      <trkpt lat="42.5371603947" lon="1.0268635210">
        <ele>2518.79</ele>
        <time>2019-09-06T06:42:03Z</time>
      </trkpt>
      <trkpt lat="42.5370737258" lon="1.0268309992">
        <ele>2519.27</ele>
        <time>2019-09-06T06:42:15Z</time>
      </trkpt>
      <trkpt lat="42.5370528549" lon="1.0268331785">
        <ele>2518.79</ele>
        <time>2019-09-06T06:42:18Z</time>
      </trkpt>
      <trkpt lat="42.5369783398" lon="1.0267652851">
        <ele>2517.35</ele>
        <time>2019-09-06T06:42:31Z</time>
      </trkpt>
      <trkpt lat="42.5369194150" lon="1.0267616808">
        <ele>2516.39</ele>
        <time>2019-09-06T06:42:42Z</time>
      </trkpt>
      <trkpt lat="42.5369013939" lon="1.0267663747">
        <ele>2515.91</ele>
        <time>2019-09-06T06:42:44Z</time>
      </trkpt>
      <trkpt lat="42.5368570536" lon="1.0267626867">
        <ele>2515.91</ele>
        <time>2019-09-06T06:42:48Z</time>
      </trkpt>
      <trkpt lat="42.5367824547" lon="1.0267236270">
        <ele>2516.39</ele>
        <time>2019-09-06T06:42:58Z</time>
      </trkpt>
      <trkpt lat="42.5367694627" lon="1.0267296620">
        <ele>2516.87</ele>
        <time>2019-09-06T06:43:00Z</time>
      </trkpt>
      <trkpt lat="42.5367309898" lon="1.0268031713">
        <ele>2517.35</ele>
        <time>2019-09-06T06:43:11Z</time>
      </trkpt>
      <trkpt lat="42.5366525352" lon="1.0267890897">
        <ele>2519.75</ele>
        <time>2019-09-06T06:43:24Z</time>
      </trkpt>
      <trkpt lat="42.5365691353" lon="1.0268284846">
        <ele>2519.27</ele>
        <time>2019-09-06T06:43:35Z</time>
      </trkpt>
      <trkpt lat="42.5365584902" lon="1.0268304963">
        <ele>2520.23</ele>
        <time>2019-09-06T06:43:37Z</time>
      </trkpt>
      <trkpt lat="42.5364797004" lon="1.0268613417">
        <ele>2520.71</ele>
        <time>2019-09-06T06:43:49Z</time>
      </trkpt>
      <trkpt lat="42.5364630204" lon="1.0267963819">
        <ele>2521.19</ele>
        <time>2019-09-06T06:43:59Z</time>
      </trkpt>
      <trkpt lat="42.5364600867" lon="1.0266991518">
        <ele>2521.68</ele>
        <time>2019-09-06T06:44:10Z</time>
      </trkpt>
      <trkpt lat="42.5364221167" lon="1.0266268998">
        <ele>2523.60</ele>
        <time>2019-09-06T06:44:22Z</time>
      </trkpt>
      <trkpt lat="42.5363585819" lon="1.0265797935">
        <ele>2525.04</ele>
        <time>2019-09-06T06:44:34Z</time>
      </trkpt>
      <trkpt lat="42.5362981483" lon="1.0265693162">
        <ele>2526.00</ele>
        <time>2019-09-06T06:44:46Z</time>
      </trkpt>
      <trkpt lat="42.5362627767" lon="1.0265725851">
        <ele>2527.92</ele>
        <time>2019-09-06T06:44:56Z</time>
      </trkpt>
      <trkpt lat="42.5362470187" lon="1.0265626106">
        <ele>2528.89</ele>
        <time>2019-09-06T06:45:13Z</time>
      </trkpt>
      <trkpt lat="42.5362417381" lon="1.0265019257">
        <ele>2529.85</ele>
        <time>2019-09-06T06:45:23Z</time>
      </trkpt>
      <trkpt lat="42.5361980684" lon="1.0264361277">
        <ele>2531.77</ele>
        <time>2019-09-06T06:45:36Z</time>
      </trkpt>
      <trkpt lat="42.5361878425" lon="1.0264263209">
        <ele>2531.77</ele>
        <time>2019-09-06T06:45:48Z</time>
      </trkpt>
      <trkpt lat="42.5361911114" lon="1.0264125746">
        <ele>2531.77</ele>
        <time>2019-09-06T06:46:12Z</time>
      </trkpt>
      <trkpt lat="42.5361973979" lon="1.0264230520">
        <ele>2531.77</ele>
        <time>2019-09-06T06:46:29Z</time>
      </trkpt>
      <trkpt lat="42.5361875910" lon="1.0264321882">
        <ele>2531.77</ele>
        <time>2019-09-06T06:46:45Z</time>
      </trkpt>
      <trkpt lat="42.5361810531" lon="1.0264361277">
        <ele>2531.77</ele>
        <time>2019-09-06T06:47:06Z</time>
      </trkpt>
      <trkpt lat="42.5361829810" lon="1.0264349543">
        <ele>2531.77</ele>
        <time>2019-09-06T06:47:28Z</time>
      </trkpt>
      <trkpt lat="42.5361886807" lon="1.0264259856">
        <ele>2531.77</ele>
        <time>2019-09-06T06:47:47Z</time>
      </trkpt>
      <trkpt lat="42.5361930393" lon="1.0264299251">
        <ele>2531.77</ele>
        <time>2019-09-06T06:48:10Z</time>
      </trkpt>
      <trkpt lat="42.5361914467" lon="1.0264110658">
        <ele>2531.77</ele>
        <time>2019-09-06T06:48:19Z</time>
      </trkpt>
      <trkpt lat="42.5361813884" lon="1.0264310148">
        <ele>2531.77</ele>
        <time>2019-09-06T06:48:32Z</time>
      </trkpt>
      <trkpt lat="42.5361812208" lon="1.0264207888">
        <ele>2531.77</ele>
        <time>2019-09-06T06:48:51Z</time>
      </trkpt>
      <trkpt lat="42.5361676421" lon="1.0263594333">
        <ele>2531.77</ele>
        <time>2019-09-06T06:49:02Z</time>
      </trkpt>
      <trkpt lat="42.5361613557" lon="1.0262740217">
        <ele>2532.73</ele>
        <time>2019-09-06T06:49:14Z</time>
      </trkpt>
      <trkpt lat="42.5361305941" lon="1.0262133367">
        <ele>2533.21</ele>
        <time>2019-09-06T06:49:25Z</time>
      </trkpt>
      <trkpt lat="42.5360873435" lon="1.0261678230">
        <ele>2532.73</ele>
        <time>2019-09-06T06:49:36Z</time>
      </trkpt>
      <trkpt lat="42.5360613596" lon="1.0260982532">
        <ele>2531.29</ele>
        <time>2019-09-06T06:49:47Z</time>
      </trkpt>
      <trkpt lat="42.5360409077" lon="1.0260454472">
        <ele>2529.37</ele>
        <time>2019-09-06T06:49:56Z</time>
      </trkpt>
      <trkpt lat="42.5360248983" lon="1.0260223970">
        <ele>2529.37</ele>
        <time>2019-09-06T06:50:02Z</time>
      </trkpt>
      <trkpt lat="42.5359634589" lon="1.0259448644">
        <ele>2529.37</ele>
        <time>2019-09-06T06:50:13Z</time>
      </trkpt>
      <trkpt lat="42.5359213818" lon="1.0259015299">
        <ele>2528.40</ele>
        <time>2019-09-06T06:50:24Z</time>
      </trkpt>
      <trkpt lat="42.5358937215" lon="1.0258861911">
        <ele>2528.40</ele>
        <time>2019-09-06T06:50:28Z</time>
      </trkpt>
      <trkpt lat="42.5358224753" lon="1.0258313734">
        <ele>2527.44</ele>
        <time>2019-09-06T06:50:39Z</time>
      </trkpt>
      <trkpt lat="42.5357457809" lon="1.0257693473">
        <ele>2526.48</ele>
        <time>2019-09-06T06:50:52Z</time>
      </trkpt>
      <trkpt lat="42.5357085653" lon="1.0257370770">
        <ele>2527.44</ele>
        <time>2019-09-06T06:51:04Z</time>
      </trkpt>
      <trkpt lat="42.5356858503" lon="1.0256998613">
        <ele>2527.44</ele>
        <time>2019-09-06T06:51:14Z</time>
      </trkpt>
      <trkpt lat="42.5356534123" lon="1.0256463010">
        <ele>2528.40</ele>
        <time>2019-09-06T06:51:24Z</time>
      </trkpt>
      <trkpt lat="42.5356244110" lon="1.0256339796">
        <ele>2528.40</ele>
        <time>2019-09-06T06:51:34Z</time>
      </trkpt>
      <trkpt lat="42.5355942361" lon="1.0256516654">
        <ele>2529.37</ele>
        <time>2019-09-06T06:51:46Z</time>
      </trkpt>
      <trkpt lat="42.5355353951" lon="1.0256409366">
        <ele>2530.81</ele>
        <time>2019-09-06T06:51:59Z</time>
      </trkpt>
      <trkpt lat="42.5354932342" lon="1.0255963448">
        <ele>2532.73</ele>
        <time>2019-09-06T06:52:13Z</time>
      </trkpt>
      <trkpt lat="42.5354592875" lon="1.0255473107">
        <ele>2534.65</ele>
        <time>2019-09-06T06:52:26Z</time>
      </trkpt>
      <trkpt lat="42.5354333036" lon="1.0254942533">
        <ele>2536.10</ele>
        <time>2019-09-06T06:52:38Z</time>
      </trkpt>
      <trkpt lat="42.5354048051" lon="1.0255261045">
        <ele>2537.06</ele>
        <time>2019-09-06T06:52:49Z</time>
      </trkpt>
      <trkpt lat="42.5353784859" lon="1.0255639069">
        <ele>2538.50</ele>
        <time>2019-09-06T06:52:57Z</time>
      </trkpt>
      <trkpt lat="42.5353689305" lon="1.0255789105">
        <ele>2539.94</ele>
        <time>2019-09-06T06:53:07Z</time>
      </trkpt>
      <trkpt lat="42.5353537593" lon="1.0256266873">
        <ele>2540.42</ele>
        <time>2019-09-06T06:53:15Z</time>
      </trkpt>
      <trkpt lat="42.5353168789" lon="1.0256350692">
        <ele>2541.86</ele>
        <time>2019-09-06T06:53:24Z</time>
      </trkpt>
      <trkpt lat="42.5352789089" lon="1.0256758891">
        <ele>2543.79</ele>
        <time>2019-09-06T06:53:35Z</time>
      </trkpt>
      <trkpt lat="42.5352385920" lon="1.0256925691">
        <ele>2545.23</ele>
        <time>2019-09-06T06:53:46Z</time>
      </trkpt>
      <trkpt lat="42.5351613108" lon="1.0257236660">
        <ele>2546.19</ele>
        <time>2019-09-06T06:53:59Z</time>
      </trkpt>
      <trkpt lat="42.5351338182" lon="1.0257221572">
        <ele>2548.11</ele>
        <time>2019-09-06T06:54:11Z</time>
      </trkpt>
      <trkpt lat="42.5350670982" lon="1.0257152840">
        <ele>2549.55</ele>
        <time>2019-09-06T06:54:21Z</time>
      </trkpt>
      <trkpt lat="42.5349744782" lon="1.0256761406">
        <ele>2551.96</ele>
        <time>2019-09-06T06:54:33Z</time>
      </trkpt>
      <trkpt lat="42.5349646714" lon="1.0256739613">
        <ele>2551.96</ele>
        <time>2019-09-06T06:54:34Z</time>
      </trkpt>
      <trkpt lat="42.5348306447" lon="1.0255473107">
        <ele>2549.07</ele>
        <time>2019-09-06T06:54:51Z</time>
      </trkpt>
      <trkpt lat="42.5347744022" lon="1.0254577082">
        <ele>2549.07</ele>
        <time>2019-09-06T06:55:03Z</time>
      </trkpt>
      <trkpt lat="42.5347714685" lon="1.0254300479">
        <ele>2548.11</ele>
        <time>2019-09-06T06:55:07Z</time>
      </trkpt>
      <trkpt lat="42.5347759109" lon="1.0253235977">
        <ele>2546.19</ele>
        <time>2019-09-06T06:55:17Z</time>
      </trkpt>
      <trkpt lat="42.5347503461" lon="1.0252609011">
        <ele>2544.75</ele>
        <time>2019-09-06T06:55:29Z</time>
      </trkpt>
      <trkpt lat="42.5347143039" lon="1.0252960213">
        <ele>2542.82</ele>
        <time>2019-09-06T06:55:39Z</time>
      </trkpt>
      <trkpt lat="42.5346650183" lon="1.0253279563">
        <ele>2540.42</ele>
        <time>2019-09-06T06:55:52Z</time>
      </trkpt>
      <trkpt lat="42.5346423034" lon="1.0253178980">
        <ele>2538.50</ele>
        <time>2019-09-06T06:56:00Z</time>
      </trkpt>
      <trkpt lat="42.5346102007" lon="1.0252956022">
        <ele>2537.54</ele>
        <time>2019-09-06T06:56:06Z</time>
      </trkpt>
      <trkpt lat="42.5345317461" lon="1.0253099352">
        <ele>2535.13</ele>
        <time>2019-09-06T06:56:17Z</time>
      </trkpt>
      <trkpt lat="42.5344631821" lon="1.0253170598">
        <ele>2532.73</ele>
        <time>2019-09-06T06:56:27Z</time>
      </trkpt>
      <trkpt lat="42.5344180875" lon="1.0253279563">
        <ele>2531.77</ele>
        <time>2019-09-06T06:56:37Z</time>
      </trkpt>
      <trkpt lat="42.5343491882" lon="1.0253295489">
        <ele>2529.37</ele>
        <time>2019-09-06T06:56:48Z</time>
      </trkpt>
      <trkpt lat="42.5343013275" lon="1.0253415350">
        <ele>2527.44</ele>
        <time>2019-09-06T06:56:59Z</time>
      </trkpt>
      <trkpt lat="42.5342275668" lon="1.0253725480">
        <ele>2526.48</ele>
        <time>2019-09-06T06:57:09Z</time>
      </trkpt>
      <trkpt lat="42.5340865832" lon="1.0254611447">
        <ele>2526.00</ele>
        <time>2019-09-06T06:57:23Z</time>
      </trkpt>
      <trkpt lat="42.5339907780" lon="1.0254545230">
        <ele>2526.48</ele>
        <time>2019-09-06T06:57:36Z</time>
      </trkpt>
      <trkpt lat="42.5339542329" lon="1.0254513379">
        <ele>2528.40</ele>
        <time>2019-09-06T06:57:42Z</time>
      </trkpt>
      <trkpt lat="42.5338951405" lon="1.0254759807">
        <ele>2528.89</ele>
        <time>2019-09-06T06:57:50Z</time>
      </trkpt>
      <trkpt lat="42.5338119920" lon="1.0255059041">
        <ele>2528.40</ele>
        <time>2019-09-06T06:58:01Z</time>
      </trkpt>
      <trkpt lat="42.5337597728" lon="1.0255398508">
        <ele>2527.44</ele>
        <time>2019-09-06T06:58:12Z</time>
      </trkpt>
      <trkpt lat="42.5337306876" lon="1.0255580395">
        <ele>2526.96</ele>
        <time>2019-09-06T06:58:17Z</time>
      </trkpt>
      <trkpt lat="42.5336606149" lon="1.0256091692">
        <ele>2526.48</ele>
        <time>2019-09-06T06:58:26Z</time>
      </trkpt>
      <trkpt lat="42.5336211361" lon="1.0256579518">
        <ele>2528.40</ele>
        <time>2019-09-06T06:58:38Z</time>
      </trkpt>
      <trkpt lat="42.5336004328" lon="1.0256530065">
        <ele>2529.85</ele>
        <time>2019-09-06T06:58:49Z</time>
      </trkpt>
      <trkpt lat="42.5335744489" lon="1.0256601311">
        <ele>2531.29</ele>
        <time>2019-09-06T06:58:59Z</time>
      </trkpt>
      <trkpt lat="42.5335598644" lon="1.0256717820">
        <ele>2531.77</ele>
        <time>2019-09-06T06:59:02Z</time>
      </trkpt>
      <trkpt lat="42.5335125066" lon="1.0256699380">
        <ele>2531.77</ele>
        <time>2019-09-06T06:59:07Z</time>
      </trkpt>
      <trkpt lat="42.5334538333" lon="1.0256607179">
        <ele>2533.21</ele>
        <time>2019-09-06T06:59:17Z</time>
      </trkpt>
      <trkpt lat="42.5334063079" lon="1.0256918147">
        <ele>2535.13</ele>
        <time>2019-09-06T06:59:28Z</time>
      </trkpt>
      <trkpt lat="42.5333986804" lon="1.0256485641">
        <ele>2536.58</ele>
        <time>2019-09-06T06:59:39Z</time>
      </trkpt>
      <trkpt lat="42.5333804917" lon="1.0256299563">
        <ele>2539.94</ele>
        <time>2019-09-06T06:59:48Z</time>
      </trkpt>
      <trkpt lat="42.5333462097" lon="1.0255882982">
        <ele>2540.90</ele>
        <time>2019-09-06T06:59:59Z</time>
      </trkpt>
      <trkpt lat="42.5333041325" lon="1.0255930759">
        <ele>2541.38</ele>
        <time>2019-09-06T07:00:14Z</time>
      </trkpt>
      <trkpt lat="42.5333017018" lon="1.0255847778">
        <ele>2542.34</ele>
        <time>2019-09-06T07:00:25Z</time>
      </trkpt>
      <trkpt lat="42.5332935713" lon="1.0256221611">
        <ele>2541.86</ele>
        <time>2019-09-06T07:00:33Z</time>
      </trkpt>
      <trkpt lat="42.5332929846" lon="1.0256178863">
        <ele>2540.90</ele>
        <time>2019-09-06T07:00:58Z</time>
      </trkpt>
      <trkpt lat="42.5332975946" lon="1.0255974345">
        <ele>2541.38</ele>
        <time>2019-09-06T07:01:20Z</time>
      </trkpt>
      <trkpt lat="42.5332846027" lon="1.0255913995">
        <ele>2541.38</ele>
        <time>2019-09-06T07:01:37Z</time>
      </trkpt>
      <trkpt lat="42.5332907215" lon="1.0256035533">
        <ele>2541.38</ele>
        <time>2019-09-06T07:01:49Z</time>
      </trkpt>
      <trkpt lat="42.5332908891" lon="1.0256126057">
        <ele>2541.38</ele>
        <time>2019-09-06T07:02:03Z</time>
      </trkpt>
      <trkpt lat="42.5333035458" lon="1.0256201494">
        <ele>2541.38</ele>
        <time>2019-09-06T07:02:18Z</time>
      </trkpt>
      <trkpt lat="42.5333136041" lon="1.0256033856">
        <ele>2541.38</ele>
        <time>2019-09-06T07:02:43Z</time>
      </trkpt>
      <trkpt lat="42.5333043002" lon="1.0256108455">
        <ele>2541.38</ele>
        <time>2019-09-06T07:03:07Z</time>
      </trkpt>
      <trkpt lat="42.5333083235" lon="1.0255743843">
        <ele>2541.38</ele>
        <time>2019-09-06T07:03:22Z</time>
      </trkpt>
      <trkpt lat="42.5333026238" lon="1.0255763959">
        <ele>2541.38</ele>
        <time>2019-09-06T07:03:40Z</time>
      </trkpt>
      <trkpt lat="42.5333016180" lon="1.0255666729">
        <ele>2541.38</ele>
        <time>2019-09-06T07:03:59Z</time>
      </trkpt>
      <trkpt lat="42.5333040487" lon="1.0255728755">
        <ele>2541.38</ele>
        <time>2019-09-06T07:04:15Z</time>
      </trkpt>
      <trkpt lat="42.5332989357" lon="1.0255478136">
        <ele>2541.38</ele>
        <time>2019-09-06T07:04:29Z</time>
      </trkpt>
      <trkpt lat="42.5332806632" lon="1.0255223326">
        <ele>2541.38</ele>
        <time>2019-09-06T07:04:40Z</time>
      </trkpt>
      <trkpt lat="42.5332150329" lon="1.0254915711">
        <ele>2539.46</ele>
        <time>2019-09-06T07:04:52Z</time>
      </trkpt>
      <trkpt lat="42.5331836008" lon="1.0254810937">
        <ele>2538.98</ele>
        <time>2019-09-06T07:05:04Z</time>
      </trkpt>
      <trkpt lat="42.5331616402" lon="1.0254631564">
        <ele>2538.98</ele>
        <time>2019-09-06T07:05:17Z</time>
      </trkpt>
      <trkpt lat="42.5331312977" lon="1.0253545269">
        <ele>2538.98</ele>
        <time>2019-09-06T07:05:29Z</time>
      </trkpt>
      <trkpt lat="42.5331029668" lon="1.0252821911">
        <ele>2539.94</ele>
        <time>2019-09-06T07:05:40Z</time>
      </trkpt>
      <trkpt lat="42.5330867060" lon="1.0252020601">
        <ele>2540.90</ele>
        <time>2019-09-06T07:05:51Z</time>
      </trkpt>
      <trkpt lat="42.5330754742" lon="1.0252033174">
        <ele>2541.38</ele>
        <time>2019-09-06T07:05:52Z</time>
      </trkpt>
      <trkpt lat="42.5330445450" lon="1.0251883976">
        <ele>2541.86</ele>
        <time>2019-09-06T07:05:55Z</time>
      </trkpt>
      <trkpt lat="42.5329701975" lon="1.0250973701">
        <ele>2543.79</ele>
        <time>2019-09-06T07:06:08Z</time>
      </trkpt>
      <trkpt lat="42.5329107698" lon="1.0249925125">
        <ele>2542.82</ele>
        <time>2019-09-06T07:06:19Z</time>
      </trkpt>
      <trkpt lat="42.5328510907" lon="1.0249734856">
        <ele>2543.79</ele>
        <time>2019-09-06T07:06:30Z</time>
      </trkpt>
      <trkpt lat="42.5328028947" lon="1.0249643493">
        <ele>2544.27</ele>
        <time>2019-09-06T07:06:42Z</time>
      </trkpt>
      <trkpt lat="42.5327633321" lon="1.0249910038">
        <ele>2543.31</ele>
        <time>2019-09-06T07:06:51Z</time>
      </trkpt>
      <trkpt lat="42.5327134598" lon="1.0249448195">
        <ele>2542.82</ele>
        <time>2019-09-06T07:07:02Z</time>
      </trkpt>
      <trkpt lat="42.5326685328" lon="1.0248801112">
        <ele>2542.82</ele>
        <time>2019-09-06T07:07:13Z</time>
      </trkpt>
      <trkpt lat="42.5326454826" lon="1.0248707235">
        <ele>2543.31</ele>
        <time>2019-09-06T07:07:23Z</time>
      </trkpt>
      <trkpt lat="42.5326208398" lon="1.0248221084">
        <ele>2541.86</ele>
        <time>2019-09-06T07:07:32Z</time>
      </trkpt>
      <trkpt lat="42.5325820316" lon="1.0247987229">
        <ele>2540.42</ele>
        <time>2019-09-06T07:07:42Z</time>
      </trkpt>
      <trkpt lat="42.5325099472" lon="1.0247776005">
        <ele>2539.46</ele>
        <time>2019-09-06T07:07:54Z</time>
      </trkpt>
      <trkpt lat="42.5324620865" lon="1.0247149877">
        <ele>2540.42</ele>
        <time>2019-09-06T07:08:06Z</time>
      </trkpt>
      <trkpt lat="42.5324139744" lon="1.0246693064">
        <ele>2541.38</ele>
        <time>2019-09-06T07:08:15Z</time>
      </trkpt>
      <trkpt lat="42.5323935226" lon="1.0246504471">
        <ele>2541.38</ele>
        <time>2019-09-06T07:08:18Z</time>
      </trkpt>
      <trkpt lat="42.5323932711" lon="1.0245710704">
        <ele>2541.86</ele>
        <time>2019-09-06T07:08:29Z</time>
      </trkpt>
      <trkpt lat="42.5323211029" lon="1.0245102178">
        <ele>2544.27</ele>
        <time>2019-09-06T07:08:42Z</time>
      </trkpt>
      <trkpt lat="42.5322646089" lon="1.0244548973">
        <ele>2547.63</ele>
        <time>2019-09-06T07:08:55Z</time>
      </trkpt>
      <trkpt lat="42.5322197657" lon="1.0243778676">
        <ele>2549.07</ele>
        <time>2019-09-06T07:09:08Z</time>
      </trkpt>
      <trkpt lat="42.5321934465" lon="1.0243077949">
        <ele>2548.11</ele>
        <time>2019-09-06T07:09:18Z</time>
      </trkpt>
      <trkpt lat="42.5321056880" lon="1.0242504627">
        <ele>2548.59</ele>
        <time>2019-09-06T07:09:31Z</time>
      </trkpt>
      <trkpt lat="42.5320895948" lon="1.0242045298">
        <ele>2550.51</ele>
        <time>2019-09-06T07:09:41Z</time>
      </trkpt>
      <trkpt lat="42.5320712384" lon="1.0241386481">
        <ele>2552.44</ele>
        <time>2019-09-06T07:09:53Z</time>
      </trkpt>
      <trkpt lat="42.5319987349" lon="1.0241059586">
        <ele>2553.40</ele>
        <time>2019-09-06T07:10:03Z</time>
      </trkpt>
      <trkpt lat="42.5319717452" lon="1.0240549967">
        <ele>2554.84</ele>
        <time>2019-09-06T07:10:15Z</time>
      </trkpt>
      <trkpt lat="42.5319155026" lon="1.0240415018">
        <ele>2555.80</ele>
        <time>2019-09-06T07:10:26Z</time>
      </trkpt>
      <trkpt lat="42.5319249742" lon="1.0239972454">
        <ele>2556.76</ele>
        <time>2019-09-06T07:10:37Z</time>
      </trkpt>
      <trkpt lat="42.5319383014" lon="1.0239545815">
        <ele>2559.17</ele>
        <time>2019-09-06T07:10:48Z</time>
      </trkpt>
      <trkpt lat="42.5319338590" lon="1.0239198804">
        <ele>2560.13</ele>
        <time>2019-09-06T07:10:57Z</time>
      </trkpt>
      <trkpt lat="42.5319274049" lon="1.0239135101">
        <ele>2562.05</ele>
        <time>2019-09-06T07:11:08Z</time>
      </trkpt>
      <trkpt lat="42.5319170952" lon="1.0238838382">
        <ele>2563.01</ele>
        <time>2019-09-06T07:11:20Z</time>
      </trkpt>
      <trkpt lat="42.5318954699" lon="1.0238609556">
        <ele>2563.49</ele>
        <time>2019-09-06T07:11:30Z</time>
      </trkpt>
      <trkpt lat="42.5318777002" lon="1.0238247458">
        <ele>2564.93</ele>
        <time>2019-09-06T07:11:40Z</time>
      </trkpt>
      <trkpt lat="42.5318425801" lon="1.0237918049">
        <ele>2566.86</ele>
        <time>2019-09-06T07:11:51Z</time>
      </trkpt>
      <trkpt lat="42.5317959767" lon="1.0237510689">
        <ele>2568.78</ele>
        <time>2019-09-06T07:12:03Z</time>
      </trkpt>
      <trkpt lat="42.5317606051" lon="1.0237552598">
        <ele>2569.26</ele>
        <time>2019-09-06T07:12:08Z</time>
      </trkpt>
      <trkpt lat="42.5316683203" lon="1.0237187985">
        <ele>2570.22</ele>
        <time>2019-09-06T07:12:21Z</time>
      </trkpt>
      <trkpt lat="42.5316006783" lon="1.0237092432">
        <ele>2570.22</ele>
        <time>2019-09-06T07:12:33Z</time>
      </trkpt>
      <trkpt lat="42.5315514766" lon="1.0236776434">
        <ele>2570.22</ele>
        <time>2019-09-06T07:12:44Z</time>
      </trkpt>
      <trkpt lat="42.5315050408" lon="1.0236535873">
        <ele>2572.14</ele>
        <time>2019-09-06T07:12:55Z</time>
      </trkpt>
      <trkpt lat="42.5314657297" lon="1.0236550961">
        <ele>2571.18</ele>
        <time>2019-09-06T07:13:06Z</time>
      </trkpt>
      <trkpt lat="42.5314443558" lon="1.0236072354">
        <ele>2572.14</ele>
        <time>2019-09-06T07:13:18Z</time>
      </trkpt>
      <trkpt lat="42.5314042903" lon="1.0235585365">
        <ele>2573.11</ele>
        <time>2019-09-06T07:13:31Z</time>
      </trkpt>
      <trkpt lat="42.5313695893" lon="1.0235146992">
        <ele>2575.03</ele>
        <time>2019-09-06T07:13:41Z</time>
      </trkpt>
      <trkpt lat="42.5314094871" lon="1.0234527569">
        <ele>2575.99</ele>
        <time>2019-09-06T07:13:52Z</time>
      </trkpt>
      <trkpt lat="42.5313598663" lon="1.0234132782">
        <ele>2577.43</ele>
        <time>2019-09-06T07:14:04Z</time>
      </trkpt>
      <trkpt lat="42.5313328765" lon="1.0233853664">
        <ele>2578.87</ele>
        <time>2019-09-06T07:14:15Z</time>
      </trkpt>
      <trkpt lat="42.5312659889" lon="1.0233898088">
        <ele>2578.87</ele>
        <time>2019-09-06T07:14:25Z</time>
      </trkpt>
      <trkpt lat="42.5312445313" lon="1.0233183950">
        <ele>2579.84</ele>
        <time>2019-09-06T07:14:36Z</time>
      </trkpt>
      <trkpt lat="42.5311929826" lon="1.0232696962">
        <ele>2580.32</ele>
        <time>2019-09-06T07:14:46Z</time>
      </trkpt>
      <trkpt lat="42.5311512407" lon="1.0232056584">
        <ele>2580.80</ele>
        <time>2019-09-06T07:14:56Z</time>
      </trkpt>
      <trkpt lat="42.5311213173" lon="1.0231302213">
        <ele>2582.24</ele>
        <time>2019-09-06T07:15:08Z</time>
      </trkpt>
      <trkpt lat="42.5311433617" lon="1.0230712965">
        <ele>2584.16</ele>
        <time>2019-09-06T07:15:22Z</time>
      </trkpt>
      <trkpt lat="42.5311060622" lon="1.0230759904">
        <ele>2586.56</ele>
        <time>2019-09-06T07:15:34Z</time>
      </trkpt>
      <trkpt lat="42.5310793240" lon="1.0230162274">
        <ele>2587.53</ele>
        <time>2019-09-06T07:15:45Z</time>
      </trkpt>
      <trkpt lat="42.5310810003" lon="1.0229401197">
        <ele>2589.45</ele>
        <time>2019-09-06T07:15:57Z</time>
      </trkpt>
      <trkpt lat="42.5310385041" lon="1.0228957795">
        <ele>2591.37</ele>
        <time>2019-09-06T07:16:05Z</time>
      </trkpt>
      <trkpt lat="42.5309842732" lon="1.0228381958">
        <ele>2592.81</ele>
        <time>2019-09-06T07:16:17Z</time>
      </trkpt>
      <trkpt lat="42.5309130270" lon="1.0227894969">
        <ele>2594.25</ele>
        <time>2019-09-06T07:16:28Z</time>
      </trkpt>
      <trkpt lat="42.5308686867" lon="1.0227672011">
        <ele>2595.70</ele>
        <time>2019-09-06T07:16:39Z</time>
      </trkpt>
      <trkpt lat="42.5308126956" lon="1.0227226932">
        <ele>2597.62</ele>
        <time>2019-09-06T07:16:52Z</time>
      </trkpt>
      <trkpt lat="42.5307924114" lon="1.0226816218">
        <ele>2600.02</ele>
        <time>2019-09-06T07:17:03Z</time>
      </trkpt>
      <trkpt lat="42.5307460595" lon="1.0226579010">
        <ele>2601.46</ele>
        <time>2019-09-06T07:17:15Z</time>
      </trkpt>
      <trkpt lat="42.5307204947" lon="1.0226254631">
        <ele>2603.39</ele>
        <time>2019-09-06T07:17:28Z</time>
      </trkpt>
      <trkpt lat="42.5307221711" lon="1.0225929413">
        <ele>2604.83</ele>
        <time>2019-09-06T07:17:38Z</time>
      </trkpt>
      <trkpt lat="42.5307434611" lon="1.0225563962">
        <ele>2607.23</ele>
        <time>2019-09-06T07:17:52Z</time>
      </trkpt>
      <trkpt lat="42.5307448860" lon="1.0225209408">
        <ele>2607.23</ele>
        <time>2019-09-06T07:18:09Z</time>
      </trkpt>
      <trkpt lat="42.5307356659" lon="1.0224649496">
        <ele>2608.19</ele>
        <time>2019-09-06T07:18:20Z</time>
      </trkpt>
      <trkpt lat="42.5307510048" lon="1.0224138200">
        <ele>2611.56</ele>
        <time>2019-09-06T07:18:31Z</time>
      </trkpt>
      <trkpt lat="42.5307327323" lon="1.0223618522">
        <ele>2612.52</ele>
        <time>2019-09-06T07:18:42Z</time>
      </trkpt>
      <trkpt lat="42.5307217520" lon="1.0223176796">
        <ele>2614.44</ele>
        <time>2019-09-06T07:18:52Z</time>
      </trkpt>
      <trkpt lat="42.5307004619" lon="1.0222630296">
        <ele>2616.85</ele>
        <time>2019-09-06T07:19:05Z</time>
      </trkpt>
      <trkpt lat="42.5306535233" lon="1.0222273227">
        <ele>2618.77</ele>
        <time>2019-09-06T07:19:17Z</time>
      </trkpt>
      <trkpt lat="42.5306059141" lon="1.0221903585">
        <ele>2620.21</ele>
        <time>2019-09-06T07:19:29Z</time>
      </trkpt>
      <trkpt lat="42.5305842888" lon="1.0221362952">
        <ele>2622.13</ele>
        <time>2019-09-06T07:19:38Z</time>
      </trkpt>
      <trkpt lat="42.5305371825" lon="1.0221113171">
        <ele>2624.06</ele>
        <time>2019-09-06T07:19:50Z</time>
      </trkpt>
      <trkpt lat="42.5304662716" lon="1.0221297573">
        <ele>2625.98</ele>
        <time>2019-09-06T07:20:03Z</time>
      </trkpt>
      <trkpt lat="42.5304820295" lon="1.0220606904">
        <ele>2627.90</ele>
        <time>2019-09-06T07:20:14Z</time>
      </trkpt>
      <trkpt lat="42.5304568838" lon="1.0219925456">
        <ele>2629.82</ele>
        <time>2019-09-06T07:20:26Z</time>
      </trkpt>
      <trkpt lat="42.5303767528" lon="1.0219565034">
        <ele>2631.27</ele>
        <time>2019-09-06T07:20:40Z</time>
      </trkpt>
      <trkpt lat="42.5303412974" lon="1.0219171923">
        <ele>2633.67</ele>
        <time>2019-09-06T07:20:51Z</time>
      </trkpt>
      <trkpt lat="42.5303137209" lon="1.0218791384">
        <ele>2635.59</ele>
        <time>2019-09-06T07:21:02Z</time>
      </trkpt>
      <trkpt lat="42.5302669499" lon="1.0218907055">
        <ele>2637.03</ele>
        <time>2019-09-06T07:21:13Z</time>
      </trkpt>
      <trkpt lat="42.5302410498" lon="1.0218516458">
        <ele>2637.99</ele>
        <time>2019-09-06T07:21:22Z</time>
      </trkpt>
      <trkpt lat="42.5302219391" lon="1.0217957385">
        <ele>2639.44</ele>
        <time>2019-09-06T07:21:35Z</time>
      </trkpt>
      <trkpt lat="42.5301774312" lon="1.0217561759">
        <ele>2640.88</ele>
        <time>2019-09-06T07:21:46Z</time>
      </trkpt>
      <trkpt lat="42.5301418081" lon="1.0217190441">
        <ele>2642.80</ele>
        <time>2019-09-06T07:21:56Z</time>
      </trkpt>
      <trkpt lat="42.5301432330" lon="1.0216597840">
        <ele>2644.72</ele>
        <time>2019-09-06T07:22:09Z</time>
      </trkpt>
      <trkpt lat="42.5301004853" lon="1.0216281004">
        <ele>2646.65</ele>
        <time>2019-09-06T07:22:20Z</time>
      </trkpt>
      <trkpt lat="42.5300551392" lon="1.0216009431">
        <ele>2648.57</ele>
        <time>2019-09-06T07:22:32Z</time>
      </trkpt>
      <trkpt lat="42.5300263055" lon="1.0215653200">
        <ele>2651.45</ele>
        <time>2019-09-06T07:22:42Z</time>
      </trkpt>
      <trkpt lat="42.5299869943" lon="1.0215260927">
        <ele>2653.86</ele>
        <time>2019-09-06T07:22:53Z</time>
      </trkpt>
      <trkpt lat="42.5299321767" lon="1.0215151124">
        <ele>2655.30</ele>
        <time>2019-09-06T07:23:04Z</time>
      </trkpt>
      <trkpt lat="42.5298869982" lon="1.0214861110">
        <ele>2658.18</ele>
        <time>2019-09-06T07:23:15Z</time>
      </trkpt>
      <trkpt lat="42.5298266485" lon="1.0214644857">
        <ele>2660.11</ele>
        <time>2019-09-06T07:23:26Z</time>
      </trkpt>
      <trkpt lat="42.5298225414" lon="1.0214126017">
        <ele>2661.55</ele>
        <time>2019-09-06T07:23:38Z</time>
      </trkpt>
      <trkpt lat="42.5298629422" lon="1.0213482287">
        <ele>2663.95</ele>
        <time>2019-09-06T07:23:48Z</time>
      </trkpt>
      <trkpt lat="42.5298884232" lon="1.0212473106">
        <ele>2665.39</ele>
        <time>2019-09-06T07:24:01Z</time>
      </trkpt>
      <trkpt lat="42.5298735034" lon="1.0211353283">
        <ele>2665.39</ele>
        <time>2019-09-06T07:24:11Z</time>
      </trkpt>
      <trkpt lat="42.5298571587" lon="1.0210764036">
        <ele>2664.91</ele>
        <time>2019-09-06T07:24:19Z</time>
      </trkpt>
      <trkpt lat="42.5298476871" lon="1.0210674349">
        <ele>2664.43</ele>
        <time>2019-09-06T07:24:42Z</time>
      </trkpt>
      <trkpt lat="42.5298407301" lon="1.0210633278">
        <ele>2663.95</ele>
        <time>2019-09-06T07:24:57Z</time>
      </trkpt>
      <trkpt lat="42.5298329350" lon="1.0210769903">
        <ele>2663.95</ele>
        <time>2019-09-06T07:25:15Z</time>
      </trkpt>
      <trkpt lat="42.5298177637" lon="1.0210606456">
        <ele>2664.43</ele>
        <time>2019-09-06T07:25:35Z</time>
      </trkpt>
      <trkpt lat="42.5298170932" lon="1.0210670996">
        <ele>2663.47</ele>
        <time>2019-09-06T07:25:55Z</time>
      </trkpt>
      <trkpt lat="42.5298245531" lon="1.0210580472">
        <ele>2663.95</ele>
        <time>2019-09-06T07:26:24Z</time>
      </trkpt>
      <trkpt lat="42.5297870021" lon="1.0210179817">
        <ele>2663.95</ele>
        <time>2019-09-06T07:26:35Z</time>
      </trkpt>
      <trkpt lat="42.5297707412" lon="1.0209536925">
        <ele>2663.95</ele>
        <time>2019-09-06T07:26:46Z</time>
      </trkpt>
      <trkpt lat="42.5297833141" lon="1.0209408682">
        <ele>2663.95</ele>
        <time>2019-09-06T07:26:54Z</time>
      </trkpt>
      <trkpt lat="42.5297756866" lon="1.0208889004">
        <ele>2663.95</ele>
        <time>2019-09-06T07:27:06Z</time>
      </trkpt>
      <trkpt lat="42.5297705736" lon="1.0208737291">
        <ele>2657.22</ele>
        <time>2019-09-06T07:27:10Z</time>
      </trkpt>
      <trkpt lat="42.5297688972" lon="1.0208667722">
        <ele>2657.22</ele>
        <time>2019-09-06T07:27:11Z</time>
      </trkpt>
      <trkpt lat="42.5297539774" lon="1.0208236892">
        <ele>2656.74</ele>
        <time>2019-09-06T07:27:23Z</time>
      </trkpt>
      <trkpt lat="42.5297253951" lon="1.0208132118">
        <ele>2655.78</ele>
        <time>2019-09-06T07:27:34Z</time>
      </trkpt>
      <trkpt lat="42.5297044404" lon="1.0207527783">
        <ele>2654.82</ele>
        <time>2019-09-06T07:27:48Z</time>
      </trkpt>
      <trkpt lat="42.5296838209" lon="1.0206758324">
        <ele>2653.38</ele>
        <time>2019-09-06T07:27:59Z</time>
      </trkpt>
      <trkpt lat="42.5296737626" lon="1.0206464119">
        <ele>2652.42</ele>
        <time>2019-09-06T07:28:04Z</time>
      </trkpt>
      <trkpt lat="42.5296581723" lon="1.0206307378">
        <ele>2652.42</ele>
        <time>2019-09-06T07:28:06Z</time>
      </trkpt>
      <trkpt lat="42.5295984931" lon="1.0205504391">
        <ele>2650.49</ele>
        <time>2019-09-06T07:28:17Z</time>
      </trkpt>
      <trkpt lat="42.5294965692" lon="1.0205479246">
        <ele>2650.49</ele>
        <time>2019-09-06T07:28:27Z</time>
      </trkpt>
      <trkpt lat="42.5294028595" lon="1.0205442365">
        <ele>2650.01</ele>
        <time>2019-09-06T07:28:38Z</time>
      </trkpt>
      <trkpt lat="42.5293719303" lon="1.0204822943">
        <ele>2649.05</ele>
        <time>2019-09-06T07:28:44Z</time>
      </trkpt>
      <trkpt lat="42.5293319486" lon="1.0203847289">
        <ele>2647.61</ele>
        <time>2019-09-06T07:28:53Z</time>
      </trkpt>
      <trkpt lat="42.5293052942" lon="1.0203095432">
        <ele>2646.65</ele>
        <time>2019-09-06T07:29:01Z</time>
      </trkpt>
      <trkpt lat="42.5292938109" lon="1.0202472657">
        <ele>2644.24</ele>
        <time>2019-09-06T07:29:13Z</time>
      </trkpt>
      <trkpt lat="42.5292456150" lon="1.0202676337">
        <ele>2642.32</ele>
        <time>2019-09-06T07:29:22Z</time>
      </trkpt>
      <trkpt lat="42.5292135123" lon="1.0202614311">
        <ele>2639.92</ele>
        <time>2019-09-06T07:29:29Z</time>
      </trkpt>
      <trkpt lat="42.5291984249" lon="1.0201603454">
        <ele>2637.99</ele>
        <time>2019-09-06T07:29:40Z</time>
      </trkpt>
      <trkpt lat="42.5291694235" lon="1.0200901888">
        <ele>2636.55</ele>
        <time>2019-09-06T07:29:49Z</time>
      </trkpt>
      <trkpt lat="42.5291346386" lon="1.0200606845">
        <ele>2634.63</ele>
        <time>2019-09-06T07:30:01Z</time>
      </trkpt>
      <trkpt lat="42.5291338004" lon="1.0200173501">
        <ele>2633.19</ele>
        <time>2019-09-06T07:30:10Z</time>
      </trkpt>
      <trkpt lat="42.5291402545" lon="1.0199855827">
        <ele>2632.71</ele>
        <time>2019-09-06T07:30:15Z</time>
      </trkpt>
      <trkpt lat="42.5291565992" lon="1.0199474450">
        <ele>2632.23</ele>
        <time>2019-09-06T07:30:19Z</time>
      </trkpt>
      <trkpt lat="42.5290615484" lon="1.0198966507">
        <ele>2630.30</ele>
        <time>2019-09-06T07:30:31Z</time>
      </trkpt>
      <trkpt lat="42.5290294457" lon="1.0198412463">
        <ele>2628.86</ele>
        <time>2019-09-06T07:30:41Z</time>
      </trkpt>
      <trkpt lat="42.5289976783" lon="1.0196916293">
        <ele>2627.42</ele>
        <time>2019-09-06T07:30:52Z</time>
      </trkpt>
      <trkpt lat="42.5289789028" lon="1.0196553357">
        <ele>2625.98</ele>
        <time>2019-09-06T07:31:03Z</time>
      </trkpt>
      <trkpt lat="42.5289498176" lon="1.0196088161">
        <ele>2623.58</ele>
        <time>2019-09-06T07:31:13Z</time>
      </trkpt>
      <trkpt lat="42.5289165415" lon="1.0196228139">
        <ele>2622.61</ele>
        <time>2019-09-06T07:31:21Z</time>
      </trkpt>
      <trkpt lat="42.5288853608" lon="1.0197115783">
        <ele>2619.25</ele>
        <time>2019-09-06T07:31:34Z</time>
      </trkpt>
      <trkpt lat="42.5288297888" lon="1.0197342932">
        <ele>2617.81</ele>
        <time>2019-09-06T07:31:46Z</time>
      </trkpt>
      <trkpt lat="42.5288209040" lon="1.0196334589">
        <ele>2615.40</ele>
        <time>2019-09-06T07:31:59Z</time>
      </trkpt>
      <trkpt lat="42.5288033858" lon="1.0195928067">
        <ele>2613.96</ele>
        <time>2019-09-06T07:32:11Z</time>
      </trkpt>
      <trkpt lat="42.5287849456" lon="1.0195861012">
        <ele>2612.04</ele>
        <time>2019-09-06T07:32:21Z</time>
      </trkpt>
      <trkpt lat="42.5287624821" lon="1.0196037870">
        <ele>2612.04</ele>
        <time>2019-09-06T07:32:31Z</time>
      </trkpt>
      <trkpt lat="42.5287457183" lon="1.0195855983">
        <ele>2611.08</ele>
        <time>2019-09-06T07:32:42Z</time>
      </trkpt>
      <trkpt lat="42.5287395157" lon="1.0195364803">
        <ele>2610.60</ele>
        <time>2019-09-06T07:32:56Z</time>
      </trkpt>
      <trkpt lat="42.5287371688" lon="1.0194863565">
        <ele>2607.23</ele>
        <time>2019-09-06T07:33:09Z</time>
      </trkpt>
      <trkpt lat="42.5287691038" lon="1.0194524098">
        <ele>2605.79</ele>
        <time>2019-09-06T07:33:22Z</time>
      </trkpt>
      <trkpt lat="42.5287612248" lon="1.0193859413">
        <ele>2602.43</ele>
        <time>2019-09-06T07:33:35Z</time>
      </trkpt>
      <trkpt lat="42.5287835207" lon="1.0193545930">
        <ele>2602.43</ele>
        <time>2019-09-06T07:33:45Z</time>
      </trkpt>
      <trkpt lat="42.5287776534" lon="1.0193312075">
        <ele>2602.43</ele>
        <time>2019-09-06T07:33:54Z</time>
      </trkpt>
      <trkpt lat="42.5287844427" lon="1.0192885436">
        <ele>2600.50</ele>
        <time>2019-09-06T07:34:05Z</time>
      </trkpt>
      <trkpt lat="42.5287717022" lon="1.0192886274">
        <ele>2599.06</ele>
        <time>2019-09-06T07:34:24Z</time>
      </trkpt>
      <trkpt lat="42.5287603866" lon="1.0192652419">
        <ele>2599.54</ele>
        <time>2019-09-06T07:34:48Z</time>
      </trkpt>
      <trkpt lat="42.5287498254" lon="1.0192344803">
        <ele>2600.50</ele>
        <time>2019-09-06T07:35:21Z</time>
      </trkpt>
      <trkpt lat="42.5287438743" lon="1.0191871226">
        <ele>2599.54</ele>
        <time>2019-09-06T07:35:42Z</time>
      </trkpt>
      <trkpt lat="42.5287484843" lon="1.0191835184">
        <ele>2598.10</ele>
        <time>2019-09-06T07:35:53Z</time>
      </trkpt>
      <trkpt lat="42.5287774019" lon="1.0191406868">
        <ele>2596.18</ele>
        <time>2019-09-06T07:36:03Z</time>
      </trkpt>
      <trkpt lat="42.5288084988" lon="1.0191059019">
        <ele>2593.77</ele>
        <time>2019-09-06T07:36:14Z</time>
      </trkpt>
      <trkpt lat="42.5288395956" lon="1.0190965142">
        <ele>2592.33</ele>
        <time>2019-09-06T07:36:24Z</time>
      </trkpt>
      <trkpt lat="42.5288591255" lon="1.0190649983">
        <ele>2590.89</ele>
        <time>2019-09-06T07:36:35Z</time>
      </trkpt>
      <trkpt lat="42.5288329739" lon="1.0189983621">
        <ele>2588.49</ele>
        <time>2019-09-06T07:36:45Z</time>
      </trkpt>
      <trkpt lat="42.5288399309" lon="1.0189501662">
        <ele>2586.56</ele>
        <time>2019-09-06T07:36:56Z</time>
      </trkpt>
      <trkpt lat="42.5288595445" lon="1.0189173929">
        <ele>2584.16</ele>
        <time>2019-09-06T07:37:06Z</time>
      </trkpt>
      <trkpt lat="42.5288999453" lon="1.0188435484">
        <ele>2581.28</ele>
        <time>2019-09-06T07:37:20Z</time>
      </trkpt>
      <trkpt lat="42.5288644060" lon="1.0187682789">
        <ele>2578.87</ele>
        <time>2019-09-06T07:37:31Z</time>
      </trkpt>
      <trkpt lat="42.5288328063" lon="1.0187683627">
        <ele>2575.99</ele>
        <time>2019-09-06T07:37:45Z</time>
      </trkpt>
      <trkpt lat="42.5288303755" lon="1.0186724737">
        <ele>2575.51</ele>
        <time>2019-09-06T07:37:58Z</time>
      </trkpt>
      <trkpt lat="42.5288278610" lon="1.0186417960">
        <ele>2574.55</ele>
        <time>2019-09-06T07:38:02Z</time>
      </trkpt>
      <trkpt lat="42.5288201496" lon="1.0185879003">
        <ele>2571.66</ele>
        <time>2019-09-06T07:38:13Z</time>
      </trkpt>
      <trkpt lat="42.5287836045" lon="1.0185668617">
        <ele>2569.26</ele>
        <time>2019-09-06T07:38:23Z</time>
      </trkpt>
      <trkpt lat="42.5287560280" lon="1.0184963699">
        <ele>2567.34</ele>
        <time>2019-09-06T07:38:34Z</time>
      </trkpt>
      <trkpt lat="42.5287713669" lon="1.0184625071">
        <ele>2564.93</ele>
        <time>2019-09-06T07:38:46Z</time>
      </trkpt>
      <trkpt lat="42.5287591293" lon="1.0184323322">
        <ele>2562.53</ele>
        <time>2019-09-06T07:38:58Z</time>
      </trkpt>
      <trkpt lat="42.5287353247" lon="1.0184019897">
        <ele>2560.61</ele>
        <time>2019-09-06T07:39:10Z</time>
      </trkpt>
      <trkpt lat="42.5287219975" lon="1.0184010677">
        <ele>2561.09</ele>
        <time>2019-09-06T07:39:33Z</time>
      </trkpt>
      <trkpt lat="42.5287070777" lon="1.0183768440">
        <ele>2560.61</ele>
        <time>2019-09-06T07:39:53Z</time>
      </trkpt>
      <trkpt lat="42.5286385976" lon="1.0183378682">
        <ele>2558.21</ele>
        <time>2019-09-06T07:40:04Z</time>
      </trkpt>
      <trkpt lat="42.5286274496" lon="1.0182654485">
        <ele>2554.84</ele>
        <time>2019-09-06T07:40:12Z</time>
      </trkpt>
      <trkpt lat="42.5285904855" lon="1.0182210244">
        <ele>2552.92</ele>
        <time>2019-09-06T07:40:22Z</time>
      </trkpt>
      <trkpt lat="42.5285764039" lon="1.0182156600">
        <ele>2552.92</ele>
        <time>2019-09-06T07:40:24Z</time>
      </trkpt>
      <trkpt lat="42.5284730550" lon="1.0182070266">
        <ele>2551.96</ele>
        <time>2019-09-06T07:40:36Z</time>
      </trkpt>
      <trkpt lat="42.5284477416" lon="1.0181990638">
        <ele>2551.48</ele>
        <time>2019-09-06T07:40:47Z</time>
      </trkpt>
      <trkpt lat="42.5284572970" lon="1.0181592498">
        <ele>2549.07</ele>
        <time>2019-09-06T07:40:59Z</time>
      </trkpt>
      <trkpt lat="42.5284637511" lon="1.0181747563">
        <ele>2547.63</ele>
        <time>2019-09-06T07:41:14Z</time>
      </trkpt>
      <trkpt lat="42.5284723844" lon="1.0181384627">
        <ele>2547.15</ele>
        <time>2019-09-06T07:41:27Z</time>
      </trkpt>
      <trkpt lat="42.5284519326" lon="1.0180856567">
        <ele>2545.71</ele>
        <time>2019-09-06T07:41:37Z</time>
      </trkpt>
      <trkpt lat="42.5284503400" lon="1.0180385504">
        <ele>2545.23</ele>
        <time>2019-09-06T07:41:41Z</time>
      </trkpt>
      <trkpt lat="42.5284406170" lon="1.0179835651">
        <ele>2542.34</ele>
        <time>2019-09-06T07:41:50Z</time>
      </trkpt>
      <trkpt lat="42.5283923373" lon="1.0179631133">
        <ele>2538.98</ele>
        <time>2019-09-06T07:41:58Z</time>
      </trkpt>
      <trkpt lat="42.5283704605" lon="1.0179550666">
        <ele>2538.02</ele>
        <time>2019-09-06T07:42:00Z</time>
      </trkpt>
      <trkpt lat="42.5282715540" lon="1.0179335251">
        <ele>2536.58</ele>
        <time>2019-09-06T07:42:11Z</time>
      </trkpt>
      <trkpt lat="42.5282227714" lon="1.0178959742">
        <ele>2535.61</ele>
        <time>2019-09-06T07:42:21Z</time>
      </trkpt>
      <trkpt lat="42.5281842146" lon="1.0178618599">
        <ele>2535.61</ele>
        <time>2019-09-06T07:42:29Z</time>
      </trkpt>
      <trkpt lat="42.5281748269" lon="1.0178293381">
        <ele>2535.13</ele>
        <time>2019-09-06T07:42:39Z</time>
      </trkpt>
      <trkpt lat="42.5281563867" lon="1.0178058688">
        <ele>2533.69</ele>
        <time>2019-09-06T07:42:49Z</time>
      </trkpt>
      <trkpt lat="42.5281144772" lon="1.0177641269">
        <ele>2533.21</ele>
        <time>2019-09-06T07:43:01Z</time>
      </trkpt>
      <trkpt lat="42.5280932710" lon="1.0177605227">
        <ele>2533.21</ele>
        <time>2019-09-06T07:43:03Z</time>
      </trkpt>
      <trkpt lat="42.5280286465" lon="1.0177411605">
        <ele>2532.73</ele>
        <time>2019-09-06T07:43:12Z</time>
      </trkpt>
      <trkpt lat="42.5279953703" lon="1.0177176073">
        <ele>2531.29</ele>
        <time>2019-09-06T07:43:22Z</time>
      </trkpt>
      <trkpt lat="42.5279746670" lon="1.0176455230">
        <ele>2530.81</ele>
        <time>2019-09-06T07:43:31Z</time>
      </trkpt>
      <trkpt lat="42.5278584938" lon="1.0176015180">
        <ele>2530.81</ele>
        <time>2019-09-06T07:43:42Z</time>
      </trkpt>
      <trkpt lat="42.5278519560" lon="1.0175922979">
        <ele>2530.81</ele>
        <time>2019-09-06T07:43:43Z</time>
      </trkpt>
      <trkpt lat="42.5278201047" lon="1.0175516456">
        <ele>2531.77</ele>
        <time>2019-09-06T07:43:48Z</time>
      </trkpt>
      <trkpt lat="42.5277954619" lon="1.0175264999">
        <ele>2531.77</ele>
        <time>2019-09-06T07:43:51Z</time>
      </trkpt>
      <trkpt lat="42.5277282391" lon="1.0174726881">
        <ele>2530.81</ele>
        <time>2019-09-06T07:43:59Z</time>
      </trkpt>
      <trkpt lat="42.5277157500" lon="1.0174546670">
        <ele>2530.81</ele>
        <time>2019-09-06T07:44:01Z</time>
      </trkpt>
      <trkpt lat="42.5276733376" lon="1.0173861030">
        <ele>2531.29</ele>
        <time>2019-09-06T07:44:06Z</time>
      </trkpt>
      <trkpt lat="42.5276202802" lon="1.0173469596">
        <ele>2531.29</ele>
        <time>2019-09-06T07:44:10Z</time>
      </trkpt>
      <trkpt lat="42.5275468547" lon="1.0172803234">
        <ele>2532.25</ele>
        <time>2019-09-06T07:44:22Z</time>
      </trkpt>
      <trkpt lat="42.5274964795" lon="1.0171924811">
        <ele>2532.73</ele>
        <time>2019-09-06T07:44:34Z</time>
      </trkpt>
      <trkpt lat="42.5274507143" lon="1.0171158705">
        <ele>2535.13</ele>
        <time>2019-09-06T07:44:45Z</time>
      </trkpt>
      <trkpt lat="42.5274126604" lon="1.0170784034">
        <ele>2535.61</ele>
        <time>2019-09-06T07:44:54Z</time>
      </trkpt>
      <trkpt lat="42.5273696613" lon="1.0169731267">
        <ele>2534.65</ele>
        <time>2019-09-06T07:45:06Z</time>
      </trkpt>
      <trkpt lat="42.5273387320" lon="1.0169227514">
        <ele>2535.13</ele>
        <time>2019-09-06T07:45:16Z</time>
      </trkpt>
      <trkpt lat="42.5273295119" lon="1.0168815963">
        <ele>2535.61</ele>
        <time>2019-09-06T07:45:21Z</time>
      </trkpt>
      <trkpt lat="42.5273149274" lon="1.0167965200">
        <ele>2535.61</ele>
        <time>2019-09-06T07:45:30Z</time>
      </trkpt>
      <trkpt lat="42.5273013487" lon="1.0167056601">
        <ele>2536.10</ele>
        <time>2019-09-06T07:45:40Z</time>
      </trkpt>
      <trkpt lat="42.5273006782" lon="1.0166873876">
        <ele>2536.10</ele>
        <time>2019-09-06T07:45:41Z</time>
      </trkpt>
      <trkpt lat="42.5272894464" lon="1.0166432150">
        <ele>2535.61</ele>
        <time>2019-09-06T07:45:44Z</time>
      </trkpt>
      <trkpt lat="42.5272834115" lon="1.0165093560">
        <ele>2534.17</ele>
        <time>2019-09-06T07:45:54Z</time>
      </trkpt>
      <trkpt lat="42.5272858422" lon="1.0164871439">
        <ele>2534.17</ele>
        <time>2019-09-06T07:45:56Z</time>
      </trkpt>
      <trkpt lat="42.5272658933" lon="1.0163600743">
        <ele>2533.69</ele>
        <time>2019-09-06T07:46:06Z</time>
      </trkpt>
      <trkpt lat="42.5272562541" lon="1.0163308214">
        <ele>2533.69</ele>
        <time>2019-09-06T07:46:08Z</time>
      </trkpt>
      <trkpt lat="42.5272325333" lon="1.0162411351">
        <ele>2534.17</ele>
        <time>2019-09-06T07:46:15Z</time>
      </trkpt>
      <trkpt lat="42.5272291806" lon="1.0161062703">
        <ele>2532.73</ele>
        <time>2019-09-06T07:46:25Z</time>
      </trkpt>
      <trkpt lat="42.5272330362" lon="1.0160914343">
        <ele>2532.73</ele>
        <time>2019-09-06T07:46:26Z</time>
      </trkpt>
      <trkpt lat="42.5272351317" lon="1.0160280671">
        <ele>2531.77</ele>
        <time>2019-09-06T07:46:30Z</time>
      </trkpt>
      <trkpt lat="42.5272420887" lon="1.0159431584">
        <ele>2531.77</ele>
        <time>2019-09-06T07:46:41Z</time>
      </trkpt>
      <trkpt lat="42.5271998439" lon="1.0158600938">
        <ele>2533.69</ele>
        <time>2019-09-06T07:46:50Z</time>
      </trkpt>
      <trkpt lat="42.5271985028" lon="1.0158479400">
        <ele>2534.17</ele>
        <time>2019-09-06T07:46:51Z</time>
      </trkpt>
      <trkpt lat="42.5271948986" lon="1.0158184357">
        <ele>2534.65</ele>
        <time>2019-09-06T07:46:54Z</time>
      </trkpt>
      <trkpt lat="42.5271892827" lon="1.0157927871">
        <ele>2535.61</ele>
        <time>2019-09-06T07:47:04Z</time>
      </trkpt>
      <trkpt lat="42.5271930546" lon="1.0157963913">
        <ele>2535.13</ele>
        <time>2019-09-06T07:47:35Z</time>
      </trkpt>
      <trkpt lat="42.5271938927" lon="1.0157939605">
        <ele>2535.13</ele>
        <time>2019-09-06T07:47:38Z</time>
      </trkpt>
      <trkpt lat="42.5271974970" lon="1.0157688987">
        <ele>2535.13</ele>
        <time>2019-09-06T07:47:40Z</time>
      </trkpt>
      <trkpt lat="42.5271943118" lon="1.0156488698">
        <ele>2534.65</ele>
        <time>2019-09-06T07:47:50Z</time>
      </trkpt>
      <trkpt lat="42.5272239838" lon="1.0155330319">
        <ele>2534.17</ele>
        <time>2019-09-06T07:48:00Z</time>
      </trkpt>
      <trkpt lat="42.5272233132" lon="1.0154581815">
        <ele>2534.65</ele>
        <time>2019-09-06T07:48:06Z</time>
      </trkpt>
      <trkpt lat="42.5272146799" lon="1.0153616220">
        <ele>2535.61</ele>
        <time>2019-09-06T07:48:13Z</time>
      </trkpt>
      <trkpt lat="42.5272433460" lon="1.0152410064">
        <ele>2535.61</ele>
        <time>2019-09-06T07:48:24Z</time>
      </trkpt>
      <trkpt lat="42.5272804778" lon="1.0151271801">
        <ele>2535.13</ele>
        <time>2019-09-06T07:48:36Z</time>
      </trkpt>
      <trkpt lat="42.5272835791" lon="1.0151183791">
        <ele>2535.13</ele>
        <time>2019-09-06T07:48:37Z</time>
      </trkpt>
      <trkpt lat="42.5272907875" lon="1.0150837619">
        <ele>2535.61</ele>
        <time>2019-09-06T07:48:40Z</time>
      </trkpt>
      <trkpt lat="42.5272893626" lon="1.0149790719">
        <ele>2536.10</ele>
        <time>2019-09-06T07:48:51Z</time>
      </trkpt>
      <trkpt lat="42.5272750296" lon="1.0148921516">
        <ele>2537.54</ele>
        <time>2019-09-06T07:49:03Z</time>
      </trkpt>
      <trkpt lat="42.5273108203" lon="1.0147706140">
        <ele>2538.50</ele>
        <time>2019-09-06T07:49:13Z</time>
      </trkpt>
      <trkpt lat="42.5273323618" lon="1.0146910697">
        <ele>2539.46</ele>
        <time>2019-09-06T07:49:25Z</time>
      </trkpt>
      <trkpt lat="42.5273479521" lon="1.0146712046">
        <ele>2539.46</ele>
        <time>2019-09-06T07:49:28Z</time>
      </trkpt>
      <trkpt lat="42.5273916218" lon="1.0146024730">
        <ele>2538.02</ele>
        <time>2019-09-06T07:49:39Z</time>
      </trkpt>
      <trkpt lat="42.5274106488" lon="1.0145718791">
        <ele>2535.61</ele>
        <time>2019-09-06T07:49:47Z</time>
      </trkpt>
      <trkpt lat="42.5274336990" lon="1.0144775826">
        <ele>2533.69</ele>
        <time>2019-09-06T07:49:57Z</time>
      </trkpt>
      <trkpt lat="42.5274616946" lon="1.0144087672">
        <ele>2535.13</ele>
        <time>2019-09-06T07:50:07Z</time>
      </trkpt>
      <trkpt lat="42.5275232177" lon="1.0143498424">
        <ele>2536.58</ele>
        <time>2019-09-06T07:50:17Z</time>
      </trkpt>
      <trkpt lat="42.5275352877" lon="1.0143296421">
        <ele>2537.54</ele>
        <time>2019-09-06T07:50:27Z</time>
      </trkpt>
      <trkpt lat="42.5275608525" lon="1.0142891575">
        <ele>2537.54</ele>
        <time>2019-09-06T07:50:38Z</time>
      </trkpt>
      <trkpt lat="42.5275754370" lon="1.0142723098">
        <ele>2537.54</ele>
        <time>2019-09-06T07:50:40Z</time>
      </trkpt>
      <trkpt lat="42.5275933743" lon="1.0142403748">
        <ele>2536.58</ele>
        <time>2019-09-06T07:50:43Z</time>
      </trkpt>
      <trkpt lat="42.5276300032" lon="1.0141616687">
        <ele>2536.10</ele>
        <time>2019-09-06T07:50:51Z</time>
      </trkpt>
      <trkpt lat="42.5277009979" lon="1.0141480062">
        <ele>2536.10</ele>
        <time>2019-09-06T07:51:02Z</time>
      </trkpt>
      <trkpt lat="42.5277139060" lon="1.0140856449">
        <ele>2537.06</ele>
        <time>2019-09-06T07:51:10Z</time>
      </trkpt>
      <trkpt lat="42.5277043507" lon="1.0140133090">
        <ele>2537.06</ele>
        <time>2019-09-06T07:51:16Z</time>
      </trkpt>
      <trkpt lat="42.5276569929" lon="1.0138172563">
        <ele>2536.58</ele>
        <time>2019-09-06T07:51:31Z</time>
      </trkpt>
      <trkpt lat="42.5276533049" lon="1.0138071142">
        <ele>2536.58</ele>
        <time>2019-09-06T07:51:32Z</time>
      </trkpt>
      <trkpt lat="42.5276542269" lon="1.0137149133">
        <ele>2536.10</ele>
        <time>2019-09-06T07:51:40Z</time>
      </trkpt>
      <trkpt lat="42.5276534725" lon="1.0136641189">
        <ele>2535.61</ele>
        <time>2019-09-06T07:51:44Z</time>
      </trkpt>
      <trkpt lat="42.5276517961" lon="1.0135709122">
        <ele>2535.61</ele>
        <time>2019-09-06T07:51:53Z</time>
      </trkpt>
      <trkpt lat="42.5276423246" lon="1.0134841595">
        <ele>2538.02</ele>
        <time>2019-09-06T07:52:03Z</time>
      </trkpt>
      <trkpt lat="42.5276037678" lon="1.0134419147">
        <ele>2538.98</ele>
        <time>2019-09-06T07:52:13Z</time>
      </trkpt>
      <trkpt lat="42.5276196934" lon="1.0133614484">
        <ele>2541.38</ele>
        <time>2019-09-06T07:52:27Z</time>
      </trkpt>
      <trkpt lat="42.5276226271" lon="1.0132931359">
        <ele>2543.31</ele>
        <time>2019-09-06T07:52:37Z</time>
      </trkpt>
      <trkpt lat="42.5276390556" lon="1.0132158548">
        <ele>2544.75</ele>
        <time>2019-09-06T07:52:46Z</time>
      </trkpt>
      <trkpt lat="42.5276379660" lon="1.0132078920">
        <ele>2545.23</ele>
        <time>2019-09-06T07:52:47Z</time>
      </trkpt>
      <trkpt lat="42.5276422407" lon="1.0131364781">
        <ele>2545.23</ele>
        <time>2019-09-06T07:52:57Z</time>
      </trkpt>
      <trkpt lat="42.5276471023" lon="1.0131403338">
        <ele>2545.23</ele>
        <time>2019-09-06T07:53:15Z</time>
      </trkpt>
      <trkpt lat="42.5276461802" lon="1.0131448600">
        <ele>2546.19</ele>
        <time>2019-09-06T07:53:32Z</time>
      </trkpt>
      <trkpt lat="42.5276376307" lon="1.0131550860">
        <ele>2546.67</ele>
        <time>2019-09-06T07:53:51Z</time>
      </trkpt>
      <trkpt lat="42.5276220404" lon="1.0131506436">
        <ele>2545.23</ele>
        <time>2019-09-06T07:53:58Z</time>
      </trkpt>
      <trkpt lat="42.5275977328" lon="1.0130550899">
        <ele>2545.23</ele>
        <time>2019-09-06T07:54:08Z</time>
      </trkpt>
      <trkpt lat="42.5275735091" lon="1.0129491426">
        <ele>2541.86</ele>
        <time>2019-09-06T07:54:16Z</time>
      </trkpt>
      <trkpt lat="42.5275876746" lon="1.0128799919">
        <ele>2540.42</ele>
        <time>2019-09-06T07:54:22Z</time>
      </trkpt>
      <trkpt lat="42.5275502075" lon="1.0126945842">
        <ele>2537.06</ele>
        <time>2019-09-06T07:54:36Z</time>
      </trkpt>
      <trkpt lat="42.5275422446" lon="1.0126440413">
        <ele>2536.58</ele>
        <time>2019-09-06T07:54:42Z</time>
      </trkpt>
      <trkpt lat="42.5275494531" lon="1.0125603899">
        <ele>2536.58</ele>
        <time>2019-09-06T07:54:52Z</time>
      </trkpt>
      <trkpt lat="42.5275511295" lon="1.0125240963">
        <ele>2537.54</ele>
        <time>2019-09-06T07:55:05Z</time>
      </trkpt>
      <trkpt lat="42.5275092199" lon="1.0124350805">
        <ele>2538.02</ele>
        <time>2019-09-06T07:55:16Z</time>
      </trkpt>
      <trkpt lat="42.5275088847" lon="1.0124070849">
        <ele>2538.02</ele>
        <time>2019-09-06T07:55:18Z</time>
      </trkpt>
      <trkpt lat="42.5275013410" lon="1.0122912470">
        <ele>2540.42</ele>
        <time>2019-09-06T07:55:27Z</time>
      </trkpt>
      <trkpt lat="42.5274528936" lon="1.0121935979">
        <ele>2539.94</ele>
        <time>2019-09-06T07:55:38Z</time>
      </trkpt>
      <trkpt lat="42.5274733454" lon="1.0121624172">
        <ele>2538.98</ele>
        <time>2019-09-06T07:55:48Z</time>
      </trkpt>
      <trkpt lat="42.5275113992" lon="1.0120853037">
        <ele>2540.90</ele>
        <time>2019-09-06T07:55:58Z</time>
      </trkpt>
      <trkpt lat="42.5275136624" lon="1.0120402928">
        <ele>2542.34</ele>
        <time>2019-09-06T07:56:11Z</time>
      </trkpt>
      <trkpt lat="42.5275427476" lon="1.0119770933">
        <ele>2541.86</ele>
        <time>2019-09-06T07:56:25Z</time>
      </trkpt>
      <trkpt lat="42.5275709108" lon="1.0119606648">
        <ele>2541.38</ele>
        <time>2019-09-06T07:56:35Z</time>
      </trkpt>
      <trkpt lat="42.5275895186" lon="1.0119475890">
        <ele>2541.38</ele>
        <time>2019-09-06T07:56:37Z</time>
      </trkpt>
      <trkpt lat="42.5276321825" lon="1.0119242035">
        <ele>2540.90</ele>
        <time>2019-09-06T07:56:41Z</time>
      </trkpt>
      <trkpt lat="42.5276631955" lon="1.0118665360">
        <ele>2540.42</ele>
        <time>2019-09-06T07:56:45Z</time>
      </trkpt>
      <trkpt lat="42.5277121458" lon="1.0118055996">
        <ele>2538.50</ele>
        <time>2019-09-06T07:56:54Z</time>
      </trkpt>
      <trkpt lat="42.5277728308" lon="1.0117643606">
        <ele>2540.42</ele>
        <time>2019-09-06T07:57:05Z</time>
      </trkpt>
      <trkpt lat="42.5277870800" lon="1.0117488541">
        <ele>2539.94</ele>
        <time>2019-09-06T07:57:07Z</time>
      </trkpt>
      <trkpt lat="42.5277810451" lon="1.0115248058">
        <ele>2538.02</ele>
        <time>2019-09-06T07:57:21Z</time>
      </trkpt>
      <trkpt lat="42.5277778599" lon="1.0115114786">
        <ele>2538.02</ele>
        <time>2019-09-06T07:57:22Z</time>
      </trkpt>
      <trkpt lat="42.5277530495" lon="1.0114642885">
        <ele>2538.50</ele>
        <time>2019-09-06T07:57:26Z</time>
      </trkpt>
      <trkpt lat="42.5277375430" lon="1.0113584250">
        <ele>2539.46</ele>
        <time>2019-09-06T07:57:36Z</time>
      </trkpt>
      <trkpt lat="42.5277272332" lon="1.0113183595">
        <ele>2540.42</ele>
        <time>2019-09-06T07:57:41Z</time>
      </trkpt>
      <trkpt lat="42.5276849046" lon="1.0112595186">
        <ele>2541.38</ele>
        <time>2019-09-06T07:57:49Z</time>
      </trkpt>
      <trkpt lat="42.5276998244" lon="1.0112144239">
        <ele>2542.34</ele>
        <time>2019-09-06T07:58:01Z</time>
      </trkpt>
      <trkpt lat="42.5276983157" lon="1.0111920442">
        <ele>2542.34</ele>
        <time>2019-09-06T07:58:06Z</time>
      </trkpt>
      <trkpt lat="42.5276883412" lon="1.0110805649">
        <ele>2542.34</ele>
        <time>2019-09-06T07:58:17Z</time>
      </trkpt>
      <trkpt lat="42.5276403129" lon="1.0109786410">
        <ele>2542.34</ele>
        <time>2019-09-06T07:58:27Z</time>
      </trkpt>
      <trkpt lat="42.5276190229" lon="1.0109075624">
        <ele>2544.75</ele>
        <time>2019-09-06T07:58:34Z</time>
      </trkpt>
      <trkpt lat="42.5275916979" lon="1.0108213127">
        <ele>2544.75</ele>
        <time>2019-09-06T07:58:44Z</time>
      </trkpt>
      <trkpt lat="42.5275579188" lon="1.0107445344">
        <ele>2543.31</ele>
        <time>2019-09-06T07:58:54Z</time>
      </trkpt>
      <trkpt lat="42.5275674742" lon="1.0106731206">
        <ele>2541.86</ele>
        <time>2019-09-06T07:59:06Z</time>
      </trkpt>
      <trkpt lat="42.5275321025" lon="1.0106437840">
        <ele>2540.90</ele>
        <time>2019-09-06T07:59:28Z</time>
      </trkpt>
      <trkpt lat="42.5275461003" lon="1.0106117651">
        <ele>2540.42</ele>
        <time>2019-09-06T07:59:38Z</time>
      </trkpt>
      <trkpt lat="42.5275449269" lon="1.0105576180">
        <ele>2538.02</ele>
        <time>2019-09-06T07:59:50Z</time>
      </trkpt>
      <trkpt lat="42.5275603496" lon="1.0105053149">
        <ele>2535.13</ele>
        <time>2019-09-06T08:00:01Z</time>
      </trkpt>
      <trkpt lat="42.5275559910" lon="1.0104727093">
        <ele>2532.25</ele>
        <time>2019-09-06T08:00:13Z</time>
      </trkpt>
      <trkpt lat="42.5275528897" lon="1.0104707815">
        <ele>2531.77</ele>
        <time>2019-09-06T08:00:14Z</time>
      </trkpt>
      <trkpt lat="42.5275384728" lon="1.0104794987">
        <ele>2530.81</ele>
        <time>2019-09-06T08:00:18Z</time>
      </trkpt>
      <trkpt lat="42.5275217928" lon="1.0104650818">
        <ele>2529.37</ele>
        <time>2019-09-06T08:00:33Z</time>
      </trkpt>
      <trkpt lat="42.5275227148" lon="1.0104304645">
        <ele>2528.89</ele>
        <time>2019-09-06T08:00:42Z</time>
      </trkpt>
      <trkpt lat="42.5275271572" lon="1.0104120243">
        <ele>2528.89</ele>
        <time>2019-09-06T08:00:59Z</time>
      </trkpt>
      <trkpt lat="42.5275631994" lon="1.0103240144">
        <ele>2526.48</ele>
        <time>2019-09-06T08:01:11Z</time>
      </trkpt>
      <trkpt lat="42.5275554880" lon="1.0103019699">
        <ele>2523.60</ele>
        <time>2019-09-06T08:01:24Z</time>
      </trkpt>
      <trkpt lat="42.5275717489" lon="1.0102608986">
        <ele>2522.64</ele>
        <time>2019-09-06T08:01:35Z</time>
      </trkpt>
      <trkpt lat="42.5275735930" lon="1.0102025606">
        <ele>2520.71</ele>
        <time>2019-09-06T08:01:49Z</time>
      </trkpt>
      <trkpt lat="42.5275723357" lon="1.0102117807">
        <ele>2521.19</ele>
        <time>2019-09-06T08:02:01Z</time>
      </trkpt>
      <trkpt lat="42.5275702402" lon="1.0102295503">
        <ele>2520.71</ele>
        <time>2019-09-06T08:02:37Z</time>
      </trkpt>
      <trkpt lat="42.5275661331" lon="1.0102384351">
        <ele>2521.19</ele>
        <time>2019-09-06T08:02:53Z</time>
      </trkpt>
      <trkpt lat="42.5275638700" lon="1.0102435481">
        <ele>2521.19</ele>
        <time>2019-09-06T08:03:06Z</time>
      </trkpt>
      <trkpt lat="42.5275518838" lon="1.0102010518">
        <ele>2520.23</ele>
        <time>2019-09-06T08:03:18Z</time>
      </trkpt>
      <trkpt lat="42.5275356229" lon="1.0101737268">
        <ele>2518.79</ele>
        <time>2019-09-06T08:03:28Z</time>
      </trkpt>
      <trkpt lat="42.5274963118" lon="1.0101931728">
        <ele>2516.39</ele>
        <time>2019-09-06T08:03:39Z</time>
      </trkpt>
      <trkpt lat="42.5274825655" lon="1.0101592261">
        <ele>2514.95</ele>
        <time>2019-09-06T08:03:50Z</time>
      </trkpt>
      <trkpt lat="42.5274606049" lon="1.0101242736">
        <ele>2513.02</ele>
        <time>2019-09-06T08:04:02Z</time>
      </trkpt>
      <trkpt lat="42.5274456851" lon="1.0100705456">
        <ele>2509.66</ele>
        <time>2019-09-06T08:04:17Z</time>
      </trkpt>
      <trkpt lat="42.5274273288" lon="1.0100419633">
        <ele>2508.22</ele>
        <time>2019-09-06T08:04:24Z</time>
      </trkpt>
      <trkpt lat="42.5274254009" lon="1.0099610779">
        <ele>2505.33</ele>
        <time>2019-09-06T08:04:36Z</time>
      </trkpt>
      <trkpt lat="42.5274202880" lon="1.0099173244">
        <ele>2501.97</ele>
        <time>2019-09-06T08:04:47Z</time>
      </trkpt>
      <trkpt lat="42.5274228863" lon="1.0098252073">
        <ele>2499.57</ele>
        <time>2019-09-06T08:04:59Z</time>
      </trkpt>
      <trkpt lat="42.5274096429" lon="1.0097684618">
        <ele>2497.64</ele>
        <time>2019-09-06T08:05:09Z</time>
      </trkpt>
      <trkpt lat="42.5273987465" lon="1.0096807871">
        <ele>2494.76</ele>
        <time>2019-09-06T08:05:20Z</time>
      </trkpt>
      <trkpt lat="42.5273979921" lon="1.0096346866">
        <ele>2492.84</ele>
        <time>2019-09-06T08:05:30Z</time>
      </trkpt>
      <trkpt lat="42.5273837429" lon="1.0095973872">
        <ele>2490.43</ele>
        <time>2019-09-06T08:05:41Z</time>
      </trkpt>
      <trkpt lat="42.5273781270" lon="1.0095215309">
        <ele>2487.07</ele>
        <time>2019-09-06T08:05:53Z</time>
      </trkpt>
      <trkpt lat="42.5273742713" lon="1.0094612651">
        <ele>2483.70</ele>
        <time>2019-09-06T08:06:05Z</time>
      </trkpt>
      <trkpt lat="42.5273554120" lon="1.0094351135">
        <ele>2482.74</ele>
        <time>2019-09-06T08:06:11Z</time>
      </trkpt>
      <trkpt lat="42.5273272488" lon="1.0094820522">
        <ele>2481.78</ele>
        <time>2019-09-06T08:06:15Z</time>
      </trkpt>
      <trkpt lat="42.5272817351" lon="1.0095443297">
        <ele>2480.82</ele>
        <time>2019-09-06T08:06:22Z</time>
      </trkpt>
      <trkpt lat="42.5272259116" lon="1.0096367821">
        <ele>2478.42</ele>
        <time>2019-09-06T08:06:33Z</time>
      </trkpt>
      <trkpt lat="42.5271614548" lon="1.0097262170">
        <ele>2476.49</ele>
        <time>2019-09-06T08:06:45Z</time>
      </trkpt>
      <trkpt lat="42.5271229818" lon="1.0097977985">
        <ele>2475.05</ele>
        <time>2019-09-06T08:06:52Z</time>
      </trkpt>
      <trkpt lat="42.5271021109" lon="1.0098398756">
        <ele>2474.57</ele>
        <time>2019-09-06T08:06:55Z</time>
      </trkpt>
      <trkpt lat="42.5270476285" lon="1.0099065956">
        <ele>2472.65</ele>
        <time>2019-09-06T08:07:06Z</time>
      </trkpt>
      <trkpt lat="42.5270420127" lon="1.0099138878">
        <ele>2472.65</ele>
        <time>2019-09-06T08:07:19Z</time>
      </trkpt>
      <trkpt lat="42.5270374864" lon="1.0098704696">
        <ele>2472.17</ele>
        <time>2019-09-06T08:07:27Z</time>
      </trkpt>
      <trkpt lat="42.5270762108" lon="1.0096993949">
        <ele>2471.21</ele>
        <time>2019-09-06T08:07:39Z</time>
      </trkpt>
      <trkpt lat="42.5271151029" lon="1.0095571540">
        <ele>2469.76</ele>
        <time>2019-09-06T08:07:51Z</time>
      </trkpt>
      <trkpt lat="42.5271190424" lon="1.0095014144">
        <ele>2468.80</ele>
        <time>2019-09-06T08:07:56Z</time>
      </trkpt>
      <trkpt lat="42.5271342136" lon="1.0093421582">
        <ele>2466.88</ele>
        <time>2019-09-06T08:08:09Z</time>
      </trkpt>
      <trkpt lat="42.5271336269" lon="1.0093302559">
        <ele>2466.88</ele>
        <time>2019-09-06T08:08:10Z</time>
      </trkpt>
      <trkpt lat="42.5271335430" lon="1.0092648771">
        <ele>2465.92</ele>
        <time>2019-09-06T08:08:15Z</time>
      </trkpt>
      <trkpt lat="42.5271312799" lon="1.0092073772">
        <ele>2464.96</ele>
        <time>2019-09-06T08:08:20Z</time>
      </trkpt>
      <trkpt lat="42.5271337107" lon="1.0091787111">
        <ele>2464.48</ele>
        <time>2019-09-06T08:08:22Z</time>
      </trkpt>
      <trkpt lat="42.5271321181" lon="1.0091027711">
        <ele>2462.55</ele>
        <time>2019-09-06T08:08:29Z</time>
      </trkpt>
      <trkpt lat="42.5271629635" lon="1.0090092290">
        <ele>2461.11</ele>
        <time>2019-09-06T08:08:40Z</time>
      </trkpt>
      <trkpt lat="42.5271788891" lon="1.0089745279">
        <ele>2459.67</ele>
        <time>2019-09-06T08:08:49Z</time>
      </trkpt>
      <trkpt lat="42.5272034481" lon="1.0089236498">
        <ele>2458.23</ele>
        <time>2019-09-06T08:08:55Z</time>
      </trkpt>
      <trkpt lat="42.5272138417" lon="1.0088125896">
        <ele>2456.31</ele>
        <time>2019-09-06T08:09:01Z</time>
      </trkpt>
      <trkpt lat="42.5272293482" lon="1.0086479690">
        <ele>2454.38</ele>
        <time>2019-09-06T08:09:10Z</time>
      </trkpt>
      <trkpt lat="42.5272247382" lon="1.0085982643">
        <ele>2453.90</ele>
        <time>2019-09-06T08:09:13Z</time>
      </trkpt>
      <trkpt lat="42.5272332877" lon="1.0084592924">
        <ele>2453.90</ele>
        <time>2019-09-06T08:09:21Z</time>
      </trkpt>
      <trkpt lat="42.5272557512" lon="1.0082810093">
        <ele>2453.42</ele>
        <time>2019-09-06T08:09:34Z</time>
      </trkpt>
      <trkpt lat="42.5272417534" lon="1.0081165563">
        <ele>2455.34</ele>
        <time>2019-09-06T08:09:45Z</time>
      </trkpt>
      <trkpt lat="42.5272492971" lon="1.0079735611">
        <ele>2455.82</ele>
        <time>2019-09-06T08:09:57Z</time>
      </trkpt>
      <trkpt lat="42.5272500515" lon="1.0079650953">
        <ele>2455.82</ele>
        <time>2019-09-06T08:09:58Z</time>
      </trkpt>
      <trkpt lat="42.5272339582" lon="1.0078705475">
        <ele>2455.34</ele>
        <time>2019-09-06T08:10:04Z</time>
      </trkpt>
      <trkpt lat="42.5272206310" lon="1.0077018198">
        <ele>2454.86</ele>
        <time>2019-09-06T08:10:16Z</time>
      </trkpt>
      <trkpt lat="42.5272274204" lon="1.0075361095">
        <ele>2455.82</ele>
        <time>2019-09-06T08:10:27Z</time>
      </trkpt>
      <trkpt lat="42.5272237323" lon="1.0074907634">
        <ele>2455.82</ele>
        <time>2019-09-06T08:10:30Z</time>
      </trkpt>
      <trkpt lat="42.5272466149" lon="1.0073025059">
        <ele>2454.38</ele>
        <time>2019-09-06T08:10:42Z</time>
      </trkpt>
      <trkpt lat="42.5272514764" lon="1.0071502905">
        <ele>2454.38</ele>
        <time>2019-09-06T08:10:52Z</time>
      </trkpt>
      <trkpt lat="42.5272064656" lon="1.0070050322">
        <ele>2455.34</ele>
        <time>2019-09-06T08:11:02Z</time>
      </trkpt>
      <trkpt lat="42.5271667354" lon="1.0067794751">
        <ele>2454.86</ele>
        <time>2019-09-06T08:11:15Z</time>
      </trkpt>
      <trkpt lat="42.5271003507" lon="1.0065922234">
        <ele>2454.38</ele>
        <time>2019-09-06T08:11:28Z</time>
      </trkpt>
      <trkpt lat="42.5270912983" lon="1.0065840930">
        <ele>2454.38</ele>
        <time>2019-09-06T08:11:29Z</time>
      </trkpt>
      <trkpt lat="42.5270508137" lon="1.0065359809">
        <ele>2454.86</ele>
        <time>2019-09-06T08:11:33Z</time>
      </trkpt>
      <trkpt lat="42.5269823335" lon="1.0064274352">
        <ele>2454.38</ele>
        <time>2019-09-06T08:11:44Z</time>
      </trkpt>
      <trkpt lat="42.5269394182" lon="1.0063875373">
        <ele>2454.38</ele>
        <time>2019-09-06T08:11:51Z</time>
      </trkpt>
      <trkpt lat="42.5268996879" lon="1.0063509084">
        <ele>2454.38</ele>
        <time>2019-09-06T08:11:55Z</time>
      </trkpt>
      <trkpt lat="42.5268148631" lon="1.0063402634">
        <ele>2454.38</ele>
        <time>2019-09-06T08:12:02Z</time>
      </trkpt>
      <trkpt lat="42.5267664157" lon="1.0063422751">
        <ele>2454.38</ele>
        <time>2019-09-06T08:12:06Z</time>
      </trkpt>
      <trkpt lat="42.5266283657" lon="1.0062988568">
        <ele>2453.42</ele>
        <time>2019-09-06T08:12:19Z</time>
      </trkpt>
      <trkpt lat="42.5266123563" lon="1.0062910616">
        <ele>2454.86</ele>
        <time>2019-09-06T08:12:30Z</time>
      </trkpt>
      <trkpt lat="42.5265209936" lon="1.0061820131">
        <ele>2454.38</ele>
        <time>2019-09-06T08:12:44Z</time>
      </trkpt>
      <trkpt lat="42.5265130308" lon="1.0061642434">
        <ele>2453.90</ele>
        <time>2019-09-06T08:12:46Z</time>
      </trkpt>
      <trkpt lat="42.5265069958" lon="1.0060349107">
        <ele>2453.42</ele>
        <time>2019-09-06T08:12:58Z</time>
      </trkpt>
      <trkpt lat="42.5265098456" lon="1.0060331505">
        <ele>2454.38</ele>
        <time>2019-09-06T08:13:00Z</time>
      </trkpt>
      <trkpt lat="42.5264965184" lon="1.0060316417">
        <ele>2453.90</ele>
        <time>2019-09-06T08:15:03Z</time>
      </trkpt>
      <trkpt lat="42.5265009608" lon="1.0060301330">
        <ele>2453.90</ele>
        <time>2019-09-06T08:15:18Z</time>
      </trkpt>
      <trkpt lat="42.5265133660" lon="1.0059996229">
        <ele>2453.90</ele>
        <time>2019-09-06T08:15:30Z</time>
      </trkpt>
      <trkpt lat="42.5265274476" lon="1.0059609823">
        <ele>2453.90</ele>
        <time>2019-09-06T08:15:42Z</time>
      </trkpt>
      <trkpt lat="42.5265250169" lon="1.0059025604">
        <ele>2453.90</ele>
        <time>2019-09-06T08:15:47Z</time>
      </trkpt>
      <trkpt lat="42.5264721271" lon="1.0058183223">
        <ele>2452.94</ele>
        <time>2019-09-06T08:15:54Z</time>
      </trkpt>
      <trkpt lat="42.5264031440" lon="1.0056614969">
        <ele>2453.90</ele>
        <time>2019-09-06T08:16:07Z</time>
      </trkpt>
      <trkpt lat="42.5263882242" lon="1.0054922663">
        <ele>2451.98</ele>
        <time>2019-09-06T08:16:19Z</time>
      </trkpt>
      <trkpt lat="42.5263152178" lon="1.0053366981">
        <ele>2450.54</ele>
        <time>2019-09-06T08:16:30Z</time>
      </trkpt>
      <trkpt lat="42.5262642559" lon="1.0051987320">
        <ele>2449.58</ele>
        <time>2019-09-06T08:16:40Z</time>
      </trkpt>
      <trkpt lat="42.5261933450" lon="1.0050414037">
        <ele>2448.62</ele>
        <time>2019-09-06T08:16:52Z</time>
      </trkpt>
      <trkpt lat="42.5261527766" lon="1.0049317684">
        <ele>2447.65</ele>
        <time>2019-09-06T08:17:02Z</time>
      </trkpt>
      <trkpt lat="42.5261446461" lon="1.0049341153">
        <ele>2447.65</ele>
        <time>2019-09-06T08:17:03Z</time>
      </trkpt>
      <trkpt lat="42.5260117091" lon="1.0049948003">
        <ele>2447.17</ele>
        <time>2019-09-06T08:17:14Z</time>
      </trkpt>
      <trkpt lat="42.5258660316" lon="1.0051189363">
        <ele>2444.77</ele>
        <time>2019-09-06T08:17:27Z</time>
      </trkpt>
      <trkpt lat="42.5257189292" lon="1.0051726643">
        <ele>2444.29</ele>
        <time>2019-09-06T08:17:38Z</time>
      </trkpt>
      <trkpt lat="42.5255563203" lon="1.0051752627">
        <ele>2444.77</ele>
        <time>2019-09-06T08:17:50Z</time>
      </trkpt>
      <trkpt lat="42.5254745129" lon="1.0051681381">
        <ele>2442.85</ele>
        <time>2019-09-06T08:17:59Z</time>
      </trkpt>
      <trkpt lat="42.5253123231" lon="1.0051641148">
        <ele>2441.89</ele>
        <time>2019-09-06T08:18:10Z</time>
      </trkpt>
      <trkpt lat="42.5251347106" lon="1.0052049346">
        <ele>2442.37</ele>
        <time>2019-09-06T08:18:23Z</time>
      </trkpt>
      <trkpt lat="42.5249886978" lon="1.0051922780">
        <ele>2441.89</ele>
        <time>2019-09-06T08:18:34Z</time>
      </trkpt>
      <trkpt lat="42.5249784719" lon="1.0051889252">
        <ele>2441.89</ele>
        <time>2019-09-06T08:18:35Z</time>
      </trkpt>
      <trkpt lat="42.5248690043" lon="1.0051838960">
        <ele>2440.92</ele>
        <time>2019-09-06T08:18:45Z</time>
      </trkpt>
      <trkpt lat="42.5247404259" lon="1.0050932877">
        <ele>2441.41</ele>
        <time>2019-09-06T08:18:58Z</time>
      </trkpt>
      <trkpt lat="42.5245960057" lon="1.0049310140">
        <ele>2440.44</ele>
        <time>2019-09-06T08:19:13Z</time>
      </trkpt>
      <trkpt lat="42.5245265197" lon="1.0047796369">
        <ele>2439.96</ele>
        <time>2019-09-06T08:19:25Z</time>
      </trkpt>
      <trkpt lat="42.5245239213" lon="1.0047368053">
        <ele>2439.96</ele>
        <time>2019-09-06T08:19:28Z</time>
      </trkpt>
      <trkpt lat="42.5244670082" lon="1.0045771301">
        <ele>2439.96</ele>
        <time>2019-09-06T08:19:41Z</time>
      </trkpt>
      <trkpt lat="42.5244152918" lon="1.0044788942">
        <ele>2440.44</ele>
        <time>2019-09-06T08:19:50Z</time>
      </trkpt>
      <trkpt lat="42.5243807584" lon="1.0044475459">
        <ele>2440.44</ele>
        <time>2019-09-06T08:19:55Z</time>
      </trkpt>
      <trkpt lat="42.5243268628" lon="1.0044286028">
        <ele>2440.92</ele>
        <time>2019-09-06T08:20:03Z</time>
      </trkpt>
      <trkpt lat="42.5242895633" lon="1.0044275969">
        <ele>2440.92</ele>
        <time>2019-09-06T08:20:07Z</time>
      </trkpt>
      <trkpt lat="42.5242362544" lon="1.0043140221">
        <ele>2440.92</ele>
        <time>2019-09-06T08:20:16Z</time>
      </trkpt>
      <trkpt lat="42.5241913274" lon="1.0042902175">
        <ele>2440.44</ele>
        <time>2019-09-06T08:20:21Z</time>
      </trkpt>
      <trkpt lat="42.5241624936" lon="1.0042581148">
        <ele>2439.96</ele>
        <time>2019-09-06T08:20:27Z</time>
      </trkpt>
      <trkpt lat="42.5240265392" lon="1.0042528342">
        <ele>2439.48</ele>
        <time>2019-09-06T08:20:39Z</time>
      </trkpt>
      <trkpt lat="42.5239178259" lon="1.0041642375">
        <ele>2441.41</ele>
        <time>2019-09-06T08:20:53Z</time>
      </trkpt>
      <trkpt lat="42.5238650199" lon="1.0041484796">
        <ele>2441.89</ele>
        <time>2019-09-06T08:21:00Z</time>
      </trkpt>
      <trkpt lat="42.5237470027" lon="1.0041059833">
        <ele>2441.41</ele>
        <time>2019-09-06T08:21:10Z</time>
      </trkpt>
      <trkpt lat="42.5236347690" lon="1.0040171351">
        <ele>2441.41</ele>
        <time>2019-09-06T08:21:23Z</time>
      </trkpt>
      <trkpt lat="42.5236204360" lon="1.0040069930">
        <ele>2441.89</ele>
        <time>2019-09-06T08:21:25Z</time>
      </trkpt>
      <trkpt lat="42.5236018281" lon="1.0039692745">
        <ele>2441.89</ele>
        <time>2019-09-06T08:21:29Z</time>
      </trkpt>
      <trkpt lat="42.5235953741" lon="1.0039311368">
        <ele>2440.92</ele>
        <time>2019-09-06T08:21:32Z</time>
      </trkpt>
      <trkpt lat="42.5235719047" lon="1.0038158018">
        <ele>2439.96</ele>
        <time>2019-09-06T08:21:44Z</time>
      </trkpt>
      <trkpt lat="42.5235610083" lon="1.0037818551">
        <ele>2439.96</ele>
        <time>2019-09-06T08:21:47Z</time>
      </trkpt>
      <trkpt lat="42.5235541351" lon="1.0037459806">
        <ele>2440.44</ele>
        <time>2019-09-06T08:22:00Z</time>
      </trkpt>
      <trkpt lat="42.5235408917" lon="1.0037309770">
        <ele>2440.92</ele>
        <time>2019-09-06T08:22:09Z</time>
      </trkpt>
      <trkpt lat="42.5235368684" lon="1.0037034843">
        <ele>2440.92</ele>
        <time>2019-09-06T08:22:18Z</time>
      </trkpt>
      <trkpt lat="42.5235527102" lon="1.0037179850">
        <ele>2441.41</ele>
        <time>2019-09-06T08:22:34Z</time>
      </trkpt>
      <trkpt lat="42.5235562306" lon="1.0037116986">
        <ele>2440.92</ele>
        <time>2019-09-06T08:22:46Z</time>
      </trkpt>
      <trkpt lat="42.5235426519" lon="1.0037173145">
        <ele>2441.41</ele>
        <time>2019-09-06T08:22:54Z</time>
      </trkpt>
      <trkpt lat="42.5234932825" lon="1.0036140494">
        <ele>2440.92</ele>
        <time>2019-09-06T08:23:07Z</time>
      </trkpt>
      <trkpt lat="42.5234832242" lon="1.0035625007">
        <ele>2439.96</ele>
        <time>2019-09-06T08:23:11Z</time>
      </trkpt>
      <trkpt lat="42.5234729983" lon="1.0035368521">
        <ele>2439.96</ele>
        <time>2019-09-06T08:23:13Z</time>
      </trkpt>
      <trkpt lat="42.5234139059" lon="1.0034226906">
        <ele>2438.04</ele>
        <time>2019-09-06T08:23:25Z</time>
      </trkpt>
      <trkpt lat="42.5234075356" lon="1.0033024941">
        <ele>2439.48</ele>
        <time>2019-09-06T08:23:38Z</time>
      </trkpt>
      <trkpt lat="42.5234139897" lon="1.0032019112">
        <ele>2439.96</ele>
        <time>2019-09-06T08:23:49Z</time>
      </trkpt>
      <trkpt lat="42.5234627724" lon="1.0031601693">
        <ele>2441.89</ele>
        <time>2019-09-06T08:23:58Z</time>
      </trkpt>
      <trkpt lat="42.5235240441" lon="1.0031118058">
        <ele>2442.37</ele>
        <time>2019-09-06T08:24:05Z</time>
      </trkpt>
      <trkpt lat="42.5235497765" lon="1.0029892623">
        <ele>2442.85</ele>
        <time>2019-09-06T08:24:17Z</time>
      </trkpt>
      <trkpt lat="42.5235201884" lon="1.0029146634">
        <ele>2442.85</ele>
        <time>2019-09-06T08:24:26Z</time>
      </trkpt>
      <trkpt lat="42.5235170871" lon="1.0028970614">
        <ele>2441.89</ele>
        <time>2019-09-06T08:24:39Z</time>
      </trkpt>
      <trkpt lat="42.5234988984" lon="1.0028362088">
        <ele>2441.41</ele>
        <time>2019-09-06T08:24:44Z</time>
      </trkpt>
      <trkpt lat="42.5234560668" lon="1.0026733484">
        <ele>2437.56</ele>
        <time>2019-09-06T08:24:57Z</time>
      </trkpt>
      <trkpt lat="42.5234541390" lon="1.0026262421">
        <ele>2436.60</ele>
        <time>2019-09-06T08:25:01Z</time>
      </trkpt>
      <trkpt lat="42.5234770216" lon="1.0024515633">
        <ele>2436.12</ele>
        <time>2019-09-06T08:25:15Z</time>
      </trkpt>
      <trkpt lat="42.5234645326" lon="1.0024244897">
        <ele>2436.12</ele>
        <time>2019-09-06T08:25:18Z</time>
      </trkpt>
      <trkpt lat="42.5233725831" lon="1.0022624675">
        <ele>2435.64</ele>
        <time>2019-09-06T08:25:30Z</time>
      </trkpt>
      <trkpt lat="42.5232810527" lon="1.0020847712">
        <ele>2434.68</ele>
        <time>2019-09-06T08:25:43Z</time>
      </trkpt>
      <trkpt lat="42.5232719164" lon="1.0020610504">
        <ele>2434.20</ele>
        <time>2019-09-06T08:25:45Z</time>
      </trkpt>
      <trkpt lat="42.5232284144" lon="1.0019354057">
        <ele>2432.75</ele>
        <time>2019-09-06T08:25:55Z</time>
      </trkpt>
      <trkpt lat="42.5231850799" lon="1.0018228367">
        <ele>2432.27</ele>
        <time>2019-09-06T08:26:03Z</time>
      </trkpt>
      <trkpt lat="42.5231782906" lon="1.0017922428">
        <ele>2432.27</ele>
        <time>2019-09-06T08:26:05Z</time>
      </trkpt>
      <trkpt lat="42.5231533963" lon="1.0017290432">
        <ele>2431.79</ele>
        <time>2019-09-06T08:26:10Z</time>
      </trkpt>
      <trkpt lat="42.5231272448" lon="1.0016780812">
        <ele>2431.79</ele>
        <time>2019-09-06T08:26:14Z</time>
      </trkpt>
      <trkpt lat="42.5230223872" lon="1.0014718026">
        <ele>2432.27</ele>
        <time>2019-09-06T08:26:29Z</time>
      </trkpt>
      <trkpt lat="42.5230114907" lon="1.0014497582">
        <ele>2431.79</ele>
        <time>2019-09-06T08:26:31Z</time>
      </trkpt>
      <trkpt lat="42.5230079703" lon="1.0014079325">
        <ele>2431.31</ele>
        <time>2019-09-06T08:26:34Z</time>
      </trkpt>
      <trkpt lat="42.5229422562" lon="1.0012501851">
        <ele>2430.83</ele>
        <time>2019-09-06T08:26:44Z</time>
      </trkpt>
      <trkpt lat="42.5229051244" lon="1.0011375323">
        <ele>2429.39</ele>
        <time>2019-09-06T08:26:54Z</time>
      </trkpt>
      <trkpt lat="42.5228818227" lon="1.0011050105">
        <ele>2429.39</ele>
        <time>2019-09-06T08:26:57Z</time>
      </trkpt>
      <trkpt lat="42.5228055473" lon="1.0009752586">
        <ele>2428.43</ele>
        <time>2019-09-06T08:27:07Z</time>
      </trkpt>
      <trkpt lat="42.5227334630" lon="1.0008942056">
        <ele>2426.99</ele>
        <time>2019-09-06T08:27:16Z</time>
      </trkpt>
      <trkpt lat="42.5226706825" lon="1.0007860791">
        <ele>2426.50</ele>
        <time>2019-09-06T08:27:28Z</time>
      </trkpt>
      <trkpt lat="42.5226285215" lon="1.0007051937">
        <ele>2426.02</ele>
        <time>2019-09-06T08:27:36Z</time>
      </trkpt>
      <trkpt lat="42.5225714408" lon="1.0005521402">
        <ele>2426.02</ele>
        <time>2019-09-06T08:27:49Z</time>
      </trkpt>
      <trkpt lat="42.5225528330" lon="1.0005071294">
        <ele>2426.02</ele>
        <time>2019-09-06T08:27:53Z</time>
      </trkpt>
      <trkpt lat="42.5224830117" lon="1.0002964921">
        <ele>2425.06</ele>
        <time>2019-09-06T08:28:07Z</time>
      </trkpt>
      <trkpt lat="42.5224491488" lon="1.0002084821">
        <ele>2424.58</ele>
        <time>2019-09-06T08:28:15Z</time>
      </trkpt>
      <trkpt lat="42.5224136934" lon="1.0001596995">
        <ele>2425.06</ele>
        <time>2019-09-06T08:28:23Z</time>
      </trkpt>
      <trkpt lat="42.5223799143" lon="1.0001209751">
        <ele>2425.06</ele>
        <time>2019-09-06T08:28:29Z</time>
      </trkpt>
      <trkpt lat="42.5223140325" lon="1.0000617150">
        <ele>2424.58</ele>
        <time>2019-09-06T08:28:39Z</time>
      </trkpt>
      <trkpt lat="42.5223007891" lon="1.0000557639">
        <ele>2424.58</ele>
        <time>2019-09-06T08:28:53Z</time>
      </trkpt>
      <trkpt lat="42.5222592987" lon="1.0000172909">
        <ele>2424.58</ele>
        <time>2019-09-06T08:29:06Z</time>
      </trkpt>
      <trkpt lat="42.5222255196" lon="0.9999833442">
        <ele>2423.62</ele>
        <time>2019-09-06T08:29:17Z</time>
      </trkpt>
      <trkpt lat="42.5221623201" lon="0.9999282751">
        <ele>2422.66</ele>
        <time>2019-09-06T08:29:27Z</time>
      </trkpt>
      <trkpt lat="42.5221399404" lon="0.9998490661">
        <ele>2422.18</ele>
        <time>2019-09-06T08:29:38Z</time>
      </trkpt>
      <trkpt lat="42.5221106037" lon="0.9998105094">
        <ele>2422.18</ele>
        <time>2019-09-06T08:29:42Z</time>
      </trkpt>
      <trkpt lat="42.5220391061" lon="0.9996805061">
        <ele>2422.18</ele>
        <time>2019-09-06T08:29:54Z</time>
      </trkpt>
      <trkpt lat="42.5219876412" lon="0.9995952621">
        <ele>2421.70</ele>
        <time>2019-09-06T08:30:05Z</time>
      </trkpt>
      <trkpt lat="42.5219509285" lon="0.9995596390">
        <ele>2421.22</ele>
        <time>2019-09-06T08:30:14Z</time>
      </trkpt>
      <trkpt lat="42.5219308957" lon="0.9995330684">
        <ele>2421.22</ele>
        <time>2019-09-06T08:30:17Z</time>
      </trkpt>
      <trkpt lat="42.5219061691" lon="0.9994766582">
        <ele>2420.74</ele>
        <time>2019-09-06T08:30:22Z</time>
      </trkpt>
      <trkpt lat="42.5218244456" lon="0.9993821103">
        <ele>2421.22</ele>
        <time>2019-09-06T08:30:32Z</time>
      </trkpt>
      <trkpt lat="42.5216981303" lon="0.9992450662">
        <ele>2422.18</ele>
        <time>2019-09-06T08:30:46Z</time>
      </trkpt>
      <trkpt lat="42.5216029119" lon="0.9990941081">
        <ele>2422.18</ele>
        <time>2019-09-06T08:30:59Z</time>
      </trkpt>
      <trkpt lat="42.5215597451" lon="0.9990325850">
        <ele>2422.18</ele>
        <time>2019-09-06T08:31:07Z</time>
      </trkpt>
      <trkpt lat="42.5214865711" lon="0.9989680443">
        <ele>2422.18</ele>
        <time>2019-09-06T08:31:18Z</time>
      </trkpt>
      <trkpt lat="42.5214382913" lon="0.9989041742">
        <ele>2424.10</ele>
        <time>2019-09-06T08:31:29Z</time>
      </trkpt>
      <trkpt lat="42.5214110501" lon="0.9988755919">
        <ele>2424.10</ele>
        <time>2019-09-06T08:31:32Z</time>
      </trkpt>
      <trkpt lat="42.5213260576" lon="0.9987870790">
        <ele>2424.10</ele>
        <time>2019-09-06T08:31:43Z</time>
      </trkpt>
      <trkpt lat="42.5212368742" lon="0.9987241309">
        <ele>2424.10</ele>
        <time>2019-09-06T08:31:53Z</time>
      </trkpt>
      <trkpt lat="42.5211618561" lon="0.9986550640">
        <ele>2423.62</ele>
        <time>2019-09-06T08:32:02Z</time>
      </trkpt>
      <trkpt lat="42.5210815575" lon="0.9986156691">
        <ele>2423.14</ele>
        <time>2019-09-06T08:32:12Z</time>
      </trkpt>
      <trkpt lat="42.5210613571" lon="0.9986075386">
        <ele>2422.66</ele>
        <time>2019-09-06T08:32:14Z</time>
      </trkpt>
      <trkpt lat="42.5209835730" lon="0.9985489491">
        <ele>2423.14</ele>
        <time>2019-09-06T08:32:23Z</time>
      </trkpt>
      <trkpt lat="42.5209416635" lon="0.9984810557">
        <ele>2422.66</ele>
        <time>2019-09-06T08:32:29Z</time>
      </trkpt>
      <trkpt lat="42.5208898634" lon="0.9983720072">
        <ele>2423.62</ele>
        <time>2019-09-06T08:32:41Z</time>
      </trkpt>
      <trkpt lat="42.5208641309" lon="0.9983218834">
        <ele>2424.10</ele>
        <time>2019-09-06T08:32:46Z</time>
      </trkpt>
      <trkpt lat="42.5208265800" lon="0.9982703347">
        <ele>2423.62</ele>
        <time>2019-09-06T08:32:51Z</time>
      </trkpt>
      <trkpt lat="42.5208078045" lon="0.9981757030">
        <ele>2423.62</ele>
        <time>2019-09-06T08:33:02Z</time>
      </trkpt>
      <trkpt lat="42.5207983330" lon="0.9981582686">
        <ele>2423.14</ele>
        <time>2019-09-06T08:33:04Z</time>
      </trkpt>
      <trkpt lat="42.5207544956" lon="0.9980420955">
        <ele>2422.66</ele>
        <time>2019-09-06T08:33:15Z</time>
      </trkpt>
      <trkpt lat="42.5207408331" lon="0.9980138484">
        <ele>2422.18</ele>
        <time>2019-09-06T08:33:18Z</time>
      </trkpt>
      <trkpt lat="42.5207121670" lon="0.9979512356">
        <ele>2422.18</ele>
        <time>2019-09-06T08:33:24Z</time>
      </trkpt>
      <trkpt lat="42.5206740294" lon="0.9978732001">
        <ele>2420.26</ele>
        <time>2019-09-06T08:33:33Z</time>
      </trkpt>
      <trkpt lat="42.5205845106" lon="0.9978563525">
        <ele>2420.74</ele>
        <time>2019-09-06T08:33:44Z</time>
      </trkpt>
      <trkpt lat="42.5204986800" lon="0.9978335537">
        <ele>2420.26</ele>
        <time>2019-09-06T08:33:55Z</time>
      </trkpt>
      <trkpt lat="42.5204845984" lon="0.9978162870">
        <ele>2420.26</ele>
        <time>2019-09-06T08:33:57Z</time>
      </trkpt>
      <trkpt lat="42.5204341393" lon="0.9976941627">
        <ele>2419.78</ele>
        <time>2019-09-06T08:34:09Z</time>
      </trkpt>
      <trkpt lat="42.5204067305" lon="0.9976732079">
        <ele>2419.78</ele>
        <time>2019-09-06T08:34:13Z</time>
      </trkpt>
      <trkpt lat="42.5203719456" lon="0.9976531751">
        <ele>2419.78</ele>
        <time>2019-09-06T08:34:17Z</time>
      </trkpt>
      <trkpt lat="42.5202987716" lon="0.9976723697">
        <ele>2419.78</ele>
        <time>2019-09-06T08:34:28Z</time>
      </trkpt>
      <trkpt lat="42.5202812534" lon="0.9976862837">
        <ele>2420.26</ele>
        <time>2019-09-06T08:34:30Z</time>
      </trkpt>
      <trkpt lat="42.5202046428" lon="0.9977546800">
        <ele>2419.78</ele>
        <time>2019-09-06T08:34:39Z</time>
      </trkpt>
      <trkpt lat="42.5201158784" lon="0.9978788998">
        <ele>2419.30</ele>
        <time>2019-09-06T08:34:50Z</time>
      </trkpt>
      <trkpt lat="42.5200776570" lon="0.9979749564">
        <ele>2418.81</ele>
        <time>2019-09-06T08:34:58Z</time>
      </trkpt>
      <trkpt lat="42.5200723764" lon="0.9980033711">
        <ele>2418.81</ele>
        <time>2019-09-06T08:35:00Z</time>
      </trkpt>
      <trkpt lat="42.5200277008" lon="0.9981200472">
        <ele>2418.81</ele>
        <time>2019-09-06T08:35:10Z</time>
      </trkpt>
      <trkpt lat="42.5200215820" lon="0.9981343802">
        <ele>2419.30</ele>
        <time>2019-09-06T08:35:11Z</time>
      </trkpt>
      <trkpt lat="42.5199760683" lon="0.9982799739">
        <ele>2419.78</ele>
        <time>2019-09-06T08:35:24Z</time>
      </trkpt>
      <trkpt lat="42.5199080911" lon="0.9983811434">
        <ele>2421.22</ele>
        <time>2019-09-06T08:35:36Z</time>
      </trkpt>
      <trkpt lat="42.5198951829" lon="0.9983920399">
        <ele>2422.18</ele>
        <time>2019-09-06T08:35:38Z</time>
      </trkpt>
      <trkpt lat="42.5198745634" lon="0.9984052833">
        <ele>2421.70</ele>
        <time>2019-09-06T08:35:49Z</time>
      </trkpt>
      <trkpt lat="42.5198706239" lon="0.9984110668">
        <ele>2421.70</ele>
        <time>2019-09-06T08:36:19Z</time>
      </trkpt>
      <trkpt lat="42.5198489986" lon="0.9984608553">
        <ele>2421.70</ele>
        <time>2019-09-06T08:36:29Z</time>
      </trkpt>
      <trkpt lat="42.5197921693" lon="0.9985529725">
        <ele>2422.18</ele>
        <time>2019-09-06T08:36:41Z</time>
      </trkpt>
      <trkpt lat="42.5197878107" lon="0.9985641204">
        <ele>2421.70</ele>
        <time>2019-09-06T08:36:42Z</time>
      </trkpt>
      <trkpt lat="42.5197585579" lon="0.9986890946">
        <ele>2421.70</ele>
        <time>2019-09-06T08:36:50Z</time>
      </trkpt>
      <trkpt lat="42.5197303947" lon="0.9987521265">
        <ele>2421.70</ele>
        <time>2019-09-06T08:36:54Z</time>
      </trkpt>
      <trkpt lat="42.5197085179" lon="0.9988091234">
        <ele>2421.70</ele>
        <time>2019-09-06T08:36:58Z</time>
      </trkpt>
      <trkpt lat="42.5196964480" lon="0.9988301620">
        <ele>2421.70</ele>
        <time>2019-09-06T08:37:00Z</time>
      </trkpt>
      <trkpt lat="42.5195875671" lon="0.9990719799">
        <ele>2420.74</ele>
        <time>2019-09-06T08:37:16Z</time>
      </trkpt>
      <trkpt lat="42.5194934383" lon="0.9991873987">
        <ele>2421.22</ele>
        <time>2019-09-06T08:37:28Z</time>
      </trkpt>
      <trkpt lat="42.5193861499" lon="0.9992746543">
        <ele>2423.14</ele>
        <time>2019-09-06T08:37:41Z</time>
      </trkpt>
      <trkpt lat="42.5193628483" lon="0.9993305616">
        <ele>2423.14</ele>
        <time>2019-09-06T08:37:52Z</time>
      </trkpt>
      <trkpt lat="42.5193909276" lon="0.9993780032">
        <ele>2422.18</ele>
        <time>2019-09-06T08:38:02Z</time>
      </trkpt>
      <trkpt lat="42.5194142293" lon="0.9994440526">
        <ele>2421.22</ele>
        <time>2019-09-06T08:38:13Z</time>
      </trkpt>
      <trkpt lat="42.5194463320" lon="0.9995510057">
        <ele>2420.74</ele>
        <time>2019-09-06T08:38:21Z</time>
      </trkpt>
      <trkpt lat="42.5194180012" lon="0.9995549452">
        <ele>2420.74</ele>
        <time>2019-09-06T08:38:24Z</time>
      </trkpt>
      <trkpt lat="42.5193231180" lon="0.9995313082">
        <ele>2418.81</ele>
        <time>2019-09-06T08:38:37Z</time>
      </trkpt>
      <trkpt lat="42.5193009898" lon="0.9996155463">
        <ele>2417.37</ele>
        <time>2019-09-06T08:38:47Z</time>
      </trkpt>
      <trkpt lat="42.5192970503" lon="0.9996763151">
        <ele>2415.45</ele>
        <time>2019-09-06T08:38:57Z</time>
      </trkpt>
      <trkpt lat="42.5193074439" lon="0.9997087531">
        <ele>2414.97</ele>
        <time>2019-09-06T08:39:00Z</time>
      </trkpt>
      <trkpt lat="42.5193851441" lon="0.9997765627">
        <ele>2415.93</ele>
        <time>2019-09-06T08:39:10Z</time>
      </trkpt>
      <trkpt lat="42.5194262993" lon="0.9998774808">
        <ele>2413.53</ele>
        <time>2019-09-06T08:39:20Z</time>
      </trkpt>
      <trkpt lat="42.5194860622" lon="0.9999261796">
        <ele>2412.57</ele>
        <time>2019-09-06T08:39:29Z</time>
      </trkpt>
      <trkpt lat="42.5195245352" lon="0.9999545105">
        <ele>2412.09</ele>
        <time>2019-09-06T08:39:34Z</time>
      </trkpt>
      <trkpt lat="42.5195739884" lon="1.0000849329">
        <ele>2412.57</ele>
        <time>2019-09-06T08:39:47Z</time>
      </trkpt>
      <trkpt lat="42.5195799395" lon="1.0000927281">
        <ele>2412.57</ele>
        <time>2019-09-06T08:40:00Z</time>
      </trkpt>
      <trkpt lat="42.5195902493" lon="1.0001249984">
        <ele>2412.57</ele>
        <time>2019-09-06T08:40:03Z</time>
      </trkpt>
      <trkpt lat="42.5195965357" lon="1.0001544189">
        <ele>2412.57</ele>
        <time>2019-09-06T08:40:05Z</time>
      </trkpt>
      <trkpt lat="42.5195685402" lon="1.0002801474">
        <ele>2412.09</ele>
        <time>2019-09-06T08:40:16Z</time>
      </trkpt>
      <trkpt lat="42.5195460767" lon="1.0003674868">
        <ele>2414.49</ele>
        <time>2019-09-06T08:40:27Z</time>
      </trkpt>
      <trkpt lat="42.5194871519" lon="1.0004667286">
        <ele>2417.85</ele>
        <time>2019-09-06T08:40:41Z</time>
      </trkpt>
      <trkpt lat="42.5195153989" lon="1.0006049462">
        <ele>2418.33</ele>
        <time>2019-09-06T08:40:52Z</time>
      </trkpt>
      <trkpt lat="42.5195462443" lon="1.0006958898">
        <ele>2421.22</ele>
        <time>2019-09-06T08:41:03Z</time>
      </trkpt>
      <trkpt lat="42.5195496809" lon="1.0008033458">
        <ele>2423.14</ele>
        <time>2019-09-06T08:41:15Z</time>
      </trkpt>
      <trkpt lat="42.5195475016" lon="1.0008160025">
        <ele>2423.14</ele>
        <time>2019-09-06T08:41:16Z</time>
      </trkpt>
      <trkpt lat="42.5195465796" lon="1.0008754302">
        <ele>2423.14</ele>
        <time>2019-09-06T08:41:20Z</time>
      </trkpt>
      <trkpt lat="42.5195495971" lon="1.0010079481">
        <ele>2422.66</ele>
        <time>2019-09-06T08:41:32Z</time>
      </trkpt>
      <trkpt lat="42.5195400417" lon="1.0011242051">
        <ele>2424.58</ele>
        <time>2019-09-06T08:41:46Z</time>
      </trkpt>
      <trkpt lat="42.5195170753" lon="1.0011919308">
        <ele>2425.06</ele>
        <time>2019-09-06T08:41:55Z</time>
      </trkpt>
      <trkpt lat="42.5195104536" lon="1.0012698825">
        <ele>2424.58</ele>
        <time>2019-09-06T08:42:15Z</time>
      </trkpt>
      <trkpt lat="42.5195170753" lon="1.0012750793">
        <ele>2424.58</ele>
        <time>2019-09-06T08:42:29Z</time>
      </trkpt>
      <trkpt lat="42.5194874872" lon="1.0012818687">
        <ele>2425.54</ele>
        <time>2019-09-06T08:42:49Z</time>
      </trkpt>
      <trkpt lat="42.5194892474" lon="1.0012787674">
        <ele>2424.58</ele>
        <time>2019-09-06T08:43:08Z</time>
      </trkpt>
      <trkpt lat="42.5194778480" lon="1.0012652725">
        <ele>2426.02</ele>
        <time>2019-09-06T08:43:26Z</time>
      </trkpt>
      <trkpt lat="42.5194678735" lon="1.0012415517">
        <ele>2424.58</ele>
        <time>2019-09-06T08:43:43Z</time>
      </trkpt>
      <trkpt lat="42.5195018202" lon="1.0011523683">
        <ele>2425.06</ele>
        <time>2019-09-06T08:43:53Z</time>
      </trkpt>
      <trkpt lat="42.5194411352" lon="1.0011801124">
        <ele>2426.02</ele>
        <time>2019-09-06T08:44:04Z</time>
      </trkpt>
      <trkpt lat="42.5194344297" lon="1.0012097843">
        <ele>2425.54</ele>
        <time>2019-09-06T08:44:16Z</time>
      </trkpt>
      <trkpt lat="42.5194265507" lon="1.0012025759">
        <ele>2425.06</ele>
        <time>2019-09-06T08:44:39Z</time>
      </trkpt>
      <trkpt lat="42.5194118824" lon="1.0011937749">
        <ele>2423.62</ele>
        <time>2019-09-06T08:45:51Z</time>
      </trkpt>
      <trkpt lat="42.5194128044" lon="1.0011953674">
        <ele>2423.62</ele>
        <time>2019-09-06T08:46:06Z</time>
      </trkpt>
      <trkpt lat="42.5194189232" lon="1.0011923499">
        <ele>2423.62</ele>
        <time>2019-09-06T08:47:10Z</time>
      </trkpt>
      <trkpt lat="42.5194156542" lon="1.0011953674">
        <ele>2423.62</ele>
        <time>2019-09-06T08:47:38Z</time>
      </trkpt>
      <trkpt lat="42.5194094516" lon="1.0011994746">
        <ele>2423.62</ele>
        <time>2019-09-06T08:48:27Z</time>
      </trkpt>
      <trkpt lat="42.5194157381" lon="1.0012079403">
        <ele>2423.62</ele>
        <time>2019-09-06T08:48:57Z</time>
      </trkpt>
      <trkpt lat="42.5194175821" lon="1.0012068506">
        <ele>2423.62</ele>
        <time>2019-09-06T08:49:16Z</time>
      </trkpt>
      <trkpt lat="42.5194327533" lon="1.0012299009">
        <ele>2423.62</ele>
        <time>2019-09-06T08:50:04Z</time>
      </trkpt>
      <trkpt lat="42.5194284786" lon="1.0012261290">
        <ele>2423.62</ele>
        <time>2019-09-06T08:50:34Z</time>
      </trkpt>
      <trkpt lat="42.5194351841" lon="1.0012868140">
        <ele>2423.62</ele>
        <time>2019-09-06T08:51:42Z</time>
      </trkpt>
      <trkpt lat="42.5194303226" lon="1.0012583155">
        <ele>2423.62</ele>
        <time>2019-09-06T08:53:04Z</time>
      </trkpt>
      <trkpt lat="42.5194175821" lon="1.0012360197">
        <ele>2423.62</ele>
        <time>2019-09-06T08:53:50Z</time>
      </trkpt>
      <trkpt lat="42.5194164924" lon="1.0012303200">
        <ele>2423.62</ele>
        <time>2019-09-06T08:55:04Z</time>
      </trkpt>
      <trkpt lat="42.5194190908" lon="1.0012191720">
        <ele>2423.62</ele>
        <time>2019-09-06T08:55:34Z</time>
      </trkpt>
      <trkpt lat="42.5194231141" lon="1.0012138914">
        <ele>2423.62</ele>
        <time>2019-09-06T08:56:27Z</time>
      </trkpt>
      <trkpt lat="42.5194174144" lon="1.0012138076">
        <ele>2423.62</ele>
        <time>2019-09-06T08:57:28Z</time>
      </trkpt>
      <trkpt lat="42.5194205996" lon="1.0011976305">
        <ele>2423.62</ele>
        <time>2019-09-06T08:58:07Z</time>
      </trkpt>
      <trkpt lat="42.5194191746" lon="1.0012019891">
        <ele>2423.62</ele>
        <time>2019-09-06T08:58:41Z</time>
      </trkpt>
      <trkpt lat="42.5194451585" lon="1.0012350138">
        <ele>2423.62</ele>
        <time>2019-09-06T08:59:11Z</time>
      </trkpt>
      <trkpt lat="42.5194442365" lon="1.0012376122">
        <ele>2423.62</ele>
        <time>2019-09-06T08:59:33Z</time>
      </trkpt>
      <trkpt lat="42.5194527861" lon="1.0012378637">
        <ele>2423.62</ele>
        <time>2019-09-06T09:00:16Z</time>
      </trkpt>
      <trkpt lat="42.5194506068" lon="1.0012257937">
        <ele>2423.62</ele>
        <time>2019-09-06T09:00:48Z</time>
      </trkpt>
      <trkpt lat="42.5194733217" lon="1.0012542922">
        <ele>2423.62</ele>
        <time>2019-09-06T09:01:07Z</time>
      </trkpt>
      <trkpt lat="42.5194598269" lon="1.0012343433">
        <ele>2423.62</ele>
        <time>2019-09-06T09:01:33Z</time>
      </trkpt>
      <trkpt lat="42.5194511097" lon="1.0012179986">
        <ele>2423.62</ele>
        <time>2019-09-06T09:02:01Z</time>
      </trkpt>
      <trkpt lat="42.5194349326" lon="1.0012055095">
        <ele>2423.62</ele>
        <time>2019-09-06T09:02:26Z</time>
      </trkpt>
      <trkpt lat="42.5194259640" lon="1.0012081079">
        <ele>2423.62</ele>
        <time>2019-09-06T09:02:56Z</time>
      </trkpt>
      <trkpt lat="42.5194398779" lon="1.0011984687">
        <ele>2423.62</ele>
        <time>2019-09-06T09:03:23Z</time>
      </trkpt>
      <trkpt lat="42.5194239523" lon="1.0011958703">
        <ele>2423.62</ele>
        <time>2019-09-06T09:03:38Z</time>
      </trkpt>
      <trkpt lat="42.5194102060" lon="1.0011849739">
        <ele>2423.62</ele>
        <time>2019-09-06T09:04:44Z</time>
      </trkpt>
      <trkpt lat="42.5194029976" lon="1.0011833813">
        <ele>2423.62</ele>
        <time>2019-09-06T09:05:33Z</time>
      </trkpt>
      <trkpt lat="42.5194093678" lon="1.0011827108">
        <ele>2423.62</ele>
        <time>2019-09-06T09:05:48Z</time>
      </trkpt>
      <trkpt lat="42.5194169115" lon="1.0011900030">
        <ele>2423.62</ele>
        <time>2019-09-06T09:05:59Z</time>
      </trkpt>
      <trkpt lat="42.5194208510" lon="1.0011892486">
        <ele>2423.62</ele>
        <time>2019-09-06T09:06:14Z</time>
      </trkpt>
      <trkpt lat="42.5194300711" lon="1.0011489317">
        <ele>2423.62</ele>
        <time>2019-09-06T09:06:24Z</time>
      </trkpt>
      <trkpt lat="42.5194624253" lon="1.0011273902">
        <ele>2423.62</ele>
        <time>2019-09-06T09:06:28Z</time>
      </trkpt>
      <trkpt lat="42.5195251219" lon="1.0010414757">
        <ele>2426.99</ele>
        <time>2019-09-06T09:06:38Z</time>
      </trkpt>
      <trkpt lat="42.5195267145" lon="1.0007906891">
        <ele>2424.10</ele>
        <time>2019-09-06T09:06:54Z</time>
      </trkpt>
      <trkpt lat="42.5195295643" lon="1.0006248113">
        <ele>2422.66</ele>
        <time>2019-09-06T09:07:07Z</time>
      </trkpt>
      <trkpt lat="42.5195251219" lon="1.0006021801">
        <ele>2422.18</ele>
        <time>2019-09-06T09:07:09Z</time>
      </trkpt>
      <trkpt lat="42.5194809493" lon="1.0004548263">
        <ele>2419.30</ele>
        <time>2019-09-06T09:07:18Z</time>
      </trkpt>
      <trkpt lat="42.5194792729" lon="1.0004177783">
        <ele>2418.81</ele>
        <time>2019-09-06T09:07:20Z</time>
      </trkpt>
      <trkpt lat="42.5195420533" lon="1.0003372282">
        <ele>2417.37</ele>
        <time>2019-09-06T09:07:28Z</time>
      </trkpt>
      <trkpt lat="42.5195771735" lon="1.0001560953">
        <ele>2414.01</ele>
        <time>2019-09-06T09:07:42Z</time>
      </trkpt>
      <trkpt lat="42.5195801072" lon="1.0001446120">
        <ele>2413.53</ele>
        <time>2019-09-06T09:07:43Z</time>
      </trkpt>
      <trkpt lat="42.5195612479" lon="1.0000219010">
        <ele>2412.57</ele>
        <time>2019-09-06T09:07:51Z</time>
      </trkpt>
      <trkpt lat="42.5195196737" lon="0.9999542590">
        <ele>2412.57</ele>
        <time>2019-09-06T09:07:57Z</time>
      </trkpt>
      <trkpt lat="42.5194998085" lon="0.9999270178">
        <ele>2412.57</ele>
        <time>2019-09-06T09:08:00Z</time>
      </trkpt>
      <trkpt lat="42.5194820389" lon="0.9999126848">
        <ele>2412.57</ele>
        <time>2019-09-06T09:08:02Z</time>
      </trkpt>
      <trkpt lat="42.5194235332" lon="0.9998833481">
        <ele>2412.57</ele>
        <time>2019-09-06T09:08:08Z</time>
      </trkpt>
      <trkpt lat="42.5193883292" lon="0.9998123534">
        <ele>2414.01</ele>
        <time>2019-09-06T09:08:15Z</time>
      </trkpt>
      <trkpt lat="42.5193573162" lon="0.9997217450">
        <ele>2415.93</ele>
        <time>2019-09-06T09:08:22Z</time>
      </trkpt>
      <trkpt lat="42.5192660373" lon="0.9996337350">
        <ele>2416.89</ele>
        <time>2019-09-06T09:08:34Z</time>
      </trkpt>
      <trkpt lat="42.5192476809" lon="0.9996269457">
        <ele>2415.45</ele>
        <time>2019-09-06T09:08:39Z</time>
      </trkpt>
      <trkpt lat="42.5192054361" lon="0.9997438733">
        <ele>2411.60</ele>
        <time>2019-09-06T09:08:51Z</time>
      </trkpt>
      <trkpt lat="42.5192006584" lon="0.9997325577">
        <ele>2411.60</ele>
        <time>2019-09-06T09:08:52Z</time>
      </trkpt>
      <trkpt lat="42.5190818030" lon="0.9995430429">
        <ele>2409.68</ele>
        <time>2019-09-06T09:09:07Z</time>
      </trkpt>
      <trkpt lat="42.5190421566" lon="0.9994997922">
        <ele>2408.72</ele>
        <time>2019-09-06T09:09:12Z</time>
      </trkpt>
      <trkpt lat="42.5190204475" lon="0.9994914941">
        <ele>2408.72</ele>
        <time>2019-09-06T09:09:14Z</time>
      </trkpt>
      <trkpt lat="42.5189906079" lon="0.9994443879">
        <ele>2407.76</ele>
        <time>2019-09-06T09:09:26Z</time>
      </trkpt>
      <trkpt lat="42.5189778674" lon="0.9994414542">
        <ele>2407.76</ele>
        <time>2019-09-06T09:09:38Z</time>
      </trkpt>
      <trkpt lat="42.5189794600" lon="0.9994332399">
        <ele>2407.76</ele>
        <time>2019-09-06T09:09:52Z</time>
      </trkpt>
      <trkpt lat="42.5189761911" lon="0.9994353354">
        <ele>2408.24</ele>
        <time>2019-09-06T09:10:12Z</time>
      </trkpt>
      <trkpt lat="42.5189474411" lon="0.9994015563">
        <ele>2407.76</ele>
        <time>2019-09-06T09:10:27Z</time>
      </trkpt>
      <trkpt lat="42.5189078785" lon="0.9993638378">
        <ele>2407.28</ele>
        <time>2019-09-06T09:10:31Z</time>
      </trkpt>
      <trkpt lat="42.5188398175" lon="0.9993344173">
        <ele>2405.36</ele>
        <time>2019-09-06T09:10:38Z</time>
      </trkpt>
      <trkpt lat="42.5187318586" lon="0.9993178211">
        <ele>2403.43</ele>
        <time>2019-09-06T09:10:49Z</time>
      </trkpt>
      <trkpt lat="42.5186250731" lon="0.9991916735">
        <ele>2401.51</ele>
        <time>2019-09-06T09:11:00Z</time>
      </trkpt>
      <trkpt lat="42.5185149349" lon="0.9991449863">
        <ele>2399.59</ele>
        <time>2019-09-06T09:11:11Z</time>
      </trkpt>
      <trkpt lat="42.5185057148" lon="0.9991351794">
        <ele>2399.11</ele>
        <time>2019-09-06T09:11:12Z</time>
      </trkpt>
      <trkpt lat="42.5183824170" lon="0.9990353510">
        <ele>2396.70</ele>
        <time>2019-09-06T09:11:25Z</time>
      </trkpt>
      <trkpt lat="42.5183250010" lon="0.9989394620">
        <ele>2394.78</ele>
        <time>2019-09-06T09:11:33Z</time>
      </trkpt>
      <trkpt lat="42.5182656571" lon="0.9987086244">
        <ele>2394.78</ele>
        <time>2019-09-06T09:11:48Z</time>
      </trkpt>
      <trkpt lat="42.5182509050" lon="0.9986755159">
        <ele>2394.78</ele>
        <time>2019-09-06T09:11:51Z</time>
      </trkpt>
      <trkpt lat="42.5181708578" lon="0.9985637013">
        <ele>2396.70</ele>
        <time>2019-09-06T09:12:02Z</time>
      </trkpt>
      <trkpt lat="42.5181360729" lon="0.9983989969">
        <ele>2397.18</ele>
        <time>2019-09-06T09:12:14Z</time>
      </trkpt>
      <trkpt lat="42.5181286130" lon="0.9983721748">
        <ele>2396.70</ele>
        <time>2019-09-06T09:12:16Z</time>
      </trkpt>
      <trkpt lat="42.5180698559" lon="0.9982208814">
        <ele>2395.26</ele>
        <time>2019-09-06T09:12:29Z</time>
      </trkpt>
      <trkpt lat="42.5180108473" lon="0.9980964940">
        <ele>2392.86</ele>
        <time>2019-09-06T09:12:41Z</time>
      </trkpt>
      <trkpt lat="42.5179660041" lon="0.9979892895">
        <ele>2390.46</ele>
        <time>2019-09-06T09:12:52Z</time>
      </trkpt>
      <trkpt lat="42.5179729611" lon="0.9978736192">
        <ele>2388.05</ele>
        <time>2019-09-06T09:13:00Z</time>
      </trkpt>
      <trkpt lat="42.5179553591" lon="0.9978246689">
        <ele>2386.61</ele>
        <time>2019-09-06T09:13:05Z</time>
      </trkpt>
      <trkpt lat="42.5178654213" lon="0.9978498146">
        <ele>2385.17</ele>
        <time>2019-09-06T09:13:13Z</time>
      </trkpt>
      <trkpt lat="42.5177541096" lon="0.9977819212">
        <ele>2384.21</ele>
        <time>2019-09-06T09:13:25Z</time>
      </trkpt>
      <trkpt lat="42.5177023932" lon="0.9977648221">
        <ele>2383.25</ele>
        <time>2019-09-06T09:13:31Z</time>
      </trkpt>
      <trkpt lat="42.5176747330" lon="0.9976463858">
        <ele>2382.28</ele>
        <time>2019-09-06T09:13:40Z</time>
      </trkpt>
      <trkpt lat="42.5176735595" lon="0.9975702781">
        <ele>2380.84</ele>
        <time>2019-09-06T09:13:46Z</time>
      </trkpt>
      <trkpt lat="42.5176500063" lon="0.9975503292">
        <ele>2380.36</ele>
        <time>2019-09-06T09:13:50Z</time>
      </trkpt>
      <trkpt lat="42.5176364277" lon="0.9975453001">
        <ele>2379.88</ele>
        <time>2019-09-06T09:13:52Z</time>
      </trkpt>
      <trkpt lat="42.5176122040" lon="0.9975567833">
        <ele>2379.40</ele>
        <time>2019-09-06T09:13:55Z</time>
      </trkpt>
      <trkpt lat="42.5175272953" lon="0.9975814261">
        <ele>2377.48</ele>
        <time>2019-09-06T09:14:05Z</time>
      </trkpt>
      <trkpt lat="42.5173884071" lon="0.9975962620">
        <ele>2374.11</ele>
        <time>2019-09-06T09:14:19Z</time>
      </trkpt>
      <trkpt lat="42.5173965376" lon="0.9974840283">
        <ele>2371.71</ele>
        <time>2019-09-06T09:14:30Z</time>
      </trkpt>
      <trkpt lat="42.5174007285" lon="0.9974727128">
        <ele>2371.71</ele>
        <time>2019-09-06T09:14:31Z</time>
      </trkpt>
      <trkpt lat="42.5174249522" lon="0.9973908216">
        <ele>2370.27</ele>
        <time>2019-09-06T09:14:38Z</time>
      </trkpt>
      <trkpt lat="42.5174082723" lon="0.9972393606">
        <ele>2368.35</ele>
        <time>2019-09-06T09:14:51Z</time>
      </trkpt>
      <trkpt lat="42.5174355134" lon="0.9970506001">
        <ele>2366.90</ele>
        <time>2019-09-06T09:15:05Z</time>
      </trkpt>
      <trkpt lat="42.5174028240" lon="0.9969190042">
        <ele>2364.02</ele>
        <time>2019-09-06T09:15:17Z</time>
      </trkpt>
      <trkpt lat="42.5173811987" lon="0.9967129771">
        <ele>2362.58</ele>
        <time>2019-09-06T09:15:29Z</time>
      </trkpt>
      <trkpt lat="42.5173786003" lon="0.9965068661">
        <ele>2361.14</ele>
        <time>2019-09-06T09:15:41Z</time>
      </trkpt>
      <trkpt lat="42.5173464138" lon="0.9963110648">
        <ele>2360.17</ele>
        <time>2019-09-06T09:15:53Z</time>
      </trkpt>
      <trkpt lat="42.5173415523" lon="0.9962601867">
        <ele>2360.17</ele>
        <time>2019-09-06T09:15:56Z</time>
      </trkpt>
      <trkpt lat="42.5173339248" lon="0.9960535727">
        <ele>2358.73</ele>
        <time>2019-09-06T09:16:09Z</time>
      </trkpt>
      <trkpt lat="42.5172951166" lon="0.9957902972">
        <ele>2357.77</ele>
        <time>2019-09-06T09:16:25Z</time>
      </trkpt>
      <trkpt lat="42.5172872376" lon="0.9957615472">
        <ele>2357.29</ele>
        <time>2019-09-06T09:16:27Z</time>
      </trkpt>
      <trkpt lat="42.5172651932" lon="0.9957110044">
        <ele>2357.29</ele>
        <time>2019-09-06T09:16:33Z</time>
      </trkpt>
      <trkpt lat="42.5171594974" lon="0.9956160374">
        <ele>2355.85</ele>
        <time>2019-09-06T09:16:45Z</time>
      </trkpt>
      <trkpt lat="42.5170848146" lon="0.9955540113">
        <ele>2353.44</ele>
        <time>2019-09-06T09:16:58Z</time>
      </trkpt>
      <trkpt lat="42.5170631893" lon="0.9955834318">
        <ele>2352.96</ele>
        <time>2019-09-06T09:17:02Z</time>
      </trkpt>
      <trkpt lat="42.5170497783" lon="0.9956199769">
        <ele>2352.48</ele>
        <time>2019-09-06T09:17:05Z</time>
      </trkpt>
      <trkpt lat="42.5170087907" lon="0.9956547618">
        <ele>2350.56</ele>
        <time>2019-09-06T09:17:17Z</time>
      </trkpt>
      <trkpt lat="42.5169941224" lon="0.9956820868">
        <ele>2350.56</ele>
        <time>2019-09-06T09:17:20Z</time>
      </trkpt>
      <trkpt lat="42.5169458427" lon="0.9957309533">
        <ele>2348.64</ele>
        <time>2019-09-06T09:17:31Z</time>
      </trkpt>
      <trkpt lat="42.5168939587" lon="0.9956370760">
        <ele>2346.72</ele>
        <time>2019-09-06T09:17:39Z</time>
      </trkpt>
      <trkpt lat="42.5169009995" lon="0.9956076555">
        <ele>2346.23</ele>
        <time>2019-09-06T09:17:41Z</time>
      </trkpt>
      <trkpt lat="42.5169150811" lon="0.9955856111">
        <ele>2346.23</ele>
        <time>2019-09-06T09:17:43Z</time>
      </trkpt>
      <trkpt lat="42.5169587508" lon="0.9955603816">
        <ele>2345.27</ele>
        <time>2019-09-06T09:17:48Z</time>
      </trkpt>
      <trkpt lat="42.5170470960" lon="0.9954602178">
        <ele>2344.31</ele>
        <time>2019-09-06T09:17:59Z</time>
      </trkpt>
      <trkpt lat="42.5170823000" lon="0.9952510055">
        <ele>2342.39</ele>
        <time>2019-09-06T09:18:12Z</time>
      </trkpt>
      <trkpt lat="42.5171396323" lon="0.9951476566">
        <ele>2342.39</ele>
        <time>2019-09-06T09:18:21Z</time>
      </trkpt>
      <trkpt lat="42.5172344316" lon="0.9948848002">
        <ele>2342.39</ele>
        <time>2019-09-06T09:18:38Z</time>
      </trkpt>
      <trkpt lat="42.5172404665" lon="0.9948526975">
        <ele>2342.39</ele>
        <time>2019-09-06T09:18:40Z</time>
      </trkpt>
      <trkpt lat="42.5172447413" lon="0.9947349317">
        <ele>2341.91</ele>
        <time>2019-09-06T09:18:48Z</time>
      </trkpt>
      <trkpt lat="42.5172517821" lon="0.9947024100">
        <ele>2341.43</ele>
        <time>2019-09-06T09:18:51Z</time>
      </trkpt>
      <trkpt lat="42.5172464177" lon="0.9945264738">
        <ele>2338.54</ele>
        <time>2019-09-06T09:19:04Z</time>
      </trkpt>
      <trkpt lat="42.5172024965" lon="0.9945004899">
        <ele>2336.62</ele>
        <time>2019-09-06T09:19:11Z</time>
      </trkpt>
      <trkpt lat="42.5171490200" lon="0.9944747575">
        <ele>2335.18</ele>
        <time>2019-09-06T09:19:17Z</time>
      </trkpt>
      <trkpt lat="42.5171224494" lon="0.9944322612">
        <ele>2333.74</ele>
        <time>2019-09-06T09:19:21Z</time>
      </trkpt>
      <trkpt lat="42.5170377083" lon="0.9942486975">
        <ele>2331.81</ele>
        <time>2019-09-06T09:19:33Z</time>
      </trkpt>
      <trkpt lat="42.5169988163" lon="0.9940731805">
        <ele>2332.30</ele>
        <time>2019-09-06T09:19:44Z</time>
      </trkpt>
      <trkpt lat="42.5169946253" lon="0.9940478671">
        <ele>2332.30</ele>
        <time>2019-09-06T09:19:46Z</time>
      </trkpt>
      <trkpt lat="42.5169522129" lon="0.9940104838">
        <ele>2332.78</ele>
        <time>2019-09-06T09:19:51Z</time>
      </trkpt>
      <trkpt lat="42.5168911926" lon="0.9939826559">
        <ele>2332.78</ele>
        <time>2019-09-06T09:19:57Z</time>
      </trkpt>
      <trkpt lat="42.5167647935" lon="0.9938990045">
        <ele>2331.81</ele>
        <time>2019-09-06T09:20:08Z</time>
      </trkpt>
      <trkpt lat="42.5167388096" lon="0.9937091544">
        <ele>2329.89</ele>
        <time>2019-09-06T09:20:20Z</time>
      </trkpt>
      <trkpt lat="42.5167287514" lon="0.9936861880">
        <ele>2329.41</ele>
        <time>2019-09-06T09:20:22Z</time>
      </trkpt>
      <trkpt lat="42.5167000014" lon="0.9934890456">
        <ele>2327.01</ele>
        <time>2019-09-06T09:20:35Z</time>
      </trkpt>
      <trkpt lat="42.5166896079" lon="0.9934473038">
        <ele>2326.05</ele>
        <time>2019-09-06T09:20:38Z</time>
      </trkpt>
      <trkpt lat="42.5166761130" lon="0.9933570307">
        <ele>2325.09</ele>
        <time>2019-09-06T09:20:44Z</time>
      </trkpt>
      <trkpt lat="42.5166229717" lon="0.9931318928">
        <ele>2323.16</ele>
        <time>2019-09-06T09:20:57Z</time>
      </trkpt>
      <trkpt lat="42.5166187808" lon="0.9931189846">
        <ele>2321.72</ele>
        <time>2019-09-06T09:21:05Z</time>
      </trkpt>
      <trkpt lat="42.5166232232" lon="0.9931300487">
        <ele>2321.24</ele>
        <time>2019-09-06T09:21:27Z</time>
      </trkpt>
      <trkpt lat="42.5166265760" lon="0.9931427892">
        <ele>2321.72</ele>
        <time>2019-09-06T09:21:39Z</time>
      </trkpt>
      <trkpt lat="42.5166313536" lon="0.9931565356">
        <ele>2320.76</ele>
        <time>2019-09-06T09:21:49Z</time>
      </trkpt>
      <trkpt lat="42.5166362152" lon="0.9931479860">
        <ele>2320.76</ele>
        <time>2019-09-06T09:22:22Z</time>
      </trkpt>
      <trkpt lat="42.5166321918" lon="0.9931439627">
        <ele>2320.76</ele>
        <time>2019-09-06T09:22:34Z</time>
      </trkpt>
      <trkpt lat="42.5166381430" lon="0.9931419510">
        <ele>2320.76</ele>
        <time>2019-09-06T09:22:48Z</time>
      </trkpt>
      <trkpt lat="42.5166302640" lon="0.9931433760">
        <ele>2320.76</ele>
        <time>2019-09-06T09:23:01Z</time>
      </trkpt>
      <trkpt lat="42.5166272465" lon="0.9930517618">
        <ele>2320.76</ele>
        <time>2019-09-06T09:23:17Z</time>
      </trkpt>
      <trkpt lat="42.5166295934" lon="0.9930189885">
        <ele>2320.76</ele>
        <time>2019-09-06T09:23:20Z</time>
      </trkpt>
      <trkpt lat="42.5166604389" lon="0.9929386899">
        <ele>2320.28</ele>
        <time>2019-09-06T09:23:27Z</time>
      </trkpt>
      <trkpt lat="42.5167291705" lon="0.9927543718">
        <ele>2318.36</ele>
        <time>2019-09-06T09:23:40Z</time>
      </trkpt>
      <trkpt lat="42.5167334452" lon="0.9927011468">
        <ele>2317.88</ele>
        <time>2019-09-06T09:23:44Z</time>
      </trkpt>
      <trkpt lat="42.5167134125" lon="0.9925707243">
        <ele>2315.47</ele>
        <time>2019-09-06T09:23:55Z</time>
      </trkpt>
      <trkpt lat="42.5167139154" lon="0.9925342631">
        <ele>2314.51</ele>
        <time>2019-09-06T09:24:00Z</time>
      </trkpt>
      <trkpt lat="42.5167313498" lon="0.9924444929">
        <ele>2312.59</ele>
        <time>2019-09-06T09:24:06Z</time>
      </trkpt>
      <trkpt lat="42.5167358760" lon="0.9924218617">
        <ele>2312.59</ele>
        <time>2019-09-06T09:24:16Z</time>
      </trkpt>
      <trkpt lat="42.5167384744" lon="0.9924121387">
        <ele>2312.59</ele>
        <time>2019-09-06T09:24:21Z</time>
      </trkpt>
      <trkpt lat="42.5167424977" lon="0.9923810419">
        <ele>2312.11</ele>
        <time>2019-09-06T09:24:23Z</time>
      </trkpt>
      <trkpt lat="42.5167818088" lon="0.9921656270">
        <ele>2312.11</ele>
        <time>2019-09-06T09:24:40Z</time>
      </trkpt>
      <trkpt lat="42.5167642906" lon="0.9920969792">
        <ele>2311.63</ele>
        <time>2019-09-06T09:24:46Z</time>
      </trkpt>
      <trkpt lat="42.5167443417" lon="0.9920460172">
        <ele>2311.63</ele>
        <time>2019-09-06T09:24:50Z</time>
      </trkpt>
      <trkpt lat="42.5167243090" lon="0.9919993300">
        <ele>2311.15</ele>
        <time>2019-09-06T09:24:54Z</time>
      </trkpt>
      <trkpt lat="42.5167269073" lon="0.9917596076">
        <ele>2310.19</ele>
        <time>2019-09-06T09:25:08Z</time>
      </trkpt>
      <trkpt lat="42.5167615246" lon="0.9915095754">
        <ele>2310.19</ele>
        <time>2019-09-06T09:25:23Z</time>
      </trkpt>
      <trkpt lat="42.5167392287" lon="0.9912710264">
        <ele>2310.67</ele>
        <time>2019-09-06T09:25:39Z</time>
      </trkpt>
      <trkpt lat="42.5167585909" lon="0.9912112635">
        <ele>2309.70</ele>
        <time>2019-09-06T09:25:49Z</time>
      </trkpt>
      <trkpt lat="42.5169538893" lon="0.9911053162">
        <ele>2306.82</ele>
        <time>2019-09-06T09:26:06Z</time>
      </trkpt>
      <trkpt lat="42.5171077810" lon="0.9908980317">
        <ele>2307.30</ele>
        <time>2019-09-06T09:26:22Z</time>
      </trkpt>
      <trkpt lat="42.5171617605" lon="0.9907699563">
        <ele>2307.78</ele>
        <time>2019-09-06T09:26:30Z</time>
      </trkpt>
      <trkpt lat="42.5172449090" lon="0.9906201717">
        <ele>2306.82</ele>
        <time>2019-09-06T09:26:41Z</time>
      </trkpt>
      <trkpt lat="42.5172792748" lon="0.9905646835">
        <ele>2306.82</ele>
        <time>2019-09-06T09:26:45Z</time>
      </trkpt>
      <trkpt lat="42.5174216833" lon="0.9904020745">
        <ele>2306.34</ele>
        <time>2019-09-06T09:26:59Z</time>
      </trkpt>
      <trkpt lat="42.5174652692" lon="0.9902398009">
        <ele>2305.86</ele>
        <time>2019-09-06T09:27:10Z</time>
      </trkpt>
      <trkpt lat="42.5175707135" lon="0.9900052752">
        <ele>2305.38</ele>
        <time>2019-09-06T09:27:28Z</time>
      </trkpt>
      <trkpt lat="42.5176453125" lon="0.9898288362">
        <ele>2305.38</ele>
        <time>2019-09-06T09:27:40Z</time>
      </trkpt>
      <trkpt lat="42.5177311432" lon="0.9896281734">
        <ele>2304.90</ele>
        <time>2019-09-06T09:27:54Z</time>
      </trkpt>
      <trkpt lat="42.5177934207" lon="0.9894166142">
        <ele>2304.42</ele>
        <time>2019-09-06T09:28:08Z</time>
      </trkpt>
      <trkpt lat="42.5178151298" lon="0.9893244132">
        <ele>2304.90</ele>
        <time>2019-09-06T09:28:14Z</time>
      </trkpt>
      <trkpt lat="42.5178038981" lon="0.9891711082">
        <ele>2304.90</ele>
        <time>2019-09-06T09:28:25Z</time>
      </trkpt>
      <trkpt lat="42.5177854579" lon="0.9889876284">
        <ele>2305.38</ele>
        <time>2019-09-06T09:28:37Z</time>
      </trkpt>
      <trkpt lat="42.5177880563" lon="0.9889737982">
        <ele>2304.90</ele>
        <time>2019-09-06T09:28:52Z</time>
      </trkpt>
      <trkpt lat="42.5178411976" lon="0.9887965210">
        <ele>2305.38</ele>
        <time>2019-09-06T09:29:03Z</time>
      </trkpt>
      <trkpt lat="42.5178887229" lon="0.9885717183">
        <ele>2305.86</ele>
        <time>2019-09-06T09:29:17Z</time>
      </trkpt>
      <trkpt lat="42.5179613940" lon="0.9883774258">
        <ele>2305.38</ele>
        <time>2019-09-06T09:29:29Z</time>
      </trkpt>
      <trkpt lat="42.5180554390" lon="0.9880967997">
        <ele>2305.38</ele>
        <time>2019-09-06T09:29:45Z</time>
      </trkpt>
      <trkpt lat="42.5181372464" lon="0.9879166726">
        <ele>2305.38</ele>
        <time>2019-09-06T09:29:58Z</time>
      </trkpt>
      <trkpt lat="42.5182347279" lon="0.9878033493">
        <ele>2305.38</ele>
        <time>2019-09-06T09:30:09Z</time>
      </trkpt>
      <trkpt lat="42.5183345564" lon="0.9877140820">
        <ele>2305.86</ele>
        <time>2019-09-06T09:30:20Z</time>
      </trkpt>
      <trkpt lat="42.5184097420" lon="0.9876168519">
        <ele>2305.38</ele>
        <time>2019-09-06T09:30:30Z</time>
      </trkpt>
      <trkpt lat="42.5184320379" lon="0.9875911195">
        <ele>2305.38</ele>
        <time>2019-09-06T09:30:33Z</time>
      </trkpt>
      <trkpt lat="42.5185322855" lon="0.9873842541">
        <ele>2305.86</ele>
        <time>2019-09-06T09:30:48Z</time>
      </trkpt>
      <trkpt lat="42.5185605325" lon="0.9873581026">
        <ele>2306.34</ele>
        <time>2019-09-06T09:30:55Z</time>
      </trkpt>
      <trkpt lat="42.5185796432" lon="0.9873501398">
        <ele>2306.34</ele>
        <time>2019-09-06T09:30:57Z</time>
      </trkpt>
      <trkpt lat="42.5186705031" lon="0.9873010218">
        <ele>2306.82</ele>
        <time>2019-09-06T09:31:07Z</time>
      </trkpt>
      <trkpt lat="42.5186930504" lon="0.9872775525">
        <ele>2306.82</ele>
        <time>2019-09-06T09:31:09Z</time>
      </trkpt>
      <trkpt lat="42.5187189505" lon="0.9871990141">
        <ele>2306.82</ele>
        <time>2019-09-06T09:31:19Z</time>
      </trkpt>
      <trkpt lat="42.5187261589" lon="0.9872031212">
        <ele>2306.34</ele>
        <time>2019-09-06T09:31:32Z</time>
      </trkpt>
      <trkpt lat="42.5187212136" lon="0.9872008581">
        <ele>2305.86</ele>
        <time>2019-09-06T09:31:53Z</time>
      </trkpt>
      <trkpt lat="42.5187192019" lon="0.9872121736">
        <ele>2306.34</ele>
        <time>2019-09-06T09:32:08Z</time>
      </trkpt>
      <trkpt lat="42.5187155139" lon="0.9871966671">
        <ele>2306.34</ele>
        <time>2019-09-06T09:32:29Z</time>
      </trkpt>
      <trkpt lat="42.5187005103" lon="0.9871798195">
        <ele>2306.34</ele>
        <time>2019-09-06T09:32:47Z</time>
      </trkpt>
      <trkpt lat="42.5186850876" lon="0.9871702641">
        <ele>2306.34</ele>
        <time>2019-09-06T09:32:49Z</time>
      </trkpt>
      <trkpt lat="42.5186238997" lon="0.9871078189">
        <ele>2306.34</ele>
        <time>2019-09-06T09:32:58Z</time>
      </trkpt>
      <trkpt lat="42.5185922999" lon="0.9870149475">
        <ele>2305.38</ele>
        <time>2019-09-06T09:33:09Z</time>
      </trkpt>
      <trkpt lat="42.5185891986" lon="0.9869425278">
        <ele>2304.90</ele>
        <time>2019-09-06T09:33:18Z</time>
      </trkpt>
      <trkpt lat="42.5185901206" lon="0.9868575353">
        <ele>2303.46</ele>
        <time>2019-09-06T09:33:29Z</time>
      </trkpt>
      <trkpt lat="42.5186141767" lon="0.9867950063">
        <ele>2302.98</ele>
        <time>2019-09-06T09:33:37Z</time>
      </trkpt>
      <trkpt lat="42.5186129194" lon="0.9867293760">
        <ele>2301.05</ele>
        <time>2019-09-06T09:33:46Z</time>
      </trkpt>
      <trkpt lat="42.5186960679" lon="0.9865784179">
        <ele>2299.61</ele>
        <time>2019-09-06T09:33:59Z</time>
      </trkpt>
      <trkpt lat="42.5187247340" lon="0.9864745662">
        <ele>2299.61</ele>
        <time>2019-09-06T09:34:07Z</time>
      </trkpt>
      <trkpt lat="42.5187803898" lon="0.9864349198">
        <ele>2297.69</ele>
        <time>2019-09-06T09:34:13Z</time>
      </trkpt>
      <trkpt lat="42.5188812241" lon="0.9863717202">
        <ele>2296.25</ele>
        <time>2019-09-06T09:34:25Z</time>
      </trkpt>
      <trkpt lat="42.5189580023" lon="0.9863139689">
        <ele>2295.77</ele>
        <time>2019-09-06T09:34:33Z</time>
      </trkpt>
      <trkpt lat="42.5189879257" lon="0.9862595703">
        <ele>2295.77</ele>
        <time>2019-09-06T09:34:38Z</time>
      </trkpt>
      <trkpt lat="42.5190844852" lon="0.9862086922">
        <ele>2298.17</ele>
        <time>2019-09-06T09:34:51Z</time>
      </trkpt>
      <trkpt lat="42.5191072840" lon="0.9861872345">
        <ele>2299.13</ele>
        <time>2019-09-06T09:34:54Z</time>
      </trkpt>
      <trkpt lat="42.5191569887" lon="0.9861685429">
        <ele>2300.09</ele>
        <time>2019-09-06T09:35:01Z</time>
      </trkpt>
      <trkpt lat="42.5192204397" lon="0.9860952012">
        <ele>2301.53</ele>
        <time>2019-09-06T09:35:10Z</time>
      </trkpt>
      <trkpt lat="42.5192739163" lon="0.9860250447">
        <ele>2303.46</ele>
        <time>2019-09-06T09:35:22Z</time>
      </trkpt>
      <trkpt lat="42.5192888360" lon="0.9860045929">
        <ele>2303.94</ele>
        <time>2019-09-06T09:35:25Z</time>
      </trkpt>
      <trkpt lat="42.5193125568" lon="0.9859872423">
        <ele>2304.42</ele>
        <time>2019-09-06T09:35:28Z</time>
      </trkpt>
      <trkpt lat="42.5194559712" lon="0.9859312512">
        <ele>2304.42</ele>
        <time>2019-09-06T09:35:42Z</time>
      </trkpt>
      <trkpt lat="42.5195282232" lon="0.9857850708">
        <ele>2305.86</ele>
        <time>2019-09-06T09:35:56Z</time>
      </trkpt>
      <trkpt lat="42.5195110403" lon="0.9857729170">
        <ele>2306.34</ele>
        <time>2019-09-06T09:35:58Z</time>
      </trkpt>
      <trkpt lat="42.5194918457" lon="0.9856826439">
        <ele>2307.30</ele>
        <time>2019-09-06T09:36:09Z</time>
      </trkpt>
      <trkpt lat="42.5194885768" lon="0.9856431652">
        <ele>2307.30</ele>
        <time>2019-09-06T09:36:20Z</time>
      </trkpt>
      <trkpt lat="42.5195714738" lon="0.9855616093">
        <ele>2306.34</ele>
        <time>2019-09-06T09:36:33Z</time>
      </trkpt>
      <trkpt lat="42.5195965357" lon="0.9855369665">
        <ele>2306.82</ele>
        <time>2019-09-06T09:36:37Z</time>
      </trkpt>
      <trkpt lat="42.5196409598" lon="0.9854701627">
        <ele>2306.34</ele>
        <time>2019-09-06T09:36:44Z</time>
      </trkpt>
      <trkpt lat="42.5196804386" lon="0.9853310231">
        <ele>2304.90</ele>
        <time>2019-09-06T09:36:55Z</time>
      </trkpt>
      <trkpt lat="42.5196956098" lon="0.9852958191">
        <ele>2304.42</ele>
        <time>2019-09-06T09:36:59Z</time>
      </trkpt>
      <trkpt lat="42.5197123736" lon="0.9852333739">
        <ele>2303.94</ele>
        <time>2019-09-06T09:37:09Z</time>
      </trkpt>
      <trkpt lat="42.5197168998" lon="0.9852208849">
        <ele>2303.94</ele>
        <time>2019-09-06T09:37:17Z</time>
      </trkpt>
      <trkpt lat="42.5197176542" lon="0.9852140956">
        <ele>2303.94</ele>
        <time>2019-09-06T09:37:18Z</time>
      </trkpt>
      <trkpt lat="42.5197577197" lon="0.9851661511">
        <ele>2302.49</ele>
        <time>2019-09-06T09:37:27Z</time>
      </trkpt>
      <trkpt lat="42.5197704602" lon="0.9851584397">
        <ele>2302.98</ele>
        <time>2019-09-06T09:37:30Z</time>
      </trkpt>
      <trkpt lat="42.5198379345" lon="0.9850996826">
        <ele>2302.01</ele>
        <time>2019-09-06T09:37:42Z</time>
      </trkpt>
      <trkpt lat="42.5198431313" lon="0.9850718547">
        <ele>2302.01</ele>
        <time>2019-09-06T09:37:44Z</time>
      </trkpt>
      <trkpt lat="42.5198377669" lon="0.9850276820">
        <ele>2301.05</ele>
        <time>2019-09-06T09:37:50Z</time>
      </trkpt>
      <trkpt lat="42.5198464841" lon="0.9849268477">
        <ele>2300.09</ele>
        <time>2019-09-06T09:37:57Z</time>
      </trkpt>
      <trkpt lat="42.5198428798" lon="0.9848927334">
        <ele>2299.61</ele>
        <time>2019-09-06T09:37:59Z</time>
      </trkpt>
      <trkpt lat="42.5198465679" lon="0.9848487284">
        <ele>2299.13</ele>
        <time>2019-09-06T09:38:02Z</time>
      </trkpt>
      <trkpt lat="42.5198483281" lon="0.9847915638">
        <ele>2298.65</ele>
        <time>2019-09-06T09:38:12Z</time>
      </trkpt>
      <trkpt lat="42.5198638346" lon="0.9847686812">
        <ele>2299.13</ele>
        <time>2019-09-06T09:38:28Z</time>
      </trkpt>
      <trkpt lat="42.5199184008" lon="0.9845900629">
        <ele>2299.13</ele>
        <time>2019-09-06T09:38:41Z</time>
      </trkpt>
      <trkpt lat="42.5199604779" lon="0.9845466446">
        <ele>2299.13</ele>
        <time>2019-09-06T09:38:46Z</time>
      </trkpt>
      <trkpt lat="42.5200733822" lon="0.9844165575">
        <ele>2298.17</ele>
        <time>2019-09-06T09:38:59Z</time>
      </trkpt>
      <trkpt lat="42.5201421138" lon="0.9843348339">
        <ele>2297.21</ele>
        <time>2019-09-06T09:39:08Z</time>
      </trkpt>
      <trkpt lat="42.5201663375" lon="0.9841312375">
        <ele>2295.77</ele>
        <time>2019-09-06T09:39:20Z</time>
      </trkpt>
      <trkpt lat="42.5202280283" lon="0.9839482605">
        <ele>2294.80</ele>
        <time>2019-09-06T09:39:34Z</time>
      </trkpt>
      <trkpt lat="42.5202515814" lon="0.9839055128">
        <ele>2293.84</ele>
        <time>2019-09-06T09:39:40Z</time>
      </trkpt>
      <trkpt lat="42.5203426089" lon="0.9838431515">
        <ele>2291.92</ele>
        <time>2019-09-06T09:39:49Z</time>
      </trkpt>
      <trkpt lat="42.5203502364" lon="0.9836534690">
        <ele>2290.96</ele>
        <time>2019-09-06T09:40:01Z</time>
      </trkpt>
      <trkpt lat="42.5203458779" lon="0.9834483638">
        <ele>2291.44</ele>
        <time>2019-09-06T09:40:14Z</time>
      </trkpt>
      <trkpt lat="42.5203592051" lon="0.9833355434">
        <ele>2290.48</ele>
        <time>2019-09-06T09:40:21Z</time>
      </trkpt>
      <trkpt lat="42.5203673355" lon="0.9832417499">
        <ele>2290.48</ele>
        <time>2019-09-06T09:40:27Z</time>
      </trkpt>
      <trkpt lat="42.5203665812" lon="0.9832103178">
        <ele>2290.48</ele>
        <time>2019-09-06T09:40:29Z</time>
      </trkpt>
      <trkpt lat="42.5203965046" lon="0.9831057955">
        <ele>2290.96</ele>
        <time>2019-09-06T09:40:37Z</time>
      </trkpt>
      <trkpt lat="42.5204287749" lon="0.9829339664">
        <ele>2290.96</ele>
        <time>2019-09-06T09:40:48Z</time>
      </trkpt>
      <trkpt lat="42.5204391684" lon="0.9827234969">
        <ele>2290.96</ele>
        <time>2019-09-06T09:41:02Z</time>
      </trkpt>
      <trkpt lat="42.5204420183" lon="0.9826686792">
        <ele>2290.96</ele>
        <time>2019-09-06T09:41:06Z</time>
      </trkpt>
      <trkpt lat="42.5204571895" lon="0.9826495685">
        <ele>2290.96</ele>
        <time>2019-09-06T09:41:08Z</time>
      </trkpt>
      <trkpt lat="42.5205141865" lon="0.9823970217">
        <ele>2290.48</ele>
        <time>2019-09-06T09:41:24Z</time>
      </trkpt>
      <trkpt lat="42.5205684174" lon="0.9822897334">
        <ele>2290.00</ele>
        <time>2019-09-06T09:41:34Z</time>
      </trkpt>
      <trkpt lat="42.5205813255" lon="0.9822485782">
        <ele>2289.52</ele>
        <time>2019-09-06T09:41:37Z</time>
      </trkpt>
      <trkpt lat="42.5206058845" lon="0.9821881447">
        <ele>2289.04</ele>
        <time>2019-09-06T09:41:41Z</time>
      </trkpt>
      <trkpt lat="42.5206743646" lon="0.9820526093">
        <ele>2289.04</ele>
        <time>2019-09-06T09:41:52Z</time>
      </trkpt>
      <trkpt lat="42.5208254065" lon="0.9819546249">
        <ele>2288.56</ele>
        <time>2019-09-06T09:42:07Z</time>
      </trkpt>
      <trkpt lat="42.5208730996" lon="0.9819569718">
        <ele>2288.08</ele>
        <time>2019-09-06T09:42:11Z</time>
      </trkpt>
      <trkpt lat="42.5209931284" lon="0.9819918405">
        <ele>2289.04</ele>
        <time>2019-09-06T09:42:23Z</time>
      </trkpt>
      <trkpt lat="42.5210125744" lon="0.9819838777">
        <ele>2289.52</ele>
        <time>2019-09-06T09:42:25Z</time>
      </trkpt>
      <trkpt lat="42.5210637879" lon="0.9819153138">
        <ele>2290.48</ele>
        <time>2019-09-06T09:42:31Z</time>
      </trkpt>
      <trkpt lat="42.5211934559" lon="0.9818278067">
        <ele>2290.48</ele>
        <time>2019-09-06T09:42:43Z</time>
      </trkpt>
      <trkpt lat="42.5212134048" lon="0.9817727376">
        <ele>2290.48</ele>
        <time>2019-09-06T09:42:48Z</time>
      </trkpt>
      <trkpt lat="42.5212627742" lon="0.9817783535">
        <ele>2289.52</ele>
        <time>2019-09-06T09:42:53Z</time>
      </trkpt>
      <trkpt lat="42.5212972239" lon="0.9817592427">
        <ele>2288.56</ele>
        <time>2019-09-06T09:42:56Z</time>
      </trkpt>
      <trkpt lat="42.5213456713" lon="0.9817490168">
        <ele>2287.59</ele>
        <time>2019-09-06T09:43:01Z</time>
      </trkpt>
      <trkpt lat="42.5214802008" lon="0.9817334265">
        <ele>2285.19</ele>
        <time>2019-09-06T09:43:12Z</time>
      </trkpt>
      <trkpt lat="42.5215635169" lon="0.9816480987">
        <ele>2286.15</ele>
        <time>2019-09-06T09:43:22Z</time>
      </trkpt>
      <trkpt lat="42.5216435641" lon="0.9816316701">
        <ele>2287.59</ele>
        <time>2019-09-06T09:43:32Z</time>
      </trkpt>
      <trkpt lat="42.5217512716" lon="0.9815235436">
        <ele>2289.52</ele>
        <time>2019-09-06T09:43:46Z</time>
      </trkpt>
      <trkpt lat="42.5218236912" lon="0.9814189374">
        <ele>2291.92</ele>
        <time>2019-09-06T09:43:58Z</time>
      </trkpt>
      <trkpt lat="42.5218422152" lon="0.9813515469">
        <ele>2293.36</ele>
        <time>2019-09-06T09:44:04Z</time>
      </trkpt>
      <trkpt lat="42.5218809396" lon="0.9812340327">
        <ele>2294.80</ele>
        <time>2019-09-06T09:44:16Z</time>
      </trkpt>
      <trkpt lat="42.5218852144" lon="0.9812181070">
        <ele>2295.28</ele>
        <time>2019-09-06T09:44:18Z</time>
      </trkpt>
      <trkpt lat="42.5219213404" lon="0.9811452683">
        <ele>2297.21</ele>
        <time>2019-09-06T09:44:27Z</time>
      </trkpt>
      <trkpt lat="42.5219469890" lon="0.9811124951">
        <ele>2297.21</ele>
        <time>2019-09-06T09:44:31Z</time>
      </trkpt>
      <trkpt lat="42.5220033154" lon="0.9810676519">
        <ele>2297.69</ele>
        <time>2019-09-06T09:44:39Z</time>
      </trkpt>
      <trkpt lat="42.5220588874" lon="0.9809307754">
        <ele>2299.13</ele>
        <time>2019-09-06T09:44:52Z</time>
      </trkpt>
      <trkpt lat="42.5220763218" lon="0.9808836691">
        <ele>2299.61</ele>
        <time>2019-09-06T09:44:57Z</time>
      </trkpt>
      <trkpt lat="42.5221473165" lon="0.9808592778">
        <ele>2301.53</ele>
        <time>2019-09-06T09:45:10Z</time>
      </trkpt>
      <trkpt lat="42.5221679360" lon="0.9808731079">
        <ele>2302.98</ele>
        <time>2019-09-06T09:45:15Z</time>
      </trkpt>
      <trkpt lat="42.5222434569" lon="0.9808597807">
        <ele>2302.98</ele>
        <time>2019-09-06T09:45:28Z</time>
      </trkpt>
      <trkpt lat="42.5222605560" lon="0.9808160271">
        <ele>2302.98</ele>
        <time>2019-09-06T09:45:40Z</time>
      </trkpt>
      <trkpt lat="42.5222590473" lon="0.9807567671">
        <ele>2302.98</ele>
        <time>2019-09-06T09:45:53Z</time>
      </trkpt>
      <trkpt lat="42.5222597178" lon="0.9807513189">
        <ele>2302.98</ele>
        <time>2019-09-06T09:46:08Z</time>
      </trkpt>
      <trkpt lat="42.5222669262" lon="0.9807263408">
        <ele>2308.74</ele>
        <time>2019-09-06T09:46:15Z</time>
      </trkpt>
      <trkpt lat="42.5222672615" lon="0.9807165340">
        <ele>2308.74</ele>
        <time>2019-09-06T09:46:16Z</time>
      </trkpt>
      <trkpt lat="42.5222744700" lon="0.9806032106">
        <ele>2309.22</ele>
        <time>2019-09-06T09:46:27Z</time>
      </trkpt>
      <trkpt lat="42.5223224983" lon="0.9805326350">
        <ele>2310.67</ele>
        <time>2019-09-06T09:46:39Z</time>
      </trkpt>
      <trkpt lat="42.5223297905" lon="0.9804807510">
        <ele>2311.63</ele>
        <time>2019-09-06T09:46:44Z</time>
      </trkpt>
      <trkpt lat="42.5223287847" lon="0.9804430325">
        <ele>2312.11</ele>
        <time>2019-09-06T09:46:47Z</time>
      </trkpt>
      <trkpt lat="42.5223253481" lon="0.9802753944">
        <ele>2312.59</ele>
        <time>2019-09-06T09:47:00Z</time>
      </trkpt>
      <trkpt lat="42.5223647431" lon="0.9801707044">
        <ele>2314.03</ele>
        <time>2019-09-06T09:47:13Z</time>
      </trkpt>
      <trkpt lat="42.5223621447" lon="0.9800821077">
        <ele>2316.43</ele>
        <time>2019-09-06T09:47:23Z</time>
      </trkpt>
      <trkpt lat="42.5223503262" lon="0.9800293017">
        <ele>2316.43</ele>
        <time>2019-09-06T09:47:29Z</time>
      </trkpt>
      <trkpt lat="42.5222998671" lon="0.9799401183">
        <ele>2314.51</ele>
        <time>2019-09-06T09:47:41Z</time>
      </trkpt>
      <trkpt lat="42.5222935807" lon="0.9799045790">
        <ele>2314.03</ele>
        <time>2019-09-06T09:47:44Z</time>
      </trkpt>
      <trkpt lat="42.5223411061" lon="0.9797403775">
        <ele>2312.11</ele>
        <time>2019-09-06T09:47:57Z</time>
      </trkpt>
      <trkpt lat="42.5224490650" lon="0.9796065185">
        <ele>2311.15</ele>
        <time>2019-09-06T09:48:10Z</time>
      </trkpt>
      <trkpt lat="42.5224577822" lon="0.9795954544">
        <ele>2311.15</ele>
        <time>2019-09-06T09:48:11Z</time>
      </trkpt>
      <trkpt lat="42.5225506537" lon="0.9795070253">
        <ele>2312.59</ele>
        <time>2019-09-06T09:48:24Z</time>
      </trkpt>
      <trkpt lat="42.5226138532" lon="0.9794306662">
        <ele>2314.03</ele>
        <time>2019-09-06T09:48:34Z</time>
      </trkpt>
      <trkpt lat="42.5226342212" lon="0.9793329332">
        <ele>2315.95</ele>
        <time>2019-09-06T09:48:44Z</time>
      </trkpt>
      <trkpt lat="42.5226290245" lon="0.9792263154">
        <ele>2318.36</ele>
        <time>2019-09-06T09:48:57Z</time>
      </trkpt>
      <trkpt lat="42.5226431061" lon="0.9791359585">
        <ele>2320.28</ele>
        <time>2019-09-06T09:49:09Z</time>
      </trkpt>
      <trkpt lat="42.5226956606" lon="0.9791885968">
        <ele>2322.20</ele>
        <time>2019-09-06T09:49:19Z</time>
      </trkpt>
      <trkpt lat="42.5227301940" lon="0.9791152552">
        <ele>2324.12</ele>
        <time>2019-09-06T09:49:30Z</time>
      </trkpt>
      <trkpt lat="42.5227463711" lon="0.9790364653">
        <ele>2325.09</ele>
        <time>2019-09-06T09:49:39Z</time>
      </trkpt>
      <trkpt lat="42.5227994286" lon="0.9789316915">
        <ele>2326.05</ele>
        <time>2019-09-06T09:49:51Z</time>
      </trkpt>
      <trkpt lat="42.5228325371" lon="0.9788719285">
        <ele>2327.01</ele>
        <time>2019-09-06T09:49:57Z</time>
      </trkpt>
      <trkpt lat="42.5229091477" lon="0.9787696693">
        <ele>2328.45</ele>
        <time>2019-09-06T09:50:10Z</time>
      </trkpt>
      <trkpt lat="42.5229360536" lon="0.9787274245">
        <ele>2329.89</ele>
        <time>2019-09-06T09:50:15Z</time>
      </trkpt>
      <trkpt lat="42.5229643844" lon="0.9786885325">
        <ele>2330.37</ele>
        <time>2019-09-06T09:50:19Z</time>
      </trkpt>
      <trkpt lat="42.5230590161" lon="0.9785683360">
        <ele>2330.37</ele>
        <time>2019-09-06T09:50:32Z</time>
      </trkpt>
      <trkpt lat="42.5231368840" lon="0.9784664121">
        <ele>2331.81</ele>
        <time>2019-09-06T09:50:43Z</time>
      </trkpt>
      <trkpt lat="42.5232589245" lon="0.9783720318">
        <ele>2331.81</ele>
        <time>2019-09-06T09:50:57Z</time>
      </trkpt>
      <trkpt lat="42.5232612714" lon="0.9783754684">
        <ele>2329.89</ele>
        <time>2019-09-06T09:51:09Z</time>
      </trkpt>
      <trkpt lat="42.5233060308" lon="0.9782924876">
        <ele>2330.85</ele>
        <time>2019-09-06T09:51:19Z</time>
      </trkpt>
      <trkpt lat="42.5234047696" lon="0.9782129433">
        <ele>2330.85</ele>
        <time>2019-09-06T09:51:30Z</time>
      </trkpt>
      <trkpt lat="42.5234335195" lon="0.9781885520">
        <ele>2331.33</ele>
        <time>2019-09-06T09:51:34Z</time>
      </trkpt>
      <trkpt lat="42.5234906841" lon="0.9781660046">
        <ele>2329.41</ele>
        <time>2019-09-06T09:51:40Z</time>
      </trkpt>
      <trkpt lat="42.5235546380" lon="0.9781114385">
        <ele>2328.93</ele>
        <time>2019-09-06T09:51:47Z</time>
      </trkpt>
      <trkpt lat="42.5236532930" lon="0.9780112747">
        <ele>2327.01</ele>
        <time>2019-09-06T09:51:58Z</time>
      </trkpt>
      <trkpt lat="42.5237479247" lon="0.9778609034">
        <ele>2325.57</ele>
        <time>2019-09-06T09:52:13Z</time>
      </trkpt>
      <trkpt lat="42.5237681251" lon="0.9778068401">
        <ele>2323.16</ele>
        <time>2019-09-06T09:52:22Z</time>
      </trkpt>
      <trkpt lat="42.5237789378" lon="0.9777523577">
        <ele>2323.16</ele>
        <time>2019-09-06T09:52:26Z</time>
      </trkpt>
      <trkpt lat="42.5238181651" lon="0.9776971210">
        <ele>2321.72</ele>
        <time>2019-09-06T09:52:31Z</time>
      </trkpt>
      <trkpt lat="42.5238614995" lon="0.9776376095">
        <ele>2320.28</ele>
        <time>2019-09-06T09:52:39Z</time>
      </trkpt>
      <trkpt lat="42.5239823665" lon="0.9777037427">
        <ele>2317.40</ele>
        <time>2019-09-06T09:52:51Z</time>
      </trkpt>
      <trkpt lat="42.5241409522" lon="0.9776755795">
        <ele>2315.95</ele>
        <time>2019-09-06T09:53:05Z</time>
      </trkpt>
      <trkpt lat="42.5241857953" lon="0.9776437283">
        <ele>2314.03</ele>
        <time>2019-09-06T09:53:11Z</time>
      </trkpt>
      <trkpt lat="42.5243093446" lon="0.9775399603">
        <ele>2311.63</ele>
        <time>2019-09-06T09:53:24Z</time>
      </trkpt>
      <trkpt lat="42.5244261045" lon="0.9774394613">
        <ele>2310.19</ele>
        <time>2019-09-06T09:53:35Z</time>
      </trkpt>
      <trkpt lat="42.5246015377" lon="0.9773336817">
        <ele>2308.74</ele>
        <time>2019-09-06T09:53:50Z</time>
      </trkpt>
      <trkpt lat="42.5247793179" lon="0.9771698155">
        <ele>2307.78</ele>
        <time>2019-09-06T09:54:07Z</time>
      </trkpt>
      <trkpt lat="42.5249250792" lon="0.9770837333">
        <ele>2307.30</ele>
        <time>2019-09-06T09:54:20Z</time>
      </trkpt>
      <trkpt lat="42.5250535738" lon="0.9770299215">
        <ele>2307.30</ele>
        <time>2019-09-06T09:54:31Z</time>
      </trkpt>
      <trkpt lat="42.5251984969" lon="0.9769720025">
        <ele>2307.78</ele>
        <time>2019-09-06T09:54:44Z</time>
      </trkpt>
      <trkpt lat="42.5253310986" lon="0.9768837411">
        <ele>2309.22</ele>
        <time>2019-09-06T09:54:57Z</time>
      </trkpt>
      <trkpt lat="42.5253723375" lon="0.9768471960">
        <ele>2309.22</ele>
        <time>2019-09-06T09:55:01Z</time>
      </trkpt>
      <trkpt lat="42.5255324319" lon="0.9767456912">
        <ele>2310.19</ele>
        <time>2019-09-06T09:55:16Z</time>
      </trkpt>
      <trkpt lat="42.5255940389" lon="0.9766915441">
        <ele>2310.67</ele>
        <time>2019-09-06T09:55:23Z</time>
      </trkpt>
      <trkpt lat="42.5256609265" lon="0.9766704217">
        <ele>2311.15</ele>
        <time>2019-09-06T09:55:29Z</time>
      </trkpt>
      <trkpt lat="42.5257544685" lon="0.9766068868">
        <ele>2311.63</ele>
        <time>2019-09-06T09:55:40Z</time>
      </trkpt>
      <trkpt lat="42.5258326717" lon="0.9765217267">
        <ele>2313.07</ele>
        <time>2019-09-06T09:55:52Z</time>
      </trkpt>
      <trkpt lat="42.5258458313" lon="0.9765034541">
        <ele>2313.07</ele>
        <time>2019-09-06T09:55:54Z</time>
      </trkpt>
      <trkpt lat="42.5259062648" lon="0.9763631411">
        <ele>2316.43</ele>
        <time>2019-09-06T09:56:08Z</time>
      </trkpt>
      <trkpt lat="42.5259574782" lon="0.9762883745">
        <ele>2317.40</ele>
        <time>2019-09-06T09:56:18Z</time>
      </trkpt>
      <trkpt lat="42.5260122120" lon="0.9762188885">
        <ele>2317.88</ele>
        <time>2019-09-06T09:56:26Z</time>
      </trkpt>
      <trkpt lat="42.5260424707" lon="0.9761619754">
        <ele>2318.84</ele>
        <time>2019-09-06T09:56:31Z</time>
      </trkpt>
      <trkpt lat="42.5260947738" lon="0.9760609735">
        <ele>2319.80</ele>
        <time>2019-09-06T09:56:40Z</time>
      </trkpt>
      <trkpt lat="42.5261755753" lon="0.9760127775">
        <ele>2320.76</ele>
        <time>2019-09-06T09:56:52Z</time>
      </trkpt>
      <trkpt lat="42.5262428820" lon="0.9759935830">
        <ele>2322.20</ele>
        <time>2019-09-06T09:57:02Z</time>
      </trkpt>
      <trkpt lat="42.5263073388" lon="0.9759507515">
        <ele>2323.64</ele>
        <time>2019-09-06T09:57:13Z</time>
      </trkpt>
      <trkpt lat="42.5263665989" lon="0.9759015497">
        <ele>2325.57</ele>
        <time>2019-09-06T09:57:24Z</time>
      </trkpt>
      <trkpt lat="42.5264293794" lon="0.9758129530">
        <ele>2326.53</ele>
        <time>2019-09-06T09:57:35Z</time>
      </trkpt>
      <trkpt lat="42.5264886394" lon="0.9756894875">
        <ele>2327.97</ele>
        <time>2019-09-06T09:57:48Z</time>
      </trkpt>
      <trkpt lat="42.5265233405" lon="0.9756048303">
        <ele>2329.41</ele>
        <time>2019-09-06T09:57:56Z</time>
      </trkpt>
      <trkpt lat="42.5265939999" lon="0.9754879866">
        <ele>2331.33</ele>
        <time>2019-09-06T09:58:09Z</time>
      </trkpt>
      <trkpt lat="42.5266700238" lon="0.9753228631">
        <ele>2334.22</ele>
        <time>2019-09-06T09:58:23Z</time>
      </trkpt>
      <trkpt lat="42.5267352350" lon="0.9752218612">
        <ele>2335.18</ele>
        <time>2019-09-06T09:58:35Z</time>
      </trkpt>
      <trkpt lat="42.5267832633" lon="0.9751763474">
        <ele>2335.66</ele>
        <time>2019-09-06T09:58:42Z</time>
      </trkpt>
      <trkpt lat="42.5268090796" lon="0.9752008226">
        <ele>2336.62</ele>
        <time>2019-09-06T09:58:53Z</time>
      </trkpt>
      <trkpt lat="42.5268685073" lon="0.9751991462">
        <ele>2336.62</ele>
        <time>2019-09-06T09:59:19Z</time>
      </trkpt>
      <trkpt lat="42.5269202236" lon="0.9751783591">
        <ele>2337.58</ele>
        <time>2019-09-06T09:59:30Z</time>
      </trkpt>
      <trkpt lat="42.5269737840" lon="0.9751695581">
        <ele>2338.54</ele>
        <time>2019-09-06T09:59:40Z</time>
      </trkpt>
      <trkpt lat="42.5270506460" lon="0.9751329292">
        <ele>2340.95</ele>
        <time>2019-09-06T09:59:53Z</time>
      </trkpt>
      <trkpt lat="42.5271600299" lon="0.9751054365">
        <ele>2343.35</ele>
        <time>2019-09-06T10:00:07Z</time>
      </trkpt>
      <trkpt lat="42.5272621214" lon="0.9750627726">
        <ele>2345.75</ele>
        <time>2019-09-06T10:00:21Z</time>
      </trkpt>
      <trkpt lat="42.5273267459" lon="0.9750062786">
        <ele>2348.64</ele>
        <time>2019-09-06T10:00:32Z</time>
      </trkpt>
      <trkpt lat="42.5273995008" lon="0.9750311729">
        <ele>2349.12</ele>
        <time>2019-09-06T10:00:44Z</time>
      </trkpt>
      <trkpt lat="42.5274693221" lon="0.9749926999">
        <ele>2351.04</ele>
        <time>2019-09-06T10:00:57Z</time>
      </trkpt>
      <trkpt lat="42.5275289174" lon="0.9749559034">
        <ele>2352.96</ele>
        <time>2019-09-06T10:01:10Z</time>
      </trkpt>
      <trkpt lat="42.5275693182" lon="0.9749758523">
        <ele>2354.89</ele>
        <time>2019-09-06T10:01:20Z</time>
      </trkpt>
      <trkpt lat="42.5276647881" lon="0.9749951307">
        <ele>2356.81</ele>
        <time>2019-09-06T10:01:31Z</time>
      </trkpt>
      <trkpt lat="42.5277599227" lon="0.9749975614">
        <ele>2356.81</ele>
        <time>2019-09-06T10:01:43Z</time>
      </trkpt>
      <trkpt lat="42.5278395507" lon="0.9749348648">
        <ele>2355.85</ele>
        <time>2019-09-06T10:01:55Z</time>
      </trkpt>
      <trkpt lat="42.5278916024" lon="0.9749468509">
        <ele>2354.41</ele>
        <time>2019-09-06T10:02:06Z</time>
      </trkpt>
      <trkpt lat="42.5279232021" lon="0.9749332722">
        <ele>2352.96</ele>
        <time>2019-09-06T10:02:11Z</time>
      </trkpt>
      <trkpt lat="42.5280091166" lon="0.9749660455">
        <ele>2350.08</ele>
        <time>2019-09-06T10:02:23Z</time>
      </trkpt>
      <trkpt lat="42.5280516129" lon="0.9749667160">
        <ele>2349.12</ele>
        <time>2019-09-06T10:02:27Z</time>
      </trkpt>
      <trkpt lat="42.5280923489" lon="0.9749220405">
        <ele>2348.64</ele>
        <time>2019-09-06T10:02:31Z</time>
      </trkpt>
      <trkpt lat="42.5281838793" lon="0.9748704080">
        <ele>2349.60</ele>
        <time>2019-09-06T10:02:43Z</time>
      </trkpt>
      <trkpt lat="42.5282399543" lon="0.9749568254">
        <ele>2349.12</ele>
        <time>2019-09-06T10:02:55Z</time>
      </trkpt>
      <trkpt lat="42.5282480009" lon="0.9749813844">
        <ele>2348.64</ele>
        <time>2019-09-06T10:03:05Z</time>
      </trkpt>
      <trkpt lat="42.5282459054" lon="0.9749488626">
        <ele>2348.16</ele>
        <time>2019-09-06T10:03:27Z</time>
      </trkpt>
      <trkpt lat="42.5282453187" lon="0.9749666322">
        <ele>2347.68</ele>
        <time>2019-09-06T10:03:46Z</time>
      </trkpt>
      <trkpt lat="42.5282349251" lon="0.9749639500">
        <ele>2347.20</ele>
        <time>2019-09-06T10:04:19Z</time>
      </trkpt>
      <trkpt lat="42.5282524433" lon="0.9749610163">
        <ele>2346.72</ele>
        <time>2019-09-06T10:06:51Z</time>
      </trkpt>
      <trkpt lat="42.5282553770" lon="0.9749703202">
        <ele>2346.72</ele>
        <time>2019-09-06T10:07:02Z</time>
      </trkpt>
      <trkpt lat="42.5282387808" lon="0.9749829769">
        <ele>2346.72</ele>
        <time>2019-09-06T10:07:20Z</time>
      </trkpt>
      <trkpt lat="42.5282241963" lon="0.9749785345">
        <ele>2346.72</ele>
        <time>2019-09-06T10:07:36Z</time>
      </trkpt>
      <trkpt lat="42.5282242801" lon="0.9749736730">
        <ele>2346.72</ele>
        <time>2019-09-06T10:07:52Z</time>
      </trkpt>
      <trkpt lat="42.5282244477" lon="0.9749730863">
        <ele>2346.72</ele>
        <time>2019-09-06T10:08:09Z</time>
      </trkpt>
      <trkpt lat="42.5282372721" lon="0.9749666322">
        <ele>2346.72</ele>
        <time>2019-09-06T10:08:14Z</time>
      </trkpt>
      <trkpt lat="42.5282583106" lon="0.9749707393">
        <ele>2347.68</ele>
        <time>2019-09-06T10:08:25Z</time>
      </trkpt>
      <trkpt lat="42.5282534491" lon="0.9749109764">
        <ele>2348.16</ele>
        <time>2019-09-06T10:08:36Z</time>
      </trkpt>
      <trkpt lat="42.5282604899" lon="0.9749004152">
        <ele>2348.16</ele>
        <time>2019-09-06T10:08:37Z</time>
      </trkpt>
      <trkpt lat="42.5283346698" lon="0.9747469425">
        <ele>2347.20</ele>
        <time>2019-09-06T10:08:51Z</time>
      </trkpt>
      <trkpt lat="42.5283663534" lon="0.9746722598">
        <ele>2346.23</ele>
        <time>2019-09-06T10:08:59Z</time>
      </trkpt>
      <trkpt lat="42.5283904932" lon="0.9746969026">
        <ele>2345.75</ele>
        <time>2019-09-06T10:09:02Z</time>
      </trkpt>
      <trkpt lat="42.5284021441" lon="0.9747272450">
        <ele>2344.79</ele>
        <time>2019-09-06T10:09:04Z</time>
      </trkpt>
      <trkpt lat="42.5283944327" lon="0.9749108087">
        <ele>2343.35</ele>
        <time>2019-09-06T10:09:16Z</time>
      </trkpt>
      <trkpt lat="42.5284486637" lon="0.9748467710">
        <ele>2341.43</ele>
        <time>2019-09-06T10:09:26Z</time>
      </trkpt>
      <trkpt lat="42.5285228435" lon="0.9746764507">
        <ele>2339.99</ele>
        <time>2019-09-06T10:09:40Z</time>
      </trkpt>
      <trkpt lat="42.5285645854" lon="0.9745583497">
        <ele>2338.06</ele>
        <time>2019-09-06T10:09:52Z</time>
      </trkpt>
      <trkpt lat="42.5285826903" lon="0.9744591080">
        <ele>2335.66</ele>
        <time>2019-09-06T10:10:04Z</time>
      </trkpt>
      <trkpt lat="42.5286470633" lon="0.9744985029">
        <ele>2333.26</ele>
        <time>2019-09-06T10:10:15Z</time>
      </trkpt>
      <trkpt lat="42.5287111010" lon="0.9745736886">
        <ele>2331.81</ele>
        <time>2019-09-06T10:10:24Z</time>
      </trkpt>
      <trkpt lat="42.5287173875" lon="0.9745834116">
        <ele>2331.33</ele>
        <time>2019-09-06T10:10:25Z</time>
      </trkpt>
      <trkpt lat="42.5287645776" lon="0.9747083858">
        <ele>2329.41</ele>
        <time>2019-09-06T10:10:35Z</time>
      </trkpt>
      <trkpt lat="42.5287916511" lon="0.9747197013">
        <ele>2328.45</ele>
        <time>2019-09-06T10:10:39Z</time>
      </trkpt>
      <trkpt lat="42.5288797449" lon="0.9746682364">
        <ele>2327.01</ele>
        <time>2019-09-06T10:10:50Z</time>
      </trkpt>
      <trkpt lat="42.5288879592" lon="0.9746608604">
        <ele>2326.53</ele>
        <time>2019-09-06T10:10:51Z</time>
      </trkpt>
      <trkpt lat="42.5289278571" lon="0.9745893627">
        <ele>2325.57</ele>
        <time>2019-09-06T10:10:57Z</time>
      </trkpt>
      <trkpt lat="42.5289407652" lon="0.9745491296">
        <ele>2325.57</ele>
        <time>2019-09-06T10:11:00Z</time>
      </trkpt>
      <trkpt lat="42.5290259253" lon="0.9745285101">
        <ele>2323.64</ele>
        <time>2019-09-06T10:11:10Z</time>
      </trkpt>
      <trkpt lat="42.5290647335" lon="0.9744626284">
        <ele>2323.16</ele>
        <time>2019-09-06T10:11:15Z</time>
      </trkpt>
      <trkpt lat="42.5291710161" lon="0.9743326250">
        <ele>2322.68</ele>
        <time>2019-09-06T10:11:28Z</time>
      </trkpt>
      <trkpt lat="42.5292448606" lon="0.9742686711">
        <ele>2319.80</ele>
        <time>2019-09-06T10:11:39Z</time>
      </trkpt>
      <trkpt lat="42.5293073058" lon="0.9742113389">
        <ele>2316.91</ele>
        <time>2019-09-06T10:11:49Z</time>
      </trkpt>
      <trkpt lat="42.5293578487" lon="0.9743075632">
        <ele>2314.51</ele>
        <time>2019-09-06T10:12:00Z</time>
      </trkpt>
      <trkpt lat="42.5293932203" lon="0.9743068926">
        <ele>2312.11</ele>
        <time>2019-09-06T10:12:10Z</time>
      </trkpt>
      <trkpt lat="42.5294347946" lon="0.9742537513">
        <ele>2310.19</ele>
        <time>2019-09-06T10:12:21Z</time>
      </trkpt>
      <trkpt lat="42.5294556655" lon="0.9743306972">
        <ele>2307.78</ele>
        <time>2019-09-06T10:12:32Z</time>
      </trkpt>
      <trkpt lat="42.5294819847" lon="0.9742700960">
        <ele>2307.30</ele>
        <time>2019-09-06T10:12:38Z</time>
      </trkpt>
      <trkpt lat="42.5295233075" lon="0.9742501471">
        <ele>2305.38</ele>
        <time>2019-09-06T10:12:50Z</time>
      </trkpt>
      <trkpt lat="42.5295642111" lon="0.9742164519">
        <ele>2304.90</ele>
        <time>2019-09-06T10:12:57Z</time>
      </trkpt>
      <trkpt lat="42.5295957271" lon="0.9741417691">
        <ele>2304.42</ele>
        <time>2019-09-06T10:13:04Z</time>
      </trkpt>
      <trkpt lat="42.5296453480" lon="0.9740210697">
        <ele>2304.42</ele>
        <time>2019-09-06T10:13:14Z</time>
      </trkpt>
      <trkpt lat="42.5296340324" lon="0.9739750531">
        <ele>2304.90</ele>
        <time>2019-09-06T10:13:17Z</time>
      </trkpt>
      <trkpt lat="42.5296837371" lon="0.9738057386">
        <ele>2306.34</ele>
        <time>2019-09-06T10:13:29Z</time>
      </trkpt>
      <trkpt lat="42.5297475234" lon="0.9737398569">
        <ele>2306.34</ele>
        <time>2019-09-06T10:13:36Z</time>
      </trkpt>
      <trkpt lat="42.5299522094" lon="0.9738665074">
        <ele>2306.34</ele>
        <time>2019-09-06T10:13:53Z</time>
      </trkpt>
      <trkpt lat="42.5299958792" lon="0.9739890508">
        <ele>2307.78</ele>
        <time>2019-09-06T10:14:05Z</time>
      </trkpt>
      <trkpt lat="42.5299821328" lon="0.9739882126">
        <ele>2308.26</ele>
        <time>2019-09-06T10:14:10Z</time>
      </trkpt>
      <trkpt lat="42.5299979746" lon="0.9739706106">
        <ele>2308.26</ele>
        <time>2019-09-06T10:14:12Z</time>
      </trkpt>
      <trkpt lat="42.5300177559" lon="0.9739628993">
        <ele>2307.78</ele>
        <time>2019-09-06T10:14:14Z</time>
      </trkpt>
      <trkpt lat="42.5300580729" lon="0.9740333073">
        <ele>2306.82</ele>
        <time>2019-09-06T10:14:22Z</time>
      </trkpt>
      <trkpt lat="42.5300889183" lon="0.9740473051">
        <ele>2307.30</ele>
        <time>2019-09-06T10:14:27Z</time>
      </trkpt>
      <trkpt lat="42.5301014911" lon="0.9740588721">
        <ele>2306.82</ele>
        <time>2019-09-06T10:14:29Z</time>
      </trkpt>
      <trkpt lat="42.5301348511" lon="0.9740654938">
        <ele>2306.82</ele>
        <time>2019-09-06T10:14:32Z</time>
      </trkpt>
      <trkpt lat="42.5303247012" lon="0.9741409309">
        <ele>2306.82</ele>
        <time>2019-09-06T10:14:47Z</time>
      </trkpt>
      <trkpt lat="42.5303264614" lon="0.9741530847">
        <ele>2307.78</ele>
        <time>2019-09-06T10:14:57Z</time>
      </trkpt>
      <trkpt lat="42.5303735677" lon="0.9742557630">
        <ele>2306.82</ele>
        <time>2019-09-06T10:15:19Z</time>
      </trkpt>
      <trkpt lat="42.5304771680" lon="0.9744078945">
        <ele>2307.30</ele>
        <time>2019-09-06T10:15:33Z</time>
      </trkpt>
      <trkpt lat="42.5304852985" lon="0.9744185396">
        <ele>2307.78</ele>
        <time>2019-09-06T10:15:45Z</time>
      </trkpt>
      <trkpt lat="42.5304854661" lon="0.9744171984">
        <ele>2307.78</ele>
        <time>2019-09-06T10:16:06Z</time>
      </trkpt>
      <trkpt lat="42.5304903276" lon="0.9744272567">
        <ele>2307.78</ele>
        <time>2019-09-06T10:16:18Z</time>
      </trkpt>
      <trkpt lat="42.5305008888" lon="0.9744048771">
        <ele>2307.78</ele>
        <time>2019-09-06T10:16:21Z</time>
      </trkpt>
      <trkpt lat="42.5305763260" lon="0.9743672423">
        <ele>2309.70</ele>
        <time>2019-09-06T10:16:32Z</time>
      </trkpt>
      <trkpt lat="42.5305828638" lon="0.9743705112">
        <ele>2310.19</ele>
        <time>2019-09-06T10:16:44Z</time>
      </trkpt>
      <trkpt lat="42.5305797625" lon="0.9744228143">
        <ele>2310.19</ele>
        <time>2019-09-06T10:16:52Z</time>
      </trkpt>
      <trkpt lat="42.5306135416" lon="0.9745528176">
        <ele>2310.19</ele>
        <time>2019-09-06T10:17:03Z</time>
      </trkpt>
      <trkpt lat="42.5306279585" lon="0.9745987505">
        <ele>2309.70</ele>
        <time>2019-09-06T10:17:07Z</time>
      </trkpt>
      <trkpt lat="42.5306482427" lon="0.9746758640">
        <ele>2309.22</ele>
        <time>2019-09-06T10:17:14Z</time>
      </trkpt>
      <trkpt lat="42.5306487456" lon="0.9747664724">
        <ele>2307.30</ele>
        <time>2019-09-06T10:17:27Z</time>
      </trkpt>
      <trkpt lat="42.5306565408" lon="0.9748165123">
        <ele>2306.82</ele>
        <time>2019-09-06T10:17:42Z</time>
      </trkpt>
      <trkpt lat="42.5306630787" lon="0.9748303425">
        <ele>2306.34</ele>
        <time>2019-09-06T10:17:44Z</time>
      </trkpt>
      <trkpt lat="42.5306742266" lon="0.9748518001">
        <ele>2306.34</ele>
        <time>2019-09-06T10:17:46Z</time>
      </trkpt>
      <trkpt lat="42.5307538547" lon="0.9748942126">
        <ele>2305.86</ele>
        <time>2019-09-06T10:17:58Z</time>
      </trkpt>
      <trkpt lat="42.5307611469" lon="0.9748925362">
        <ele>2305.86</ele>
        <time>2019-09-06T10:17:59Z</time>
      </trkpt>
      <trkpt lat="42.5308367517" lon="0.9749673866">
        <ele>2307.78</ele>
        <time>2019-09-06T10:18:11Z</time>
      </trkpt>
      <trkpt lat="42.5308627356" lon="0.9750034288">
        <ele>2308.74</ele>
        <time>2019-09-06T10:18:15Z</time>
      </trkpt>
      <trkpt lat="42.5309364963" lon="0.9750367049">
        <ele>2310.19</ele>
        <time>2019-09-06T10:18:23Z</time>
      </trkpt>
      <trkpt lat="42.5309758075" lon="0.9750513732">
        <ele>2310.19</ele>
        <time>2019-09-06T10:18:27Z</time>
      </trkpt>
      <trkpt lat="42.5311125163" lon="0.9751099627">
        <ele>2312.11</ele>
        <time>2019-09-06T10:18:43Z</time>
      </trkpt>
      <trkpt lat="42.5311741233" lon="0.9750942886">
        <ele>2314.03</ele>
        <time>2019-09-06T10:18:53Z</time>
      </trkpt>
      <trkpt lat="42.5312473811" lon="0.9750177618">
        <ele>2314.99</ele>
        <time>2019-09-06T10:19:05Z</time>
      </trkpt>
      <trkpt lat="42.5313185435" lon="0.9749455098">
        <ele>2316.91</ele>
        <time>2019-09-06T10:19:16Z</time>
      </trkpt>
      <trkpt lat="42.5314726029" lon="0.9748373833">
        <ele>2316.43</ele>
        <time>2019-09-06T10:19:31Z</time>
      </trkpt>
      <trkpt lat="42.5316078030" lon="0.9747928753">
        <ele>2315.95</ele>
        <time>2019-09-06T10:19:44Z</time>
      </trkpt>
      <trkpt lat="42.5316638779" lon="0.9747620299">
        <ele>2316.43</ele>
        <time>2019-09-06T10:19:49Z</time>
      </trkpt>
      <trkpt lat="42.5317145884" lon="0.9747634549">
        <ele>2316.91</ele>
        <time>2019-09-06T10:19:53Z</time>
      </trkpt>
      <trkpt lat="42.5318482798" lon="0.9747487027">
        <ele>2317.88</ele>
        <time>2019-09-06T10:20:05Z</time>
      </trkpt>
      <trkpt lat="42.5318984874" lon="0.9747356270">
        <ele>2318.84</ele>
        <time>2019-09-06T10:20:11Z</time>
      </trkpt>
      <trkpt lat="42.5319890119" lon="0.9746539034">
        <ele>2320.76</ele>
        <time>2019-09-06T10:20:25Z</time>
      </trkpt>
      <trkpt lat="42.5320385490" lon="0.9746047854">
        <ele>2323.16</ele>
        <time>2019-09-06T10:20:37Z</time>
      </trkpt>
      <trkpt lat="42.5320921093" lon="0.9745245706">
        <ele>2325.09</ele>
        <time>2019-09-06T10:20:48Z</time>
      </trkpt>
      <trkpt lat="42.5321688037" lon="0.9744397458">
        <ele>2326.53</ele>
        <time>2019-09-06T10:21:02Z</time>
      </trkpt>
      <trkpt lat="42.5321781915" lon="0.9744379856">
        <ele>2326.53</ele>
        <time>2019-09-06T10:21:03Z</time>
      </trkpt>
      <trkpt lat="42.5322381221" lon="0.9743758757">
        <ele>2327.01</ele>
        <time>2019-09-06T10:21:14Z</time>
      </trkpt>
      <trkpt lat="42.5322747510" lon="0.9743448626">
        <ele>2327.01</ele>
        <time>2019-09-06T10:21:26Z</time>
      </trkpt>
      <trkpt lat="42.5322829653" lon="0.9743492212">
        <ele>2327.49</ele>
        <time>2019-09-06T10:21:44Z</time>
      </trkpt>
      <trkpt lat="42.5322983880" lon="0.9742876980">
        <ele>2327.01</ele>
        <time>2019-09-06T10:22:00Z</time>
      </trkpt>
      <trkpt lat="42.5323082786" lon="0.9742862731">
        <ele>2327.97</ele>
        <time>2019-09-06T10:22:12Z</time>
      </trkpt>
      <trkpt lat="42.5323505234" lon="0.9742174577">
        <ele>2327.01</ele>
        <time>2019-09-06T10:22:31Z</time>
      </trkpt>
      <trkpt lat="42.5323860627" lon="0.9741896298">
        <ele>2326.53</ele>
        <time>2019-09-06T10:22:36Z</time>
      </trkpt>
      <trkpt lat="42.5325156469" lon="0.9741160367">
        <ele>2325.57</ele>
        <time>2019-09-06T10:22:50Z</time>
      </trkpt>
      <trkpt lat="42.5325900782" lon="0.9739919845">
        <ele>2326.05</ele>
        <time>2019-09-06T10:23:01Z</time>
      </trkpt>
      <trkpt lat="42.5326443929" lon="0.9739587922">
        <ele>2325.09</ele>
        <time>2019-09-06T10:23:06Z</time>
      </trkpt>
      <trkpt lat="42.5326862186" lon="0.9739434533">
        <ele>2325.57</ele>
        <time>2019-09-06T10:23:10Z</time>
      </trkpt>
      <trkpt lat="42.5327885617" lon="0.9739096742">
        <ele>2325.09</ele>
        <time>2019-09-06T10:23:22Z</time>
      </trkpt>
      <trkpt lat="42.5328474026" lon="0.9739019629">
        <ele>2324.12</ele>
        <time>2019-09-06T10:23:26Z</time>
      </trkpt>
      <trkpt lat="42.5330271944" lon="0.9738388471">
        <ele>2323.16</ele>
        <time>2019-09-06T10:23:41Z</time>
      </trkpt>
      <trkpt lat="42.5331478100" lon="0.9737365879">
        <ele>2321.72</ele>
        <time>2019-09-06T10:23:53Z</time>
      </trkpt>
      <trkpt lat="42.5331698544" lon="0.9737164713">
        <ele>2321.72</ele>
        <time>2019-09-06T10:23:55Z</time>
      </trkpt>
      <trkpt lat="42.5332567748" lon="0.9735739790">
        <ele>2321.72</ele>
        <time>2019-09-06T10:24:06Z</time>
      </trkpt>
      <trkpt lat="42.5332690123" lon="0.9735548683">
        <ele>2321.72</ele>
        <time>2019-09-06T10:24:11Z</time>
      </trkpt>
      <trkpt lat="42.5333387498" lon="0.9734701272">
        <ele>2322.20</ele>
        <time>2019-09-06T10:24:20Z</time>
      </trkpt>
      <trkpt lat="42.5333851017" lon="0.9733120445">
        <ele>2322.20</ele>
        <time>2019-09-06T10:24:31Z</time>
      </trkpt>
      <trkpt lat="42.5334265921" lon="0.9731214400">
        <ele>2321.72</ele>
        <time>2019-09-06T10:24:43Z</time>
      </trkpt>
      <trkpt lat="42.5334990118" lon="0.9730296582">
        <ele>2321.72</ele>
        <time>2019-09-06T10:24:55Z</time>
      </trkpt>
      <trkpt lat="42.5335765444" lon="0.9729734156">
        <ele>2323.16</ele>
        <time>2019-09-06T10:25:06Z</time>
      </trkpt>
      <trkpt lat="42.5336602796" lon="0.9729071986">
        <ele>2325.09</ele>
        <time>2019-09-06T10:25:18Z</time>
      </trkpt>
      <trkpt lat="42.5337427575" lon="0.9728189372">
        <ele>2326.53</ele>
        <time>2019-09-06T10:25:31Z</time>
      </trkpt>
      <trkpt lat="42.5337856729" lon="0.9727807995">
        <ele>2327.97</ele>
        <time>2019-09-06T10:25:39Z</time>
      </trkpt>
      <trkpt lat="42.5338411611" lon="0.9726895206">
        <ele>2328.93</ele>
        <time>2019-09-06T10:25:50Z</time>
      </trkpt>
      <trkpt lat="42.5338570029" lon="0.9726250637">
        <ele>2329.89</ele>
        <time>2019-09-06T10:26:00Z</time>
      </trkpt>
      <trkpt lat="42.5338886026" lon="0.9724839963">
        <ele>2330.37</ele>
        <time>2019-09-06T10:26:13Z</time>
      </trkpt>
      <trkpt lat="42.5339239743" lon="0.9724061284">
        <ele>2331.81</ele>
        <time>2019-09-06T10:26:24Z</time>
      </trkpt>
      <trkpt lat="42.5339472760" lon="0.9723529872">
        <ele>2332.78</ele>
        <time>2019-09-06T10:26:30Z</time>
      </trkpt>
      <trkpt lat="42.5339334458" lon="0.9722322877">
        <ele>2334.70</ele>
        <time>2019-09-06T10:26:43Z</time>
      </trkpt>
      <trkpt lat="42.5339514669" lon="0.9721778054">
        <ele>2336.14</ele>
        <time>2019-09-06T10:26:53Z</time>
      </trkpt>
      <trkpt lat="42.5339802168" lon="0.9721767996">
        <ele>2336.62</ele>
        <time>2019-09-06T10:27:08Z</time>
      </trkpt>
      <trkpt lat="42.5339857489" lon="0.9721719380">
        <ele>2336.62</ele>
        <time>2019-09-06T10:27:26Z</time>
      </trkpt>
      <trkpt lat="42.5340379681" lon="0.9721904621">
        <ele>2337.10</ele>
        <time>2019-09-06T10:27:37Z</time>
      </trkpt>
      <trkpt lat="42.5340958033" lon="0.9722690005">
        <ele>2339.02</ele>
        <time>2019-09-06T10:27:49Z</time>
      </trkpt>
      <trkpt lat="42.5341119803" lon="0.9723372292">
        <ele>2340.95</ele>
        <time>2019-09-06T10:28:00Z</time>
      </trkpt>
      <trkpt lat="42.5341301691" lon="0.9723213874">
        <ele>2341.43</ele>
        <time>2019-09-06T10:28:21Z</time>
      </trkpt>
      <trkpt lat="42.5341450050" lon="0.9723135084">
        <ele>2341.43</ele>
        <time>2019-09-06T10:28:23Z</time>
      </trkpt>
      <trkpt lat="42.5341669656" lon="0.9722047951">
        <ele>2343.83</ele>
        <time>2019-09-06T10:28:35Z</time>
      </trkpt>
      <trkpt lat="42.5341637805" lon="0.9721712675">
        <ele>2344.31</ele>
        <time>2019-09-06T10:28:38Z</time>
      </trkpt>
      <trkpt lat="42.5341978110" lon="0.9720177110">
        <ele>2345.27</ele>
        <time>2019-09-06T10:28:51Z</time>
      </trkpt>
      <trkpt lat="42.5343060214" lon="0.9718359914">
        <ele>2344.31</ele>
        <time>2019-09-06T10:29:07Z</time>
      </trkpt>
      <trkpt lat="42.5343847275" lon="0.9716843627">
        <ele>2344.31</ele>
        <time>2019-09-06T10:29:19Z</time>
      </trkpt>
      <trkpt lat="42.5345025770" lon="0.9715827741">
        <ele>2342.39</ele>
        <time>2019-09-06T10:29:30Z</time>
      </trkpt>
      <trkpt lat="42.5346312393" lon="0.9714792576">
        <ele>2339.99</ele>
        <time>2019-09-06T10:29:43Z</time>
      </trkpt>
      <trkpt lat="42.5346408784" lon="0.9714734741">
        <ele>2339.99</ele>
        <time>2019-09-06T10:29:44Z</time>
      </trkpt>
      <trkpt lat="42.5347913336" lon="0.9714171477">
        <ele>2339.02</ele>
        <time>2019-09-06T10:29:57Z</time>
      </trkpt>
      <trkpt lat="42.5349435490" lon="0.9713398665">
        <ele>2338.54</ele>
        <time>2019-09-06T10:30:10Z</time>
      </trkpt>
      <trkpt lat="42.5349963550" lon="0.9713187441">
        <ele>2338.54</ele>
        <time>2019-09-06T10:30:15Z</time>
      </trkpt>
      <trkpt lat="42.5350323971" lon="0.9712645132">
        <ele>2338.06</ele>
        <time>2019-09-06T10:30:20Z</time>
      </trkpt>
      <trkpt lat="42.5351214129" lon="0.9712109528">
        <ele>2339.02</ele>
        <time>2019-09-06T10:30:29Z</time>
      </trkpt>
      <trkpt lat="42.5352365803" lon="0.9710295685">
        <ele>2339.99</ele>
        <time>2019-09-06T10:30:42Z</time>
      </trkpt>
      <trkpt lat="42.5353468023" lon="0.9707881697">
        <ele>2340.47</ele>
        <time>2019-09-06T10:31:00Z</time>
      </trkpt>
      <trkpt lat="42.5353481434" lon="0.9707765188">
        <ele>2340.47</ele>
        <time>2019-09-06T10:31:01Z</time>
      </trkpt>
      <trkpt lat="42.5354126003" lon="0.9705837350">
        <ele>2341.43</ele>
        <time>2019-09-06T10:31:16Z</time>
      </trkpt>
      <trkpt lat="42.5354234129" lon="0.9705533925">
        <ele>2342.39</ele>
        <time>2019-09-06T10:31:19Z</time>
      </trkpt>
      <trkpt lat="42.5354484748" lon="0.9705095552">
        <ele>2342.39</ele>
        <time>2019-09-06T10:31:23Z</time>
      </trkpt>
      <trkpt lat="42.5355640613" lon="0.9704741836">
        <ele>2341.43</ele>
        <time>2019-09-06T10:31:33Z</time>
      </trkpt>
      <trkpt lat="42.5356622133" lon="0.9704050329">
        <ele>2343.35</ele>
        <time>2019-09-06T10:31:45Z</time>
      </trkpt>
      <trkpt lat="42.5356758758" lon="0.9703578427">
        <ele>2343.83</ele>
        <time>2019-09-06T10:31:50Z</time>
      </trkpt>
      <trkpt lat="42.5357316155" lon="0.9702503029">
        <ele>2346.72</ele>
        <time>2019-09-06T10:32:02Z</time>
      </trkpt>
      <trkpt lat="42.5357213058" lon="0.9701103251">
        <ele>2348.64</ele>
        <time>2019-09-06T10:32:16Z</time>
      </trkpt>
      <trkpt lat="42.5357071403" lon="0.9700651467">
        <ele>2349.60</ele>
        <time>2019-09-06T10:32:21Z</time>
      </trkpt>
      <trkpt lat="42.5356855989" lon="0.9700367320">
        <ele>2349.60</ele>
        <time>2019-09-06T10:32:24Z</time>
      </trkpt>
      <trkpt lat="42.5356397498" lon="0.9698185511">
        <ele>2349.60</ele>
        <time>2019-09-06T10:32:38Z</time>
      </trkpt>
      <trkpt lat="42.5356432702" lon="0.9696336463">
        <ele>2349.60</ele>
        <time>2019-09-06T10:32:51Z</time>
      </trkpt>
      <trkpt lat="42.5356856827" lon="0.9695017990">
        <ele>2351.52</ele>
        <time>2019-09-06T10:33:03Z</time>
      </trkpt>
      <trkpt lat="42.5357199647" lon="0.9694841970">
        <ele>2352.00</ele>
        <time>2019-09-06T10:33:09Z</time>
      </trkpt>
      <trkpt lat="42.5357311126" lon="0.9694615658">
        <ele>2352.48</ele>
        <time>2019-09-06T10:33:11Z</time>
      </trkpt>
      <trkpt lat="42.5358389877" lon="0.9693421237">
        <ele>2352.96</ele>
        <time>2019-09-06T10:33:23Z</time>
      </trkpt>
      <trkpt lat="42.5359919574" lon="0.9692710452">
        <ele>2351.04</ele>
        <time>2019-09-06T10:33:36Z</time>
      </trkpt>
      <trkpt lat="42.5361760240" lon="0.9692092706">
        <ele>2350.08</ele>
        <time>2019-09-06T10:33:50Z</time>
      </trkpt>
      <trkpt lat="42.5363445003" lon="0.9692084324">
        <ele>2349.60</ele>
        <time>2019-09-06T10:34:03Z</time>
      </trkpt>
      <trkpt lat="42.5364762638" lon="0.9691909142">
        <ele>2352.48</ele>
        <time>2019-09-06T10:34:14Z</time>
      </trkpt>
      <trkpt lat="42.5365252979" lon="0.9691602364">
        <ele>2352.96</ele>
        <time>2019-09-06T10:34:19Z</time>
      </trkpt>
      <trkpt lat="42.5365839712" lon="0.9690839611">
        <ele>2354.41</ele>
        <time>2019-09-06T10:34:29Z</time>
      </trkpt>
      <trkpt lat="42.5365976337" lon="0.9690065961">
        <ele>2354.41</ele>
        <time>2019-09-06T10:34:33Z</time>
      </trkpt>
      <trkpt lat="42.5366580673" lon="0.9688923508">
        <ele>2353.44</ele>
        <time>2019-09-06T10:34:44Z</time>
      </trkpt>
      <trkpt lat="42.5367484242" lon="0.9688963741">
        <ele>2352.48</ele>
        <time>2019-09-06T10:34:52Z</time>
      </trkpt>
      <trkpt lat="42.5368180778" lon="0.9689685423">
        <ele>2352.96</ele>
        <time>2019-09-06T10:35:03Z</time>
      </trkpt>
      <trkpt lat="42.5368570536" lon="0.9688811190">
        <ele>2355.37</ele>
        <time>2019-09-06T10:35:14Z</time>
      </trkpt>
      <trkpt lat="42.5369118713" lon="0.9688019939">
        <ele>2356.33</ele>
        <time>2019-09-06T10:35:27Z</time>
      </trkpt>
      <trkpt lat="42.5369198341" lon="0.9687815420">
        <ele>2355.85</ele>
        <time>2019-09-06T10:35:31Z</time>
      </trkpt>
      <trkpt lat="42.5369798485" lon="0.9687007405">
        <ele>2355.85</ele>
        <time>2019-09-06T10:35:43Z</time>
      </trkpt>
      <trkpt lat="42.5370805152" lon="0.9686532989">
        <ele>2355.37</ele>
        <time>2019-09-06T10:35:54Z</time>
      </trkpt>
      <trkpt lat="42.5371084269" lon="0.9686361998">
        <ele>2355.37</ele>
        <time>2019-09-06T10:35:57Z</time>
      </trkpt>
      <trkpt lat="42.5371790025" lon="0.9685983136">
        <ele>2355.37</ele>
        <time>2019-09-06T10:36:09Z</time>
      </trkpt>
      <trkpt lat="42.5371875521" lon="0.9685952123">
        <ele>2354.41</ele>
        <time>2019-09-06T10:36:26Z</time>
      </trkpt>
      <trkpt lat="42.5372261088" lon="0.9685771912">
        <ele>2355.37</ele>
        <time>2019-09-06T10:36:31Z</time>
      </trkpt>
      <trkpt lat="42.5372521766" lon="0.9685525484">
        <ele>2355.37</ele>
        <time>2019-09-06T10:36:34Z</time>
      </trkpt>
      <trkpt lat="42.5373313855" lon="0.9684629459">
        <ele>2354.89</ele>
        <time>2019-09-06T10:36:47Z</time>
      </trkpt>
      <trkpt lat="42.5373494066" lon="0.9684555698">
        <ele>2354.89</ele>
        <time>2019-09-06T10:36:49Z</time>
      </trkpt>
      <trkpt lat="42.5374175515" lon="0.9683848266">
        <ele>2356.81</ele>
        <time>2019-09-06T10:36:59Z</time>
      </trkpt>
      <trkpt lat="42.5374763086" lon="0.9683264885">
        <ele>2356.81</ele>
        <time>2019-09-06T10:37:10Z</time>
      </trkpt>
      <trkpt lat="42.5375317968" lon="0.9682927933">
        <ele>2357.29</ele>
        <time>2019-09-06T10:37:16Z</time>
      </trkpt>
      <trkpt lat="42.5376315415" lon="0.9682323597">
        <ele>2357.77</ele>
        <time>2019-09-06T10:37:27Z</time>
      </trkpt>
      <trkpt lat="42.5376625545" lon="0.9682270791">
        <ele>2357.77</ele>
        <time>2019-09-06T10:37:30Z</time>
      </trkpt>
      <trkpt lat="42.5377411768" lon="0.9681418352">
        <ele>2358.73</ele>
        <time>2019-09-06T10:37:42Z</time>
      </trkpt>
      <trkpt lat="42.5377567671" lon="0.9681332018">
        <ele>2358.25</ele>
        <time>2019-09-06T10:37:44Z</time>
      </trkpt>
      <trkpt lat="42.5378145184" lon="0.9680734389">
        <ele>2358.73</ele>
        <time>2019-09-06T10:37:52Z</time>
      </trkpt>
      <trkpt lat="42.5378939789" lon="0.9680096526">
        <ele>2358.25</ele>
        <time>2019-09-06T10:38:02Z</time>
      </trkpt>
      <trkpt lat="42.5379752833" lon="0.9679347184">
        <ele>2359.21</ele>
        <time>2019-09-06T10:38:12Z</time>
      </trkpt>
      <trkpt lat="42.5380249880" lon="0.9678868577">
        <ele>2357.77</ele>
        <time>2019-09-06T10:38:20Z</time>
      </trkpt>
      <trkpt lat="42.5380435120" lon="0.9678738657">
        <ele>2357.29</ele>
        <time>2019-09-06T10:38:22Z</time>
      </trkpt>
      <trkpt lat="42.5381259061" lon="0.9677690919">
        <ele>2357.77</ele>
        <time>2019-09-06T10:38:33Z</time>
      </trkpt>
      <trkpt lat="42.5381891895" lon="0.9677049704">
        <ele>2357.77</ele>
        <time>2019-09-06T10:38:44Z</time>
      </trkpt>
      <trkpt lat="42.5382096414" lon="0.9676703531">
        <ele>2358.25</ele>
        <time>2019-09-06T10:38:49Z</time>
      </trkpt>
      <trkpt lat="42.5382546522" lon="0.9675838519">
        <ele>2357.77</ele>
        <time>2019-09-06T10:38:59Z</time>
      </trkpt>
      <trkpt lat="42.5382891856" lon="0.9674962610">
        <ele>2359.69</ele>
        <time>2019-09-06T10:39:10Z</time>
      </trkpt>
      <trkpt lat="42.5383049436" lon="0.9674342349">
        <ele>2359.21</ele>
        <time>2019-09-06T10:39:19Z</time>
      </trkpt>
      <trkpt lat="42.5383150857" lon="0.9674379230">
        <ele>2359.69</ele>
        <time>2019-09-06T10:39:33Z</time>
      </trkpt>
      <trkpt lat="42.5383213721" lon="0.9674414434">
        <ele>2361.14</ele>
        <time>2019-09-06T10:39:58Z</time>
      </trkpt>
      <trkpt lat="42.5383347832" lon="0.9674090892">
        <ele>2361.14</ele>
        <time>2019-09-06T10:40:09Z</time>
      </trkpt>
      <trkpt lat="42.5383407343" lon="0.9673486557">
        <ele>2361.62</ele>
        <time>2019-09-06T10:40:14Z</time>
      </trkpt>
      <trkpt lat="42.5383549836" lon="0.9672878869">
        <ele>2361.62</ele>
        <time>2019-09-06T10:40:20Z</time>
      </trkpt>
      <trkpt lat="42.5384101365" lon="0.9672023915">
        <ele>2360.17</ele>
        <time>2019-09-06T10:40:31Z</time>
      </trkpt>
      <trkpt lat="42.5384857412" lon="0.9671004675">
        <ele>2360.17</ele>
        <time>2019-09-06T10:40:41Z</time>
      </trkpt>
      <trkpt lat="42.5385078695" lon="0.9670906607">
        <ele>2360.17</ele>
        <time>2019-09-06T10:40:43Z</time>
      </trkpt>
      <trkpt lat="42.5385801215" lon="0.9671492502">
        <ele>2360.65</ele>
        <time>2019-09-06T10:40:55Z</time>
      </trkpt>
      <trkpt lat="42.5385767687" lon="0.9671502560">
        <ele>2360.65</ele>
        <time>2019-09-06T10:41:15Z</time>
      </trkpt>
      <trkpt lat="42.5385682192" lon="0.9671405330">
        <ele>2360.65</ele>
        <time>2019-09-06T10:41:27Z</time>
      </trkpt>
      <trkpt lat="42.5385527126" lon="0.9671003837">
        <ele>2360.65</ele>
        <time>2019-09-06T10:41:39Z</time>
      </trkpt>
      <trkpt lat="42.5385774393" lon="0.9670239408">
        <ele>2360.65</ele>
        <time>2019-09-06T10:41:51Z</time>
      </trkpt>
      <trkpt lat="42.5385942869" lon="0.9670108650">
        <ele>2360.65</ele>
        <time>2019-09-06T10:41:54Z</time>
      </trkpt>
      <trkpt lat="42.5386087038" lon="0.9669993818">
        <ele>2360.65</ele>
        <time>2019-09-06T10:41:56Z</time>
      </trkpt>
      <trkpt lat="42.5386490207" lon="0.9669370204">
        <ele>2358.73</ele>
        <time>2019-09-06T10:42:02Z</time>
      </trkpt>
      <trkpt lat="42.5387196802" lon="0.9668478370">
        <ele>2359.21</ele>
        <time>2019-09-06T10:42:14Z</time>
      </trkpt>
      <trkpt lat="42.5387693010" lon="0.9668057598">
        <ele>2360.17</ele>
        <time>2019-09-06T10:42:21Z</time>
      </trkpt>
      <trkpt lat="42.5388547126" lon="0.9667832963">
        <ele>2360.65</ele>
        <time>2019-09-06T10:42:33Z</time>
      </trkpt>
      <trkpt lat="42.5388735719" lon="0.9666859824">
        <ele>2360.65</ele>
        <time>2019-09-06T10:42:42Z</time>
      </trkpt>
      <trkpt lat="42.5388880726" lon="0.9666036721">
        <ele>2362.58</ele>
        <time>2019-09-06T10:42:53Z</time>
      </trkpt>
      <trkpt lat="42.5389222708" lon="0.9665460885">
        <ele>2363.06</ele>
        <time>2019-09-06T10:43:00Z</time>
      </trkpt>
      <trkpt lat="42.5390057545" lon="0.9664496966">
        <ele>2363.06</ele>
        <time>2019-09-06T10:43:12Z</time>
      </trkpt>
      <trkpt lat="42.5390575547" lon="0.9664100502">
        <ele>2361.62</ele>
        <time>2019-09-06T10:43:24Z</time>
      </trkpt>
      <trkpt lat="42.5391329918" lon="0.9663629439">
        <ele>2360.17</ele>
        <time>2019-09-06T10:43:34Z</time>
      </trkpt>
      <trkpt lat="42.5391414575" lon="0.9663659614">
        <ele>2360.17</ele>
        <time>2019-09-06T10:43:49Z</time>
      </trkpt>
      <trkpt lat="42.5391406193" lon="0.9663402289">
        <ele>2359.69</ele>
        <time>2019-09-06T10:44:01Z</time>
      </trkpt>
      <trkpt lat="42.5391505938" lon="0.9663471859">
        <ele>2359.69</ele>
        <time>2019-09-06T10:44:16Z</time>
      </trkpt>
      <trkpt lat="42.5391686149" lon="0.9663172625">
        <ele>2360.17</ele>
        <time>2019-09-06T10:44:31Z</time>
      </trkpt>
      <trkpt lat="42.5391689502" lon="0.9662497882">
        <ele>2360.17</ele>
        <time>2019-09-06T10:44:43Z</time>
      </trkpt>
      <trkpt lat="42.5391806848" lon="0.9662054479">
        <ele>2360.17</ele>
        <time>2019-09-06T10:44:55Z</time>
      </trkpt>
      <trkpt lat="42.5392288808" lon="0.9661390632">
        <ele>2363.06</ele>
        <time>2019-09-06T10:45:07Z</time>
      </trkpt>
      <trkpt lat="42.5392295513" lon="0.9661389794">
        <ele>2363.54</ele>
        <time>2019-09-06T10:45:08Z</time>
      </trkpt>
      <trkpt lat="42.5392491650" lon="0.9661007579">
        <ele>2364.02</ele>
        <time>2019-09-06T10:45:20Z</time>
      </trkpt>
      <trkpt lat="42.5392846204" lon="0.9660130832">
        <ele>2364.98</ele>
        <time>2019-09-06T10:45:35Z</time>
      </trkpt>
      <trkpt lat="42.5392901525" lon="0.9660072997">
        <ele>2364.98</ele>
        <time>2019-09-06T10:45:36Z</time>
      </trkpt>
      <trkpt lat="42.5393529329" lon="0.9659617022">
        <ele>2365.94</ele>
        <time>2019-09-06T10:45:47Z</time>
      </trkpt>
      <trkpt lat="42.5393694453" lon="0.9658768773">
        <ele>2367.86</ele>
        <time>2019-09-06T10:45:56Z</time>
      </trkpt>
      <trkpt lat="42.5393940881" lon="0.9657839220">
        <ele>2370.27</ele>
        <time>2019-09-06T10:46:07Z</time>
      </trkpt>
      <trkpt lat="42.5394169707" lon="0.9656933136">
        <ele>2372.19</ele>
        <time>2019-09-06T10:46:20Z</time>
      </trkpt>
      <trkpt lat="42.5394508336" lon="0.9655975923">
        <ele>2374.59</ele>
        <time>2019-09-06T10:46:33Z</time>
      </trkpt>
      <trkpt lat="42.5394532643" lon="0.9655913897">
        <ele>2374.59</ele>
        <time>2019-09-06T10:46:34Z</time>
      </trkpt>
      <trkpt lat="42.5394686870" lon="0.9655198082">
        <ele>2377.00</ele>
        <time>2019-09-06T10:46:43Z</time>
      </trkpt>
      <trkpt lat="42.5394848641" lon="0.9654710256">
        <ele>2377.96</ele>
        <time>2019-09-06T10:46:52Z</time>
      </trkpt>
      <trkpt lat="42.5394880492" lon="0.9654142801">
        <ele>2379.88</ele>
        <time>2019-09-06T10:47:02Z</time>
      </trkpt>
      <trkpt lat="42.5394691061" lon="0.9653525054">
        <ele>2381.80</ele>
        <time>2019-09-06T10:47:13Z</time>
      </trkpt>
      <trkpt lat="42.5394670945" lon="0.9653166309">
        <ele>2382.76</ele>
        <time>2019-09-06T10:47:24Z</time>
      </trkpt>
      <trkpt lat="42.5394698605" lon="0.9652852826">
        <ele>2384.69</ele>
        <time>2019-09-06T10:47:33Z</time>
      </trkpt>
      <trkpt lat="42.5394519232" lon="0.9652350750">
        <ele>2386.61</ele>
        <time>2019-09-06T10:47:43Z</time>
      </trkpt>
      <trkpt lat="42.5394656695" lon="0.9652038105">
        <ele>2388.05</ele>
        <time>2019-09-06T10:47:53Z</time>
      </trkpt>
      <trkpt lat="42.5394711178" lon="0.9651396889">
        <ele>2389.97</ele>
        <time>2019-09-06T10:48:05Z</time>
      </trkpt>
      <trkpt lat="42.5394718722" lon="0.9650940076">
        <ele>2392.86</ele>
        <time>2019-09-06T10:48:17Z</time>
      </trkpt>
      <trkpt lat="42.5394671783" lon="0.9650357533">
        <ele>2394.78</ele>
        <time>2019-09-06T10:48:28Z</time>
      </trkpt>
      <trkpt lat="42.5394723751" lon="0.9649842046">
        <ele>2396.22</ele>
        <time>2019-09-06T10:48:38Z</time>
      </trkpt>
      <trkpt lat="42.5394887198" lon="0.9649605677">
        <ele>2397.67</ele>
        <time>2019-09-06T10:48:48Z</time>
      </trkpt>
      <trkpt lat="42.5395029690" lon="0.9649172332">
        <ele>2399.11</ele>
        <time>2019-09-06T10:49:00Z</time>
      </trkpt>
      <trkpt lat="42.5395102613" lon="0.9648793470">
        <ele>2400.55</ele>
        <time>2019-09-06T10:49:12Z</time>
      </trkpt>
      <trkpt lat="42.5395001192" lon="0.9648762457">
        <ele>2401.03</ele>
        <time>2019-09-06T10:49:27Z</time>
      </trkpt>
      <trkpt lat="42.5395015441" lon="0.9648543689">
        <ele>2401.03</ele>
        <time>2019-09-06T10:49:42Z</time>
      </trkpt>
      <trkpt lat="42.5395100098" lon="0.9647880681">
        <ele>2403.43</ele>
        <time>2019-09-06T10:49:55Z</time>
      </trkpt>
      <trkpt lat="42.5395131949" lon="0.9647513554">
        <ele>2405.36</ele>
        <time>2019-09-06T10:50:04Z</time>
      </trkpt>
      <trkpt lat="42.5395351555" lon="0.9647231083">
        <ele>2407.76</ele>
        <time>2019-09-06T10:50:18Z</time>
      </trkpt>
      <trkpt lat="42.5395304617" lon="0.9646828752">
        <ele>2409.20</ele>
        <time>2019-09-06T10:50:30Z</time>
      </trkpt>
      <trkpt lat="42.5395323057" lon="0.9646599926">
        <ele>2410.64</ele>
        <time>2019-09-06T10:50:39Z</time>
      </trkpt>
      <trkpt lat="42.5395362452" lon="0.9646691289">
        <ele>2410.64</ele>
        <time>2019-09-06T10:50:54Z</time>
      </trkpt>
      <trkpt lat="42.5395406876" lon="0.9646619204">
        <ele>2411.12</ele>
        <time>2019-09-06T10:51:10Z</time>
      </trkpt>
      <trkpt lat="42.5395328924" lon="0.9646447375">
        <ele>2411.12</ele>
        <time>2019-09-06T10:51:31Z</time>
      </trkpt>
      <trkpt lat="42.5395254325" lon="0.9645733237">
        <ele>2412.09</ele>
        <time>2019-09-06T10:51:40Z</time>
      </trkpt>
      <trkpt lat="42.5395149551" lon="0.9644853976">
        <ele>2412.57</ele>
        <time>2019-09-06T10:51:51Z</time>
      </trkpt>
      <trkpt lat="42.5395149551" lon="0.9644078650">
        <ele>2413.53</ele>
        <time>2019-09-06T10:52:03Z</time>
      </trkpt>
      <trkpt lat="42.5395423640" lon="0.9643667936">
        <ele>2414.97</ele>
        <time>2019-09-06T10:52:12Z</time>
      </trkpt>
      <trkpt lat="42.5395838544" lon="0.9642910212">
        <ele>2417.37</ele>
        <time>2019-09-06T10:52:26Z</time>
      </trkpt>
      <trkpt lat="42.5395899732" lon="0.9642403107">
        <ele>2418.81</ele>
        <time>2019-09-06T10:52:38Z</time>
      </trkpt>
      <trkpt lat="42.5396045577" lon="0.9642047714">
        <ele>2420.74</ele>
        <time>2019-09-06T10:52:51Z</time>
      </trkpt>
      <trkpt lat="42.5396021269" lon="0.9641731717">
        <ele>2420.74</ele>
        <time>2019-09-06T10:52:59Z</time>
      </trkpt>
      <trkpt lat="42.5396233331" lon="0.9640980698">
        <ele>2421.22</ele>
        <time>2019-09-06T10:53:10Z</time>
      </trkpt>
      <trkpt lat="42.5396197289" lon="0.9640041087">
        <ele>2422.18</ele>
        <time>2019-09-06T10:53:21Z</time>
      </trkpt>
      <trkpt lat="42.5396458805" lon="0.9638995863">
        <ele>2423.62</ele>
        <time>2019-09-06T10:53:33Z</time>
      </trkpt>
      <trkpt lat="42.5396538433" lon="0.9638352133">
        <ele>2425.54</ele>
        <time>2019-09-06T10:53:42Z</time>
      </trkpt>
      <trkpt lat="42.5396692660" lon="0.9637532383">
        <ele>2426.99</ele>
        <time>2019-09-06T10:53:53Z</time>
      </trkpt>
      <trkpt lat="42.5396955013" lon="0.9636482131">
        <ele>2428.91</ele>
        <time>2019-09-06T10:54:05Z</time>
      </trkpt>
      <trkpt lat="42.5397310406" lon="0.9635992628">
        <ele>2430.83</ele>
        <time>2019-09-06T10:54:17Z</time>
      </trkpt>
      <trkpt lat="42.5397343095" lon="0.9635797329">
        <ele>2430.83</ele>
        <time>2019-09-06T10:54:19Z</time>
      </trkpt>
      <trkpt lat="42.5397564378" lon="0.9634881187">
        <ele>2432.27</ele>
        <time>2019-09-06T10:54:30Z</time>
      </trkpt>
      <trkpt lat="42.5397610478" lon="0.9633993544">
        <ele>2434.20</ele>
        <time>2019-09-06T10:54:41Z</time>
      </trkpt>
      <trkpt lat="42.5397291128" lon="0.9633286949">
        <ele>2435.64</ele>
        <time>2019-09-06T10:54:53Z</time>
      </trkpt>
      <trkpt lat="42.5397406798" lon="0.9632592928">
        <ele>2437.08</ele>
        <time>2019-09-06T10:55:05Z</time>
      </trkpt>
      <trkpt lat="42.5397756323" lon="0.9632157907">
        <ele>2439.00</ele>
        <time>2019-09-06T10:55:16Z</time>
      </trkpt>
      <trkpt lat="42.5398495607" lon="0.9632673394">
        <ele>2441.41</ele>
        <time>2019-09-06T10:55:27Z</time>
      </trkpt>
      <trkpt lat="42.5399239920" lon="0.9632999450">
        <ele>2442.37</ele>
        <time>2019-09-06T10:55:38Z</time>
      </trkpt>
      <trkpt lat="42.5399976689" lon="0.9632967599">
        <ele>2443.33</ele>
        <time>2019-09-06T10:55:47Z</time>
      </trkpt>
      <trkpt lat="42.5400253292" lon="0.9633184690">
        <ele>2443.81</ele>
        <time>2019-09-06T10:55:50Z</time>
      </trkpt>
      <trkpt lat="42.5401173625" lon="0.9633512422">
        <ele>2444.77</ele>
        <time>2019-09-06T10:56:01Z</time>
      </trkpt>
      <trkpt lat="42.5401752815" lon="0.9633325506">
        <ele>2446.21</ele>
        <time>2019-09-06T10:56:12Z</time>
      </trkpt>
      <trkpt lat="42.5402333681" lon="0.9633798245">
        <ele>2447.17</ele>
        <time>2019-09-06T10:56:29Z</time>
      </trkpt>
      <trkpt lat="42.5402838271" lon="0.9633714426">
        <ele>2448.62</ele>
        <time>2019-09-06T10:56:40Z</time>
      </trkpt>
      <trkpt lat="42.5403188635" lon="0.9633509070">
        <ele>2451.02</ele>
        <time>2019-09-06T10:56:50Z</time>
      </trkpt>
      <trkpt lat="42.5403605215" lon="0.9632932395">
        <ele>2452.94</ele>
        <time>2019-09-06T10:57:02Z</time>
      </trkpt>
      <trkpt lat="42.5403352920" lon="0.9632220771">
        <ele>2454.38</ele>
        <time>2019-09-06T10:57:13Z</time>
      </trkpt>
      <trkpt lat="42.5403300114" lon="0.9632086661">
        <ele>2454.86</ele>
        <time>2019-09-06T10:57:15Z</time>
      </trkpt>
      <trkpt lat="42.5403188635" lon="0.9631257690">
        <ele>2455.34</ele>
        <time>2019-09-06T10:57:27Z</time>
      </trkpt>
      <trkpt lat="42.5402981602" lon="0.9630608093">
        <ele>2455.34</ele>
        <time>2019-09-06T10:57:38Z</time>
      </trkpt>
      <trkpt lat="42.5403188635" lon="0.9630377591">
        <ele>2456.31</ele>
        <time>2019-09-06T10:57:48Z</time>
      </trkpt>
      <trkpt lat="42.5403148402" lon="0.9630055726">
        <ele>2457.75</ele>
        <time>2019-09-06T10:57:57Z</time>
      </trkpt>
      <trkpt lat="42.5402824022" lon="0.9629758168">
        <ele>2459.67</ele>
        <time>2019-09-06T10:58:08Z</time>
      </trkpt>
      <trkpt lat="42.5402978249" lon="0.9629483242">
        <ele>2461.11</ele>
        <time>2019-09-06T10:58:18Z</time>
      </trkpt>
      <trkpt lat="42.5403054524" lon="0.9629012179">
        <ele>2463.04</ele>
        <time>2019-09-06T10:58:31Z</time>
      </trkpt>
      <trkpt lat="42.5402884372" lon="0.9628524352">
        <ele>2464.48</ele>
        <time>2019-09-06T10:58:42Z</time>
      </trkpt>
      <trkpt lat="42.5402542390" lon="0.9628246911">
        <ele>2465.44</ele>
        <time>2019-09-06T10:58:52Z</time>
      </trkpt>
      <trkpt lat="42.5402153470" lon="0.9627925884">
        <ele>2467.36</ele>
        <time>2019-09-06T10:59:04Z</time>
      </trkpt>
      <trkpt lat="42.5401819870" lon="0.9627607372">
        <ele>2468.80</ele>
        <time>2019-09-06T10:59:15Z</time>
      </trkpt>
      <trkpt lat="42.5401615351" lon="0.9627205040">
        <ele>2470.24</ele>
        <time>2019-09-06T10:59:26Z</time>
      </trkpt>
      <trkpt lat="42.5401553325" lon="0.9627009742">
        <ele>2472.17</ele>
        <time>2019-09-06T10:59:40Z</time>
      </trkpt>
      <trkpt lat="42.5401547458" lon="0.9627009742">
        <ele>2472.17</ele>
        <time>2019-09-06T10:59:53Z</time>
      </trkpt>
      <trkpt lat="42.5401583500" lon="0.9626824502">
        <ele>2472.17</ele>
        <time>2019-09-06T11:00:07Z</time>
      </trkpt>
      <trkpt lat="42.5401757844" lon="0.9626704641">
        <ele>2472.17</ele>
        <time>2019-09-06T11:00:16Z</time>
      </trkpt>
      <trkpt lat="42.5401851721" lon="0.9626180772">
        <ele>2473.61</ele>
        <time>2019-09-06T11:00:26Z</time>
      </trkpt>
      <trkpt lat="42.5402117427" lon="0.9626124613">
        <ele>2475.53</ele>
        <time>2019-09-06T11:00:36Z</time>
      </trkpt>
      <trkpt lat="42.5402091444" lon="0.9625522792">
        <ele>2476.49</ele>
        <time>2019-09-06T11:00:54Z</time>
      </trkpt>
      <trkpt lat="42.5401808973" lon="0.9624928515">
        <ele>2478.42</ele>
        <time>2019-09-06T11:01:04Z</time>
      </trkpt>
      <trkpt lat="42.5401556678" lon="0.9624704719">
        <ele>2479.38</ele>
        <time>2019-09-06T11:01:16Z</time>
      </trkpt>
      <trkpt lat="42.5401394907" lon="0.9624273051">
        <ele>2480.82</ele>
        <time>2019-09-06T11:01:26Z</time>
      </trkpt>
      <trkpt lat="42.5401224755" lon="0.9623994771">
        <ele>2481.78</ele>
        <time>2019-09-06T11:01:36Z</time>
      </trkpt>
      <trkpt lat="42.5401155185" lon="0.9623292368">
        <ele>2481.78</ele>
        <time>2019-09-06T11:01:47Z</time>
      </trkpt>
      <trkpt lat="42.5400888640" lon="0.9622469265">
        <ele>2483.22</ele>
        <time>2019-09-06T11:01:59Z</time>
      </trkpt>
      <trkpt lat="42.5400632992" lon="0.9622043464">
        <ele>2484.18</ele>
        <time>2019-09-06T11:02:10Z</time>
      </trkpt>
      <trkpt lat="42.5400574319" lon="0.9621046018">
        <ele>2485.15</ele>
        <time>2019-09-06T11:02:23Z</time>
      </trkpt>
      <trkpt lat="42.5400571804" lon="0.9620056953">
        <ele>2485.15</ele>
        <time>2019-09-06T11:02:34Z</time>
      </trkpt>
      <trkpt lat="42.5400026143" lon="0.9619414899">
        <ele>2485.63</ele>
        <time>2019-09-06T11:02:44Z</time>
      </trkpt>
      <trkpt lat="42.5399636384" lon="0.9618730098">
        <ele>2487.55</ele>
        <time>2019-09-06T11:02:56Z</time>
      </trkpt>
      <trkpt lat="42.5399317872" lon="0.9617590997">
        <ele>2487.07</ele>
        <time>2019-09-06T11:03:07Z</time>
      </trkpt>
      <trkpt lat="42.5399344694" lon="0.9616878536">
        <ele>2488.51</ele>
        <time>2019-09-06T11:03:17Z</time>
      </trkpt>
      <trkpt lat="42.5399087369" lon="0.9616619535">
        <ele>2489.47</ele>
        <time>2019-09-06T11:03:27Z</time>
      </trkpt>
      <trkpt lat="42.5398927275" lon="0.9616088122">
        <ele>2490.43</ele>
        <time>2019-09-06T11:03:37Z</time>
      </trkpt>
      <trkpt lat="42.5399178732" lon="0.9615354706">
        <ele>2492.84</ele>
        <time>2019-09-06T11:03:51Z</time>
      </trkpt>
      <trkpt lat="42.5399231538" lon="0.9615277592">
        <ele>2494.28</ele>
        <time>2019-09-06T11:04:05Z</time>
      </trkpt>
      <trkpt lat="42.5399255008" lon="0.9615211375">
        <ele>2494.28</ele>
        <time>2019-09-06T11:04:24Z</time>
      </trkpt>
      <trkpt lat="42.5399423484" lon="0.9614720196">
        <ele>2494.28</ele>
        <time>2019-09-06T11:04:30Z</time>
      </trkpt>
      <trkpt lat="42.5399555918" lon="0.9614514839">
        <ele>2494.28</ele>
        <time>2019-09-06T11:04:32Z</time>
      </trkpt>
      <trkpt lat="42.5400623772" lon="0.9613099135">
        <ele>2495.72</ele>
        <time>2019-09-06T11:04:46Z</time>
      </trkpt>
      <trkpt lat="42.5400717650" lon="0.9613038786">
        <ele>2495.72</ele>
        <time>2019-09-06T11:04:47Z</time>
      </trkpt>
      <trkpt lat="42.5401695818" lon="0.9612237476">
        <ele>2497.64</ele>
        <time>2019-09-06T11:04:59Z</time>
      </trkpt>
      <trkpt lat="42.5402464438" lon="0.9610862844">
        <ele>2499.08</ele>
        <time>2019-09-06T11:05:12Z</time>
      </trkpt>
      <trkpt lat="42.5402954780" lon="0.9610452130">
        <ele>2501.01</ele>
        <time>2019-09-06T11:05:23Z</time>
      </trkpt>
      <trkpt lat="42.5403474458" lon="0.9610219952">
        <ele>2502.45</ele>
        <time>2019-09-06T11:05:33Z</time>
      </trkpt>
      <trkpt lat="42.5404148363" lon="0.9610266890">
        <ele>2504.37</ele>
        <time>2019-09-06T11:05:44Z</time>
      </trkpt>
      <trkpt lat="42.5404557399" lon="0.9609870426">
        <ele>2505.81</ele>
        <time>2019-09-06T11:05:55Z</time>
      </trkpt>
      <trkpt lat="42.5404751860" lon="0.9609442949">
        <ele>2508.22</ele>
        <time>2019-09-06T11:06:06Z</time>
      </trkpt>
      <trkpt lat="42.5405066181" lon="0.9609333146">
        <ele>2509.18</ele>
        <time>2019-09-06T11:06:18Z</time>
      </trkpt>
      <trkpt lat="42.5405530538" lon="0.9608839452">
        <ele>2511.58</ele>
        <time>2019-09-06T11:06:30Z</time>
      </trkpt>
      <trkpt lat="42.5405595079" lon="0.9608282894">
        <ele>2513.02</ele>
        <time>2019-09-06T11:06:41Z</time>
      </trkpt>
      <trkpt lat="42.5405568257" lon="0.9607916605">
        <ele>2513.98</ele>
        <time>2019-09-06T11:06:50Z</time>
      </trkpt>
      <trkpt lat="42.5405834801" lon="0.9607761540">
        <ele>2516.87</ele>
        <time>2019-09-06T11:07:00Z</time>
      </trkpt>
      <trkpt lat="42.5405951310" lon="0.9607826918">
        <ele>2517.83</ele>
        <time>2019-09-06T11:07:14Z</time>
      </trkpt>
      <trkpt lat="42.5406229589" lon="0.9607829433">
        <ele>2518.79</ele>
        <time>2019-09-06T11:07:27Z</time>
      </trkpt>
      <trkpt lat="42.5406492781" lon="0.9607887268">
        <ele>2520.23</ele>
        <time>2019-09-06T11:07:36Z</time>
      </trkpt>
      <trkpt lat="42.5406955462" lon="0.9607858770">
        <ele>2521.68</ele>
        <time>2019-09-06T11:07:47Z</time>
      </trkpt>
      <trkpt lat="42.5407397188" lon="0.9607837815">
        <ele>2523.12</ele>
        <time>2019-09-06T11:07:57Z</time>
      </trkpt>
      <trkpt lat="42.5407824665" lon="0.9607785009">
        <ele>2525.04</ele>
        <time>2019-09-06T11:08:08Z</time>
      </trkpt>
      <trkpt lat="42.5407871604" lon="0.9607608989">
        <ele>2526.48</ele>
        <time>2019-09-06T11:08:18Z</time>
      </trkpt>
      <trkpt lat="42.5407775212" lon="0.9606973641">
        <ele>2527.92</ele>
        <time>2019-09-06T11:08:29Z</time>
      </trkpt>
      <trkpt lat="42.5407656189" lon="0.9606541134">
        <ele>2529.85</ele>
        <time>2019-09-06T11:08:40Z</time>
      </trkpt>
      <trkpt lat="42.5407729950" lon="0.9606368467">
        <ele>2530.81</ele>
        <time>2019-09-06T11:08:52Z</time>
      </trkpt>
      <trkpt lat="42.5407743361" lon="0.9606111143">
        <ele>2532.73</ele>
        <time>2019-09-06T11:09:03Z</time>
      </trkpt>
      <trkpt lat="42.5407463405" lon="0.9605878964">
        <ele>2534.17</ele>
        <time>2019-09-06T11:09:16Z</time>
      </trkpt>
      <trkpt lat="42.5407788623" lon="0.9605600685">
        <ele>2536.10</ele>
        <time>2019-09-06T11:09:31Z</time>
      </trkpt>
      <trkpt lat="42.5407978054" lon="0.9605409577">
        <ele>2537.54</ele>
        <time>2019-09-06T11:09:43Z</time>
      </trkpt>
      <trkpt lat="42.5408163294" lon="0.9605231043">
        <ele>2538.98</ele>
        <time>2019-09-06T11:09:54Z</time>
      </trkpt>
      <trkpt lat="42.5408223644" lon="0.9605157282">
        <ele>2538.98</ele>
        <time>2019-09-06T11:09:56Z</time>
      </trkpt>
      <trkpt lat="42.5408345181" lon="0.9604858048">
        <ele>2541.38</ele>
        <time>2019-09-06T11:10:10Z</time>
      </trkpt>
      <trkpt lat="42.5408343505" lon="0.9604812786">
        <ele>2542.34</ele>
        <time>2019-09-06T11:10:28Z</time>
      </trkpt>
      <trkpt lat="42.5408460852" lon="0.9604810271">
        <ele>2541.86</ele>
        <time>2019-09-06T11:10:57Z</time>
      </trkpt>
      <trkpt lat="42.5408347696" lon="0.9604330827">
        <ele>2543.79</ele>
        <time>2019-09-06T11:11:10Z</time>
      </trkpt>
      <trkpt lat="42.5408743322" lon="0.9604366031">
        <ele>2546.19</ele>
        <time>2019-09-06T11:11:21Z</time>
      </trkpt>
      <trkpt lat="42.5409319159" lon="0.9604341723">
        <ele>2548.11</ele>
        <time>2019-09-06T11:11:34Z</time>
      </trkpt>
      <trkpt lat="42.5409524515" lon="0.9604234435">
        <ele>2550.03</ele>
        <time>2019-09-06T11:11:44Z</time>
      </trkpt>
      <trkpt lat="42.5410139747" lon="0.9604340047">
        <ele>2552.44</ele>
        <time>2019-09-06T11:11:57Z</time>
      </trkpt>
      <trkpt lat="42.5410573930" lon="0.9604340047">
        <ele>2553.40</ele>
        <time>2019-09-06T11:12:08Z</time>
      </trkpt>
      <trkpt lat="42.5410793535" lon="0.9604324959">
        <ele>2554.84</ele>
        <time>2019-09-06T11:12:17Z</time>
      </trkpt>
      <trkpt lat="42.5410882384" lon="0.9604249522">
        <ele>2555.80</ele>
        <time>2019-09-06T11:12:33Z</time>
      </trkpt>
      <trkpt lat="42.5410561357" lon="0.9604141396">
        <ele>2556.76</ele>
        <time>2019-09-06T11:12:44Z</time>
      </trkpt>
      <trkpt lat="42.5410865620" lon="0.9604080208">
        <ele>2558.21</ele>
        <time>2019-09-06T11:12:56Z</time>
      </trkpt>
      <trkpt lat="42.5411073491" lon="0.9603894129">
        <ele>2559.65</ele>
        <time>2019-09-06T11:13:07Z</time>
      </trkpt>
      <trkpt lat="42.5410831254" lon="0.9603791870">
        <ele>2560.61</ele>
        <time>2019-09-06T11:13:16Z</time>
      </trkpt>
      <trkpt lat="42.5410811137" lon="0.9603316616">
        <ele>2562.05</ele>
        <time>2019-09-06T11:13:28Z</time>
      </trkpt>
      <trkpt lat="42.5410723127" lon="0.9602603316">
        <ele>2564.93</ele>
        <time>2019-09-06T11:13:41Z</time>
      </trkpt>
      <trkpt lat="42.5410689600" lon="0.9602191765">
        <ele>2566.38</ele>
        <time>2019-09-06T11:13:51Z</time>
      </trkpt>
      <trkpt lat="42.5410439819" lon="0.9601853136">
        <ele>2568.30</ele>
        <time>2019-09-06T11:14:01Z</time>
      </trkpt>
      <trkpt lat="42.5410185847" lon="0.9601600841">
        <ele>2569.74</ele>
        <time>2019-09-06T11:14:11Z</time>
      </trkpt>
      <trkpt lat="42.5410260446" lon="0.9601258021">
        <ele>2570.22</ele>
        <time>2019-09-06T11:14:22Z</time>
      </trkpt>
      <trkpt lat="42.5410357676" lon="0.9600830544">
        <ele>2571.66</ele>
        <time>2019-09-06T11:14:34Z</time>
      </trkpt>
      <trkpt lat="42.5410547946" lon="0.9600597527">
        <ele>2573.59</ele>
        <time>2019-09-06T11:14:44Z</time>
      </trkpt>
      <trkpt lat="42.5410470832" lon="0.9600353613">
        <ele>2576.47</ele>
        <time>2019-09-06T11:14:52Z</time>
      </trkpt>
      <trkpt lat="42.5410465803" lon="0.9600343555">
        <ele>2576.95</ele>
        <time>2019-09-06T11:14:53Z</time>
      </trkpt>
      <trkpt lat="42.5410683732" lon="0.9599913564">
        <ele>2576.47</ele>
        <time>2019-09-06T11:15:08Z</time>
      </trkpt>
      <trkpt lat="42.5410837121" lon="0.9599838965">
        <ele>2575.03</ele>
        <time>2019-09-06T11:15:11Z</time>
      </trkpt>
      <trkpt lat="42.5410520285" lon="0.9599802922">
        <ele>2575.51</ele>
        <time>2019-09-06T11:15:22Z</time>
      </trkpt>
      <trkpt lat="42.5410844665" lon="0.9599616006">
        <ele>2575.03</ele>
        <time>2019-09-06T11:15:36Z</time>
      </trkpt>
      <trkpt lat="42.5411580596" lon="0.9599175118">
        <ele>2573.11</ele>
        <time>2019-09-06T11:15:46Z</time>
      </trkpt>
      <trkpt lat="42.5412075128" lon="0.9598491993">
        <ele>2571.66</ele>
        <time>2019-09-06T11:15:58Z</time>
      </trkpt>
      <trkpt lat="42.5412412081" lon="0.9598118998">
        <ele>2570.70</ele>
        <time>2019-09-06T11:16:10Z</time>
      </trkpt>
      <trkpt lat="42.5412417110" lon="0.9598018415">
        <ele>2569.26</ele>
        <time>2019-09-06T11:16:21Z</time>
      </trkpt>
      <trkpt lat="42.5412469078" lon="0.9597901069">
        <ele>2568.78</ele>
        <time>2019-09-06T11:16:49Z</time>
      </trkpt>
      <trkpt lat="42.5412624981" lon="0.9597659670">
        <ele>2567.82</ele>
        <time>2019-09-06T11:17:02Z</time>
      </trkpt>
      <trkpt lat="42.5413133763" lon="0.9597485326">
        <ele>2566.38</ele>
        <time>2019-09-06T11:17:14Z</time>
      </trkpt>
      <trkpt lat="42.5413116999" lon="0.9596984088">
        <ele>2565.42</ele>
        <time>2019-09-06T11:17:29Z</time>
      </trkpt>
      <trkpt lat="42.5413442217" lon="0.9596705809">
        <ele>2563.01</ele>
        <time>2019-09-06T11:17:42Z</time>
      </trkpt>
      <trkpt lat="42.5413574651" lon="0.9596340358">
        <ele>2561.09</ele>
        <time>2019-09-06T11:17:53Z</time>
      </trkpt>
      <trkpt lat="42.5413717981" lon="0.9596225526">
        <ele>2559.17</ele>
        <time>2019-09-06T11:18:04Z</time>
      </trkpt>
      <trkpt lat="42.5414078403" lon="0.9596061241">
        <ele>2557.73</ele>
        <time>2019-09-06T11:18:15Z</time>
      </trkpt>
      <trkpt lat="42.5414070860" lon="0.9596015140">
        <ele>2557.24</ele>
        <time>2019-09-06T11:18:33Z</time>
      </trkpt>
      <trkpt lat="42.5413788389" lon="0.9595834091">
        <ele>2556.76</ele>
        <time>2019-09-06T11:18:51Z</time>
      </trkpt>
      <trkpt lat="42.5413333252" lon="0.9595301840">
        <ele>2555.32</ele>
        <time>2019-09-06T11:19:02Z</time>
      </trkpt>
      <trkpt lat="42.5413133763" lon="0.9594631288">
        <ele>2553.40</ele>
        <time>2019-09-06T11:19:14Z</time>
      </trkpt>
      <trkpt lat="42.5413194112" lon="0.9594150167">
        <ele>2551.96</ele>
        <time>2019-09-06T11:19:25Z</time>
      </trkpt>
      <trkpt lat="42.5413043238" lon="0.9593661502">
        <ele>2550.03</ele>
        <time>2019-09-06T11:19:37Z</time>
      </trkpt>
      <trkpt lat="42.5413118675" lon="0.9592663217">
        <ele>2547.63</ele>
        <time>2019-09-06T11:19:51Z</time>
      </trkpt>
      <trkpt lat="42.5413884781" lon="0.9593119193">
        <ele>2546.19</ele>
        <time>2019-09-06T11:20:03Z</time>
      </trkpt>
      <trkpt lat="42.5414310582" lon="0.9593118355">
        <ele>2543.79</ele>
        <time>2019-09-06T11:20:14Z</time>
      </trkpt>
      <trkpt lat="42.5414748117" lon="0.9592899587">
        <ele>2541.86</ele>
        <time>2019-09-06T11:20:25Z</time>
      </trkpt>
      <trkpt lat="42.5415052380" lon="0.9592724405">
        <ele>2539.94</ele>
        <time>2019-09-06T11:20:35Z</time>
      </trkpt>
      <trkpt lat="42.5415396877" lon="0.9592432715">
        <ele>2538.02</ele>
        <time>2019-09-06T11:20:46Z</time>
      </trkpt>
      <trkpt lat="42.5415271148" lon="0.9592078999">
        <ele>2536.10</ele>
        <time>2019-09-06T11:20:57Z</time>
      </trkpt>
      <trkpt lat="42.5415279530" lon="0.9591480531">
        <ele>2535.61</ele>
        <time>2019-09-06T11:21:17Z</time>
      </trkpt>
      <trkpt lat="42.5415662583" lon="0.9590747952">
        <ele>2534.65</ele>
        <time>2019-09-06T11:21:27Z</time>
      </trkpt>
      <trkpt lat="42.5415979419" lon="0.9590409324">
        <ele>2533.21</ele>
        <time>2019-09-06T11:21:37Z</time>
      </trkpt>
      <trkpt lat="42.5416337326" lon="0.9590584505">
        <ele>2532.25</ele>
        <time>2019-09-06T11:21:48Z</time>
      </trkpt>
      <trkpt lat="42.5416743848" lon="0.9590464644">
        <ele>2531.77</ele>
        <time>2019-09-06T11:21:58Z</time>
      </trkpt>
      <trkpt lat="42.5416676793" lon="0.9589873720">
        <ele>2529.85</ele>
        <time>2019-09-06T11:22:09Z</time>
      </trkpt>
      <trkpt lat="42.5416508317" lon="0.9589499049">
        <ele>2528.40</ele>
        <time>2019-09-06T11:22:19Z</time>
      </trkpt>
      <trkpt lat="42.5416721217" lon="0.9589015413">
        <ele>2526.96</ele>
        <time>2019-09-06T11:22:35Z</time>
      </trkpt>
      <trkpt lat="42.5416826829" lon="0.9588547703">
        <ele>2525.52</ele>
        <time>2019-09-06T11:22:47Z</time>
      </trkpt>
      <trkpt lat="42.5416908972" lon="0.9588001203">
        <ele>2523.12</ele>
        <time>2019-09-06T11:22:59Z</time>
      </trkpt>
      <trkpt lat="42.5416738819" lon="0.9587450512">
        <ele>2521.68</ele>
        <time>2019-09-06T11:23:08Z</time>
      </trkpt>
      <trkpt lat="42.5416659191" lon="0.9587194864">
        <ele>2520.23</ele>
        <time>2019-09-06T11:23:20Z</time>
      </trkpt>
      <trkpt lat="42.5416657515" lon="0.9586574603">
        <ele>2519.27</ele>
        <time>2019-09-06T11:23:35Z</time>
      </trkpt>
      <trkpt lat="42.5416593812" lon="0.9585727192">
        <ele>2517.35</ele>
        <time>2019-09-06T11:23:45Z</time>
      </trkpt>
      <trkpt lat="42.5416877959" lon="0.9584806859">
        <ele>2514.95</ele>
        <time>2019-09-06T11:23:57Z</time>
      </trkpt>
      <trkpt lat="42.5417236704" lon="0.9583760798">
        <ele>2512.06</ele>
        <time>2019-09-06T11:24:09Z</time>
      </trkpt>
      <trkpt lat="42.5417421106" lon="0.9583192505">
        <ele>2510.62</ele>
        <time>2019-09-06T11:24:15Z</time>
      </trkpt>
      <trkpt lat="42.5417740457" lon="0.9581214376">
        <ele>2507.26</ele>
        <time>2019-09-06T11:24:28Z</time>
      </trkpt>
      <trkpt lat="42.5417986885" lon="0.9580107965">
        <ele>2505.33</ele>
        <time>2019-09-06T11:24:38Z</time>
      </trkpt>
      <trkpt lat="42.5418048911" lon="0.9580026660">
        <ele>2504.85</ele>
        <time>2019-09-06T11:24:39Z</time>
      </trkpt>
      <trkpt lat="42.5418514945" lon="0.9579899255">
        <ele>2502.93</ele>
        <time>2019-09-06T11:24:50Z</time>
      </trkpt>
      <trkpt lat="42.5418934040" lon="0.9579850640">
        <ele>2501.97</ele>
        <time>2019-09-06T11:25:05Z</time>
      </trkpt>
      <trkpt lat="42.5419049710" lon="0.9579711501">
        <ele>2501.49</ele>
        <time>2019-09-06T11:25:22Z</time>
      </trkpt>
      <trkpt lat="42.5419607945" lon="0.9579033405">
        <ele>2500.05</ele>
        <time>2019-09-06T11:25:33Z</time>
      </trkpt>
      <trkpt lat="42.5420227367" lon="0.9578367881">
        <ele>2497.16</ele>
        <time>2019-09-06T11:25:45Z</time>
      </trkpt>
      <trkpt lat="42.5420719385" lon="0.9578384645">
        <ele>2494.28</ele>
        <time>2019-09-06T11:25:55Z</time>
      </trkpt>
      <trkpt lat="42.5420985091" lon="0.9577906877">
        <ele>2493.80</ele>
        <time>2019-09-06T11:26:00Z</time>
      </trkpt>
      <trkpt lat="42.5421579368" lon="0.9576466028">
        <ele>2491.39</ele>
        <time>2019-09-06T11:26:13Z</time>
      </trkpt>
      <trkpt lat="42.5422143470" lon="0.9575408231">
        <ele>2488.03</ele>
        <time>2019-09-06T11:26:25Z</time>
      </trkpt>
      <trkpt lat="42.5422484614" lon="0.9574927948">
        <ele>2486.59</ele>
        <time>2019-09-06T11:26:32Z</time>
      </trkpt>
      <trkpt lat="42.5422974955" lon="0.9573622886">
        <ele>2484.18</ele>
        <time>2019-09-06T11:26:42Z</time>
      </trkpt>
      <trkpt lat="42.5423944741" lon="0.9572640527">
        <ele>2482.74</ele>
        <time>2019-09-06T11:26:56Z</time>
      </trkpt>
      <trkpt lat="42.5424390659" lon="0.9572233167">
        <ele>2480.34</ele>
        <time>2019-09-06T11:27:08Z</time>
      </trkpt>
      <trkpt lat="42.5424761977" lon="0.9571662359">
        <ele>2479.38</ele>
        <time>2019-09-06T11:27:18Z</time>
      </trkpt>
      <trkpt lat="42.5425215438" lon="0.9571080655">
        <ele>2477.45</ele>
        <time>2019-09-06T11:27:30Z</time>
      </trkpt>
      <trkpt lat="42.5425470248" lon="0.9570993483">
        <ele>2476.01</ele>
        <time>2019-09-06T11:27:34Z</time>
      </trkpt>
      <trkpt lat="42.5425883476" lon="0.9569826722">
        <ele>2474.57</ele>
        <time>2019-09-06T11:27:46Z</time>
      </trkpt>
      <trkpt lat="42.5426564086" lon="0.9568100050">
        <ele>2472.65</ele>
        <time>2019-09-06T11:28:00Z</time>
      </trkpt>
      <trkpt lat="42.5426646229" lon="0.9567633178">
        <ele>2472.17</ele>
        <time>2019-09-06T11:28:03Z</time>
      </trkpt>
      <trkpt lat="42.5426812191" lon="0.9566963464">
        <ele>2471.69</ele>
        <time>2019-09-06T11:28:13Z</time>
      </trkpt>
      <trkpt lat="42.5426699873" lon="0.9566460550">
        <ele>2470.73</ele>
        <time>2019-09-06T11:28:24Z</time>
      </trkpt>
      <trkpt lat="42.5427187700" lon="0.9566133656">
        <ele>2468.80</ele>
        <time>2019-09-06T11:28:35Z</time>
      </trkpt>
      <trkpt lat="42.5427326839" lon="0.9565505013">
        <ele>2466.88</ele>
        <time>2019-09-06T11:28:45Z</time>
      </trkpt>
      <trkpt lat="42.5427471008" lon="0.9564997908">
        <ele>2465.44</ele>
        <time>2019-09-06T11:28:56Z</time>
      </trkpt>
      <trkpt lat="42.5427507889" lon="0.9564887267">
        <ele>2464.96</ele>
        <time>2019-09-06T11:28:57Z</time>
      </trkpt>
      <trkpt lat="42.5428473484" lon="0.9564137086">
        <ele>2462.07</ele>
        <time>2019-09-06T11:29:10Z</time>
      </trkpt>
      <trkpt lat="42.5428786129" lon="0.9563856293">
        <ele>2460.63</ele>
        <time>2019-09-06T11:29:18Z</time>
      </trkpt>
      <trkpt lat="42.5429135654" lon="0.9563835338">
        <ele>2460.15</ele>
        <time>2019-09-06T11:29:22Z</time>
      </trkpt>
      <trkpt lat="42.5429724902" lon="0.9563485812">
        <ele>2458.71</ele>
        <time>2019-09-06T11:29:31Z</time>
      </trkpt>
      <trkpt lat="42.5430199318" lon="0.9562771674">
        <ele>2457.75</ele>
        <time>2019-09-06T11:29:42Z</time>
      </trkpt>
      <trkpt lat="42.5430333428" lon="0.9562645108">
        <ele>2457.27</ele>
        <time>2019-09-06T11:29:44Z</time>
      </trkpt>
      <trkpt lat="42.5430708099" lon="0.9561223537">
        <ele>2456.31</ele>
        <time>2019-09-06T11:29:55Z</time>
      </trkpt>
      <trkpt lat="42.5431113783" lon="0.9559895005">
        <ele>2456.79</ele>
        <time>2019-09-06T11:30:07Z</time>
      </trkpt>
      <trkpt lat="42.5431154016" lon="0.9559500217">
        <ele>2456.79</ele>
        <time>2019-09-06T11:30:11Z</time>
      </trkpt>
      <trkpt lat="42.5431428105" lon="0.9559012391">
        <ele>2456.79</ele>
        <time>2019-09-06T11:30:15Z</time>
      </trkpt>
      <trkpt lat="42.5431622565" lon="0.9558892529">
        <ele>2456.31</ele>
        <time>2019-09-06T11:30:17Z</time>
      </trkpt>
      <trkpt lat="42.5432172418" lon="0.9557258058">
        <ele>2456.31</ele>
        <time>2019-09-06T11:30:29Z</time>
      </trkpt>
      <trkpt lat="42.5432293955" lon="0.9556812979">
        <ele>2456.31</ele>
        <time>2019-09-06T11:30:32Z</time>
      </trkpt>
      <trkpt lat="42.5432600733" lon="0.9556475189">
        <ele>2455.34</ele>
        <time>2019-09-06T11:30:36Z</time>
      </trkpt>
      <trkpt lat="42.5433032401" lon="0.9555341117">
        <ele>2453.42</ele>
        <time>2019-09-06T11:30:49Z</time>
      </trkpt>
      <trkpt lat="42.5433389470" lon="0.9554462694">
        <ele>2451.02</ele>
        <time>2019-09-06T11:30:59Z</time>
      </trkpt>
      <trkpt lat="42.5433267094" lon="0.9553860035">
        <ele>2450.06</ele>
        <time>2019-09-06T11:31:04Z</time>
      </trkpt>
      <trkpt lat="42.5433666911" lon="0.9552742727">
        <ele>2447.65</ele>
        <time>2019-09-06T11:31:16Z</time>
      </trkpt>
      <trkpt lat="42.5433984585" lon="0.9552791342">
        <ele>2446.69</ele>
        <time>2019-09-06T11:31:20Z</time>
      </trkpt>
      <trkpt lat="42.5434772484" lon="0.9552706685">
        <ele>2444.29</ele>
        <time>2019-09-06T11:31:31Z</time>
      </trkpt>
      <trkpt lat="42.5434815232" lon="0.9552583471">
        <ele>2443.81</ele>
        <time>2019-09-06T11:31:32Z</time>
      </trkpt>
      <trkpt lat="42.5435589720" lon="0.9551342111">
        <ele>2441.41</ele>
        <time>2019-09-06T11:31:41Z</time>
      </trkpt>
      <trkpt lat="42.5437043142" lon="0.9550029505">
        <ele>2439.48</ele>
        <time>2019-09-06T11:31:54Z</time>
      </trkpt>
      <trkpt lat="42.5437208265" lon="0.9549898747">
        <ele>2439.00</ele>
        <time>2019-09-06T11:31:56Z</time>
      </trkpt>
      <trkpt lat="42.5437341537" lon="0.9549510665">
        <ele>2439.48</ele>
        <time>2019-09-06T11:31:59Z</time>
      </trkpt>
      <trkpt lat="42.5437618140" lon="0.9548664931">
        <ele>2438.52</ele>
        <time>2019-09-06T11:32:07Z</time>
      </trkpt>
      <trkpt lat="42.5438586250" lon="0.9547415189">
        <ele>2436.60</ele>
        <time>2019-09-06T11:32:20Z</time>
      </trkpt>
      <trkpt lat="42.5439572800" lon="0.9547239169">
        <ele>2435.16</ele>
        <time>2019-09-06T11:32:30Z</time>
      </trkpt>
      <trkpt lat="42.5440598745" lon="0.9546645731">
        <ele>2432.27</ele>
        <time>2019-09-06T11:32:43Z</time>
      </trkpt>
      <trkpt lat="42.5441001076" lon="0.9546744637">
        <ele>2430.35</ele>
        <time>2019-09-06T11:32:54Z</time>
      </trkpt>
      <trkpt lat="42.5441067293" lon="0.9546690155">
        <ele>2430.35</ele>
        <time>2019-09-06T11:32:55Z</time>
      </trkpt>
      <trkpt lat="42.5441244151" lon="0.9546503238">
        <ele>2429.39</ele>
        <time>2019-09-06T11:32:57Z</time>
      </trkpt>
      <trkpt lat="42.5442040432" lon="0.9545609728">
        <ele>2428.43</ele>
        <time>2019-09-06T11:33:08Z</time>
      </trkpt>
      <trkpt lat="42.5442248303" lon="0.9545431193">
        <ele>2427.95</ele>
        <time>2019-09-06T11:33:17Z</time>
      </trkpt>
      <trkpt lat="42.5442457851" lon="0.9545335639">
        <ele>2426.99</ele>
        <time>2019-09-06T11:33:27Z</time>
      </trkpt>
      <trkpt lat="42.5442596991" lon="0.9545282833">
        <ele>2426.99</ele>
        <time>2019-09-06T11:33:29Z</time>
      </trkpt>
      <trkpt lat="42.5443309452" lon="0.9544406086">
        <ele>2424.58</ele>
        <time>2019-09-06T11:33:40Z</time>
      </trkpt>
      <trkpt lat="42.5443686638" lon="0.9543629922">
        <ele>2423.62</ele>
        <time>2019-09-06T11:33:52Z</time>
      </trkpt>
      <trkpt lat="42.5444067176" lon="0.9542772453">
        <ele>2423.14</ele>
        <time>2019-09-06T11:34:02Z</time>
      </trkpt>
      <trkpt lat="42.5444452744" lon="0.9542285465">
        <ele>2422.18</ele>
        <time>2019-09-06T11:34:13Z</time>
      </trkpt>
      <trkpt lat="42.5444735214" lon="0.9541637544">
        <ele>2422.18</ele>
        <time>2019-09-06T11:34:24Z</time>
      </trkpt>
      <trkpt lat="42.5445115753" lon="0.9541138820">
        <ele>2422.18</ele>
        <time>2019-09-06T11:34:35Z</time>
      </trkpt>
      <trkpt lat="42.5445604417" lon="0.9540499281">
        <ele>2421.70</ele>
        <time>2019-09-06T11:34:45Z</time>
      </trkpt>
      <trkpt lat="42.5445854198" lon="0.9539764188">
        <ele>2421.70</ele>
        <time>2019-09-06T11:34:56Z</time>
      </trkpt>
      <trkpt lat="42.5446298439" lon="0.9539387003">
        <ele>2421.22</ele>
        <time>2019-09-06T11:35:06Z</time>
      </trkpt>
      <trkpt lat="42.5446590129" lon="0.9539148118">
        <ele>2420.26</ele>
        <time>2019-09-06T11:35:18Z</time>
      </trkpt>
      <trkpt lat="42.5446880143" lon="0.9539008979">
        <ele>2419.78</ele>
        <time>2019-09-06T11:35:28Z</time>
      </trkpt>
      <trkpt lat="42.5447513815" lon="0.9538510256">
        <ele>2419.30</ele>
        <time>2019-09-06T11:35:38Z</time>
      </trkpt>
      <trkpt lat="42.5447916146" lon="0.9537877422">
        <ele>2418.81</ele>
        <time>2019-09-06T11:35:48Z</time>
      </trkpt>
      <trkpt lat="42.5448668841" lon="0.9537411388">
        <ele>2418.33</ele>
        <time>2019-09-06T11:36:00Z</time>
      </trkpt>
      <trkpt lat="42.5449069496" lon="0.9536716528">
        <ele>2417.85</ele>
        <time>2019-09-06T11:36:11Z</time>
      </trkpt>
      <trkpt lat="42.5449354481" lon="0.9535884205">
        <ele>2418.33</ele>
        <time>2019-09-06T11:36:22Z</time>
      </trkpt>
      <trkpt lat="42.5449609291" lon="0.9535517916">
        <ele>2418.33</ele>
        <time>2019-09-06T11:36:33Z</time>
      </trkpt>
      <trkpt lat="42.5449824706" lon="0.9535419010">
        <ele>2417.85</ele>
        <time>2019-09-06T11:36:46Z</time>
      </trkpt>
      <trkpt lat="42.5449972227" lon="0.9535244666">
        <ele>2417.37</ele>
        <time>2019-09-06T11:37:08Z</time>
      </trkpt>
      <trkpt lat="42.5450276490" lon="0.9535067808">
        <ele>2417.37</ele>
        <time>2019-09-06T11:37:13Z</time>
      </trkpt>
      <trkpt lat="42.5450342707" lon="0.9535204433">
        <ele>2416.89</ele>
        <time>2019-09-06T11:37:16Z</time>
      </trkpt>
      <trkpt lat="42.5450406410" lon="0.9535193536">
        <ele>2416.41</ele>
        <time>2019-09-06T11:37:18Z</time>
      </trkpt>
      <trkpt lat="42.5450726599" lon="0.9535001591">
        <ele>2416.41</ele>
        <time>2019-09-06T11:37:23Z</time>
      </trkpt>
      <trkpt lat="42.5451205205" lon="0.9534626920">
        <ele>2415.93</ele>
        <time>2019-09-06T11:37:34Z</time>
      </trkpt>
      <trkpt lat="42.5451861508" lon="0.9533932898">
        <ele>2414.97</ele>
        <time>2019-09-06T11:37:45Z</time>
      </trkpt>
      <trkpt lat="42.5452487636" lon="0.9533825610">
        <ele>2414.01</ele>
        <time>2019-09-06T11:37:52Z</time>
      </trkpt>
      <trkpt lat="42.5453356840" lon="0.9532542340">
        <ele>2412.09</ele>
        <time>2019-09-06T11:38:04Z</time>
      </trkpt>
      <trkpt lat="42.5453693792" lon="0.9531443473">
        <ele>2411.12</ele>
        <time>2019-09-06T11:38:15Z</time>
      </trkpt>
      <trkpt lat="42.5453760847" lon="0.9531263262">
        <ele>2411.12</ele>
        <time>2019-09-06T11:38:19Z</time>
      </trkpt>
      <trkpt lat="42.5454243645" lon="0.9530337062">
        <ele>2410.16</ele>
        <time>2019-09-06T11:38:31Z</time>
      </trkpt>
      <trkpt lat="42.5454369374" lon="0.9529721830">
        <ele>2409.20</ele>
        <time>2019-09-06T11:38:41Z</time>
      </trkpt>
      <trkpt lat="42.5454572216" lon="0.9529742785">
        <ele>2408.72</ele>
        <time>2019-09-06T11:38:44Z</time>
      </trkpt>
      <trkpt lat="42.5455055013" lon="0.9529224783">
        <ele>2407.28</ele>
        <time>2019-09-06T11:38:55Z</time>
      </trkpt>
      <trkpt lat="42.5455449801" lon="0.9528563451">
        <ele>2407.76</ele>
        <time>2019-09-06T11:39:05Z</time>
      </trkpt>
      <trkpt lat="42.5455947686" lon="0.9527280182">
        <ele>2406.80</ele>
        <time>2019-09-06T11:39:18Z</time>
      </trkpt>
      <trkpt lat="42.5456489995" lon="0.9526331350">
        <ele>2405.84</ele>
        <time>2019-09-06T11:39:29Z</time>
      </trkpt>
      <trkpt lat="42.5456842873" lon="0.9525932372">
        <ele>2404.88</ele>
        <time>2019-09-06T11:39:35Z</time>
      </trkpt>
      <trkpt lat="42.5457049906" lon="0.9525493998">
        <ele>2404.39</ele>
        <time>2019-09-06T11:39:39Z</time>
      </trkpt>
      <trkpt lat="42.5457419548" lon="0.9524517506">
        <ele>2403.43</ele>
        <time>2019-09-06T11:39:51Z</time>
      </trkpt>
      <trkpt lat="42.5457846187" lon="0.9523793310">
        <ele>2401.99</ele>
        <time>2019-09-06T11:40:00Z</time>
      </trkpt>
      <trkpt lat="42.5458245166" lon="0.9523673449">
        <ele>2401.51</ele>
        <time>2019-09-06T11:40:06Z</time>
      </trkpt>
      <trkpt lat="42.5458567869" lon="0.9523271956">
        <ele>2401.03</ele>
        <time>2019-09-06T11:40:10Z</time>
      </trkpt>
      <trkpt lat="42.5458760653" lon="0.9522921592">
        <ele>2400.55</ele>
        <time>2019-09-06T11:40:13Z</time>
      </trkpt>
      <trkpt lat="42.5459201541" lon="0.9522505011">
        <ele>2399.59</ele>
        <time>2019-09-06T11:40:18Z</time>
      </trkpt>
      <trkpt lat="42.5460501574" lon="0.9520830307">
        <ele>2397.18</ele>
        <time>2019-09-06T11:40:35Z</time>
      </trkpt>
      <trkpt lat="42.5461639836" lon="0.9518982936">
        <ele>2394.78</ele>
        <time>2019-09-06T11:40:50Z</time>
      </trkpt>
      <trkpt lat="42.5462149456" lon="0.9518134687">
        <ele>2393.82</ele>
        <time>2019-09-06T11:40:58Z</time>
      </trkpt>
      <trkpt lat="42.5462442823" lon="0.9517734870">
        <ele>2393.82</ele>
        <time>2019-09-06T11:41:02Z</time>
      </trkpt>
      <trkpt lat="42.5462735351" lon="0.9517354332">
        <ele>2392.86</ele>
        <time>2019-09-06T11:41:06Z</time>
      </trkpt>
      <trkpt lat="42.5463177077" lon="0.9516894165">
        <ele>2392.38</ele>
        <time>2019-09-06T11:41:11Z</time>
      </trkpt>
      <trkpt lat="42.5464432687" lon="0.9515681304">
        <ele>2391.42</ele>
        <time>2019-09-06T11:41:23Z</time>
      </trkpt>
      <trkpt lat="42.5464734435" lon="0.9515474271">
        <ele>2391.42</ele>
        <time>2019-09-06T11:41:29Z</time>
      </trkpt>
      <trkpt lat="42.5465078931" lon="0.9514922742">
        <ele>2390.46</ele>
        <time>2019-09-06T11:41:36Z</time>
      </trkpt>
      <trkpt lat="42.5465545803" lon="0.9514487721">
        <ele>2389.97</ele>
        <time>2019-09-06T11:41:43Z</time>
      </trkpt>
      <trkpt lat="42.5465732720" lon="0.9514353611">
        <ele>2389.97</ele>
        <time>2019-09-06T11:41:45Z</time>
      </trkpt>
      <trkpt lat="42.5465969928" lon="0.9513597563">
        <ele>2389.97</ele>
        <time>2019-09-06T11:41:52Z</time>
      </trkpt>
      <trkpt lat="42.5466574263" lon="0.9512061998">
        <ele>2388.53</ele>
        <time>2019-09-06T11:42:04Z</time>
      </trkpt>
      <trkpt lat="42.5467704982" lon="0.9510881826">
        <ele>2386.61</ele>
        <time>2019-09-06T11:42:17Z</time>
      </trkpt>
      <trkpt lat="42.5467838254" lon="0.9510716703">
        <ele>2386.13</ele>
        <time>2019-09-06T11:42:19Z</time>
      </trkpt>
      <trkpt lat="42.5468389783" lon="0.9509840794">
        <ele>2384.69</ele>
        <time>2019-09-06T11:42:29Z</time>
      </trkpt>
      <trkpt lat="42.5468930416" lon="0.9508212190">
        <ele>2382.28</ele>
        <time>2019-09-06T11:42:41Z</time>
      </trkpt>
      <trkpt lat="42.5470352825" lon="0.9507115837">
        <ele>2378.92</ele>
        <time>2019-09-06T11:42:55Z</time>
      </trkpt>
      <trkpt lat="42.5471117254" lon="0.9506760444">
        <ele>2377.00</ele>
        <time>2019-09-06T11:43:05Z</time>
      </trkpt>
      <trkpt lat="42.5471665431" lon="0.9506695066">
        <ele>2376.04</ele>
        <time>2019-09-06T11:43:12Z</time>
      </trkpt>
      <trkpt lat="42.5471921917" lon="0.9506622143">
        <ele>2375.55</ele>
        <time>2019-09-06T11:43:16Z</time>
      </trkpt>
      <trkpt lat="42.5472069439" lon="0.9506472945">
        <ele>2375.55</ele>
        <time>2019-09-06T11:43:18Z</time>
      </trkpt>
      <trkpt lat="42.5473128073" lon="0.9505971707">
        <ele>2373.63</ele>
        <time>2019-09-06T11:43:30Z</time>
      </trkpt>
      <trkpt lat="42.5473561417" lon="0.9505503159">
        <ele>2372.19</ele>
        <time>2019-09-06T11:43:40Z</time>
      </trkpt>
      <trkpt lat="42.5473802816" lon="0.9505211469">
        <ele>2371.71</ele>
        <time>2019-09-06T11:43:43Z</time>
      </trkpt>
      <trkpt lat="42.5474348478" lon="0.9504621383">
        <ele>2370.27</ele>
        <time>2019-09-06T11:43:50Z</time>
      </trkpt>
      <trkpt lat="42.5474604964" lon="0.9504201449">
        <ele>2369.79</ele>
        <time>2019-09-06T11:43:54Z</time>
      </trkpt>
      <trkpt lat="42.5475261267" lon="0.9503527544">
        <ele>2367.86</ele>
        <time>2019-09-06T11:44:05Z</time>
      </trkpt>
      <trkpt lat="42.5476081017" lon="0.9502910636">
        <ele>2365.46</ele>
        <time>2019-09-06T11:44:18Z</time>
      </trkpt>
      <trkpt lat="42.5476504304" lon="0.9502787422">
        <ele>2364.02</ele>
        <time>2019-09-06T11:44:28Z</time>
      </trkpt>
      <trkpt lat="42.5476896577" lon="0.9502411075">
        <ele>2362.58</ele>
        <time>2019-09-06T11:44:38Z</time>
      </trkpt>
      <trkpt lat="42.5477130432" lon="0.9502162971">
        <ele>2362.10</ele>
        <time>2019-09-06T11:44:48Z</time>
      </trkpt>
      <trkpt lat="42.5477106124" lon="0.9502152074">
        <ele>2361.62</ele>
        <time>2019-09-06T11:45:08Z</time>
      </trkpt>
      <trkpt lat="42.5477406196" lon="0.9501439612">
        <ele>2361.14</ele>
        <time>2019-09-06T11:45:18Z</time>
      </trkpt>
      <trkpt lat="42.5477902405" lon="0.9500798397">
        <ele>2359.21</ele>
        <time>2019-09-06T11:45:28Z</time>
      </trkpt>
      <trkpt lat="42.5478262827" lon="0.9500132035">
        <ele>2357.77</ele>
        <time>2019-09-06T11:45:38Z</time>
      </trkpt>
      <trkpt lat="42.5478665158" lon="0.9500106052">
        <ele>2357.29</ele>
        <time>2019-09-06T11:45:44Z</time>
      </trkpt>
      <trkpt lat="42.5479139574" lon="0.9499793407">
        <ele>2355.85</ele>
        <time>2019-09-06T11:45:55Z</time>
      </trkpt>
      <trkpt lat="42.5479154661" lon="0.9499769937">
        <ele>2355.37</ele>
        <time>2019-09-06T11:46:10Z</time>
      </trkpt>
      <trkpt lat="42.5479538552" lon="0.9498742316">
        <ele>2354.89</ele>
        <time>2019-09-06T11:46:18Z</time>
      </trkpt>
      <trkpt lat="42.5480677653" lon="0.9497311525">
        <ele>2354.41</ele>
        <time>2019-09-06T11:46:32Z</time>
      </trkpt>
      <trkpt lat="42.5480712019" lon="0.9497407079">
        <ele>2353.93</ele>
        <time>2019-09-06T11:46:42Z</time>
      </trkpt>
      <trkpt lat="42.5480763149" lon="0.9497332480">
        <ele>2352.96</ele>
        <time>2019-09-06T11:47:34Z</time>
      </trkpt>
      <trkpt lat="42.5480763987" lon="0.9497390315">
        <ele>2357.77</ele>
        <time>2019-09-06T11:47:55Z</time>
      </trkpt>
      <trkpt lat="42.5480768178" lon="0.9497395344">
        <ele>2355.37</ele>
        <time>2019-09-06T11:47:56Z</time>
      </trkpt>
      <trkpt lat="42.5480775721" lon="0.9497412946">
        <ele>2353.44</ele>
        <time>2019-09-06T11:47:59Z</time>
      </trkpt>
      <trkpt lat="42.5480743032" lon="0.9497448988">
        <ele>2353.44</ele>
        <time>2019-09-06T11:49:46Z</time>
      </trkpt>
      <trkpt lat="42.5480714533" lon="0.9497477487">
        <ele>2353.44</ele>
        <time>2019-09-06T11:51:02Z</time>
      </trkpt>
      <trkpt lat="42.5480787456" lon="0.9497489221">
        <ele>2353.44</ele>
        <time>2019-09-06T11:51:48Z</time>
      </trkpt>
      <trkpt lat="42.5480764825" lon="0.9497487545">
        <ele>2353.44</ele>
        <time>2019-09-06T11:52:27Z</time>
      </trkpt>
      <trkpt lat="42.5480764825" lon="0.9497521911">
        <ele>2353.44</ele>
        <time>2019-09-06T11:52:55Z</time>
      </trkpt>
      <trkpt lat="42.5480739679" lon="0.9497511853">
        <ele>2353.44</ele>
        <time>2019-09-06T11:53:10Z</time>
      </trkpt>
      <trkpt lat="42.5480721239" lon="0.9497495927">
        <ele>2353.44</ele>
        <time>2019-09-06T11:53:27Z</time>
      </trkpt>
      <trkpt lat="42.5480691064" lon="0.9497596510">
        <ele>2353.44</ele>
        <time>2019-09-06T11:53:45Z</time>
      </trkpt>
      <trkpt lat="42.5480812602" lon="0.9497492574">
        <ele>2353.44</ele>
        <time>2019-09-06T11:54:03Z</time>
      </trkpt>
      <trkpt lat="42.5481165480" lon="0.9497208428">
        <ele>2353.44</ele>
        <time>2019-09-06T11:54:21Z</time>
      </trkpt>
      <trkpt lat="42.5481748860" lon="0.9496611636">
        <ele>2353.44</ele>
        <time>2019-09-06T11:54:27Z</time>
      </trkpt>
      <trkpt lat="42.5483206473" lon="0.9495146479">
        <ele>2351.52</ele>
        <time>2019-09-06T11:54:41Z</time>
      </trkpt>
      <trkpt lat="42.5484664086" lon="0.9493488539">
        <ele>2350.56</ele>
        <time>2019-09-06T11:54:56Z</time>
      </trkpt>
      <trkpt lat="42.5484959129" lon="0.9493125603">
        <ele>2350.56</ele>
        <time>2019-09-06T11:54:59Z</time>
      </trkpt>
      <trkpt lat="42.5485669915" lon="0.9492902644">
        <ele>2350.56</ele>
        <time>2019-09-06T11:55:05Z</time>
      </trkpt>
      <trkpt lat="42.5486907922" lon="0.9492593352">
        <ele>2350.56</ele>
        <time>2019-09-06T11:55:18Z</time>
      </trkpt>
      <trkpt lat="42.5487153511" lon="0.9492171742">
        <ele>2350.08</ele>
        <time>2019-09-06T11:55:29Z</time>
      </trkpt>
      <trkpt lat="42.5488010142" lon="0.9492388833">
        <ele>2350.56</ele>
        <time>2019-09-06T11:55:47Z</time>
      </trkpt>
      <trkpt lat="42.5488834921" lon="0.9492285736">
        <ele>2350.56</ele>
        <time>2019-09-06T11:55:58Z</time>
      </trkpt>
      <trkpt lat="42.5489145890" lon="0.9492108040">
        <ele>2350.56</ele>
        <time>2019-09-06T11:56:03Z</time>
      </trkpt>
      <trkpt lat="42.5489648804" lon="0.9491599258">
        <ele>2350.08</ele>
        <time>2019-09-06T11:56:08Z</time>
      </trkpt>
      <trkpt lat="42.5491106417" lon="0.9490385558">
        <ele>2349.12</ele>
        <time>2019-09-06T11:56:21Z</time>
      </trkpt>
      <trkpt lat="42.5491969753" lon="0.9489909466">
        <ele>2348.16</ele>
        <time>2019-09-06T11:56:29Z</time>
      </trkpt>
      <trkpt lat="42.5492529664" lon="0.9489518870">
        <ele>2347.20</ele>
        <time>2019-09-06T11:56:35Z</time>
      </trkpt>
      <trkpt lat="42.5492948759" lon="0.9489771165">
        <ele>2347.20</ele>
        <time>2019-09-06T11:56:39Z</time>
      </trkpt>
      <trkpt lat="42.5493708998" lon="0.9490012564">
        <ele>2347.20</ele>
        <time>2019-09-06T11:56:53Z</time>
      </trkpt>
      <trkpt lat="42.5493828859" lon="0.9489872586">
        <ele>2347.20</ele>
        <time>2019-09-06T11:56:57Z</time>
      </trkpt>
      <trkpt lat="42.5494175870" lon="0.9488999192">
        <ele>2348.16</ele>
        <time>2019-09-06T11:57:08Z</time>
      </trkpt>
      <trkpt lat="42.5494367816" lon="0.9488146752">
        <ele>2347.68</ele>
        <time>2019-09-06T11:57:22Z</time>
      </trkpt>
      <trkpt lat="42.5494840555" lon="0.9488488734">
        <ele>2349.12</ele>
        <time>2019-09-06T11:57:32Z</time>
      </trkpt>
      <trkpt lat="42.5495137274" lon="0.9489173535">
        <ele>2351.52</ele>
        <time>2019-09-06T11:57:42Z</time>
      </trkpt>
      <trkpt lat="42.5495465845" lon="0.9489798825">
        <ele>2353.93</ele>
        <time>2019-09-06T11:57:54Z</time>
      </trkpt>
      <trkpt lat="42.5495678745" lon="0.9490220435">
        <ele>2355.85</ele>
        <time>2019-09-06T11:58:03Z</time>
      </trkpt>
      <trkpt lat="42.5496014860" lon="0.9490649588">
        <ele>2357.77</ele>
        <time>2019-09-06T11:58:15Z</time>
      </trkpt>
      <trkpt lat="42.5496204291" lon="0.9491311759">
        <ele>2359.69</ele>
        <time>2019-09-06T11:58:26Z</time>
      </trkpt>
      <trkpt lat="42.5496660266" lon="0.9491684753">
        <ele>2361.62</ele>
        <time>2019-09-06T11:58:38Z</time>
      </trkpt>
      <trkpt lat="42.5497050863" lon="0.9491758514">
        <ele>2363.54</ele>
        <time>2019-09-06T11:58:49Z</time>
      </trkpt>
      <trkpt lat="42.5497371890" lon="0.9492013324">
        <ele>2364.98</ele>
        <time>2019-09-06T11:58:58Z</time>
      </trkpt>
      <trkpt lat="42.5498021487" lon="0.9492713213">
        <ele>2364.98</ele>
        <time>2019-09-06T11:59:07Z</time>
      </trkpt>
      <trkpt lat="42.5498692878" lon="0.9492338542">
        <ele>2363.06</ele>
        <time>2019-09-06T11:59:18Z</time>
      </trkpt>
      <trkpt lat="42.5498690363" lon="0.9492175933">
        <ele>2363.06</ele>
        <time>2019-09-06T11:59:31Z</time>
      </trkpt>
      <trkpt lat="42.5498837046" lon="0.9491869155">
        <ele>2362.58</ele>
        <time>2019-09-06T11:59:41Z</time>
      </trkpt>
      <trkpt lat="42.5499096047" lon="0.9491916094">
        <ele>2362.10</ele>
        <time>2019-09-06T11:59:53Z</time>
      </trkpt>
      <trkpt lat="42.5499650091" lon="0.9491661284">
        <ele>2362.10</ele>
        <time>2019-09-06T12:00:04Z</time>
      </trkpt>
      <trkpt lat="42.5500181504" lon="0.9491569921">
        <ele>2361.14</ele>
        <time>2019-09-06T12:00:14Z</time>
      </trkpt>
      <trkpt lat="42.5500648376" lon="0.9491460118">
        <ele>2361.62</ele>
        <time>2019-09-06T12:00:22Z</time>
      </trkpt>
      <trkpt lat="42.5501060765" lon="0.9490688983">
        <ele>2361.62</ele>
        <time>2019-09-06T12:00:32Z</time>
      </trkpt>
      <trkpt lat="42.5501189008" lon="0.9490306769">
        <ele>2361.62</ele>
        <time>2019-09-06T12:00:41Z</time>
      </trkpt>
      <trkpt lat="42.5501420349" lon="0.9490069561">
        <ele>2362.10</ele>
        <time>2019-09-06T12:00:50Z</time>
      </trkpt>
      <trkpt lat="42.5501782447" lon="0.9489797149">
        <ele>2362.58</ele>
        <time>2019-09-06T12:01:01Z</time>
      </trkpt>
      <trkpt lat="42.5502266083" lon="0.9489414934">
        <ele>2362.10</ele>
        <time>2019-09-06T12:01:11Z</time>
      </trkpt>
      <trkpt lat="42.5502561126" lon="0.9489125758">
        <ele>2362.10</ele>
        <time>2019-09-06T12:01:22Z</time>
      </trkpt>
      <trkpt lat="42.5503062364" lon="0.9488747735">
        <ele>2362.10</ele>
        <time>2019-09-06T12:01:30Z</time>
      </trkpt>
      <trkpt lat="42.5503597967" lon="0.9488381445">
        <ele>2362.10</ele>
        <time>2019-09-06T12:01:41Z</time>
      </trkpt>
      <trkpt lat="42.5504054781" lon="0.9487822372">
        <ele>2360.17</ele>
        <time>2019-09-06T12:01:50Z</time>
      </trkpt>
      <trkpt lat="42.5504621398" lon="0.9487540741">
        <ele>2360.17</ele>
        <time>2019-09-06T12:02:00Z</time>
      </trkpt>
      <trkpt lat="42.5505177118" lon="0.9487286769">
        <ele>2361.62</ele>
        <time>2019-09-06T12:02:10Z</time>
      </trkpt>
      <trkpt lat="42.5505514070" lon="0.9486795589">
        <ele>2362.58</ele>
        <time>2019-09-06T12:02:20Z</time>
      </trkpt>
      <trkpt lat="42.5505866110" lon="0.9486439358">
        <ele>2361.62</ele>
        <time>2019-09-06T12:02:30Z</time>
      </trkpt>
      <trkpt lat="42.5506199710" lon="0.9486206342">
        <ele>2361.14</ele>
        <time>2019-09-06T12:02:40Z</time>
      </trkpt>
      <trkpt lat="42.5506693404" lon="0.9485819936">
        <ele>2360.65</ele>
        <time>2019-09-06T12:02:51Z</time>
      </trkpt>
      <trkpt lat="42.5507040415" lon="0.9485642239">
        <ele>2360.65</ele>
        <time>2019-09-06T12:03:02Z</time>
      </trkpt>
      <trkpt lat="42.5507286843" lon="0.9485564288">
        <ele>2360.65</ele>
        <time>2019-09-06T12:03:12Z</time>
      </trkpt>
      <trkpt lat="42.5507260859" lon="0.9485511482">
        <ele>2360.65</ele>
        <time>2019-09-06T12:03:23Z</time>
      </trkpt>
      <trkpt lat="42.5507478788" lon="0.9485424310">
        <ele>2360.65</ele>
        <time>2019-09-06T12:03:39Z</time>
      </trkpt>
      <trkpt lat="42.5507471245" lon="0.9485315345">
        <ele>2357.77</ele>
        <time>2019-09-06T12:03:46Z</time>
      </trkpt>
      <trkpt lat="42.5507514831" lon="0.9484979231">
        <ele>2357.77</ele>
        <time>2019-09-06T12:04:12Z</time>
      </trkpt>
      <trkpt lat="42.5507471245" lon="0.9484516550">
        <ele>2356.81</ele>
        <time>2019-09-06T12:04:22Z</time>
      </trkpt>
      <trkpt lat="42.5507722702" lon="0.9484144393">
        <ele>2355.85</ele>
        <time>2019-09-06T12:04:32Z</time>
      </trkpt>
      <trkpt lat="42.5507943984" lon="0.9483802412">
        <ele>2355.85</ele>
        <time>2019-09-06T12:04:40Z</time>
      </trkpt>
      <trkpt lat="42.5508393254" lon="0.9483430255">
        <ele>2356.33</ele>
        <time>2019-09-06T12:04:49Z</time>
      </trkpt>
      <trkpt lat="42.5508691650" lon="0.9483051393">
        <ele>2356.81</ele>
        <time>2019-09-06T12:05:00Z</time>
      </trkpt>
      <trkpt lat="42.5509037822" lon="0.9482973441">
        <ele>2357.29</ele>
        <time>2019-09-06T12:05:08Z</time>
      </trkpt>
      <trkpt lat="42.5509684905" lon="0.9482529201">
        <ele>2357.29</ele>
        <time>2019-09-06T12:05:18Z</time>
      </trkpt>
      <trkpt lat="42.5510033593" lon="0.9482167102">
        <ele>2357.77</ele>
        <time>2019-09-06T12:05:30Z</time>
      </trkpt>
      <trkpt lat="42.5510239787" lon="0.9481701069">
        <ele>2357.77</ele>
        <time>2019-09-06T12:05:42Z</time>
      </trkpt>
      <trkpt lat="42.5510442629" lon="0.9481276106">
        <ele>2357.77</ele>
        <time>2019-09-06T12:05:53Z</time>
      </trkpt>
      <trkpt lat="42.5510548241" lon="0.9480779897">
        <ele>2356.33</ele>
        <time>2019-09-06T12:06:05Z</time>
      </trkpt>
      <trkpt lat="42.5510772876" lon="0.9480297100">
        <ele>2355.37</ele>
        <time>2019-09-06T12:06:17Z</time>
      </trkpt>
      <trkpt lat="42.5511077140" lon="0.9479642473">
        <ele>2354.41</ele>
        <time>2019-09-06T12:06:27Z</time>
      </trkpt>
      <trkpt lat="42.5511470251" lon="0.9479225054">
        <ele>2353.44</ele>
        <time>2019-09-06T12:06:37Z</time>
      </trkpt>
      <trkpt lat="42.5511740986" lon="0.9478800092">
        <ele>2352.96</ele>
        <time>2019-09-06T12:06:47Z</time>
      </trkpt>
      <trkpt lat="42.5511910301" lon="0.9478353336">
        <ele>2352.00</ele>
        <time>2019-09-06T12:06:57Z</time>
      </trkpt>
      <trkpt lat="42.5511937123" lon="0.9477771632">
        <ele>2351.52</ele>
        <time>2019-09-06T12:07:08Z</time>
      </trkpt>
      <trkpt lat="42.5512001663" lon="0.9477579687">
        <ele>2350.56</ele>
        <time>2019-09-06T12:07:17Z</time>
      </trkpt>
      <trkpt lat="42.5512044411" lon="0.9477772471">
        <ele>2350.56</ele>
        <time>2019-09-06T12:07:34Z</time>
      </trkpt>
      <trkpt lat="42.5512007531" lon="0.9477785043">
        <ele>2350.56</ele>
        <time>2019-09-06T12:07:45Z</time>
      </trkpt>
      <trkpt lat="42.5512379687" lon="0.9476828668">
        <ele>2350.08</ele>
        <time>2019-09-06T12:07:57Z</time>
      </trkpt>
      <trkpt lat="42.5512967259" lon="0.9476451483">
        <ele>2350.08</ele>
        <time>2019-09-06T12:08:05Z</time>
      </trkpt>
      <trkpt lat="42.5513500348" lon="0.9475948568">
        <ele>2350.56</ele>
        <time>2019-09-06T12:08:16Z</time>
      </trkpt>
      <trkpt lat="42.5513868313" lon="0.9475654364">
        <ele>2349.60</ele>
        <time>2019-09-06T12:08:26Z</time>
      </trkpt>
      <trkpt lat="42.5514065288" lon="0.9475316573">
        <ele>2348.64</ele>
        <time>2019-09-06T12:08:33Z</time>
      </trkpt>
      <trkpt lat="42.5514241308" lon="0.9475080203">
        <ele>2348.64</ele>
        <time>2019-09-06T12:08:35Z</time>
      </trkpt>
      <trkpt lat="42.5514927786" lon="0.9474495146">
        <ele>2348.64</ele>
        <time>2019-09-06T12:08:46Z</time>
      </trkpt>
      <trkpt lat="42.5515661202" lon="0.9473884944">
        <ele>2347.68</ele>
        <time>2019-09-06T12:08:59Z</time>
      </trkpt>
      <trkpt lat="42.5516256317" lon="0.9473306593">
        <ele>2348.16</ele>
        <time>2019-09-06T12:09:09Z</time>
      </trkpt>
      <trkpt lat="42.5516366120" lon="0.9473194275">
        <ele>2348.16</ele>
        <time>2019-09-06T12:09:11Z</time>
      </trkpt>
      <trkpt lat="42.5517221913" lon="0.9471880831">
        <ele>2348.16</ele>
        <time>2019-09-06T12:09:23Z</time>
      </trkpt>
      <trkpt lat="42.5517899171" lon="0.9470439982">
        <ele>2348.64</ele>
        <time>2019-09-06T12:09:36Z</time>
      </trkpt>
      <trkpt lat="42.5518772565" lon="0.9468904417">
        <ele>2349.12</ele>
        <time>2019-09-06T12:09:48Z</time>
      </trkpt>
      <trkpt lat="42.5519330800" lon="0.9468178544">
        <ele>2349.60</ele>
        <time>2019-09-06T12:09:56Z</time>
      </trkpt>
      <trkpt lat="42.5519721396" lon="0.9467945527">
        <ele>2349.60</ele>
        <time>2019-09-06T12:10:00Z</time>
      </trkpt>
      <trkpt lat="42.5520683639" lon="0.9467098117">
        <ele>2350.08</ele>
        <time>2019-09-06T12:10:09Z</time>
      </trkpt>
      <trkpt lat="42.5520945992" lon="0.9466751106">
        <ele>2349.60</ele>
        <time>2019-09-06T12:10:12Z</time>
      </trkpt>
      <trkpt lat="42.5522634946" lon="0.9465992544">
        <ele>2349.60</ele>
        <time>2019-09-06T12:10:26Z</time>
      </trkpt>
      <trkpt lat="42.5524152070" lon="0.9464796446">
        <ele>2348.64</ele>
        <time>2019-09-06T12:10:39Z</time>
      </trkpt>
      <trkpt lat="42.5525353197" lon="0.9463763796">
        <ele>2348.64</ele>
        <time>2019-09-06T12:10:51Z</time>
      </trkpt>
      <trkpt lat="42.5525810011" lon="0.9463257529">
        <ele>2349.12</ele>
        <time>2019-09-06T12:10:57Z</time>
      </trkpt>
      <trkpt lat="42.5526035484" lon="0.9462736174">
        <ele>2349.12</ele>
        <time>2019-09-06T12:11:01Z</time>
      </trkpt>
      <trkpt lat="42.5526479725" lon="0.9462065622">
        <ele>2349.12</ele>
        <time>2019-09-06T12:11:07Z</time>
      </trkpt>
      <trkpt lat="42.5527836755" lon="0.9460971784">
        <ele>2349.60</ele>
        <time>2019-09-06T12:11:20Z</time>
      </trkpt>
      <trkpt lat="42.5528933946" lon="0.9459738806">
        <ele>2349.60</ele>
        <time>2019-09-06T12:11:32Z</time>
      </trkpt>
      <trkpt lat="42.5529952347" lon="0.9458339866">
        <ele>2350.08</ele>
        <time>2019-09-06T12:11:44Z</time>
      </trkpt>
      <trkpt lat="42.5530378986" lon="0.9457633272">
        <ele>2349.60</ele>
        <time>2019-09-06T12:11:50Z</time>
      </trkpt>
      <trkpt lat="42.5531600229" lon="0.9456490818">
        <ele>2349.60</ele>
        <time>2019-09-06T12:12:03Z</time>
      </trkpt>
      <trkpt lat="42.5531793851" lon="0.9456391912">
        <ele>2349.12</ele>
        <time>2019-09-06T12:12:05Z</time>
      </trkpt>
      <trkpt lat="42.5533294212" lon="0.9455904923">
        <ele>2348.16</ele>
        <time>2019-09-06T12:12:18Z</time>
      </trkpt>
      <trkpt lat="42.5534867495" lon="0.9455537796">
        <ele>2347.20</ele>
        <time>2019-09-06T12:12:30Z</time>
      </trkpt>
      <trkpt lat="42.5535975583" lon="0.9454924241">
        <ele>2346.23</ele>
        <time>2019-09-06T12:12:40Z</time>
      </trkpt>
      <trkpt lat="42.5536857359" lon="0.9453406278">
        <ele>2344.79</ele>
        <time>2019-09-06T12:12:52Z</time>
      </trkpt>
      <trkpt lat="42.5537095405" lon="0.9452949464">
        <ele>2344.79</ele>
        <time>2019-09-06T12:13:03Z</time>
      </trkpt>
      <trkpt lat="42.5537335966" lon="0.9452400450">
        <ele>2344.79</ele>
        <time>2019-09-06T12:13:14Z</time>
      </trkpt>
      <trkpt lat="42.5537352730" lon="0.9452178329">
        <ele>2344.31</ele>
        <time>2019-09-06T12:13:28Z</time>
      </trkpt>
      <trkpt lat="42.5537264720" lon="0.9452236164">
        <ele>2343.83</ele>
        <time>2019-09-06T12:13:49Z</time>
      </trkpt>
      <trkpt lat="42.5536898430" lon="0.9452252928">
        <ele>2343.83</ele>
        <time>2019-09-06T12:14:06Z</time>
      </trkpt>
      <trkpt lat="42.5536807068" lon="0.9452174976">
        <ele>2343.83</ele>
        <time>2019-09-06T12:14:17Z</time>
      </trkpt>
      <trkpt lat="42.5536809582" lon="0.9452195931">
        <ele>2343.83</ele>
        <time>2019-09-06T12:14:34Z</time>
      </trkpt>
      <trkpt lat="42.5537309144" lon="0.9452444874">
        <ele>2343.83</ele>
        <time>2019-09-06T12:14:46Z</time>
      </trkpt>
      <trkpt lat="42.5537709799" lon="0.9451726545">
        <ele>2343.83</ele>
        <time>2019-09-06T12:14:57Z</time>
      </trkpt>
      <trkpt lat="42.5537908450" lon="0.9450855665">
        <ele>2343.83</ele>
        <time>2019-09-06T12:15:09Z</time>
      </trkpt>
      <trkpt lat="42.5537926890" lon="0.9450798668">
        <ele>2343.35</ele>
        <time>2019-09-06T12:15:31Z</time>
      </trkpt>
      <trkpt lat="42.5538181700" lon="0.9450487699">
        <ele>2342.87</ele>
        <time>2019-09-06T12:15:57Z</time>
      </trkpt>
      <trkpt lat="42.5538685452" lon="0.9449863248">
        <ele>2342.39</ele>
        <time>2019-09-06T12:16:07Z</time>
      </trkpt>
      <trkpt lat="42.5539442338" lon="0.9449000750">
        <ele>2341.91</ele>
        <time>2019-09-06T12:16:17Z</time>
      </trkpt>
      <trkpt lat="42.5539633445" lon="0.9448687267">
        <ele>2341.91</ele>
        <time>2019-09-06T12:16:20Z</time>
      </trkpt>
      <trkpt lat="42.5540565513" lon="0.9447283298">
        <ele>2341.43</ele>
        <time>2019-09-06T12:16:33Z</time>
      </trkpt>
      <trkpt lat="42.5541347545" lon="0.9446060378">
        <ele>2341.43</ele>
        <time>2019-09-06T12:16:44Z</time>
      </trkpt>
      <trkpt lat="42.5541494228" lon="0.9445217159">
        <ele>2341.91</ele>
        <time>2019-09-06T12:16:54Z</time>
      </trkpt>
      <trkpt lat="42.5542296376" lon="0.9444406629">
        <ele>2342.87</ele>
        <time>2019-09-06T12:17:07Z</time>
      </trkpt>
      <trkpt lat="42.5542795099" lon="0.9444320295">
        <ele>2342.87</ele>
        <time>2019-09-06T12:17:13Z</time>
      </trkpt>
      <trkpt lat="42.5543912407" lon="0.9444027767">
        <ele>2341.91</ele>
        <time>2019-09-06T12:17:27Z</time>
      </trkpt>
      <trkpt lat="42.5545097608" lon="0.9443591069">
        <ele>2340.47</ele>
        <time>2019-09-06T12:17:40Z</time>
      </trkpt>
      <trkpt lat="42.5545592979" lon="0.9443539940">
        <ele>2339.99</ele>
        <time>2019-09-06T12:17:47Z</time>
      </trkpt>
      <trkpt lat="42.5545825996" lon="0.9443472885">
        <ele>2339.99</ele>
        <time>2019-09-06T12:17:49Z</time>
      </trkpt>
      <trkpt lat="42.5546560250" lon="0.9443399124">
        <ele>2339.02</ele>
        <time>2019-09-06T12:17:56Z</time>
      </trkpt>
      <trkpt lat="42.5547145307" lon="0.9442856815">
        <ele>2339.02</ele>
        <time>2019-09-06T12:18:07Z</time>
      </trkpt>
      <trkpt lat="42.5547383353" lon="0.9442545846">
        <ele>2339.02</ele>
        <time>2019-09-06T12:18:11Z</time>
      </trkpt>
      <trkpt lat="42.5547977630" lon="0.9441643115">
        <ele>2338.54</ele>
        <time>2019-09-06T12:18:22Z</time>
      </trkpt>
      <trkpt lat="42.5548189692" lon="0.9441386629">
        <ele>2339.02</ele>
        <time>2019-09-06T12:18:35Z</time>
      </trkpt>
      <trkpt lat="42.5548313744" lon="0.9441291913">
        <ele>2339.02</ele>
        <time>2019-09-06T12:18:37Z</time>
      </trkpt>
      <trkpt lat="42.5548476353" lon="0.9441110864">
        <ele>2339.02</ele>
        <time>2019-09-06T12:18:39Z</time>
      </trkpt>
      <trkpt lat="42.5549118407" lon="0.9440303687">
        <ele>2339.02</ele>
        <time>2019-09-06T12:18:51Z</time>
      </trkpt>
      <trkpt lat="42.5549801532" lon="0.9439874534">
        <ele>2339.02</ele>
        <time>2019-09-06T12:19:02Z</time>
      </trkpt>
      <trkpt lat="42.5549919717" lon="0.9439832624">
        <ele>2339.99</ele>
        <time>2019-09-06T12:19:21Z</time>
      </trkpt>
      <trkpt lat="42.5550584402" lon="0.9439017065">
        <ele>2339.51</ele>
        <time>2019-09-06T12:19:33Z</time>
      </trkpt>
      <trkpt lat="42.5551616214" lon="0.9438465536">
        <ele>2339.99</ele>
        <time>2019-09-06T12:19:46Z</time>
      </trkpt>
      <trkpt lat="42.5552171096" lon="0.9437936638">
        <ele>2339.99</ele>
        <time>2019-09-06T12:19:56Z</time>
      </trkpt>
      <trkpt lat="42.5552558340" lon="0.9437598009">
        <ele>2339.99</ele>
        <time>2019-09-06T12:20:06Z</time>
      </trkpt>
      <trkpt lat="42.5552812312" lon="0.9437395167">
        <ele>2340.47</ele>
        <time>2019-09-06T12:20:13Z</time>
      </trkpt>
      <trkpt lat="42.5553682353" lon="0.9436624032">
        <ele>2339.51</ele>
        <time>2019-09-06T12:20:24Z</time>
      </trkpt>
      <trkpt lat="42.5554211251" lon="0.9436479863">
        <ele>2339.99</ele>
        <time>2019-09-06T12:20:34Z</time>
      </trkpt>
      <trkpt lat="42.5554464385" lon="0.9435953479">
        <ele>2341.43</ele>
        <time>2019-09-06T12:20:45Z</time>
      </trkpt>
      <trkpt lat="42.5555069558" lon="0.9434993751">
        <ele>2341.43</ele>
        <time>2019-09-06T12:20:56Z</time>
      </trkpt>
      <trkpt lat="42.5555211212" lon="0.9434785880">
        <ele>2341.43</ele>
        <time>2019-09-06T12:20:58Z</time>
      </trkpt>
      <trkpt lat="42.5556048565" lon="0.9433484171">
        <ele>2341.43</ele>
        <time>2019-09-06T12:21:11Z</time>
      </trkpt>
      <trkpt lat="42.5556312595" lon="0.9432968684">
        <ele>2341.91</ele>
        <time>2019-09-06T12:21:21Z</time>
      </trkpt>
      <trkpt lat="42.5556434970" lon="0.9432710521">
        <ele>2341.91</ele>
        <time>2019-09-06T12:21:23Z</time>
      </trkpt>
      <trkpt lat="42.5557170063" lon="0.9431208484">
        <ele>2342.39</ele>
        <time>2019-09-06T12:21:36Z</time>
      </trkpt>
      <trkpt lat="42.5557486899" lon="0.9430596605">
        <ele>2342.39</ele>
        <time>2019-09-06T12:21:42Z</time>
      </trkpt>
      <trkpt lat="42.5558082014" lon="0.9429465048">
        <ele>2341.91</ele>
        <time>2019-09-06T12:21:54Z</time>
      </trkpt>
      <trkpt lat="42.5558342692" lon="0.9428931121">
        <ele>2342.39</ele>
        <time>2019-09-06T12:21:59Z</time>
      </trkpt>
      <trkpt lat="42.5558955409" lon="0.9427615162">
        <ele>2342.87</ele>
        <time>2019-09-06T12:22:11Z</time>
      </trkpt>
      <trkpt lat="42.5559714809" lon="0.9426469356">
        <ele>2342.87</ele>
        <time>2019-09-06T12:22:24Z</time>
      </trkpt>
      <trkpt lat="42.5560475886" lon="0.9425132442">
        <ele>2343.35</ele>
        <time>2019-09-06T12:22:37Z</time>
      </trkpt>
      <trkpt lat="42.5560707226" lon="0.9424644616">
        <ele>2343.83</ele>
        <time>2019-09-06T12:22:43Z</time>
      </trkpt>
      <trkpt lat="42.5560999755" lon="0.9423636273">
        <ele>2344.79</ele>
        <time>2019-09-06T12:22:55Z</time>
      </trkpt>
      <trkpt lat="42.5561129674" lon="0.9423671477">
        <ele>2344.31</ele>
        <time>2019-09-06T12:23:11Z</time>
      </trkpt>
      <trkpt lat="42.5561208464" lon="0.9423600230">
        <ele>2344.31</ele>
        <time>2019-09-06T12:23:27Z</time>
      </trkpt>
      <trkpt lat="42.5561403763" lon="0.9423298482">
        <ele>2344.31</ele>
        <time>2019-09-06T12:23:31Z</time>
      </trkpt>
      <trkpt lat="42.5561659411" lon="0.9422652237">
        <ele>2344.79</ele>
        <time>2019-09-06T12:23:37Z</time>
      </trkpt>
      <trkpt lat="42.5562081020" lon="0.9420985915">
        <ele>2343.83</ele>
        <time>2019-09-06T12:23:50Z</time>
      </trkpt>
      <trkpt lat="42.5562452339" lon="0.9420040436">
        <ele>2342.39</ele>
        <time>2019-09-06T12:24:01Z</time>
      </trkpt>
      <trkpt lat="42.5563193299" lon="0.9418692626">
        <ele>2340.95</ele>
        <time>2019-09-06T12:24:13Z</time>
      </trkpt>
      <trkpt lat="42.5563354231" lon="0.9418292809">
        <ele>2339.99</ele>
        <time>2019-09-06T12:24:16Z</time>
      </trkpt>
      <trkpt lat="42.5563765783" lon="0.9416851960">
        <ele>2339.02</ele>
        <time>2019-09-06T12:24:28Z</time>
      </trkpt>
      <trkpt lat="42.5564324018" lon="0.9415545221">
        <ele>2337.58</ele>
        <time>2019-09-06T12:24:40Z</time>
      </trkpt>
      <trkpt lat="42.5564750656" lon="0.9414506704">
        <ele>2337.58</ele>
        <time>2019-09-06T12:24:51Z</time>
      </trkpt>
      <trkpt lat="42.5565003790" lon="0.9413754009">
        <ele>2336.62</ele>
        <time>2019-09-06T12:24:58Z</time>
      </trkpt>
      <trkpt lat="42.5565212499" lon="0.9413078427">
        <ele>2336.62</ele>
        <time>2019-09-06T12:25:04Z</time>
      </trkpt>
      <trkpt lat="42.5565777440" lon="0.9411074314">
        <ele>2335.66</ele>
        <time>2019-09-06T12:25:20Z</time>
      </trkpt>
      <trkpt lat="42.5565887243" lon="0.9410910867">
        <ele>2335.18</ele>
        <time>2019-09-06T12:25:31Z</time>
      </trkpt>
      <trkpt lat="42.5565948430" lon="0.9410783462">
        <ele>2335.18</ele>
        <time>2019-09-06T12:25:36Z</time>
      </trkpt>
      <trkpt lat="42.5566086732" lon="0.9410450701">
        <ele>2335.18</ele>
        <time>2019-09-06T12:25:39Z</time>
      </trkpt>
      <trkpt lat="42.5566496607" lon="0.9409480914">
        <ele>2334.22</ele>
        <time>2019-09-06T12:25:47Z</time>
      </trkpt>
      <trkpt lat="42.5566587131" lon="0.9409344289">
        <ele>2333.74</ele>
        <time>2019-09-06T12:25:48Z</time>
      </trkpt>
      <trkpt lat="42.5566678494" lon="0.9409200121">
        <ele>2333.74</ele>
        <time>2019-09-06T12:25:49Z</time>
      </trkpt>
      <trkpt lat="42.5566778239" lon="0.9409082774">
        <ele>2333.74</ele>
        <time>2019-09-06T12:25:50Z</time>
      </trkpt>
      <trkpt lat="42.5566867087" lon="0.9408988059">
        <ele>2333.26</ele>
        <time>2019-09-06T12:25:51Z</time>
      </trkpt>
      <trkpt lat="42.5566939171" lon="0.9408865683">
        <ele>2333.26</ele>
        <time>2019-09-06T12:25:52Z</time>
      </trkpt>
      <trkpt lat="42.5567565300" lon="0.9407963790">
        <ele>2333.26</ele>
        <time>2019-09-06T12:26:03Z</time>
      </trkpt>
      <trkpt lat="42.5568161253" lon="0.9406735841">
        <ele>2332.78</ele>
        <time>2019-09-06T12:26:17Z</time>
      </trkpt>
      <trkpt lat="42.5568447076" lon="0.9406493604">
        <ele>2332.30</ele>
        <time>2019-09-06T12:26:30Z</time>
      </trkpt>
      <trkpt lat="42.5569005311" lon="0.9404831473">
        <ele>2330.37</ele>
        <time>2019-09-06T12:26:44Z</time>
      </trkpt>
      <trkpt lat="42.5569449551" lon="0.9403918684">
        <ele>2329.41</ele>
        <time>2019-09-06T12:26:54Z</time>
      </trkpt>
      <trkpt lat="42.5569452904" lon="0.9403774515">
        <ele>2329.41</ele>
        <time>2019-09-06T12:26:55Z</time>
      </trkpt>
      <trkpt lat="42.5569489785" lon="0.9403638728">
        <ele>2329.41</ele>
        <time>2019-09-06T12:26:56Z</time>
      </trkpt>
      <trkpt lat="42.5570032932" lon="0.9402497113">
        <ele>2328.45</ele>
        <time>2019-09-06T12:27:07Z</time>
      </trkpt>
      <trkpt lat="42.5570337195" lon="0.9401461110">
        <ele>2327.01</ele>
        <time>2019-09-06T12:27:17Z</time>
      </trkpt>
      <trkpt lat="42.5570674147" lon="0.9400323685">
        <ele>2325.09</ele>
        <time>2019-09-06T12:27:29Z</time>
      </trkpt>
      <trkpt lat="42.5571093243" lon="0.9399121720">
        <ele>2322.68</ele>
        <time>2019-09-06T12:27:44Z</time>
      </trkpt>
      <trkpt lat="42.5571702607" lon="0.9397756308">
        <ele>2320.76</ele>
        <time>2019-09-06T12:27:57Z</time>
      </trkpt>
      <trkpt lat="42.5572218094" lon="0.9395843558">
        <ele>2318.84</ele>
        <time>2019-09-06T12:28:12Z</time>
      </trkpt>
      <trkpt lat="42.5572486315" lon="0.9394376725">
        <ele>2317.88</ele>
        <time>2019-09-06T12:28:25Z</time>
      </trkpt>
      <trkpt lat="42.5572892837" lon="0.9392993711">
        <ele>2315.95</ele>
        <time>2019-09-06T12:28:37Z</time>
      </trkpt>
      <trkpt lat="42.5573207997" lon="0.9392039012">
        <ele>2314.99</ele>
        <time>2019-09-06T12:28:48Z</time>
      </trkpt>
      <trkpt lat="42.5573335402" lon="0.9391474072">
        <ele>2314.03</ele>
        <time>2019-09-06T12:28:53Z</time>
      </trkpt>
      <trkpt lat="42.5573493820" lon="0.9390282165">
        <ele>2312.11</ele>
        <time>2019-09-06T12:29:05Z</time>
      </trkpt>
      <trkpt lat="42.5573763717" lon="0.9388677869">
        <ele>2310.67</ele>
        <time>2019-09-06T12:29:16Z</time>
      </trkpt>
      <trkpt lat="42.5573839992" lon="0.9388578124">
        <ele>2310.67</ele>
        <time>2019-09-06T12:29:17Z</time>
      </trkpt>
      <trkpt lat="42.5573912077" lon="0.9388477542">
        <ele>2310.67</ele>
        <time>2019-09-06T12:29:18Z</time>
      </trkpt>
      <trkpt lat="42.5574527308" lon="0.9387331735">
        <ele>2310.67</ele>
        <time>2019-09-06T12:29:27Z</time>
      </trkpt>
      <trkpt lat="42.5574804749" lon="0.9387009032">
        <ele>2310.67</ele>
        <time>2019-09-06T12:29:31Z</time>
      </trkpt>
      <trkpt lat="42.5575495418" lon="0.9385690559">
        <ele>2311.15</ele>
        <time>2019-09-06T12:29:43Z</time>
      </trkpt>
      <trkpt lat="42.5575603545" lon="0.9385571536">
        <ele>2311.15</ele>
        <time>2019-09-06T12:29:45Z</time>
      </trkpt>
      <trkpt lat="42.5575839076" lon="0.9385242127">
        <ele>2311.15</ele>
        <time>2019-09-06T12:29:48Z</time>
      </trkpt>
      <trkpt lat="42.5576573331" lon="0.9384090453">
        <ele>2311.63</ele>
        <time>2019-09-06T12:30:00Z</time>
      </trkpt>
      <trkpt lat="42.5577274896" lon="0.9383041039">
        <ele>2312.59</ele>
        <time>2019-09-06T12:30:11Z</time>
      </trkpt>
      <trkpt lat="42.5577701535" lon="0.9382255655">
        <ele>2312.59</ele>
        <time>2019-09-06T12:30:18Z</time>
      </trkpt>
      <trkpt lat="42.5577838998" lon="0.9381528944">
        <ele>2312.59</ele>
        <time>2019-09-06T12:30:24Z</time>
      </trkpt>
      <trkpt lat="42.5577963050" lon="0.9381181933">
        <ele>2312.11</ele>
        <time>2019-09-06T12:30:27Z</time>
      </trkpt>
      <trkpt lat="42.5578165054" lon="0.9380767867">
        <ele>2311.63</ele>
        <time>2019-09-06T12:30:31Z</time>
      </trkpt>
      <trkpt lat="42.5578810461" lon="0.9379256610">
        <ele>2310.19</ele>
        <time>2019-09-06T12:30:44Z</time>
      </trkpt>
      <trkpt lat="42.5579404738" lon="0.9378375672">
        <ele>2309.22</ele>
        <time>2019-09-06T12:30:54Z</time>
      </trkpt>
      <trkpt lat="42.5580164138" lon="0.9377742838">
        <ele>2308.74</ele>
        <time>2019-09-06T12:31:04Z</time>
      </trkpt>
      <trkpt lat="42.5580337644" lon="0.9377549216">
        <ele>2308.74</ele>
        <time>2019-09-06T12:31:06Z</time>
      </trkpt>
      <trkpt lat="42.5581692159" lon="0.9376113396">
        <ele>2306.34</ele>
        <time>2019-09-06T12:31:20Z</time>
      </trkpt>
      <trkpt lat="42.5582376961" lon="0.9375234134">
        <ele>2304.90</ele>
        <time>2019-09-06T12:31:32Z</time>
      </trkpt>
      <trkpt lat="42.5582900830" lon="0.9374986030">
        <ele>2304.42</ele>
        <time>2019-09-06T12:31:44Z</time>
      </trkpt>
      <trkpt lat="42.5583676994" lon="0.9374504071">
        <ele>2302.01</ele>
        <time>2019-09-06T12:31:56Z</time>
      </trkpt>
      <trkpt lat="42.5584389456" lon="0.9374024626">
        <ele>2299.61</ele>
        <time>2019-09-06T12:32:09Z</time>
      </trkpt>
      <trkpt lat="42.5584581401" lon="0.9373680968">
        <ele>2299.13</ele>
        <time>2019-09-06T12:32:13Z</time>
      </trkpt>
      <trkpt lat="42.5584661029" lon="0.9373584576">
        <ele>2298.65</ele>
        <time>2019-09-06T12:32:14Z</time>
      </trkpt>
      <trkpt lat="42.5584826991" lon="0.9373416938">
        <ele>2298.17</ele>
        <time>2019-09-06T12:32:16Z</time>
      </trkpt>
      <trkpt lat="42.5585339125" lon="0.9372874629">
        <ele>2296.73</ele>
        <time>2019-09-06T12:32:23Z</time>
      </trkpt>
      <trkpt lat="42.5585409533" lon="0.9372769855">
        <ele>2296.73</ele>
        <time>2019-09-06T12:32:24Z</time>
      </trkpt>
      <trkpt lat="42.5585477427" lon="0.9372655023">
        <ele>2296.73</ele>
        <time>2019-09-06T12:32:25Z</time>
      </trkpt>
      <trkpt lat="42.5585971959" lon="0.9372528456">
        <ele>2295.77</ele>
        <time>2019-09-06T12:32:33Z</time>
      </trkpt>
      <trkpt lat="42.5586157199" lon="0.9372616466">
        <ele>2295.77</ele>
        <time>2019-09-06T12:32:35Z</time>
      </trkpt>
      <trkpt lat="42.5586651731" lon="0.9372499119">
        <ele>2295.28</ele>
        <time>2019-09-06T12:32:41Z</time>
      </trkpt>
      <trkpt lat="42.5586739741" lon="0.9372423682">
        <ele>2295.28</ele>
        <time>2019-09-06T12:32:42Z</time>
      </trkpt>
      <trkpt lat="42.5587045681" lon="0.9372217488">
        <ele>2295.77</ele>
        <time>2019-09-06T12:32:46Z</time>
      </trkpt>
      <trkpt lat="42.5587885547" lon="0.9372263588">
        <ele>2294.80</ele>
        <time>2019-09-06T12:32:57Z</time>
      </trkpt>
      <trkpt lat="42.5588599686" lon="0.9372748900">
        <ele>2291.92</ele>
        <time>2019-09-06T12:33:09Z</time>
      </trkpt>
      <trkpt lat="42.5588992797" lon="0.9372932464">
        <ele>2291.44</ele>
        <time>2019-09-06T12:33:13Z</time>
      </trkpt>
      <trkpt lat="42.5589099247" lon="0.9373012930">
        <ele>2291.44</ele>
        <time>2019-09-06T12:33:14Z</time>
      </trkpt>
      <trkpt lat="42.5589197315" lon="0.9373121895">
        <ele>2291.44</ele>
        <time>2019-09-06T12:33:15Z</time>
      </trkpt>
      <trkpt lat="42.5589500740" lon="0.9373302106">
        <ele>2290.00</ele>
        <time>2019-09-06T12:33:26Z</time>
      </trkpt>
      <trkpt lat="42.5589852780" lon="0.9373576194">
        <ele>2290.00</ele>
        <time>2019-09-06T12:33:45Z</time>
      </trkpt>
      <trkpt lat="42.5589963421" lon="0.9373637382">
        <ele>2290.00</ele>
        <time>2019-09-06T12:33:46Z</time>
      </trkpt>
      <trkpt lat="42.5590643194" lon="0.9374331404">
        <ele>2288.56</ele>
        <time>2019-09-06T12:33:54Z</time>
      </trkpt>
      <trkpt lat="42.5590768922" lon="0.9374400135">
        <ele>2288.56</ele>
        <time>2019-09-06T12:33:55Z</time>
      </trkpt>
      <trkpt lat="42.5590877049" lon="0.9374467190">
        <ele>2288.56</ele>
        <time>2019-09-06T12:33:56Z</time>
      </trkpt>
      <trkpt lat="42.5592224021" lon="0.9374868684">
        <ele>2288.56</ele>
        <time>2019-09-06T12:34:09Z</time>
      </trkpt>
      <trkpt lat="42.5593365636" lon="0.9374996927">
        <ele>2289.52</ele>
        <time>2019-09-06T12:34:19Z</time>
      </trkpt>
      <trkpt lat="42.5593595300" lon="0.9375002794">
        <ele>2290.00</ele>
        <time>2019-09-06T12:34:21Z</time>
      </trkpt>
      <trkpt lat="42.5593717676" lon="0.9375005309">
        <ele>2290.00</ele>
        <time>2019-09-06T12:34:22Z</time>
      </trkpt>
      <trkpt lat="42.5593816582" lon="0.9375048056">
        <ele>2290.00</ele>
        <time>2019-09-06T12:34:23Z</time>
      </trkpt>
      <trkpt lat="42.5593925547" lon="0.9375091642">
        <ele>2290.00</ele>
        <time>2019-09-06T12:34:24Z</time>
      </trkpt>
      <trkpt lat="42.5594031159" lon="0.9375143610">
        <ele>2290.00</ele>
        <time>2019-09-06T12:34:25Z</time>
      </trkpt>
      <trkpt lat="42.5594970770" lon="0.9375230782">
        <ele>2290.96</ele>
        <time>2019-09-06T12:34:36Z</time>
      </trkpt>
      <trkpt lat="42.5595936365" lon="0.9375615511">
        <ele>2291.44</ele>
        <time>2019-09-06T12:34:47Z</time>
      </trkpt>
      <trkpt lat="42.5596949738" lon="0.9376574401">
        <ele>2292.40</ele>
        <time>2019-09-06T12:34:59Z</time>
      </trkpt>
      <trkpt lat="42.5597595144" lon="0.9377441090">
        <ele>2293.36</ele>
        <time>2019-09-06T12:35:10Z</time>
      </trkpt>
      <trkpt lat="42.5597698241" lon="0.9377635550">
        <ele>2293.84</ele>
        <time>2019-09-06T12:35:12Z</time>
      </trkpt>
      <trkpt lat="42.5598602649" lon="0.9378416743">
        <ele>2295.28</ele>
        <time>2019-09-06T12:35:24Z</time>
      </trkpt>
      <trkpt lat="42.5598700717" lon="0.9378417581">
        <ele>2295.28</ele>
        <time>2019-09-06T12:35:25Z</time>
      </trkpt>
      <trkpt lat="42.5599011686" lon="0.9378611203">
        <ele>2295.77</ele>
        <time>2019-09-06T12:35:29Z</time>
      </trkpt>
      <trkpt lat="42.5599496160" lon="0.9379022755">
        <ele>2296.73</ele>
        <time>2019-09-06T12:35:35Z</time>
      </trkpt>
      <trkpt lat="42.5599657092" lon="0.9379373118">
        <ele>2297.21</ele>
        <time>2019-09-06T12:35:38Z</time>
      </trkpt>
      <trkpt lat="42.5599676371" lon="0.9379533213">
        <ele>2297.21</ele>
        <time>2019-09-06T12:35:39Z</time>
      </trkpt>
      <trkpt lat="42.5600122288" lon="0.9380627051">
        <ele>2297.69</ele>
        <time>2019-09-06T12:35:47Z</time>
      </trkpt>
      <trkpt lat="42.5601123925" lon="0.9381391481">
        <ele>2298.17</ele>
        <time>2019-09-06T12:35:59Z</time>
      </trkpt>
      <trkpt lat="42.5601310842" lon="0.9381605219">
        <ele>2297.69</ele>
        <time>2019-09-06T12:36:02Z</time>
      </trkpt>
      <trkpt lat="42.5601927750" lon="0.9382598475">
        <ele>2296.25</ele>
        <time>2019-09-06T12:36:12Z</time>
      </trkpt>
      <trkpt lat="42.5602080300" lon="0.9382968955">
        <ele>2296.73</ele>
        <time>2019-09-06T12:36:16Z</time>
      </trkpt>
      <trkpt lat="42.5602197647" lon="0.9383014217">
        <ele>2296.73</ele>
        <time>2019-09-06T12:36:17Z</time>
      </trkpt>
      <trkpt lat="42.5602302421" lon="0.9383071214">
        <ele>2296.73</ele>
        <time>2019-09-06T12:36:18Z</time>
      </trkpt>
      <trkpt lat="42.5603128877" lon="0.9383948799">
        <ele>2298.17</ele>
        <time>2019-09-06T12:36:29Z</time>
      </trkpt>
      <trkpt lat="42.5603368599" lon="0.9384222049">
        <ele>2298.17</ele>
        <time>2019-09-06T12:36:32Z</time>
      </trkpt>
      <trkpt lat="42.5603444874" lon="0.9384295810">
        <ele>2298.17</ele>
        <time>2019-09-06T12:36:33Z</time>
      </trkpt>
      <trkpt lat="42.5604550447" lon="0.9385410603">
        <ele>2299.61</ele>
        <time>2019-09-06T12:36:46Z</time>
      </trkpt>
      <trkpt lat="42.5605609920" lon="0.9386356082">
        <ele>2300.57</ele>
        <time>2019-09-06T12:37:00Z</time>
      </trkpt>
      <trkpt lat="42.5606962759" lon="0.9387396276">
        <ele>2300.09</ele>
        <time>2019-09-06T12:37:13Z</time>
      </trkpt>
      <trkpt lat="42.5607821066" lon="0.9387949482">
        <ele>2300.57</ele>
        <time>2019-09-06T12:37:22Z</time>
      </trkpt>
      <trkpt lat="42.5607919972" lon="0.9388007317">
        <ele>2300.57</ele>
        <time>2019-09-06T12:37:23Z</time>
      </trkpt>
      <trkpt lat="42.5608002953" lon="0.9388082754">
        <ele>2300.57</ele>
        <time>2019-09-06T12:37:24Z</time>
      </trkpt>
      <trkpt lat="42.5609085895" lon="0.9388866462">
        <ele>2302.49</ele>
        <time>2019-09-06T12:37:37Z</time>
      </trkpt>
      <trkpt lat="42.5610110164" lon="0.9390334971">
        <ele>2304.42</ele>
        <time>2019-09-06T12:37:51Z</time>
      </trkpt>
      <trkpt lat="42.5610357430" lon="0.9391825274">
        <ele>2304.42</ele>
        <time>2019-09-06T12:38:01Z</time>
      </trkpt>
      <trkpt lat="42.5610460527" lon="0.9392682742">
        <ele>2304.42</ele>
        <time>2019-09-06T12:38:06Z</time>
      </trkpt>
      <trkpt lat="42.5610535964" lon="0.9392798413">
        <ele>2303.94</ele>
        <time>2019-09-06T12:38:07Z</time>
      </trkpt>
      <trkpt lat="42.5610611401" lon="0.9392892290">
        <ele>2303.94</ele>
        <time>2019-09-06T12:38:08Z</time>
      </trkpt>
      <trkpt lat="42.5610701926" lon="0.9392988682">
        <ele>2303.94</ele>
        <time>2019-09-06T12:38:09Z</time>
      </trkpt>
      <trkpt lat="42.5610782392" lon="0.9393120278">
        <ele>2303.94</ele>
        <time>2019-09-06T12:38:10Z</time>
      </trkpt>
      <trkpt lat="42.5610846933" lon="0.9393270314">
        <ele>2303.94</ele>
        <time>2019-09-06T12:38:11Z</time>
      </trkpt>
      <trkpt lat="42.5610879622" lon="0.9393416997">
        <ele>2303.94</ele>
        <time>2019-09-06T12:38:12Z</time>
      </trkpt>
      <trkpt lat="42.5610891357" lon="0.9393552784">
        <ele>2303.94</ele>
        <time>2019-09-06T12:38:13Z</time>
      </trkpt>
      <trkpt lat="42.5610934943" lon="0.9393820167">
        <ele>2303.94</ele>
        <time>2019-09-06T12:38:15Z</time>
      </trkpt>
      <trkpt lat="42.5611033849" lon="0.9394161310">
        <ele>2303.46</ele>
        <time>2019-09-06T12:38:17Z</time>
      </trkpt>
      <trkpt lat="42.5611064024" lon="0.9394382592">
        <ele>2303.46</ele>
        <time>2019-09-06T12:38:18Z</time>
      </trkpt>
      <trkpt lat="42.5611310452" lon="0.9394779056">
        <ele>2303.94</ele>
        <time>2019-09-06T12:38:22Z</time>
      </trkpt>
      <trkpt lat="42.5611395109" lon="0.9394895565">
        <ele>2303.94</ele>
        <time>2019-09-06T12:38:23Z</time>
      </trkpt>
      <trkpt lat="42.5611480605" lon="0.9395014588">
        <ele>2303.94</ele>
        <time>2019-09-06T12:38:24Z</time>
      </trkpt>
      <trkpt lat="42.5611556880" lon="0.9395137802">
        <ele>2303.94</ele>
        <time>2019-09-06T12:38:25Z</time>
      </trkpt>
      <trkpt lat="42.5611638185" lon="0.9395267721">
        <ele>2303.94</ele>
        <time>2019-09-06T12:38:26Z</time>
      </trkpt>
      <trkpt lat="42.5611838512" lon="0.9395883791">
        <ele>2303.46</ele>
        <time>2019-09-06T12:38:31Z</time>
      </trkpt>
      <trkpt lat="42.5611880422" lon="0.9396046400">
        <ele>2303.46</ele>
        <time>2019-09-06T12:38:32Z</time>
      </trkpt>
      <trkpt lat="42.5611950830" lon="0.9396192245">
        <ele>2303.46</ele>
        <time>2019-09-06T12:38:33Z</time>
      </trkpt>
      <trkpt lat="42.5612032134" lon="0.9396320488">
        <ele>2302.98</ele>
        <time>2019-09-06T12:38:34Z</time>
      </trkpt>
      <trkpt lat="42.5612131041" lon="0.9396444540">
        <ele>2302.98</ele>
        <time>2019-09-06T12:38:35Z</time>
      </trkpt>
      <trkpt lat="42.5612875354" lon="0.9397540055">
        <ele>2301.53</ele>
        <time>2019-09-06T12:38:44Z</time>
      </trkpt>
      <trkpt lat="42.5613099150" lon="0.9397648182">
        <ele>2301.53</ele>
        <time>2019-09-06T12:38:46Z</time>
      </trkpt>
      <trkpt lat="42.5613210630" lon="0.9397732839">
        <ele>2301.53</ele>
        <time>2019-09-06T12:38:47Z</time>
      </trkpt>
      <trkpt lat="42.5613296963" lon="0.9397862758">
        <ele>2301.53</ele>
        <time>2019-09-06T12:38:48Z</time>
      </trkpt>
      <trkpt lat="42.5613871124" lon="0.9398774710">
        <ele>2300.57</ele>
        <time>2019-09-06T12:38:56Z</time>
      </trkpt>
      <trkpt lat="42.5614128448" lon="0.9399369825">
        <ele>2299.61</ele>
        <time>2019-09-06T12:39:01Z</time>
      </trkpt>
      <trkpt lat="42.5614237413" lon="0.9399580210">
        <ele>2299.13</ele>
        <time>2019-09-06T12:39:02Z</time>
      </trkpt>
      <trkpt lat="42.5614245795" lon="0.9399855137">
        <ele>2298.17</ele>
        <time>2019-09-06T12:39:04Z</time>
      </trkpt>
      <trkpt lat="42.5614520721" lon="0.9401531518">
        <ele>2295.28</ele>
        <time>2019-09-06T12:39:16Z</time>
      </trkpt>
      <trkpt lat="42.5615137629" lon="0.9403167665">
        <ele>2292.40</ele>
        <time>2019-09-06T12:39:29Z</time>
      </trkpt>
      <trkpt lat="42.5615423452" lon="0.9403804690">
        <ele>2291.44</ele>
        <time>2019-09-06T12:39:34Z</time>
      </trkpt>
      <trkpt lat="42.5615418423" lon="0.9403990768">
        <ele>2291.44</ele>
        <time>2019-09-06T12:39:35Z</time>
      </trkpt>
      <trkpt lat="42.5615430996" lon="0.9404134098">
        <ele>2290.96</ele>
        <time>2019-09-06T12:39:36Z</time>
      </trkpt>
      <trkpt lat="42.5615490507" lon="0.9405507892">
        <ele>2288.08</ele>
        <time>2019-09-06T12:39:47Z</time>
      </trkpt>
      <trkpt lat="42.5615706760" lon="0.9407381248">
        <ele>2285.19</ele>
        <time>2019-09-06T12:39:59Z</time>
      </trkpt>
      <trkpt lat="42.5615966599" lon="0.9409186710">
        <ele>2282.31</ele>
        <time>2019-09-06T12:40:12Z</time>
      </trkpt>
      <trkpt lat="42.5616007671" lon="0.9409547132">
        <ele>2281.83</ele>
        <time>2019-09-06T12:40:15Z</time>
      </trkpt>
      <trkpt lat="42.5615971629" lon="0.9409698006">
        <ele>2281.35</ele>
        <time>2019-09-06T12:40:16Z</time>
      </trkpt>
      <trkpt lat="42.5615924690" lon="0.9409852233">
        <ele>2281.35</ele>
        <time>2019-09-06T12:40:17Z</time>
      </trkpt>
      <trkpt lat="42.5615902897" lon="0.9410013165">
        <ele>2281.35</ele>
        <time>2019-09-06T12:40:18Z</time>
      </trkpt>
      <trkpt lat="42.5615912117" lon="0.9410177451">
        <ele>2280.87</ele>
        <time>2019-09-06T12:40:19Z</time>
      </trkpt>
      <trkpt lat="42.5615943968" lon="0.9410327487">
        <ele>2280.38</ele>
        <time>2019-09-06T12:40:20Z</time>
      </trkpt>
      <trkpt lat="42.5616000965" lon="0.9410453215">
        <ele>2280.38</ele>
        <time>2019-09-06T12:40:21Z</time>
      </trkpt>
      <trkpt lat="42.5616078079" lon="0.9410555474">
        <ele>2280.38</ele>
        <time>2019-09-06T12:40:22Z</time>
      </trkpt>
      <trkpt lat="42.5616162736" lon="0.9410666954">
        <ele>2280.38</ele>
        <time>2019-09-06T12:40:23Z</time>
      </trkpt>
      <trkpt lat="42.5616384856" lon="0.9411138017">
        <ele>2279.42</ele>
        <time>2019-09-06T12:40:27Z</time>
      </trkpt>
      <trkpt lat="42.5616362225" lon="0.9411489218">
        <ele>2277.98</ele>
        <time>2019-09-06T12:40:38Z</time>
      </trkpt>
      <trkpt lat="42.5616200455" lon="0.9412171505">
        <ele>2278.46</ele>
        <time>2019-09-06T12:41:07Z</time>
      </trkpt>
      <trkpt lat="42.5616219733" lon="0.9412268735">
        <ele>2277.02</ele>
        <time>2019-09-06T12:41:22Z</time>
      </trkpt>
      <trkpt lat="42.5616174471" lon="0.9412253648">
        <ele>2276.54</ele>
        <time>2019-09-06T12:42:03Z</time>
      </trkpt>
      <trkpt lat="42.5616269186" lon="0.9412080143">
        <ele>2277.02</ele>
        <time>2019-09-06T12:42:25Z</time>
      </trkpt>
      <trkpt lat="42.5616622064" lon="0.9413179848">
        <ele>2275.58</ele>
        <time>2019-09-06T12:42:39Z</time>
      </trkpt>
      <trkpt lat="42.5616430119" lon="0.9413569607">
        <ele>2274.62</ele>
        <time>2019-09-06T12:42:44Z</time>
      </trkpt>
      <trkpt lat="42.5616040360" lon="0.9413320664">
        <ele>2274.14</ele>
        <time>2019-09-06T12:42:48Z</time>
      </trkpt>
      <trkpt lat="42.5615182891" lon="0.9413298033">
        <ele>2273.17</ele>
        <time>2019-09-06T12:42:58Z</time>
      </trkpt>
      <trkpt lat="42.5615761243" lon="0.9414296318">
        <ele>2271.25</ele>
        <time>2019-09-06T12:43:11Z</time>
      </trkpt>
      <trkpt lat="42.5615415070" lon="0.9414546099">
        <ele>2269.81</ele>
        <time>2019-09-06T12:43:16Z</time>
      </trkpt>
      <trkpt lat="42.5614396669" lon="0.9415121935">
        <ele>2268.37</ele>
        <time>2019-09-06T12:43:28Z</time>
      </trkpt>
      <trkpt lat="42.5614213105" lon="0.9415245987">
        <ele>2267.89</ele>
        <time>2019-09-06T12:43:30Z</time>
      </trkpt>
      <trkpt lat="42.5613786466" lon="0.9415655863">
        <ele>2266.93</ele>
        <time>2019-09-06T12:43:35Z</time>
      </trkpt>
      <trkpt lat="42.5613919739" lon="0.9416302945">
        <ele>2265.96</ele>
        <time>2019-09-06T12:43:41Z</time>
      </trkpt>
      <trkpt lat="42.5614277646" lon="0.9416451305">
        <ele>2265.48</ele>
        <time>2019-09-06T12:43:46Z</time>
      </trkpt>
      <trkpt lat="42.5614374876" lon="0.9416497406">
        <ele>2265.00</ele>
        <time>2019-09-06T12:43:47Z</time>
      </trkpt>
      <trkpt lat="42.5614477973" lon="0.9416571166">
        <ele>2265.00</ele>
        <time>2019-09-06T12:43:48Z</time>
      </trkpt>
      <trkpt lat="42.5614583585" lon="0.9416661691">
        <ele>2265.00</ele>
        <time>2019-09-06T12:43:49Z</time>
      </trkpt>
      <trkpt lat="42.5615510624" lon="0.9417110961">
        <ele>2263.56</ele>
        <time>2019-09-06T12:43:58Z</time>
      </trkpt>
      <trkpt lat="42.5616080593" lon="0.9417357389">
        <ele>2263.08</ele>
        <time>2019-09-06T12:44:04Z</time>
      </trkpt>
      <trkpt lat="42.5616294332" lon="0.9417481441">
        <ele>2262.60</ele>
        <time>2019-09-06T12:44:06Z</time>
      </trkpt>
      <trkpt lat="42.5617134199" lon="0.9417844377">
        <ele>2261.16</ele>
        <time>2019-09-06T12:44:14Z</time>
      </trkpt>
      <trkpt lat="42.5617232267" lon="0.9417925682">
        <ele>2261.16</ele>
        <time>2019-09-06T12:44:15Z</time>
      </trkpt>
      <trkpt lat="42.5617343746" lon="0.9418001119">
        <ele>2261.16</ele>
        <time>2019-09-06T12:44:16Z</time>
      </trkpt>
      <trkpt lat="42.5617941376" lon="0.9418940730">
        <ele>2259.24</ele>
        <time>2019-09-06T12:44:25Z</time>
      </trkpt>
      <trkpt lat="42.5617995020" lon="0.9419101663">
        <ele>2259.24</ele>
        <time>2019-09-06T12:44:26Z</time>
      </trkpt>
      <trkpt lat="42.5618052017" lon="0.9419249184">
        <ele>2258.75</ele>
        <time>2019-09-06T12:44:27Z</time>
      </trkpt>
      <trkpt lat="42.5618813932" lon="0.9420420974">
        <ele>2255.39</ele>
        <time>2019-09-06T12:44:37Z</time>
      </trkpt>
      <trkpt lat="42.5619347859" lon="0.9421517327">
        <ele>2253.95</ele>
        <time>2019-09-06T12:44:46Z</time>
      </trkpt>
      <trkpt lat="42.5620203651" lon="0.9422469512">
        <ele>2252.03</ele>
        <time>2019-09-06T12:44:58Z</time>
      </trkpt>
      <trkpt lat="42.5620730873" lon="0.9423353802">
        <ele>2249.62</ele>
        <time>2019-09-06T12:45:07Z</time>
      </trkpt>
      <trkpt lat="42.5620812178" lon="0.9423740208">
        <ele>2248.18</ele>
        <time>2019-09-06T12:45:10Z</time>
      </trkpt>
      <trkpt lat="42.5620828941" lon="0.9423886891">
        <ele>2248.18</ele>
        <time>2019-09-06T12:45:11Z</time>
      </trkpt>
      <trkpt lat="42.5620884262" lon="0.9424021002">
        <ele>2247.70</ele>
        <time>2019-09-06T12:45:12Z</time>
      </trkpt>
      <trkpt lat="42.5620950479" lon="0.9424146730">
        <ele>2247.70</ele>
        <time>2019-09-06T12:45:13Z</time>
      </trkpt>
      <trkpt lat="42.5621022563" lon="0.9424285870">
        <ele>2247.22</ele>
        <time>2019-09-06T12:45:14Z</time>
      </trkpt>
      <trkpt lat="42.5621055253" lon="0.9424445126">
        <ele>2247.22</ele>
        <time>2019-09-06T12:45:15Z</time>
      </trkpt>
      <trkpt lat="42.5621060282" lon="0.9424604382">
        <ele>2246.74</ele>
        <time>2019-09-06T12:45:16Z</time>
      </trkpt>
      <trkpt lat="42.5621075369" lon="0.9424755257">
        <ele>2246.74</ele>
        <time>2019-09-06T12:45:17Z</time>
      </trkpt>
      <trkpt lat="42.5621358678" lon="0.9425696544">
        <ele>2244.82</ele>
        <time>2019-09-06T12:45:24Z</time>
      </trkpt>
      <trkpt lat="42.5621717423" lon="0.9426494502">
        <ele>2242.89</ele>
        <time>2019-09-06T12:45:34Z</time>
      </trkpt>
      <trkpt lat="42.5622134842" lon="0.9425230511">
        <ele>2240.01</ele>
        <time>2019-09-06T12:45:46Z</time>
      </trkpt>
      <trkpt lat="42.5622137357" lon="0.9425075445">
        <ele>2240.01</ele>
        <time>2019-09-06T12:45:47Z</time>
      </trkpt>
      <trkpt lat="42.5622055214" lon="0.9424137510">
        <ele>2238.09</ele>
        <time>2019-09-06T12:45:54Z</time>
      </trkpt>
      <trkpt lat="42.5622539688" lon="0.9423578437">
        <ele>2237.13</ele>
        <time>2019-09-06T12:46:02Z</time>
      </trkpt>
      <trkpt lat="42.5622614287" lon="0.9423652198">
        <ele>2236.64</ele>
        <time>2019-09-06T12:46:03Z</time>
      </trkpt>
      <trkpt lat="42.5622681342" lon="0.9423770383">
        <ele>2236.64</ele>
        <time>2019-09-06T12:46:04Z</time>
      </trkpt>
      <trkpt lat="42.5622771867" lon="0.9423881862">
        <ele>2236.64</ele>
        <time>2019-09-06T12:46:05Z</time>
      </trkpt>
      <trkpt lat="42.5623265561" lon="0.9423910361">
        <ele>2236.16</ele>
        <time>2019-09-06T12:46:09Z</time>
      </trkpt>
      <trkpt lat="42.5623383746" lon="0.9423955623">
        <ele>2236.16</ele>
        <time>2019-09-06T12:46:10Z</time>
      </trkpt>
      <trkpt lat="42.5623480137" lon="0.9424042795">
        <ele>2235.68</ele>
        <time>2019-09-06T12:46:11Z</time>
      </trkpt>
      <trkpt lat="42.5623582397" lon="0.9424150921">
        <ele>2235.68</ele>
        <time>2019-09-06T12:46:12Z</time>
      </trkpt>
      <trkpt lat="42.5623685494" lon="0.9424278326">
        <ele>2235.20</ele>
        <time>2019-09-06T12:46:13Z</time>
      </trkpt>
      <trkpt lat="42.5624714792" lon="0.9425544832">
        <ele>2232.80</ele>
        <time>2019-09-06T12:46:24Z</time>
      </trkpt>
      <trkpt lat="42.5624912605" lon="0.9426585864">
        <ele>2233.28</ele>
        <time>2019-09-06T12:46:33Z</time>
      </trkpt>
      <trkpt lat="42.5624758378" lon="0.9428359475">
        <ele>2233.76</ele>
        <time>2019-09-06T12:46:44Z</time>
      </trkpt>
      <trkpt lat="42.5624789391" lon="0.9428491909">
        <ele>2233.76</ele>
        <time>2019-09-06T12:46:45Z</time>
      </trkpt>
      <trkpt lat="42.5624812022" lon="0.9428633563">
        <ele>2233.76</ele>
        <time>2019-09-06T12:46:46Z</time>
      </trkpt>
      <trkpt lat="42.5624841359" lon="0.9428796172">
        <ele>2233.76</ele>
        <time>2019-09-06T12:46:47Z</time>
      </trkpt>
      <trkpt lat="42.5624846388" lon="0.9428966325">
        <ele>2233.76</ele>
        <time>2019-09-06T12:46:48Z</time>
      </trkpt>
      <trkpt lat="42.5624843035" lon="0.9429123066">
        <ele>2234.24</ele>
        <time>2019-09-06T12:46:49Z</time>
      </trkpt>
      <trkpt lat="42.5625057612" lon="0.9430733230">
        <ele>2234.24</ele>
        <time>2019-09-06T12:47:02Z</time>
      </trkpt>
      <trkpt lat="42.5625305716" lon="0.9431115445">
        <ele>2234.24</ele>
        <time>2019-09-06T12:47:06Z</time>
      </trkpt>
      <trkpt lat="42.5625388697" lon="0.9431223571">
        <ele>2234.24</ele>
        <time>2019-09-06T12:47:07Z</time>
      </trkpt>
      <trkpt lat="42.5625974592" lon="0.9432387818">
        <ele>2233.28</ele>
        <time>2019-09-06T12:47:19Z</time>
      </trkpt>
      <trkpt lat="42.5626314059" lon="0.9432650171">
        <ele>2232.80</ele>
        <time>2019-09-06T12:47:23Z</time>
      </trkpt>
      <trkpt lat="42.5627138000" lon="0.9432792664">
        <ele>2232.32</ele>
        <time>2019-09-06T12:47:33Z</time>
      </trkpt>
      <trkpt lat="42.5627493393" lon="0.9432985447">
        <ele>2231.84</ele>
        <time>2019-09-06T12:47:38Z</time>
      </trkpt>
      <trkpt lat="42.5628118683" lon="0.9433740657">
        <ele>2231.36</ele>
        <time>2019-09-06T12:47:47Z</time>
      </trkpt>
      <trkpt lat="42.5628211722" lon="0.9433979541">
        <ele>2230.88</ele>
        <time>2019-09-06T12:47:49Z</time>
      </trkpt>
      <trkpt lat="42.5628265366" lon="0.9434101917">
        <ele>2230.88</ele>
        <time>2019-09-06T12:47:50Z</time>
      </trkpt>
      <trkpt lat="42.5628306437" lon="0.9434239380">
        <ele>2230.88</ele>
        <time>2019-09-06T12:47:51Z</time>
      </trkpt>
      <trkpt lat="42.5628696196" lon="0.9435341600">
        <ele>2230.40</ele>
        <time>2019-09-06T12:48:01Z</time>
      </trkpt>
      <trkpt lat="42.5628780015" lon="0.9435802605">
        <ele>2230.40</ele>
        <time>2019-09-06T12:48:05Z</time>
      </trkpt>
      <trkpt lat="42.5629718788" lon="0.9437003732">
        <ele>2230.40</ele>
        <time>2019-09-06T12:48:19Z</time>
      </trkpt>
      <trkpt lat="42.5630178954" lon="0.9437702782">
        <ele>2229.43</ele>
        <time>2019-09-06T12:48:27Z</time>
      </trkpt>
      <trkpt lat="42.5631200708" lon="0.9438428655">
        <ele>2229.43</ele>
        <time>2019-09-06T12:48:39Z</time>
      </trkpt>
      <trkpt lat="42.5631307159" lon="0.9438584559">
        <ele>2229.43</ele>
        <time>2019-09-06T12:48:41Z</time>
      </trkpt>
      <trkpt lat="42.5631625671" lon="0.9439012874">
        <ele>2228.95</ele>
        <time>2019-09-06T12:48:46Z</time>
      </trkpt>
      <trkpt lat="42.5632674247" lon="0.9439623076">
        <ele>2227.99</ele>
        <time>2019-09-06T12:48:58Z</time>
      </trkpt>
      <trkpt lat="42.5633322168" lon="0.9440063126">
        <ele>2226.55</ele>
        <time>2019-09-06T12:49:09Z</time>
      </trkpt>
      <trkpt lat="42.5633682590" lon="0.9440412652">
        <ele>2223.67</ele>
        <time>2019-09-06T12:49:20Z</time>
      </trkpt>
      <trkpt lat="42.5634184666" lon="0.9439858608">
        <ele>2222.22</ele>
        <time>2019-09-06T12:49:33Z</time>
      </trkpt>
      <trkpt lat="42.5634244177" lon="0.9440326318">
        <ele>2221.26</ele>
        <time>2019-09-06T12:49:38Z</time>
      </trkpt>
      <trkpt lat="42.5634137727" lon="0.9440612141">
        <ele>2220.78</ele>
        <time>2019-09-06T12:49:40Z</time>
      </trkpt>
      <trkpt lat="42.5634110067" lon="0.9440758824">
        <ele>2220.30</ele>
        <time>2019-09-06T12:49:41Z</time>
      </trkpt>
      <trkpt lat="42.5634089950" lon="0.9442341328">
        <ele>2216.94</ele>
        <time>2019-09-06T12:49:52Z</time>
      </trkpt>
      <trkpt lat="42.5634469651" lon="0.9444112424">
        <ele>2214.05</ele>
        <time>2019-09-06T12:50:06Z</time>
      </trkpt>
      <trkpt lat="42.5634732004" lon="0.9445021860">
        <ele>2212.13</ele>
        <time>2019-09-06T12:50:16Z</time>
      </trkpt>
      <trkpt lat="42.5635011960" lon="0.9445538186">
        <ele>2210.21</ele>
        <time>2019-09-06T12:50:27Z</time>
      </trkpt>
      <trkpt lat="42.5635565165" lon="0.9446378052">
        <ele>2207.81</ele>
        <time>2019-09-06T12:50:38Z</time>
      </trkpt>
      <trkpt lat="42.5636022817" lon="0.9446891863">
        <ele>2205.88</ele>
        <time>2019-09-06T12:50:47Z</time>
      </trkpt>
      <trkpt lat="42.5636439398" lon="0.9446574189">
        <ele>2203.96</ele>
        <time>2019-09-06T12:50:57Z</time>
      </trkpt>
      <trkpt lat="42.5636721030" lon="0.9447070397">
        <ele>2203.00</ele>
        <time>2019-09-06T12:51:03Z</time>
      </trkpt>
      <trkpt lat="42.5636990927" lon="0.9448583331">
        <ele>2201.08</ele>
        <time>2019-09-06T12:51:15Z</time>
      </trkpt>
      <trkpt lat="42.5637184549" lon="0.9449109714">
        <ele>2200.11</ele>
        <time>2019-09-06T12:51:19Z</time>
      </trkpt>
      <trkpt lat="42.5637477078" lon="0.9450360294">
        <ele>2198.19</ele>
        <time>2019-09-06T12:51:31Z</time>
      </trkpt>
      <trkpt lat="42.5637653098" lon="0.9450881649">
        <ele>2196.27</ele>
        <time>2019-09-06T12:51:42Z</time>
      </trkpt>
      <trkpt lat="42.5638051238" lon="0.9451124724">
        <ele>2194.83</ele>
        <time>2019-09-06T12:51:50Z</time>
      </trkpt>
      <trkpt lat="42.5638130028" lon="0.9451229498">
        <ele>2194.83</ele>
        <time>2019-09-06T12:51:51Z</time>
      </trkpt>
      <trkpt lat="42.5638202112" lon="0.9451356903">
        <ele>2194.83</ele>
        <time>2019-09-06T12:51:52Z</time>
      </trkpt>
      <trkpt lat="42.5638246536" lon="0.9451513644">
        <ele>2194.35</ele>
        <time>2019-09-06T12:51:53Z</time>
      </trkpt>
      <trkpt lat="42.5638293475" lon="0.9451656975">
        <ele>2194.35</ele>
        <time>2019-09-06T12:51:54Z</time>
      </trkpt>
      <trkpt lat="42.5638361368" lon="0.9451791923">
        <ele>2193.87</ele>
        <time>2019-09-06T12:51:55Z</time>
      </trkpt>
      <trkpt lat="42.5638440996" lon="0.9451921843">
        <ele>2193.87</ele>
        <time>2019-09-06T12:51:56Z</time>
      </trkpt>
      <trkpt lat="42.5638497993" lon="0.9452057630">
        <ele>2193.39</ele>
        <time>2019-09-06T12:51:57Z</time>
      </trkpt>
      <trkpt lat="42.5638537388" lon="0.9452208504">
        <ele>2193.39</ele>
        <time>2019-09-06T12:51:58Z</time>
      </trkpt>
      <trkpt lat="42.5638925470" lon="0.9453972057">
        <ele>2192.42</ele>
        <time>2019-09-06T12:52:10Z</time>
      </trkpt>
      <trkpt lat="42.5638938043" lon="0.9454149753">
        <ele>2192.42</ele>
        <time>2019-09-06T12:52:11Z</time>
      </trkpt>
      <trkpt lat="42.5639083050" lon="0.9454615787">
        <ele>2192.42</ele>
        <time>2019-09-06T12:52:14Z</time>
      </trkpt>
      <trkpt lat="42.5639176928" lon="0.9454720560">
        <ele>2192.42</ele>
        <time>2019-09-06T12:52:15Z</time>
      </trkpt>
      <trkpt lat="42.5639285054" lon="0.9454817791">
        <ele>2192.42</ele>
        <time>2019-09-06T12:52:16Z</time>
      </trkpt>
      <trkpt lat="42.5639738515" lon="0.9455561265">
        <ele>2192.90</ele>
        <time>2019-09-06T12:52:25Z</time>
      </trkpt>
      <trkpt lat="42.5639972370" lon="0.9456591401">
        <ele>2193.87</ele>
        <time>2019-09-06T12:52:35Z</time>
      </trkpt>
      <trkpt lat="42.5640285015" lon="0.9457440488">
        <ele>2192.90</ele>
        <time>2019-09-06T12:52:44Z</time>
      </trkpt>
      <trkpt lat="42.5640326086" lon="0.9457582142">
        <ele>2192.90</ele>
        <time>2019-09-06T12:52:45Z</time>
      </trkpt>
      <trkpt lat="42.5640407391" lon="0.9457865451">
        <ele>2192.42</ele>
        <time>2019-09-06T12:52:47Z</time>
      </trkpt>
      <trkpt lat="42.5640444271" lon="0.9458036441">
        <ele>2192.42</ele>
        <time>2019-09-06T12:52:48Z</time>
      </trkpt>
      <trkpt lat="42.5640751049" lon="0.9459725395">
        <ele>2190.50</ele>
        <time>2019-09-06T12:53:00Z</time>
      </trkpt>
      <trkpt lat="42.5640838221" lon="0.9459845256">
        <ele>2190.50</ele>
        <time>2019-09-06T12:53:01Z</time>
      </trkpt>
      <trkpt lat="42.5641709100" lon="0.9460875392">
        <ele>2189.54</ele>
        <time>2019-09-06T12:53:13Z</time>
      </trkpt>
      <trkpt lat="42.5642640330" lon="0.9461707715">
        <ele>2189.06</ele>
        <time>2019-09-06T12:53:24Z</time>
      </trkpt>
      <trkpt lat="42.5643206947" lon="0.9462278523">
        <ele>2189.06</ele>
        <time>2019-09-06T12:53:35Z</time>
      </trkpt>
      <trkpt lat="42.5643501990" lon="0.9462599549">
        <ele>2188.58</ele>
        <time>2019-09-06T12:53:39Z</time>
      </trkpt>
      <trkpt lat="42.5643844809" lon="0.9463822469">
        <ele>2186.66</ele>
        <time>2019-09-06T12:53:52Z</time>
      </trkpt>
      <trkpt lat="42.5643933658" lon="0.9463947359">
        <ele>2186.66</ele>
        <time>2019-09-06T12:53:53Z</time>
      </trkpt>
      <trkpt lat="42.5644408911" lon="0.9464435186">
        <ele>2185.21</ele>
        <time>2019-09-06T12:53:59Z</time>
      </trkpt>
      <trkpt lat="42.5645262189" lon="0.9465446044">
        <ele>2183.29</ele>
        <time>2019-09-06T12:54:11Z</time>
      </trkpt>
      <trkpt lat="42.5645309966" lon="0.9465599433">
        <ele>2182.81</ele>
        <time>2019-09-06T12:54:12Z</time>
      </trkpt>
      <trkpt lat="42.5645434856" lon="0.9465843346">
        <ele>2182.81</ele>
        <time>2019-09-06T12:54:14Z</time>
      </trkpt>
      <trkpt lat="42.5645517837" lon="0.9465982486">
        <ele>2182.81</ele>
        <time>2019-09-06T12:54:15Z</time>
      </trkpt>
      <trkpt lat="42.5645609200" lon="0.9466120787">
        <ele>2182.81</ele>
        <time>2019-09-06T12:54:16Z</time>
      </trkpt>
      <trkpt lat="42.5645772647" lon="0.9466497973">
        <ele>2182.33</ele>
        <time>2019-09-06T12:54:19Z</time>
      </trkpt>
      <trkpt lat="42.5645849761" lon="0.9466637112">
        <ele>2182.33</ele>
        <time>2019-09-06T12:54:20Z</time>
      </trkpt>
      <trkpt lat="42.5645876583" lon="0.9466794692">
        <ele>2182.33</ele>
        <time>2019-09-06T12:54:21Z</time>
      </trkpt>
      <trkpt lat="42.5645890832" lon="0.9466953948">
        <ele>2182.33</ele>
        <time>2019-09-06T12:54:22Z</time>
      </trkpt>
      <trkpt lat="42.5645926874" lon="0.9467100631">
        <ele>2182.33</ele>
        <time>2019-09-06T12:54:23Z</time>
      </trkpt>
      <trkpt lat="42.5646228623" lon="0.9468031023">
        <ele>2182.81</ele>
        <time>2019-09-06T12:54:33Z</time>
      </trkpt>
      <trkpt lat="42.5646285620" lon="0.9468461853">
        <ele>2182.33</ele>
        <time>2019-09-06T12:54:39Z</time>
      </trkpt>
      <trkpt lat="42.5646778475" lon="0.9469679743">
        <ele>2180.41</ele>
        <time>2019-09-06T12:54:49Z</time>
      </trkpt>
      <trkpt lat="42.5647003110" lon="0.9469832294">
        <ele>2180.41</ele>
        <time>2019-09-06T12:54:51Z</time>
      </trkpt>
      <trkpt lat="42.5647121295" lon="0.9469944611">
        <ele>2180.41</ele>
        <time>2019-09-06T12:54:52Z</time>
      </trkpt>
      <trkpt lat="42.5647229422" lon="0.9470080398">
        <ele>2179.93</ele>
        <time>2019-09-06T12:54:53Z</time>
      </trkpt>
      <trkpt lat="42.5647311565" lon="0.9470232110">
        <ele>2179.93</ele>
        <time>2019-09-06T12:54:54Z</time>
      </trkpt>
      <trkpt lat="42.5647381973" lon="0.9470391367">
        <ele>2179.45</ele>
        <time>2019-09-06T12:54:55Z</time>
      </trkpt>
      <trkpt lat="42.5647460762" lon="0.9470508713">
        <ele>2179.45</ele>
        <time>2019-09-06T12:54:56Z</time>
      </trkpt>
      <trkpt lat="42.5647672825" lon="0.9470639471">
        <ele>2178.97</ele>
        <time>2019-09-06T12:54:58Z</time>
      </trkpt>
      <trkpt lat="42.5647806935" lon="0.9470661264">
        <ele>2178.97</ele>
        <time>2019-09-06T12:54:59Z</time>
      </trkpt>
      <trkpt lat="42.5648110360" lon="0.9470657911">
        <ele>2178.97</ele>
        <time>2019-09-06T12:55:01Z</time>
      </trkpt>
      <trkpt lat="42.5648230221" lon="0.9470732510">
        <ele>2178.48</ele>
        <time>2019-09-06T12:55:02Z</time>
      </trkpt>
      <trkpt lat="42.5648328289" lon="0.9470840637">
        <ele>2178.48</ele>
        <time>2019-09-06T12:55:03Z</time>
      </trkpt>
      <trkpt lat="42.5648642611" lon="0.9471962973">
        <ele>2178.48</ele>
        <time>2019-09-06T12:55:14Z</time>
      </trkpt>
      <trkpt lat="42.5648620818" lon="0.9472161625">
        <ele>2178.48</ele>
        <time>2019-09-06T12:55:26Z</time>
      </trkpt>
      <trkpt lat="42.5649034046" lon="0.9472589940">
        <ele>2178.00</ele>
        <time>2019-09-06T12:55:35Z</time>
      </trkpt>
      <trkpt lat="42.5649494212" lon="0.9473225288">
        <ele>2177.04</ele>
        <time>2019-09-06T12:55:45Z</time>
      </trkpt>
      <trkpt lat="42.5650119502" lon="0.9474012349">
        <ele>2176.08</ele>
        <time>2019-09-06T12:55:56Z</time>
      </trkpt>
      <trkpt lat="42.5650708750" lon="0.9474567231">
        <ele>2175.12</ele>
        <time>2019-09-06T12:56:07Z</time>
      </trkpt>
      <trkpt lat="42.5651505031" lon="0.9475008957">
        <ele>2173.20</ele>
        <time>2019-09-06T12:56:19Z</time>
      </trkpt>
      <trkpt lat="42.5651802588" lon="0.9475192521">
        <ele>2172.24</ele>
        <time>2019-09-06T12:56:24Z</time>
      </trkpt>
      <trkpt lat="42.5652292091" lon="0.9475232754">
        <ele>2171.27</ele>
        <time>2019-09-06T12:56:33Z</time>
      </trkpt>
      <trkpt lat="42.5652621500" lon="0.9475908335">
        <ele>2170.79</ele>
        <time>2019-09-06T12:56:45Z</time>
      </trkpt>
      <trkpt lat="42.5652597193" lon="0.9476159792">
        <ele>2169.83</ele>
        <time>2019-09-06T12:57:01Z</time>
      </trkpt>
      <trkpt lat="42.5652450509" lon="0.9476354253">
        <ele>2170.31</ele>
        <time>2019-09-06T12:57:28Z</time>
      </trkpt>
      <trkpt lat="42.5653133634" lon="0.9477164783">
        <ele>2169.35</ele>
        <time>2019-09-06T12:57:45Z</time>
      </trkpt>
      <trkpt lat="42.5653640740" lon="0.9477275424">
        <ele>2168.39</ele>
        <time>2019-09-06T12:57:50Z</time>
      </trkpt>
      <trkpt lat="42.5654377509" lon="0.9477666020">
        <ele>2166.95</ele>
        <time>2019-09-06T12:58:01Z</time>
      </trkpt>
      <trkpt lat="42.5654586218" lon="0.9477697033">
        <ele>2166.47</ele>
        <time>2019-09-06T12:58:10Z</time>
      </trkpt>
      <trkpt lat="42.5654695183" lon="0.9477758221">
        <ele>2166.47</ele>
        <time>2019-09-06T12:58:11Z</time>
      </trkpt>
      <trkpt lat="42.5654798280" lon="0.9477829468">
        <ele>2166.47</ele>
        <time>2019-09-06T12:58:12Z</time>
      </trkpt>
      <trkpt lat="42.5655061472" lon="0.9477893170">
        <ele>2165.99</ele>
        <time>2019-09-06T12:58:15Z</time>
      </trkpt>
      <trkpt lat="42.5655173790" lon="0.9477892332">
        <ele>2165.99</ele>
        <time>2019-09-06T12:58:16Z</time>
      </trkpt>
      <trkpt lat="42.5655307062" lon="0.9477899875">
        <ele>2165.99</ele>
        <time>2019-09-06T12:58:17Z</time>
      </trkpt>
      <trkpt lat="42.5655403454" lon="0.9477956872">
        <ele>2165.51</ele>
        <time>2019-09-06T12:58:18Z</time>
      </trkpt>
      <trkpt lat="42.5655506551" lon="0.9478007164">
        <ele>2165.51</ele>
        <time>2019-09-06T12:58:19Z</time>
      </trkpt>
      <trkpt lat="42.5655617192" lon="0.9478044044">
        <ele>2165.51</ele>
        <time>2019-09-06T12:58:20Z</time>
      </trkpt>
      <trkpt lat="42.5655719452" lon="0.9478070866">
        <ele>2165.51</ele>
        <time>2019-09-06T12:58:21Z</time>
      </trkpt>
      <trkpt lat="42.5655897148" lon="0.9478127863">
        <ele>2165.51</ele>
        <time>2019-09-06T12:58:23Z</time>
      </trkpt>
      <trkpt lat="42.5656026229" lon="0.9478148818">
        <ele>2165.51</ele>
        <time>2019-09-06T12:58:24Z</time>
      </trkpt>
      <trkpt lat="42.5656151120" lon="0.9478163905">
        <ele>2165.51</ele>
        <time>2019-09-06T12:58:25Z</time>
      </trkpt>
      <trkpt lat="42.5657630526" lon="0.9478832781">
        <ele>2165.03</ele>
        <time>2019-09-06T12:58:39Z</time>
      </trkpt>
      <trkpt lat="42.5657755416" lon="0.9478885587">
        <ele>2165.03</ele>
        <time>2019-09-06T12:58:40Z</time>
      </trkpt>
      <trkpt lat="42.5658324547" lon="0.9478941746">
        <ele>2164.55</ele>
        <time>2019-09-06T12:58:46Z</time>
      </trkpt>
      <trkpt lat="42.5658745319" lon="0.9478987008">
        <ele>2164.55</ele>
        <time>2019-09-06T12:58:53Z</time>
      </trkpt>
      <trkpt lat="42.5659030303" lon="0.9479033109">
        <ele>2163.58</ele>
        <time>2019-09-06T12:58:57Z</time>
      </trkpt>
      <trkpt lat="42.5659183692" lon="0.9478961024">
        <ele>2163.58</ele>
        <time>2019-09-06T12:58:59Z</time>
      </trkpt>
      <trkpt lat="42.5659290142" lon="0.9478810988">
        <ele>2163.58</ele>
        <time>2019-09-06T12:59:01Z</time>
      </trkpt>
      <trkpt lat="42.5659336243" lon="0.9478711244">
        <ele>2163.58</ele>
        <time>2019-09-06T12:59:02Z</time>
      </trkpt>
      <trkpt lat="42.5659397431" lon="0.9478593059">
        <ele>2163.58</ele>
        <time>2019-09-06T12:59:03Z</time>
      </trkpt>
      <trkpt lat="42.5659481250" lon="0.9478504211">
        <ele>2163.58</ele>
        <time>2019-09-06T12:59:04Z</time>
      </trkpt>
      <trkpt lat="42.5659600273" lon="0.9478448052">
        <ele>2163.10</ele>
        <time>2019-09-06T12:59:05Z</time>
      </trkpt>
      <trkpt lat="42.5659715943" lon="0.9478435479">
        <ele>2163.10</ele>
        <time>2019-09-06T12:59:06Z</time>
      </trkpt>
      <trkpt lat="42.5659815688" lon="0.9478417877">
        <ele>2162.62</ele>
        <time>2019-09-06T12:59:07Z</time>
      </trkpt>
      <trkpt lat="42.5660890248" lon="0.9477911610">
        <ele>2161.66</ele>
        <time>2019-09-06T12:59:18Z</time>
      </trkpt>
      <trkpt lat="42.5661440939" lon="0.9476760775">
        <ele>2160.70</ele>
        <time>2019-09-06T12:59:31Z</time>
      </trkpt>
      <trkpt lat="42.5661893561" lon="0.9476412926">
        <ele>2160.22</ele>
        <time>2019-09-06T12:59:41Z</time>
      </trkpt>
      <trkpt lat="42.5662481971" lon="0.9475997183">
        <ele>2159.74</ele>
        <time>2019-09-06T12:59:48Z</time>
      </trkpt>
      <trkpt lat="42.5662578363" lon="0.9475925099">
        <ele>2159.74</ele>
        <time>2019-09-06T12:59:49Z</time>
      </trkpt>
      <trkpt lat="42.5662689004" lon="0.9475866426">
        <ele>2159.74</ele>
        <time>2019-09-06T12:59:50Z</time>
      </trkpt>
      <trkpt lat="42.5662804674" lon="0.9475808591">
        <ele>2159.26</ele>
        <time>2019-09-06T12:59:51Z</time>
      </trkpt>
      <trkpt lat="42.5662916992" lon="0.9475724772">
        <ele>2159.26</ele>
        <time>2019-09-06T12:59:52Z</time>
      </trkpt>
      <trkpt lat="42.5663026795" lon="0.9475645982">
        <ele>2159.26</ele>
        <time>2019-09-06T12:59:53Z</time>
      </trkpt>
      <trkpt lat="42.5663145818" lon="0.9475602396">
        <ele>2158.78</ele>
        <time>2019-09-06T12:59:54Z</time>
      </trkpt>
      <trkpt lat="42.5663273223" lon="0.9475591499">
        <ele>2158.78</ele>
        <time>2019-09-06T12:59:55Z</time>
      </trkpt>
      <trkpt lat="42.5663493667" lon="0.9475526121">
        <ele>2158.30</ele>
        <time>2019-09-06T13:00:05Z</time>
      </trkpt>
      <trkpt lat="42.5663580839" lon="0.9475497622">
        <ele>2158.30</ele>
        <time>2019-09-06T13:00:06Z</time>
      </trkpt>
      <trkpt lat="42.5663683936" lon="0.9475444816">
        <ele>2158.30</ele>
        <time>2019-09-06T13:00:07Z</time>
      </trkpt>
      <trkpt lat="42.5663787033" lon="0.9475392848">
        <ele>2158.30</ele>
        <time>2019-09-06T13:00:08Z</time>
      </trkpt>
      <trkpt lat="42.5663926173" lon="0.9475344233">
        <ele>2158.30</ele>
        <time>2019-09-06T13:00:09Z</time>
      </trkpt>
      <trkpt lat="42.5664055254" lon="0.9475325793">
        <ele>2158.30</ele>
        <time>2019-09-06T13:00:10Z</time>
      </trkpt>
      <trkpt lat="42.5665159989" lon="0.9474787675">
        <ele>2157.82</ele>
        <time>2019-09-06T13:00:20Z</time>
      </trkpt>
      <trkpt lat="42.5665354449" lon="0.9474615846">
        <ele>2157.82</ele>
        <time>2019-09-06T13:00:22Z</time>
      </trkpt>
      <trkpt lat="42.5665756781" lon="0.9473760892">
        <ele>2157.34</ele>
        <time>2019-09-06T13:00:29Z</time>
      </trkpt>
      <trkpt lat="42.5665839761" lon="0.9473480098">
        <ele>2157.34</ele>
        <time>2019-09-06T13:00:31Z</time>
      </trkpt>
      <trkpt lat="42.5665897597" lon="0.9473346826">
        <ele>2156.86</ele>
        <time>2019-09-06T13:00:32Z</time>
      </trkpt>
      <trkpt lat="42.5665946212" lon="0.9473232832">
        <ele>2156.86</ele>
        <time>2019-09-06T13:00:33Z</time>
      </trkpt>
      <trkpt lat="42.5666307472" lon="0.9473042563">
        <ele>2156.86</ele>
        <time>2019-09-06T13:00:37Z</time>
      </trkpt>
      <trkpt lat="42.5666444097" lon="0.9473083634">
        <ele>2156.86</ele>
        <time>2019-09-06T13:00:38Z</time>
      </trkpt>
      <trkpt lat="42.5666563958" lon="0.9473133087">
        <ele>2156.86</ele>
        <time>2019-09-06T13:00:39Z</time>
      </trkpt>
      <trkpt lat="42.5667738263" lon="0.9473015741">
        <ele>2155.41</ele>
        <time>2019-09-06T13:00:49Z</time>
      </trkpt>
      <trkpt lat="42.5667858962" lon="0.9472931921">
        <ele>2155.41</ele>
        <time>2019-09-06T13:00:50Z</time>
      </trkpt>
      <trkpt lat="42.5668366905" lon="0.9472550545">
        <ele>2154.45</ele>
        <time>2019-09-06T13:00:55Z</time>
      </trkpt>
      <trkpt lat="42.5668689609" lon="0.9472413082">
        <ele>2153.97</ele>
        <time>2019-09-06T13:00:58Z</time>
      </trkpt>
      <trkpt lat="42.5669900794" lon="0.9471372049">
        <ele>2153.01</ele>
        <time>2019-09-06T13:01:11Z</time>
      </trkpt>
      <trkpt lat="42.5670421310" lon="0.9471135680">
        <ele>2152.53</ele>
        <time>2019-09-06T13:01:17Z</time>
      </trkpt>
      <trkpt lat="42.5670537818" lon="0.9471057728">
        <ele>2152.53</ele>
        <time>2019-09-06T13:01:18Z</time>
      </trkpt>
      <trkpt lat="42.5670652650" lon="0.9471000731">
        <ele>2152.53</ele>
        <time>2019-09-06T13:01:19Z</time>
      </trkpt>
      <trkpt lat="42.5671807677" lon="0.9470338561">
        <ele>2151.57</ele>
        <time>2019-09-06T13:01:32Z</time>
      </trkpt>
      <trkpt lat="42.5671882275" lon="0.9470240492">
        <ele>2151.57</ele>
        <time>2019-09-06T13:01:33Z</time>
      </trkpt>
      <trkpt lat="42.5672130380" lon="0.9470027592">
        <ele>2152.05</ele>
        <time>2019-09-06T13:01:36Z</time>
      </trkpt>
      <trkpt lat="42.5672854576" lon="0.9469484445">
        <ele>2151.09</ele>
        <time>2019-09-06T13:01:47Z</time>
      </trkpt>
      <trkpt lat="42.5673016347" lon="0.9469442535">
        <ele>2151.09</ele>
        <time>2019-09-06T13:01:48Z</time>
      </trkpt>
      <trkpt lat="42.5673156325" lon="0.9469367936">
        <ele>2151.09</ele>
        <time>2019-09-06T13:01:49Z</time>
      </trkpt>
      <trkpt lat="42.5673271157" lon="0.9469279926">
        <ele>2150.61</ele>
        <time>2019-09-06T13:01:50Z</time>
      </trkpt>
      <trkpt lat="42.5673383474" lon="0.9469218738">
        <ele>2150.61</ele>
        <time>2019-09-06T13:01:51Z</time>
      </trkpt>
      <trkpt lat="42.5673510879" lon="0.9469129052">
        <ele>2150.61</ele>
        <time>2019-09-06T13:01:52Z</time>
      </trkpt>
      <trkpt lat="42.5673635770" lon="0.9469046909">
        <ele>2150.61</ele>
        <time>2019-09-06T13:01:53Z</time>
      </trkpt>
      <trkpt lat="42.5673743896" lon="0.9468954708">
        <ele>2150.61</ele>
        <time>2019-09-06T13:01:54Z</time>
      </trkpt>
      <trkpt lat="42.5673857890" lon="0.9468884300">
        <ele>2150.61</ele>
        <time>2019-09-06T13:01:55Z</time>
      </trkpt>
      <trkpt lat="42.5675269403" lon="0.9468075447">
        <ele>2148.68</ele>
        <time>2019-09-06T13:02:09Z</time>
      </trkpt>
      <trkpt lat="42.5676493160" lon="0.9467466921">
        <ele>2146.28</ele>
        <time>2019-09-06T13:02:21Z</time>
      </trkpt>
      <trkpt lat="42.5676701032" lon="0.9467337001">
        <ele>2146.28</ele>
        <time>2019-09-06T13:02:23Z</time>
      </trkpt>
      <trkpt lat="42.5676779822" lon="0.9467220493">
        <ele>2145.80</ele>
        <time>2019-09-06T13:02:24Z</time>
      </trkpt>
      <trkpt lat="42.5676877052" lon="0.9467083868">
        <ele>2145.80</ele>
        <time>2019-09-06T13:02:25Z</time>
      </trkpt>
      <trkpt lat="42.5678019505" lon="0.9465613682">
        <ele>2143.40</ele>
        <time>2019-09-06T13:02:38Z</time>
      </trkpt>
      <trkpt lat="42.5678311195" lon="0.9465389885">
        <ele>2143.40</ele>
        <time>2019-09-06T13:02:42Z</time>
      </trkpt>
      <trkpt lat="42.5678413454" lon="0.9465327859">
        <ele>2143.40</ele>
        <time>2019-09-06T13:02:43Z</time>
      </trkpt>
      <trkpt lat="42.5679443590" lon="0.9464554209">
        <ele>2141.47</ele>
        <time>2019-09-06T13:02:54Z</time>
      </trkpt>
      <trkpt lat="42.5680348836" lon="0.9464361425">
        <ele>2140.03</ele>
        <time>2019-09-06T13:03:03Z</time>
      </trkpt>
      <trkpt lat="42.5680575147" lon="0.9464279283">
        <ele>2139.55</ele>
        <time>2019-09-06T13:03:05Z</time>
      </trkpt>
      <trkpt lat="42.5681932177" lon="0.9463870246">
        <ele>2137.63</ele>
        <time>2019-09-06T13:03:17Z</time>
      </trkpt>
      <trkpt lat="42.5683042780" lon="0.9463020321">
        <ele>2135.71</ele>
        <time>2019-09-06T13:03:29Z</time>
      </trkpt>
      <trkpt lat="42.5684434175" lon="0.9462522436">
        <ele>2133.78</ele>
        <time>2019-09-06T13:03:42Z</time>
      </trkpt>
      <trkpt lat="42.5684880093" lon="0.9462628886">
        <ele>2133.30</ele>
        <time>2019-09-06T13:03:46Z</time>
      </trkpt>
      <trkpt lat="42.5685946271" lon="0.9462627210">
        <ele>2131.86</ele>
        <time>2019-09-06T13:03:54Z</time>
      </trkpt>
      <trkpt lat="42.5686489418" lon="0.9462280199">
        <ele>2130.90</ele>
        <time>2019-09-06T13:04:00Z</time>
      </trkpt>
      <trkpt lat="42.5686948746" lon="0.9461461287">
        <ele>2129.46</ele>
        <time>2019-09-06T13:04:10Z</time>
      </trkpt>
      <trkpt lat="42.5687129796" lon="0.9461271018">
        <ele>2128.98</ele>
        <time>2019-09-06T13:04:12Z</time>
      </trkpt>
      <trkpt lat="42.5687912665" lon="0.9460735414">
        <ele>2128.02</ele>
        <time>2019-09-06T13:04:21Z</time>
      </trkpt>
      <trkpt lat="42.5688730739" lon="0.9460219927">
        <ele>2127.05</ele>
        <time>2019-09-06T13:04:31Z</time>
      </trkpt>
      <trkpt lat="42.5688830484" lon="0.9460098390">
        <ele>2126.57</ele>
        <time>2019-09-06T13:04:32Z</time>
      </trkpt>
      <trkpt lat="42.5689100381" lon="0.9459976852">
        <ele>2126.09</ele>
        <time>2019-09-06T13:04:35Z</time>
      </trkpt>
      <trkpt lat="42.5689205155" lon="0.9459972661">
        <ele>2126.09</ele>
        <time>2019-09-06T13:04:36Z</time>
      </trkpt>
      <trkpt lat="42.5689753331" lon="0.9459649120">
        <ele>2125.13</ele>
        <time>2019-09-06T13:04:42Z</time>
      </trkpt>
      <trkpt lat="42.5689629279" lon="0.9459362458">
        <ele>2123.69</ele>
        <time>2019-09-06T13:04:53Z</time>
      </trkpt>
      <trkpt lat="42.5688634347" lon="0.9459559433">
        <ele>2121.29</ele>
        <time>2019-09-06T13:05:03Z</time>
      </trkpt>
      <trkpt lat="42.5687537994" lon="0.9459446277">
        <ele>2119.36</ele>
        <time>2019-09-06T13:05:14Z</time>
      </trkpt>
      <trkpt lat="42.5687097944" lon="0.9458982758">
        <ele>2118.40</ele>
        <time>2019-09-06T13:05:20Z</time>
      </trkpt>
      <trkpt lat="42.5686580781" lon="0.9458204918">
        <ele>2116.96</ele>
        <time>2019-09-06T13:05:25Z</time>
      </trkpt>
      <trkpt lat="42.5686907675" lon="0.9457723796">
        <ele>2115.52</ele>
        <time>2019-09-06T13:05:35Z</time>
      </trkpt>
      <trkpt lat="42.5687721558" lon="0.9457720444">
        <ele>2114.08</ele>
        <time>2019-09-06T13:05:44Z</time>
      </trkpt>
      <trkpt lat="42.5687854830" lon="0.9457730502">
        <ele>2113.60</ele>
        <time>2019-09-06T13:05:45Z</time>
      </trkpt>
      <trkpt lat="42.5689060148" lon="0.9457432106">
        <ele>2111.67</ele>
        <time>2019-09-06T13:05:56Z</time>
      </trkpt>
      <trkpt lat="42.5690007303" lon="0.9456530213">
        <ele>2110.23</ele>
        <time>2019-09-06T13:06:07Z</time>
      </trkpt>
      <trkpt lat="42.5690151472" lon="0.9456546139">
        <ele>2110.23</ele>
        <time>2019-09-06T13:06:09Z</time>
      </trkpt>
      <trkpt lat="42.5690521952" lon="0.9455962759">
        <ele>2108.31</ele>
        <time>2019-09-06T13:06:21Z</time>
      </trkpt>
      <trkpt lat="42.5689739920" lon="0.9456250258">
        <ele>2106.39</ele>
        <time>2019-09-06T13:06:30Z</time>
      </trkpt>
      <trkpt lat="42.5689594075" lon="0.9456313960">
        <ele>2105.91</ele>
        <time>2019-09-06T13:06:31Z</time>
      </trkpt>
      <trkpt lat="42.5688767619" lon="0.9456238523">
        <ele>2104.46</ele>
        <time>2019-09-06T13:06:39Z</time>
      </trkpt>
      <trkpt lat="42.5688665360" lon="0.9456172306">
        <ele>2104.46</ele>
        <time>2019-09-06T13:06:40Z</time>
      </trkpt>
      <trkpt lat="42.5687978882" lon="0.9455340821">
        <ele>2103.02</ele>
        <time>2019-09-06T13:06:48Z</time>
      </trkpt>
      <trkpt lat="42.5687557273" lon="0.9454707988">
        <ele>2102.06</ele>
        <time>2019-09-06T13:06:54Z</time>
      </trkpt>
      <trkpt lat="42.5687739160" lon="0.9454173222">
        <ele>2100.62</ele>
        <time>2019-09-06T13:07:04Z</time>
      </trkpt>
      <trkpt lat="42.5688446593" lon="0.9454245307">
        <ele>2099.18</ele>
        <time>2019-09-06T13:07:11Z</time>
      </trkpt>
      <trkpt lat="42.5688589085" lon="0.9454242792">
        <ele>2099.18</ele>
        <time>2019-09-06T13:07:12Z</time>
      </trkpt>
      <trkpt lat="42.5689511932" lon="0.9453849681">
        <ele>2097.73</ele>
        <time>2019-09-06T13:07:23Z</time>
      </trkpt>
      <trkpt lat="42.5690133870" lon="0.9452768415">
        <ele>2095.81</ele>
        <time>2019-09-06T13:07:34Z</time>
      </trkpt>
      <trkpt lat="42.5690432265" lon="0.9452080261">
        <ele>2095.33</ele>
        <time>2019-09-06T13:07:39Z</time>
      </trkpt>
      <trkpt lat="42.5691139698" lon="0.9451857302">
        <ele>2093.41</ele>
        <time>2019-09-06T13:07:49Z</time>
      </trkpt>
      <trkpt lat="42.5691673625" lon="0.9451460000">
        <ele>2092.93</ele>
        <time>2019-09-06T13:07:59Z</time>
      </trkpt>
      <trkpt lat="42.5692091044" lon="0.9451332595">
        <ele>2092.45</ele>
        <time>2019-09-06T13:08:02Z</time>
      </trkpt>
      <trkpt lat="42.5693200808" lon="0.9451358579">
        <ele>2091.00</ele>
        <time>2019-09-06T13:08:13Z</time>
      </trkpt>
      <trkpt lat="42.5694137067" lon="0.9451631829">
        <ele>2090.04</ele>
        <time>2019-09-06T13:08:24Z</time>
      </trkpt>
      <trkpt lat="42.5694703683" lon="0.9451877419">
        <ele>2089.56</ele>
        <time>2019-09-06T13:08:31Z</time>
      </trkpt>
      <trkpt lat="42.5695479009" lon="0.9452377819">
        <ele>2087.64</ele>
        <time>2019-09-06T13:08:39Z</time>
      </trkpt>
      <trkpt lat="42.5695945043" lon="0.9452857263">
        <ele>2086.68</ele>
        <time>2019-09-06T13:08:44Z</time>
      </trkpt>
      <trkpt lat="42.5697021279" lon="0.9453393705">
        <ele>2084.28</ele>
        <time>2019-09-06T13:08:54Z</time>
      </trkpt>
      <trkpt lat="42.5697033852" lon="0.9453000594">
        <ele>2083.79</ele>
        <time>2019-09-06T13:08:59Z</time>
      </trkpt>
      <trkpt lat="42.5696937460" lon="0.9452900011">
        <ele>2083.79</ele>
        <time>2019-09-06T13:09:00Z</time>
      </trkpt>
      <trkpt lat="42.5696837716" lon="0.9452031646">
        <ele>2081.39</ele>
        <time>2019-09-06T13:09:12Z</time>
      </trkpt>
      <trkpt lat="42.5697882101" lon="0.9451239556">
        <ele>2079.47</ele>
        <time>2019-09-06T13:09:25Z</time>
      </trkpt>
      <trkpt lat="42.5697919820" lon="0.9450226184">
        <ele>2076.59</ele>
        <time>2019-09-06T13:09:36Z</time>
      </trkpt>
      <trkpt lat="42.5697794929" lon="0.9450003225">
        <ele>2076.10</ele>
        <time>2019-09-06T13:09:38Z</time>
      </trkpt>
      <trkpt lat="42.5697482284" lon="0.9449324291">
        <ele>2074.66</ele>
        <time>2019-09-06T13:09:43Z</time>
      </trkpt>
      <trkpt lat="42.5697063189" lon="0.9448476881">
        <ele>2073.22</ele>
        <time>2019-09-06T13:09:53Z</time>
      </trkpt>
      <trkpt lat="42.5697645731" lon="0.9448411502">
        <ele>2071.78</ele>
        <time>2019-09-06T13:10:00Z</time>
      </trkpt>
      <trkpt lat="42.5698239170" lon="0.9448293317">
        <ele>2070.82</ele>
        <time>2019-09-06T13:10:05Z</time>
      </trkpt>
      <trkpt lat="42.5698410161" lon="0.9447750170">
        <ele>2069.38</ele>
        <time>2019-09-06T13:10:12Z</time>
      </trkpt>
      <trkpt lat="42.5699144416" lon="0.9446616098">
        <ele>2067.93</ele>
        <time>2019-09-06T13:10:23Z</time>
      </trkpt>
      <trkpt lat="42.5700090732" lon="0.9445868433">
        <ele>2066.49</ele>
        <time>2019-09-06T13:10:33Z</time>
      </trkpt>
      <trkpt lat="42.5701648090" lon="0.9445891902">
        <ele>2066.01</ele>
        <time>2019-09-06T13:10:47Z</time>
      </trkpt>
      <trkpt lat="42.5702283438" lon="0.9446274955">
        <ele>2066.49</ele>
        <time>2019-09-06T13:10:52Z</time>
      </trkpt>
      <trkpt lat="42.5702814013" lon="0.9446575865">
        <ele>2066.01</ele>
        <time>2019-09-06T13:10:56Z</time>
      </trkpt>
      <trkpt lat="42.5703622028" lon="0.9448392224">
        <ele>2064.09</ele>
        <time>2019-09-06T13:11:08Z</time>
      </trkpt>
      <trkpt lat="42.5704154279" lon="0.9448320139">
        <ele>2063.13</ele>
        <time>2019-09-06T13:11:16Z</time>
      </trkpt>
      <trkpt lat="42.5704463571" lon="0.9447068721">
        <ele>2062.17</ele>
        <time>2019-09-06T13:11:24Z</time>
      </trkpt>
      <trkpt lat="42.5704590976" lon="0.9446875099">
        <ele>2062.17</ele>
        <time>2019-09-06T13:11:26Z</time>
      </trkpt>
      <trkpt lat="42.5706013385" lon="0.9446762782">
        <ele>2061.20</ele>
        <time>2019-09-06T13:11:38Z</time>
      </trkpt>
      <trkpt lat="42.5707250554" lon="0.9445508849">
        <ele>2060.24</ele>
        <time>2019-09-06T13:11:50Z</time>
      </trkpt>
      <trkpt lat="42.5708050188" lon="0.9444685746">
        <ele>2059.28</ele>
        <time>2019-09-06T13:12:00Z</time>
      </trkpt>
      <trkpt lat="42.5708523765" lon="0.9444437642">
        <ele>2058.80</ele>
        <time>2019-09-06T13:12:04Z</time>
      </trkpt>
      <trkpt lat="42.5709739141" lon="0.9443626273">
        <ele>2057.84</ele>
        <time>2019-09-06T13:12:14Z</time>
      </trkpt>
      <trkpt lat="42.5709873252" lon="0.9443265013">
        <ele>2057.84</ele>
        <time>2019-09-06T13:12:16Z</time>
      </trkpt>
      <trkpt lat="42.5710160751" lon="0.9442715161">
        <ele>2057.84</ele>
        <time>2019-09-06T13:12:20Z</time>
      </trkpt>
      <trkpt lat="42.5711440668" lon="0.9441294428">
        <ele>2059.76</ele>
        <time>2019-09-06T13:12:34Z</time>
      </trkpt>
      <trkpt lat="42.5712596532" lon="0.9440861922">
        <ele>2058.32</ele>
        <time>2019-09-06T13:12:44Z</time>
      </trkpt>
      <trkpt lat="42.5712755788" lon="0.9440540895">
        <ele>2057.84</ele>
        <time>2019-09-06T13:12:47Z</time>
      </trkpt>
      <trkpt lat="42.5712851342" lon="0.9440182988">
        <ele>2057.84</ele>
        <time>2019-09-06T13:12:49Z</time>
      </trkpt>
      <trkpt lat="42.5713031553" lon="0.9439087473">
        <ele>2056.88</ele>
        <time>2019-09-06T13:12:58Z</time>
      </trkpt>
      <trkpt lat="42.5712975394" lon="0.9438700229">
        <ele>2056.88</ele>
        <time>2019-09-06T13:13:01Z</time>
      </trkpt>
      <trkpt lat="42.5713593140" lon="0.9437238425">
        <ele>2056.88</ele>
        <time>2019-09-06T13:13:12Z</time>
      </trkpt>
      <trkpt lat="42.5713510998" lon="0.9436435439">
        <ele>2055.44</ele>
        <time>2019-09-06T13:13:20Z</time>
      </trkpt>
      <trkpt lat="42.5713438075" lon="0.9435666818">
        <ele>2053.99</ele>
        <time>2019-09-06T13:13:26Z</time>
      </trkpt>
      <trkpt lat="42.5713730603" lon="0.9435718786">
        <ele>2053.51</ele>
        <time>2019-09-06T13:13:29Z</time>
      </trkpt>
      <trkpt lat="42.5714966934" lon="0.9436697792">
        <ele>2051.59</ele>
        <time>2019-09-06T13:13:42Z</time>
      </trkpt>
      <trkpt lat="42.5715813506" lon="0.9437212441">
        <ele>2050.63</ele>
        <time>2019-09-06T13:13:51Z</time>
      </trkpt>
      <trkpt lat="42.5716112740" lon="0.9437819291">
        <ele>2049.67</ele>
        <time>2019-09-06T13:14:00Z</time>
      </trkpt>
      <trkpt lat="42.5716326479" lon="0.9438491520">
        <ele>2049.19</ele>
        <time>2019-09-06T13:14:05Z</time>
      </trkpt>
      <trkpt lat="42.5716556981" lon="0.9438970126">
        <ele>2048.71</ele>
        <time>2019-09-06T13:14:08Z</time>
      </trkpt>
      <trkpt lat="42.5717134494" lon="0.9440247528">
        <ele>2046.78</ele>
        <time>2019-09-06T13:14:18Z</time>
      </trkpt>
      <trkpt lat="42.5718163792" lon="0.9440211486">
        <ele>2045.82</ele>
        <time>2019-09-06T13:14:27Z</time>
      </trkpt>
      <trkpt lat="42.5718943309" lon="0.9439060651">
        <ele>2044.86</ele>
        <time>2019-09-06T13:14:35Z</time>
      </trkpt>
      <trkpt lat="42.5719001982" lon="0.9438924026">
        <ele>2044.86</ele>
        <time>2019-09-06T13:14:36Z</time>
      </trkpt>
      <trkpt lat="42.5719818380" lon="0.9437070787">
        <ele>2042.94</ele>
        <time>2019-09-06T13:14:48Z</time>
      </trkpt>
      <trkpt lat="42.5719999429" lon="0.9435606468">
        <ele>2041.98</ele>
        <time>2019-09-06T13:14:57Z</time>
      </trkpt>
      <trkpt lat="42.5719762221" lon="0.9434837010">
        <ele>2041.02</ele>
        <time>2019-09-06T13:15:02Z</time>
      </trkpt>
      <trkpt lat="42.5719214045" lon="0.9434216749">
        <ele>2040.05</ele>
        <time>2019-09-06T13:15:08Z</time>
      </trkpt>
      <trkpt lat="42.5718056504" lon="0.9432927612">
        <ele>2038.61</ele>
        <time>2019-09-06T13:15:20Z</time>
      </trkpt>
      <trkpt lat="42.5718292873" lon="0.9432557970">
        <ele>2036.21</ele>
        <time>2019-09-06T13:15:28Z</time>
      </trkpt>
      <trkpt lat="42.5718899723" lon="0.9432116244">
        <ele>2035.25</ele>
        <time>2019-09-06T13:15:35Z</time>
      </trkpt>
      <trkpt lat="42.5718923192" lon="0.9431621712">
        <ele>2034.77</ele>
        <time>2019-09-06T13:15:38Z</time>
      </trkpt>
      <trkpt lat="42.5718536787" lon="0.9430646058">
        <ele>2033.33</ele>
        <time>2019-09-06T13:15:45Z</time>
      </trkpt>
      <trkpt lat="42.5717833545" lon="0.9429695550">
        <ele>2031.40</ele>
        <time>2019-09-06T13:15:55Z</time>
      </trkpt>
      <trkpt lat="42.5717619807" lon="0.9429019969">
        <ele>2031.40</ele>
        <time>2019-09-06T13:15:59Z</time>
      </trkpt>
      <trkpt lat="42.5717344880" lon="0.9427539725">
        <ele>2029.00</ele>
        <time>2019-09-06T13:16:10Z</time>
      </trkpt>
      <trkpt lat="42.5717669260" lon="0.9427305032">
        <ele>2028.04</ele>
        <time>2019-09-06T13:16:15Z</time>
      </trkpt>
      <trkpt lat="42.5718759745" lon="0.9427724965">
        <ele>2026.60</ele>
        <time>2019-09-06T13:16:25Z</time>
      </trkpt>
      <trkpt lat="42.5719033834" lon="0.9427659586">
        <ele>2026.12</ele>
        <time>2019-09-06T13:16:27Z</time>
      </trkpt>
      <trkpt lat="42.5720041338" lon="0.9427550621">
        <ele>2023.71</ele>
        <time>2019-09-06T13:16:39Z</time>
      </trkpt>
      <trkpt lat="42.5720319618" lon="0.9427194390">
        <ele>2023.71</ele>
        <time>2019-09-06T13:16:42Z</time>
      </trkpt>
      <trkpt lat="42.5720452890" lon="0.9426427446">
        <ele>2021.79</ele>
        <time>2019-09-06T13:16:53Z</time>
      </trkpt>
      <trkpt lat="42.5719991885" lon="0.9426320996">
        <ele>2021.31</ele>
        <time>2019-09-06T13:16:57Z</time>
      </trkpt>
      <trkpt lat="42.5719157048" lon="0.9425709117">
        <ele>2019.39</ele>
        <time>2019-09-06T13:17:07Z</time>
      </trkpt>
      <trkpt lat="42.5718843564" lon="0.9425108135">
        <ele>2018.91</ele>
        <time>2019-09-06T13:17:12Z</time>
      </trkpt>
      <trkpt lat="42.5718287844" lon="0.9423844144">
        <ele>2017.94</ele>
        <time>2019-09-06T13:17:21Z</time>
      </trkpt>
      <trkpt lat="42.5718049798" lon="0.9422766231">
        <ele>2016.50</ele>
        <time>2019-09-06T13:17:32Z</time>
      </trkpt>
      <trkpt lat="42.5718414411" lon="0.9422529861">
        <ele>2014.58</ele>
        <time>2019-09-06T13:17:41Z</time>
      </trkpt>
      <trkpt lat="42.5718690176" lon="0.9422559198">
        <ele>2014.10</ele>
        <time>2019-09-06T13:17:44Z</time>
      </trkpt>
      <trkpt lat="42.5719351508" lon="0.9422487952">
        <ele>2013.62</ele>
        <time>2019-09-06T13:17:54Z</time>
      </trkpt>
      <trkpt lat="42.5719848555" lon="0.9422517288">
        <ele>2012.66</ele>
        <time>2019-09-06T13:18:07Z</time>
      </trkpt>
      <trkpt lat="42.5720492285" lon="0.9422666486">
        <ele>2011.22</ele>
        <time>2019-09-06T13:18:22Z</time>
      </trkpt>
      <trkpt lat="42.5721407589" lon="0.9422989190">
        <ele>2009.77</ele>
        <time>2019-09-06T13:18:36Z</time>
      </trkpt>
      <trkpt lat="42.5722327083" lon="0.9423775412">
        <ele>2007.85</ele>
        <time>2019-09-06T13:18:46Z</time>
      </trkpt>
      <trkpt lat="42.5722409226" lon="0.9423865937">
        <ele>2007.85</ele>
        <time>2019-09-06T13:18:47Z</time>
      </trkpt>
      <trkpt lat="42.5722898729" lon="0.9424349573">
        <ele>2006.89</ele>
        <time>2019-09-06T13:18:52Z</time>
      </trkpt>
      <trkpt lat="42.5722991768" lon="0.9424466081">
        <ele>2006.41</ele>
        <time>2019-09-06T13:18:53Z</time>
      </trkpt>
      <trkpt lat="42.5723302737" lon="0.9425258171">
        <ele>2006.41</ele>
        <time>2019-09-06T13:18:59Z</time>
      </trkpt>
      <trkpt lat="42.5723696686" lon="0.9426554013">
        <ele>2005.93</ele>
        <time>2019-09-06T13:19:10Z</time>
      </trkpt>
      <trkpt lat="42.5724167749" lon="0.9426799603">
        <ele>2004.97</ele>
        <time>2019-09-06T13:19:21Z</time>
      </trkpt>
      <trkpt lat="42.5724154338" lon="0.9425612725">
        <ele>2003.52</ele>
        <time>2019-09-06T13:19:34Z</time>
      </trkpt>
      <trkpt lat="42.5724524818" lon="0.9425199497">
        <ele>2002.08</ele>
        <time>2019-09-06T13:19:44Z</time>
      </trkpt>
      <trkpt lat="42.5724765379" lon="0.9424435906">
        <ele>2000.64</ele>
        <time>2019-09-06T13:19:55Z</time>
      </trkpt>
      <trkpt lat="42.5724501349" lon="0.9424205404">
        <ele>2000.16</ele>
        <time>2019-09-06T13:20:16Z</time>
      </trkpt>
      <trkpt lat="42.5724615343" lon="0.9423855878">
        <ele>1999.68</ele>
        <time>2019-09-06T13:20:19Z</time>
      </trkpt>
      <trkpt lat="42.5724671502" lon="0.9423731826">
        <ele>1999.68</ele>
        <time>2019-09-06T13:20:20Z</time>
      </trkpt>
      <trkpt lat="42.5724776275" lon="0.9423478693">
        <ele>1999.20</ele>
        <time>2019-09-06T13:20:22Z</time>
      </trkpt>
      <trkpt lat="42.5725375582" lon="0.9422509745">
        <ele>1998.24</ele>
        <time>2019-09-06T13:20:31Z</time>
      </trkpt>
      <trkpt lat="42.5725635421" lon="0.9422461968">
        <ele>1998.24</ele>
        <time>2019-09-06T13:20:34Z</time>
      </trkpt>
      <trkpt lat="42.5725998357" lon="0.9422597755">
        <ele>1997.76</ele>
        <time>2019-09-06T13:20:44Z</time>
      </trkpt>
      <trkpt lat="42.5726004224" lon="0.9422654752">
        <ele>1997.28</ele>
        <time>2019-09-06T13:21:03Z</time>
      </trkpt>
      <trkpt lat="42.5726029370" lon="0.9422600269">
        <ele>1993.43</ele>
        <time>2019-09-06T13:21:10Z</time>
      </trkpt>
      <trkpt lat="42.5725909509" lon="0.9423026070">
        <ele>1954.98</ele>
        <time>2019-09-07T05:25:21Z</time>
      </trkpt>
      <trkpt lat="42.5726031885" lon="0.9422762040">
        <ele>1957.86</ele>
        <time>2019-09-07T05:25:38Z</time>
      </trkpt>
      <trkpt lat="42.5725708343" lon="0.9423478693">
        <ele>1959.78</ele>
        <time>2019-09-07T05:25:49Z</time>
      </trkpt>
      <trkpt lat="42.5725818146" lon="0.9422795568">
        <ele>1963.15</ele>
        <time>2019-09-07T05:26:01Z</time>
      </trkpt>
      <trkpt lat="42.5725207943" lon="0.9421902895">
        <ele>1966.03</ele>
        <time>2019-09-07T05:26:13Z</time>
      </trkpt>
      <trkpt lat="42.5724618696" lon="0.9420992620">
        <ele>1968.44</ele>
        <time>2019-09-07T05:26:23Z</time>
      </trkpt>
      <trkpt lat="42.5724535715" lon="0.9420876950">
        <ele>1968.44</ele>
        <time>2019-09-07T05:26:24Z</time>
      </trkpt>
      <trkpt lat="42.5724306051" lon="0.9420415107">
        <ele>1969.88</ele>
        <time>2019-09-07T05:26:28Z</time>
      </trkpt>
      <trkpt lat="42.5724239834" lon="0.9420311172">
        <ele>1970.36</ele>
        <time>2019-09-07T05:26:29Z</time>
      </trkpt>
      <trkpt lat="42.5723284297" lon="0.9419578593">
        <ele>1972.76</ele>
        <time>2019-09-07T05:26:39Z</time>
      </trkpt>
      <trkpt lat="42.5723226462" lon="0.9419536684">
        <ele>1972.76</ele>
        <time>2019-09-07T05:26:40Z</time>
      </trkpt>
      <trkpt lat="42.5723136775" lon="0.9419535007">
        <ele>1972.76</ele>
        <time>2019-09-07T05:26:41Z</time>
      </trkpt>
      <trkpt lat="42.5722882804" lon="0.9419487230">
        <ele>1973.72</ele>
        <time>2019-09-07T05:26:43Z</time>
      </trkpt>
      <trkpt lat="42.5722429343" lon="0.9419253375">
        <ele>1976.13</ele>
        <time>2019-09-07T05:26:48Z</time>
      </trkpt>
      <trkpt lat="42.5721985102" lon="0.9419428557">
        <ele>1979.49</ele>
        <time>2019-09-07T05:26:54Z</time>
      </trkpt>
      <trkpt lat="42.5721477158" lon="0.9419228230">
        <ele>1981.90</ele>
        <time>2019-09-07T05:26:59Z</time>
      </trkpt>
      <trkpt lat="42.5721307006" lon="0.9418865293">
        <ele>1982.38</ele>
        <time>2019-09-07T05:27:01Z</time>
      </trkpt>
      <trkpt lat="42.5721220672" lon="0.9418660775">
        <ele>1982.38</ele>
        <time>2019-09-07T05:27:02Z</time>
      </trkpt>
      <trkpt lat="42.5721117575" lon="0.9418474697">
        <ele>1982.86</ele>
        <time>2019-09-07T05:27:03Z</time>
      </trkpt>
      <trkpt lat="42.5721020345" lon="0.9418260120">
        <ele>1983.34</ele>
        <time>2019-09-07T05:27:04Z</time>
      </trkpt>
      <trkpt lat="42.5720964186" lon="0.9418052249">
        <ele>1983.34</ele>
        <time>2019-09-07T05:27:05Z</time>
      </trkpt>
      <trkpt lat="42.5720905513" lon="0.9417805821">
        <ele>1983.82</ele>
        <time>2019-09-07T05:27:06Z</time>
      </trkpt>
      <trkpt lat="42.5720849354" lon="0.9417572804">
        <ele>1983.82</ele>
        <time>2019-09-07T05:27:07Z</time>
      </trkpt>
      <trkpt lat="42.5720755477" lon="0.9417179693">
        <ele>1983.82</ele>
        <time>2019-09-07T05:27:09Z</time>
      </trkpt>
      <trkpt lat="42.5720296148" lon="0.9415762313">
        <ele>1984.78</ele>
        <time>2019-09-07T05:27:19Z</time>
      </trkpt>
      <trkpt lat="42.5719831791" lon="0.9414163884">
        <ele>1984.30</ele>
        <time>2019-09-07T05:27:30Z</time>
      </trkpt>
      <trkpt lat="42.5719742104" lon="0.9413346648">
        <ele>1984.30</ele>
        <time>2019-09-07T05:27:34Z</time>
      </trkpt>
      <trkpt lat="42.5719141122" lon="0.9411152266">
        <ele>1983.82</ele>
        <time>2019-09-07T05:27:45Z</time>
      </trkpt>
      <trkpt lat="42.5718789920" lon="0.9409251250">
        <ele>1982.38</ele>
        <time>2019-09-07T05:27:56Z</time>
      </trkpt>
      <trkpt lat="42.5718562771" lon="0.9408293199">
        <ele>1981.41</ele>
        <time>2019-09-07T05:28:08Z</time>
      </trkpt>
      <trkpt lat="42.5718403514" lon="0.9407883324">
        <ele>1981.41</ele>
        <time>2019-09-07T05:28:12Z</time>
      </trkpt>
      <trkpt lat="42.5718354061" lon="0.9407776874">
        <ele>1981.41</ele>
        <time>2019-09-07T05:28:13Z</time>
      </trkpt>
      <trkpt lat="42.5717955921" lon="0.9406647831">
        <ele>1981.41</ele>
        <time>2019-09-07T05:28:22Z</time>
      </trkpt>
      <trkpt lat="42.5717910659" lon="0.9406491090">
        <ele>1981.41</ele>
        <time>2019-09-07T05:28:23Z</time>
      </trkpt>
      <trkpt lat="42.5717442110" lon="0.9405270685">
        <ele>1981.41</ele>
        <time>2019-09-07T05:28:32Z</time>
      </trkpt>
      <trkpt lat="42.5717207417" lon="0.9403709974">
        <ele>1979.49</ele>
        <time>2019-09-07T05:28:42Z</time>
      </trkpt>
      <trkpt lat="42.5717046484" lon="0.9403314348">
        <ele>1979.01</ele>
        <time>2019-09-07T05:28:45Z</time>
      </trkpt>
      <trkpt lat="42.5716970209" lon="0.9403146710">
        <ele>1979.01</ele>
        <time>2019-09-07T05:28:46Z</time>
      </trkpt>
      <trkpt lat="42.5716881361" lon="0.9403017629">
        <ele>1979.01</ele>
        <time>2019-09-07T05:28:47Z</time>
      </trkpt>
      <trkpt lat="42.5716782454" lon="0.9402898606">
        <ele>1979.01</ele>
        <time>2019-09-07T05:28:48Z</time>
      </trkpt>
      <trkpt lat="42.5716023892" lon="0.9401189536">
        <ele>1977.09</ele>
        <time>2019-09-07T05:28:58Z</time>
      </trkpt>
      <trkpt lat="42.5715450570" lon="0.9399427660">
        <ele>1975.17</ele>
        <time>2019-09-07T05:29:09Z</time>
      </trkpt>
      <trkpt lat="42.5714982022" lon="0.9398017824">
        <ele>1974.20</ele>
        <time>2019-09-07T05:29:18Z</time>
      </trkpt>
      <trkpt lat="42.5714195799" lon="0.9396228287">
        <ele>1972.28</ele>
        <time>2019-09-07T05:29:29Z</time>
      </trkpt>
      <trkpt lat="42.5713794306" lon="0.9395245928">
        <ele>1971.32</ele>
        <time>2019-09-07T05:29:35Z</time>
      </trkpt>
      <trkpt lat="42.5713724736" lon="0.9395119362">
        <ele>1970.84</ele>
        <time>2019-09-07T05:29:36Z</time>
      </trkpt>
      <trkpt lat="42.5713648461" lon="0.9395015426">
        <ele>1970.84</ele>
        <time>2019-09-07T05:29:37Z</time>
      </trkpt>
      <trkpt lat="42.5713560451" lon="0.9394928254">
        <ele>1970.84</ele>
        <time>2019-09-07T05:29:38Z</time>
      </trkpt>
      <trkpt lat="42.5713049155" lon="0.9393442143">
        <ele>1969.40</ele>
        <time>2019-09-07T05:29:49Z</time>
      </trkpt>
      <trkpt lat="42.5712987967" lon="0.9393012989">
        <ele>1969.40</ele>
        <time>2019-09-07T05:29:51Z</time>
      </trkpt>
      <trkpt lat="42.5712899957" lon="0.9392579645">
        <ele>1968.92</ele>
        <time>2019-09-07T05:29:53Z</time>
      </trkpt>
      <trkpt lat="42.5712842122" lon="0.9392429609">
        <ele>1968.44</ele>
        <time>2019-09-07T05:29:54Z</time>
      </trkpt>
      <trkpt lat="42.5712444820" lon="0.9391105268">
        <ele>1967.96</ele>
        <time>2019-09-07T05:30:04Z</time>
      </trkpt>
      <trkpt lat="42.5712045003" lon="0.9389242809">
        <ele>1966.51</ele>
        <time>2019-09-07T05:30:15Z</time>
      </trkpt>
      <trkpt lat="42.5711994711" lon="0.9389018174">
        <ele>1966.51</ele>
        <time>2019-09-07T05:30:16Z</time>
      </trkpt>
      <trkpt lat="42.5711975433" lon="0.9388809465">
        <ele>1966.03</ele>
        <time>2019-09-07T05:30:17Z</time>
      </trkpt>
      <trkpt lat="42.5711928494" lon="0.9388578124">
        <ele>1966.03</ele>
        <time>2019-09-07T05:30:18Z</time>
      </trkpt>
      <trkpt lat="42.5711862277" lon="0.9388391208">
        <ele>1966.03</ele>
        <time>2019-09-07T05:30:19Z</time>
      </trkpt>
      <trkpt lat="42.5711818691" lon="0.9388207644">
        <ele>1966.03</ele>
        <time>2019-09-07T05:30:20Z</time>
      </trkpt>
      <trkpt lat="42.5711772591" lon="0.9388010669">
        <ele>1966.03</ele>
        <time>2019-09-07T05:30:21Z</time>
      </trkpt>
      <trkpt lat="42.5711905863" lon="0.9386019129">
        <ele>1965.07</ele>
        <time>2019-09-07T05:30:31Z</time>
      </trkpt>
      <trkpt lat="42.5711800251" lon="0.9384823032">
        <ele>1964.11</ele>
        <time>2019-09-07T05:30:39Z</time>
      </trkpt>
      <trkpt lat="42.5711750798" lon="0.9384707361">
        <ele>1962.19</ele>
        <time>2019-09-07T05:30:48Z</time>
      </trkpt>
      <trkpt lat="42.5711469166" lon="0.9384546429">
        <ele>1962.19</ele>
        <time>2019-09-07T05:31:13Z</time>
      </trkpt>
      <trkpt lat="42.5711474195" lon="0.9385069460">
        <ele>1963.63</ele>
        <time>2019-09-07T05:31:31Z</time>
      </trkpt>
      <trkpt lat="42.5711227767" lon="0.9384001605">
        <ele>1963.63</ele>
        <time>2019-09-07T05:31:49Z</time>
      </trkpt>
      <trkpt lat="42.5710931048" lon="0.9382554051">
        <ele>1961.71</ele>
        <time>2019-09-07T05:32:03Z</time>
      </trkpt>
      <trkpt lat="42.5711148139" lon="0.9382570814">
        <ele>1961.23</ele>
        <time>2019-09-07T05:32:16Z</time>
      </trkpt>
      <trkpt lat="42.5711138919" lon="0.9382336959">
        <ele>1960.27</ele>
        <time>2019-09-07T05:32:28Z</time>
      </trkpt>
      <trkpt lat="42.5710681267" lon="0.9381321073">
        <ele>1958.34</ele>
        <time>2019-09-07T05:32:40Z</time>
      </trkpt>
      <trkpt lat="42.5709713995" lon="0.9380632080">
        <ele>1955.46</ele>
        <time>2019-09-07T05:32:53Z</time>
      </trkpt>
      <trkpt lat="42.5708889216" lon="0.9379389882">
        <ele>1953.54</ele>
        <time>2019-09-07T05:33:05Z</time>
      </trkpt>
      <trkpt lat="42.5708813779" lon="0.9379233140">
        <ele>1953.06</ele>
        <time>2019-09-07T05:33:06Z</time>
      </trkpt>
      <trkpt lat="42.5708039291" lon="0.9378435183">
        <ele>1950.65</ele>
        <time>2019-09-07T05:33:16Z</time>
      </trkpt>
      <trkpt lat="42.5707684737" lon="0.9377276804">
        <ele>1948.73</ele>
        <time>2019-09-07T05:33:25Z</time>
      </trkpt>
      <trkpt lat="42.5707577448" lon="0.9377061389">
        <ele>1948.25</ele>
        <time>2019-09-07T05:33:27Z</time>
      </trkpt>
      <trkpt lat="42.5707486086" lon="0.9376250021">
        <ele>1946.33</ele>
        <time>2019-09-07T05:33:33Z</time>
      </trkpt>
      <trkpt lat="42.5707641151" lon="0.9374707751">
        <ele>1944.88</ele>
        <time>2019-09-07T05:33:41Z</time>
      </trkpt>
      <trkpt lat="42.5707560685" lon="0.9373639897">
        <ele>1942.48</ele>
        <time>2019-09-07T05:33:51Z</time>
      </trkpt>
      <trkpt lat="42.5707240496" lon="0.9371809289">
        <ele>1941.04</ele>
        <time>2019-09-07T05:34:06Z</time>
      </trkpt>
      <trkpt lat="42.5707324315" lon="0.9370903205">
        <ele>1937.67</ele>
        <time>2019-09-07T05:34:22Z</time>
      </trkpt>
      <trkpt lat="42.5707278214" lon="0.9369488340">
        <ele>1935.27</ele>
        <time>2019-09-07T05:34:35Z</time>
      </trkpt>
      <trkpt lat="42.5707126502" lon="0.9368221834">
        <ele>1932.87</ele>
        <time>2019-09-07T05:34:47Z</time>
      </trkpt>
      <trkpt lat="42.5706992391" lon="0.9367284738">
        <ele>1930.46</ele>
        <time>2019-09-07T05:35:01Z</time>
      </trkpt>
      <trkpt lat="42.5706627779" lon="0.9366224427">
        <ele>1927.58</ele>
        <time>2019-09-07T05:35:14Z</time>
      </trkpt>
      <trkpt lat="42.5706177671" lon="0.9365842212">
        <ele>1925.18</ele>
        <time>2019-09-07T05:35:28Z</time>
      </trkpt>
      <trkpt lat="42.5705948006" lon="0.9365338460">
        <ele>1923.74</ele>
        <time>2019-09-07T05:35:33Z</time>
      </trkpt>
      <trkpt lat="42.5705376361" lon="0.9364377894">
        <ele>1921.81</ele>
        <time>2019-09-07T05:35:45Z</time>
      </trkpt>
      <trkpt lat="42.5705102272" lon="0.9364039265">
        <ele>1920.85</ele>
        <time>2019-09-07T05:35:48Z</time>
      </trkpt>
      <trkpt lat="42.5704423338" lon="0.9363745060">
        <ele>1919.89</ele>
        <time>2019-09-07T05:35:56Z</time>
      </trkpt>
      <trkpt lat="42.5703688245" lon="0.9363584127">
        <ele>1920.37</ele>
        <time>2019-09-07T05:36:07Z</time>
      </trkpt>
      <trkpt lat="42.5703487918" lon="0.9363518748">
        <ele>1920.37</ele>
        <time>2019-09-07T05:36:10Z</time>
      </trkpt>
      <trkpt lat="42.5703163538" lon="0.9363220353">
        <ele>1919.89</ele>
        <time>2019-09-07T05:36:14Z</time>
      </trkpt>
      <trkpt lat="42.5703182817" lon="0.9362492803">
        <ele>1917.97</ele>
        <time>2019-09-07T05:36:28Z</time>
      </trkpt>
      <trkpt lat="42.5703283399" lon="0.9361945465">
        <ele>1917.97</ele>
        <time>2019-09-07T05:36:30Z</time>
      </trkpt>
      <trkpt lat="42.5702817366" lon="0.9360017627">
        <ele>1917.01</ele>
        <time>2019-09-07T05:36:42Z</time>
      </trkpt>
      <trkpt lat="42.5702769589" lon="0.9359761979">
        <ele>1917.01</ele>
        <time>2019-09-07T05:36:44Z</time>
      </trkpt>
      <trkpt lat="42.5702580996" lon="0.9358624555">
        <ele>1917.01</ele>
        <time>2019-09-07T05:36:52Z</time>
      </trkpt>
      <trkpt lat="42.5702502206" lon="0.9358003456">
        <ele>1917.01</ele>
        <time>2019-09-07T05:37:00Z</time>
      </trkpt>
      <trkpt lat="42.5702283438" lon="0.9357697517">
        <ele>1916.04</ele>
        <time>2019-09-07T05:37:04Z</time>
      </trkpt>
      <trkpt lat="42.5702492986" lon="0.9356179554">
        <ele>1915.56</ele>
        <time>2019-09-07T05:37:14Z</time>
      </trkpt>
      <trkpt lat="42.5703751948" lon="0.9355716873">
        <ele>1916.53</ele>
        <time>2019-09-07T05:37:28Z</time>
      </trkpt>
      <trkpt lat="42.5704050343" lon="0.9355547559">
        <ele>1916.53</ele>
        <time>2019-09-07T05:37:31Z</time>
      </trkpt>
      <trkpt lat="42.5704723410" lon="0.9355603717">
        <ele>1916.53</ele>
        <time>2019-09-07T05:37:40Z</time>
      </trkpt>
      <trkpt lat="42.5704931282" lon="0.9355558455">
        <ele>1917.01</ele>
        <time>2019-09-07T05:37:42Z</time>
      </trkpt>
      <trkpt lat="42.5705866702" lon="0.9355911333">
        <ele>1917.97</ele>
        <time>2019-09-07T05:37:51Z</time>
      </trkpt>
      <trkpt lat="42.5706134085" lon="0.9356349707">
        <ele>1918.45</ele>
        <time>2019-09-07T05:37:55Z</time>
      </trkpt>
      <trkpt lat="42.5706822239" lon="0.9357460309">
        <ele>1919.41</ele>
        <time>2019-09-07T05:38:04Z</time>
      </trkpt>
      <trkpt lat="42.5706931204" lon="0.9358026087">
        <ele>1919.89</ele>
        <time>2019-09-07T05:38:08Z</time>
      </trkpt>
      <trkpt lat="42.5707544759" lon="0.9358304366">
        <ele>1920.85</ele>
        <time>2019-09-07T05:38:17Z</time>
      </trkpt>
      <trkpt lat="42.5707726646" lon="0.9358408302">
        <ele>1920.85</ele>
        <time>2019-09-07T05:38:19Z</time>
      </trkpt>
      <trkpt lat="42.5708183460" lon="0.9359044489">
        <ele>1921.81</ele>
        <time>2019-09-07T05:38:26Z</time>
      </trkpt>
      <trkpt lat="42.5708872452" lon="0.9359756112">
        <ele>1922.77</ele>
        <time>2019-09-07T05:38:36Z</time>
      </trkpt>
      <trkpt lat="42.5708998181" lon="0.9359895252">
        <ele>1922.77</ele>
        <time>2019-09-07T05:38:38Z</time>
      </trkpt>
      <trkpt lat="42.5709251314" lon="0.9360191971">
        <ele>1922.29</ele>
        <time>2019-09-07T05:38:41Z</time>
      </trkpt>
      <trkpt lat="42.5710146502" lon="0.9360045288">
        <ele>1922.77</ele>
        <time>2019-09-07T05:38:53Z</time>
      </trkpt>
      <trkpt lat="42.5711295661" lon="0.9359974042">
        <ele>1925.18</ele>
        <time>2019-09-07T05:39:06Z</time>
      </trkpt>
      <trkpt lat="42.5711829588" lon="0.9360422473">
        <ele>1925.66</ele>
        <time>2019-09-07T05:39:14Z</time>
      </trkpt>
      <trkpt lat="42.5712319091" lon="0.9360262379">
        <ele>1927.10</ele>
        <time>2019-09-07T05:39:20Z</time>
      </trkpt>
      <trkpt lat="42.5713011436" lon="0.9360584244">
        <ele>1928.06</ele>
        <time>2019-09-07T05:39:29Z</time>
      </trkpt>
      <trkpt lat="42.5713500939" lon="0.9360807203">
        <ele>1929.98</ele>
        <time>2019-09-07T05:39:41Z</time>
      </trkpt>
      <trkpt lat="42.5713976193" lon="0.9360778704">
        <ele>1932.39</ele>
        <time>2019-09-07T05:39:52Z</time>
      </trkpt>
      <trkpt lat="42.5714864675" lon="0.9360430017">
        <ele>1935.27</ele>
        <time>2019-09-07T05:40:07Z</time>
      </trkpt>
      <trkpt lat="42.5715935882" lon="0.9360171854">
        <ele>1937.19</ele>
        <time>2019-09-07T05:40:25Z</time>
      </trkpt>
      <trkpt lat="42.5716834422" lon="0.9360083845">
        <ele>1940.08</ele>
        <time>2019-09-07T05:40:40Z</time>
      </trkpt>
      <trkpt lat="42.5717745535" lon="0.9360378049">
        <ele>1942.00</ele>
        <time>2019-09-07T05:40:54Z</time>
      </trkpt>
      <trkpt lat="42.5718530919" lon="0.9360753559">
        <ele>1944.40</ele>
        <time>2019-09-07T05:41:08Z</time>
      </trkpt>
      <trkpt lat="42.5719162915" lon="0.9361173492">
        <ele>1947.29</ele>
        <time>2019-09-07T05:41:21Z</time>
      </trkpt>
      <trkpt lat="42.5719893817" lon="0.9361278266">
        <ele>1950.17</ele>
        <time>2019-09-07T05:41:37Z</time>
      </trkpt>
      <trkpt lat="42.5720449537" lon="0.9361721668">
        <ele>1952.57</ele>
        <time>2019-09-07T05:41:50Z</time>
      </trkpt>
      <trkpt lat="42.5721031241" lon="0.9361925349">
        <ele>1955.94</ele>
        <time>2019-09-07T05:42:03Z</time>
      </trkpt>
      <trkpt lat="42.5721659884" lon="0.9362438321">
        <ele>1959.30</ele>
        <time>2019-09-07T05:42:17Z</time>
      </trkpt>
      <trkpt lat="42.5721849315" lon="0.9361823928">
        <ele>1960.75</ele>
        <time>2019-09-07T05:42:29Z</time>
      </trkpt>
      <trkpt lat="42.5722009409" lon="0.9361300897">
        <ele>1962.19</ele>
        <time>2019-09-07T05:42:45Z</time>
      </trkpt>
      <trkpt lat="42.5722154416" lon="0.9360948019">
        <ele>1965.07</ele>
        <time>2019-09-07T05:42:57Z</time>
      </trkpt>
      <trkpt lat="42.5722136814" lon="0.9360310156">
        <ele>1966.99</ele>
        <time>2019-09-07T05:43:11Z</time>
      </trkpt>
      <trkpt lat="42.5721913017" lon="0.9359438438">
        <ele>1969.88</ele>
        <time>2019-09-07T05:43:32Z</time>
      </trkpt>
      <trkpt lat="42.5722070597" lon="0.9358743578">
        <ele>1971.80</ele>
        <time>2019-09-07T05:43:48Z</time>
      </trkpt>
      <trkpt lat="42.5722411741" lon="0.9358280897">
        <ele>1974.20</ele>
        <time>2019-09-07T05:44:04Z</time>
      </trkpt>
      <trkpt lat="42.5723017752" lon="0.9358249884">
        <ele>1976.61</ele>
        <time>2019-09-07T05:44:22Z</time>
      </trkpt>
      <trkpt lat="42.5723100733" lon="0.9357528202">
        <ele>1978.53</ele>
        <time>2019-09-07T05:44:35Z</time>
      </trkpt>
      <trkpt lat="42.5723658130" lon="0.9357578494">
        <ele>1981.41</ele>
        <time>2019-09-07T05:44:53Z</time>
      </trkpt>
      <trkpt lat="42.5724586844" lon="0.9357326198">
        <ele>1984.30</ele>
        <time>2019-09-07T05:45:14Z</time>
      </trkpt>
      <trkpt lat="42.5725095626" lon="0.9357083123">
        <ele>1986.22</ele>
        <time>2019-09-07T05:45:27Z</time>
      </trkpt>
      <trkpt lat="42.5725611951" lon="0.9356886987">
        <ele>1988.14</ele>
        <time>2019-09-07T05:45:40Z</time>
      </trkpt>
      <trkpt lat="42.5726029370" lon="0.9356940631">
        <ele>1989.59</ele>
        <time>2019-09-07T05:45:50Z</time>
      </trkpt>
      <trkpt lat="42.5726140011" lon="0.9356313664">
        <ele>1991.03</ele>
        <time>2019-09-07T05:46:02Z</time>
      </trkpt>
      <trkpt lat="42.5726404879" lon="0.9356130101">
        <ele>1992.95</ele>
        <time>2019-09-07T05:46:16Z</time>
      </trkpt>
      <trkpt lat="42.5726665556" lon="0.9355871100">
        <ele>1995.35</ele>
        <time>2019-09-07T05:46:30Z</time>
      </trkpt>
      <trkpt lat="42.5726889353" lon="0.9355675802">
        <ele>1997.28</ele>
        <time>2019-09-07T05:46:42Z</time>
      </trkpt>
      <trkpt lat="42.5727384724" lon="0.9355967492">
        <ele>1998.72</ele>
        <time>2019-09-07T05:46:56Z</time>
      </trkpt>
      <trkpt lat="42.5727612711" lon="0.9355712682">
        <ele>2000.16</ele>
        <time>2019-09-07T05:47:06Z</time>
      </trkpt>
      <trkpt lat="42.5727869198" lon="0.9355799016">
        <ele>2001.60</ele>
        <time>2019-09-07T05:47:18Z</time>
      </trkpt>
      <trkpt lat="42.5728434976" lon="0.9355708491">
        <ele>2004.01</ele>
        <time>2019-09-07T05:47:30Z</time>
      </trkpt>
      <trkpt lat="42.5729025062" lon="0.9355534147">
        <ele>2006.41</ele>
        <time>2019-09-07T05:47:43Z</time>
      </trkpt>
      <trkpt lat="42.5729349442" lon="0.9354827553">
        <ele>2009.29</ele>
        <time>2019-09-07T05:47:58Z</time>
      </trkpt>
      <trkpt lat="42.5729384646" lon="0.9354088269">
        <ele>2010.73</ele>
        <time>2019-09-07T05:48:09Z</time>
      </trkpt>
      <trkpt lat="42.5729885884" lon="0.9354020376">
        <ele>2012.18</ele>
        <time>2019-09-07T05:48:21Z</time>
      </trkpt>
      <trkpt lat="42.5730280671" lon="0.9353799094">
        <ele>2014.10</ele>
        <time>2019-09-07T05:48:32Z</time>
      </trkpt>
      <trkpt lat="42.5730956253" lon="0.9353929013">
        <ele>2016.98</ele>
        <time>2019-09-07T05:48:48Z</time>
      </trkpt>
      <trkpt lat="42.5731468387" lon="0.9354011994">
        <ele>2018.91</ele>
        <time>2019-09-07T05:48:58Z</time>
      </trkpt>
      <trkpt lat="42.5732150674" lon="0.9354338050">
        <ele>2020.35</ele>
        <time>2019-09-07T05:49:11Z</time>
      </trkpt>
      <trkpt lat="42.5732624251" lon="0.9354086593">
        <ele>2022.75</ele>
        <time>2019-09-07T05:49:23Z</time>
      </trkpt>
      <trkpt lat="42.5732516963" lon="0.9353829268">
        <ele>2023.71</ele>
        <time>2019-09-07T05:49:37Z</time>
      </trkpt>
      <trkpt lat="42.5732641015" lon="0.9353432804">
        <ele>2025.64</ele>
        <time>2019-09-07T05:49:51Z</time>
      </trkpt>
      <trkpt lat="42.5733157340" lon="0.9353534225">
        <ele>2027.08</ele>
        <time>2019-09-07T05:50:02Z</time>
      </trkpt>
      <trkpt lat="42.5733649358" lon="0.9353521653">
        <ele>2029.00</ele>
        <time>2019-09-07T05:50:14Z</time>
      </trkpt>
      <trkpt lat="42.5734101981" lon="0.9353507403">
        <ele>2031.40</ele>
        <time>2019-09-07T05:50:25Z</time>
      </trkpt>
      <trkpt lat="42.5734511856" lon="0.9353299532">
        <ele>2033.81</ele>
        <time>2019-09-07T05:50:39Z</time>
      </trkpt>
      <trkpt lat="42.5735035725" lon="0.9353147820">
        <ele>2035.73</ele>
        <time>2019-09-07T05:50:53Z</time>
      </trkpt>
      <trkpt lat="42.5735344179" lon="0.9353262652">
        <ele>2036.21</ele>
        <time>2019-09-07T05:51:04Z</time>
      </trkpt>
      <trkpt lat="42.5735355914" lon="0.9353390895">
        <ele>2037.17</ele>
        <time>2019-09-07T05:51:21Z</time>
      </trkpt>
      <trkpt lat="42.5735410396" lon="0.9353419393">
        <ele>2037.17</ele>
        <time>2019-09-07T05:51:38Z</time>
      </trkpt>
      <trkpt lat="42.5735519361" lon="0.9353391733">
        <ele>2036.21</ele>
        <time>2019-09-07T05:51:57Z</time>
      </trkpt>
      <trkpt lat="42.5735936780" lon="0.9353348985">
        <ele>2036.21</ele>
        <time>2019-09-07T05:52:12Z</time>
      </trkpt>
      <trkpt lat="42.5736455619" lon="0.9353288636">
        <ele>2038.13</ele>
        <time>2019-09-07T05:52:26Z</time>
      </trkpt>
      <trkpt lat="42.5737082586" lon="0.9353256784">
        <ele>2040.05</ele>
        <time>2019-09-07T05:52:37Z</time>
      </trkpt>
      <trkpt lat="42.5737545267" lon="0.9353184700">
        <ele>2041.98</ele>
        <time>2019-09-07T05:52:48Z</time>
      </trkpt>
      <trkpt lat="42.5737556163" lon="0.9352840204">
        <ele>2043.42</ele>
        <time>2019-09-07T05:52:58Z</time>
      </trkpt>
      <trkpt lat="42.5737206638" lon="0.9352255147">
        <ele>2045.34</ele>
        <time>2019-09-07T05:53:10Z</time>
      </trkpt>
      <trkpt lat="42.5736801792" lon="0.9351535980">
        <ele>2047.26</ele>
        <time>2019-09-07T05:53:23Z</time>
      </trkpt>
      <trkpt lat="42.5736647565" lon="0.9350924101">
        <ele>2048.23</ele>
        <time>2019-09-07T05:53:34Z</time>
      </trkpt>
      <trkpt lat="42.5736371800" lon="0.9350132849">
        <ele>2050.15</ele>
        <time>2019-09-07T05:53:51Z</time>
      </trkpt>
      <trkpt lat="42.5736905728" lon="0.9350199066">
        <ele>2051.59</ele>
        <time>2019-09-07T05:54:04Z</time>
      </trkpt>
      <trkpt lat="42.5737039000" lon="0.9350244328">
        <ele>2052.07</ele>
        <time>2019-09-07T05:54:20Z</time>
      </trkpt>
      <trkpt lat="42.5737119466" lon="0.9350267798">
        <ele>2052.07</ele>
        <time>2019-09-07T05:54:43Z</time>
      </trkpt>
      <trkpt lat="42.5737312250" lon="0.9350419510">
        <ele>2053.03</ele>
        <time>2019-09-07T05:55:04Z</time>
      </trkpt>
      <trkpt lat="42.5737474021" lon="0.9349953476">
        <ele>2053.99</ele>
        <time>2019-09-07T05:55:15Z</time>
      </trkpt>
      <trkpt lat="42.5737410318" lon="0.9349313937">
        <ele>2056.40</ele>
        <time>2019-09-07T05:55:29Z</time>
      </trkpt>
      <trkpt lat="42.5737924967" lon="0.9348941781">
        <ele>2058.80</ele>
        <time>2019-09-07T05:55:41Z</time>
      </trkpt>
      <trkpt lat="42.5738396868" lon="0.9348436352">
        <ele>2061.68</ele>
        <time>2019-09-07T05:55:58Z</time>
      </trkpt>
      <trkpt lat="42.5738838594" lon="0.9348531906">
        <ele>2062.65</ele>
        <time>2019-09-07T05:56:10Z</time>
      </trkpt>
      <trkpt lat="42.5739218295" lon="0.9348381031">
        <ele>2064.09</ele>
        <time>2019-09-07T05:56:21Z</time>
      </trkpt>
      <trkpt lat="42.5739658345" lon="0.9348137956">
        <ele>2066.01</ele>
        <time>2019-09-07T05:56:33Z</time>
      </trkpt>
      <trkpt lat="42.5739887170" lon="0.9347891528">
        <ele>2066.49</ele>
        <time>2019-09-07T05:56:42Z</time>
      </trkpt>
      <trkpt lat="42.5739920698" lon="0.9347372688">
        <ele>2068.41</ele>
        <time>2019-09-07T05:56:54Z</time>
      </trkpt>
      <trkpt lat="42.5740073249" lon="0.9347048309">
        <ele>2069.86</ele>
        <time>2019-09-07T05:57:03Z</time>
      </trkpt>
      <trkpt lat="42.5740421098" lon="0.9346465766">
        <ele>2072.26</ele>
        <time>2019-09-07T05:57:16Z</time>
      </trkpt>
      <trkpt lat="42.5740578678" lon="0.9346460737">
        <ele>2073.22</ele>
        <time>2019-09-07T05:57:27Z</time>
      </trkpt>
      <trkpt lat="42.5740601309" lon="0.9346345067">
        <ele>2073.22</ele>
        <time>2019-09-07T05:57:55Z</time>
      </trkpt>
      <trkpt lat="42.5740877911" lon="0.9346465766">
        <ele>2073.22</ele>
        <time>2019-09-07T05:58:10Z</time>
      </trkpt>
      <trkpt lat="42.5741284434" lon="0.9346477501">
        <ele>2074.18</ele>
        <time>2019-09-07T05:58:21Z</time>
      </trkpt>
      <trkpt lat="42.5741793215" lon="0.9346392006">
        <ele>2075.62</ele>
        <time>2019-09-07T05:58:32Z</time>
      </trkpt>
      <trkpt lat="42.5742168725" lon="0.9346221853">
        <ele>2077.55</ele>
        <time>2019-09-07T05:58:45Z</time>
      </trkpt>
      <trkpt lat="42.5742340554" lon="0.9345976263">
        <ele>2079.47</ele>
        <time>2019-09-07T05:58:58Z</time>
      </trkpt>
      <trkpt lat="42.5742289424" lon="0.9345538728">
        <ele>2080.43</ele>
        <time>2019-09-07T05:59:08Z</time>
      </trkpt>
      <trkpt lat="42.5742141064" lon="0.9345138911">
        <ele>2081.87</ele>
        <time>2019-09-07T05:59:20Z</time>
      </trkpt>
      <trkpt lat="42.5742355641" lon="0.9345053416">
        <ele>2082.83</ele>
        <time>2019-09-07T05:59:32Z</time>
      </trkpt>
      <trkpt lat="42.5742712710" lon="0.9344698023">
        <ele>2084.76</ele>
        <time>2019-09-07T05:59:43Z</time>
      </trkpt>
      <trkpt lat="42.5742752943" lon="0.9344190918">
        <ele>2085.72</ele>
        <time>2019-09-07T05:59:54Z</time>
      </trkpt>
      <trkpt lat="42.5742814131" lon="0.9343828820">
        <ele>2087.16</ele>
        <time>2019-09-07T06:00:03Z</time>
      </trkpt>
      <trkpt lat="42.5742964167" lon="0.9343264718">
        <ele>2089.08</ele>
        <time>2019-09-07T06:00:15Z</time>
      </trkpt>
      <trkpt lat="42.5743359793" lon="0.9342541359">
        <ele>2090.52</ele>
        <time>2019-09-07T06:00:29Z</time>
      </trkpt>
      <trkpt lat="42.5743745361" lon="0.9342077840">
        <ele>2092.45</ele>
        <time>2019-09-07T06:00:43Z</time>
      </trkpt>
      <trkpt lat="42.5743891206" lon="0.9341625217">
        <ele>2094.37</ele>
        <time>2019-09-07T06:00:55Z</time>
      </trkpt>
      <trkpt lat="42.5744012743" lon="0.9341014177">
        <ele>2095.33</ele>
        <time>2019-09-07T06:01:06Z</time>
      </trkpt>
      <trkpt lat="42.5744360592" lon="0.9340693150">
        <ele>2096.77</ele>
        <time>2019-09-07T06:01:18Z</time>
      </trkpt>
      <trkpt lat="42.5744649768" lon="0.9340201132">
        <ele>2098.21</ele>
        <time>2019-09-07T06:01:28Z</time>
      </trkpt>
      <trkpt lat="42.5745279249" lon="0.9339775331">
        <ele>2099.66</ele>
        <time>2019-09-07T06:01:42Z</time>
      </trkpt>
      <trkpt lat="42.5745368097" lon="0.9339233860">
        <ele>2101.10</ele>
        <time>2019-09-07T06:01:53Z</time>
      </trkpt>
      <trkpt lat="42.5745760370" lon="0.9338903613">
        <ele>2102.54</ele>
        <time>2019-09-07T06:02:05Z</time>
      </trkpt>
      <trkpt lat="42.5745932199" lon="0.9338326100">
        <ele>2103.98</ele>
        <time>2019-09-07T06:02:16Z</time>
      </trkpt>
      <trkpt lat="42.5746287592" lon="0.9337513056">
        <ele>2105.42</ele>
        <time>2019-09-07T06:02:27Z</time>
      </trkpt>
      <trkpt lat="42.5746445172" lon="0.9336953145">
        <ele>2106.87</ele>
        <time>2019-09-07T06:02:38Z</time>
      </trkpt>
      <trkpt lat="42.5746439304" lon="0.9336500522">
        <ele>2109.75</ele>
        <time>2019-09-07T06:02:54Z</time>
      </trkpt>
      <trkpt lat="42.5746350456" lon="0.9336024430">
        <ele>2110.23</ele>
        <time>2019-09-07T06:03:06Z</time>
      </trkpt>
      <trkpt lat="42.5746475346" lon="0.9335245751">
        <ele>2113.12</ele>
        <time>2019-09-07T06:03:21Z</time>
      </trkpt>
      <trkpt lat="42.5746639632" lon="0.9334489703">
        <ele>2115.04</ele>
        <time>2019-09-07T06:03:34Z</time>
      </trkpt>
      <trkpt lat="42.5746916234" lon="0.9333825018">
        <ele>2116.00</ele>
        <time>2019-09-07T06:03:51Z</time>
      </trkpt>
      <trkpt lat="42.5746832415" lon="0.9332819190">
        <ele>2118.40</ele>
        <time>2019-09-07T06:04:04Z</time>
      </trkpt>
      <trkpt lat="42.5746954791" lon="0.9332353994">
        <ele>2118.40</ele>
        <time>2019-09-07T06:04:09Z</time>
      </trkpt>
      <trkpt lat="42.5747453514" lon="0.9331203159">
        <ele>2118.40</ele>
        <time>2019-09-07T06:04:21Z</time>
      </trkpt>
      <trkpt lat="42.5747413281" lon="0.9330511652">
        <ele>2119.84</ele>
        <time>2019-09-07T06:04:33Z</time>
      </trkpt>
      <trkpt lat="42.5748076290" lon="0.9329488222">
        <ele>2119.36</ele>
        <time>2019-09-07T06:04:46Z</time>
      </trkpt>
      <trkpt lat="42.5748684816" lon="0.9328955133">
        <ele>2120.32</ele>
        <time>2019-09-07T06:04:54Z</time>
      </trkpt>
      <trkpt lat="42.5749170128" lon="0.9328078385">
        <ele>2121.77</ele>
        <time>2019-09-07T06:05:06Z</time>
      </trkpt>
      <trkpt lat="42.5749224611" lon="0.9327271208">
        <ele>2121.77</ele>
        <time>2019-09-07T06:05:15Z</time>
      </trkpt>
      <trkpt lat="42.5748963095" lon="0.9326346684">
        <ele>2122.25</ele>
        <time>2019-09-07T06:05:26Z</time>
      </trkpt>
      <trkpt lat="42.5749283284" lon="0.9325643443">
        <ele>2123.21</ele>
        <time>2019-09-07T06:05:36Z</time>
      </trkpt>
      <trkpt lat="42.5749286637" lon="0.9324558824">
        <ele>2123.69</ele>
        <time>2019-09-07T06:05:46Z</time>
      </trkpt>
      <trkpt lat="42.5749251433" lon="0.9324462432">
        <ele>2123.69</ele>
        <time>2019-09-07T06:05:47Z</time>
      </trkpt>
      <trkpt lat="42.5749246404" lon="0.9324187506">
        <ele>2124.65</ele>
        <time>2019-09-07T06:05:50Z</time>
      </trkpt>
      <trkpt lat="42.5749600120" lon="0.9323458280">
        <ele>2127.05</ele>
        <time>2019-09-07T06:05:57Z</time>
      </trkpt>
      <trkpt lat="42.5750067830" lon="0.9322397970">
        <ele>2128.02</ele>
        <time>2019-09-07T06:06:06Z</time>
      </trkpt>
      <trkpt lat="42.5750237983" lon="0.9321257193">
        <ele>2127.53</ele>
        <time>2019-09-07T06:06:18Z</time>
      </trkpt>
      <trkpt lat="42.5750023406" lon="0.9320481028">
        <ele>2128.02</ele>
        <time>2019-09-07T06:06:27Z</time>
      </trkpt>
      <trkpt lat="42.5749866664" lon="0.9319581650">
        <ele>2128.50</ele>
        <time>2019-09-07T06:06:38Z</time>
      </trkpt>
      <trkpt lat="42.5749891810" lon="0.9318412375">
        <ele>2128.50</ele>
        <time>2019-09-07T06:06:49Z</time>
      </trkpt>
      <trkpt lat="42.5749887619" lon="0.9317568317">
        <ele>2129.46</ele>
        <time>2019-09-07T06:06:58Z</time>
      </trkpt>
      <trkpt lat="42.5749860797" lon="0.9317114856">
        <ele>2131.38</ele>
        <time>2019-09-07T06:07:09Z</time>
      </trkpt>
      <trkpt lat="42.5749917794" lon="0.9316527285">
        <ele>2132.34</ele>
        <time>2019-09-07T06:07:22Z</time>
      </trkpt>
      <trkpt lat="42.5750171766" lon="0.9316032752">
        <ele>2134.26</ele>
        <time>2019-09-07T06:07:36Z</time>
      </trkpt>
      <trkpt lat="42.5750816334" lon="0.9314618725">
        <ele>2136.67</ele>
        <time>2019-09-07T06:07:49Z</time>
      </trkpt>
      <trkpt lat="42.5751004927" lon="0.9313334618">
        <ele>2137.63</ele>
        <time>2019-09-07T06:08:01Z</time>
      </trkpt>
      <trkpt lat="42.5750813819" lon="0.9312628023">
        <ele>2138.59</ele>
        <time>2019-09-07T06:08:11Z</time>
      </trkpt>
      <trkpt lat="42.5750788674" lon="0.9311756305">
        <ele>2139.07</ele>
        <time>2019-09-07T06:08:16Z</time>
      </trkpt>
      <trkpt lat="42.5750776101" lon="0.9310886264">
        <ele>2138.59</ele>
        <time>2019-09-07T06:08:21Z</time>
      </trkpt>
      <trkpt lat="42.5751185138" lon="0.9309568629">
        <ele>2139.55</ele>
        <time>2019-09-07T06:08:31Z</time>
      </trkpt>
      <trkpt lat="42.5751694757" lon="0.9308089223">
        <ele>2141.47</ele>
        <time>2019-09-07T06:08:43Z</time>
      </trkpt>
      <trkpt lat="42.5751713198" lon="0.9307939187">
        <ele>2141.47</ele>
        <time>2019-09-07T06:08:44Z</time>
      </trkpt>
      <trkpt lat="42.5751788635" lon="0.9307652526">
        <ele>2141.47</ele>
        <time>2019-09-07T06:08:46Z</time>
      </trkpt>
      <trkpt lat="42.5752263051" lon="0.9306244366">
        <ele>2140.99</ele>
        <time>2019-09-07T06:08:57Z</time>
      </trkpt>
      <trkpt lat="42.5752277300" lon="0.9305389412">
        <ele>2140.03</ele>
        <time>2019-09-07T06:09:04Z</time>
      </trkpt>
      <trkpt lat="42.5752299093" lon="0.9304347541">
        <ele>2139.55</ele>
        <time>2019-09-07T06:09:10Z</time>
      </trkpt>
      <trkpt lat="42.5752284843" lon="0.9303586464">
        <ele>2138.59</ele>
        <time>2019-09-07T06:09:15Z</time>
      </trkpt>
      <trkpt lat="42.5752405543" lon="0.9303243645">
        <ele>2138.59</ele>
        <time>2019-09-07T06:09:17Z</time>
      </trkpt>
      <trkpt lat="42.5753101241" lon="0.9301825427">
        <ele>2138.11</ele>
        <time>2019-09-07T06:09:31Z</time>
      </trkpt>
      <trkpt lat="42.5753186736" lon="0.9301568940">
        <ele>2138.59</ele>
        <time>2019-09-07T06:09:38Z</time>
      </trkpt>
      <trkpt lat="42.5753329229" lon="0.9301300719">
        <ele>2138.59</ele>
        <time>2019-09-07T06:09:40Z</time>
      </trkpt>
      <trkpt lat="42.5753812864" lon="0.9300166648">
        <ele>2139.07</ele>
        <time>2019-09-07T06:09:51Z</time>
      </trkpt>
      <trkpt lat="42.5754098687" lon="0.9299768507">
        <ele>2138.59</ele>
        <time>2019-09-07T06:09:57Z</time>
      </trkpt>
      <trkpt lat="42.5754386187" lon="0.9298849013">
        <ele>2138.59</ele>
        <time>2019-09-07T06:10:04Z</time>
      </trkpt>
      <trkpt lat="42.5754599925" lon="0.9298473503">
        <ele>2139.07</ele>
        <time>2019-09-07T06:10:08Z</time>
      </trkpt>
      <trkpt lat="42.5755272154" lon="0.9298139904">
        <ele>2139.07</ele>
        <time>2019-09-07T06:10:14Z</time>
      </trkpt>
      <trkpt lat="42.5756336655" lon="0.9296401497">
        <ele>2139.55</ele>
        <time>2019-09-07T06:10:29Z</time>
      </trkpt>
      <trkpt lat="42.5756477471" lon="0.9295761120">
        <ele>2140.03</ele>
        <time>2019-09-07T06:10:33Z</time>
      </trkpt>
      <trkpt lat="42.5756648462" lon="0.9295358788">
        <ele>2140.51</ele>
        <time>2019-09-07T06:10:45Z</time>
      </trkpt>
      <trkpt lat="42.5756759942" lon="0.9294787981">
        <ele>2140.51</ele>
        <time>2019-09-07T06:10:50Z</time>
      </trkpt>
      <trkpt lat="42.5757000502" lon="0.9293818194">
        <ele>2141.95</ele>
        <time>2019-09-07T06:11:02Z</time>
      </trkpt>
      <trkpt lat="42.5757171493" lon="0.9293492138">
        <ele>2142.92</ele>
        <time>2019-09-07T06:11:12Z</time>
      </trkpt>
      <trkpt lat="42.5757220108" lon="0.9293162730">
        <ele>2143.88</ele>
        <time>2019-09-07T06:11:23Z</time>
      </trkpt>
      <trkpt lat="42.5757193286" lon="0.9292795602">
        <ele>2145.80</ele>
        <time>2019-09-07T06:11:40Z</time>
      </trkpt>
      <trkpt lat="42.5757807679" lon="0.9291943163">
        <ele>2147.24</ele>
        <time>2019-09-07T06:11:52Z</time>
      </trkpt>
      <trkpt lat="42.5758405309" lon="0.9291169513">
        <ele>2148.20</ele>
        <time>2019-09-07T06:12:06Z</time>
      </trkpt>
      <trkpt lat="42.5758779980" lon="0.9290475491">
        <ele>2148.68</ele>
        <time>2019-09-07T06:12:14Z</time>
      </trkpt>
      <trkpt lat="42.5758966897" lon="0.9289032966">
        <ele>2150.13</ele>
        <time>2019-09-07T06:12:26Z</time>
      </trkpt>
      <trkpt lat="42.5759156328" lon="0.9287957568">
        <ele>2151.57</ele>
        <time>2019-09-07T06:12:38Z</time>
      </trkpt>
      <trkpt lat="42.5759567879" lon="0.9286732972">
        <ele>2151.57</ele>
        <time>2019-09-07T06:12:50Z</time>
      </trkpt>
      <trkpt lat="42.5759494957" lon="0.9285981953">
        <ele>2152.53</ele>
        <time>2019-09-07T06:13:01Z</time>
      </trkpt>
      <trkpt lat="42.5759639125" lon="0.9285850357">
        <ele>2153.49</ele>
        <time>2019-09-07T06:13:13Z</time>
      </trkpt>
      <trkpt lat="42.5759903155" lon="0.9285780787">
        <ele>2153.01</ele>
        <time>2019-09-07T06:13:27Z</time>
      </trkpt>
      <trkpt lat="42.5759751443" lon="0.9285530169">
        <ele>2153.01</ele>
        <time>2019-09-07T06:13:38Z</time>
      </trkpt>
      <trkpt lat="42.5759868789" lon="0.9285786655">
        <ele>2155.41</ele>
        <time>2019-09-07T06:13:49Z</time>
      </trkpt>
      <trkpt lat="42.5759726297" lon="0.9285337385">
        <ele>2154.93</ele>
        <time>2019-09-07T06:14:05Z</time>
      </trkpt>
      <trkpt lat="42.5760137849" lon="0.9285312239">
        <ele>2155.41</ele>
        <time>2019-09-07T06:14:23Z</time>
      </trkpt>
      <trkpt lat="42.5760473125" lon="0.9284987859">
        <ele>2156.37</ele>
        <time>2019-09-07T06:14:34Z</time>
      </trkpt>
      <trkpt lat="42.5760518387" lon="0.9285013843">
        <ele>2156.37</ele>
        <time>2019-09-07T06:14:35Z</time>
      </trkpt>
      <trkpt lat="42.5760766491" lon="0.9285034798">
        <ele>2155.89</ele>
        <time>2019-09-07T06:14:42Z</time>
      </trkpt>
      <trkpt lat="42.5761067402" lon="0.9284845367">
        <ele>2155.89</ele>
        <time>2019-09-07T06:14:48Z</time>
      </trkpt>
      <trkpt lat="42.5761556905" lon="0.9283764940">
        <ele>2155.89</ele>
        <time>2019-09-07T06:14:58Z</time>
      </trkpt>
      <trkpt lat="42.5762043055" lon="0.9283690341">
        <ele>2156.37</ele>
        <time>2019-09-07T06:15:10Z</time>
      </trkpt>
      <trkpt lat="42.5762281101" lon="0.9283187427">
        <ele>2157.82</ele>
        <time>2019-09-07T06:15:20Z</time>
      </trkpt>
      <trkpt lat="42.5762644876" lon="0.9282802697">
        <ele>2159.74</ele>
        <time>2019-09-07T06:15:30Z</time>
      </trkpt>
      <trkpt lat="42.5763006974" lon="0.9281779267">
        <ele>2160.70</ele>
        <time>2019-09-07T06:15:43Z</time>
      </trkpt>
      <trkpt lat="42.5763032958" lon="0.9281468298">
        <ele>2162.14</ele>
        <time>2019-09-07T06:15:53Z</time>
      </trkpt>
      <trkpt lat="42.5762955844" lon="0.9280552994">
        <ele>2162.62</ele>
        <time>2019-09-07T06:16:03Z</time>
      </trkpt>
      <trkpt lat="42.5763413496" lon="0.9279498551">
        <ele>2164.55</ele>
        <time>2019-09-07T06:16:16Z</time>
      </trkpt>
      <trkpt lat="42.5764009450" lon="0.9279189259">
        <ele>2165.99</ele>
        <time>2019-09-07T06:16:26Z</time>
      </trkpt>
      <trkpt lat="42.5764383283" lon="0.9278599173">
        <ele>2166.95</ele>
        <time>2019-09-07T06:16:38Z</time>
      </trkpt>
      <trkpt lat="42.5764610432" lon="0.9278123919">
        <ele>2167.43</ele>
        <time>2019-09-07T06:16:49Z</time>
      </trkpt>
      <trkpt lat="42.5765065569" lon="0.9278149065">
        <ele>2168.39</ele>
        <time>2019-09-07T06:16:59Z</time>
      </trkpt>
      <trkpt lat="42.5765845925" lon="0.9278377891">
        <ele>2168.39</ele>
        <time>2019-09-07T06:17:10Z</time>
      </trkpt>
      <trkpt lat="42.5766564254" lon="0.9278087877">
        <ele>2168.39</ele>
        <time>2019-09-07T06:17:21Z</time>
      </trkpt>
      <trkpt lat="42.5767154340" lon="0.9277535509">
        <ele>2169.35</ele>
        <time>2019-09-07T06:17:31Z</time>
      </trkpt>
      <trkpt lat="42.5767736882" lon="0.9277247172">
        <ele>2168.87</ele>
        <time>2019-09-07T06:17:39Z</time>
      </trkpt>
      <trkpt lat="42.5768488739" lon="0.9276520461">
        <ele>2169.83</ele>
        <time>2019-09-07T06:17:51Z</time>
      </trkpt>
      <trkpt lat="42.5768538192" lon="0.9276417363">
        <ele>2169.83</ele>
        <time>2019-09-07T06:17:52Z</time>
      </trkpt>
      <trkpt lat="42.5769169349" lon="0.9275532234">
        <ele>2170.31</ele>
        <time>2019-09-07T06:18:06Z</time>
      </trkpt>
      <trkpt lat="42.5769521389" lon="0.9275378007">
        <ele>2169.83</ele>
        <time>2019-09-07T06:18:25Z</time>
      </trkpt>
      <trkpt lat="42.5769791286" lon="0.9274865873">
        <ele>2169.83</ele>
        <time>2019-09-07T06:18:29Z</time>
      </trkpt>
      <trkpt lat="42.5769982394" lon="0.9274119046">
        <ele>2169.83</ele>
        <time>2019-09-07T06:18:34Z</time>
      </trkpt>
      <trkpt lat="42.5770164281" lon="0.9273490403">
        <ele>2172.24</ele>
        <time>2019-09-07T06:18:47Z</time>
      </trkpt>
      <trkpt lat="42.5770279113" lon="0.9272415843">
        <ele>2172.72</ele>
        <time>2019-09-07T06:19:05Z</time>
      </trkpt>
      <trkpt lat="42.5770527218" lon="0.9271806479">
        <ele>2174.64</ele>
        <time>2019-09-07T06:19:15Z</time>
      </trkpt>
      <trkpt lat="42.5770856626" lon="0.9270986728">
        <ele>2176.08</ele>
        <time>2019-09-07T06:19:25Z</time>
      </trkpt>
      <trkpt lat="42.5771211181" lon="0.9270607028">
        <ele>2176.56</ele>
        <time>2019-09-07T06:19:39Z</time>
      </trkpt>
      <trkpt lat="42.5771880895" lon="0.9270151053">
        <ele>2176.56</ele>
        <time>2019-09-07T06:19:51Z</time>
      </trkpt>
      <trkpt lat="42.5771896821" lon="0.9269690886">
        <ele>2178.00</ele>
        <time>2019-09-07T06:20:02Z</time>
      </trkpt>
      <trkpt lat="42.5771903526" lon="0.9269664064">
        <ele>2179.93</ele>
        <time>2019-09-07T06:20:14Z</time>
      </trkpt>
      <trkpt lat="42.5772371236" lon="0.9269773029">
        <ele>2178.97</ele>
        <time>2019-09-07T06:20:25Z</time>
      </trkpt>
      <trkpt lat="42.5772689749" lon="0.9269373212">
        <ele>2178.00</ele>
        <time>2019-09-07T06:20:36Z</time>
      </trkpt>
      <trkpt lat="42.5772906002" lon="0.9269192163">
        <ele>2179.93</ele>
        <time>2019-09-07T06:20:46Z</time>
      </trkpt>
      <trkpt lat="42.5773084536" lon="0.9269167855">
        <ele>2179.93</ele>
        <time>2019-09-07T06:20:49Z</time>
      </trkpt>
      <trkpt lat="42.5773729105" lon="0.9269176237">
        <ele>2180.41</ele>
        <time>2019-09-07T06:20:59Z</time>
      </trkpt>
      <trkpt lat="42.5774126407" lon="0.9268607106">
        <ele>2181.85</ele>
        <time>2019-09-07T06:21:10Z</time>
      </trkpt>
      <trkpt lat="42.5774589088" lon="0.9268106706">
        <ele>2182.81</ele>
        <time>2019-09-07T06:21:21Z</time>
      </trkpt>
      <trkpt lat="42.5774817076" lon="0.9267967567">
        <ele>2183.29</ele>
        <time>2019-09-07T06:21:31Z</time>
      </trkpt>
      <trkpt lat="42.5775620062" lon="0.9268041328">
        <ele>2183.77</ele>
        <time>2019-09-07T06:21:42Z</time>
      </trkpt>
      <trkpt lat="42.5776047539" lon="0.9267854411">
        <ele>2185.21</ele>
        <time>2019-09-07T06:21:54Z</time>
      </trkpt>
      <trkpt lat="42.5776515249" lon="0.9266977664">
        <ele>2185.69</ele>
        <time>2019-09-07T06:22:04Z</time>
      </trkpt>
      <trkpt lat="42.5776812807" lon="0.9266412724">
        <ele>2186.66</ele>
        <time>2019-09-07T06:22:15Z</time>
      </trkpt>
      <trkpt lat="42.5776960328" lon="0.9266118519">
        <ele>2188.10</ele>
        <time>2019-09-07T06:22:24Z</time>
      </trkpt>
      <trkpt lat="42.5777124614" lon="0.9265653323">
        <ele>2189.06</ele>
        <time>2019-09-07T06:22:34Z</time>
      </trkpt>
      <trkpt lat="42.5777333323" lon="0.9265354089">
        <ele>2190.02</ele>
        <time>2019-09-07T06:22:45Z</time>
      </trkpt>
      <trkpt lat="42.5777688716" lon="0.9264581278">
        <ele>2191.94</ele>
        <time>2019-09-07T06:23:00Z</time>
      </trkpt>
      <trkpt lat="42.5778110325" lon="0.9264945891">
        <ele>2192.90</ele>
        <time>2019-09-07T06:23:12Z</time>
      </trkpt>
      <trkpt lat="42.5778531935" lon="0.9264062438">
        <ele>2194.35</ele>
        <time>2019-09-07T06:23:23Z</time>
      </trkpt>
      <trkpt lat="42.5779307261" lon="0.9264148772">
        <ele>2195.79</ele>
        <time>2019-09-07T06:23:37Z</time>
      </trkpt>
      <trkpt lat="42.5779614877" lon="0.9263848700">
        <ele>2198.67</ele>
        <time>2019-09-07T06:23:48Z</time>
      </trkpt>
      <trkpt lat="42.5780163053" lon="0.9263878874">
        <ele>2200.59</ele>
        <time>2019-09-07T06:24:01Z</time>
      </trkpt>
      <trkpt lat="42.5780722965" lon="0.9264377598">
        <ele>2201.08</ele>
        <time>2019-09-07T06:24:12Z</time>
      </trkpt>
      <trkpt lat="42.5781302154" lon="0.9264468122">
        <ele>2202.04</ele>
        <time>2019-09-07T06:24:24Z</time>
      </trkpt>
      <trkpt lat="42.5781820156" lon="0.9264312219">
        <ele>2203.48</ele>
        <time>2019-09-07T06:24:36Z</time>
      </trkpt>
      <trkpt lat="42.5782214105" lon="0.9264344070">
        <ele>2205.40</ele>
        <time>2019-09-07T06:24:48Z</time>
      </trkpt>
      <trkpt lat="42.5782552734" lon="0.9264338203">
        <ele>2206.84</ele>
        <time>2019-09-07T06:24:58Z</time>
      </trkpt>
      <trkpt lat="42.5783021282" lon="0.9264416154">
        <ele>2208.77</ele>
        <time>2019-09-07T06:25:10Z</time>
      </trkpt>
      <trkpt lat="42.5783365779" lon="0.9264356643">
        <ele>2209.73</ele>
        <time>2019-09-07T06:25:21Z</time>
      </trkpt>
      <trkpt lat="42.5783729553" lon="0.9264867939">
        <ele>2211.17</ele>
        <time>2019-09-07T06:25:31Z</time>
      </trkpt>
      <trkpt lat="42.5784367416" lon="0.9265008755">
        <ele>2213.09</ele>
        <time>2019-09-07T06:25:44Z</time>
      </trkpt>
      <trkpt lat="42.5784939062" lon="0.9265473951">
        <ele>2215.01</ele>
        <time>2019-09-07T06:25:54Z</time>
      </trkpt>
      <trkpt lat="42.5785447005" lon="0.9265551902">
        <ele>2216.94</ele>
        <time>2019-09-07T06:26:05Z</time>
      </trkpt>
      <trkpt lat="42.5785850175" lon="0.9265215788">
        <ele>2218.38</ele>
        <time>2019-09-07T06:26:17Z</time>
      </trkpt>
      <trkpt lat="42.5786273461" lon="0.9265232552">
        <ele>2219.82</ele>
        <time>2019-09-07T06:26:29Z</time>
      </trkpt>
      <trkpt lat="42.5786530785" lon="0.9265208244">
        <ele>2220.30</ele>
        <time>2019-09-07T06:26:42Z</time>
      </trkpt>
      <trkpt lat="42.5787273422" lon="0.9265034739">
        <ele>2221.26</ele>
        <time>2019-09-07T06:26:56Z</time>
      </trkpt>
      <trkpt lat="42.5787444413" lon="0.9265158791">
        <ele>2221.74</ele>
        <time>2019-09-07T06:26:58Z</time>
      </trkpt>
      <trkpt lat="42.5788233150" lon="0.9265333973">
        <ele>2222.22</ele>
        <time>2019-09-07T06:27:11Z</time>
      </trkpt>
      <trkpt lat="42.5788674876" lon="0.9265403543">
        <ele>2224.63</ele>
        <time>2019-09-07T06:27:23Z</time>
      </trkpt>
      <trkpt lat="42.5788849220" lon="0.9265036415">
        <ele>2225.59</ele>
        <time>2019-09-07T06:27:35Z</time>
      </trkpt>
      <trkpt lat="42.5789363030" lon="0.9264965169">
        <ele>2226.55</ele>
        <time>2019-09-07T06:27:48Z</time>
      </trkpt>
      <trkpt lat="42.5789741892" lon="0.9265405219">
        <ele>2228.47</ele>
        <time>2019-09-07T06:28:00Z</time>
      </trkpt>
      <trkpt lat="42.5790111534" lon="0.9266033862">
        <ele>2229.43</ele>
        <time>2019-09-07T06:28:13Z</time>
      </trkpt>
      <trkpt lat="42.5790098961" lon="0.9265427012">
        <ele>2230.40</ele>
        <time>2019-09-07T06:28:24Z</time>
      </trkpt>
      <trkpt lat="42.5790373888" lon="0.9265708644">
        <ele>2231.36</ele>
        <time>2019-09-07T06:28:36Z</time>
      </trkpt>
      <trkpt lat="42.5790533144" lon="0.9265669249">
        <ele>2233.28</ele>
        <time>2019-09-07T06:28:50Z</time>
      </trkpt>
      <trkpt lat="42.5790883508" lon="0.9265890531">
        <ele>2236.16</ele>
        <time>2019-09-07T06:29:04Z</time>
      </trkpt>
      <trkpt lat="42.5791216269" lon="0.9266173840">
        <ele>2237.13</ele>
        <time>2019-09-07T06:29:16Z</time>
      </trkpt>
      <trkpt lat="42.5791559089" lon="0.9265882988">
        <ele>2238.57</ele>
        <time>2019-09-07T06:29:27Z</time>
      </trkpt>
      <trkpt lat="42.5791823957" lon="0.9266042244">
        <ele>2240.01</ele>
        <time>2019-09-07T06:29:41Z</time>
      </trkpt>
      <trkpt lat="42.5791962259" lon="0.9266569465">
        <ele>2241.45</ele>
        <time>2019-09-07T06:29:53Z</time>
      </trkpt>
      <trkpt lat="42.5792172644" lon="0.9266827628">
        <ele>2242.41</ele>
        <time>2019-09-07T06:30:10Z</time>
      </trkpt>
      <trkpt lat="42.5792442542" lon="0.9267094173">
        <ele>2242.41</ele>
        <time>2019-09-07T06:30:18Z</time>
      </trkpt>
      <trkpt lat="42.5792768598" lon="0.9267219901">
        <ele>2243.37</ele>
        <time>2019-09-07T06:30:28Z</time>
      </trkpt>
      <trkpt lat="42.5793308392" lon="0.9267377481">
        <ele>2244.82</ele>
        <time>2019-09-07T06:30:40Z</time>
      </trkpt>
      <trkpt lat="42.5793377124" lon="0.9267400112">
        <ele>2244.82</ele>
        <time>2019-09-07T06:30:41Z</time>
      </trkpt>
      <trkpt lat="42.5793762691" lon="0.9267092496">
        <ele>2246.26</ele>
        <time>2019-09-07T06:30:52Z</time>
      </trkpt>
      <trkpt lat="42.5794129819" lon="0.9266882949">
        <ele>2248.18</ele>
        <time>2019-09-07T06:31:05Z</time>
      </trkpt>
      <trkpt lat="42.5794162508" lon="0.9266623948">
        <ele>2249.62</ele>
        <time>2019-09-07T06:31:14Z</time>
      </trkpt>
      <trkpt lat="42.5794453360" lon="0.9266274422">
        <ele>2251.06</ele>
        <time>2019-09-07T06:31:25Z</time>
      </trkpt>
      <trkpt lat="42.5794643629" lon="0.9265976027">
        <ele>2252.51</ele>
        <time>2019-09-07T06:31:34Z</time>
      </trkpt>
      <trkpt lat="42.5794801209" lon="0.9265603870">
        <ele>2253.47</ele>
        <time>2019-09-07T06:31:45Z</time>
      </trkpt>
      <trkpt lat="42.5794921070" lon="0.9265233390">
        <ele>2254.43</ele>
        <time>2019-09-07T06:31:55Z</time>
      </trkpt>
      <trkpt lat="42.5795232877" lon="0.9264894761">
        <ele>2256.35</ele>
        <time>2019-09-07T06:32:05Z</time>
      </trkpt>
      <trkpt lat="42.5795572344" lon="0.9264409449">
        <ele>2258.27</ele>
        <time>2019-09-07T06:32:17Z</time>
      </trkpt>
      <trkpt lat="42.5795976352" lon="0.9264011309">
        <ele>2259.24</ele>
        <time>2019-09-07T06:32:28Z</time>
      </trkpt>
      <trkpt lat="42.5796464179" lon="0.9262945130">
        <ele>2260.68</ele>
        <time>2019-09-07T06:32:39Z</time>
      </trkpt>
      <trkpt lat="42.5796682946" lon="0.9262531903">
        <ele>2262.60</ele>
        <time>2019-09-07T06:32:49Z</time>
      </trkpt>
      <trkpt lat="42.5797037501" lon="0.9262047429">
        <ele>2264.52</ele>
        <time>2019-09-07T06:33:03Z</time>
      </trkpt>
      <trkpt lat="42.5797310751" lon="0.9261947684">
        <ele>2266.45</ele>
        <time>2019-09-07T06:33:13Z</time>
      </trkpt>
      <trkpt lat="42.5797486771" lon="0.9261775017">
        <ele>2267.41</ele>
        <time>2019-09-07T06:33:24Z</time>
      </trkpt>
      <trkpt lat="42.5797925983" lon="0.9261603188">
        <ele>2267.41</ele>
        <time>2019-09-07T06:33:35Z</time>
      </trkpt>
      <trkpt lat="42.5798329152" lon="0.9260842111">
        <ele>2266.45</ele>
        <time>2019-09-07T06:33:47Z</time>
      </trkpt>
      <trkpt lat="42.5798456557" lon="0.9260227717">
        <ele>2266.93</ele>
        <time>2019-09-07T06:33:57Z</time>
      </trkpt>
      <trkpt lat="42.5798579771" lon="0.9260013979">
        <ele>2265.48</ele>
        <time>2019-09-07T06:34:13Z</time>
      </trkpt>
      <trkpt lat="42.5799049996" lon="0.9259448200">
        <ele>2264.04</ele>
        <time>2019-09-07T06:34:24Z</time>
      </trkpt>
      <trkpt lat="42.5799237750" lon="0.9259465802">
        <ele>2263.08</ele>
        <time>2019-09-07T06:34:26Z</time>
      </trkpt>
      <trkpt lat="42.5799483340" lon="0.9259556327">
        <ele>2262.60</ele>
        <time>2019-09-07T06:34:37Z</time>
      </trkpt>
      <trkpt lat="42.5799232721" lon="0.9259472508">
        <ele>2264.52</ele>
        <time>2019-09-07T06:34:42Z</time>
      </trkpt>
      <trkpt lat="42.5799222663" lon="0.9259158187">
        <ele>2264.04</ele>
        <time>2019-09-07T06:34:52Z</time>
      </trkpt>
      <trkpt lat="42.5799547043" lon="0.9258596599">
        <ele>2263.08</ele>
        <time>2019-09-07T06:35:04Z</time>
      </trkpt>
      <trkpt lat="42.5799993798" lon="0.9258267190">
        <ele>2262.60</ele>
        <time>2019-09-07T06:35:10Z</time>
      </trkpt>
      <trkpt lat="42.5800728053" lon="0.9257929400">
        <ele>2263.08</ele>
        <time>2019-09-07T06:35:21Z</time>
      </trkpt>
      <trkpt lat="42.5800863840" lon="0.9257736616">
        <ele>2263.56</ele>
        <time>2019-09-07T06:35:31Z</time>
      </trkpt>
      <trkpt lat="42.5801128708" lon="0.9257340152">
        <ele>2264.52</ele>
        <time>2019-09-07T06:35:40Z</time>
      </trkpt>
      <trkpt lat="42.5801529363" lon="0.9257303271">
        <ele>2263.56</ele>
        <time>2019-09-07T06:35:49Z</time>
      </trkpt>
      <trkpt lat="42.5801905710" lon="0.9257935267">
        <ele>2263.08</ele>
        <time>2019-09-07T06:35:57Z</time>
      </trkpt>
      <trkpt lat="42.5802134536" lon="0.9258081112">
        <ele>2263.08</ele>
        <time>2019-09-07T06:35:59Z</time>
      </trkpt>
      <trkpt lat="42.5802531838" lon="0.9258137271">
        <ele>2261.64</ele>
        <time>2019-09-07T06:36:03Z</time>
      </trkpt>
      <trkpt lat="42.5802972727" lon="0.9258253779">
        <ele>2260.68</ele>
        <time>2019-09-07T06:36:08Z</time>
      </trkpt>
      <trkpt lat="42.5803342368" lon="0.9257938620">
        <ele>2261.16</ele>
        <time>2019-09-07T06:36:17Z</time>
      </trkpt>
      <trkpt lat="42.5803423673" lon="0.9257724043">
        <ele>2260.68</ele>
        <time>2019-09-07T06:36:19Z</time>
      </trkpt>
      <trkpt lat="42.5803893059" lon="0.9256961290">
        <ele>2261.64</ele>
        <time>2019-09-07T06:36:29Z</time>
      </trkpt>
      <trkpt lat="42.5804230850" lon="0.9256588295">
        <ele>2262.60</ele>
        <time>2019-09-07T06:36:43Z</time>
      </trkpt>
      <trkpt lat="42.5804601330" lon="0.9256143216">
        <ele>2261.64</ele>
        <time>2019-09-07T06:36:52Z</time>
      </trkpt>
      <trkpt lat="42.5804976001" lon="0.9255363699">
        <ele>2261.16</ele>
        <time>2019-09-07T06:37:01Z</time>
      </trkpt>
      <trkpt lat="42.5804970134" lon="0.9255223721">
        <ele>2261.64</ele>
        <time>2019-09-07T06:37:02Z</time>
      </trkpt>
      <trkpt lat="42.5804931577" lon="0.9254856594">
        <ele>2262.12</ele>
        <time>2019-09-07T06:37:05Z</time>
      </trkpt>
      <trkpt lat="42.5805131905" lon="0.9253294207">
        <ele>2262.60</ele>
        <time>2019-09-07T06:37:18Z</time>
      </trkpt>
      <trkpt lat="42.5805400126" lon="0.9252363816">
        <ele>2262.12</ele>
        <time>2019-09-07T06:37:29Z</time>
      </trkpt>
      <trkpt lat="42.5805312954" lon="0.9251786303">
        <ele>2263.56</ele>
        <time>2019-09-07T06:37:41Z</time>
      </trkpt>
      <trkpt lat="42.5805019587" lon="0.9251570050">
        <ele>2264.52</ele>
        <time>2019-09-07T06:37:51Z</time>
      </trkpt>
      <trkpt lat="42.5805229973" lon="0.9251090605">
        <ele>2265.48</ele>
        <time>2019-09-07T06:38:01Z</time>
      </trkpt>
      <trkpt lat="42.5805373304" lon="0.9250672348">
        <ele>2266.93</ele>
        <time>2019-09-07T06:38:11Z</time>
      </trkpt>
      <trkpt lat="42.5805643201" lon="0.9250350483">
        <ele>2267.89</ele>
        <time>2019-09-07T06:38:21Z</time>
      </trkpt>
      <trkpt lat="42.5805530883" lon="0.9249493014">
        <ele>2270.29</ele>
        <time>2019-09-07T06:38:33Z</time>
      </trkpt>
      <trkpt lat="42.5805511605" lon="0.9248523228">
        <ele>2272.21</ele>
        <time>2019-09-07T06:38:45Z</time>
      </trkpt>
      <trkpt lat="42.5805929862" lon="0.9248099104">
        <ele>2274.62</ele>
        <time>2019-09-07T06:38:56Z</time>
      </trkpt>
      <trkpt lat="42.5806003623" lon="0.9247300308">
        <ele>2275.58</ele>
        <time>2019-09-07T06:39:09Z</time>
      </trkpt>
      <trkpt lat="42.5806247536" lon="0.9246710222">
        <ele>2277.02</ele>
        <time>2019-09-07T06:39:22Z</time>
      </trkpt>
      <trkpt lat="42.5806199759" lon="0.9246267658">
        <ele>2277.50</ele>
        <time>2019-09-07T06:39:43Z</time>
      </trkpt>
      <trkpt lat="42.5806370750" lon="0.9245988540">
        <ele>2279.42</ele>
        <time>2019-09-07T06:39:52Z</time>
      </trkpt>
      <trkpt lat="42.5806804094" lon="0.9245918132">
        <ele>2277.98</ele>
        <time>2019-09-07T06:40:01Z</time>
      </trkpt>
      <trkpt lat="42.5807068124" lon="0.9245534241">
        <ele>2278.46</ele>
        <time>2019-09-07T06:40:13Z</time>
      </trkpt>
      <trkpt lat="42.5807306170" lon="0.9245275240">
        <ele>2277.50</ele>
        <time>2019-09-07T06:40:29Z</time>
      </trkpt>
      <trkpt lat="42.5807447825" lon="0.9244779032">
        <ele>2277.98</ele>
        <time>2019-09-07T06:40:34Z</time>
      </trkpt>
      <trkpt lat="42.5807986781" lon="0.9244126081">
        <ele>2276.54</ele>
        <time>2019-09-07T06:40:45Z</time>
      </trkpt>
      <trkpt lat="42.5808246620" lon="0.9243862890">
        <ele>2278.94</ele>
        <time>2019-09-07T06:40:55Z</time>
      </trkpt>
      <trkpt lat="42.5808730256" lon="0.9243473969">
        <ele>2277.98</ele>
        <time>2019-09-07T06:41:07Z</time>
      </trkpt>
      <trkpt lat="42.5808880292" lon="0.9243365843">
        <ele>2278.46</ele>
        <time>2019-09-07T06:41:21Z</time>
      </trkpt>
      <trkpt lat="42.5809074752" lon="0.9243191499">
        <ele>2277.98</ele>
        <time>2019-09-07T06:41:31Z</time>
      </trkpt>
      <trkpt lat="42.5808717683" lon="0.9243501630">
        <ele>2277.98</ele>
        <time>2019-09-07T06:41:45Z</time>
      </trkpt>
      <trkpt lat="42.5808625482" lon="0.9243586287">
        <ele>2277.98</ele>
        <time>2019-09-07T06:41:56Z</time>
      </trkpt>
      <trkpt lat="42.5809047930" lon="0.9243237600">
        <ele>2277.98</ele>
        <time>2019-09-07T06:42:23Z</time>
      </trkpt>
      <trkpt lat="42.5809321180" lon="0.9243018832">
        <ele>2277.98</ele>
        <time>2019-09-07T06:42:29Z</time>
      </trkpt>
      <trkpt lat="42.5809289329" lon="0.9242501669">
        <ele>2277.98</ele>
        <time>2019-09-07T06:42:41Z</time>
      </trkpt>
      <trkpt lat="42.5809187070" lon="0.9242624883">
        <ele>2277.98</ele>
        <time>2019-09-07T06:42:53Z</time>
      </trkpt>
      <trkpt lat="42.5808678288" lon="0.9242025577">
        <ele>2277.98</ele>
        <time>2019-09-07T06:43:01Z</time>
      </trkpt>
      <trkpt lat="42.5808629673" lon="0.9241977800">
        <ele>2277.98</ele>
        <time>2019-09-07T06:43:02Z</time>
      </trkpt>
      <trkpt lat="42.5808840059" lon="0.9240458999">
        <ele>2277.50</ele>
        <time>2019-09-07T06:43:12Z</time>
      </trkpt>
      <trkpt lat="42.5808902085" lon="0.9240339976">
        <ele>2277.50</ele>
        <time>2019-09-07T06:43:13Z</time>
      </trkpt>
      <trkpt lat="42.5809015241" lon="0.9240116179">
        <ele>2277.02</ele>
        <time>2019-09-07T06:43:15Z</time>
      </trkpt>
      <trkpt lat="42.5809214730" lon="0.9239997994">
        <ele>2277.02</ele>
        <time>2019-09-07T06:43:17Z</time>
      </trkpt>
      <trkpt lat="42.5809614547" lon="0.9238891583">
        <ele>2278.46</ele>
        <time>2019-09-07T06:43:28Z</time>
      </trkpt>
      <trkpt lat="42.5809783023" lon="0.9238824528">
        <ele>2278.46</ele>
        <time>2019-09-07T06:43:29Z</time>
      </trkpt>
      <trkpt lat="42.5810144283" lon="0.9238841292">
        <ele>2278.46</ele>
        <time>2019-09-07T06:43:31Z</time>
      </trkpt>
      <trkpt lat="42.5810758676" lon="0.9238535352">
        <ele>2277.98</ele>
        <time>2019-09-07T06:43:36Z</time>
      </trkpt>
      <trkpt lat="42.5811932981" lon="0.9238298144">
        <ele>2279.90</ele>
        <time>2019-09-07T06:43:45Z</time>
      </trkpt>
      <trkpt lat="42.5812304299" lon="0.9238012321">
        <ele>2279.90</ele>
        <time>2019-09-07T06:43:50Z</time>
      </trkpt>
      <trkpt lat="42.5812504627" lon="0.9237445705">
        <ele>2279.90</ele>
        <time>2019-09-07T06:43:55Z</time>
      </trkpt>
      <trkpt lat="42.5813046098" lon="0.9237445705">
        <ele>2280.87</ele>
        <time>2019-09-07T06:44:03Z</time>
      </trkpt>
      <trkpt lat="42.5813597627" lon="0.9236791078">
        <ele>2281.35</ele>
        <time>2019-09-07T06:44:13Z</time>
      </trkpt>
      <trkpt lat="42.5813812204" lon="0.9235829674">
        <ele>2281.35</ele>
        <time>2019-09-07T06:44:21Z</time>
      </trkpt>
      <trkpt lat="42.5814391393" lon="0.9234451689">
        <ele>2281.35</ele>
        <time>2019-09-07T06:44:33Z</time>
      </trkpt>
      <trkpt lat="42.5814652070" lon="0.9233989846">
        <ele>2283.27</ele>
        <time>2019-09-07T06:44:44Z</time>
      </trkpt>
      <trkpt lat="42.5815289933" lon="0.9233491961">
        <ele>2283.27</ele>
        <time>2019-09-07T06:44:54Z</time>
      </trkpt>
      <trkpt lat="42.5815822184" lon="0.9233475197">
        <ele>2283.75</ele>
        <time>2019-09-07T06:45:01Z</time>
      </trkpt>
      <trkpt lat="42.5816214457" lon="0.9232933726">
        <ele>2286.15</ele>
        <time>2019-09-07T06:45:10Z</time>
      </trkpt>
      <trkpt lat="42.5816669594" lon="0.9232450929">
        <ele>2287.11</ele>
        <time>2019-09-07T06:45:22Z</time>
      </trkpt>
      <trkpt lat="42.5817137305" lon="0.9232099727">
        <ele>2287.59</ele>
        <time>2019-09-07T06:45:31Z</time>
      </trkpt>
      <trkpt lat="42.5817615073" lon="0.9231994115">
        <ele>2287.11</ele>
        <time>2019-09-07T06:45:38Z</time>
      </trkpt>
      <trkpt lat="42.5818060152" lon="0.9231421631">
        <ele>2287.59</ele>
        <time>2019-09-07T06:45:47Z</time>
      </trkpt>
      <trkpt lat="42.5818208512" lon="0.9230456874">
        <ele>2288.56</ele>
        <time>2019-09-07T06:45:56Z</time>
      </trkpt>
      <trkpt lat="42.5818601623" lon="0.9229237307">
        <ele>2287.59</ele>
        <time>2019-09-07T06:46:07Z</time>
      </trkpt>
      <trkpt lat="42.5819122978" lon="0.9228917118">
        <ele>2290.00</ele>
        <time>2019-09-07T06:46:16Z</time>
      </trkpt>
      <trkpt lat="42.5819677021" lon="0.9228425100">
        <ele>2290.96</ele>
        <time>2019-09-07T06:46:27Z</time>
      </trkpt>
      <trkpt lat="42.5820131321" lon="0.9228738584">
        <ele>2292.40</ele>
        <time>2019-09-07T06:46:39Z</time>
      </trkpt>
      <trkpt lat="42.5820679497" lon="0.9228176996">
        <ele>2292.40</ele>
        <time>2019-09-07T06:46:50Z</time>
      </trkpt>
      <trkpt lat="42.5821007229" lon="0.9228422586">
        <ele>2295.77</ele>
        <time>2019-09-07T06:46:59Z</time>
      </trkpt>
      <trkpt lat="42.5821363460" lon="0.9228917956">
        <ele>2297.21</ele>
        <time>2019-09-07T06:47:12Z</time>
      </trkpt>
      <trkpt lat="42.5821804348" lon="0.9228529036">
        <ele>2298.17</ele>
        <time>2019-09-07T06:47:24Z</time>
      </trkpt>
      <trkpt lat="42.5822365098" lon="0.9228326194">
        <ele>2300.57</ele>
        <time>2019-09-07T06:47:35Z</time>
      </trkpt>
      <trkpt lat="42.5822769105" lon="0.9228249919">
        <ele>2302.49</ele>
        <time>2019-09-07T06:47:48Z</time>
      </trkpt>
      <trkpt lat="42.5823258609" lon="0.9228171967">
        <ele>2304.42</ele>
        <time>2019-09-07T06:47:59Z</time>
      </trkpt>
      <trkpt lat="42.5823701173" lon="0.9228259977">
        <ele>2304.90</ele>
        <time>2019-09-07T06:48:09Z</time>
      </trkpt>
      <trkpt lat="42.5824025553" lon="0.9228587709">
        <ele>2305.38</ele>
        <time>2019-09-07T06:48:18Z</time>
      </trkpt>
      <trkpt lat="42.5824460573" lon="0.9229180310">
        <ele>2307.78</ele>
        <time>2019-09-07T06:48:30Z</time>
      </trkpt>
      <trkpt lat="42.5824806746" lon="0.9229801409">
        <ele>2308.74</ele>
        <time>2019-09-07T06:48:41Z</time>
      </trkpt>
      <trkpt lat="42.5824829377" lon="0.9229780454">
        <ele>2309.22</ele>
        <time>2019-09-07T06:48:52Z</time>
      </trkpt>
      <trkpt lat="42.5825123582" lon="0.9229881037">
        <ele>2311.63</ele>
        <time>2019-09-07T06:49:04Z</time>
      </trkpt>
      <trkpt lat="42.5825407729" lon="0.9229794703">
        <ele>2312.11</ele>
        <time>2019-09-07T06:49:13Z</time>
      </trkpt>
      <trkpt lat="42.5825680140" lon="0.9229635447">
        <ele>2314.03</ele>
        <time>2019-09-07T06:49:23Z</time>
      </trkpt>
      <trkpt lat="42.5826063193" lon="0.9229679871">
        <ele>2315.95</ele>
        <time>2019-09-07T06:49:35Z</time>
      </trkpt>
      <trkpt lat="42.5826530904" lon="0.9229686577">
        <ele>2318.36</ele>
        <time>2019-09-07T06:49:50Z</time>
      </trkpt>
      <trkpt lat="42.5826704409" lon="0.9229534864">
        <ele>2319.32</ele>
        <time>2019-09-07T06:50:01Z</time>
      </trkpt>
      <trkpt lat="42.5826928206" lon="0.9229375608">
        <ele>2321.72</ele>
        <time>2019-09-07T06:50:12Z</time>
      </trkpt>
      <trkpt lat="42.5827295333" lon="0.9229661431">
        <ele>2323.16</ele>
        <time>2019-09-07T06:50:26Z</time>
      </trkpt>
      <trkpt lat="42.5827364065" lon="0.9229711723">
        <ele>2323.64</ele>
        <time>2019-09-07T06:50:43Z</time>
      </trkpt>
      <trkpt lat="42.5827654917" lon="0.9229788836">
        <ele>2324.61</ele>
        <time>2019-09-07T06:51:01Z</time>
      </trkpt>
      <trkpt lat="42.5827854406" lon="0.9230220504">
        <ele>2326.53</ele>
        <time>2019-09-07T06:51:11Z</time>
      </trkpt>
      <trkpt lat="42.5828353129" lon="0.9230604395">
        <ele>2327.01</ele>
        <time>2019-09-07T06:51:23Z</time>
      </trkpt>
      <trkpt lat="42.5828638114" lon="0.9230971523">
        <ele>2327.49</ele>
        <time>2019-09-07T06:51:34Z</time>
      </trkpt>
      <trkpt lat="42.5828666613" lon="0.9231272433">
        <ele>2327.49</ele>
        <time>2019-09-07T06:51:47Z</time>
      </trkpt>
      <trkpt lat="42.5828752946" lon="0.9231728408">
        <ele>2328.93</ele>
        <time>2019-09-07T06:51:58Z</time>
      </trkpt>
      <trkpt lat="42.5828786474" lon="0.9232301731">
        <ele>2328.93</ele>
        <time>2019-09-07T06:52:11Z</time>
      </trkpt>
      <trkpt lat="42.5829009432" lon="0.9232462663">
        <ele>2330.37</ele>
        <time>2019-09-07T06:52:28Z</time>
      </trkpt>
      <trkpt lat="42.5829131808" lon="0.9232620243">
        <ele>2330.37</ele>
        <time>2019-09-07T06:52:42Z</time>
      </trkpt>
      <trkpt lat="42.5829584431" lon="0.9233165905">
        <ele>2331.33</ele>
        <time>2019-09-07T06:52:53Z</time>
      </trkpt>
      <trkpt lat="42.5829784758" lon="0.9233574942">
        <ele>2334.22</ele>
        <time>2019-09-07T06:53:04Z</time>
      </trkpt>
      <trkpt lat="42.5829875283" lon="0.9233991522">
        <ele>2334.70</ele>
        <time>2019-09-07T06:53:15Z</time>
      </trkpt>
      <trkpt lat="42.5829939824" lon="0.9233945422">
        <ele>2335.66</ele>
        <time>2019-09-07T06:53:29Z</time>
      </trkpt>
      <trkpt lat="42.5830241572" lon="0.9234244656">
        <ele>2338.54</ele>
        <time>2019-09-07T06:53:41Z</time>
      </trkpt>
      <trkpt lat="42.5830460340" lon="0.9234554786">
        <ele>2339.51</ele>
        <time>2019-09-07T06:53:52Z</time>
      </trkpt>
      <trkpt lat="42.5830731075" lon="0.9234928619">
        <ele>2341.91</ele>
        <time>2019-09-07T06:54:05Z</time>
      </trkpt>
      <trkpt lat="42.5831083115" lon="0.9234641958">
        <ele>2344.31</ele>
        <time>2019-09-07T06:54:18Z</time>
      </trkpt>
      <trkpt lat="42.5831430964" lon="0.9235115536">
        <ele>2345.75</ele>
        <time>2019-09-07T06:54:30Z</time>
      </trkpt>
      <trkpt lat="42.5831809826" lon="0.9235289879">
        <ele>2347.68</ele>
        <time>2019-09-07T06:54:44Z</time>
      </trkpt>
      <trkpt lat="42.5832132529" lon="0.9235510323">
        <ele>2349.60</ele>
        <time>2019-09-07T06:54:56Z</time>
      </trkpt>
      <trkpt lat="42.5832313579" lon="0.9235771839">
        <ele>2350.56</ele>
        <time>2019-09-07T06:55:09Z</time>
      </trkpt>
      <trkpt lat="42.5832718424" lon="0.9235655330">
        <ele>2352.96</ele>
        <time>2019-09-07T06:55:22Z</time>
      </trkpt>
      <trkpt lat="42.5832944736" lon="0.9235183429">
        <ele>2354.41</ele>
        <time>2019-09-07T06:55:33Z</time>
      </trkpt>
      <trkpt lat="42.5833119918" lon="0.9235315863">
        <ele>2355.37</ele>
        <time>2019-09-07T06:55:51Z</time>
      </trkpt>
      <trkpt lat="42.5833404902" lon="0.9235640243">
        <ele>2356.81</ele>
        <time>2019-09-07T06:56:00Z</time>
      </trkpt>
      <trkpt lat="42.5833412446" lon="0.9235710651">
        <ele>2357.77</ele>
        <time>2019-09-07T06:56:15Z</time>
      </trkpt>
      <trkpt lat="42.5833667256" lon="0.9235817101">
        <ele>2358.25</ele>
        <time>2019-09-07T06:56:27Z</time>
      </trkpt>
      <trkpt lat="42.5834088027" lon="0.9235844761">
        <ele>2360.17</ele>
        <time>2019-09-07T06:56:39Z</time>
      </trkpt>
      <trkpt lat="42.5834508799" lon="0.9236088675">
        <ele>2362.10</ele>
        <time>2019-09-07T06:56:49Z</time>
      </trkpt>
      <trkpt lat="42.5834925380" lon="0.9236610867">
        <ele>2364.02</ele>
        <time>2019-09-07T06:57:00Z</time>
      </trkpt>
      <trkpt lat="42.5835239701" lon="0.9236682951">
        <ele>2365.46</ele>
        <time>2019-09-07T06:57:11Z</time>
      </trkpt>
      <trkpt lat="42.5835434999" lon="0.9236630145">
        <ele>2366.90</ele>
        <time>2019-09-07T06:57:21Z</time>
      </trkpt>
      <trkpt lat="42.5835564919" lon="0.9237495996">
        <ele>2368.83</ele>
        <time>2019-09-07T06:57:32Z</time>
      </trkpt>
      <trkpt lat="42.5835936237" lon="0.9238036629">
        <ele>2369.79</ele>
        <time>2019-09-07T06:57:43Z</time>
      </trkpt>
      <trkpt lat="42.5836063642" lon="0.9238000587">
        <ele>2371.23</ele>
        <time>2019-09-07T06:57:54Z</time>
      </trkpt>
      <trkpt lat="42.5836243853" lon="0.9237552155">
        <ele>2373.15</ele>
        <time>2019-09-07T06:58:04Z</time>
      </trkpt>
      <trkpt lat="42.5836457592" lon="0.9237275552">
        <ele>2374.11</ele>
        <time>2019-09-07T06:58:16Z</time>
      </trkpt>
      <trkpt lat="42.5837007444" lon="0.9237429779">
        <ele>2375.55</ele>
        <time>2019-09-07T06:58:27Z</time>
      </trkpt>
      <trkpt lat="42.5837485213" lon="0.9236946143">
        <ele>2377.00</ele>
        <time>2019-09-07T06:58:39Z</time>
      </trkpt>
      <trkpt lat="42.5837760977" lon="0.9236839693">
        <ele>2377.96</ele>
        <time>2019-09-07T06:58:48Z</time>
      </trkpt>
      <trkpt lat="42.5837894250" lon="0.9236889984">
        <ele>2378.92</ele>
        <time>2019-09-07T06:59:00Z</time>
      </trkpt>
      <trkpt lat="42.5837826356" lon="0.9236854780">
        <ele>2378.44</ele>
        <time>2019-09-07T06:59:25Z</time>
      </trkpt>
      <trkpt lat="42.5838144030" lon="0.9236737434">
        <ele>2378.92</ele>
        <time>2019-09-07T06:59:36Z</time>
      </trkpt>
      <trkpt lat="42.5838205218" lon="0.9237071034">
        <ele>2380.84</ele>
        <time>2019-09-07T06:59:48Z</time>
      </trkpt>
      <trkpt lat="42.5838341005" lon="0.9237265494">
        <ele>2381.80</ele>
        <time>2019-09-07T07:00:04Z</time>
      </trkpt>
      <trkpt lat="42.5838556420" lon="0.9237280581">
        <ele>2382.76</ele>
        <time>2019-09-07T07:00:22Z</time>
      </trkpt>
      <trkpt lat="42.5838822965" lon="0.9237374458">
        <ele>2384.69</ele>
        <time>2019-09-07T07:00:34Z</time>
      </trkpt>
      <trkpt lat="42.5839076098" lon="0.9237708058">
        <ele>2386.61</ele>
        <time>2019-09-07T07:00:48Z</time>
      </trkpt>
      <trkpt lat="42.5839327555" lon="0.9237449896">
        <ele>2389.01</ele>
        <time>2019-09-07T07:01:00Z</time>
      </trkpt>
      <trkpt lat="42.5839657802" lon="0.9237459116">
        <ele>2390.94</ele>
        <time>2019-09-07T07:01:11Z</time>
      </trkpt>
      <trkpt lat="42.5839862321" lon="0.9237586521">
        <ele>2391.42</ele>
        <time>2019-09-07T07:01:22Z</time>
      </trkpt>
      <trkpt lat="42.5839936081" lon="0.9237786010">
        <ele>2392.38</ele>
        <time>2019-09-07T07:01:38Z</time>
      </trkpt>
      <trkpt lat="42.5839980505" lon="0.9237924311">
        <ele>2392.86</ele>
        <time>2019-09-07T07:01:52Z</time>
      </trkpt>
      <trkpt lat="42.5839881599" lon="0.9237623401">
        <ele>2392.38</ele>
        <time>2019-09-07T07:02:07Z</time>
      </trkpt>
      <trkpt lat="42.5840311591" lon="0.9237298183">
        <ele>2394.78</ele>
        <time>2019-09-07T07:02:19Z</time>
      </trkpt>
      <trkpt lat="42.5840603281" lon="0.9236996435">
        <ele>2396.70</ele>
        <time>2019-09-07T07:02:30Z</time>
      </trkpt>
      <trkpt lat="42.5840999745" lon="0.9237148147">
        <ele>2397.67</ele>
        <time>2019-09-07T07:02:43Z</time>
      </trkpt>
      <trkpt lat="42.5841611624" lon="0.9237678722">
        <ele>2399.59</ele>
        <time>2019-09-07T07:02:57Z</time>
      </trkpt>
      <trkpt lat="42.5841490924" lon="0.9237688780">
        <ele>2401.51</ele>
        <time>2019-09-07T07:03:09Z</time>
      </trkpt>
      <trkpt lat="42.5841608271" lon="0.9237931855">
        <ele>2402.47</ele>
        <time>2019-09-07T07:03:19Z</time>
      </trkpt>
      <trkpt lat="42.5841867272" lon="0.9238121286">
        <ele>2403.91</ele>
        <time>2019-09-07T07:03:29Z</time>
      </trkpt>
      <trkpt lat="42.5842168182" lon="0.9238304012">
        <ele>2405.84</ele>
        <time>2019-09-07T07:03:41Z</time>
      </trkpt>
      <trkpt lat="42.5842236076" lon="0.9238260426">
        <ele>2407.28</ele>
        <time>2019-09-07T07:03:52Z</time>
      </trkpt>
      <trkpt lat="42.5842215959" lon="0.9238297306">
        <ele>2406.80</ele>
        <time>2019-09-07T07:04:07Z</time>
      </trkpt>
      <trkpt lat="42.5842632540" lon="0.9238549601">
        <ele>2409.20</ele>
        <time>2019-09-07T07:04:20Z</time>
      </trkpt>
      <trkpt lat="42.5842884835" lon="0.9238500986">
        <ele>2410.64</ele>
        <time>2019-09-07T07:04:31Z</time>
      </trkpt>
      <trkpt lat="42.5842994638" lon="0.9238804411">
        <ele>2412.57</ele>
        <time>2019-09-07T07:04:44Z</time>
      </trkpt>
      <trkpt lat="42.5843350869" lon="0.9238992166">
        <ele>2413.53</ele>
        <time>2019-09-07T07:04:56Z</time>
      </trkpt>
      <trkpt lat="42.5843749009" lon="0.9239085205">
        <ele>2415.45</ele>
        <time>2019-09-07T07:05:08Z</time>
      </trkpt>
      <trkpt lat="42.5843858812" lon="0.9239166509">
        <ele>2417.37</ele>
        <time>2019-09-07T07:05:19Z</time>
      </trkpt>
      <trkpt lat="42.5843796786" lon="0.9240070917">
        <ele>2419.30</ele>
        <time>2019-09-07T07:05:30Z</time>
      </trkpt>
      <trkpt lat="42.5843912456" lon="0.9240355063">
        <ele>2420.26</ele>
        <time>2019-09-07T07:05:42Z</time>
      </trkpt>
      <trkpt lat="42.5844269525" lon="0.9240335785">
        <ele>2422.18</ele>
        <time>2019-09-07T07:05:54Z</time>
      </trkpt>
      <trkpt lat="42.5844467338" lon="0.9240255319">
        <ele>2424.58</ele>
        <time>2019-09-07T07:06:06Z</time>
      </trkpt>
      <trkpt lat="42.5844462309" lon="0.9240053315">
        <ele>2426.02</ele>
        <time>2019-09-07T07:06:15Z</time>
      </trkpt>
      <trkpt lat="42.5844506733" lon="0.9239861369">
        <ele>2426.02</ele>
        <time>2019-09-07T07:06:28Z</time>
      </trkpt>
      <trkpt lat="42.5844690297" lon="0.9240086004">
        <ele>2426.02</ele>
        <time>2019-09-07T07:06:40Z</time>
      </trkpt>
      <trkpt lat="42.5844967738" lon="0.9240024816">
        <ele>2426.99</ele>
        <time>2019-09-07T07:06:49Z</time>
      </trkpt>
      <trkpt lat="42.5845148787" lon="0.9240499232">
        <ele>2428.43</ele>
        <time>2019-09-07T07:07:00Z</time>
      </trkpt>
      <trkpt lat="42.5845266972" lon="0.9240793437">
        <ele>2430.83</ele>
        <time>2019-09-07T07:07:12Z</time>
      </trkpt>
      <trkpt lat="42.5845338218" lon="0.9240877256">
        <ele>2431.31</ele>
        <time>2019-09-07T07:07:15Z</time>
      </trkpt>
      <trkpt lat="42.5845481548" lon="0.9241238516">
        <ele>2432.75</ele>
        <time>2019-09-07T07:07:27Z</time>
      </trkpt>
      <trkpt lat="42.5845552795" lon="0.9241056629">
        <ele>2434.20</ele>
        <time>2019-09-07T07:07:37Z</time>
      </trkpt>
      <trkpt lat="42.5845703669" lon="0.9240855463">
        <ele>2435.16</ele>
        <time>2019-09-07T07:07:49Z</time>
      </trkpt>
      <trkpt lat="42.5845892262" lon="0.9240878932">
        <ele>2435.64</ele>
        <time>2019-09-07T07:08:01Z</time>
      </trkpt>
      <trkpt lat="42.5846084207" lon="0.9240764100">
        <ele>2437.08</ele>
        <time>2019-09-07T07:08:15Z</time>
      </trkpt>
      <trkpt lat="42.5846249331" lon="0.9240692854">
        <ele>2438.52</ele>
        <time>2019-09-07T07:08:26Z</time>
      </trkpt>
      <trkpt lat="42.5846252684" lon="0.9240679443">
        <ele>2439.96</ele>
        <time>2019-09-07T07:08:46Z</time>
      </trkpt>
      <trkpt lat="42.5846649986" lon="0.9240573831">
        <ele>2440.44</ele>
        <time>2019-09-07T07:08:56Z</time>
      </trkpt>
      <trkpt lat="42.5846917368" lon="0.9240316506">
        <ele>2442.85</ele>
        <time>2019-09-07T07:09:04Z</time>
      </trkpt>
      <trkpt lat="42.5846983586" lon="0.9240083490">
        <ele>2442.37</ele>
        <time>2019-09-07T07:09:21Z</time>
      </trkpt>
      <trkpt lat="42.5847258512" lon="0.9240042418">
        <ele>2443.81</ele>
        <time>2019-09-07T07:09:32Z</time>
      </trkpt>
      <trkpt lat="42.5847522542" lon="0.9240073431">
        <ele>2445.73</ele>
        <time>2019-09-07T07:09:43Z</time>
      </trkpt>
      <trkpt lat="42.5847723708" lon="0.9240194969">
        <ele>2447.17</ele>
        <time>2019-09-07T07:09:56Z</time>
      </trkpt>
      <trkpt lat="42.5847860333" lon="0.9240192454">
        <ele>2448.13</ele>
        <time>2019-09-07T07:10:08Z</time>
      </trkpt>
      <trkpt lat="42.5848069042" lon="0.9240437206">
        <ele>2449.10</ele>
        <time>2019-09-07T07:10:19Z</time>
      </trkpt>
      <trkpt lat="42.5848369952" lon="0.9240521025">
        <ele>2450.54</ele>
        <time>2019-09-07T07:10:30Z</time>
      </trkpt>
      <trkpt lat="42.5848551001" lon="0.9240474086">
        <ele>2451.98</ele>
        <time>2019-09-07T07:10:41Z</time>
      </trkpt>
      <trkpt lat="42.5848833472" lon="0.9240829479">
        <ele>2453.42</ele>
        <time>2019-09-07T07:10:53Z</time>
      </trkpt>
      <trkpt lat="42.5849151984" lon="0.9240816906">
        <ele>2454.86</ele>
        <time>2019-09-07T07:11:05Z</time>
      </trkpt>
      <trkpt lat="42.5849405956" lon="0.9240638372">
        <ele>2457.75</ele>
        <time>2019-09-07T07:11:18Z</time>
      </trkpt>
      <trkpt lat="42.5849591196" lon="0.9240441397">
        <ele>2459.19</ele>
        <time>2019-09-07T07:11:31Z</time>
      </trkpt>
      <trkpt lat="42.5849731173" lon="0.9240391105">
        <ele>2459.67</ele>
        <time>2019-09-07T07:11:41Z</time>
      </trkpt>
      <trkpt lat="42.5849947426" lon="0.9240383562">
        <ele>2461.11</ele>
        <time>2019-09-07T07:11:52Z</time>
      </trkpt>
      <trkpt lat="42.5850230735" lon="0.9240363445">
        <ele>2462.55</ele>
        <time>2019-09-07T07:12:04Z</time>
      </trkpt>
      <trkpt lat="42.5850299466" lon="0.9240509290">
        <ele>2463.52</ele>
        <time>2019-09-07T07:12:18Z</time>
      </trkpt>
      <trkpt lat="42.5850637257" lon="0.9240602329">
        <ele>2464.48</ele>
        <time>2019-09-07T07:12:37Z</time>
      </trkpt>
      <trkpt lat="42.5850855187" lon="0.9240256157">
        <ele>2466.88</ele>
        <time>2019-09-07T07:12:49Z</time>
      </trkpt>
      <trkpt lat="42.5851246621" lon="0.9240265377">
        <ele>2468.32</ele>
        <time>2019-09-07T07:13:03Z</time>
      </trkpt>
      <trkpt lat="42.5851494726" lon="0.9240279626">
        <ele>2469.76</ele>
        <time>2019-09-07T07:13:15Z</time>
      </trkpt>
      <trkpt lat="42.5851591956" lon="0.9240208380">
        <ele>2471.21</ele>
        <time>2019-09-07T07:13:24Z</time>
      </trkpt>
      <trkpt lat="42.5851744507" lon="0.9239881486">
        <ele>2472.65</ele>
        <time>2019-09-07T07:13:35Z</time>
      </trkpt>
      <trkpt lat="42.5851895381" lon="0.9239764139">
        <ele>2473.61</ele>
        <time>2019-09-07T07:13:43Z</time>
      </trkpt>
      <trkpt lat="42.5851933938" lon="0.9239665233">
        <ele>2474.57</ele>
        <time>2019-09-07T07:13:57Z</time>
      </trkpt>
      <trkpt lat="42.5852228981" lon="0.9239637572">
        <ele>2475.05</ele>
        <time>2019-09-07T07:14:05Z</time>
      </trkpt>
      <trkpt lat="42.5852426793" lon="0.9239675291">
        <ele>2476.49</ele>
        <time>2019-09-07T07:14:16Z</time>
      </trkpt>
      <trkpt lat="42.5852569286" lon="0.9239680320">
        <ele>2478.42</ele>
        <time>2019-09-07T07:14:24Z</time>
      </trkpt>
      <trkpt lat="42.5852705911" lon="0.9239536151">
        <ele>2479.86</ele>
        <time>2019-09-07T07:14:37Z</time>
      </trkpt>
      <trkpt lat="42.5852933899" lon="0.9239327442">
        <ele>2480.82</ele>
        <time>2019-09-07T07:14:47Z</time>
      </trkpt>
      <trkpt lat="42.5853124168" lon="0.9239243623">
        <ele>2482.26</ele>
        <time>2019-09-07T07:14:59Z</time>
      </trkpt>
      <trkpt lat="42.5853388198" lon="0.9239412099">
        <ele>2483.22</ele>
        <time>2019-09-07T07:15:09Z</time>
      </trkpt>
      <trkpt lat="42.5853748620" lon="0.9239703789">
        <ele>2484.66</ele>
        <time>2019-09-07T07:15:22Z</time>
      </trkpt>
      <trkpt lat="42.5853876024" lon="0.9239490889">
        <ele>2485.63</ele>
        <time>2019-09-07T07:15:32Z</time>
      </trkpt>
      <trkpt lat="42.5854037795" lon="0.9239466581">
        <ele>2486.59</ele>
        <time>2019-09-07T07:15:44Z</time>
      </trkpt>
      <trkpt lat="42.5854259916" lon="0.9239520226">
        <ele>2487.55</ele>
        <time>2019-09-07T07:15:53Z</time>
      </trkpt>
      <trkpt lat="42.5854410790" lon="0.9239732288">
        <ele>2488.99</ele>
        <time>2019-09-07T07:16:02Z</time>
      </trkpt>
      <trkpt lat="42.5854777079" lon="0.9240013920">
        <ele>2491.39</ele>
        <time>2019-09-07T07:16:15Z</time>
      </trkpt>
      <trkpt lat="42.5855018478" lon="0.9240370151">
        <ele>2492.84</ele>
        <time>2019-09-07T07:16:26Z</time>
      </trkpt>
      <trkpt lat="42.5855273288" lon="0.9240510128">
        <ele>2494.76</ele>
        <time>2019-09-07T07:16:38Z</time>
      </trkpt>
      <trkpt lat="42.5855530612" lon="0.9240875579">
        <ele>2496.20</ele>
        <time>2019-09-07T07:16:51Z</time>
      </trkpt>
      <trkpt lat="42.5855764467" lon="0.9240841214">
        <ele>2497.16</ele>
        <time>2019-09-07T07:17:05Z</time>
      </trkpt>
      <trkpt lat="42.5855953060" lon="0.9240790084">
        <ele>2498.60</ele>
        <time>2019-09-07T07:17:15Z</time>
      </trkpt>
      <trkpt lat="42.5856296718" lon="0.9240804333">
        <ele>2501.01</ele>
        <time>2019-09-07T07:17:30Z</time>
      </trkpt>
      <trkpt lat="42.5856414065" lon="0.9240945149">
        <ele>2502.93</ele>
        <time>2019-09-07T07:17:44Z</time>
      </trkpt>
      <trkpt lat="42.5856577512" lon="0.9241154697">
        <ele>2502.45</ele>
        <time>2019-09-07T07:17:54Z</time>
      </trkpt>
      <trkpt lat="42.5856852438" lon="0.9241332393">
        <ele>2504.37</ele>
        <time>2019-09-07T07:18:05Z</time>
      </trkpt>
      <trkpt lat="42.5857025944" lon="0.9241452254">
        <ele>2505.81</ele>
        <time>2019-09-07T07:18:16Z</time>
      </trkpt>
      <trkpt lat="42.5857193582" lon="0.9241536912">
        <ele>2507.26</ele>
        <time>2019-09-07T07:18:28Z</time>
      </trkpt>
      <trkpt lat="42.5857422408" lon="0.9241512604">
        <ele>2509.18</ele>
        <time>2019-09-07T07:18:41Z</time>
      </trkpt>
      <trkpt lat="42.5857506227" lon="0.9240780026">
        <ele>2511.10</ele>
        <time>2019-09-07T07:18:54Z</time>
      </trkpt>
      <trkpt lat="42.5857672188" lon="0.9240430500">
        <ele>2513.02</ele>
        <time>2019-09-07T07:19:04Z</time>
      </trkpt>
      <trkpt lat="42.5858071167" lon="0.9240790922">
        <ele>2513.98</ele>
        <time>2019-09-07T07:19:15Z</time>
      </trkpt>
      <trkpt lat="42.5858304184" lon="0.9241162241">
        <ele>2516.39</ele>
        <time>2019-09-07T07:19:29Z</time>
      </trkpt>
      <trkpt lat="42.5858717412" lon="0.9241368435">
        <ele>2518.31</ele>
        <time>2019-09-07T07:19:43Z</time>
      </trkpt>
      <trkpt lat="42.5858851522" lon="0.9240702912">
        <ele>2520.23</ele>
        <time>2019-09-07T07:19:54Z</time>
      </trkpt>
      <trkpt lat="42.5858787820" lon="0.9239942674">
        <ele>2521.68</ele>
        <time>2019-09-07T07:20:04Z</time>
      </trkpt>
      <trkpt lat="42.5858861580" lon="0.9239389468">
        <ele>2523.12</ele>
        <time>2019-09-07T07:20:15Z</time>
      </trkpt>
      <trkpt lat="42.5859035924" lon="0.9238938522">
        <ele>2524.56</ele>
        <time>2019-09-07T07:20:26Z</time>
      </trkpt>
      <trkpt lat="42.5859130640" lon="0.9238590673">
        <ele>2526.48</ele>
        <time>2019-09-07T07:20:38Z</time>
      </trkpt>
      <trkpt lat="42.5859275647" lon="0.9238350112">
        <ele>2526.96</ele>
        <time>2019-09-07T07:20:58Z</time>
      </trkpt>
      <trkpt lat="42.5859409757" lon="0.9237655252">
        <ele>2529.37</ele>
        <time>2019-09-07T07:21:09Z</time>
      </trkpt>
      <trkpt lat="42.5859633554" lon="0.9237322491">
        <ele>2530.81</ele>
        <time>2019-09-07T07:21:19Z</time>
      </trkpt>
      <trkpt lat="42.5859863218" lon="0.9237068519">
        <ele>2532.73</ele>
        <time>2019-09-07T07:21:32Z</time>
      </trkpt>
      <trkpt lat="42.5859973021" lon="0.9236596618">
        <ele>2533.69</ele>
        <time>2019-09-07T07:21:42Z</time>
      </trkpt>
      <trkpt lat="42.5860035885" lon="0.9235950373">
        <ele>2536.58</ele>
        <time>2019-09-07T07:21:52Z</time>
      </trkpt>
      <trkpt lat="42.5860069413" lon="0.9235807043">
        <ele>2537.06</ele>
        <time>2019-09-07T07:21:54Z</time>
      </trkpt>
      <trkpt lat="42.5860205200" lon="0.9235228691">
        <ele>2537.06</ele>
        <time>2019-09-07T07:22:06Z</time>
      </trkpt>
      <trkpt lat="42.5860437378" lon="0.9234816302">
        <ele>2538.98</ele>
        <time>2019-09-07T07:22:17Z</time>
      </trkpt>
      <trkpt lat="42.5860750023" lon="0.9234335180">
        <ele>2541.38</ele>
        <time>2019-09-07T07:22:28Z</time>
      </trkpt>
      <trkpt lat="42.5860646088" lon="0.9233627748">
        <ele>2543.31</ele>
        <time>2019-09-07T07:22:40Z</time>
      </trkpt>
      <trkpt lat="42.5860595796" lon="0.9233291633">
        <ele>2543.31</ele>
        <time>2019-09-07T07:22:53Z</time>
      </trkpt>
      <trkpt lat="42.5860731583" lon="0.9232886788">
        <ele>2544.27</ele>
        <time>2019-09-07T07:23:03Z</time>
      </trkpt>
      <trkpt lat="42.5860630162" lon="0.9232421592">
        <ele>2544.75</ele>
        <time>2019-09-07T07:23:13Z</time>
      </trkpt>
      <trkpt lat="42.5860561430" lon="0.9231962264">
        <ele>2544.27</ele>
        <time>2019-09-07T07:23:23Z</time>
      </trkpt>
      <trkpt lat="42.5860437378" lon="0.9231638722">
        <ele>2544.27</ele>
        <time>2019-09-07T07:23:32Z</time>
      </trkpt>
      <trkpt lat="42.5860072765" lon="0.9230971523">
        <ele>2544.75</ele>
        <time>2019-09-07T07:23:42Z</time>
      </trkpt>
      <trkpt lat="42.5859907642" lon="0.9230203740">
        <ele>2546.19</ele>
        <time>2019-09-07T07:23:53Z</time>
      </trkpt>
      <trkpt lat="42.5859826338" lon="0.9230057895">
        <ele>2546.19</ele>
        <time>2019-09-07T07:23:57Z</time>
      </trkpt>
      <trkpt lat="42.5859028380" lon="0.9228368942">
        <ele>2547.63</ele>
        <time>2019-09-07T07:24:12Z</time>
      </trkpt>
      <trkpt lat="42.5858644489" lon="0.9227355570">
        <ele>2548.59</ele>
        <time>2019-09-07T07:24:23Z</time>
      </trkpt>
      <trkpt lat="42.5858581625" lon="0.9226980060">
        <ele>2549.55</ele>
        <time>2019-09-07T07:24:28Z</time>
      </trkpt>
      <trkpt lat="42.5858175103" lon="0.9225980937">
        <ele>2550.03</ele>
        <time>2019-09-07T07:24:38Z</time>
      </trkpt>
      <trkpt lat="42.5858028419" lon="0.9225022886">
        <ele>2551.96</ele>
        <time>2019-09-07T07:24:50Z</time>
      </trkpt>
      <trkpt lat="42.5858000759" lon="0.9224804956">
        <ele>2553.40</ele>
        <time>2019-09-07T07:25:04Z</time>
      </trkpt>
      <trkpt lat="42.5857947953" lon="0.9224426933">
        <ele>2553.40</ele>
        <time>2019-09-07T07:25:21Z</time>
      </trkpt>
      <trkpt lat="42.5857911073" lon="0.9223924018">
        <ele>2554.36</ele>
        <time>2019-09-07T07:25:31Z</time>
      </trkpt>
      <trkpt lat="42.5857432466" lon="0.9223410208">
        <ele>2555.32</ele>
        <time>2019-09-07T07:25:41Z</time>
      </trkpt>
      <trkpt lat="42.5857218727" lon="0.9222618118">
        <ele>2556.76</ele>
        <time>2019-09-07T07:25:51Z</time>
      </trkpt>
      <trkpt lat="42.5856947992" lon="0.9221603908">
        <ele>2556.76</ele>
        <time>2019-09-07T07:26:02Z</time>
      </trkpt>
      <trkpt lat="42.5856839027" lon="0.9220795892">
        <ele>2558.21</ele>
        <time>2019-09-07T07:26:13Z</time>
      </trkpt>
      <trkpt lat="42.5856642053" lon="0.9219797608">
        <ele>2558.21</ele>
        <time>2019-09-07T07:26:27Z</time>
      </trkpt>
      <trkpt lat="42.5856692344" lon="0.9219262842">
        <ele>2559.17</ele>
        <time>2019-09-07T07:26:37Z</time>
      </trkpt>
      <trkpt lat="42.5856709108" lon="0.9219035693">
        <ele>2559.17</ele>
        <time>2019-09-07T07:26:55Z</time>
      </trkpt>
      <trkpt lat="42.5856695697" lon="0.9218894038">
        <ele>2559.65</ele>
        <time>2019-09-07T07:27:10Z</time>
      </trkpt>
      <trkpt lat="42.5856549013" lon="0.9218573011">
        <ele>2559.65</ele>
        <time>2019-09-07T07:27:23Z</time>
      </trkpt>
      <trkpt lat="42.5856302585" lon="0.9218092728">
        <ele>2558.21</ele>
        <time>2019-09-07T07:27:34Z</time>
      </trkpt>
      <trkpt lat="42.5856095552" lon="0.9217095282">
        <ele>2556.76</ele>
        <time>2019-09-07T07:27:46Z</time>
      </trkpt>
      <trkpt lat="42.5856007542" lon="0.9216385335">
        <ele>2570.22</ele>
        <time>2019-09-07T07:27:58Z</time>
      </trkpt>
      <trkpt lat="42.5856021792" lon="0.9216376115">
        <ele>2564.93</ele>
        <time>2019-09-07T07:27:59Z</time>
      </trkpt>
      <trkpt lat="42.5856047776" lon="0.9216298163">
        <ele>2561.09</ele>
        <time>2019-09-07T07:28:01Z</time>
      </trkpt>
      <trkpt lat="42.5856254809" lon="0.9216009825">
        <ele>2559.65</ele>
        <time>2019-09-07T07:28:12Z</time>
      </trkpt>
      <trkpt lat="42.5856355391" lon="0.9215620905">
        <ele>2559.65</ele>
        <time>2019-09-07T07:28:24Z</time>
      </trkpt>
      <trkpt lat="42.5856449269" lon="0.9215310775">
        <ele>2559.65</ele>
        <time>2019-09-07T07:28:34Z</time>
      </trkpt>
      <trkpt lat="42.5856459327" lon="0.9215137269">
        <ele>2559.65</ele>
        <time>2019-09-07T07:28:47Z</time>
      </trkpt>
      <trkpt lat="42.5856481120" lon="0.9214952029">
        <ele>2565.90</ele>
        <time>2019-09-07T07:29:00Z</time>
      </trkpt>
      <trkpt lat="42.5856507104" lon="0.9214888327">
        <ele>2565.90</ele>
        <time>2019-09-07T07:29:01Z</time>
      </trkpt>
      <trkpt lat="42.5856552366" lon="0.9214711469">
        <ele>2565.90</ele>
        <time>2019-09-07T07:29:15Z</time>
      </trkpt>
      <trkpt lat="42.5856973976" lon="0.9214475937">
        <ele>2566.38</ele>
        <time>2019-09-07T07:29:27Z</time>
      </trkpt>
      <trkpt lat="42.5857715774" lon="0.9213967994">
        <ele>2567.82</ele>
        <time>2019-09-07T07:29:37Z</time>
      </trkpt>
      <trkpt lat="42.5858297478" lon="0.9213424847">
        <ele>2570.22</ele>
        <time>2019-09-07T07:29:53Z</time>
      </trkpt>
      <trkpt lat="42.5858665444" lon="0.9212896787">
        <ele>2571.18</ele>
        <time>2019-09-07T07:30:04Z</time>
      </trkpt>
      <trkpt lat="42.5859026704" lon="0.9212217852">
        <ele>2573.59</ele>
        <time>2019-09-07T07:30:17Z</time>
      </trkpt>
      <trkpt lat="42.5859460048" lon="0.9211723320">
        <ele>2574.55</ele>
        <time>2019-09-07T07:30:27Z</time>
      </trkpt>
      <trkpt lat="42.5859843101" lon="0.9211255610">
        <ele>2575.99</ele>
        <time>2019-09-07T07:30:39Z</time>
      </trkpt>
      <trkpt lat="42.5860285666" lon="0.9210789576">
        <ele>2577.43</ele>
        <time>2019-09-07T07:30:51Z</time>
      </trkpt>
      <trkpt lat="42.5860547181" lon="0.9210134950">
        <ele>2578.39</ele>
        <time>2019-09-07T07:31:00Z</time>
      </trkpt>
      <trkpt lat="42.5860784389" lon="0.9209875111">
        <ele>2580.32</ele>
        <time>2019-09-07T07:31:12Z</time>
      </trkpt>
      <trkpt lat="42.5861122180" lon="0.9209440928">
        <ele>2580.80</ele>
        <time>2019-09-07T07:31:22Z</time>
      </trkpt>
      <trkpt lat="42.5861366931" lon="0.9209072124">
        <ele>2583.20</ele>
        <time>2019-09-07T07:31:34Z</time>
      </trkpt>
      <trkpt lat="42.5861631799" lon="0.9208728466">
        <ele>2584.16</ele>
        <time>2019-09-07T07:31:46Z</time>
      </trkpt>
      <trkpt lat="42.5861881580" lon="0.9208335355">
        <ele>2584.64</ele>
        <time>2019-09-07T07:31:54Z</time>
      </trkpt>
      <trkpt lat="42.5862009823" lon="0.9207758680">
        <ele>2585.60</ele>
        <time>2019-09-07T07:32:05Z</time>
      </trkpt>
      <trkpt lat="42.5862217695" lon="0.9207151830">
        <ele>2586.56</ele>
        <time>2019-09-07T07:32:15Z</time>
      </trkpt>
      <trkpt lat="42.5862574764" lon="0.9206420090">
        <ele>2586.56</ele>
        <time>2019-09-07T07:32:24Z</time>
      </trkpt>
      <trkpt lat="42.5862821192" lon="0.9205748700">
        <ele>2586.56</ele>
        <time>2019-09-07T07:32:34Z</time>
      </trkpt>
      <trkpt lat="42.5862896629" lon="0.9205440246">
        <ele>2587.53</ele>
        <time>2019-09-07T07:32:49Z</time>
      </trkpt>
      <trkpt lat="42.5863089412" lon="0.9204768855">
        <ele>2588.01</ele>
        <time>2019-09-07T07:33:01Z</time>
      </trkpt>
      <trkpt lat="42.5863142218" lon="0.9204347245">
        <ele>2589.93</ele>
        <time>2019-09-07T07:33:13Z</time>
      </trkpt>
      <trkpt lat="42.5863023195" lon="0.9204057232">
        <ele>2589.45</ele>
        <time>2019-09-07T07:33:21Z</time>
      </trkpt>
      <trkpt lat="42.5862880703" lon="0.9202956688">
        <ele>2588.97</ele>
        <time>2019-09-07T07:33:32Z</time>
      </trkpt>
      <trkpt lat="42.5863348413" lon="0.9202049766">
        <ele>2587.53</ele>
        <time>2019-09-07T07:33:44Z</time>
      </trkpt>
      <trkpt lat="42.5864090212" lon="0.9201187268">
        <ele>2586.56</ele>
        <time>2019-09-07T07:33:57Z</time>
      </trkpt>
      <trkpt lat="42.5864210073" lon="0.9200329799">
        <ele>2585.12</ele>
        <time>2019-09-07T07:34:09Z</time>
      </trkpt>
      <trkpt lat="42.5864112843" lon="0.9200018831">
        <ele>2585.12</ele>
        <time>2019-09-07T07:34:19Z</time>
      </trkpt>
      <trkpt lat="42.5864230189" lon="0.9199339896">
        <ele>2583.20</ele>
        <time>2019-09-07T07:34:28Z</time>
      </trkpt>
      <trkpt lat="42.5864251144" lon="0.9199191537">
        <ele>2582.72</ele>
        <time>2019-09-07T07:34:38Z</time>
      </trkpt>
      <trkpt lat="42.5864169002" lon="0.9199126996">
        <ele>2583.20</ele>
        <time>2019-09-07T07:34:51Z</time>
      </trkpt>
      <trkpt lat="42.5864115357" lon="0.9199118614">
        <ele>2582.72</ele>
        <time>2019-09-07T07:35:20Z</time>
      </trkpt>
      <trkpt lat="42.5864080153" lon="0.9199103527">
        <ele>2582.24</ele>
        <time>2019-09-07T07:35:39Z</time>
      </trkpt>
      <trkpt lat="42.5863931794" lon="0.9199108556">
        <ele>2582.24</ele>
        <time>2019-09-07T07:36:27Z</time>
      </trkpt>
      <trkpt lat="42.5863915868" lon="0.9199077543">
        <ele>2582.24</ele>
        <time>2019-09-07T07:36:58Z</time>
      </trkpt>
      <trkpt lat="42.5863957778" lon="0.9199044015">
        <ele>2582.24</ele>
        <time>2019-09-07T07:37:35Z</time>
      </trkpt>
      <trkpt lat="42.5864162296" lon="0.9199328162">
        <ele>2582.24</ele>
        <time>2019-09-07T07:38:47Z</time>
      </trkpt>
      <trkpt lat="42.5864182413" lon="0.9199295472">
        <ele>2582.24</ele>
        <time>2019-09-07T07:39:16Z</time>
      </trkpt>
      <trkpt lat="42.5864378549" lon="0.9199357498">
        <ele>2582.24</ele>
        <time>2019-09-07T07:39:32Z</time>
      </trkpt>
      <trkpt lat="42.5864215940" lon="0.9199388511">
        <ele>2582.24</ele>
        <time>2019-09-07T07:40:17Z</time>
      </trkpt>
      <trkpt lat="42.5864280481" lon="0.9199392702">
        <ele>2582.24</ele>
        <time>2019-09-07T07:40:50Z</time>
      </trkpt>
      <trkpt lat="42.5864366814" lon="0.9199522622">
        <ele>2582.24</ele>
        <time>2019-09-07T07:41:01Z</time>
      </trkpt>
      <trkpt lat="42.5864247791" lon="0.9199221712">
        <ele>2582.24</ele>
        <time>2019-09-07T07:41:14Z</time>
      </trkpt>
      <trkpt lat="42.5864153914" lon="0.9199313074">
        <ele>2582.24</ele>
        <time>2019-09-07T07:41:24Z</time>
      </trkpt>
      <trkpt lat="42.5864155591" lon="0.9199339896">
        <ele>2582.24</ele>
        <time>2019-09-07T07:41:45Z</time>
      </trkpt>
      <trkpt lat="42.5864044949" lon="0.9199225903">
        <ele>2582.24</ele>
        <time>2019-09-07T07:41:57Z</time>
      </trkpt>
      <trkpt lat="42.5863760803" lon="0.9198770765">
        <ele>2582.24</ele>
        <time>2019-09-07T07:42:07Z</time>
      </trkpt>
      <trkpt lat="42.5863571372" lon="0.9198303055">
        <ele>2582.24</ele>
        <time>2019-09-07T07:42:18Z</time>
      </trkpt>
      <trkpt lat="42.5863656867" lon="0.9197611548">
        <ele>2582.24</ele>
        <time>2019-09-07T07:42:27Z</time>
      </trkpt>
      <trkpt lat="42.5863741525" lon="0.9197130427">
        <ele>2582.24</ele>
        <time>2019-09-07T07:42:36Z</time>
      </trkpt>
      <trkpt lat="42.5863409601" lon="0.9196406230">
        <ele>2582.24</ele>
        <time>2019-09-07T07:42:45Z</time>
      </trkpt>
      <trkpt lat="42.5863183290" lon="0.9196045808">
        <ele>2579.35</ele>
        <time>2019-09-07T07:42:50Z</time>
      </trkpt>
      <trkpt lat="42.5862954464" lon="0.9195973724">
        <ele>2577.91</ele>
        <time>2019-09-07T07:42:53Z</time>
      </trkpt>
      <trkpt lat="42.5862553809" lon="0.9195833746">
        <ele>2576.47</ele>
        <time>2019-09-07T07:43:01Z</time>
      </trkpt>
      <trkpt lat="42.5862374436" lon="0.9195487574">
        <ele>2575.51</ele>
        <time>2019-09-07T07:43:06Z</time>
      </trkpt>
      <trkpt lat="42.5862126332" lon="0.9194288962">
        <ele>2573.59</ele>
        <time>2019-09-07T07:43:18Z</time>
      </trkpt>
      <trkpt lat="42.5862235297" lon="0.9193662833">
        <ele>2572.63</ele>
        <time>2019-09-07T07:43:29Z</time>
      </trkpt>
      <trkpt lat="42.5861723162" lon="0.9193458315">
        <ele>2571.18</ele>
        <time>2019-09-07T07:43:40Z</time>
      </trkpt>
      <trkpt lat="42.5861450750" lon="0.9192773513">
        <ele>2569.74</ele>
        <time>2019-09-07T07:43:49Z</time>
      </trkpt>
      <trkpt lat="42.5861066021" lon="0.9191997349">
        <ele>2570.22</ele>
        <time>2019-09-07T07:44:00Z</time>
      </trkpt>
      <trkpt lat="42.5860867370" lon="0.9191326797">
        <ele>2571.66</ele>
        <time>2019-09-07T07:44:09Z</time>
      </trkpt>
      <trkpt lat="42.5860920176" lon="0.9190847352">
        <ele>2573.11</ele>
        <time>2019-09-07T07:44:21Z</time>
      </trkpt>
      <trkpt lat="42.5860882457" lon="0.9190622717">
        <ele>2574.07</ele>
        <time>2019-09-07T07:44:30Z</time>
      </trkpt>
      <trkpt lat="42.5860830490" lon="0.9190354496">
        <ele>2575.99</ele>
        <time>2019-09-07T07:44:41Z</time>
      </trkpt>
      <trkpt lat="42.5860672072" lon="0.9189896844">
        <ele>2577.43</ele>
        <time>2019-09-07T07:44:53Z</time>
      </trkpt>
      <trkpt lat="42.5860534608" lon="0.9189396445">
        <ele>2578.87</ele>
        <time>2019-09-07T07:45:05Z</time>
      </trkpt>
      <trkpt lat="42.5860411394" lon="0.9188586753">
        <ele>2580.80</ele>
        <time>2019-09-07T07:45:18Z</time>
      </trkpt>
      <trkpt lat="42.5860051811" lon="0.9187632054">
        <ele>2581.76</ele>
        <time>2019-09-07T07:45:27Z</time>
      </trkpt>
      <trkpt lat="42.5860018283" lon="0.9187518060">
        <ele>2581.76</ele>
        <time>2019-09-07T07:45:28Z</time>
      </trkpt>
      <trkpt lat="42.5859839749" lon="0.9186583478">
        <ele>2582.24</ele>
        <time>2019-09-07T07:45:40Z</time>
      </trkpt>
      <trkpt lat="42.5859641097" lon="0.9186395723">
        <ele>2582.24</ele>
        <time>2019-09-07T07:45:51Z</time>
      </trkpt>
      <trkpt lat="42.5859250501" lon="0.9186392371">
        <ele>2582.24</ele>
        <time>2019-09-07T07:46:00Z</time>
      </trkpt>
      <trkpt lat="42.5859087054" lon="0.9186157677">
        <ele>2581.76</ele>
        <time>2019-09-07T07:46:05Z</time>
      </trkpt>
      <trkpt lat="42.5858863257" lon="0.9185667336">
        <ele>2582.72</ele>
        <time>2019-09-07T07:46:16Z</time>
      </trkpt>
      <trkpt lat="42.5858642813" lon="0.9185296018">
        <ele>2581.76</ele>
        <time>2019-09-07T07:46:26Z</time>
      </trkpt>
      <trkpt lat="42.5858628564" lon="0.9185253270">
        <ele>2581.76</ele>
        <time>2019-09-07T07:46:36Z</time>
      </trkpt>
      <trkpt lat="42.5858504511" lon="0.9185277577">
        <ele>2581.76</ele>
        <time>2019-09-07T07:46:50Z</time>
      </trkpt>
      <trkpt lat="42.5858342741" lon="0.9184854291">
        <ele>2581.76</ele>
        <time>2019-09-07T07:46:59Z</time>
      </trkpt>
      <trkpt lat="42.5858205277" lon="0.9184270911">
        <ele>2581.76</ele>
        <time>2019-09-07T07:47:09Z</time>
      </trkpt>
      <trkpt lat="42.5857785344" lon="0.9183715191">
        <ele>2583.20</ele>
        <time>2019-09-07T07:47:19Z</time>
      </trkpt>
      <trkpt lat="42.5857465994" lon="0.9183469601">
        <ele>2583.68</ele>
        <time>2019-09-07T07:47:28Z</time>
      </trkpt>
      <trkpt lat="42.5857329369" lon="0.9182920586">
        <ele>2584.64</ele>
        <time>2019-09-07T07:47:34Z</time>
      </trkpt>
      <trkpt lat="42.5857262313" lon="0.9181980137">
        <ele>2585.12</ele>
        <time>2019-09-07T07:47:44Z</time>
      </trkpt>
      <trkpt lat="42.5857117306" lon="0.9181934036">
        <ele>2584.16</ele>
        <time>2019-09-07T07:47:56Z</time>
      </trkpt>
      <trkpt lat="42.5856859144" lon="0.9181923140">
        <ele>2583.20</ele>
        <time>2019-09-07T07:48:04Z</time>
      </trkpt>
      <trkpt lat="42.5856833160" lon="0.9181453753">
        <ele>2583.20</ele>
        <time>2019-09-07T07:48:07Z</time>
      </trkpt>
      <trkpt lat="42.5856544822" lon="0.9180345666">
        <ele>2583.68</ele>
        <time>2019-09-07T07:48:17Z</time>
      </trkpt>
      <trkpt lat="42.5856512133" lon="0.9180277772">
        <ele>2584.16</ele>
        <time>2019-09-07T07:48:33Z</time>
      </trkpt>
      <trkpt lat="42.5856372993" lon="0.9179892205">
        <ele>2584.16</ele>
        <time>2019-09-07T07:48:43Z</time>
      </trkpt>
      <trkpt lat="42.5856062025" lon="0.9179461375">
        <ele>2584.16</ele>
        <time>2019-09-07T07:48:54Z</time>
      </trkpt>
      <trkpt lat="42.5855999161" lon="0.9178790823">
        <ele>2584.16</ele>
        <time>2019-09-07T07:49:03Z</time>
      </trkpt>
      <trkpt lat="42.5856459327" lon="0.9177924972">
        <ele>2582.72</ele>
        <time>2019-09-07T07:49:12Z</time>
      </trkpt>
      <trkpt lat="42.5856678095" lon="0.9177468996">
        <ele>2581.76</ele>
        <time>2019-09-07T07:49:21Z</time>
      </trkpt>
      <trkpt lat="42.5856755208" lon="0.9177469835">
        <ele>2582.24</ele>
        <time>2019-09-07T07:49:29Z</time>
      </trkpt>
      <trkpt lat="42.5856893510" lon="0.9177344106">
        <ele>2581.76</ele>
        <time>2019-09-07T07:49:35Z</time>
      </trkpt>
      <trkpt lat="42.5857061148" lon="0.9176491667">
        <ele>2579.35</ele>
        <time>2019-09-07T07:49:45Z</time>
      </trkpt>
      <trkpt lat="42.5857517123" lon="0.9175666049">
        <ele>2577.43</ele>
        <time>2019-09-07T07:49:57Z</time>
      </trkpt>
      <trkpt lat="42.5857635308" lon="0.9174812771">
        <ele>2575.03</ele>
        <time>2019-09-07T07:50:09Z</time>
      </trkpt>
      <trkpt lat="42.5857991539" lon="0.9174423851">
        <ele>2574.07</ele>
        <time>2019-09-07T07:50:18Z</time>
      </trkpt>
      <trkpt lat="42.5858139899" lon="0.9173822030">
        <ele>2572.14</ele>
        <time>2019-09-07T07:50:29Z</time>
      </trkpt>
      <trkpt lat="42.5857967231" lon="0.9173021559">
        <ele>2570.70</ele>
        <time>2019-09-07T07:50:40Z</time>
      </trkpt>
      <trkpt lat="42.5857956335" lon="0.9172434825">
        <ele>2570.70</ele>
        <time>2019-09-07T07:50:49Z</time>
      </trkpt>
      <trkpt lat="42.5858250540" lon="0.9171965439">
        <ele>2570.22</ele>
        <time>2019-09-07T07:50:57Z</time>
      </trkpt>
      <trkpt lat="42.5858289097" lon="0.9170870762">
        <ele>2569.74</ele>
        <time>2019-09-07T07:51:09Z</time>
      </trkpt>
      <trkpt lat="42.5858343579" lon="0.9170441609">
        <ele>2570.70</ele>
        <time>2019-09-07T07:51:19Z</time>
      </trkpt>
      <trkpt lat="42.5858401414" lon="0.9170154948">
        <ele>2573.11</ele>
        <time>2019-09-07T07:51:26Z</time>
      </trkpt>
      <trkpt lat="42.5858397223" lon="0.9170092922">
        <ele>2572.63</ele>
        <time>2019-09-07T07:51:27Z</time>
      </trkpt>
      <trkpt lat="42.5858659577" lon="0.9170044307">
        <ele>2572.63</ele>
        <time>2019-09-07T07:51:35Z</time>
      </trkpt>
      <trkpt lat="42.5858698133" lon="0.9169548936">
        <ele>2572.63</ele>
        <time>2019-09-07T07:51:46Z</time>
      </trkpt>
      <trkpt lat="42.5858957972" lon="0.9168880899">
        <ele>2572.63</ele>
        <time>2019-09-07T07:51:57Z</time>
      </trkpt>
      <trkpt lat="42.5859233737" lon="0.9168391395">
        <ele>2572.63</ele>
        <time>2019-09-07T07:52:09Z</time>
      </trkpt>
      <trkpt lat="42.5859456696" lon="0.9167755209">
        <ele>2572.63</ele>
        <time>2019-09-07T07:52:19Z</time>
      </trkpt>
      <trkpt lat="42.5859770179" lon="0.9167611878">
        <ele>2577.91</ele>
        <time>2019-09-07T07:52:26Z</time>
      </trkpt>
      <trkpt lat="42.5859796163" lon="0.9167610202">
        <ele>2577.43</ele>
        <time>2019-09-07T07:52:27Z</time>
      </trkpt>
      <trkpt lat="42.5860276446" lon="0.9167342819">
        <ele>2577.43</ele>
        <time>2019-09-07T07:52:35Z</time>
      </trkpt>
      <trkpt lat="42.5860915147" lon="0.9166611917">
        <ele>2577.43</ele>
        <time>2019-09-07T07:52:46Z</time>
      </trkpt>
      <trkpt lat="42.5861281436" lon="0.9165865928">
        <ele>2577.43</ele>
        <time>2019-09-07T07:52:55Z</time>
      </trkpt>
      <trkpt lat="42.5861437339" lon="0.9165611118">
        <ele>2576.95</ele>
        <time>2019-09-07T07:53:00Z</time>
      </trkpt>
      <trkpt lat="42.5861690473" lon="0.9165062103">
        <ele>2576.47</ele>
        <time>2019-09-07T07:53:10Z</time>
      </trkpt>
      <trkpt lat="42.5861809496" lon="0.9164785501">
        <ele>2576.47</ele>
        <time>2019-09-07T07:53:29Z</time>
      </trkpt>
      <trkpt lat="42.5862226076" lon="0.9164271690">
        <ele>2574.07</ele>
        <time>2019-09-07T07:53:40Z</time>
      </trkpt>
      <trkpt lat="42.5861957017" lon="0.9163662326">
        <ele>2573.59</ele>
        <time>2019-09-07T07:53:50Z</time>
      </trkpt>
      <trkpt lat="42.5861818716" lon="0.9163380694">
        <ele>2575.03</ele>
        <time>2019-09-07T07:54:00Z</time>
      </trkpt>
      <trkpt lat="42.5861747470" lon="0.9163063020">
        <ele>2574.55</ele>
        <time>2019-09-07T07:54:09Z</time>
      </trkpt>
      <trkpt lat="42.5861584861" lon="0.9162467904">
        <ele>2575.51</ele>
        <time>2019-09-07T07:54:20Z</time>
      </trkpt>
      <trkpt lat="42.5861484278" lon="0.9161964152">
        <ele>2576.95</ele>
        <time>2019-09-07T07:54:30Z</time>
      </trkpt>
      <trkpt lat="42.5861975458" lon="0.9161432739">
        <ele>2577.43</ele>
        <time>2019-09-07T07:54:40Z</time>
      </trkpt>
      <trkpt lat="42.5862210151" lon="0.9161006939">
        <ele>2576.95</ele>
        <time>2019-09-07T07:54:51Z</time>
      </trkpt>
      <trkpt lat="42.5862331688" lon="0.9160746261">
        <ele>2576.47</ele>
        <time>2019-09-07T07:55:02Z</time>
      </trkpt>
      <trkpt lat="42.5862482563" lon="0.9160173777">
        <ele>2577.43</ele>
        <time>2019-09-07T07:55:11Z</time>
      </trkpt>
      <trkpt lat="42.5862959493" lon="0.9159887955">
        <ele>2579.35</ele>
        <time>2019-09-07T07:55:23Z</time>
      </trkpt>
      <trkpt lat="42.5863258727" lon="0.9159592912">
        <ele>2579.84</ele>
        <time>2019-09-07T07:55:34Z</time>
      </trkpt>
      <trkpt lat="42.5863615796" lon="0.9159061499">
        <ele>2580.80</ele>
        <time>2019-09-07T07:55:44Z</time>
      </trkpt>
      <trkpt lat="42.5863761641" lon="0.9158575349">
        <ele>2581.76</ele>
        <time>2019-09-07T07:55:53Z</time>
      </trkpt>
      <trkpt lat="42.5863849651" lon="0.9158200677">
        <ele>2581.76</ele>
        <time>2019-09-07T07:56:08Z</time>
      </trkpt>
      <trkpt lat="42.5863764994" lon="0.9157737996">
        <ele>2581.28</ele>
        <time>2019-09-07T07:56:18Z</time>
      </trkpt>
      <trkpt lat="42.5864182413" lon="0.9157587960">
        <ele>2580.80</ele>
        <time>2019-09-07T07:56:26Z</time>
      </trkpt>
      <trkpt lat="42.5864422135" lon="0.9156487416">
        <ele>2579.84</ele>
        <time>2019-09-07T07:56:37Z</time>
      </trkpt>
      <trkpt lat="42.5864730589" lon="0.9155967738">
        <ele>2580.32</ele>
        <time>2019-09-07T07:56:45Z</time>
      </trkpt>
      <trkpt lat="42.5864931755" lon="0.9155279584">
        <ele>2581.28</ele>
        <time>2019-09-07T07:56:56Z</time>
      </trkpt>
      <trkpt lat="42.5865003839" lon="0.9154972807">
        <ele>2582.24</ele>
        <time>2019-09-07T07:57:07Z</time>
      </trkpt>
      <trkpt lat="42.5864936784" lon="0.9154679440">
        <ele>2582.72</ele>
        <time>2019-09-07T07:57:20Z</time>
      </trkpt>
      <trkpt lat="42.5865229312" lon="0.9153942671">
        <ele>2583.20</ele>
        <time>2019-09-07T07:57:33Z</time>
      </trkpt>
      <trkpt lat="42.5865458976" lon="0.9153364319">
        <ele>2584.16</ele>
        <time>2019-09-07T07:57:42Z</time>
      </trkpt>
      <trkpt lat="42.5865647569" lon="0.9152713884">
        <ele>2584.16</ele>
        <time>2019-09-07T07:57:53Z</time>
      </trkpt>
      <trkpt lat="42.5866053253" lon="0.9152426384">
        <ele>2584.16</ele>
        <time>2019-09-07T07:58:12Z</time>
      </trkpt>
      <trkpt lat="42.5866175629" lon="0.9151696321">
        <ele>2583.68</ele>
        <time>2019-09-07T07:58:24Z</time>
      </trkpt>
      <trkpt lat="42.5866365898" lon="0.9151239507">
        <ele>2582.72</ele>
        <time>2019-09-07T07:58:36Z</time>
      </trkpt>
      <trkpt lat="42.5866503362" lon="0.9150770959">
        <ele>2582.72</ele>
        <time>2019-09-07T07:58:48Z</time>
      </trkpt>
      <trkpt lat="42.5866899826" lon="0.9150347672">
        <ele>2582.24</ele>
        <time>2019-09-07T07:58:58Z</time>
      </trkpt>
      <trkpt lat="42.5867268629" lon="0.9149954561">
        <ele>2581.28</ele>
        <time>2019-09-07T07:59:10Z</time>
      </trkpt>
      <trkpt lat="42.5867576245" lon="0.9149651974">
        <ele>2581.28</ele>
        <time>2019-09-07T07:59:23Z</time>
      </trkpt>
      <trkpt lat="42.5868280325" lon="0.9149346873">
        <ele>2581.76</ele>
        <time>2019-09-07T07:59:32Z</time>
      </trkpt>
      <trkpt lat="42.5868623145" lon="0.9148996510">
        <ele>2582.24</ele>
        <time>2019-09-07T07:59:36Z</time>
      </trkpt>
      <trkpt lat="42.5869207364" lon="0.9148188494">
        <ele>2582.72</ele>
        <time>2019-09-07T07:59:46Z</time>
      </trkpt>
      <trkpt lat="42.5869655795" lon="0.9147742577">
        <ele>2583.68</ele>
        <time>2019-09-07T07:59:56Z</time>
      </trkpt>
      <trkpt lat="42.5870061480" lon="0.9147262294">
        <ele>2584.16</ele>
        <time>2019-09-07T08:00:08Z</time>
      </trkpt>
      <trkpt lat="42.5870051421" lon="0.9147158358">
        <ele>2585.12</ele>
        <time>2019-09-07T08:00:19Z</time>
      </trkpt>
      <trkpt lat="42.5869907252" lon="0.9147091303">
        <ele>2585.12</ele>
        <time>2019-09-07T08:00:35Z</time>
      </trkpt>
      <trkpt lat="42.5869964249" lon="0.9146885946">
        <ele>2586.08</ele>
        <time>2019-09-07T08:00:52Z</time>
      </trkpt>
      <trkpt lat="42.5869858637" lon="0.9146662150">
        <ele>2586.56</ele>
        <time>2019-09-07T08:01:02Z</time>
      </trkpt>
      <trkpt lat="42.5869712792" lon="0.9146398958">
        <ele>2587.53</ele>
        <time>2019-09-07T08:01:13Z</time>
      </trkpt>
      <trkpt lat="42.5869550183" lon="0.9145767801">
        <ele>2588.01</ele>
        <time>2019-09-07T08:01:23Z</time>
      </trkpt>
      <trkpt lat="42.5869901385" lon="0.9145253152">
        <ele>2589.45</ele>
        <time>2019-09-07T08:01:34Z</time>
      </trkpt>
      <trkpt lat="42.5870183855" lon="0.9145039413">
        <ele>2590.41</ele>
        <time>2019-09-07T08:01:46Z</time>
      </trkpt>
      <trkpt lat="42.5870719459" lon="0.9144317731">
        <ele>2588.97</ele>
        <time>2019-09-07T08:01:55Z</time>
      </trkpt>
      <trkpt lat="42.5870991033" lon="0.9144344553">
        <ele>2588.97</ele>
        <time>2019-09-07T08:01:58Z</time>
      </trkpt>
      <trkpt lat="42.5871727802" lon="0.9143948089">
        <ele>2589.93</ele>
        <time>2019-09-07T08:02:08Z</time>
      </trkpt>
      <trkpt lat="42.5872193836" lon="0.9143688250">
        <ele>2591.85</ele>
        <time>2019-09-07T08:02:20Z</time>
      </trkpt>
      <trkpt lat="42.5872773025" lon="0.9143386502">
        <ele>2593.29</ele>
        <time>2019-09-07T08:02:32Z</time>
      </trkpt>
      <trkpt lat="42.5872875284" lon="0.9143143427">
        <ele>2595.22</ele>
        <time>2019-09-07T08:02:48Z</time>
      </trkpt>
      <trkpt lat="42.5872949045" lon="0.9142198786">
        <ele>2595.70</ele>
        <time>2019-09-07T08:03:01Z</time>
      </trkpt>
      <trkpt lat="42.5872919708" lon="0.9141193796">
        <ele>2595.70</ele>
        <time>2019-09-07T08:03:12Z</time>
      </trkpt>
      <trkpt lat="42.5872667413" lon="0.9141165297">
        <ele>2596.66</ele>
        <time>2019-09-07T08:03:21Z</time>
      </trkpt>
      <trkpt lat="42.5872590300" lon="0.9140971676">
        <ele>2597.62</ele>
        <time>2019-09-07T08:03:32Z</time>
      </trkpt>
      <trkpt lat="42.5872815773" lon="0.9140322916">
        <ele>2598.58</ele>
        <time>2019-09-07T08:03:42Z</time>
      </trkpt>
      <trkpt lat="42.5872948207" lon="0.9140047152">
        <ele>2599.06</ele>
        <time>2019-09-07T08:03:56Z</time>
      </trkpt>
      <trkpt lat="42.5873514824" lon="0.9139618836">
        <ele>2600.98</ele>
        <time>2019-09-07T08:04:09Z</time>
      </trkpt>
      <trkpt lat="42.5873701740" lon="0.9139111731">
        <ele>2601.46</ele>
        <time>2019-09-07T08:04:26Z</time>
      </trkpt>
      <trkpt lat="42.5874152686" lon="0.9138488118">
        <ele>2602.43</ele>
        <time>2019-09-07T08:04:38Z</time>
      </trkpt>
      <trkpt lat="42.5874451082" lon="0.9138201457">
        <ele>2602.43</ele>
        <time>2019-09-07T08:04:47Z</time>
      </trkpt>
      <trkpt lat="42.5875062123" lon="0.9138006158">
        <ele>2601.95</ele>
        <time>2019-09-07T08:04:59Z</time>
      </trkpt>
      <trkpt lat="42.5875183661" lon="0.9137761407">
        <ele>2602.43</ele>
        <time>2019-09-07T08:05:14Z</time>
      </trkpt>
      <trkpt lat="42.5875119958" lon="0.9137752187">
        <ele>2602.43</ele>
        <time>2019-09-07T08:05:28Z</time>
      </trkpt>
      <trkpt lat="42.5875199586" lon="0.9137986042">
        <ele>2602.43</ele>
        <time>2019-09-07T08:05:51Z</time>
      </trkpt>
      <trkpt lat="42.5875337888" lon="0.9137563594">
        <ele>2602.43</ele>
        <time>2019-09-07T08:06:12Z</time>
      </trkpt>
      <trkpt lat="42.5875394046" lon="0.9137133602">
        <ele>2602.43</ele>
        <time>2019-09-07T08:06:20Z</time>
      </trkpt>
      <trkpt lat="42.5875581801" lon="0.9136857837">
        <ele>2602.43</ele>
        <time>2019-09-07T08:06:28Z</time>
      </trkpt>
      <trkpt lat="42.5875461102" lon="0.9136134479">
        <ele>2602.43</ele>
        <time>2019-09-07T08:06:37Z</time>
      </trkpt>
      <trkpt lat="42.5875377283" lon="0.9135779925">
        <ele>2602.43</ele>
        <time>2019-09-07T08:06:44Z</time>
      </trkpt>
      <trkpt lat="42.5875406619" lon="0.9135743883">
        <ele>2602.43</ele>
        <time>2019-09-07T08:06:46Z</time>
      </trkpt>
      <trkpt lat="42.5875383150" lon="0.9135178942">
        <ele>2605.79</ele>
        <time>2019-09-07T08:06:54Z</time>
      </trkpt>
      <trkpt lat="42.5876077171" lon="0.9134722129">
        <ele>2608.19</ele>
        <time>2019-09-07T08:07:06Z</time>
      </trkpt>
      <trkpt lat="42.5876562484" lon="0.9134459775">
        <ele>2609.16</ele>
        <time>2019-09-07T08:07:17Z</time>
      </trkpt>
      <trkpt lat="42.5876688212" lon="0.9134390205">
        <ele>2609.64</ele>
        <time>2019-09-07T08:07:20Z</time>
      </trkpt>
      <trkpt lat="42.5877341162" lon="0.9134152997">
        <ele>2611.08</ele>
        <time>2019-09-07T08:07:31Z</time>
      </trkpt>
      <trkpt lat="42.5877966452" lon="0.9134479053">
        <ele>2612.04</ele>
        <time>2019-09-07T08:07:44Z</time>
      </trkpt>
      <trkpt lat="42.5878468528" lon="0.9134961013">
        <ele>2613.00</ele>
        <time>2019-09-07T08:07:53Z</time>
      </trkpt>
      <trkpt lat="42.5879025925" lon="0.9135566186">
        <ele>2613.48</ele>
        <time>2019-09-07T08:08:03Z</time>
      </trkpt>
      <trkpt lat="42.5879500341" lon="0.9135714546">
        <ele>2615.40</ele>
        <time>2019-09-07T08:08:15Z</time>
      </trkpt>
      <trkpt lat="42.5880071986" lon="0.9136010427">
        <ele>2617.81</ele>
        <time>2019-09-07T08:08:28Z</time>
      </trkpt>
      <trkpt lat="42.5880341884" lon="0.9136198182">
        <ele>2618.77</ele>
        <time>2019-09-07T08:08:34Z</time>
      </trkpt>
      <trkpt lat="42.5880485214" lon="0.9136427846">
        <ele>2620.69</ele>
        <time>2019-09-07T08:08:44Z</time>
      </trkpt>
      <trkpt lat="42.5880393013" lon="0.9135766514">
        <ele>2621.65</ele>
        <time>2019-09-07T08:08:56Z</time>
      </trkpt>
      <trkpt lat="42.5880376250" lon="0.9135684371">
        <ele>2621.65</ele>
        <time>2019-09-07T08:08:57Z</time>
      </trkpt>
      <trkpt lat="42.5880192686" lon="0.9135121945">
        <ele>2623.09</ele>
        <time>2019-09-07T08:09:08Z</time>
      </trkpt>
      <trkpt lat="42.5880142394" lon="0.9134585503">
        <ele>2624.54</ele>
        <time>2019-09-07T08:09:17Z</time>
      </trkpt>
      <trkpt lat="42.5880285725" lon="0.9134041518">
        <ele>2626.46</ele>
        <time>2019-09-07T08:09:27Z</time>
      </trkpt>
      <trkpt lat="42.5880056899" lon="0.9132960252">
        <ele>2627.90</ele>
        <time>2019-09-07T08:09:39Z</time>
      </trkpt>
      <trkpt lat="42.5880375411" lon="0.9132676944">
        <ele>2628.38</ele>
        <time>2019-09-07T08:09:51Z</time>
      </trkpt>
      <trkpt lat="42.5880407263" lon="0.9132823627">
        <ele>2628.86</ele>
        <time>2019-09-07T08:09:55Z</time>
      </trkpt>
      <trkpt lat="42.5880445819" lon="0.9132988751">
        <ele>2628.86</ele>
        <time>2019-09-07T08:09:58Z</time>
      </trkpt>
      <trkpt lat="42.5880513713" lon="0.9133225121">
        <ele>2628.86</ele>
        <time>2019-09-07T08:10:06Z</time>
      </trkpt>
      <trkpt lat="42.5880583283" lon="0.9133210871">
        <ele>2627.90</ele>
        <time>2019-09-07T08:10:17Z</time>
      </trkpt>
      <trkpt lat="42.5880519580" lon="0.9133278765">
        <ele>2627.90</ele>
        <time>2019-09-07T08:10:33Z</time>
      </trkpt>
      <trkpt lat="42.5880724937" lon="0.9133173153">
        <ele>2627.90</ele>
        <time>2019-09-07T08:10:50Z</time>
      </trkpt>
      <trkpt lat="42.5880765170" lon="0.9133241046">
        <ele>2628.38</ele>
        <time>2019-09-07T08:11:09Z</time>
      </trkpt>
      <trkpt lat="42.5880755950" lon="0.9133255295">
        <ele>2628.38</ele>
        <time>2019-09-07T08:11:10Z</time>
      </trkpt>
      <trkpt lat="42.5880785286" lon="0.9133453947">
        <ele>2627.90</ele>
        <time>2019-09-07T08:11:21Z</time>
      </trkpt>
      <trkpt lat="42.5880776905" lon="0.9133577999">
        <ele>2628.38</ele>
        <time>2019-09-07T08:11:38Z</time>
      </trkpt>
      <trkpt lat="42.5880807079" lon="0.9133620746">
        <ele>2631.27</ele>
        <time>2019-09-07T08:11:56Z</time>
      </trkpt>
      <trkpt lat="42.5880813785" lon="0.9133619908">
        <ele>2629.82</ele>
        <time>2019-09-07T08:11:57Z</time>
      </trkpt>
      <trkpt lat="42.5880822167" lon="0.9133841190">
        <ele>2628.38</ele>
        <time>2019-09-07T08:13:10Z</time>
      </trkpt>
      <trkpt lat="42.5880933646" lon="0.9133618232">
        <ele>2628.38</ele>
        <time>2019-09-07T08:14:49Z</time>
      </trkpt>
      <trkpt lat="42.5880940352" lon="0.9133795928">
        <ele>2628.38</ele>
        <time>2019-09-07T08:15:18Z</time>
      </trkpt>
      <trkpt lat="42.5880960468" lon="0.9133532736">
        <ele>2628.38</ele>
        <time>2019-09-07T08:15:38Z</time>
      </trkpt>
      <trkpt lat="42.5880993158" lon="0.9133324865">
        <ele>2628.38</ele>
        <time>2019-09-07T08:15:54Z</time>
      </trkpt>
      <trkpt lat="42.5881061889" lon="0.9133350849">
        <ele>2628.38</ele>
        <time>2019-09-07T08:16:37Z</time>
      </trkpt>
      <trkpt lat="42.5880870782" lon="0.9133240208">
        <ele>2628.38</ele>
        <time>2019-09-07T08:16:53Z</time>
      </trkpt>
      <trkpt lat="42.5880752597" lon="0.9133137949">
        <ele>2628.38</ele>
        <time>2019-09-07T08:17:12Z</time>
      </trkpt>
      <trkpt lat="42.5880735833" lon="0.9132983722">
        <ele>2628.38</ele>
        <time>2019-09-07T08:17:26Z</time>
      </trkpt>
      <trkpt lat="42.5881130621" lon="0.9132334962">
        <ele>2628.38</ele>
        <time>2019-09-07T08:17:36Z</time>
      </trkpt>
      <trkpt lat="42.5881903432" lon="0.9131685365">
        <ele>2628.38</ele>
        <time>2019-09-07T08:17:48Z</time>
      </trkpt>
      <trkpt lat="42.5881857332" lon="0.9130951110">
        <ele>2628.38</ele>
        <time>2019-09-07T08:17:58Z</time>
      </trkpt>
      <trkpt lat="42.5881893374" lon="0.9130574763">
        <ele>2629.82</ele>
        <time>2019-09-07T08:18:09Z</time>
      </trkpt>
      <trkpt lat="42.5881550554" lon="0.9130035806">
        <ele>2630.79</ele>
        <time>2019-09-07T08:18:19Z</time>
      </trkpt>
      <trkpt lat="42.5881504454" lon="0.9129615873">
        <ele>2632.23</ele>
        <time>2019-09-07T08:18:33Z</time>
      </trkpt>
      <trkpt lat="42.5881756749" lon="0.9129335918">
        <ele>2633.67</ele>
        <time>2019-09-07T08:18:45Z</time>
      </trkpt>
      <trkpt lat="42.5882081129" lon="0.9129356872">
        <ele>2634.15</ele>
        <time>2019-09-07T08:19:01Z</time>
      </trkpt>
      <trkpt lat="42.5882571470" lon="0.9128899220">
        <ele>2637.03</ele>
        <time>2019-09-07T08:19:16Z</time>
      </trkpt>
      <trkpt lat="42.5883024931" lon="0.9128689673">
        <ele>2639.44</ele>
        <time>2019-09-07T08:19:30Z</time>
      </trkpt>
      <trkpt lat="42.5883198436" lon="0.9128382895">
        <ele>2641.36</ele>
        <time>2019-09-07T08:19:41Z</time>
      </trkpt>
      <trkpt lat="42.5883045048" lon="0.9128196817">
        <ele>2643.28</ele>
        <time>2019-09-07T08:19:52Z</time>
      </trkpt>
      <trkpt lat="42.5882611703" lon="0.9127870761">
        <ele>2645.21</ele>
        <time>2019-09-07T08:20:04Z</time>
      </trkpt>
      <trkpt lat="42.5882823765" lon="0.9127339348">
        <ele>2646.17</ele>
        <time>2019-09-07T08:20:16Z</time>
      </trkpt>
      <trkpt lat="42.5883115456" lon="0.9126980603">
        <ele>2648.09</ele>
        <time>2019-09-07T08:20:29Z</time>
      </trkpt>
      <trkpt lat="42.5883120485" lon="0.9126774408">
        <ele>2649.53</ele>
        <time>2019-09-07T08:20:42Z</time>
      </trkpt>
      <trkpt lat="42.5882858131" lon="0.9126481041">
        <ele>2650.49</ele>
        <time>2019-09-07T08:20:58Z</time>
      </trkpt>
      <trkpt lat="42.5882703066" lon="0.9126344416">
        <ele>2651.45</ele>
        <time>2019-09-07T08:21:09Z</time>
      </trkpt>
      <trkpt lat="42.5882698875" lon="0.9126148280">
        <ele>2652.42</ele>
        <time>2019-09-07T08:21:19Z</time>
      </trkpt>
      <trkpt lat="42.5882766768" lon="0.9126147442">
        <ele>2652.42</ele>
        <time>2019-09-07T08:21:38Z</time>
      </trkpt>
      <trkpt lat="42.5882630982" lon="0.9125558194">
        <ele>2653.38</ele>
        <time>2019-09-07T08:21:52Z</time>
      </trkpt>
      <trkpt lat="42.5882558897" lon="0.9125144128">
        <ele>2654.82</ele>
        <time>2019-09-07T08:22:04Z</time>
      </trkpt>
      <trkpt lat="42.5882793590" lon="0.9124842379">
        <ele>2655.78</ele>
        <time>2019-09-07T08:22:14Z</time>
      </trkpt>
      <trkpt lat="42.5882968772" lon="0.9124429151">
        <ele>2657.22</ele>
        <time>2019-09-07T08:22:29Z</time>
      </trkpt>
      <trkpt lat="42.5882996432" lon="0.9123864211">
        <ele>2658.18</ele>
        <time>2019-09-07T08:22:38Z</time>
      </trkpt>
      <trkpt lat="42.5883578137" lon="0.9123964794">
        <ele>2659.14</ele>
        <time>2019-09-07T08:22:51Z</time>
      </trkpt>
      <trkpt lat="42.5883862283" lon="0.9123299271">
        <ele>2660.11</ele>
        <time>2019-09-07T08:23:01Z</time>
      </trkpt>
      <trkpt lat="42.5884169899" lon="0.9122746903">
        <ele>2662.03</ele>
        <time>2019-09-07T08:23:12Z</time>
      </trkpt>
      <trkpt lat="42.5884779263" lon="0.9122468624">
        <ele>2662.99</ele>
        <time>2019-09-07T08:23:24Z</time>
      </trkpt>
      <trkpt lat="42.5885156449" lon="0.9122041985">
        <ele>2664.91</ele>
        <time>2019-09-07T08:23:35Z</time>
      </trkpt>
      <trkpt lat="42.5885173213" lon="0.9121551644">
        <ele>2665.87</ele>
        <time>2019-09-07T08:23:45Z</time>
      </trkpt>
      <trkpt lat="42.5885268766" lon="0.9121116623">
        <ele>2666.83</ele>
        <time>2019-09-07T08:23:56Z</time>
      </trkpt>
      <trkpt lat="42.5885511003" lon="0.9120612871">
        <ele>2667.80</ele>
        <time>2019-09-07T08:24:08Z</time>
      </trkpt>
      <trkpt lat="42.5885685347" lon="0.9120314475">
        <ele>2668.76</ele>
        <time>2019-09-07T08:24:21Z</time>
      </trkpt>
      <trkpt lat="42.5885687862" lon="0.9120052122">
        <ele>2670.20</ele>
        <time>2019-09-07T08:24:32Z</time>
      </trkpt>
      <trkpt lat="42.5885870587" lon="0.9119743668">
        <ele>2671.16</ele>
        <time>2019-09-07T08:24:44Z</time>
      </trkpt>
      <trkpt lat="42.5886146352" lon="0.9119518194">
        <ele>2672.60</ele>
        <time>2019-09-07T08:24:55Z</time>
      </trkpt>
      <trkpt lat="42.5886643399" lon="0.9119533282">
        <ele>2674.52</ele>
        <time>2019-09-07T08:25:08Z</time>
      </trkpt>
      <trkpt lat="42.5886661839" lon="0.9119050484">
        <ele>2675.97</ele>
        <time>2019-09-07T08:25:19Z</time>
      </trkpt>
      <trkpt lat="42.5886804331" lon="0.9118850157">
        <ele>2677.41</ele>
        <time>2019-09-07T08:25:33Z</time>
      </trkpt>
      <trkpt lat="42.5886925869" lon="0.9118553437">
        <ele>2679.33</ele>
        <time>2019-09-07T08:25:49Z</time>
      </trkpt>
      <trkpt lat="42.5887069199" lon="0.9118191339">
        <ele>2680.77</ele>
        <time>2019-09-07T08:26:03Z</time>
      </trkpt>
      <trkpt lat="42.5887082610" lon="0.9117583651">
        <ele>2683.18</ele>
        <time>2019-09-07T08:26:17Z</time>
      </trkpt>
      <trkpt lat="42.5887458120" lon="0.9117550962">
        <ele>2684.14</ele>
        <time>2019-09-07T08:26:27Z</time>
      </trkpt>
      <trkpt lat="42.5887707062" lon="0.9117315430">
        <ele>2685.58</ele>
        <time>2019-09-07T08:26:39Z</time>
      </trkpt>
      <trkpt lat="42.5888054073" lon="0.9116898850">
        <ele>2687.02</ele>
        <time>2019-09-07T08:26:54Z</time>
      </trkpt>
      <trkpt lat="42.5888054073" lon="0.9116733726">
        <ele>2688.46</ele>
        <time>2019-09-07T08:27:08Z</time>
      </trkpt>
      <trkpt lat="42.5888211653" lon="0.9116394259">
        <ele>2690.39</ele>
        <time>2019-09-07T08:27:23Z</time>
      </trkpt>
      <trkpt lat="42.5888515916" lon="0.9115974326">
        <ele>2691.83</ele>
        <time>2019-09-07T08:27:36Z</time>
      </trkpt>
      <trkpt lat="42.5888129510" lon="0.9115388431">
        <ele>2693.75</ele>
        <time>2019-09-07T08:27:48Z</time>
      </trkpt>
      <trkpt lat="42.5888832752" lon="0.9115551878">
        <ele>2694.71</ele>
        <time>2019-09-07T08:28:00Z</time>
      </trkpt>
      <trkpt lat="42.5888711214" lon="0.9115075786">
        <ele>2696.15</ele>
        <time>2019-09-07T08:28:10Z</time>
      </trkpt>
      <trkpt lat="42.5888966862" lon="0.9114854503">
        <ele>2698.08</ele>
        <time>2019-09-07T08:28:22Z</time>
      </trkpt>
      <trkpt lat="42.5888878852" lon="0.9114418644">
        <ele>2699.52</ele>
        <time>2019-09-07T08:28:33Z</time>
      </trkpt>
      <trkpt lat="42.5888718758" lon="0.9114098456">
        <ele>2700.48</ele>
        <time>2019-09-07T08:28:42Z</time>
      </trkpt>
      <trkpt lat="42.5888801739" lon="0.9113764856">
        <ele>2701.92</ele>
        <time>2019-09-07T08:28:55Z</time>
      </trkpt>
      <trkpt lat="42.5889194850" lon="0.9113720432">
        <ele>2703.85</ele>
        <time>2019-09-07T08:29:10Z</time>
      </trkpt>
      <trkpt lat="42.5889389310" lon="0.9113398567">
        <ele>2706.73</ele>
        <time>2019-09-07T08:29:25Z</time>
      </trkpt>
      <trkpt lat="42.5889401883" lon="0.9112949297">
        <ele>2708.17</ele>
        <time>2019-09-07T08:29:37Z</time>
      </trkpt>
      <trkpt lat="42.5889467262" lon="0.9112851229">
        <ele>2709.61</ele>
        <time>2019-09-07T08:29:55Z</time>
      </trkpt>
      <trkpt lat="42.5889269449" lon="0.9112592228">
        <ele>2710.57</ele>
        <time>2019-09-07T08:30:05Z</time>
      </trkpt>
      <trkpt lat="42.5889052358" lon="0.9112296347">
        <ele>2711.54</ele>
        <time>2019-09-07T08:30:15Z</time>
      </trkpt>
      <trkpt lat="42.5889162999" lon="0.9111881442">
        <ele>2713.94</ele>
        <time>2019-09-07T08:30:30Z</time>
      </trkpt>
      <trkpt lat="42.5889313035" lon="0.9111524373">
        <ele>2714.90</ele>
        <time>2019-09-07T08:30:41Z</time>
      </trkpt>
      <trkpt lat="42.5889716204" lon="0.9111549519">
        <ele>2715.86</ele>
        <time>2019-09-07T08:30:56Z</time>
      </trkpt>
      <trkpt lat="42.5890449621" lon="0.9111672733">
        <ele>2717.30</ele>
        <time>2019-09-07T08:31:09Z</time>
      </trkpt>
      <trkpt lat="42.5890702754" lon="0.9111294709">
        <ele>2718.75</ele>
        <time>2019-09-07T08:31:25Z</time>
      </trkpt>
      <trkpt lat="42.5890729576" lon="0.9111020621">
        <ele>2720.19</ele>
        <time>2019-09-07T08:31:38Z</time>
      </trkpt>
      <trkpt lat="42.5890745502" lon="0.9110661037">
        <ele>2722.11</ele>
        <time>2019-09-07T08:31:51Z</time>
      </trkpt>
      <trkpt lat="42.5890835188" lon="0.9110642597">
        <ele>2723.07</ele>
        <time>2019-09-07T08:32:02Z</time>
      </trkpt>
      <trkpt lat="42.5890723709" lon="0.9110450651">
        <ele>2724.51</ele>
        <time>2019-09-07T08:32:12Z</time>
      </trkpt>
      <trkpt lat="42.5890807528" lon="0.9110310674">
        <ele>2726.92</ele>
        <time>2019-09-07T08:32:26Z</time>
      </trkpt>
      <trkpt lat="42.5890877098" lon="0.9110200033">
        <ele>2727.40</ele>
        <time>2019-09-07T08:32:38Z</time>
      </trkpt>
      <trkpt lat="42.5891105924" lon="0.9110066760">
        <ele>2729.32</ele>
        <time>2019-09-07T08:32:51Z</time>
      </trkpt>
      <trkpt lat="42.5891219918" lon="0.9109773394">
        <ele>2729.80</ele>
        <time>2019-09-07T08:33:10Z</time>
      </trkpt>
      <trkpt lat="42.5891587883" lon="0.9109677002">
        <ele>2731.72</ele>
        <time>2019-09-07T08:33:21Z</time>
      </trkpt>
      <trkpt lat="42.5891545974" lon="0.9109340049">
        <ele>2734.13</ele>
        <time>2019-09-07T08:33:34Z</time>
      </trkpt>
      <trkpt lat="42.5891503226" lon="0.9109017346">
        <ele>2736.05</ele>
        <time>2019-09-07T08:33:47Z</time>
      </trkpt>
      <trkpt lat="42.5891545974" lon="0.9108929336">
        <ele>2737.97</ele>
        <time>2019-09-07T08:34:00Z</time>
      </trkpt>
      <trkpt lat="42.5891733728" lon="0.9108907543">
        <ele>2738.45</ele>
        <time>2019-09-07T08:34:16Z</time>
      </trkpt>
      <trkpt lat="42.5891781505" lon="0.9108422231">
        <ele>2740.38</ele>
        <time>2019-09-07T08:34:33Z</time>
      </trkpt>
      <trkpt lat="42.5891714450" lon="0.9108181670">
        <ele>2741.82</ele>
        <time>2019-09-07T08:34:45Z</time>
      </trkpt>
      <trkpt lat="42.5891422760" lon="0.9107876569">
        <ele>2743.26</ele>
        <time>2019-09-07T08:34:59Z</time>
      </trkpt>
      <trkpt lat="42.5891312957" lon="0.9107495192">
        <ele>2744.70</ele>
        <time>2019-09-07T08:35:11Z</time>
      </trkpt>
      <trkpt lat="42.5891371630" lon="0.9107215237">
        <ele>2745.66</ele>
        <time>2019-09-07T08:35:22Z</time>
      </trkpt>
      <trkpt lat="42.5891441200" lon="0.9107071906">
        <ele>2747.59</ele>
        <time>2019-09-07T08:35:38Z</time>
      </trkpt>
      <trkpt lat="42.5891737919" lon="0.9106800333">
        <ele>2748.55</ele>
        <time>2019-09-07T08:35:55Z</time>
      </trkpt>
      <trkpt lat="42.5892163720" lon="0.9106739145">
        <ele>2750.95</ele>
        <time>2019-09-07T08:36:10Z</time>
      </trkpt>
      <trkpt lat="42.5892489776" lon="0.9106646944">
        <ele>2752.39</ele>
        <time>2019-09-07T08:36:26Z</time>
      </trkpt>
      <trkpt lat="42.5892426912" lon="0.9106019139">
        <ele>2754.31</ele>
        <time>2019-09-07T08:36:40Z</time>
      </trkpt>
      <trkpt lat="42.5892428588" lon="0.9106024168">
        <ele>2755.76</ele>
        <time>2019-09-07T08:36:56Z</time>
      </trkpt>
      <trkpt lat="42.5892379973" lon="0.9105910175">
        <ele>2755.76</ele>
        <time>2019-09-07T08:37:12Z</time>
      </trkpt>
      <trkpt lat="42.5892410148" lon="0.9106056858">
        <ele>2756.24</ele>
        <time>2019-09-07T08:37:26Z</time>
      </trkpt>
      <trkpt lat="42.5892481394" lon="0.9106213599">
        <ele>2754.80</ele>
        <time>2019-09-07T08:37:40Z</time>
      </trkpt>
      <trkpt lat="42.5892728660" lon="0.9106265567">
        <ele>2758.64</ele>
        <time>2019-09-07T08:39:24Z</time>
      </trkpt>
      <trkpt lat="42.5892730337" lon="0.9106266405">
        <ele>2756.24</ele>
        <time>2019-09-07T08:39:25Z</time>
      </trkpt>
      <trkpt lat="42.5892604608" lon="0.9106092062">
        <ele>2753.83</ele>
        <time>2019-09-07T08:40:11Z</time>
      </trkpt>
      <trkpt lat="42.5892426912" lon="0.9106157441">
        <ele>2753.83</ele>
        <time>2019-09-07T08:40:27Z</time>
      </trkpt>
      <trkpt lat="42.5892607123" lon="0.9106159117">
        <ele>2753.83</ele>
        <time>2019-09-07T08:40:39Z</time>
      </trkpt>
      <trkpt lat="42.5892656576" lon="0.9105690569">
        <ele>2753.83</ele>
        <time>2019-09-07T08:40:51Z</time>
      </trkpt>
      <trkpt lat="42.5892877020" lon="0.9105465934">
        <ele>2753.83</ele>
        <time>2019-09-07T08:41:01Z</time>
      </trkpt>
      <trkpt lat="42.5892949942" lon="0.9105181787">
        <ele>2753.83</ele>
        <time>2019-09-07T08:41:12Z</time>
      </trkpt>
      <trkpt lat="42.5893117581" lon="0.9104857408">
        <ele>2749.03</ele>
        <time>2019-09-07T08:41:26Z</time>
      </trkpt>
      <trkpt lat="42.5893125962" lon="0.9104820527">
        <ele>2749.03</ele>
        <time>2019-09-07T08:41:27Z</time>
      </trkpt>
      <trkpt lat="42.5893170387" lon="0.9104541410">
        <ele>2747.59</ele>
        <time>2019-09-07T08:41:39Z</time>
      </trkpt>
      <trkpt lat="42.5893180445" lon="0.9104520455">
        <ele>2746.62</ele>
        <time>2019-09-07T08:41:59Z</time>
      </trkpt>
      <trkpt lat="42.5893607922" lon="0.9104498662">
        <ele>2744.70</ele>
        <time>2019-09-07T08:42:10Z</time>
      </trkpt>
      <trkpt lat="42.5893566012" lon="0.9104358684">
        <ele>2744.22</ele>
        <time>2019-09-07T08:42:15Z</time>
      </trkpt>
      <trkpt lat="42.5893895421" lon="0.9104234632">
        <ele>2742.78</ele>
        <time>2019-09-07T08:42:26Z</time>
      </trkpt>
      <trkpt lat="42.5893846806" lon="0.9104150813">
        <ele>2741.34</ele>
        <time>2019-09-07T08:42:37Z</time>
      </trkpt>
      <trkpt lat="42.5893923081" lon="0.9103895165">
        <ele>2739.41</ele>
        <time>2019-09-07T08:42:51Z</time>
      </trkpt>
      <trkpt lat="42.5893820822" lon="0.9103745129">
        <ele>2738.93</ele>
        <time>2019-09-07T08:42:56Z</time>
      </trkpt>
      <trkpt lat="42.5893803220" lon="0.9103854932">
        <ele>2737.97</ele>
        <time>2019-09-07T08:43:04Z</time>
      </trkpt>
      <trkpt lat="42.5893777236" lon="0.9103688970">
        <ele>2736.53</ele>
        <time>2019-09-07T08:43:17Z</time>
      </trkpt>
      <trkpt lat="42.5894012768" lon="0.9103604313">
        <ele>2734.61</ele>
        <time>2019-09-07T08:43:31Z</time>
      </trkpt>
      <trkpt lat="42.5894038752" lon="0.9103566594">
        <ele>2733.65</ele>
        <time>2019-09-07T08:43:37Z</time>
      </trkpt>
      <trkpt lat="42.5893900450" lon="0.9103226289">
        <ele>2733.17</ele>
        <time>2019-09-07T08:43:44Z</time>
      </trkpt>
      <trkpt lat="42.5893751252" lon="0.9102838207">
        <ele>2732.20</ele>
        <time>2019-09-07T08:43:50Z</time>
      </trkpt>
      <trkpt lat="42.5893721078" lon="0.9102792107">
        <ele>2731.72</ele>
        <time>2019-09-07T08:43:54Z</time>
      </trkpt>
      <trkpt lat="42.5894455332" lon="0.9102679789">
        <ele>2730.28</ele>
        <time>2019-09-07T08:44:03Z</time>
      </trkpt>
      <trkpt lat="42.5894634705" lon="0.9102534782">
        <ele>2728.84</ele>
        <time>2019-09-07T08:44:17Z</time>
      </trkpt>
      <trkpt lat="42.5894773006" lon="0.9102364630">
        <ele>2725.96</ele>
        <time>2019-09-07T08:44:31Z</time>
      </trkpt>
      <trkpt lat="42.5894890353" lon="0.9102355409">
        <ele>2724.03</ele>
        <time>2019-09-07T08:44:40Z</time>
      </trkpt>
      <trkpt lat="42.5895098224" lon="0.9102354571">
        <ele>2722.11</ele>
        <time>2019-09-07T08:44:55Z</time>
      </trkpt>
      <trkpt lat="42.5895308610" lon="0.9102312662">
        <ele>2721.15</ele>
        <time>2019-09-07T08:45:08Z</time>
      </trkpt>
      <trkpt lat="42.5895455293" lon="0.9102219623">
        <ele>2720.19</ele>
        <time>2019-09-07T08:45:26Z</time>
      </trkpt>
      <trkpt lat="42.5895060506" lon="0.9101917036">
        <ele>2719.23</ele>
        <time>2019-09-07T08:45:37Z</time>
      </trkpt>
      <trkpt lat="42.5894743670" lon="0.9101836570">
        <ele>2719.23</ele>
        <time>2019-09-07T08:45:39Z</time>
      </trkpt>
      <trkpt lat="42.5894787256" lon="0.9101445135">
        <ele>2717.30</ele>
        <time>2019-09-07T08:45:50Z</time>
      </trkpt>
      <trkpt lat="42.5894966628" lon="0.9101289231">
        <ele>2715.38</ele>
        <time>2019-09-07T08:46:03Z</time>
      </trkpt>
      <trkpt lat="42.5895207189" lon="0.9101591818">
        <ele>2714.42</ele>
        <time>2019-09-07T08:46:14Z</time>
      </trkpt>
      <trkpt lat="42.5895429309" lon="0.9101443458">
        <ele>2712.98</ele>
        <time>2019-09-07T08:46:27Z</time>
      </trkpt>
      <trkpt lat="42.5895300228" lon="0.9101181943">
        <ele>2711.06</ele>
        <time>2019-09-07T08:46:38Z</time>
      </trkpt>
      <trkpt lat="42.5895574316" lon="0.9100958984">
        <ele>2709.61</ele>
        <time>2019-09-07T08:46:51Z</time>
      </trkpt>
      <trkpt lat="42.5895752851" lon="0.9100464452">
        <ele>2707.21</ele>
        <time>2019-09-07T08:47:04Z</time>
      </trkpt>
      <trkpt lat="42.5895966589" lon="0.9100456070">
        <ele>2705.29</ele>
        <time>2019-09-07T08:47:20Z</time>
      </trkpt>
      <trkpt lat="42.5896072201" lon="0.9100289270">
        <ele>2703.85</ele>
        <time>2019-09-07T08:47:35Z</time>
      </trkpt>
      <trkpt lat="42.5896057114" lon="0.9100164380">
        <ele>2702.40</ele>
        <time>2019-09-07T08:47:48Z</time>
      </trkpt>
      <trkpt lat="42.5895980839" lon="0.9100081399">
        <ele>2702.40</ele>
        <time>2019-09-07T08:47:54Z</time>
      </trkpt>
      <trkpt lat="42.5895932224" lon="0.9099736065">
        <ele>2700.48</ele>
        <time>2019-09-07T08:48:07Z</time>
      </trkpt>
      <trkpt lat="42.5896093994" lon="0.9099509753">
        <ele>2699.52</ele>
        <time>2019-09-07T08:48:21Z</time>
      </trkpt>
      <trkpt lat="42.5895958208" lon="0.9099367261">
        <ele>2698.56</ele>
        <time>2019-09-07T08:48:32Z</time>
      </trkpt>
      <trkpt lat="42.5896005146" lon="0.9098981693">
        <ele>2696.64</ele>
        <time>2019-09-07T08:48:46Z</time>
      </trkpt>
      <trkpt lat="42.5896027777" lon="0.9098863509">
        <ele>2695.19</ele>
        <time>2019-09-07T08:48:55Z</time>
      </trkpt>
      <trkpt lat="42.5896217208" lon="0.9098736104">
        <ele>2693.75</ele>
        <time>2019-09-07T08:49:08Z</time>
      </trkpt>
      <trkpt lat="42.5896306895" lon="0.9098664857">
        <ele>2692.79</ele>
        <time>2019-09-07T08:49:15Z</time>
      </trkpt>
      <trkpt lat="42.5896540750" lon="0.9098529071">
        <ele>2691.83</ele>
        <time>2019-09-07T08:49:22Z</time>
      </trkpt>
      <trkpt lat="42.5896494649" lon="0.9098645579">
        <ele>2690.87</ele>
        <time>2019-09-07T08:49:31Z</time>
      </trkpt>
      <trkpt lat="42.5896519795" lon="0.9098278452">
        <ele>2689.91</ele>
        <time>2019-09-07T08:49:44Z</time>
      </trkpt>
      <trkpt lat="42.5896478724" lon="0.9097944014">
        <ele>2688.46</ele>
        <time>2019-09-07T08:49:57Z</time>
      </trkpt>
      <trkpt lat="42.5896532368" lon="0.9097669087">
        <ele>2687.50</ele>
        <time>2019-09-07T08:50:06Z</time>
      </trkpt>
      <trkpt lat="42.5896941405" lon="0.9097677469">
        <ele>2685.58</ele>
        <time>2019-09-07T08:50:15Z</time>
      </trkpt>
      <trkpt lat="42.5896952301" lon="0.9097472113">
        <ele>2684.62</ele>
        <time>2019-09-07T08:50:20Z</time>
      </trkpt>
      <trkpt lat="42.5897012651" lon="0.9097281843">
        <ele>2683.66</ele>
        <time>2019-09-07T08:50:32Z</time>
      </trkpt>
      <trkpt lat="42.5896912906" lon="0.9096970037">
        <ele>2682.22</ele>
        <time>2019-09-07T08:50:44Z</time>
      </trkpt>
      <trkpt lat="42.5896996725" lon="0.9096737858">
        <ele>2680.77</ele>
        <time>2019-09-07T08:50:56Z</time>
      </trkpt>
      <trkpt lat="42.5897001754" lon="0.9096659906">
        <ele>2680.77</ele>
        <time>2019-09-07T08:50:58Z</time>
      </trkpt>
      <trkpt lat="42.5896989182" lon="0.9096487239">
        <ele>2679.81</ele>
        <time>2019-09-07T08:51:03Z</time>
      </trkpt>
      <trkpt lat="42.5897126645" lon="0.9096504841">
        <ele>2678.85</ele>
        <time>2019-09-07T08:51:11Z</time>
      </trkpt>
      <trkpt lat="42.5897000916" lon="0.9095827583">
        <ele>2676.93</ele>
        <time>2019-09-07T08:51:22Z</time>
      </trkpt>
      <trkpt lat="42.5897117425" lon="0.9095819201">
        <ele>2676.45</ele>
        <time>2019-09-07T08:51:25Z</time>
      </trkpt>
      <trkpt lat="42.5897188671" lon="0.9095539246">
        <ele>2675.49</ele>
        <time>2019-09-07T08:51:34Z</time>
      </trkpt>
      <trkpt lat="42.5897224713" lon="0.9095337242">
        <ele>2674.04</ele>
        <time>2019-09-07T08:51:42Z</time>
      </trkpt>
      <trkpt lat="42.5897208788" lon="0.9094746318">
        <ele>2671.64</ele>
        <time>2019-09-07T08:51:55Z</time>
      </trkpt>
      <trkpt lat="42.5897265784" lon="0.9094561916">
        <ele>2670.20</ele>
        <time>2019-09-07T08:52:03Z</time>
      </trkpt>
      <trkpt lat="42.5897326972" lon="0.9094193950">
        <ele>2669.24</ele>
        <time>2019-09-07T08:52:11Z</time>
      </trkpt>
      <trkpt lat="42.5897563342" lon="0.9093970992">
        <ele>2667.31</ele>
        <time>2019-09-07T08:52:22Z</time>
      </trkpt>
      <trkpt lat="42.5897643808" lon="0.9093833528">
        <ele>2666.35</ele>
        <time>2019-09-07T08:52:36Z</time>
      </trkpt>
      <trkpt lat="42.5897798035" lon="0.9093753062">
        <ele>2665.87</ele>
        <time>2019-09-07T08:53:03Z</time>
      </trkpt>
      <trkpt lat="42.5897922926" lon="0.9093669243">
        <ele>2664.43</ele>
        <time>2019-09-07T08:53:12Z</time>
      </trkpt>
      <trkpt lat="42.5897965673" lon="0.9093483165">
        <ele>2662.99</ele>
        <time>2019-09-07T08:53:23Z</time>
      </trkpt>
      <trkpt lat="42.5897908676" lon="0.9093504120">
        <ele>2662.99</ele>
        <time>2019-09-07T08:53:26Z</time>
      </trkpt>
      <trkpt lat="42.5897682365" lon="0.9093312174">
        <ele>2662.51</ele>
        <time>2019-09-07T08:53:35Z</time>
      </trkpt>
      <trkpt lat="42.5897482876" lon="0.9093194827">
        <ele>2662.03</ele>
        <time>2019-09-07T08:53:41Z</time>
      </trkpt>
      <trkpt lat="42.5897708349" lon="0.9092777409">
        <ele>2660.11</ele>
        <time>2019-09-07T08:53:52Z</time>
      </trkpt>
      <trkpt lat="42.5897801388" lon="0.9092582949">
        <ele>2658.18</ele>
        <time>2019-09-07T08:54:04Z</time>
      </trkpt>
      <trkpt lat="42.5898156781" lon="0.9092416987">
        <ele>2657.22</ele>
        <time>2019-09-07T08:54:13Z</time>
      </trkpt>
      <trkpt lat="42.5898199528" lon="0.9091682732">
        <ele>2653.86</ele>
        <time>2019-09-07T08:54:25Z</time>
      </trkpt>
      <trkpt lat="42.5898472778" lon="0.9091588017">
        <ele>2652.90</ele>
        <time>2019-09-07T08:54:30Z</time>
      </trkpt>
      <trkpt lat="42.5898450147" lon="0.9091305546">
        <ele>2650.97</ele>
        <time>2019-09-07T08:54:39Z</time>
      </trkpt>
      <trkpt lat="42.5898711663" lon="0.9090912435">
        <ele>2649.05</ele>
        <time>2019-09-07T08:54:49Z</time>
      </trkpt>
      <trkpt lat="42.5898754410" lon="0.9090748988">
        <ele>2648.57</ele>
        <time>2019-09-07T08:54:51Z</time>
      </trkpt>
      <trkpt lat="42.5899011735" lon="0.9090643376">
        <ele>2647.61</ele>
        <time>2019-09-07T08:54:57Z</time>
      </trkpt>
      <trkpt lat="42.5899005868" lon="0.9089999646">
        <ele>2645.21</ele>
        <time>2019-09-07T08:55:09Z</time>
      </trkpt>
      <trkpt lat="42.5899189431" lon="0.9090002161">
        <ele>2644.72</ele>
        <time>2019-09-07T08:55:20Z</time>
      </trkpt>
      <trkpt lat="42.5899261516" lon="0.9089973662">
        <ele>2644.24</ele>
        <time>2019-09-07T08:55:22Z</time>
      </trkpt>
      <trkpt lat="42.5899236370" lon="0.9089345019">
        <ele>2642.80</ele>
        <time>2019-09-07T08:55:31Z</time>
      </trkpt>
      <trkpt lat="42.5899518002" lon="0.9088882338">
        <ele>2640.40</ele>
        <time>2019-09-07T08:55:40Z</time>
      </trkpt>
      <trkpt lat="42.5899646245" lon="0.9088714700">
        <ele>2639.44</ele>
        <time>2019-09-07T08:55:44Z</time>
      </trkpt>
      <trkpt lat="42.5899968110" lon="0.9089033213">
        <ele>2638.96</ele>
        <time>2019-09-07T08:55:50Z</time>
      </trkpt>
      <trkpt lat="42.5900395587" lon="0.9089050815">
        <ele>2637.51</ele>
        <time>2019-09-07T08:55:57Z</time>
      </trkpt>
      <trkpt lat="42.5900516286" lon="0.9089091886">
        <ele>2637.03</ele>
        <time>2019-09-07T08:56:03Z</time>
      </trkpt>
      <trkpt lat="42.5900740083" lon="0.9088572208">
        <ele>2634.63</ele>
        <time>2019-09-07T08:56:13Z</time>
      </trkpt>
      <trkpt lat="42.5901129842" lon="0.9088030737">
        <ele>2632.23</ele>
        <time>2019-09-07T08:56:22Z</time>
      </trkpt>
      <trkpt lat="42.5901160855" lon="0.9088060074">
        <ele>2632.23</ele>
        <time>2019-09-07T08:56:23Z</time>
      </trkpt>
      <trkpt lat="42.5901351124" lon="0.9088167362">
        <ele>2630.30</ele>
        <time>2019-09-07T08:56:30Z</time>
      </trkpt>
      <trkpt lat="42.5901547261" lon="0.9088031575">
        <ele>2629.82</ele>
        <time>2019-09-07T08:56:42Z</time>
      </trkpt>
      <trkpt lat="42.5901560672" lon="0.9087639302">
        <ele>2628.38</ele>
        <time>2019-09-07T08:56:51Z</time>
      </trkpt>
      <trkpt lat="42.5901501160" lon="0.9087418858">
        <ele>2626.94</ele>
        <time>2019-09-07T08:57:02Z</time>
      </trkpt>
      <trkpt lat="42.5901616830" lon="0.9087211825">
        <ele>2625.98</ele>
        <time>2019-09-07T08:57:19Z</time>
      </trkpt>
      <trkpt lat="42.5901976414" lon="0.9087029099">
        <ele>2624.54</ele>
        <time>2019-09-07T08:57:32Z</time>
      </trkpt>
      <trkpt lat="42.5902116392" lon="0.9086625092">
        <ele>2623.09</ele>
        <time>2019-09-07T08:57:44Z</time>
      </trkpt>
      <trkpt lat="42.5902224518" lon="0.9086405486">
        <ele>2622.13</ele>
        <time>2019-09-07T08:57:55Z</time>
      </trkpt>
      <trkpt lat="42.5902246311" lon="0.9086109605">
        <ele>2620.69</ele>
        <time>2019-09-07T08:58:09Z</time>
      </trkpt>
      <trkpt lat="42.5902357791" lon="0.9085664526">
        <ele>2619.73</ele>
        <time>2019-09-07T08:58:15Z</time>
      </trkpt>
      <trkpt lat="42.5902429037" lon="0.9085320029">
        <ele>2618.29</ele>
        <time>2019-09-07T08:58:25Z</time>
      </trkpt>
      <trkpt lat="42.5902698934" lon="0.9085128922">
        <ele>2616.37</ele>
        <time>2019-09-07T08:58:39Z</time>
      </trkpt>
      <trkpt lat="42.5902924407" lon="0.9084884170">
        <ele>2615.88</ele>
        <time>2019-09-07T08:58:50Z</time>
      </trkpt>
      <trkpt lat="42.5903213583" lon="0.9084596671">
        <ele>2614.92</ele>
        <time>2019-09-07T08:59:00Z</time>
      </trkpt>
      <trkpt lat="42.5903159101" lon="0.9084206074">
        <ele>2613.48</ele>
        <time>2019-09-07T08:59:12Z</time>
      </trkpt>
      <trkpt lat="42.5903030857" lon="0.9083365370">
        <ele>2612.52</ele>
        <time>2019-09-07T08:59:23Z</time>
      </trkpt>
      <trkpt lat="42.5903028343" lon="0.9083101340">
        <ele>2611.08</ele>
        <time>2019-09-07T08:59:33Z</time>
      </trkpt>
      <trkpt lat="42.5903271418" lon="0.9082962200">
        <ele>2610.12</ele>
        <time>2019-09-07T08:59:47Z</time>
      </trkpt>
      <trkpt lat="42.5903406367" lon="0.9083144087">
        <ele>2610.12</ele>
        <time>2019-09-07T09:00:00Z</time>
      </trkpt>
      <trkpt lat="42.5903542154" lon="0.9083138220">
        <ele>2609.16</ele>
        <time>2019-09-07T09:00:12Z</time>
      </trkpt>
      <trkpt lat="42.5903450791" lon="0.9082821384">
        <ele>2608.19</ele>
        <time>2019-09-07T09:00:24Z</time>
      </trkpt>
      <trkpt lat="42.5903759245" lon="0.9082466830">
        <ele>2605.79</ele>
        <time>2019-09-07T09:00:39Z</time>
      </trkpt>
      <trkpt lat="42.5903662853" lon="0.9081991576">
        <ele>2604.35</ele>
        <time>2019-09-07T09:00:54Z</time>
      </trkpt>
      <trkpt lat="42.5903865695" lon="0.9081471059">
        <ele>2602.43</ele>
        <time>2019-09-07T09:01:08Z</time>
      </trkpt>
      <trkpt lat="42.5903674588" lon="0.9081382211">
        <ele>2601.95</ele>
        <time>2019-09-07T09:01:14Z</time>
      </trkpt>
      <trkpt lat="42.5903585739" lon="0.9081127401">
        <ele>2600.98</ele>
        <time>2019-09-07T09:01:24Z</time>
      </trkpt>
      <trkpt lat="42.5903792772" lon="0.9080810566">
        <ele>2600.02</ele>
        <time>2019-09-07T09:01:40Z</time>
      </trkpt>
      <trkpt lat="42.5904178340" lon="0.9080404881">
        <ele>2598.58</ele>
        <time>2019-09-07T09:01:51Z</time>
      </trkpt>
      <trkpt lat="42.5904511940" lon="0.9080442600">
        <ele>2597.62</ele>
        <time>2019-09-07T09:02:02Z</time>
      </trkpt>
      <trkpt lat="42.5905127171" lon="0.9080145881">
        <ele>2596.66</ele>
        <time>2019-09-07T09:02:13Z</time>
      </trkpt>
      <trkpt lat="42.5905236136" lon="0.9079898614">
        <ele>2595.70</ele>
        <time>2019-09-07T09:02:25Z</time>
      </trkpt>
      <trkpt lat="42.5905346777" lon="0.9079679847">
        <ele>2594.74</ele>
        <time>2019-09-07T09:02:36Z</time>
      </trkpt>
      <trkpt lat="42.5905424729" lon="0.9078459442">
        <ele>2592.81</ele>
        <time>2019-09-07T09:02:50Z</time>
      </trkpt>
      <trkpt lat="42.5905966200" lon="0.9077895340">
        <ele>2591.85</ele>
        <time>2019-09-07T09:03:02Z</time>
      </trkpt>
      <trkpt lat="42.5906506833" lon="0.9077752009">
        <ele>2589.45</ele>
        <time>2019-09-07T09:03:15Z</time>
      </trkpt>
      <trkpt lat="42.5906691235" lon="0.9077415895">
        <ele>2588.01</ele>
        <time>2019-09-07T09:03:29Z</time>
      </trkpt>
      <trkpt lat="42.5907032378" lon="0.9076983389">
        <ele>2585.60</ele>
        <time>2019-09-07T09:03:42Z</time>
      </trkpt>
      <trkpt lat="42.5907200854" lon="0.9076703433">
        <ele>2585.60</ele>
        <time>2019-09-07T09:03:57Z</time>
      </trkpt>
      <trkpt lat="42.5908027310" lon="0.9076479636">
        <ele>2584.16</ele>
        <time>2019-09-07T09:04:09Z</time>
      </trkpt>
      <trkpt lat="42.5908402819" lon="0.9076826647">
        <ele>2582.24</ele>
        <time>2019-09-07T09:04:19Z</time>
      </trkpt>
      <trkpt lat="42.5908793416" lon="0.9076845087">
        <ele>2581.28</ele>
        <time>2019-09-07T09:04:30Z</time>
      </trkpt>
      <trkpt lat="42.5909202453" lon="0.9076844249">
        <ele>2580.32</ele>
        <time>2019-09-07T09:04:40Z</time>
      </trkpt>
      <trkpt lat="42.5909673516" lon="0.9076648112">
        <ele>2578.87</ele>
        <time>2019-09-07T09:04:50Z</time>
      </trkpt>
      <trkpt lat="42.5909899827" lon="0.9076282661">
        <ele>2578.39</ele>
        <time>2019-09-07T09:05:02Z</time>
      </trkpt>
      <trkpt lat="42.5910040643" lon="0.9076085687">
        <ele>2576.95</ele>
        <time>2019-09-07T09:05:13Z</time>
      </trkpt>
      <trkpt lat="42.5910056569" lon="0.9075817466">
        <ele>2576.47</ele>
        <time>2019-09-07T09:05:26Z</time>
      </trkpt>
      <trkpt lat="42.5910334848" lon="0.9075296950">
        <ele>2575.03</ele>
        <time>2019-09-07T09:05:37Z</time>
      </trkpt>
      <trkpt lat="42.5910670124" lon="0.9075026214">
        <ele>2573.11</ele>
        <time>2019-09-07T09:05:50Z</time>
      </trkpt>
      <trkpt lat="42.5910732150" lon="0.9074576106">
        <ele>2572.63</ele>
        <time>2019-09-07T09:05:59Z</time>
      </trkpt>
      <trkpt lat="42.5911114365" lon="0.9074306209">
        <ele>2572.14</ele>
        <time>2019-09-07T09:06:08Z</time>
      </trkpt>
      <trkpt lat="42.5911376718" lon="0.9074126836">
        <ele>2571.66</ele>
        <time>2019-09-07T09:06:19Z</time>
      </trkpt>
      <trkpt lat="42.5911621470" lon="0.9074171260">
        <ele>2571.66</ele>
        <time>2019-09-07T09:06:30Z</time>
      </trkpt>
      <trkpt lat="42.5911908131" lon="0.9074337222">
        <ele>2570.22</ele>
        <time>2019-09-07T09:06:42Z</time>
      </trkpt>
      <trkpt lat="42.5912063196" lon="0.9074272681">
        <ele>2569.26</ele>
        <time>2019-09-07T09:06:53Z</time>
      </trkpt>
      <trkpt lat="42.5912110135" lon="0.9074042179">
        <ele>2568.78</ele>
        <time>2019-09-07T09:07:06Z</time>
      </trkpt>
      <trkpt lat="42.5912427809" lon="0.9073756356">
        <ele>2568.30</ele>
        <time>2019-09-07T09:07:16Z</time>
      </trkpt>
      <trkpt lat="42.5912560243" lon="0.9073585365">
        <ele>2566.38</ele>
        <time>2019-09-07T09:07:26Z</time>
      </trkpt>
      <trkpt lat="42.5912669208" lon="0.9073213208">
        <ele>2565.90</ele>
        <time>2019-09-07T09:07:39Z</time>
      </trkpt>
      <trkpt lat="42.5912886299" lon="0.9072779864">
        <ele>2564.93</ele>
        <time>2019-09-07T09:07:50Z</time>
      </trkpt>
      <trkpt lat="42.5913135242" lon="0.9072307125">
        <ele>2563.97</ele>
        <time>2019-09-07T09:07:58Z</time>
      </trkpt>
      <trkpt lat="42.5913238339" lon="0.9071733803">
        <ele>2563.01</ele>
        <time>2019-09-07T09:08:09Z</time>
      </trkpt>
      <trkpt lat="42.5913509075" lon="0.9071599692">
        <ele>2562.05</ele>
        <time>2019-09-07T09:08:24Z</time>
      </trkpt>
      <trkpt lat="42.5913627259" lon="0.9071344882">
        <ele>2560.61</ele>
        <time>2019-09-07T09:08:36Z</time>
      </trkpt>
      <trkpt lat="42.5914143585" lon="0.9071346559">
        <ele>2560.61</ele>
        <time>2019-09-07T09:08:47Z</time>
      </trkpt>
      <trkpt lat="42.5914550945" lon="0.9071074147">
        <ele>2560.13</ele>
        <time>2019-09-07T09:08:59Z</time>
      </trkpt>
      <trkpt lat="42.5914831739" lon="0.9070648346">
        <ele>2559.17</ele>
        <time>2019-09-07T09:09:10Z</time>
      </trkpt>
      <trkpt lat="42.5915003568" lon="0.9070417006">
        <ele>2558.21</ele>
        <time>2019-09-07T09:09:19Z</time>
      </trkpt>
      <trkpt lat="42.5915180426" lon="0.9070065804">
        <ele>2557.24</ele>
        <time>2019-09-07T09:09:29Z</time>
      </trkpt>
      <trkpt lat="42.5915451162" lon="0.9069621563">
        <ele>2557.24</ele>
        <time>2019-09-07T09:09:38Z</time>
      </trkpt>
      <trkpt lat="42.5915866066" lon="0.9069253597">
        <ele>2556.76</ele>
        <time>2019-09-07T09:09:50Z</time>
      </trkpt>
      <trkpt lat="42.5916027837" lon="0.9068832826">
        <ele>2556.76</ele>
        <time>2019-09-07T09:09:59Z</time>
      </trkpt>
      <trkpt lat="42.5916342158" lon="0.9068656806">
        <ele>2555.80</ele>
        <time>2019-09-07T09:10:08Z</time>
      </trkpt>
      <trkpt lat="42.5916634686" lon="0.9068374336">
        <ele>2555.80</ele>
        <time>2019-09-07T09:10:18Z</time>
      </trkpt>
      <trkpt lat="42.5916766282" lon="0.9067603201">
        <ele>2555.80</ele>
        <time>2019-09-07T09:10:27Z</time>
      </trkpt>
      <trkpt lat="42.5917219743" lon="0.9066770039">
        <ele>2555.80</ele>
        <time>2019-09-07T09:10:38Z</time>
      </trkpt>
      <trkpt lat="42.5917676557" lon="0.9066348430">
        <ele>2555.32</ele>
        <time>2019-09-07T09:10:48Z</time>
      </trkpt>
      <trkpt lat="42.5917601958" lon="0.9066026565">
        <ele>2554.84</ele>
        <time>2019-09-07T09:11:01Z</time>
      </trkpt>
      <trkpt lat="42.5917555019" lon="0.9065753315">
        <ele>2554.84</ele>
        <time>2019-09-07T09:11:04Z</time>
      </trkpt>
      <trkpt lat="42.5917601958" lon="0.9065584000">
        <ele>2554.36</ele>
        <time>2019-09-07T09:11:19Z</time>
      </trkpt>
      <trkpt lat="42.5917663146" lon="0.9065604955">
        <ele>2554.36</ele>
        <time>2019-09-07T09:11:30Z</time>
      </trkpt>
      <trkpt lat="42.5917677395" lon="0.9065636806">
        <ele>2553.88</ele>
        <time>2019-09-07T09:11:42Z</time>
      </trkpt>
      <trkpt lat="42.5917757023" lon="0.9065617528">
        <ele>2553.40</ele>
        <time>2019-09-07T09:11:59Z</time>
      </trkpt>
      <trkpt lat="42.5918109063" lon="0.9065630939">
        <ele>2553.40</ele>
        <time>2019-09-07T09:12:09Z</time>
      </trkpt>
      <trkpt lat="42.5918146782" lon="0.9065138083">
        <ele>2554.36</ele>
        <time>2019-09-07T09:12:19Z</time>
      </trkpt>
      <trkpt lat="42.5918338727" lon="0.9064596612">
        <ele>2554.36</ele>
        <time>2019-09-07T09:12:30Z</time>
      </trkpt>
      <trkpt lat="42.5918399915" lon="0.9064389579">
        <ele>2554.36</ele>
        <time>2019-09-07T09:12:33Z</time>
      </trkpt>
      <trkpt lat="42.5918702502" lon="0.9063906781">
        <ele>2553.88</ele>
        <time>2019-09-07T09:12:41Z</time>
      </trkpt>
      <trkpt lat="42.5919033587" lon="0.9063221142">
        <ele>2553.40</ele>
        <time>2019-09-07T09:12:52Z</time>
      </trkpt>
      <trkpt lat="42.5919127464" lon="0.9062558971">
        <ele>2545.23</ele>
        <time>2019-09-07T09:13:00Z</time>
      </trkpt>
      <trkpt lat="42.5919153448" lon="0.9062450007">
        <ele>2551.48</ele>
        <time>2019-09-07T09:13:01Z</time>
      </trkpt>
      <trkpt lat="42.5919155125" lon="0.9062185138">
        <ele>2553.40</ele>
        <time>2019-09-07T09:13:04Z</time>
      </trkpt>
      <trkpt lat="42.5918981619" lon="0.9061592538">
        <ele>2553.40</ele>
        <time>2019-09-07T09:13:14Z</time>
      </trkpt>
      <trkpt lat="42.5919044483" lon="0.9061560687">
        <ele>2553.40</ele>
        <time>2019-09-07T09:13:33Z</time>
      </trkpt>
      <trkpt lat="42.5919115730" lon="0.9061584994">
        <ele>2553.40</ele>
        <time>2019-09-07T09:13:50Z</time>
      </trkpt>
      <trkpt lat="42.5919087231" lon="0.9061604273">
        <ele>2553.40</ele>
        <time>2019-09-07T09:14:10Z</time>
      </trkpt>
      <trkpt lat="42.5919080526" lon="0.9061481897">
        <ele>2553.40</ele>
        <time>2019-09-07T09:14:31Z</time>
      </trkpt>
      <trkpt lat="42.5919036940" lon="0.9061346948">
        <ele>2553.40</ele>
        <time>2019-09-07T09:14:57Z</time>
      </trkpt>
      <trkpt lat="42.5919310190" lon="0.9061779454">
        <ele>2553.40</ele>
        <time>2019-09-07T09:15:14Z</time>
      </trkpt>
      <trkpt lat="42.5919206254" lon="0.9061357006">
        <ele>2553.40</ele>
        <time>2019-09-07T09:15:25Z</time>
      </trkpt>
      <trkpt lat="42.5918996707" lon="0.9061057772">
        <ele>2553.40</ele>
        <time>2019-09-07T09:15:34Z</time>
      </trkpt>
      <trkpt lat="42.5919029396" lon="0.9060880076">
        <ele>2553.40</ele>
        <time>2019-09-07T09:15:49Z</time>
      </trkpt>
      <trkpt lat="42.5919026043" lon="0.9060574137">
        <ele>2553.40</ele>
        <time>2019-09-07T09:16:01Z</time>
      </trkpt>
      <trkpt lat="42.5918989163" lon="0.9060533904">
        <ele>2550.03</ele>
        <time>2019-09-07T09:16:03Z</time>
      </trkpt>
      <trkpt lat="42.5918963179" lon="0.9060488641">
        <ele>2550.03</ele>
        <time>2019-09-07T09:16:04Z</time>
      </trkpt>
      <trkpt lat="42.5918953121" lon="0.9059967287">
        <ele>2549.55</ele>
        <time>2019-09-07T09:16:17Z</time>
      </trkpt>
      <trkpt lat="42.5919033587" lon="0.9059834853">
        <ele>2549.07</ele>
        <time>2019-09-07T09:16:19Z</time>
      </trkpt>
      <trkpt lat="42.5919050351" lon="0.9059403185">
        <ele>2548.59</ele>
        <time>2019-09-07T09:16:29Z</time>
      </trkpt>
      <trkpt lat="42.5919391494" lon="0.9059205372">
        <ele>2548.11</ele>
        <time>2019-09-07T09:16:42Z</time>
      </trkpt>
      <trkpt lat="42.5919611938" lon="0.9058770351">
        <ele>2549.07</ele>
        <time>2019-09-07T09:16:52Z</time>
      </trkpt>
      <trkpt lat="42.5919810589" lon="0.9058435075">
        <ele>2549.55</ele>
        <time>2019-09-07T09:17:03Z</time>
      </trkpt>
      <trkpt lat="42.5920124073" lon="0.9058109019">
        <ele>2550.51</ele>
        <time>2019-09-07T09:17:12Z</time>
      </trkpt>
      <trkpt lat="42.5920140836" lon="0.9057171084">
        <ele>2549.55</ele>
        <time>2019-09-07T09:17:25Z</time>
      </trkpt>
      <trkpt lat="42.5920431688" lon="0.9056594409">
        <ele>2548.59</ele>
        <time>2019-09-07T09:17:35Z</time>
      </trkpt>
      <trkpt lat="42.5920745172" lon="0.9056168608">
        <ele>2549.07</ele>
        <time>2019-09-07T09:17:45Z</time>
      </trkpt>
      <trkpt lat="42.5921087991" lon="0.9055948164">
        <ele>2549.07</ele>
        <time>2019-09-07T09:17:55Z</time>
      </trkpt>
      <trkpt lat="42.5921152532" lon="0.9055695031">
        <ele>2549.07</ele>
        <time>2019-09-07T09:18:07Z</time>
      </trkpt>
      <trkpt lat="42.5921406504" lon="0.9055326227">
        <ele>2548.59</ele>
        <time>2019-09-07T09:18:21Z</time>
      </trkpt>
      <trkpt lat="42.5921438355" lon="0.9055263363">
        <ele>2548.59</ele>
        <time>2019-09-07T09:18:23Z</time>
      </trkpt>
      <trkpt lat="42.5921452604" lon="0.9054766316">
        <ele>2548.59</ele>
        <time>2019-09-07T09:18:34Z</time>
      </trkpt>
      <trkpt lat="42.5921785366" lon="0.9054327942">
        <ele>2548.11</ele>
        <time>2019-09-07T09:18:46Z</time>
      </trkpt>
      <trkpt lat="42.5922358688" lon="0.9053646494">
        <ele>2548.59</ele>
        <time>2019-09-07T09:18:57Z</time>
      </trkpt>
      <trkpt lat="42.5922596734" lon="0.9052992705">
        <ele>2547.63</ele>
        <time>2019-09-07T09:19:08Z</time>
      </trkpt>
      <trkpt lat="42.5922487769" lon="0.9052633122">
        <ele>2545.71</ele>
        <time>2019-09-07T09:19:18Z</time>
      </trkpt>
      <trkpt lat="42.5922559854" lon="0.9052150324">
        <ele>2544.27</ele>
        <time>2019-09-07T09:19:28Z</time>
      </trkpt>
      <trkpt lat="42.5922939554" lon="0.9051335603">
        <ele>2543.79</ele>
        <time>2019-09-07T09:19:38Z</time>
      </trkpt>
      <trkpt lat="42.5923035108" lon="0.9050976858">
        <ele>2542.82</ele>
        <time>2019-09-07T09:19:49Z</time>
      </trkpt>
      <trkpt lat="42.5923366193" lon="0.9050406050">
        <ele>2541.86</ele>
        <time>2019-09-07T09:19:59Z</time>
      </trkpt>
      <trkpt lat="42.5923638605" lon="0.9049795009">
        <ele>2541.86</ele>
        <time>2019-09-07T09:20:10Z</time>
      </trkpt>
      <trkpt lat="42.5923707336" lon="0.9049418662">
        <ele>2540.90</ele>
        <time>2019-09-07T09:20:21Z</time>
      </trkpt>
      <trkpt lat="42.5923686381" lon="0.9049114399">
        <ele>2539.94</ele>
        <time>2019-09-07T09:20:31Z</time>
      </trkpt>
      <trkpt lat="42.5923739187" lon="0.9048653394">
        <ele>2540.42</ele>
        <time>2019-09-07T09:20:42Z</time>
      </trkpt>
      <trkpt lat="42.5923823006" lon="0.9048327338">
        <ele>2539.94</ele>
        <time>2019-09-07T09:20:49Z</time>
      </trkpt>
      <trkpt lat="42.5924205221" lon="0.9048085101">
        <ele>2539.94</ele>
        <time>2019-09-07T09:20:59Z</time>
      </trkpt>
      <trkpt lat="42.5924304966" lon="0.9047673550">
        <ele>2539.46</ele>
        <time>2019-09-07T09:21:08Z</time>
      </trkpt>
      <trkpt lat="42.5924329273" lon="0.9047842026">
        <ele>2539.46</ele>
        <time>2019-09-07T09:21:19Z</time>
      </trkpt>
      <trkpt lat="42.5924331788" lon="0.9047964402">
        <ele>2539.46</ele>
        <time>2019-09-07T09:21:32Z</time>
      </trkpt>
      <trkpt lat="42.5924252998" lon="0.9047896508">
        <ele>2539.94</ele>
        <time>2019-09-07T09:21:47Z</time>
      </trkpt>
      <trkpt lat="42.5924154092" lon="0.9048020560">
        <ele>2540.42</ele>
        <time>2019-09-07T09:22:01Z</time>
      </trkpt>
      <trkpt lat="42.5924104638" lon="0.9048022237">
        <ele>2540.42</ele>
        <time>2019-09-07T09:22:20Z</time>
      </trkpt>
      <trkpt lat="42.5923872460" lon="0.9047933389">
        <ele>2539.94</ele>
        <time>2019-09-07T09:22:31Z</time>
      </trkpt>
      <trkpt lat="42.5923852343" lon="0.9047659300">
        <ele>2539.94</ele>
        <time>2019-09-07T09:22:42Z</time>
      </trkpt>
      <trkpt lat="42.5924120564" lon="0.9047282953">
        <ele>2538.50</ele>
        <time>2019-09-07T09:22:53Z</time>
      </trkpt>
      <trkpt lat="42.5924180076" lon="0.9046684485">
        <ele>2537.54</ele>
        <time>2019-09-07T09:23:02Z</time>
      </trkpt>
      <trkpt lat="42.5924278982" lon="0.9046222642">
        <ele>2536.58</ele>
        <time>2019-09-07T09:23:14Z</time>
      </trkpt>
      <trkpt lat="42.5924475119" lon="0.9045975376">
        <ele>2536.10</ele>
        <time>2019-09-07T09:23:24Z</time>
      </trkpt>
      <trkpt lat="42.5924590789" lon="0.9045063425">
        <ele>2535.61</ele>
        <time>2019-09-07T09:23:34Z</time>
      </trkpt>
      <trkpt lat="42.5924835540" lon="0.9044913389">
        <ele>2534.65</ele>
        <time>2019-09-07T09:23:45Z</time>
      </trkpt>
      <trkpt lat="42.5924970489" lon="0.9044185001">
        <ele>2532.73</ele>
        <time>2019-09-07T09:23:56Z</time>
      </trkpt>
      <trkpt lat="42.5925157405" lon="0.9043911751">
        <ele>2531.77</ele>
        <time>2019-09-07T09:24:05Z</time>
      </trkpt>
      <trkpt lat="42.5925582368" lon="0.9043509420">
        <ele>2530.33</ele>
        <time>2019-09-07T09:24:16Z</time>
      </trkpt>
      <trkpt lat="42.5925595779" lon="0.9043292329">
        <ele>2529.85</ele>
        <time>2019-09-07T09:24:29Z</time>
      </trkpt>
      <trkpt lat="42.5925857294" lon="0.9043108765">
        <ele>2529.85</ele>
        <time>2019-09-07T09:24:38Z</time>
      </trkpt>
      <trkpt lat="42.5926365238" lon="0.9042878263">
        <ele>2529.37</ele>
        <time>2019-09-07T09:24:50Z</time>
      </trkpt>
      <trkpt lat="42.5926693808" lon="0.9042678773">
        <ele>2528.40</ele>
        <time>2019-09-07T09:24:59Z</time>
      </trkpt>
      <trkpt lat="42.5927105360" lon="0.9042360261">
        <ele>2528.40</ele>
        <time>2019-09-07T09:25:10Z</time>
      </trkpt>
      <trkpt lat="42.5927353464" lon="0.9041952062">
        <ele>2526.48</ele>
        <time>2019-09-07T09:25:21Z</time>
      </trkpt>
      <trkpt lat="42.5927757472" lon="0.9041651152">
        <ele>2525.04</ele>
        <time>2019-09-07T09:25:33Z</time>
      </trkpt>
      <trkpt lat="42.5928142201" lon="0.9041052684">
        <ele>2526.00</ele>
        <time>2019-09-07T09:25:43Z</time>
      </trkpt>
      <trkpt lat="42.5928192493" lon="0.9040779434">
        <ele>2525.52</ele>
        <time>2019-09-07T09:25:56Z</time>
      </trkpt>
      <trkpt lat="42.5928301457" lon="0.9040750097">
        <ele>2526.00</ele>
        <time>2019-09-07T09:26:14Z</time>
      </trkpt>
      <trkpt lat="42.5928601529" lon="0.9040542226">
        <ele>2525.52</ele>
        <time>2019-09-07T09:26:24Z</time>
      </trkpt>
      <trkpt lat="42.5928836223" lon="0.9039629437">
        <ele>2524.56</ele>
        <time>2019-09-07T09:26:35Z</time>
      </trkpt>
      <trkpt lat="42.5928984582" lon="0.9039504547">
        <ele>2525.04</ele>
        <time>2019-09-07T09:26:46Z</time>
      </trkpt>
      <trkpt lat="42.5929050799" lon="0.9039212018">
        <ele>2524.56</ele>
        <time>2019-09-07T09:27:00Z</time>
      </trkpt>
      <trkpt lat="42.5928996317" lon="0.9038799629">
        <ele>2523.60</ele>
        <time>2019-09-07T09:27:09Z</time>
      </trkpt>
      <trkpt lat="42.5928777549" lon="0.9038274921">
        <ele>2521.68</ele>
        <time>2019-09-07T09:27:20Z</time>
      </trkpt>
      <trkpt lat="42.5929289684" lon="0.9038090520">
        <ele>2520.71</ele>
        <time>2019-09-07T09:27:36Z</time>
      </trkpt>
      <trkpt lat="42.5929498393" lon="0.9038006701">
        <ele>2518.31</ele>
        <time>2019-09-07T09:27:47Z</time>
      </trkpt>
      <trkpt lat="42.5929597300" lon="0.9038020112">
        <ele>2518.31</ele>
        <time>2019-09-07T09:27:48Z</time>
      </trkpt>
      <trkpt lat="42.5929815229" lon="0.9038079623">
        <ele>2517.83</ele>
        <time>2019-09-07T09:27:50Z</time>
      </trkpt>
      <trkpt lat="42.5929968618" lon="0.9037509654">
        <ele>2514.95</ele>
        <time>2019-09-07T09:28:00Z</time>
      </trkpt>
      <trkpt lat="42.5929604005" lon="0.9036747739">
        <ele>2513.02</ele>
        <time>2019-09-07T09:28:13Z</time>
      </trkpt>
      <trkpt lat="42.5929241069" lon="0.9035851713">
        <ele>2511.10</ele>
        <time>2019-09-07T09:28:24Z</time>
      </trkpt>
      <trkpt lat="42.5929664355" lon="0.9035359696">
        <ele>2509.18</ele>
        <time>2019-09-07T09:28:35Z</time>
      </trkpt>
      <trkpt lat="42.5929851271" lon="0.9035011847">
        <ele>2506.77</ele>
        <time>2019-09-07T09:28:46Z</time>
      </trkpt>
      <trkpt lat="42.5929898210" lon="0.9034575149">
        <ele>2504.85</ele>
        <time>2019-09-07T09:28:58Z</time>
      </trkpt>
      <trkpt lat="42.5929928385" lon="0.9034490492">
        <ele>2503.89</ele>
        <time>2019-09-07T09:29:09Z</time>
      </trkpt>
      <trkpt lat="42.5929986220" lon="0.9034601972">
        <ele>2503.89</ele>
        <time>2019-09-07T09:29:28Z</time>
      </trkpt>
      <trkpt lat="42.5929993764" lon="0.9034761228">
        <ele>2503.89</ele>
        <time>2019-09-07T09:30:00Z</time>
      </trkpt>
      <trkpt lat="42.5930076744" lon="0.9034568444">
        <ele>2503.41</ele>
        <time>2019-09-07T09:30:13Z</time>
      </trkpt>
      <trkpt lat="42.5930088479" lon="0.9034538269">
        <ele>2502.93</ele>
        <time>2019-09-07T09:30:20Z</time>
      </trkpt>
      <trkpt lat="42.5930017233" lon="0.9034137614">
        <ele>2503.41</ele>
        <time>2019-09-07T09:30:37Z</time>
      </trkpt>
      <trkpt lat="42.5930100214" lon="0.9033756237">
        <ele>2503.41</ele>
        <time>2019-09-07T09:30:47Z</time>
      </trkpt>
      <trkpt lat="42.5930313114" lon="0.9033374861">
        <ele>2503.41</ele>
        <time>2019-09-07T09:30:58Z</time>
      </trkpt>
      <trkpt lat="42.5930520985" lon="0.9033154417">
        <ele>2503.41</ele>
        <time>2019-09-07T09:31:03Z</time>
      </trkpt>
      <trkpt lat="42.5930743944" lon="0.9032353107">
        <ele>2502.45</ele>
        <time>2019-09-07T09:31:09Z</time>
      </trkpt>
      <trkpt lat="42.5930805132" lon="0.9031929821">
        <ele>2496.20</ele>
        <time>2019-09-07T09:31:12Z</time>
      </trkpt>
      <trkpt lat="42.5930953491" lon="0.9031657409">
        <ele>2494.28</ele>
        <time>2019-09-07T09:31:16Z</time>
      </trkpt>
      <trkpt lat="42.5931301340" lon="0.9031209815">
        <ele>2492.84</ele>
        <time>2019-09-07T09:31:21Z</time>
      </trkpt>
      <trkpt lat="42.5931409467" lon="0.9030856099">
        <ele>2492.36</ele>
        <time>2019-09-07T09:31:23Z</time>
      </trkpt>
      <trkpt lat="42.5931468140" lon="0.9029277787">
        <ele>2491.39</ele>
        <time>2019-09-07T09:31:35Z</time>
      </trkpt>
      <trkpt lat="42.5931945909" lon="0.9028113540">
        <ele>2490.43</ele>
        <time>2019-09-07T09:31:43Z</time>
      </trkpt>
      <trkpt lat="42.5932401046" lon="0.9027060773">
        <ele>2488.99</ele>
        <time>2019-09-07T09:31:54Z</time>
      </trkpt>
      <trkpt lat="42.5932740513" lon="0.9026761539">
        <ele>2486.59</ele>
        <time>2019-09-07T09:32:07Z</time>
      </trkpt>
      <trkpt lat="42.5932878815" lon="0.9026500024">
        <ele>2485.15</ele>
        <time>2019-09-07T09:32:17Z</time>
      </trkpt>
      <trkpt lat="42.5932952575" lon="0.9025941789">
        <ele>2484.18</ele>
        <time>2019-09-07T09:32:29Z</time>
      </trkpt>
      <trkpt lat="42.5933104288" lon="0.9025594778">
        <ele>2483.22</ele>
        <time>2019-09-07T09:32:37Z</time>
      </trkpt>
      <trkpt lat="42.5933173858" lon="0.9025699552">
        <ele>2483.70</ele>
        <time>2019-09-07T09:32:51Z</time>
      </trkpt>
      <trkpt lat="42.5933220796" lon="0.9025888145">
        <ele>2483.22</ele>
        <time>2019-09-07T09:33:04Z</time>
      </trkpt>
      <trkpt lat="42.5933558587" lon="0.9026710410">
        <ele>2482.74</ele>
        <time>2019-09-07T09:33:13Z</time>
      </trkpt>
      <trkpt lat="42.5933747180" lon="0.9027332347">
        <ele>2482.26</ele>
        <time>2019-09-07T09:33:25Z</time>
      </trkpt>
      <trkpt lat="42.5933643244" lon="0.9027038980">
        <ele>2481.78</ele>
        <time>2019-09-07T09:33:34Z</time>
      </trkpt>
      <trkpt lat="42.5933644921" lon="0.9026417881">
        <ele>2481.30</ele>
        <time>2019-09-07T09:33:44Z</time>
      </trkpt>
      <trkpt lat="42.5933810882" lon="0.9026180673">
        <ele>2480.34</ele>
        <time>2019-09-07T09:33:55Z</time>
      </trkpt>
      <trkpt lat="42.5934012048" lon="0.9026122838">
        <ele>2478.90</ele>
        <time>2019-09-07T09:34:04Z</time>
      </trkpt>
      <trkpt lat="42.5934124365" lon="0.9026091825">
        <ele>2478.42</ele>
        <time>2019-09-07T09:34:09Z</time>
      </trkpt>
      <trkpt lat="42.5934601296" lon="0.9025959391">
        <ele>2477.45</ele>
        <time>2019-09-07T09:34:19Z</time>
      </trkpt>
      <trkpt lat="42.5934977643" lon="0.9026085958">
        <ele>2476.97</ele>
        <time>2019-09-07T09:34:25Z</time>
      </trkpt>
      <trkpt lat="42.5935171265" lon="0.9026078414">
        <ele>2476.49</ele>
        <time>2019-09-07T09:34:27Z</time>
      </trkpt>
      <trkpt lat="42.5935461279" lon="0.9025516827">
        <ele>2476.01</ele>
        <time>2019-09-07T09:34:39Z</time>
      </trkpt>
      <trkpt lat="42.5935792364" lon="0.9025409538">
        <ele>2475.05</ele>
        <time>2019-09-07T09:34:49Z</time>
      </trkpt>
      <trkpt lat="42.5936322939" lon="0.9025228489">
        <ele>2474.57</ele>
        <time>2019-09-07T09:34:59Z</time>
      </trkpt>
      <trkpt lat="42.5936763827" lon="0.9024878126">
        <ele>2475.05</ele>
        <time>2019-09-07T09:35:09Z</time>
      </trkpt>
      <trkpt lat="42.5937411748" lon="0.9024637565">
        <ele>2475.05</ele>
        <time>2019-09-07T09:35:19Z</time>
      </trkpt>
      <trkpt lat="42.5938034523" lon="0.9024344198">
        <ele>2475.05</ele>
        <time>2019-09-07T09:35:30Z</time>
      </trkpt>
      <trkpt lat="42.5938349683" lon="0.9023873135">
        <ele>2474.57</ele>
        <time>2019-09-07T09:35:40Z</time>
      </trkpt>
      <trkpt lat="42.5938670710" lon="0.9023759142">
        <ele>2473.61</ele>
        <time>2019-09-07T09:35:52Z</time>
      </trkpt>
      <trkpt lat="42.5938810688" lon="0.9023328312">
        <ele>2472.17</ele>
        <time>2019-09-07T09:35:57Z</time>
      </trkpt>
      <trkpt lat="42.5938729383" lon="0.9022366069">
        <ele>2470.73</ele>
        <time>2019-09-07T09:36:07Z</time>
      </trkpt>
      <trkpt lat="42.5938482117" lon="0.9022003971">
        <ele>2469.76</ele>
        <time>2019-09-07T09:36:17Z</time>
      </trkpt>
      <trkpt lat="42.5938120019" lon="0.9021706413">
        <ele>2467.36</ele>
        <time>2019-09-07T09:36:27Z</time>
      </trkpt>
      <trkpt lat="42.5937876105" lon="0.9021161590">
        <ele>2465.92</ele>
        <time>2019-09-07T09:36:37Z</time>
      </trkpt>
      <trkpt lat="42.5937777199" lon="0.9020482656">
        <ele>2464.00</ele>
        <time>2019-09-07T09:36:47Z</time>
      </trkpt>
      <trkpt lat="42.5937525742" lon="0.9019351099">
        <ele>2460.63</ele>
        <time>2019-09-07T09:36:59Z</time>
      </trkpt>
      <trkpt lat="42.5937912147" lon="0.9018528834">
        <ele>2459.67</ele>
        <time>2019-09-07T09:37:10Z</time>
      </trkpt>
      <trkpt lat="42.5938030332" lon="0.9017985687">
        <ele>2458.23</ele>
        <time>2019-09-07T09:37:21Z</time>
      </trkpt>
      <trkpt lat="42.5938346330" lon="0.9017580003">
        <ele>2457.27</ele>
        <time>2019-09-07T09:37:31Z</time>
      </trkpt>
      <trkpt lat="42.5938726030" lon="0.9017035179">
        <ele>2455.82</ele>
        <time>2019-09-07T09:37:43Z</time>
      </trkpt>
      <trkpt lat="42.5939516444" lon="0.9016607702">
        <ele>2452.46</ele>
        <time>2019-09-07T09:37:55Z</time>
      </trkpt>
      <trkpt lat="42.5940293446" lon="0.9016034380">
        <ele>2449.58</ele>
        <time>2019-09-07T09:38:07Z</time>
      </trkpt>
      <trkpt lat="42.5940644648" lon="0.9015785437">
        <ele>2447.17</ele>
        <time>2019-09-07T09:38:17Z</time>
      </trkpt>
      <trkpt lat="42.5941093080" lon="0.9015152603">
        <ele>2444.77</ele>
        <time>2019-09-07T09:38:28Z</time>
      </trkpt>
      <trkpt lat="42.5941376388" lon="0.9014839120">
        <ele>2442.37</ele>
        <time>2019-09-07T09:38:40Z</time>
      </trkpt>
      <trkpt lat="42.5941438414" lon="0.9014227241">
        <ele>2440.44</ele>
        <time>2019-09-07T09:38:52Z</time>
      </trkpt>
      <trkpt lat="42.5942044426" lon="0.9013556689">
        <ele>2438.04</ele>
        <time>2019-09-07T09:39:03Z</time>
      </trkpt>
      <trkpt lat="42.5942168478" lon="0.9012937266">
        <ele>2435.16</ele>
        <time>2019-09-07T09:39:15Z</time>
      </trkpt>
      <trkpt lat="42.5941974856" lon="0.9012521524">
        <ele>2432.27</ele>
        <time>2019-09-07T09:39:27Z</time>
      </trkpt>
      <trkpt lat="42.5942023471" lon="0.9012047946">
        <ele>2430.83</ele>
        <time>2019-09-07T09:39:38Z</time>
      </trkpt>
      <trkpt lat="42.5941794645" lon="0.9011782240">
        <ele>2428.43</ele>
        <time>2019-09-07T09:39:48Z</time>
      </trkpt>
      <trkpt lat="42.5942069571" lon="0.9011073969">
        <ele>2426.99</ele>
        <time>2019-09-07T09:39:57Z</time>
      </trkpt>
      <trkpt lat="42.5942647085" lon="0.9010447003">
        <ele>2423.62</ele>
        <time>2019-09-07T09:40:08Z</time>
      </trkpt>
      <trkpt lat="42.5943053607" lon="0.9010127652">
        <ele>2422.66</ele>
        <time>2019-09-07T09:40:19Z</time>
      </trkpt>
      <trkpt lat="42.5943314284" lon="0.9009876195">
        <ele>2421.22</ele>
        <time>2019-09-07T09:40:28Z</time>
      </trkpt>
      <trkpt lat="42.5943491980" lon="0.9009752143">
        <ele>2420.74</ele>
        <time>2019-09-07T09:40:30Z</time>
      </trkpt>
      <trkpt lat="42.5944223721" lon="0.9008970950">
        <ele>2418.81</ele>
        <time>2019-09-07T09:40:40Z</time>
      </trkpt>
      <trkpt lat="42.5944798719" lon="0.9008306265">
        <ele>2417.37</ele>
        <time>2019-09-07T09:40:51Z</time>
      </trkpt>
      <trkpt lat="42.5945080351" lon="0.9007850289">
        <ele>2414.97</ele>
        <time>2019-09-07T09:41:00Z</time>
      </trkpt>
      <trkpt lat="42.5945326779" lon="0.9007499088">
        <ele>2413.53</ele>
        <time>2019-09-07T09:41:10Z</time>
      </trkpt>
      <trkpt lat="42.5945554767" lon="0.9007174708">
        <ele>2411.60</ele>
        <time>2019-09-07T09:41:20Z</time>
      </trkpt>
      <trkpt lat="42.5945738330" lon="0.9006561991">
        <ele>2409.68</ele>
        <time>2019-09-07T09:41:30Z</time>
      </trkpt>
      <trkpt lat="42.5946034212" lon="0.9006096795">
        <ele>2406.80</ele>
        <time>2019-09-07T09:41:40Z</time>
      </trkpt>
      <trkpt lat="42.5946206879" lon="0.9005825222">
        <ele>2405.36</ele>
        <time>2019-09-07T09:41:52Z</time>
      </trkpt>
      <trkpt lat="42.5946184248" lon="0.9005616512">
        <ele>2404.39</ele>
        <time>2019-09-07T09:42:02Z</time>
      </trkpt>
      <trkpt lat="42.5946293212" lon="0.9005391877">
        <ele>2403.43</ele>
        <time>2019-09-07T09:42:11Z</time>
      </trkpt>
      <trkpt lat="42.5946274772" lon="0.9005045705">
        <ele>2402.47</ele>
        <time>2019-09-07T09:42:16Z</time>
      </trkpt>
      <trkpt lat="42.5946536288" lon="0.9004287142">
        <ele>2400.55</ele>
        <time>2019-09-07T09:42:28Z</time>
      </trkpt>
      <trkpt lat="42.5946781877" lon="0.9003888164">
        <ele>2398.63</ele>
        <time>2019-09-07T09:42:39Z</time>
      </trkpt>
      <trkpt lat="42.5947071053" lon="0.9003428835">
        <ele>2396.70</ele>
        <time>2019-09-07T09:42:50Z</time>
      </trkpt>
      <trkpt lat="42.5947337598" lon="0.9003262874">
        <ele>2395.26</ele>
        <time>2019-09-07T09:43:01Z</time>
      </trkpt>
      <trkpt lat="42.5947535411" lon="0.9002903290">
        <ele>2393.82</ele>
        <time>2019-09-07T09:43:11Z</time>
      </trkpt>
      <trkpt lat="42.5947886612" lon="0.9002596512">
        <ele>2392.86</ele>
        <time>2019-09-07T09:43:20Z</time>
      </trkpt>
      <trkpt lat="42.5948125497" lon="0.9002453182">
        <ele>2391.90</ele>
        <time>2019-09-07T09:43:30Z</time>
      </trkpt>
      <trkpt lat="42.5948242005" lon="0.9002183285">
        <ele>2390.46</ele>
        <time>2019-09-07T09:43:43Z</time>
      </trkpt>
      <trkpt lat="42.5948742405" lon="0.9001666959">
        <ele>2389.01</ele>
        <time>2019-09-07T09:43:54Z</time>
      </trkpt>
      <trkpt lat="42.5948981289" lon="0.9001423884">
        <ele>2387.57</ele>
        <time>2019-09-07T09:44:09Z</time>
      </trkpt>
      <trkpt lat="42.5948938541" lon="0.9001257084">
        <ele>2387.57</ele>
        <time>2019-09-07T09:44:25Z</time>
      </trkpt>
      <trkpt lat="42.5948680378" lon="0.9000741597">
        <ele>2385.17</ele>
        <time>2019-09-07T09:44:38Z</time>
      </trkpt>
      <trkpt lat="42.5948763359" lon="0.9000098705">
        <ele>2383.25</ele>
        <time>2019-09-07T09:44:49Z</time>
      </trkpt>
      <trkpt lat="42.5949004758" lon="0.8999618422">
        <ele>2381.32</ele>
        <time>2019-09-07T09:45:01Z</time>
      </trkpt>
      <trkpt lat="42.5949137192" lon="0.8999219444">
        <ele>2380.36</ele>
        <time>2019-09-07T09:45:12Z</time>
      </trkpt>
      <trkpt lat="42.5949267112" lon="0.8998262230">
        <ele>2379.40</ele>
        <time>2019-09-07T09:45:22Z</time>
      </trkpt>
      <trkpt lat="42.5949168205" lon="0.8997761831">
        <ele>2377.48</ele>
        <time>2019-09-07T09:45:30Z</time>
      </trkpt>
      <trkpt lat="42.5949513540" lon="0.8996810485">
        <ele>2375.07</ele>
        <time>2019-09-07T09:45:40Z</time>
      </trkpt>
      <trkpt lat="42.5949876476" lon="0.8996763546">
        <ele>2374.11</ele>
        <time>2019-09-07T09:45:44Z</time>
      </trkpt>
      <trkpt lat="42.5950821117" lon="0.8996387199">
        <ele>2372.19</ele>
        <time>2019-09-07T09:45:57Z</time>
      </trkpt>
      <trkpt lat="42.5951512624" lon="0.8996179327">
        <ele>2370.27</ele>
        <time>2019-09-07T09:46:09Z</time>
      </trkpt>
      <trkpt lat="42.5951871369" lon="0.8995340299">
        <ele>2367.86</ele>
        <time>2019-09-07T09:46:20Z</time>
      </trkpt>
      <trkpt lat="42.5952302199" lon="0.8994744346">
        <ele>2364.98</ele>
        <time>2019-09-07T09:46:30Z</time>
      </trkpt>
      <trkpt lat="42.5952722132" lon="0.8994160127">
        <ele>2364.02</ele>
        <time>2019-09-07T09:46:41Z</time>
      </trkpt>
      <trkpt lat="42.5953265280" lon="0.8993424196">
        <ele>2361.62</ele>
        <time>2019-09-07T09:46:51Z</time>
      </trkpt>
      <trkpt lat="42.5953655876" lon="0.8992590196">
        <ele>2359.69</ele>
        <time>2019-09-07T09:46:59Z</time>
      </trkpt>
      <trkpt lat="42.5954272784" lon="0.8991738595">
        <ele>2356.81</ele>
        <time>2019-09-07T09:47:11Z</time>
      </trkpt>
      <trkpt lat="42.5954566151" lon="0.8991703391">
        <ele>2355.37</ele>
        <time>2019-09-07T09:47:20Z</time>
      </trkpt>
      <trkpt lat="42.5954837725" lon="0.8990959078">
        <ele>2353.93</ele>
        <time>2019-09-07T09:47:33Z</time>
      </trkpt>
      <trkpt lat="42.5955240894" lon="0.8990473766">
        <ele>2352.00</ele>
        <time>2019-09-07T09:47:46Z</time>
      </trkpt>
      <trkpt lat="42.5955483969" lon="0.8989482187">
        <ele>2350.08</ele>
        <time>2019-09-07T09:47:57Z</time>
      </trkpt>
      <trkpt lat="42.5955587905" lon="0.8988631424">
        <ele>2348.64</ele>
        <time>2019-09-07T09:48:07Z</time>
      </trkpt>
      <trkpt lat="42.5955553539" lon="0.8988011163">
        <ele>2346.23</ele>
        <time>2019-09-07T09:48:18Z</time>
      </trkpt>
      <trkpt lat="42.5955947489" lon="0.8987902198">
        <ele>2343.83</ele>
        <time>2019-09-07T09:48:30Z</time>
      </trkpt>
      <trkpt lat="42.5956394244" lon="0.8987860288">
        <ele>2342.39</ele>
        <time>2019-09-07T09:48:41Z</time>
      </trkpt>
      <trkpt lat="42.5956457108" lon="0.8987517469">
        <ele>2341.91</ele>
        <time>2019-09-07T09:48:44Z</time>
      </trkpt>
      <trkpt lat="42.5957046356" lon="0.8986970969">
        <ele>2340.95</ele>
        <time>2019-09-07T09:48:51Z</time>
      </trkpt>
      <trkpt lat="42.5957457069" lon="0.8986289520">
        <ele>2339.99</ele>
        <time>2019-09-07T09:49:01Z</time>
      </trkpt>
      <trkpt lat="42.5957520772" lon="0.8986262698">
        <ele>2339.99</ele>
        <time>2019-09-07T09:49:02Z</time>
      </trkpt>
      <trkpt lat="42.5958002731" lon="0.8985845279">
        <ele>2338.54</ele>
        <time>2019-09-07T09:49:09Z</time>
      </trkpt>
      <trkpt lat="42.5958478823" lon="0.8984282892">
        <ele>2336.62</ele>
        <time>2019-09-07T09:49:21Z</time>
      </trkpt>
      <trkpt lat="42.5958610419" lon="0.8983517624">
        <ele>2335.18</ele>
        <time>2019-09-07T09:49:32Z</time>
      </trkpt>
      <trkpt lat="42.5958442781" lon="0.8982758224">
        <ele>2333.74</ele>
        <time>2019-09-07T09:49:43Z</time>
      </trkpt>
      <trkpt lat="42.5958379917" lon="0.8982538618">
        <ele>2333.26</ele>
        <time>2019-09-07T09:49:54Z</time>
      </trkpt>
      <trkpt lat="42.5958771352" lon="0.8981962781">
        <ele>2332.78</ele>
        <time>2019-09-07T09:50:03Z</time>
      </trkpt>
      <trkpt lat="42.5959166139" lon="0.8981324080">
        <ele>2332.78</ele>
        <time>2019-09-07T09:50:09Z</time>
      </trkpt>
      <trkpt lat="42.5959926378" lon="0.8980069309">
        <ele>2333.26</ele>
        <time>2019-09-07T09:50:20Z</time>
      </trkpt>
      <trkpt lat="42.5960129220" lon="0.8979778457">
        <ele>2332.78</ele>
        <time>2019-09-07T09:50:23Z</time>
      </trkpt>
      <trkpt lat="42.5960315298" lon="0.8979095332">
        <ele>2332.78</ele>
        <time>2019-09-07T09:50:28Z</time>
      </trkpt>
      <trkpt lat="42.5960691646" lon="0.8978984691">
        <ele>2332.78</ele>
        <time>2019-09-07T09:50:32Z</time>
      </trkpt>
      <trkpt lat="42.5961064640" lon="0.8978996426">
        <ele>2332.30</ele>
        <time>2019-09-07T09:50:36Z</time>
      </trkpt>
      <trkpt lat="42.5961604435" lon="0.8978287317">
        <ele>2332.30</ele>
        <time>2019-09-07T09:50:43Z</time>
      </trkpt>
      <trkpt lat="42.5962246489" lon="0.8976938669">
        <ele>2331.81</ele>
        <time>2019-09-07T09:50:55Z</time>
      </trkpt>
      <trkpt lat="42.5962559134" lon="0.8976155799">
        <ele>2331.33</ele>
        <time>2019-09-07T09:51:04Z</time>
      </trkpt>
      <trkpt lat="42.5962984096" lon="0.8975407295">
        <ele>2328.93</ele>
        <time>2019-09-07T09:51:15Z</time>
      </trkpt>
      <trkpt lat="42.5963237230" lon="0.8974548988">
        <ele>2327.49</ele>
        <time>2019-09-07T09:51:25Z</time>
      </trkpt>
      <trkpt lat="42.5963317696" lon="0.8974364586">
        <ele>2327.49</ele>
        <time>2019-09-07T09:51:27Z</time>
      </trkpt>
      <trkpt lat="42.5963479467" lon="0.8973693196">
        <ele>2326.53</ele>
        <time>2019-09-07T09:51:32Z</time>
      </trkpt>
      <trkpt lat="42.5963893533" lon="0.8972531464">
        <ele>2325.09</ele>
        <time>2019-09-07T09:51:44Z</time>
      </trkpt>
      <trkpt lat="42.5964033511" lon="0.8972331136">
        <ele>2324.61</ele>
        <time>2019-09-07T09:51:48Z</time>
      </trkpt>
      <trkpt lat="42.5964539777" lon="0.8971815649">
        <ele>2323.64</ele>
        <time>2019-09-07T09:51:58Z</time>
      </trkpt>
      <trkpt lat="42.5964576658" lon="0.8971462771">
        <ele>2322.20</ele>
        <time>2019-09-07T09:52:07Z</time>
      </trkpt>
      <trkpt lat="42.5965059455" lon="0.8970683254">
        <ele>2320.76</ele>
        <time>2019-09-07T09:52:17Z</time>
      </trkpt>
      <trkpt lat="42.5965232961" lon="0.8969725203">
        <ele>2318.84</ele>
        <time>2019-09-07T09:52:28Z</time>
      </trkpt>
      <trkpt lat="42.5965149980" lon="0.8969301078">
        <ele>2318.36</ele>
        <time>2019-09-07T09:52:39Z</time>
      </trkpt>
      <trkpt lat="42.5965341087" lon="0.8969191276">
        <ele>2317.40</ele>
        <time>2019-09-07T09:52:48Z</time>
      </trkpt>
      <trkpt lat="42.5965559017" lon="0.8968808223">
        <ele>2315.47</ele>
        <time>2019-09-07T09:52:59Z</time>
      </trkpt>
      <trkpt lat="42.5965905190" lon="0.8968580235">
        <ele>2314.51</ele>
        <time>2019-09-07T09:53:09Z</time>
      </trkpt>
      <trkpt lat="42.5966245495" lon="0.8968258370">
        <ele>2312.59</ele>
        <time>2019-09-07T09:53:23Z</time>
      </trkpt>
      <trkpt lat="42.5966186821" lon="0.8968060557">
        <ele>2312.11</ele>
        <time>2019-09-07T09:53:38Z</time>
      </trkpt>
      <trkpt lat="42.5966275670" lon="0.8967438620">
        <ele>2311.63</ele>
        <time>2019-09-07T09:53:48Z</time>
      </trkpt>
      <trkpt lat="42.5966424029" lon="0.8967194706">
        <ele>2310.19</ele>
        <time>2019-09-07T09:53:57Z</time>
      </trkpt>
      <trkpt lat="42.5966648664" lon="0.8967148606">
        <ele>2309.22</ele>
        <time>2019-09-07T09:54:06Z</time>
      </trkpt>
      <trkpt lat="42.5967170019" lon="0.8966728672">
        <ele>2308.74</ele>
        <time>2019-09-07T09:54:18Z</time>
      </trkpt>
      <trkpt lat="42.5967587437" lon="0.8966697659">
        <ele>2307.78</ele>
        <time>2019-09-07T09:54:26Z</time>
      </trkpt>
      <trkpt lat="42.5967919361" lon="0.8966357354">
        <ele>2308.74</ele>
        <time>2019-09-07T09:54:34Z</time>
      </trkpt>
      <trkpt lat="42.5968166627" lon="0.8965716977">
        <ele>2308.74</ele>
        <time>2019-09-07T09:54:45Z</time>
      </trkpt>
      <trkpt lat="42.5968459994" lon="0.8965396788">
        <ele>2307.78</ele>
        <time>2019-09-07T09:54:55Z</time>
      </trkpt>
      <trkpt lat="42.5968717318" lon="0.8965012897">
        <ele>2307.78</ele>
        <time>2019-09-07T09:55:04Z</time>
      </trkpt>
      <trkpt lat="42.5969159044" lon="0.8964856993">
        <ele>2308.26</ele>
        <time>2019-09-07T09:55:14Z</time>
      </trkpt>
      <trkpt lat="42.5969416369" lon="0.8964599669">
        <ele>2308.74</ele>
        <time>2019-09-07T09:55:25Z</time>
      </trkpt>
      <trkpt lat="42.5969408825" lon="0.8963888045">
        <ele>2306.34</ele>
        <time>2019-09-07T09:55:38Z</time>
      </trkpt>
      <trkpt lat="42.5969659444" lon="0.8963439614">
        <ele>2305.38</ele>
        <time>2019-09-07T09:55:49Z</time>
      </trkpt>
      <trkpt lat="42.5969604962" lon="0.8963239286">
        <ele>2302.98</ele>
        <time>2019-09-07T09:55:59Z</time>
      </trkpt>
      <trkpt lat="42.5969681237" lon="0.8962889761">
        <ele>2301.53</ele>
        <time>2019-09-07T09:56:08Z</time>
      </trkpt>
      <trkpt lat="42.5969846360" lon="0.8962276205">
        <ele>2300.09</ele>
        <time>2019-09-07T09:56:18Z</time>
      </trkpt>
      <trkpt lat="42.5970066804" lon="0.8961955179">
        <ele>2299.61</ele>
        <time>2019-09-07T09:56:30Z</time>
      </trkpt>
      <trkpt lat="42.5970037468" lon="0.8961448073">
        <ele>2297.69</ele>
        <time>2019-09-07T09:56:40Z</time>
      </trkpt>
      <trkpt lat="42.5969675370" lon="0.8961118665">
        <ele>2295.77</ele>
        <time>2019-09-07T09:56:50Z</time>
      </trkpt>
      <trkpt lat="42.5969536230" lon="0.8960769139">
        <ele>2294.32</ele>
        <time>2019-09-07T09:56:59Z</time>
      </trkpt>
      <trkpt lat="42.5969040859" lon="0.8961030655">
        <ele>2293.84</ele>
        <time>2019-09-07T09:57:08Z</time>
      </trkpt>
      <trkpt lat="42.5968993921" lon="0.8960790932">
        <ele>2293.36</ele>
        <time>2019-09-07T09:57:11Z</time>
      </trkpt>
      <trkpt lat="42.5969145633" lon="0.8960368484">
        <ele>2293.36</ele>
        <time>2019-09-07T09:57:14Z</time>
      </trkpt>
      <trkpt lat="42.5969304889" lon="0.8959847130">
        <ele>2293.36</ele>
        <time>2019-09-07T09:57:24Z</time>
      </trkpt>
      <trkpt lat="42.5969419722" lon="0.8959760796">
        <ele>2293.36</ele>
        <time>2019-09-07T09:57:36Z</time>
      </trkpt>
      <trkpt lat="42.5969038345" lon="0.8959725592">
        <ele>2292.40</ele>
        <time>2019-09-07T09:57:46Z</time>
      </trkpt>
      <trkpt lat="42.5969238672" lon="0.8959044982">
        <ele>2292.88</ele>
        <time>2019-09-07T09:57:56Z</time>
      </trkpt>
      <trkpt lat="42.5969348475" lon="0.8958939370">
        <ele>2293.36</ele>
        <time>2019-09-07T09:58:06Z</time>
      </trkpt>
      <trkpt lat="42.5969434809" lon="0.8958721440">
        <ele>2293.36</ele>
        <time>2019-09-07T09:58:26Z</time>
      </trkpt>
      <trkpt lat="42.5970027409" lon="0.8958146442">
        <ele>2292.40</ele>
        <time>2019-09-07T09:58:38Z</time>
      </trkpt>
      <trkpt lat="42.5970526971" lon="0.8958464954">
        <ele>2291.44</ele>
        <time>2019-09-07T09:58:50Z</time>
      </trkpt>
      <trkpt lat="42.5970893260" lon="0.8958896622">
        <ele>2290.48</ele>
        <time>2019-09-07T09:58:56Z</time>
      </trkpt>
      <trkpt lat="42.5971421320" lon="0.8958677016">
        <ele>2289.52</ele>
        <time>2019-09-07T09:59:07Z</time>
      </trkpt>
      <trkpt lat="42.5971328281" lon="0.8958608285">
        <ele>2289.52</ele>
        <time>2019-09-07T09:59:19Z</time>
      </trkpt>
      <trkpt lat="42.5971359294" lon="0.8958143089">
        <ele>2289.04</ele>
        <time>2019-09-07T09:59:28Z</time>
      </trkpt>
      <trkpt lat="42.5971238595" lon="0.8957310766">
        <ele>2287.59</ele>
        <time>2019-09-07T09:59:41Z</time>
      </trkpt>
      <trkpt lat="42.5971485022" lon="0.8956806175">
        <ele>2286.15</ele>
        <time>2019-09-07T09:59:54Z</time>
      </trkpt>
      <trkpt lat="42.5971887354" lon="0.8956879936">
        <ele>2285.67</ele>
        <time>2019-09-07T10:00:01Z</time>
      </trkpt>
      <trkpt lat="42.5972338300" lon="0.8956643566">
        <ele>2284.23</ele>
        <time>2019-09-07T10:00:10Z</time>
      </trkpt>
      <trkpt lat="42.5972902402" lon="0.8956717327">
        <ele>2284.23</ele>
        <time>2019-09-07T10:00:21Z</time>
      </trkpt>
      <trkpt lat="42.5973095186" lon="0.8956542984">
        <ele>2284.23</ele>
        <time>2019-09-07T10:00:32Z</time>
      </trkpt>
      <trkpt lat="42.5973180681" lon="0.8956472576">
        <ele>2283.75</ele>
        <time>2019-09-07T10:00:43Z</time>
      </trkpt>
      <trkpt lat="42.5973350834" lon="0.8956040908">
        <ele>2282.31</ele>
        <time>2019-09-07T10:00:55Z</time>
      </trkpt>
      <trkpt lat="42.5973771606" lon="0.8955747541">
        <ele>2281.83</ele>
        <time>2019-09-07T10:01:05Z</time>
      </trkpt>
      <trkpt lat="42.5974075031" lon="0.8955684677">
        <ele>2282.79</ele>
        <time>2019-09-07T10:01:17Z</time>
      </trkpt>
      <trkpt lat="42.5974065810" lon="0.8955734130">
        <ele>2282.79</ele>
        <time>2019-09-07T10:01:25Z</time>
      </trkpt>
      <trkpt lat="42.5974270329" lon="0.8955605049">
        <ele>2281.83</ele>
        <time>2019-09-07T10:01:37Z</time>
      </trkpt>
      <trkpt lat="42.5974393543" lon="0.8955153264">
        <ele>2282.79</ele>
        <time>2019-09-07T10:01:54Z</time>
      </trkpt>
      <trkpt lat="42.5974351633" lon="0.8954729978">
        <ele>2282.79</ele>
        <time>2019-09-07T10:02:06Z</time>
      </trkpt>
      <trkpt lat="42.5974055752" lon="0.8954765182">
        <ele>2282.79</ele>
        <time>2019-09-07T10:02:20Z</time>
      </trkpt>
      <trkpt lat="42.5973768253" lon="0.8954289928">
        <ele>2282.79</ele>
        <time>2019-09-07T10:02:38Z</time>
      </trkpt>
      <trkpt lat="42.5973734725" lon="0.8953976445">
        <ele>2277.02</ele>
        <time>2019-09-07T10:02:46Z</time>
      </trkpt>
      <trkpt lat="42.5973682757" lon="0.8953942917">
        <ele>2277.02</ele>
        <time>2019-09-07T10:02:47Z</time>
      </trkpt>
      <trkpt lat="42.5972878095" lon="0.8953469340">
        <ele>2276.06</ele>
        <time>2019-09-07T10:02:59Z</time>
      </trkpt>
      <trkpt lat="42.5972794276" lon="0.8953186031">
        <ele>2274.62</ele>
        <time>2019-09-07T10:03:10Z</time>
      </trkpt>
      <trkpt lat="42.5973043218" lon="0.8952785376">
        <ele>2273.17</ele>
        <time>2019-09-07T10:03:21Z</time>
      </trkpt>
      <trkpt lat="42.5973202474" lon="0.8952450939">
        <ele>2270.77</ele>
        <time>2019-09-07T10:03:31Z</time>
      </trkpt>
      <trkpt lat="42.5973199960" lon="0.8952429146">
        <ele>2270.77</ele>
        <time>2019-09-07T10:03:32Z</time>
      </trkpt>
      <trkpt lat="42.5973138772" lon="0.8952043578">
        <ele>2269.33</ele>
        <time>2019-09-07T10:03:44Z</time>
      </trkpt>
      <trkpt lat="42.5973059982" lon="0.8951625321">
        <ele>2268.85</ele>
        <time>2019-09-07T10:03:53Z</time>
      </trkpt>
      <trkpt lat="42.5973079260" lon="0.8951423317">
        <ele>2267.89</ele>
        <time>2019-09-07T10:04:03Z</time>
      </trkpt>
      <trkpt lat="42.5973256119" lon="0.8951146714">
        <ele>2266.45</ele>
        <time>2019-09-07T10:04:15Z</time>
      </trkpt>
      <trkpt lat="42.5973320659" lon="0.8950971533">
        <ele>2265.48</ele>
        <time>2019-09-07T10:04:28Z</time>
      </trkpt>
      <trkpt lat="42.5973473210" lon="0.8950705826">
        <ele>2264.52</ele>
        <time>2019-09-07T10:04:42Z</time>
      </trkpt>
      <trkpt lat="42.5973469857" lon="0.8950554952">
        <ele>2263.08</ele>
        <time>2019-09-07T10:04:55Z</time>
      </trkpt>
      <trkpt lat="42.5973468181" lon="0.8950143401">
        <ele>2262.12</ele>
        <time>2019-09-07T10:05:06Z</time>
      </trkpt>
      <trkpt lat="42.5973567925" lon="0.8949508052">
        <ele>2260.68</ele>
        <time>2019-09-07T10:05:16Z</time>
      </trkpt>
      <trkpt lat="42.5973498356" lon="0.8949140925">
        <ele>2260.20</ele>
        <time>2019-09-07T10:05:27Z</time>
      </trkpt>
      <trkpt lat="42.5973850396" lon="0.8948778827">
        <ele>2258.75</ele>
        <time>2019-09-07T10:05:41Z</time>
      </trkpt>
      <trkpt lat="42.5974075869" lon="0.8948034514">
        <ele>2256.83</ele>
        <time>2019-09-07T10:05:55Z</time>
      </trkpt>
      <trkpt lat="42.5974439643" lon="0.8947290201">
        <ele>2255.39</ele>
        <time>2019-09-07T10:06:05Z</time>
      </trkpt>
      <trkpt lat="42.5974799227" lon="0.8946690895">
        <ele>2252.99</ele>
        <time>2019-09-07T10:06:16Z</time>
      </trkpt>
      <trkpt lat="42.5975010451" lon="0.8946055546">
        <ele>2251.06</ele>
        <time>2019-09-07T10:06:26Z</time>
      </trkpt>
      <trkpt lat="42.5974942558" lon="0.8945695125">
        <ele>2249.62</ele>
        <time>2019-09-07T10:06:38Z</time>
      </trkpt>
      <trkpt lat="42.5975216646" lon="0.8945143595">
        <ele>2247.70</ele>
        <time>2019-09-07T10:06:46Z</time>
      </trkpt>
      <trkpt lat="42.5975575391" lon="0.8944919799">
        <ele>2247.22</ele>
        <time>2019-09-07T10:06:51Z</time>
      </trkpt>
      <trkpt lat="42.5976396818" lon="0.8944609668">
        <ele>2245.30</ele>
        <time>2019-09-07T10:07:03Z</time>
      </trkpt>
      <trkpt lat="42.5976947509" lon="0.8944653254">
        <ele>2244.82</ele>
        <time>2019-09-07T10:07:14Z</time>
      </trkpt>
      <trkpt lat="42.5977341458" lon="0.8944296185">
        <ele>2244.82</ele>
        <time>2019-09-07T10:07:23Z</time>
      </trkpt>
      <trkpt lat="42.5977384206" lon="0.8943532594">
        <ele>2243.37</ele>
        <time>2019-09-07T10:07:33Z</time>
      </trkpt>
      <trkpt lat="42.5977562740" lon="0.8942259382">
        <ele>2241.93</ele>
        <time>2019-09-07T10:07:43Z</time>
      </trkpt>
      <trkpt lat="42.5977691822" lon="0.8942007087">
        <ele>2241.45</ele>
        <time>2019-09-07T10:07:46Z</time>
      </trkpt>
      <trkpt lat="42.5978166237" lon="0.8942012955">
        <ele>2240.97</ele>
        <time>2019-09-07T10:07:52Z</time>
      </trkpt>
      <trkpt lat="42.5978633109" lon="0.8941178117">
        <ele>2240.01</ele>
        <time>2019-09-07T10:08:03Z</time>
      </trkpt>
      <trkpt lat="42.5979197212" lon="0.8941407781">
        <ele>2240.01</ele>
        <time>2019-09-07T10:08:13Z</time>
      </trkpt>
      <trkpt lat="42.5979816634" lon="0.8941366710">
        <ele>2239.05</ele>
        <time>2019-09-07T10:08:22Z</time>
      </trkpt>
      <trkpt lat="42.5979919732" lon="0.8941134531">
        <ele>2239.05</ele>
        <time>2019-09-07T10:08:24Z</time>
      </trkpt>
      <trkpt lat="42.5980649795" lon="0.8940321486">
        <ele>2238.09</ele>
        <time>2019-09-07T10:08:34Z</time>
      </trkpt>
      <trkpt lat="42.5981086493" lon="0.8939785045">
        <ele>2236.16</ele>
        <time>2019-09-07T10:08:45Z</time>
      </trkpt>
      <trkpt lat="42.5981451105" lon="0.8939954359">
        <ele>2236.16</ele>
        <time>2019-09-07T10:08:56Z</time>
      </trkpt>
      <trkpt lat="42.5981977489" lon="0.8939605672">
        <ele>2237.13</ele>
        <time>2019-09-07T10:09:07Z</time>
      </trkpt>
      <trkpt lat="42.5982332882" lon="0.8939030673">
        <ele>2237.61</ele>
        <time>2019-09-07T10:09:17Z</time>
      </trkpt>
      <trkpt lat="42.5982742757" lon="0.8938441426">
        <ele>2237.61</ele>
        <time>2019-09-07T10:09:27Z</time>
      </trkpt>
      <trkpt lat="42.5983015168" lon="0.8937922586">
        <ele>2237.13</ele>
        <time>2019-09-07T10:09:40Z</time>
      </trkpt>
      <trkpt lat="42.5983389001" lon="0.8937083557">
        <ele>2236.16</ele>
        <time>2019-09-07T10:09:49Z</time>
      </trkpt>
      <trkpt lat="42.5983808935" lon="0.8936566394">
        <ele>2236.16</ele>
        <time>2019-09-07T10:09:58Z</time>
      </trkpt>
      <trkpt lat="42.5984188635" lon="0.8936340082">
        <ele>2236.16</ele>
        <time>2019-09-07T10:10:09Z</time>
      </trkpt>
      <trkpt lat="42.5984470267" lon="0.8936026599">
        <ele>2234.72</ele>
        <time>2019-09-07T10:10:17Z</time>
      </trkpt>
      <trkpt lat="42.5984898582" lon="0.8936018217">
        <ele>2234.24</ele>
        <time>2019-09-07T10:10:33Z</time>
      </trkpt>
      <trkpt lat="42.5985530578" lon="0.8936004806">
        <ele>2234.24</ele>
        <time>2019-09-07T10:10:43Z</time>
      </trkpt>
      <trkpt lat="42.5986042712" lon="0.8935343474">
        <ele>2234.24</ele>
        <time>2019-09-07T10:10:54Z</time>
      </trkpt>
      <trkpt lat="42.5985953026" lon="0.8934776857">
        <ele>2232.80</ele>
        <time>2019-09-07T10:11:04Z</time>
      </trkpt>
      <trkpt lat="42.5986128207" lon="0.8933916036">
        <ele>2231.84</ele>
        <time>2019-09-07T10:11:14Z</time>
      </trkpt>
      <trkpt lat="42.5986191072" lon="0.8933598362">
        <ele>2229.92</ele>
        <time>2019-09-07T10:11:23Z</time>
      </trkpt>
      <trkpt lat="42.5986273214" lon="0.8933491074">
        <ele>2229.43</ele>
        <time>2019-09-07T10:11:26Z</time>
      </trkpt>
      <trkpt lat="42.5986790378" lon="0.8932913560">
        <ele>2227.99</ele>
        <time>2019-09-07T10:11:37Z</time>
      </trkpt>
      <trkpt lat="42.5987123977" lon="0.8932292461">
        <ele>2227.51</ele>
        <time>2019-09-07T10:11:47Z</time>
      </trkpt>
      <trkpt lat="42.5987175107" lon="0.8932149131">
        <ele>2227.51</ele>
        <time>2019-09-07T10:11:48Z</time>
      </trkpt>
      <trkpt lat="42.5987408962" lon="0.8931767754">
        <ele>2227.03</ele>
        <time>2019-09-07T10:11:58Z</time>
      </trkpt>
      <trkpt lat="42.5987621862" lon="0.8931429964">
        <ele>2226.55</ele>
        <time>2019-09-07T10:12:07Z</time>
      </trkpt>
      <trkpt lat="42.5987626892" lon="0.8931301720">
        <ele>2226.07</ele>
        <time>2019-09-07T10:12:18Z</time>
      </trkpt>
      <trkpt lat="42.5987838954" lon="0.8930740133">
        <ele>2225.11</ele>
        <time>2019-09-07T10:12:28Z</time>
      </trkpt>
      <trkpt lat="42.5988004915" lon="0.8930321876">
        <ele>2225.59</ele>
        <time>2019-09-07T10:12:37Z</time>
      </trkpt>
      <trkpt lat="42.5988058560" lon="0.8929940499">
        <ele>2225.11</ele>
        <time>2019-09-07T10:12:46Z</time>
      </trkpt>
      <trkpt lat="42.5988101307" lon="0.8929498773">
        <ele>2224.63</ele>
        <time>2019-09-07T10:12:56Z</time>
      </trkpt>
      <trkpt lat="42.5988009945" lon="0.8928889409">
        <ele>2223.67</ele>
        <time>2019-09-07T10:13:03Z</time>
      </trkpt>
      <trkpt lat="42.5988214463" lon="0.8927771263">
        <ele>2221.74</ele>
        <time>2019-09-07T10:13:14Z</time>
      </trkpt>
      <trkpt lat="42.5988250505" lon="0.8927518968">
        <ele>2220.78</ele>
        <time>2019-09-07T10:13:22Z</time>
      </trkpt>
      <trkpt lat="42.5988305826" lon="0.8927058801">
        <ele>2218.86</ele>
        <time>2019-09-07T10:13:32Z</time>
      </trkpt>
      <trkpt lat="42.5988299958" lon="0.8926824946">
        <ele>2218.38</ele>
        <time>2019-09-07T10:13:42Z</time>
      </trkpt>
      <trkpt lat="42.5988457538" lon="0.8925933950">
        <ele>2215.98</ele>
        <time>2019-09-07T10:13:55Z</time>
      </trkpt>
      <trkpt lat="42.5988508668" lon="0.8925324585">
        <ele>2214.53</ele>
        <time>2019-09-07T10:14:01Z</time>
      </trkpt>
      <trkpt lat="42.5988746714" lon="0.8925018646">
        <ele>2214.05</ele>
        <time>2019-09-07T10:14:04Z</time>
      </trkpt>
      <trkpt lat="42.5989230350" lon="0.8923998568">
        <ele>2213.09</ele>
        <time>2019-09-07T10:14:15Z</time>
      </trkpt>
      <trkpt lat="42.5989320874" lon="0.8923639823">
        <ele>2212.61</ele>
        <time>2019-09-07T10:14:24Z</time>
      </trkpt>
      <trkpt lat="42.5989755895" lon="0.8923031297">
        <ele>2212.61</ele>
        <time>2019-09-07T10:14:33Z</time>
      </trkpt>
      <trkpt lat="42.5989777688" lon="0.8922428638">
        <ele>2211.17</ele>
        <time>2019-09-07T10:14:44Z</time>
      </trkpt>
      <trkpt lat="42.5989780203" lon="0.8922026306">
        <ele>2211.17</ele>
        <time>2019-09-07T10:14:54Z</time>
      </trkpt>
      <trkpt lat="42.5989619270" lon="0.8921442088">
        <ele>2209.25</ele>
        <time>2019-09-07T10:15:04Z</time>
      </trkpt>
      <trkpt lat="42.5989971310" lon="0.8920634910">
        <ele>2207.81</ele>
        <time>2019-09-07T10:15:14Z</time>
      </trkpt>
      <trkpt lat="42.5990009867" lon="0.8920493256">
        <ele>2207.81</ele>
        <time>2019-09-07T10:15:15Z</time>
      </trkpt>
      <trkpt lat="42.5990768429" lon="0.8919686079">
        <ele>2207.81</ele>
        <time>2019-09-07T10:15:24Z</time>
      </trkpt>
      <trkpt lat="42.5991549622" lon="0.8918815199">
        <ele>2208.77</ele>
        <time>2019-09-07T10:15:36Z</time>
      </trkpt>
      <trkpt lat="42.5991776772" lon="0.8918717131">
        <ele>2208.77</ele>
        <time>2019-09-07T10:15:39Z</time>
      </trkpt>
      <trkpt lat="42.5992434751" lon="0.8917862177">
        <ele>2208.77</ele>
        <time>2019-09-07T10:15:51Z</time>
      </trkpt>
      <trkpt lat="42.5992536172" lon="0.8917791769">
        <ele>2209.25</ele>
        <time>2019-09-07T10:15:53Z</time>
      </trkpt>
      <trkpt lat="42.5993501768" lon="0.8916521072">
        <ele>2208.77</ele>
        <time>2019-09-07T10:16:05Z</time>
      </trkpt>
      <trkpt lat="42.5994697865" lon="0.8915973734">
        <ele>2208.29</ele>
        <time>2019-09-07T10:16:16Z</time>
      </trkpt>
      <trkpt lat="42.5995809305" lon="0.8916556276">
        <ele>2209.73</ele>
        <time>2019-09-07T10:16:28Z</time>
      </trkpt>
      <trkpt lat="42.5996749755" lon="0.8916612435">
        <ele>2208.29</ele>
        <time>2019-09-07T10:16:40Z</time>
      </trkpt>
      <trkpt lat="42.5996853691" lon="0.8916454017">
        <ele>2207.32</ele>
        <time>2019-09-07T10:16:42Z</time>
      </trkpt>
      <trkpt lat="42.5997835211" lon="0.8915421367">
        <ele>2203.96</ele>
        <time>2019-09-07T10:16:53Z</time>
      </trkpt>
      <trkpt lat="42.5999114290" lon="0.8914391231">
        <ele>2203.00</ele>
        <time>2019-09-07T10:17:05Z</time>
      </trkpt>
      <trkpt lat="42.5999509916" lon="0.8914259635">
        <ele>2203.00</ele>
        <time>2019-09-07T10:17:08Z</time>
      </trkpt>
      <trkpt lat="42.6001235750" lon="0.8913876582">
        <ele>2202.52</ele>
        <time>2019-09-07T10:17:20Z</time>
      </trkpt>
      <trkpt lat="42.6001433562" lon="0.8913734090">
        <ele>2202.52</ele>
        <time>2019-09-07T10:17:22Z</time>
      </trkpt>
      <trkpt lat="42.6002109144" lon="0.8913701400">
        <ele>2202.04</ele>
        <time>2019-09-07T10:17:28Z</time>
      </trkpt>
      <trkpt lat="42.6002868544" lon="0.8913288172">
        <ele>2201.56</ele>
        <time>2019-09-07T10:17:37Z</time>
      </trkpt>
      <trkpt lat="42.6004079729" lon="0.8912147395">
        <ele>2201.08</ele>
        <time>2019-09-07T10:17:49Z</time>
      </trkpt>
      <trkpt lat="42.6004194561" lon="0.8911633585">
        <ele>2200.59</ele>
        <time>2019-09-07T10:17:53Z</time>
      </trkpt>
      <trkpt lat="42.6004378963" lon="0.8911398891">
        <ele>2200.59</ele>
        <time>2019-09-07T10:17:55Z</time>
      </trkpt>
      <trkpt lat="42.6004893612" lon="0.8910476044">
        <ele>2200.11</ele>
        <time>2019-09-07T10:18:04Z</time>
      </trkpt>
      <trkpt lat="42.6005321927" lon="0.8910087962">
        <ele>2199.63</ele>
        <time>2019-09-07T10:18:10Z</time>
      </trkpt>
      <trkpt lat="42.6005589310" lon="0.8909733407">
        <ele>2199.15</ele>
        <time>2019-09-07T10:18:14Z</time>
      </trkpt>
      <trkpt lat="42.6006312668" lon="0.8908983227">
        <ele>2198.19</ele>
        <time>2019-09-07T10:18:22Z</time>
      </trkpt>
      <trkpt lat="42.6006683148" lon="0.8908367995">
        <ele>2197.23</ele>
        <time>2019-09-07T10:18:29Z</time>
      </trkpt>
      <trkpt lat="42.6006809715" lon="0.8908129111">
        <ele>2197.23</ele>
        <time>2019-09-07T10:18:31Z</time>
      </trkpt>
      <trkpt lat="42.6007548999" lon="0.8907438442">
        <ele>2195.79</ele>
        <time>2019-09-07T10:18:43Z</time>
      </trkpt>
      <trkpt lat="42.6007549837" lon="0.8907083888">
        <ele>2194.83</ele>
        <time>2019-09-07T10:18:49Z</time>
      </trkpt>
      <trkpt lat="42.6007650420" lon="0.8906500507">
        <ele>2194.35</ele>
        <time>2019-09-07T10:18:54Z</time>
      </trkpt>
      <trkpt lat="42.6007936243" lon="0.8905946463">
        <ele>2193.39</ele>
        <time>2019-09-07T10:19:00Z</time>
      </trkpt>
      <trkpt lat="42.6009024214" lon="0.8904798981">
        <ele>2193.39</ele>
        <time>2019-09-07T10:19:11Z</time>
      </trkpt>
      <trkpt lat="42.6009191014" lon="0.8903563488">
        <ele>2193.39</ele>
        <time>2019-09-07T10:19:18Z</time>
      </trkpt>
      <trkpt lat="42.6009393856" lon="0.8901735395">
        <ele>2192.42</ele>
        <time>2019-09-07T10:19:28Z</time>
      </trkpt>
      <trkpt lat="42.6009524614" lon="0.8900226653">
        <ele>2191.46</ele>
        <time>2019-09-07T10:19:36Z</time>
      </trkpt>
      <trkpt lat="42.6009721588" lon="0.8899190649">
        <ele>2191.46</ele>
        <time>2019-09-07T10:19:42Z</time>
      </trkpt>
      <trkpt lat="42.6010205224" lon="0.8898469806">
        <ele>2191.46</ele>
        <time>2019-09-07T10:19:51Z</time>
      </trkpt>
      <trkpt lat="42.6010497753" lon="0.8898298815">
        <ele>2190.98</ele>
        <time>2019-09-07T10:19:57Z</time>
      </trkpt>
      <trkpt lat="42.6010496076" lon="0.8898006286">
        <ele>2190.98</ele>
        <time>2019-09-07T10:19:59Z</time>
      </trkpt>
      <trkpt lat="42.6011284813" lon="0.8896537777">
        <ele>2191.94</ele>
        <time>2019-09-07T10:20:10Z</time>
      </trkpt>
      <trkpt lat="42.6011600811" lon="0.8895746525">
        <ele>2192.42</ele>
        <time>2019-09-07T10:20:16Z</time>
      </trkpt>
      <trkpt lat="42.6012342609" lon="0.8894545399">
        <ele>2194.35</ele>
        <time>2019-09-07T10:20:27Z</time>
      </trkpt>
      <trkpt lat="42.6012837980" lon="0.8894160669">
        <ele>2195.31</ele>
        <time>2019-09-07T10:20:33Z</time>
      </trkpt>
      <trkpt lat="42.6012951136" lon="0.8893954474">
        <ele>2195.79</ele>
        <time>2019-09-07T10:20:35Z</time>
      </trkpt>
      <trkpt lat="42.6014166512" lon="0.8893152326">
        <ele>2197.71</ele>
        <time>2019-09-07T10:20:48Z</time>
      </trkpt>
      <trkpt lat="42.6014925074" lon="0.8892810345">
        <ele>2198.67</ele>
        <time>2019-09-07T10:20:58Z</time>
      </trkpt>
      <trkpt lat="42.6015012246" lon="0.8892829623">
        <ele>2199.15</ele>
        <time>2019-09-07T10:21:08Z</time>
      </trkpt>
      <trkpt lat="42.6015079301" lon="0.8892905060">
        <ele>2199.63</ele>
        <time>2019-09-07T10:21:20Z</time>
      </trkpt>
      <trkpt lat="42.6015144680" lon="0.8892833814">
        <ele>2199.63</ele>
        <time>2019-09-07T10:21:33Z</time>
      </trkpt>
      <trkpt lat="42.6015329082" lon="0.8892873209">
        <ele>2199.63</ele>
        <time>2019-09-07T10:21:48Z</time>
      </trkpt>
      <trkpt lat="42.6015671901" lon="0.8892862312">
        <ele>2198.67</ele>
        <time>2019-09-07T10:21:58Z</time>
      </trkpt>
      <trkpt lat="42.6016199961" lon="0.8892734069">
        <ele>2198.19</ele>
        <time>2019-09-07T10:22:08Z</time>
      </trkpt>
      <trkpt lat="42.6016332395" lon="0.8892356046">
        <ele>2197.23</ele>
        <time>2019-09-07T10:22:17Z</time>
      </trkpt>
      <trkpt lat="42.6016258635" lon="0.8891694713">
        <ele>2194.83</ele>
        <time>2019-09-07T10:22:28Z</time>
      </trkpt>
      <trkpt lat="42.6016421244" lon="0.8891325071">
        <ele>2193.87</ele>
        <time>2019-09-07T10:22:31Z</time>
      </trkpt>
      <trkpt lat="42.6016728021" lon="0.8891135640">
        <ele>2193.39</ele>
        <time>2019-09-07T10:22:34Z</time>
      </trkpt>
      <trkpt lat="42.6017057430" lon="0.8890623506">
        <ele>2192.42</ele>
        <time>2019-09-07T10:22:38Z</time>
      </trkpt>
      <trkpt lat="42.6017190702" lon="0.8890314214">
        <ele>2192.42</ele>
        <time>2019-09-07T10:22:40Z</time>
      </trkpt>
      <trkpt lat="42.6018458884" lon="0.8890016656">
        <ele>2192.42</ele>
        <time>2019-09-07T10:22:51Z</time>
      </trkpt>
      <trkpt lat="42.6018682681" lon="0.8890028391">
        <ele>2192.42</ele>
        <time>2019-09-07T10:22:53Z</time>
      </trkpt>
      <trkpt lat="42.6019839384" lon="0.8889530506">
        <ele>2192.42</ele>
        <time>2019-09-07T10:23:05Z</time>
      </trkpt>
      <trkpt lat="42.6019889675" lon="0.8889465965">
        <ele>2191.94</ele>
        <time>2019-09-07T10:23:07Z</time>
      </trkpt>
      <trkpt lat="42.6020802464" lon="0.8888336085">
        <ele>2191.46</ele>
        <time>2019-09-07T10:23:19Z</time>
      </trkpt>
      <trkpt lat="42.6020952500" lon="0.8887826465">
        <ele>2192.42</ele>
        <time>2019-09-07T10:23:25Z</time>
      </trkpt>
      <trkpt lat="42.6021302026" lon="0.8886668924">
        <ele>2192.42</ele>
        <time>2019-09-07T10:23:34Z</time>
      </trkpt>
      <trkpt lat="42.6021712739" lon="0.8886228036">
        <ele>2193.39</ele>
        <time>2019-09-07T10:23:42Z</time>
      </trkpt>
      <trkpt lat="42.6021754649" lon="0.8885855041">
        <ele>2193.39</ele>
        <time>2019-09-07T10:23:49Z</time>
      </trkpt>
      <trkpt lat="42.6021856908" lon="0.8884987514">
        <ele>2192.42</ele>
        <time>2019-09-07T10:24:00Z</time>
      </trkpt>
      <trkpt lat="42.6021951623" lon="0.8884772938">
        <ele>2191.94</ele>
        <time>2019-09-07T10:24:02Z</time>
      </trkpt>
      <trkpt lat="42.6021778118" lon="0.8883873560">
        <ele>2190.98</ele>
        <time>2019-09-07T10:24:09Z</time>
      </trkpt>
      <trkpt lat="42.6021852717" lon="0.8883605339">
        <ele>2190.98</ele>
        <time>2019-09-07T10:24:11Z</time>
      </trkpt>
      <trkpt lat="42.6022533327" lon="0.8883353882">
        <ele>2191.46</ele>
        <time>2019-09-07T10:24:19Z</time>
      </trkpt>
      <trkpt lat="42.6023457851" lon="0.8882787265">
        <ele>2192.42</ele>
        <time>2019-09-07T10:24:29Z</time>
      </trkpt>
      <trkpt lat="42.6023567654" lon="0.8882752899">
        <ele>2192.42</ele>
        <time>2019-09-07T10:24:30Z</time>
      </trkpt>
      <trkpt lat="42.6023725234" lon="0.8882607892">
        <ele>2192.90</ele>
        <time>2019-09-07T10:24:32Z</time>
      </trkpt>
      <trkpt lat="42.6023642253" lon="0.8881716896">
        <ele>2192.90</ele>
        <time>2019-09-07T10:24:37Z</time>
      </trkpt>
      <trkpt lat="42.6024097390" lon="0.8880963363">
        <ele>2192.90</ele>
        <time>2019-09-07T10:24:42Z</time>
      </trkpt>
      <trkpt lat="42.6025082264" lon="0.8879304584">
        <ele>2193.39</ele>
        <time>2019-09-07T10:24:54Z</time>
      </trkpt>
      <trkpt lat="42.6025959011" lon="0.8878301270">
        <ele>2193.39</ele>
        <time>2019-09-07T10:25:02Z</time>
      </trkpt>
      <trkpt lat="42.6027133316" lon="0.8876857907">
        <ele>2193.39</ele>
        <time>2019-09-07T10:25:14Z</time>
      </trkpt>
      <trkpt lat="42.6027372200" lon="0.8876689430">
        <ele>2193.39</ele>
        <time>2019-09-07T10:25:16Z</time>
      </trkpt>
      <trkpt lat="42.6028263196" lon="0.8875472378">
        <ele>2193.39</ele>
        <time>2019-09-07T10:25:28Z</time>
      </trkpt>
      <trkpt lat="42.6028330252" lon="0.8875391074">
        <ele>2193.87</ele>
        <time>2019-09-07T10:25:29Z</time>
      </trkpt>
      <trkpt lat="42.6028862502" lon="0.8874257840">
        <ele>2195.31</ele>
        <time>2019-09-07T10:25:41Z</time>
      </trkpt>
      <trkpt lat="42.6029114798" lon="0.8873135503">
        <ele>2196.75</ele>
        <time>2019-09-07T10:25:51Z</time>
      </trkpt>
      <trkpt lat="42.6029144134" lon="0.8872994687">
        <ele>2197.23</ele>
        <time>2019-09-07T10:25:52Z</time>
      </trkpt>
      <trkpt lat="42.6029051933" lon="0.8871987183">
        <ele>2197.71</ele>
        <time>2019-09-07T10:25:59Z</time>
      </trkpt>
      <trkpt lat="42.6028946321" lon="0.8871051762">
        <ele>2198.67</ele>
        <time>2019-09-07T10:26:09Z</time>
      </trkpt>
      <trkpt lat="42.6028980687" lon="0.8869665395">
        <ele>2198.67</ele>
        <time>2019-09-07T10:26:18Z</time>
      </trkpt>
      <trkpt lat="42.6028661337" lon="0.8868463431">
        <ele>2197.23</ele>
        <time>2019-09-07T10:26:27Z</time>
      </trkpt>
      <trkpt lat="42.6028652117" lon="0.8868232928">
        <ele>2197.23</ele>
        <time>2019-09-07T10:26:29Z</time>
      </trkpt>
      <trkpt lat="42.6028679777" lon="0.8867787849">
        <ele>2196.75</ele>
        <time>2019-09-07T10:26:32Z</time>
      </trkpt>
      <trkpt lat="42.6028825622" lon="0.8866047766">
        <ele>2195.79</ele>
        <time>2019-09-07T10:26:43Z</time>
      </trkpt>
      <trkpt lat="42.6028855797" lon="0.8865288366">
        <ele>2194.83</ele>
        <time>2019-09-07T10:26:48Z</time>
      </trkpt>
      <trkpt lat="42.6028701570" lon="0.8864239790">
        <ele>2194.83</ele>
        <time>2019-09-07T10:26:58Z</time>
      </trkpt>
      <trkpt lat="42.6028652955" lon="0.8863923792">
        <ele>2195.79</ele>
        <time>2019-09-07T10:27:07Z</time>
      </trkpt>
      <trkpt lat="42.6028663851" lon="0.8863934688">
        <ele>2195.79</ele>
        <time>2019-09-07T10:27:30Z</time>
      </trkpt>
      <trkpt lat="42.6028634515" lon="0.8863848355">
        <ele>2195.79</ele>
        <time>2019-09-07T10:27:43Z</time>
      </trkpt>
      <trkpt lat="42.6028880943" lon="0.8863504697">
        <ele>2195.31</ele>
        <time>2019-09-07T10:28:04Z</time>
      </trkpt>
      <trkpt lat="42.6029447559" lon="0.8862908743">
        <ele>2195.31</ele>
        <time>2019-09-07T10:28:08Z</time>
      </trkpt>
      <trkpt lat="42.6029425766" lon="0.8861477952">
        <ele>2194.83</ele>
        <time>2019-09-07T10:28:22Z</time>
      </trkpt>
      <trkpt lat="42.6030027587" lon="0.8860808238">
        <ele>2191.94</ele>
        <time>2019-09-07T10:28:34Z</time>
      </trkpt>
      <trkpt lat="42.6030854881" lon="0.8860045485">
        <ele>2189.54</ele>
        <time>2019-09-07T10:28:46Z</time>
      </trkpt>
      <trkpt lat="42.6030987315" lon="0.8859567717">
        <ele>2188.58</ele>
        <time>2019-09-07T10:28:52Z</time>
      </trkpt>
      <trkpt lat="42.6030957978" lon="0.8858972602">
        <ele>2188.10</ele>
        <time>2019-09-07T10:29:00Z</time>
      </trkpt>
      <trkpt lat="42.6030956302" lon="0.8858766407">
        <ele>2188.10</ele>
        <time>2019-09-07T10:29:02Z</time>
      </trkpt>
      <trkpt lat="42.6030971389" lon="0.8857893012">
        <ele>2187.62</ele>
        <time>2019-09-07T10:29:12Z</time>
      </trkpt>
      <trkpt lat="42.6031174231" lon="0.8857272752">
        <ele>2186.18</ele>
        <time>2019-09-07T10:29:22Z</time>
      </trkpt>
      <trkpt lat="42.6031248830" lon="0.8857084997">
        <ele>2186.18</ele>
        <time>2019-09-07T10:29:24Z</time>
      </trkpt>
      <trkpt lat="42.6031558961" lon="0.8856323920">
        <ele>2184.25</ele>
        <time>2019-09-07T10:29:33Z</time>
      </trkpt>
      <trkpt lat="42.6031551417" lon="0.8856250159">
        <ele>2184.25</ele>
        <time>2019-09-07T10:29:34Z</time>
      </trkpt>
      <trkpt lat="42.6031312533" lon="0.8854780812">
        <ele>2183.29</ele>
        <time>2019-09-07T10:29:46Z</time>
      </trkpt>
      <trkpt lat="42.6030978095" lon="0.8853597287">
        <ele>2182.33</ele>
        <time>2019-09-07T10:29:57Z</time>
      </trkpt>
      <trkpt lat="42.6030680537" lon="0.8852402866">
        <ele>2180.41</ele>
        <time>2019-09-07T10:30:08Z</time>
      </trkpt>
      <trkpt lat="42.6030459255" lon="0.8851915039">
        <ele>2178.97</ele>
        <time>2019-09-07T10:30:17Z</time>
      </trkpt>
      <trkpt lat="42.6030270662" lon="0.8850875683">
        <ele>2176.56</ele>
        <time>2019-09-07T10:30:28Z</time>
      </trkpt>
      <trkpt lat="42.6030342747" lon="0.8849848900">
        <ele>2174.16</ele>
        <time>2019-09-07T10:30:38Z</time>
      </trkpt>
      <trkpt lat="42.6029942930" lon="0.8848947007">
        <ele>2172.24</ele>
        <time>2019-09-07T10:30:46Z</time>
      </trkpt>
      <trkpt lat="42.6030208636" lon="0.8848035894">
        <ele>2170.31</ele>
        <time>2019-09-07T10:30:55Z</time>
      </trkpt>
      <trkpt lat="42.6030536368" lon="0.8847594168">
        <ele>2168.87</ele>
        <time>2019-09-07T10:31:06Z</time>
      </trkpt>
      <trkpt lat="42.6030486077" lon="0.8847113047">
        <ele>2167.91</ele>
        <time>2019-09-07T10:31:15Z</time>
      </trkpt>
      <trkpt lat="42.6030589174" lon="0.8846916072">
        <ele>2168.39</ele>
        <time>2019-09-07T10:31:25Z</time>
      </trkpt>
      <trkpt lat="42.6030512061" lon="0.8846166730">
        <ele>2167.43</ele>
        <time>2019-09-07T10:31:34Z</time>
      </trkpt>
      <trkpt lat="42.6030642819" lon="0.8845504560">
        <ele>2168.39</ele>
        <time>2019-09-07T10:31:45Z</time>
      </trkpt>
      <trkpt lat="42.6030624378" lon="0.8844271582">
        <ele>2169.35</ele>
        <time>2019-09-07T10:31:56Z</time>
      </trkpt>
      <trkpt lat="42.6030511223" lon="0.8843123261">
        <ele>2170.79</ele>
        <time>2019-09-07T10:32:09Z</time>
      </trkpt>
      <trkpt lat="42.6030372083" lon="0.8841990866">
        <ele>2171.76</ele>
        <time>2019-09-07T10:32:21Z</time>
      </trkpt>
      <trkpt lat="42.6029974781" lon="0.8841441013">
        <ele>2171.76</ele>
        <time>2019-09-07T10:32:25Z</time>
      </trkpt>
      <trkpt lat="42.6030020043" lon="0.8840175346">
        <ele>2169.83</ele>
        <time>2019-09-07T10:32:32Z</time>
      </trkpt>
      <trkpt lat="42.6029545628" lon="0.8837978449">
        <ele>2168.39</ele>
        <time>2019-09-07T10:32:43Z</time>
      </trkpt>
      <trkpt lat="42.6029252261" lon="0.8836734574">
        <ele>2167.91</ele>
        <time>2019-09-07T10:32:51Z</time>
      </trkpt>
      <trkpt lat="42.6028989069" lon="0.8834985271">
        <ele>2167.43</ele>
        <time>2019-09-07T10:33:01Z</time>
      </trkpt>
      <trkpt lat="42.6028945483" lon="0.8834474813">
        <ele>2167.43</ele>
        <time>2019-09-07T10:33:04Z</time>
      </trkpt>
      <trkpt lat="42.6029063668" lon="0.8832756523">
        <ele>2167.43</ele>
        <time>2019-09-07T10:33:14Z</time>
      </trkpt>
      <trkpt lat="42.6029089652" lon="0.8832562063">
        <ele>2167.43</ele>
        <time>2019-09-07T10:33:15Z</time>
      </trkpt>
      <trkpt lat="42.6028927043" lon="0.8831000514">
        <ele>2166.95</ele>
        <time>2019-09-07T10:33:24Z</time>
      </trkpt>
      <trkpt lat="42.6029225439" lon="0.8829836268">
        <ele>2165.03</ele>
        <time>2019-09-07T10:33:36Z</time>
      </trkpt>
      <trkpt lat="42.6029866654" lon="0.8829032443">
        <ele>2162.62</ele>
        <time>2019-09-07T10:33:49Z</time>
      </trkpt>
      <trkpt lat="42.6030393038" lon="0.8827960398">
        <ele>2159.74</ele>
        <time>2019-09-07T10:34:01Z</time>
      </trkpt>
      <trkpt lat="42.6030582469" lon="0.8827710617">
        <ele>2159.26</ele>
        <time>2019-09-07T10:34:03Z</time>
      </trkpt>
      <trkpt lat="42.6030912716" lon="0.8826645277">
        <ele>2158.30</ele>
        <time>2019-09-07T10:34:09Z</time>
      </trkpt>
      <trkpt lat="42.6030929480" lon="0.8825959638">
        <ele>2157.82</ele>
        <time>2019-09-07T10:34:19Z</time>
      </trkpt>
      <trkpt lat="42.6031337678" lon="0.8825922757">
        <ele>2157.82</ele>
        <time>2019-09-07T10:34:22Z</time>
      </trkpt>
      <trkpt lat="42.6031640265" lon="0.8825444151">
        <ele>2157.34</ele>
        <time>2019-09-07T10:34:33Z</time>
      </trkpt>
      <trkpt lat="42.6031698938" lon="0.8825490251">
        <ele>2157.34</ele>
        <time>2019-09-07T10:34:40Z</time>
      </trkpt>
      <trkpt lat="42.6032581553" lon="0.8825804573">
        <ele>2157.34</ele>
        <time>2019-09-07T10:34:50Z</time>
      </trkpt>
      <trkpt lat="42.6033177506" lon="0.8825248852">
        <ele>2157.34</ele>
        <time>2019-09-07T10:35:01Z</time>
      </trkpt>
      <trkpt lat="42.6033454109" lon="0.8824763540">
        <ele>2157.34</ele>
        <time>2019-09-07T10:35:11Z</time>
      </trkpt>
      <trkpt lat="42.6033811178" lon="0.8824336901">
        <ele>2157.82</ele>
        <time>2019-09-07T10:35:21Z</time>
      </trkpt>
      <trkpt lat="42.6033752505" lon="0.8823634498">
        <ele>2156.86</ele>
        <time>2019-09-07T10:35:30Z</time>
      </trkpt>
      <trkpt lat="42.6033760887" lon="0.8822770324">
        <ele>2157.34</ele>
        <time>2019-09-07T10:35:41Z</time>
      </trkpt>
      <trkpt lat="42.6033703052" lon="0.8822362963">
        <ele>2156.86</ele>
        <time>2019-09-07T10:35:46Z</time>
      </trkpt>
      <trkpt lat="42.6033443213" lon="0.8821419999">
        <ele>2156.37</ele>
        <time>2019-09-07T10:35:55Z</time>
      </trkpt>
      <trkpt lat="42.6032946166" lon="0.8820399083">
        <ele>2156.37</ele>
        <time>2019-09-07T10:36:06Z</time>
      </trkpt>
      <trkpt lat="42.6033012383" lon="0.8820083924">
        <ele>2156.37</ele>
        <time>2019-09-07T10:36:21Z</time>
      </trkpt>
      <trkpt lat="42.6033669524" lon="0.8820316102">
        <ele>2156.37</ele>
        <time>2019-09-07T10:36:33Z</time>
      </trkpt>
      <trkpt lat="42.6034152322" lon="0.8820619527">
        <ele>2156.37</ele>
        <time>2019-09-07T10:36:41Z</time>
      </trkpt>
      <trkpt lat="42.6033693831" lon="0.8820228931">
        <ele>2156.37</ele>
        <time>2019-09-07T10:36:53Z</time>
      </trkpt>
      <trkpt lat="42.6034006476" lon="0.8820674848">
        <ele>2156.37</ele>
        <time>2019-09-07T10:37:03Z</time>
      </trkpt>
      <trkpt lat="42.6034472510" lon="0.8820694126">
        <ele>2156.86</ele>
        <time>2019-09-07T10:37:13Z</time>
      </trkpt>
      <trkpt lat="42.6034678705" lon="0.8820109069">
        <ele>2157.34</ele>
        <time>2019-09-07T10:37:23Z</time>
      </trkpt>
      <trkpt lat="42.6034552138" lon="0.8819705900">
        <ele>2156.37</ele>
        <time>2019-09-07T10:37:31Z</time>
      </trkpt>
      <trkpt lat="42.6034710556" lon="0.8819223940">
        <ele>2155.89</ele>
        <time>2019-09-07T10:37:43Z</time>
      </trkpt>
      <trkpt lat="42.6035243645" lon="0.8818970807">
        <ele>2156.37</ele>
        <time>2019-09-07T10:37:53Z</time>
      </trkpt>
      <trkpt lat="42.6035661902" lon="0.8818879444">
        <ele>2157.34</ele>
        <time>2019-09-07T10:38:04Z</time>
      </trkpt>
      <trkpt lat="42.6035759971" lon="0.8818172850">
        <ele>2158.30</ele>
        <time>2019-09-07T10:38:15Z</time>
      </trkpt>
      <trkpt lat="42.6035625860" lon="0.8817388304">
        <ele>2159.26</ele>
        <time>2019-09-07T10:38:26Z</time>
      </trkpt>
      <trkpt lat="42.6035672799" lon="0.8817336336">
        <ele>2159.26</ele>
        <time>2019-09-07T10:38:28Z</time>
      </trkpt>
      <trkpt lat="42.6036186609" lon="0.8816806599">
        <ele>2160.70</ele>
        <time>2019-09-07T10:38:38Z</time>
      </trkpt>
      <trkpt lat="42.6036654320" lon="0.8816182986">
        <ele>2161.18</ele>
        <time>2019-09-07T10:38:48Z</time>
      </trkpt>
      <trkpt lat="42.6036702935" lon="0.8815675881">
        <ele>2162.14</ele>
        <time>2019-09-07T10:39:01Z</time>
      </trkpt>
      <trkpt lat="42.6036767475" lon="0.8814892173">
        <ele>2162.62</ele>
        <time>2019-09-07T10:39:10Z</time>
      </trkpt>
      <trkpt lat="42.6036852133" lon="0.8813700266">
        <ele>2162.62</ele>
        <time>2019-09-07T10:39:22Z</time>
      </trkpt>
      <trkpt lat="42.6037122868" lon="0.8813526761">
        <ele>2163.10</ele>
        <time>2019-09-07T10:39:31Z</time>
      </trkpt>
      <trkpt lat="42.6037239376" lon="0.8813371696">
        <ele>2164.06</ele>
        <time>2019-09-07T10:39:41Z</time>
      </trkpt>
      <trkpt lat="42.6037354209" lon="0.8813385107">
        <ele>2165.03</ele>
        <time>2019-09-07T10:39:52Z</time>
      </trkpt>
      <trkpt lat="42.6037719660" lon="0.8814004529">
        <ele>2167.43</ele>
        <time>2019-09-07T10:40:09Z</time>
      </trkpt>
      <trkpt lat="42.6038044877" lon="0.8813990280">
        <ele>2168.39</ele>
        <time>2019-09-07T10:40:19Z</time>
      </trkpt>
      <trkpt lat="42.6038219221" lon="0.8814431168">
        <ele>2170.31</ele>
        <time>2019-09-07T10:40:31Z</time>
      </trkpt>
      <trkpt lat="42.6038536895" lon="0.8814334776">
        <ele>2171.76</ele>
        <time>2019-09-07T10:40:43Z</time>
      </trkpt>
      <trkpt lat="42.6038525999" lon="0.8813820966">
        <ele>2173.68</ele>
        <time>2019-09-07T10:40:57Z</time>
      </trkpt>
      <trkpt lat="42.6038539410" lon="0.8813437913">
        <ele>2174.64</ele>
        <time>2019-09-07T10:41:07Z</time>
      </trkpt>
      <trkpt lat="42.6038784161" lon="0.8812955953">
        <ele>2176.08</ele>
        <time>2019-09-07T10:41:19Z</time>
      </trkpt>
      <trkpt lat="42.6039158832" lon="0.8812826034">
        <ele>2177.04</ele>
        <time>2019-09-07T10:41:29Z</time>
      </trkpt>
      <trkpt lat="42.6039302163" lon="0.8812582120">
        <ele>2178.00</ele>
        <time>2019-09-07T10:41:35Z</time>
      </trkpt>
      <trkpt lat="42.6039509196" lon="0.8811888099">
        <ele>2178.00</ele>
        <time>2019-09-07T10:41:46Z</time>
      </trkpt>
      <trkpt lat="42.6039437111" lon="0.8811045717">
        <ele>2177.52</ele>
        <time>2019-09-07T10:41:55Z</time>
      </trkpt>
      <trkpt lat="42.6039573736" lon="0.8810381871">
        <ele>2178.00</ele>
        <time>2019-09-07T10:42:06Z</time>
      </trkpt>
      <trkpt lat="42.6039435435" lon="0.8810411207">
        <ele>2178.00</ele>
        <time>2019-09-07T10:42:17Z</time>
      </trkpt>
      <trkpt lat="42.6039618999" lon="0.8810007200">
        <ele>2178.00</ele>
        <time>2019-09-07T10:42:29Z</time>
      </trkpt>
      <trkpt lat="42.6039599720" lon="0.8809612412">
        <ele>2178.00</ele>
        <time>2019-09-07T10:42:38Z</time>
      </trkpt>
      <trkpt lat="42.6039648335" lon="0.8809246961">
        <ele>2178.00</ele>
        <time>2019-09-07T10:42:47Z</time>
      </trkpt>
      <trkpt lat="42.6039712038" lon="0.8808664419">
        <ele>2178.48</ele>
        <time>2019-09-07T10:42:57Z</time>
      </trkpt>
      <trkpt lat="42.6039655879" lon="0.8808153123">
        <ele>2178.97</ele>
        <time>2019-09-07T10:43:03Z</time>
      </trkpt>
      <trkpt lat="42.6039567869" lon="0.8807542082">
        <ele>2179.93</ele>
        <time>2019-09-07T10:43:12Z</time>
      </trkpt>
      <trkpt lat="42.6039858721" lon="0.8806866501">
        <ele>2181.85</ele>
        <time>2019-09-07T10:43:24Z</time>
      </trkpt>
      <trkpt lat="42.6040109340" lon="0.8805817086">
        <ele>2183.77</ele>
        <time>2019-09-07T10:43:35Z</time>
      </trkpt>
      <trkpt lat="42.6040108502" lon="0.8804816287">
        <ele>2183.29</ele>
        <time>2019-09-07T10:43:45Z</time>
      </trkpt>
      <trkpt lat="42.6039880514" lon="0.8804041799">
        <ele>2182.81</ele>
        <time>2019-09-07T10:43:55Z</time>
      </trkpt>
      <trkpt lat="42.6040376723" lon="0.8803584147">
        <ele>2182.33</ele>
        <time>2019-09-07T10:44:05Z</time>
      </trkpt>
      <trkpt lat="42.6040353253" lon="0.8802583348">
        <ele>2182.81</ele>
        <time>2019-09-07T10:44:14Z</time>
      </trkpt>
      <trkpt lat="42.6040127780" lon="0.8801790420">
        <ele>2183.29</ele>
        <time>2019-09-07T10:44:25Z</time>
      </trkpt>
      <trkpt lat="42.6040007919" lon="0.8801560756">
        <ele>2182.81</ele>
        <time>2019-09-07T10:44:32Z</time>
      </trkpt>
      <trkpt lat="42.6039870456" lon="0.8800631203">
        <ele>2183.77</ele>
        <time>2019-09-07T10:44:43Z</time>
      </trkpt>
      <trkpt lat="42.6039814297" lon="0.8800211269">
        <ele>2183.77</ele>
        <time>2019-09-07T10:44:47Z</time>
      </trkpt>
      <trkpt lat="42.6039735507" lon="0.8799272496">
        <ele>2184.73</ele>
        <time>2019-09-07T10:44:59Z</time>
      </trkpt>
      <trkpt lat="42.6039977744" lon="0.8799083903">
        <ele>2186.66</ele>
        <time>2019-09-07T10:45:10Z</time>
      </trkpt>
      <trkpt lat="42.6040277816" lon="0.8799088094">
        <ele>2187.62</ele>
        <time>2019-09-07T10:45:20Z</time>
      </trkpt>
      <trkpt lat="42.6040537655" lon="0.8798896987">
        <ele>2189.06</ele>
        <time>2019-09-07T10:45:30Z</time>
      </trkpt>
      <trkpt lat="42.6040356606" lon="0.8798576798">
        <ele>2190.02</ele>
        <time>2019-09-07T10:45:39Z</time>
      </trkpt>
      <trkpt lat="42.6040734630" lon="0.8798421733">
        <ele>2191.94</ele>
        <time>2019-09-07T10:45:50Z</time>
      </trkpt>
      <trkpt lat="42.6041100081" lon="0.8798671514">
        <ele>2192.42</ele>
        <time>2019-09-07T10:46:00Z</time>
      </trkpt>
      <trkpt lat="42.6041385066" lon="0.8798744436">
        <ele>2193.39</ele>
        <time>2019-09-07T10:46:10Z</time>
      </trkpt>
      <trkpt lat="42.6041633170" lon="0.8798546623">
        <ele>2194.83</ele>
        <time>2019-09-07T10:46:20Z</time>
      </trkpt>
      <trkpt lat="42.6041865349" lon="0.8798223082">
        <ele>2196.27</ele>
        <time>2019-09-07T10:46:30Z</time>
      </trkpt>
      <trkpt lat="42.6042036340" lon="0.8797783032">
        <ele>2197.23</ele>
        <time>2019-09-07T10:46:40Z</time>
      </trkpt>
      <trkpt lat="42.6042400952" lon="0.8797346335">
        <ele>2199.15</ele>
        <time>2019-09-07T10:46:52Z</time>
      </trkpt>
      <trkpt lat="42.6043075696" lon="0.8797394950">
        <ele>2200.11</ele>
        <time>2019-09-07T10:47:02Z</time>
      </trkpt>
      <trkpt lat="42.6043635607" lon="0.8797574323">
        <ele>2201.08</ele>
        <time>2019-09-07T10:47:15Z</time>
      </trkpt>
      <trkpt lat="42.6043855213" lon="0.8797250781">
        <ele>2202.04</ele>
        <time>2019-09-07T10:47:21Z</time>
      </trkpt>
      <trkpt lat="42.6044208091" lon="0.8796350565">
        <ele>2202.52</ele>
        <time>2019-09-07T10:47:31Z</time>
      </trkpt>
      <trkpt lat="42.6044513192" lon="0.8795106690">
        <ele>2203.48</ele>
        <time>2019-09-07T10:47:44Z</time>
      </trkpt>
      <trkpt lat="42.6045130100" lon="0.8794834279">
        <ele>2204.44</ele>
        <time>2019-09-07T10:47:55Z</time>
      </trkpt>
      <trkpt lat="42.6045569312" lon="0.8794647362">
        <ele>2205.88</ele>
        <time>2019-09-07T10:48:07Z</time>
      </trkpt>
      <trkpt lat="42.6045968290" lon="0.8794250898">
        <ele>2207.32</ele>
        <time>2019-09-07T10:48:17Z</time>
      </trkpt>
      <trkpt lat="42.6046328712" lon="0.8793613035">
        <ele>2208.77</ele>
        <time>2019-09-07T10:48:30Z</time>
      </trkpt>
      <trkpt lat="42.6046549156" lon="0.8792975172">
        <ele>2209.25</ele>
        <time>2019-09-07T10:48:40Z</time>
      </trkpt>
      <trkpt lat="42.6047175284" lon="0.8793049771">
        <ele>2211.17</ele>
        <time>2019-09-07T10:48:52Z</time>
      </trkpt>
      <trkpt lat="42.6047524810" lon="0.8792592958">
        <ele>2211.65</ele>
        <time>2019-09-07T10:49:01Z</time>
      </trkpt>
      <trkpt lat="42.6047760341" lon="0.8792214096">
        <ele>2212.13</ele>
        <time>2019-09-07T10:49:05Z</time>
      </trkpt>
      <trkpt lat="42.6047843322" lon="0.8791914862">
        <ele>2212.13</ele>
        <time>2019-09-07T10:49:07Z</time>
      </trkpt>
      <trkpt lat="42.6048386469" lon="0.8791754767">
        <ele>2212.61</ele>
        <time>2019-09-07T10:49:15Z</time>
      </trkpt>
      <trkpt lat="42.6048311871" lon="0.8790718764">
        <ele>2213.57</ele>
        <time>2019-09-07T10:49:29Z</time>
      </trkpt>
      <trkpt lat="42.6048298460" lon="0.8790608961">
        <ele>2213.57</ele>
        <time>2019-09-07T10:49:30Z</time>
      </trkpt>
      <trkpt lat="42.6048469450" lon="0.8789189905">
        <ele>2213.09</ele>
        <time>2019-09-07T10:49:42Z</time>
      </trkpt>
      <trkpt lat="42.6048445981" lon="0.8788632508">
        <ele>2213.57</ele>
        <time>2019-09-07T10:49:47Z</time>
      </trkpt>
      <trkpt lat="42.6048947219" lon="0.8787505981">
        <ele>2214.53</ele>
        <time>2019-09-07T10:49:58Z</time>
      </trkpt>
      <trkpt lat="42.6049099769" lon="0.8786620013">
        <ele>2215.01</ele>
        <time>2019-09-07T10:50:09Z</time>
      </trkpt>
      <trkpt lat="42.6049495395" lon="0.8785931021">
        <ele>2216.94</ele>
        <time>2019-09-07T10:50:20Z</time>
      </trkpt>
      <trkpt lat="42.6049306802" lon="0.8784900047">
        <ele>2218.38</ele>
        <time>2019-09-07T10:50:32Z</time>
      </trkpt>
      <trkpt lat="42.6049260702" lon="0.8784895018">
        <ele>2218.38</ele>
        <time>2019-09-07T10:50:51Z</time>
      </trkpt>
      <trkpt lat="42.6049632858" lon="0.8784023300">
        <ele>2217.90</ele>
        <time>2019-09-07T10:51:05Z</time>
      </trkpt>
      <trkpt lat="42.6050265692" lon="0.8782590833">
        <ele>2217.42</ele>
        <time>2019-09-07T10:51:17Z</time>
      </trkpt>
      <trkpt lat="42.6050491165" lon="0.8782351110">
        <ele>2217.42</ele>
        <time>2019-09-07T10:51:20Z</time>
      </trkpt>
      <trkpt lat="42.6051105559" lon="0.8781908546">
        <ele>2217.42</ele>
        <time>2019-09-07T10:51:27Z</time>
      </trkpt>
      <trkpt lat="42.6051286608" lon="0.8781025093">
        <ele>2217.42</ele>
        <time>2019-09-07T10:51:34Z</time>
      </trkpt>
      <trkpt lat="42.6051421557" lon="0.8780181874">
        <ele>2217.42</ele>
        <time>2019-09-07T10:51:41Z</time>
      </trkpt>
      <trkpt lat="42.6051326841" lon="0.8778763656">
        <ele>2217.42</ele>
        <time>2019-09-07T10:51:53Z</time>
      </trkpt>
      <trkpt lat="42.6051829755" lon="0.8777458593">
        <ele>2216.46</ele>
        <time>2019-09-07T10:52:06Z</time>
      </trkpt>
      <trkpt lat="42.6051946264" lon="0.8776807319">
        <ele>2215.01</ele>
        <time>2019-09-07T10:52:17Z</time>
      </trkpt>
      <trkpt lat="42.6051880885" lon="0.8776648063">
        <ele>2214.53</ele>
        <time>2019-09-07T10:52:19Z</time>
      </trkpt>
      <trkpt lat="42.6052185148" lon="0.8775234036">
        <ele>2213.09</ele>
        <time>2019-09-07T10:52:31Z</time>
      </trkpt>
      <trkpt lat="42.6052503660" lon="0.8774415962">
        <ele>2214.05</ele>
        <time>2019-09-07T10:52:42Z</time>
      </trkpt>
      <trkpt lat="42.6052765176" lon="0.8774405066">
        <ele>2215.01</ele>
        <time>2019-09-07T10:52:54Z</time>
      </trkpt>
      <trkpt lat="42.6052622683" lon="0.8774389978">
        <ele>2215.01</ele>
        <time>2019-09-07T10:52:56Z</time>
      </trkpt>
      <trkpt lat="42.6052149944" lon="0.8773923106">
        <ele>2215.01</ele>
        <time>2019-09-07T10:53:07Z</time>
      </trkpt>
      <trkpt lat="42.6052363683" lon="0.8773069829">
        <ele>2214.05</ele>
        <time>2019-09-07T10:53:14Z</time>
      </trkpt>
      <trkpt lat="42.6052885037" lon="0.8772635646">
        <ele>2213.57</ele>
        <time>2019-09-07T10:53:26Z</time>
      </trkpt>
      <trkpt lat="42.6053014956" lon="0.8772903029">
        <ele>2214.53</ele>
        <time>2019-09-07T10:53:37Z</time>
      </trkpt>
      <trkpt lat="42.6053204387" lon="0.8772999421">
        <ele>2213.57</ele>
        <time>2019-09-07T10:53:57Z</time>
      </trkpt>
      <trkpt lat="42.6053159125" lon="0.8772901352">
        <ele>2213.57</ele>
        <time>2019-09-07T10:54:47Z</time>
      </trkpt>
      <trkpt lat="42.6053091232" lon="0.8772647381">
        <ele>2214.53</ele>
        <time>2019-09-07T10:55:58Z</time>
      </trkpt>
      <trkpt lat="42.6053047646" lon="0.8772728685">
        <ele>2209.25</ele>
        <time>2019-09-07T10:56:31Z</time>
      </trkpt>
      <trkpt lat="42.6053044293" lon="0.8772732038">
        <ele>2211.65</ele>
        <time>2019-09-07T10:56:32Z</time>
      </trkpt>
      <trkpt lat="42.6053040940" lon="0.8772737067">
        <ele>2213.57</ele>
        <time>2019-09-07T10:56:34Z</time>
      </trkpt>
      <trkpt lat="42.6053138170" lon="0.8772886265">
        <ele>2214.05</ele>
        <time>2019-09-07T10:56:52Z</time>
      </trkpt>
      <trkpt lat="42.6053129788" lon="0.8772829268">
        <ele>2214.05</ele>
        <time>2019-09-07T10:57:16Z</time>
      </trkpt>
      <trkpt lat="42.6053154934" lon="0.8772751316">
        <ele>2214.05</ele>
        <time>2019-09-07T10:58:00Z</time>
      </trkpt>
      <trkpt lat="42.6053084526" lon="0.8772853576">
        <ele>2214.05</ele>
        <time>2019-09-07T10:58:23Z</time>
      </trkpt>
      <trkpt lat="42.6053129788" lon="0.8772762213">
        <ele>2214.05</ele>
        <time>2019-09-07T10:59:15Z</time>
      </trkpt>
      <trkpt lat="42.6053049322" lon="0.8772764727">
        <ele>2214.05</ele>
        <time>2019-09-07T11:00:10Z</time>
      </trkpt>
      <trkpt lat="42.6053019147" lon="0.8772855252">
        <ele>2214.05</ele>
        <time>2019-09-07T11:01:16Z</time>
      </trkpt>
      <trkpt lat="42.6053064410" lon="0.8772791550">
        <ele>2214.05</ele>
        <time>2019-09-07T11:02:03Z</time>
      </trkpt>
      <trkpt lat="42.6053094584" lon="0.8772899676">
        <ele>2214.05</ele>
        <time>2019-09-07T11:02:51Z</time>
      </trkpt>
      <trkpt lat="42.6052973047" lon="0.8772923145">
        <ele>2214.05</ele>
        <time>2019-09-07T11:03:35Z</time>
      </trkpt>
      <trkpt lat="42.6052985620" lon="0.8772809152">
        <ele>2214.05</ele>
        <time>2019-09-07T11:04:19Z</time>
      </trkpt>
      <trkpt lat="42.6053072792" lon="0.8772856928">
        <ele>2214.05</ele>
        <time>2019-09-07T11:05:06Z</time>
      </trkpt>
      <trkpt lat="42.6053046808" lon="0.8772607986">
        <ele>2214.05</ele>
        <time>2019-09-07T11:05:46Z</time>
      </trkpt>
      <trkpt lat="42.6053101290" lon="0.8772791550">
        <ele>2214.05</ele>
        <time>2019-09-07T11:06:20Z</time>
      </trkpt>
      <trkpt lat="42.6053269766" lon="0.8772923145">
        <ele>2214.05</ele>
        <time>2019-09-07T11:06:40Z</time>
      </trkpt>
      <trkpt lat="42.6053251326" lon="0.8772979304">
        <ele>2214.05</ele>
        <time>2019-09-07T11:06:59Z</time>
      </trkpt>
      <trkpt lat="42.6053220313" lon="0.8772939909">
        <ele>2214.05</ele>
        <time>2019-09-07T11:07:26Z</time>
      </trkpt>
      <trkpt lat="42.6053261384" lon="0.8772784844">
        <ele>2214.05</ele>
        <time>2019-09-07T11:08:07Z</time>
      </trkpt>
      <trkpt lat="42.6053263899" lon="0.8772628941">
        <ele>2214.05</ele>
        <time>2019-09-07T11:08:44Z</time>
      </trkpt>
      <trkpt lat="42.6053267252" lon="0.8772486448">
        <ele>2214.05</ele>
        <time>2019-09-07T11:09:05Z</time>
      </trkpt>
      <trkpt lat="42.6053381246" lon="0.8772566076">
        <ele>2214.05</ele>
        <time>2019-09-07T11:09:33Z</time>
      </trkpt>
      <trkpt lat="42.6053361967" lon="0.8772514947">
        <ele>2214.05</ele>
        <time>2019-09-07T11:09:47Z</time>
      </trkpt>
      <trkpt lat="42.6053440757" lon="0.8772503212">
        <ele>2214.05</ele>
        <time>2019-09-07T11:10:27Z</time>
      </trkpt>
      <trkpt lat="42.6053449977" lon="0.8772632293">
        <ele>2214.05</ele>
        <time>2019-09-07T11:11:14Z</time>
      </trkpt>
      <trkpt lat="42.6053577382" lon="0.8772770595">
        <ele>2214.05</ele>
        <time>2019-09-07T11:11:34Z</time>
      </trkpt>
      <trkpt lat="42.6053723227" lon="0.8772156201">
        <ele>2214.05</ele>
        <time>2019-09-07T11:11:45Z</time>
      </trkpt>
      <trkpt lat="42.6053560618" lon="0.8772067353">
        <ele>2214.05</ele>
        <time>2019-09-07T11:12:01Z</time>
      </trkpt>
      <trkpt lat="42.6053499430" lon="0.8771703579">
        <ele>2214.05</ele>
        <time>2019-09-07T11:12:15Z</time>
      </trkpt>
      <trkpt lat="42.6053558942" lon="0.8771761414">
        <ele>2214.05</ele>
        <time>2019-09-07T11:12:35Z</time>
      </trkpt>
      <trkpt lat="42.6053548884" lon="0.8772374969">
        <ele>2214.05</ele>
        <time>2019-09-07T11:12:47Z</time>
      </trkpt>
      <trkpt lat="42.6053522062" lon="0.8772680908">
        <ele>2214.05</ele>
        <time>2019-09-07T11:12:55Z</time>
      </trkpt>
      <trkpt lat="42.6053359453" lon="0.8773551788">
        <ele>2214.05</ele>
        <time>2019-09-07T11:13:17Z</time>
      </trkpt>
      <trkpt lat="42.6053246297" lon="0.8773457073">
        <ele>2214.05</ele>
        <time>2019-09-07T11:13:35Z</time>
      </trkpt>
      <trkpt lat="42.6053206902" lon="0.8773182146">
        <ele>2214.05</ele>
        <time>2019-09-07T11:13:58Z</time>
      </trkpt>
      <trkpt lat="42.6053271443" lon="0.8772927336">
        <ele>2214.05</ele>
        <time>2019-09-07T11:14:35Z</time>
      </trkpt>
      <trkpt lat="42.6053148229" lon="0.8772764727">
        <ele>2214.05</ele>
        <time>2019-09-07T11:15:36Z</time>
      </trkpt>
      <trkpt lat="42.6053030044" lon="0.8772701863">
        <ele>2214.05</ele>
        <time>2019-09-07T11:16:44Z</time>
      </trkpt>
      <trkpt lat="42.6053019986" lon="0.8773020376">
        <ele>2214.05</ele>
        <time>2019-09-07T11:17:11Z</time>
      </trkpt>
      <trkpt lat="42.6053127274" lon="0.8772907220">
        <ele>2214.05</ele>
        <time>2019-09-07T11:18:03Z</time>
      </trkpt>
      <trkpt lat="42.6053403877" lon="0.8772177156">
        <ele>2214.05</ele>
        <time>2019-09-07T11:18:58Z</time>
      </trkpt>
      <trkpt lat="42.6053481828" lon="0.8771955036">
        <ele>2214.05</ele>
        <time>2019-09-07T11:19:08Z</time>
      </trkpt>
      <trkpt lat="42.6053441595" lon="0.8772022091">
        <ele>2214.05</ele>
        <time>2019-09-07T11:19:21Z</time>
      </trkpt>
      <trkpt lat="42.6053434052" lon="0.8771995269">
        <ele>2214.05</ele>
        <time>2019-09-07T11:19:40Z</time>
      </trkpt>
      <trkpt lat="42.6053244621" lon="0.8772391733">
        <ele>2214.05</ele>
        <time>2019-09-07T11:20:00Z</time>
      </trkpt>
      <trkpt lat="42.6053180918" lon="0.8772905543">
        <ele>2214.05</ele>
        <time>2019-09-07T11:20:19Z</time>
      </trkpt>
      <trkpt lat="42.6052973885" lon="0.8773368225">
        <ele>2214.05</ele>
        <time>2019-09-07T11:20:41Z</time>
      </trkpt>
      <trkpt lat="42.6053083688" lon="0.8773516584">
        <ele>2214.05</ele>
        <time>2019-09-07T11:21:05Z</time>
      </trkpt>
      <trkpt lat="42.6053287368" lon="0.8772395924">
        <ele>2214.05</ele>
        <time>2019-09-07T11:21:22Z</time>
      </trkpt>
      <trkpt lat="42.6053454168" lon="0.8772001136">
        <ele>2214.05</ele>
        <time>2019-09-07T11:21:32Z</time>
      </trkpt>
      <trkpt lat="42.6053661201" lon="0.8771630656">
        <ele>2214.05</ele>
        <time>2019-09-07T11:21:40Z</time>
      </trkpt>
      <trkpt lat="42.6054168306" lon="0.8771587070">
        <ele>2214.05</ele>
        <time>2019-09-07T11:21:45Z</time>
      </trkpt>
      <trkpt lat="42.6054253802" lon="0.8771240897">
        <ele>2212.61</ele>
        <time>2019-09-07T11:21:55Z</time>
      </trkpt>
      <trkpt lat="42.6054825447" lon="0.8770168014">
        <ele>2211.17</ele>
        <time>2019-09-07T11:22:06Z</time>
      </trkpt>
      <trkpt lat="42.6054908428" lon="0.8770022169">
        <ele>2211.17</ele>
        <time>2019-09-07T11:22:07Z</time>
      </trkpt>
      <trkpt lat="42.6055693813" lon="0.8769327309">
        <ele>2210.21</ele>
        <time>2019-09-07T11:22:18Z</time>
      </trkpt>
      <trkpt lat="42.6056241989" lon="0.8768733870">
        <ele>2207.81</ele>
        <time>2019-09-07T11:22:30Z</time>
      </trkpt>
      <trkpt lat="42.6056202594" lon="0.8768169768">
        <ele>2206.84</ele>
        <time>2019-09-07T11:22:36Z</time>
      </trkpt>
      <trkpt lat="42.6056204271" lon="0.8768031467">
        <ele>2206.36</ele>
        <time>2019-09-07T11:22:37Z</time>
      </trkpt>
      <trkpt lat="42.6056582294" lon="0.8766280487">
        <ele>2204.44</ele>
        <time>2019-09-07T11:22:50Z</time>
      </trkpt>
      <trkpt lat="42.6057754923" lon="0.8765360992">
        <ele>2202.52</ele>
        <time>2019-09-07T11:23:02Z</time>
      </trkpt>
      <trkpt lat="42.6058032364" lon="0.8765072655">
        <ele>2202.04</ele>
        <time>2019-09-07T11:23:05Z</time>
      </trkpt>
      <trkpt lat="42.6058080979" lon="0.8764937706">
        <ele>2202.04</ele>
        <time>2019-09-07T11:23:06Z</time>
      </trkpt>
      <trkpt lat="42.6058133785" lon="0.8764815331">
        <ele>2202.04</ele>
        <time>2019-09-07T11:23:07Z</time>
      </trkpt>
      <trkpt lat="42.6058222633" lon="0.8764713071">
        <ele>2202.04</ele>
        <time>2019-09-07T11:23:08Z</time>
      </trkpt>
      <trkpt lat="42.6058335789" lon="0.8764643501">
        <ele>2202.04</ele>
        <time>2019-09-07T11:23:09Z</time>
      </trkpt>
      <trkpt lat="42.6058448106" lon="0.8764609136">
        <ele>2202.04</ele>
        <time>2019-09-07T11:23:10Z</time>
      </trkpt>
      <trkpt lat="42.6058883127" lon="0.8764332533">
        <ele>2202.52</ele>
        <time>2019-09-07T11:23:16Z</time>
      </trkpt>
      <trkpt lat="42.6059464831" lon="0.8763501886">
        <ele>2203.00</ele>
        <time>2019-09-07T11:23:26Z</time>
      </trkpt>
      <trkpt lat="42.6060331520" lon="0.8762645256">
        <ele>2203.00</ele>
        <time>2019-09-07T11:23:39Z</time>
      </trkpt>
      <trkpt lat="42.6060471497" lon="0.8762732428">
        <ele>2204.44</ele>
        <time>2019-09-07T11:23:53Z</time>
      </trkpt>
      <trkpt lat="42.6060729660" lon="0.8762812894">
        <ele>2204.92</ele>
        <time>2019-09-07T11:24:03Z</time>
      </trkpt>
      <trkpt lat="42.6060733851" lon="0.8762812894">
        <ele>2204.92</ele>
        <time>2019-09-07T11:24:12Z</time>
      </trkpt>
      <trkpt lat="42.6060641650" lon="0.8762830496">
        <ele>2204.92</ele>
        <time>2019-09-07T11:24:20Z</time>
      </trkpt>
      <trkpt lat="42.6060961839" lon="0.8762868214">
        <ele>2205.40</ele>
        <time>2019-09-07T11:24:33Z</time>
      </trkpt>
      <trkpt lat="42.6061250176" lon="0.8763029985">
        <ele>2206.84</ele>
        <time>2019-09-07T11:24:45Z</time>
      </trkpt>
      <trkpt lat="42.6061874628" lon="0.8762831334">
        <ele>2207.32</ele>
        <time>2019-09-07T11:25:00Z</time>
      </trkpt>
      <trkpt lat="42.6062604692" lon="0.8763226122">
        <ele>2210.21</ele>
        <time>2019-09-07T11:25:13Z</time>
      </trkpt>
      <trkpt lat="42.6063196454" lon="0.8763158228">
        <ele>2212.13</ele>
        <time>2019-09-07T11:25:24Z</time>
      </trkpt>
      <trkpt lat="42.6063649077" lon="0.8762907609">
        <ele>2213.57</ele>
        <time>2019-09-07T11:25:35Z</time>
      </trkpt>
      <trkpt lat="42.6063821744" lon="0.8762786910">
        <ele>2215.01</ele>
        <time>2019-09-07T11:25:46Z</time>
      </trkpt>
      <trkpt lat="42.6064065658" lon="0.8762504440">
        <ele>2215.98</ele>
        <time>2019-09-07T11:25:55Z</time>
      </trkpt>
      <trkpt lat="42.6064341422" lon="0.8762158267">
        <ele>2217.42</ele>
        <time>2019-09-07T11:26:04Z</time>
      </trkpt>
      <trkpt lat="42.6064718608" lon="0.8761473466">
        <ele>2217.42</ele>
        <time>2019-09-07T11:26:14Z</time>
      </trkpt>
      <trkpt lat="42.6065120939" lon="0.8761701453">
        <ele>2218.86</ele>
        <time>2019-09-07T11:26:24Z</time>
      </trkpt>
      <trkpt lat="42.6065315399" lon="0.8762456663">
        <ele>2220.78</ele>
        <time>2019-09-07T11:26:34Z</time>
      </trkpt>
      <trkpt lat="42.6065333001" lon="0.8763110451">
        <ele>2222.22</ele>
        <time>2019-09-07T11:26:45Z</time>
      </trkpt>
      <trkpt lat="42.6065693423" lon="0.8763136435">
        <ele>2224.15</ele>
        <time>2019-09-07T11:26:56Z</time>
      </trkpt>
      <trkpt lat="42.6065721083" lon="0.8763877396">
        <ele>2225.59</ele>
        <time>2019-09-07T11:27:07Z</time>
      </trkpt>
      <trkpt lat="42.6065871119" lon="0.8764502686">
        <ele>2226.55</ele>
        <time>2019-09-07T11:27:17Z</time>
      </trkpt>
      <trkpt lat="42.6066163648" lon="0.8764565550">
        <ele>2227.51</ele>
        <time>2019-09-07T11:27:25Z</time>
      </trkpt>
      <trkpt lat="42.6066858508" lon="0.8763676230">
        <ele>2229.43</ele>
        <time>2019-09-07T11:27:38Z</time>
      </trkpt>
      <trkpt lat="42.6067314483" lon="0.8763900027">
        <ele>2230.40</ele>
        <time>2019-09-07T11:27:49Z</time>
      </trkpt>
      <trkpt lat="42.6068195421" lon="0.8763948642">
        <ele>2231.36</ele>
        <time>2019-09-07T11:28:01Z</time>
      </trkpt>
      <trkpt lat="42.6068907045" lon="0.8764102869">
        <ele>2231.84</ele>
        <time>2019-09-07T11:28:11Z</time>
      </trkpt>
      <trkpt lat="42.6069159340" lon="0.8764682058">
        <ele>2231.84</ele>
        <time>2019-09-07T11:28:20Z</time>
      </trkpt>
      <trkpt lat="42.6069321111" lon="0.8765122946">
        <ele>2232.32</ele>
        <time>2019-09-07T11:28:25Z</time>
      </trkpt>
      <trkpt lat="42.6069623698" lon="0.8765962813">
        <ele>2232.32</ele>
        <time>2019-09-07T11:28:34Z</time>
      </trkpt>
      <trkpt lat="42.6069761161" lon="0.8766132966">
        <ele>2232.32</ele>
        <time>2019-09-07T11:28:36Z</time>
      </trkpt>
      <trkpt lat="42.6070536487" lon="0.8767658472">
        <ele>2230.88</ele>
        <time>2019-09-07T11:28:49Z</time>
      </trkpt>
      <trkpt lat="42.6070517208" lon="0.8767853770">
        <ele>2231.84</ele>
        <time>2019-09-07T11:29:00Z</time>
      </trkpt>
      <trkpt lat="42.6070461888" lon="0.8767827787">
        <ele>2231.36</ele>
        <time>2019-09-07T11:29:10Z</time>
      </trkpt>
      <trkpt lat="42.6070358790" lon="0.8767865505">
        <ele>2230.88</ele>
        <time>2019-09-07T11:29:42Z</time>
      </trkpt>
      <trkpt lat="42.6070344541" lon="0.8767932560">
        <ele>2232.32</ele>
        <time>2019-09-07T11:29:58Z</time>
      </trkpt>
      <trkpt lat="42.6070362143" lon="0.8768425416">
        <ele>2231.84</ele>
        <time>2019-09-07T11:30:08Z</time>
      </trkpt>
      <trkpt lat="42.6070500445" lon="0.8768660948">
        <ele>2231.84</ele>
        <time>2019-09-07T11:30:10Z</time>
      </trkpt>
      <trkpt lat="42.6070718374" lon="0.8769906498">
        <ele>2231.36</ele>
        <time>2019-09-07T11:30:22Z</time>
      </trkpt>
      <trkpt lat="42.6070947200" lon="0.8769967686">
        <ele>2232.32</ele>
        <time>2019-09-07T11:30:31Z</time>
      </trkpt>
      <trkpt lat="42.6071290020" lon="0.8770285361">
        <ele>2232.80</ele>
        <time>2019-09-07T11:30:38Z</time>
      </trkpt>
      <trkpt lat="42.6071375515" lon="0.8770639077">
        <ele>2232.32</ele>
        <time>2019-09-07T11:30:41Z</time>
      </trkpt>
      <trkpt lat="42.6072024275" lon="0.8771953359">
        <ele>2232.80</ele>
        <time>2019-09-07T11:30:53Z</time>
      </trkpt>
      <trkpt lat="42.6072341949" lon="0.8772598766">
        <ele>2232.32</ele>
        <time>2019-09-07T11:30:58Z</time>
      </trkpt>
      <trkpt lat="42.6072868332" lon="0.8773444500">
        <ele>2231.36</ele>
        <time>2019-09-07T11:31:05Z</time>
      </trkpt>
      <trkpt lat="42.6073206123" lon="0.8773906343">
        <ele>2230.40</ele>
        <time>2019-09-07T11:31:09Z</time>
      </trkpt>
      <trkpt lat="42.6074292418" lon="0.8774692565">
        <ele>2230.40</ele>
        <time>2019-09-07T11:31:21Z</time>
      </trkpt>
      <trkpt lat="42.6074727438" lon="0.8775087353">
        <ele>2231.84</ele>
        <time>2019-09-07T11:31:30Z</time>
      </trkpt>
      <trkpt lat="42.6074752584" lon="0.8775892854">
        <ele>2234.24</ele>
        <time>2019-09-07T11:31:40Z</time>
      </trkpt>
      <trkpt lat="42.6075529587" lon="0.8776458632">
        <ele>2236.16</ele>
        <time>2019-09-07T11:31:52Z</time>
      </trkpt>
      <trkpt lat="42.6076211035" lon="0.8777394053">
        <ele>2237.61</ele>
        <time>2019-09-07T11:32:05Z</time>
      </trkpt>
      <trkpt lat="42.6076648571" lon="0.8778230567">
        <ele>2238.57</ele>
        <time>2019-09-07T11:32:16Z</time>
      </trkpt>
      <trkpt lat="42.6076886617" lon="0.8778316900">
        <ele>2238.57</ele>
        <time>2019-09-07T11:32:20Z</time>
      </trkpt>
      <trkpt lat="42.6077351812" lon="0.8778801374">
        <ele>2239.53</ele>
        <time>2019-09-07T11:32:26Z</time>
      </trkpt>
      <trkpt lat="42.6078201737" lon="0.8779365476">
        <ele>2240.49</ele>
        <time>2019-09-07T11:32:37Z</time>
      </trkpt>
      <trkpt lat="42.6078700460" lon="0.8779728413">
        <ele>2240.97</ele>
        <time>2019-09-07T11:32:43Z</time>
      </trkpt>
      <trkpt lat="42.6079812739" lon="0.8780595101">
        <ele>2242.41</ele>
        <time>2019-09-07T11:32:55Z</time>
      </trkpt>
      <trkpt lat="42.6080822758" lon="0.8781196922">
        <ele>2242.89</ele>
        <time>2019-09-07T11:33:07Z</time>
      </trkpt>
      <trkpt lat="42.6080909092" lon="0.8781189378">
        <ele>2242.89</ele>
        <time>2019-09-07T11:33:08Z</time>
      </trkpt>
      <trkpt lat="42.6081838645" lon="0.8781536389">
        <ele>2241.93</ele>
        <time>2019-09-07T11:33:19Z</time>
      </trkpt>
      <trkpt lat="42.6082372572" lon="0.8781649545">
        <ele>2242.41</ele>
        <time>2019-09-07T11:33:29Z</time>
      </trkpt>
      <trkpt lat="42.6082748082" lon="0.8781752642">
        <ele>2242.41</ele>
        <time>2019-09-07T11:33:39Z</time>
      </trkpt>
      <trkpt lat="42.6083259378" lon="0.8782341052">
        <ele>2244.33</ele>
        <time>2019-09-07T11:33:50Z</time>
      </trkpt>
      <trkpt lat="42.6083651651" lon="0.8782733325">
        <ele>2245.78</ele>
        <time>2019-09-07T11:34:00Z</time>
      </trkpt>
      <trkpt lat="42.6084262691" lon="0.8782407269">
        <ele>2247.22</ele>
        <time>2019-09-07T11:34:11Z</time>
      </trkpt>
      <trkpt lat="42.6084381714" lon="0.8782401402">
        <ele>2247.22</ele>
        <time>2019-09-07T11:34:14Z</time>
      </trkpt>
      <trkpt lat="42.6084758900" lon="0.8782747574">
        <ele>2246.74</ele>
        <time>2019-09-07T11:34:24Z</time>
      </trkpt>
      <trkpt lat="42.6085338090" lon="0.8782942872">
        <ele>2248.66</ele>
        <time>2019-09-07T11:34:34Z</time>
      </trkpt>
      <trkpt lat="42.6085517462" lon="0.8783095423">
        <ele>2248.66</ele>
        <time>2019-09-07T11:34:36Z</time>
      </trkpt>
      <trkpt lat="42.6086043846" lon="0.8783456683">
        <ele>2248.66</ele>
        <time>2019-09-07T11:34:42Z</time>
      </trkpt>
      <trkpt lat="42.6086574420" lon="0.8784605842">
        <ele>2249.14</ele>
        <time>2019-09-07T11:34:56Z</time>
      </trkpt>
      <trkpt lat="42.6086551789" lon="0.8785021584">
        <ele>2250.58</ele>
        <time>2019-09-07T11:35:05Z</time>
      </trkpt>
      <trkpt lat="42.6086944900" lon="0.8786112070">
        <ele>2250.58</ele>
        <time>2019-09-07T11:35:16Z</time>
      </trkpt>
      <trkpt lat="42.6086966693" lon="0.8786954451">
        <ele>2252.99</ele>
        <time>2019-09-07T11:35:28Z</time>
      </trkpt>
      <trkpt lat="42.6087103318" lon="0.8787753247">
        <ele>2254.91</ele>
        <time>2019-09-07T11:35:38Z</time>
      </trkpt>
      <trkpt lat="42.6087487210" lon="0.8788778353">
        <ele>2255.39</ele>
        <time>2019-09-07T11:35:49Z</time>
      </trkpt>
      <trkpt lat="42.6087738667" lon="0.8789971098">
        <ele>2256.83</ele>
        <time>2019-09-07T11:36:02Z</time>
      </trkpt>
      <trkpt lat="42.6087700948" lon="0.8790932503">
        <ele>2258.75</ele>
        <time>2019-09-07T11:36:13Z</time>
      </trkpt>
      <trkpt lat="42.6087791473" lon="0.8791433740">
        <ele>2259.72</ele>
        <time>2019-09-07T11:36:18Z</time>
      </trkpt>
      <trkpt lat="42.6088027004" lon="0.8792700246">
        <ele>2260.20</ele>
        <time>2019-09-07T11:36:29Z</time>
      </trkpt>
      <trkpt lat="42.6088296063" lon="0.8793546818">
        <ele>2259.72</ele>
        <time>2019-09-07T11:36:39Z</time>
      </trkpt>
      <trkpt lat="42.6088538300" lon="0.8793881256">
        <ele>2259.72</ele>
        <time>2019-09-07T11:36:43Z</time>
      </trkpt>
      <trkpt lat="42.6088946499" lon="0.8794823382">
        <ele>2260.68</ele>
        <time>2019-09-07T11:36:55Z</time>
      </trkpt>
      <trkpt lat="42.6088851783" lon="0.8795644809">
        <ele>2262.60</ele>
        <time>2019-09-07T11:37:06Z</time>
      </trkpt>
      <trkpt lat="42.6089085639" lon="0.8795762155">
        <ele>2263.56</ele>
        <time>2019-09-07T11:37:18Z</time>
      </trkpt>
      <trkpt lat="42.6089163590" lon="0.8795851003">
        <ele>2263.56</ele>
        <time>2019-09-07T11:37:30Z</time>
      </trkpt>
      <trkpt lat="42.6089133415" lon="0.8795857709">
        <ele>2264.04</ele>
        <time>2019-09-07T11:37:49Z</time>
      </trkpt>
      <trkpt lat="42.6089497190" lon="0.8796462044">
        <ele>2263.08</ele>
        <time>2019-09-07T11:38:01Z</time>
      </trkpt>
      <trkpt lat="42.6089606993" lon="0.8796624653">
        <ele>2263.56</ele>
        <time>2019-09-07T11:38:12Z</time>
      </trkpt>
      <trkpt lat="42.6089979988" lon="0.8797344659">
        <ele>2263.56</ele>
        <time>2019-09-07T11:38:24Z</time>
      </trkpt>
      <trkpt lat="42.6090131700" lon="0.8798674028">
        <ele>2263.56</ele>
        <time>2019-09-07T11:38:36Z</time>
      </trkpt>
      <trkpt lat="42.6090272516" lon="0.8799031936">
        <ele>2263.56</ele>
        <time>2019-09-07T11:38:39Z</time>
      </trkpt>
      <trkpt lat="42.6090625394" lon="0.8799407445">
        <ele>2263.56</ele>
        <time>2019-09-07T11:38:42Z</time>
      </trkpt>
      <trkpt lat="42.6090697479" lon="0.8799659740">
        <ele>2263.56</ele>
        <time>2019-09-07T11:38:44Z</time>
      </trkpt>
      <trkpt lat="42.6091192849" lon="0.8800755255">
        <ele>2264.04</ele>
        <time>2019-09-07T11:38:56Z</time>
      </trkpt>
      <trkpt lat="42.6091529801" lon="0.8802625258">
        <ele>2263.56</ele>
        <time>2019-09-07T11:39:10Z</time>
      </trkpt>
      <trkpt lat="42.6091487892" lon="0.8803047705">
        <ele>2263.56</ele>
        <time>2019-09-07T11:39:13Z</time>
      </trkpt>
      <trkpt lat="42.6091439277" lon="0.8804244641">
        <ele>2263.56</ele>
        <time>2019-09-07T11:39:21Z</time>
      </trkpt>
      <trkpt lat="42.6091600209" lon="0.8805086184">
        <ele>2264.04</ele>
        <time>2019-09-07T11:39:31Z</time>
      </trkpt>
      <trkpt lat="42.6091597695" lon="0.8805375360">
        <ele>2263.56</ele>
        <time>2019-09-07T11:39:33Z</time>
      </trkpt>
      <trkpt lat="42.6091651339" lon="0.8806892484">
        <ele>2264.04</ele>
        <time>2019-09-07T11:39:45Z</time>
      </trkpt>
      <trkpt lat="42.6091813110" lon="0.8807452396">
        <ele>2265.00</ele>
        <time>2019-09-07T11:39:50Z</time>
      </trkpt>
      <trkpt lat="42.6091559138" lon="0.8808407094">
        <ele>2265.96</ele>
        <time>2019-09-07T11:40:01Z</time>
      </trkpt>
      <trkpt lat="42.6091125794" lon="0.8808832895">
        <ele>2265.96</ele>
        <time>2019-09-07T11:40:07Z</time>
      </trkpt>
      <trkpt lat="42.6090953965" lon="0.8809225168">
        <ele>2265.96</ele>
        <time>2019-09-07T11:40:10Z</time>
      </trkpt>
      <trkpt lat="42.6091140043" lon="0.8810312301">
        <ele>2265.48</ele>
        <time>2019-09-07T11:40:21Z</time>
      </trkpt>
      <trkpt lat="42.6091758627" lon="0.8810263686">
        <ele>2266.45</ele>
        <time>2019-09-07T11:40:31Z</time>
      </trkpt>
      <trkpt lat="42.6092284173" lon="0.8810203336">
        <ele>2266.45</ele>
        <time>2019-09-07T11:40:36Z</time>
      </trkpt>
      <trkpt lat="42.6093369629" lon="0.8811253589">
        <ele>2267.41</ele>
        <time>2019-09-07T11:40:51Z</time>
      </trkpt>
      <trkpt lat="42.6093808003" lon="0.8811856247">
        <ele>2268.85</ele>
        <time>2019-09-07T11:41:01Z</time>
      </trkpt>
      <trkpt lat="42.6094344445" lon="0.8812639955">
        <ele>2270.29</ele>
        <time>2019-09-07T11:41:12Z</time>
      </trkpt>
      <trkpt lat="42.6094874181" lon="0.8813155442">
        <ele>2272.21</ele>
        <time>2019-09-07T11:41:23Z</time>
      </trkpt>
      <trkpt lat="42.6094792876" lon="0.8813690208">
        <ele>2275.10</ele>
        <time>2019-09-07T11:41:35Z</time>
      </trkpt>
      <trkpt lat="42.6094443351" lon="0.8813990280">
        <ele>2276.54</ele>
        <time>2019-09-07T11:41:46Z</time>
      </trkpt>
      <trkpt lat="42.6094033476" lon="0.8814360760">
        <ele>2277.98</ele>
        <time>2019-09-07T11:41:58Z</time>
      </trkpt>
      <trkpt lat="42.6093847398" lon="0.8814675082">
        <ele>2279.90</ele>
        <time>2019-09-07T11:42:10Z</time>
      </trkpt>
      <trkpt lat="42.6093813032" lon="0.8815036342">
        <ele>2281.35</ele>
        <time>2019-09-07T11:42:21Z</time>
      </trkpt>
      <trkpt lat="42.6093461830" lon="0.8815263491">
        <ele>2283.27</ele>
        <time>2019-09-07T11:42:33Z</time>
      </trkpt>
      <trkpt lat="42.6093635336" lon="0.8815546799">
        <ele>2284.23</ele>
        <time>2019-09-07T11:42:45Z</time>
      </trkpt>
      <trkpt lat="42.6094017550" lon="0.8815742098">
        <ele>2285.19</ele>
        <time>2019-09-07T11:42:55Z</time>
      </trkpt>
      <trkpt lat="42.6094404794" lon="0.8815789875">
        <ele>2286.63</ele>
        <time>2019-09-07T11:43:06Z</time>
      </trkpt>
      <trkpt lat="42.6094451733" lon="0.8816306200">
        <ele>2287.59</ele>
        <time>2019-09-07T11:43:15Z</time>
      </trkpt>
      <trkpt lat="42.6094691455" lon="0.8817192167">
        <ele>2289.52</ele>
        <time>2019-09-07T11:43:28Z</time>
      </trkpt>
      <trkpt lat="42.6095146593" lon="0.8817115892">
        <ele>2291.92</ele>
        <time>2019-09-07T11:43:40Z</time>
      </trkpt>
      <trkpt lat="42.6095550600" lon="0.8817360643">
        <ele>2292.88</ele>
        <time>2019-09-07T11:43:50Z</time>
      </trkpt>
      <trkpt lat="42.6096259709" lon="0.8817042969">
        <ele>2293.36</ele>
        <time>2019-09-07T11:44:02Z</time>
      </trkpt>
      <trkpt lat="42.6096825488" lon="0.8816564362">
        <ele>2294.32</ele>
        <time>2019-09-07T11:44:13Z</time>
      </trkpt>
      <trkpt lat="42.6097072754" lon="0.8816607110">
        <ele>2294.80</ele>
        <time>2019-09-07T11:44:16Z</time>
      </trkpt>
      <trkpt lat="42.6097479276" lon="0.8816898800">
        <ele>2294.80</ele>
        <time>2019-09-07T11:44:24Z</time>
      </trkpt>
      <trkpt lat="42.6097917650" lon="0.8816635609">
        <ele>2294.80</ele>
        <time>2019-09-07T11:44:30Z</time>
      </trkpt>
      <trkpt lat="42.6098546293" lon="0.8816100843">
        <ele>2294.80</ele>
        <time>2019-09-07T11:44:40Z</time>
      </trkpt>
      <trkpt lat="42.6099079382" lon="0.8816198912">
        <ele>2294.80</ele>
        <time>2019-09-07T11:44:48Z</time>
      </trkpt>
      <trkpt lat="42.6099595707" lon="0.8816234116">
        <ele>2296.25</ele>
        <time>2019-09-07T11:44:57Z</time>
      </trkpt>
      <trkpt lat="42.6099774241" lon="0.8816388343">
        <ele>2296.73</ele>
        <time>2019-09-07T11:45:02Z</time>
      </trkpt>
      <trkpt lat="42.6100013964" lon="0.8816586994">
        <ele>2298.17</ele>
        <time>2019-09-07T11:45:10Z</time>
      </trkpt>
      <trkpt lat="42.6100251172" lon="0.8816904668">
        <ele>2298.65</ele>
        <time>2019-09-07T11:45:14Z</time>
      </trkpt>
      <trkpt lat="42.6100650150" lon="0.8817155287">
        <ele>2299.13</ele>
        <time>2019-09-07T11:45:20Z</time>
      </trkpt>
      <trkpt lat="42.6101160608" lon="0.8817584440">
        <ele>2300.09</ele>
        <time>2019-09-07T11:45:31Z</time>
      </trkpt>
      <trkpt lat="42.6101742312" lon="0.8818487171">
        <ele>2299.13</ele>
        <time>2019-09-07T11:45:42Z</time>
      </trkpt>
      <trkpt lat="42.6101819426" lon="0.8819061331">
        <ele>2298.65</ele>
        <time>2019-09-07T11:45:47Z</time>
      </trkpt>
      <trkpt lat="42.6102104411" lon="0.8819488809">
        <ele>2298.17</ele>
        <time>2019-09-07T11:45:53Z</time>
      </trkpt>
      <trkpt lat="42.6102230977" lon="0.8820204623">
        <ele>2299.13</ele>
        <time>2019-09-07T11:46:02Z</time>
      </trkpt>
      <trkpt lat="42.6102443039" lon="0.8820710052">
        <ele>2299.61</ele>
        <time>2019-09-07T11:46:11Z</time>
      </trkpt>
      <trkpt lat="42.6102837827" lon="0.8821173571">
        <ele>2299.13</ele>
        <time>2019-09-07T11:46:21Z</time>
      </trkpt>
      <trkpt lat="42.6103525981" lon="0.8821277507">
        <ele>2298.65</ele>
        <time>2019-09-07T11:46:32Z</time>
      </trkpt>
      <trkpt lat="42.6104065776" lon="0.8821658883">
        <ele>2299.13</ele>
        <time>2019-09-07T11:46:42Z</time>
      </trkpt>
      <trkpt lat="42.6104448829" lon="0.8821538184">
        <ele>2298.65</ele>
        <time>2019-09-07T11:46:53Z</time>
      </trkpt>
      <trkpt lat="42.6104615629" lon="0.8821185306">
        <ele>2297.21</ele>
        <time>2019-09-07T11:47:04Z</time>
      </trkpt>
      <trkpt lat="42.6105181407" lon="0.8821058739">
        <ele>2295.77</ele>
        <time>2019-09-07T11:47:15Z</time>
      </trkpt>
      <trkpt lat="42.6105547696" lon="0.8820684906">
        <ele>2294.32</ele>
        <time>2019-09-07T11:47:24Z</time>
      </trkpt>
      <trkpt lat="42.6105535123" lon="0.8820848353">
        <ele>2293.84</ele>
        <time>2019-09-07T11:47:41Z</time>
      </trkpt>
      <trkpt lat="42.6106127724" lon="0.8821433410">
        <ele>2293.36</ele>
        <time>2019-09-07T11:47:51Z</time>
      </trkpt>
      <trkpt lat="42.6106694341" lon="0.8821395691">
        <ele>2292.40</ele>
        <time>2019-09-07T11:48:01Z</time>
      </trkpt>
      <trkpt lat="42.6107241679" lon="0.8821639605">
        <ele>2291.92</ele>
        <time>2019-09-07T11:48:06Z</time>
      </trkpt>
      <trkpt lat="42.6107794885" lon="0.8822164312">
        <ele>2290.48</ele>
        <time>2019-09-07T11:48:15Z</time>
      </trkpt>
      <trkpt lat="42.6108221523" lon="0.8822252322">
        <ele>2290.00</ele>
        <time>2019-09-07T11:48:23Z</time>
      </trkpt>
      <trkpt lat="42.6108265109" lon="0.8821658045">
        <ele>2287.59</ele>
        <time>2019-09-07T11:48:35Z</time>
      </trkpt>
      <trkpt lat="42.6108255051" lon="0.8821494598">
        <ele>2287.59</ele>
        <time>2019-09-07T11:48:44Z</time>
      </trkpt>
      <trkpt lat="42.6108648162" lon="0.8821410779">
        <ele>2286.63</ele>
        <time>2019-09-07T11:48:55Z</time>
      </trkpt>
      <trkpt lat="42.6109051332" lon="0.8821142558">
        <ele>2285.19</ele>
        <time>2019-09-07T11:49:02Z</time>
      </trkpt>
      <trkpt lat="42.6109793130" lon="0.8820766211">
        <ele>2284.23</ele>
        <time>2019-09-07T11:49:13Z</time>
      </trkpt>
      <trkpt lat="42.6110264193" lon="0.8820283413">
        <ele>2282.79</ele>
        <time>2019-09-07T11:49:23Z</time>
      </trkpt>
      <trkpt lat="42.6110631321" lon="0.8820042852">
        <ele>2282.31</ele>
        <time>2019-09-07T11:49:27Z</time>
      </trkpt>
      <trkpt lat="42.6111724321" lon="0.8820538223">
        <ele>2281.83</ele>
        <time>2019-09-07T11:49:38Z</time>
      </trkpt>
      <trkpt lat="42.6112404931" lon="0.8820809796">
        <ele>2282.31</ele>
        <time>2019-09-07T11:49:44Z</time>
      </trkpt>
      <trkpt lat="42.6112676505" lon="0.8820799738">
        <ele>2282.31</ele>
        <time>2019-09-07T11:49:47Z</time>
      </trkpt>
      <trkpt lat="42.6113306824" lon="0.8820592705">
        <ele>2281.83</ele>
        <time>2019-09-07T11:49:58Z</time>
      </trkpt>
      <trkpt lat="42.6113930438" lon="0.8820373099">
        <ele>2281.35</ele>
        <time>2019-09-07T11:50:08Z</time>
      </trkpt>
      <trkpt lat="42.6114180218" lon="0.8820021898">
        <ele>2281.83</ele>
        <time>2019-09-07T11:50:20Z</time>
      </trkpt>
      <trkpt lat="42.6114379708" lon="0.8819918800">
        <ele>2281.83</ele>
        <time>2019-09-07T11:50:34Z</time>
      </trkpt>
      <trkpt lat="42.6115072053" lon="0.8820103202">
        <ele>2282.79</ele>
        <time>2019-09-07T11:50:46Z</time>
      </trkpt>
      <trkpt lat="42.6115797088" lon="0.8819949813">
        <ele>2284.23</ele>
        <time>2019-09-07T11:50:56Z</time>
      </trkpt>
      <trkpt lat="42.6116720773" lon="0.8820109908">
        <ele>2285.19</ele>
        <time>2019-09-07T11:51:07Z</time>
      </trkpt>
      <trkpt lat="42.6117049344" lon="0.8820254914">
        <ele>2285.19</ele>
        <time>2019-09-07T11:51:11Z</time>
      </trkpt>
      <trkpt lat="42.6117845625" lon="0.8821207937">
        <ele>2284.71</ele>
        <time>2019-09-07T11:51:23Z</time>
      </trkpt>
      <trkpt lat="42.6119172480" lon="0.8821925428">
        <ele>2285.19</ele>
        <time>2019-09-07T11:51:36Z</time>
      </trkpt>
      <trkpt lat="42.6119880751" lon="0.8821598534">
        <ele>2285.67</ele>
        <time>2019-09-07T11:51:46Z</time>
      </trkpt>
      <trkpt lat="42.6119936071" lon="0.8821620326">
        <ele>2285.19</ele>
        <time>2019-09-07T11:51:47Z</time>
      </trkpt>
      <trkpt lat="42.6120115444" lon="0.8821626194">
        <ele>2284.71</ele>
        <time>2019-09-07T11:51:49Z</time>
      </trkpt>
      <trkpt lat="42.6120827906" lon="0.8821466938">
        <ele>2283.75</ele>
        <time>2019-09-07T11:51:56Z</time>
      </trkpt>
      <trkpt lat="42.6121926773" lon="0.8822000865">
        <ele>2282.79</ele>
        <time>2019-09-07T11:52:08Z</time>
      </trkpt>
      <trkpt lat="42.6122952718" lon="0.8822166827">
        <ele>2282.31</ele>
        <time>2019-09-07T11:52:19Z</time>
      </trkpt>
      <trkpt lat="42.6123156399" lon="0.8822055347">
        <ele>2282.79</ele>
        <time>2019-09-07T11:52:22Z</time>
      </trkpt>
      <trkpt lat="42.6123422943" lon="0.8821961470">
        <ele>2283.27</ele>
        <time>2019-09-07T11:52:25Z</time>
      </trkpt>
      <trkpt lat="42.6124341600" lon="0.8822224662">
        <ele>2284.23</ele>
        <time>2019-09-07T11:52:37Z</time>
      </trkpt>
      <trkpt lat="42.6124516781" lon="0.8822333626">
        <ele>2285.19</ele>
        <time>2019-09-07T11:52:42Z</time>
      </trkpt>
      <trkpt lat="42.6124779973" lon="0.8822134137">
        <ele>2283.27</ele>
        <time>2019-09-07T11:52:45Z</time>
      </trkpt>
      <trkpt lat="42.6125919074" lon="0.8821760304">
        <ele>2282.31</ele>
        <time>2019-09-07T11:52:57Z</time>
      </trkpt>
      <trkpt lat="42.6126351580" lon="0.8822273277">
        <ele>2282.79</ele>
        <time>2019-09-07T11:53:07Z</time>
      </trkpt>
      <trkpt lat="42.6126536820" lon="0.8822430018">
        <ele>2282.79</ele>
        <time>2019-09-07T11:53:10Z</time>
      </trkpt>
      <trkpt lat="42.6126714516" lon="0.8822570834">
        <ele>2283.27</ele>
        <time>2019-09-07T11:53:12Z</time>
      </trkpt>
      <trkpt lat="42.6127613056" lon="0.8822862525">
        <ele>2284.23</ele>
        <time>2019-09-07T11:53:24Z</time>
      </trkpt>
      <trkpt lat="42.6128486451" lon="0.8823219594">
        <ele>2285.19</ele>
        <time>2019-09-07T11:53:38Z</time>
      </trkpt>
      <trkpt lat="42.6128546800" lon="0.8823294193">
        <ele>2285.19</ele>
        <time>2019-09-07T11:53:39Z</time>
      </trkpt>
      <trkpt lat="42.6129514072" lon="0.8823837340">
        <ele>2285.19</ele>
        <time>2019-09-07T11:53:51Z</time>
      </trkpt>
      <trkpt lat="42.6129679196" lon="0.8823953010">
        <ele>2285.19</ele>
        <time>2019-09-07T11:53:53Z</time>
      </trkpt>
      <trkpt lat="42.6130426861" lon="0.8824502025">
        <ele>2285.19</ele>
        <time>2019-09-07T11:54:04Z</time>
      </trkpt>
      <trkpt lat="42.6130973361" lon="0.8824836463">
        <ele>2285.19</ele>
        <time>2019-09-07T11:54:13Z</time>
      </trkpt>
      <trkpt lat="42.6131245773" lon="0.8824910223">
        <ele>2285.19</ele>
        <time>2019-09-07T11:54:16Z</time>
      </trkpt>
      <trkpt lat="42.6132046245" lon="0.8825674653">
        <ele>2285.67</ele>
        <time>2019-09-07T11:54:28Z</time>
      </trkpt>
      <trkpt lat="42.6132119168" lon="0.8825735841">
        <ele>2285.67</ele>
        <time>2019-09-07T11:54:29Z</time>
      </trkpt>
      <trkpt lat="42.6132907905" lon="0.8825330157">
        <ele>2286.15</ele>
        <time>2019-09-07T11:54:39Z</time>
      </trkpt>
      <trkpt lat="42.6133818179" lon="0.8825046010">
        <ele>2286.63</ele>
        <time>2019-09-07T11:54:48Z</time>
      </trkpt>
      <trkpt lat="42.6134362165" lon="0.8825346082">
        <ele>2286.63</ele>
        <time>2019-09-07T11:54:54Z</time>
      </trkpt>
      <trkpt lat="42.6135484502" lon="0.8825514559">
        <ele>2286.15</ele>
        <time>2019-09-07T11:55:07Z</time>
      </trkpt>
      <trkpt lat="42.6136411540" lon="0.8825218678">
        <ele>2287.59</ele>
        <time>2019-09-07T11:55:19Z</time>
      </trkpt>
      <trkpt lat="42.6137035154" lon="0.8824932855">
        <ele>2289.04</ele>
        <time>2019-09-07T11:55:29Z</time>
      </trkpt>
      <trkpt lat="42.6137768570" lon="0.8824491128">
        <ele>2290.00</ele>
        <time>2019-09-07T11:55:39Z</time>
      </trkpt>
      <trkpt lat="42.6138402242" lon="0.8824090473">
        <ele>2291.92</ele>
        <time>2019-09-07T11:55:51Z</time>
      </trkpt>
      <trkpt lat="42.6138943713" lon="0.8823531400">
        <ele>2293.36</ele>
        <time>2019-09-07T11:56:00Z</time>
      </trkpt>
      <trkpt lat="42.6139895059" lon="0.8823346160">
        <ele>2294.80</ele>
        <time>2019-09-07T11:56:13Z</time>
      </trkpt>
      <trkpt lat="42.6140453294" lon="0.8823055308">
        <ele>2295.28</ele>
        <time>2019-09-07T11:56:23Z</time>
      </trkpt>
      <trkpt lat="42.6140748337" lon="0.8823037706">
        <ele>2296.25</ele>
        <time>2019-09-07T11:56:32Z</time>
      </trkpt>
      <trkpt lat="42.6141153183" lon="0.8822669741">
        <ele>2297.21</ele>
        <time>2019-09-07T11:56:41Z</time>
      </trkpt>
      <trkpt lat="42.6141478401" lon="0.8822767809">
        <ele>2298.17</ele>
        <time>2019-09-07T11:56:52Z</time>
      </trkpt>
      <trkpt lat="42.6141369436" lon="0.8822916169">
        <ele>2298.17</ele>
        <time>2019-09-07T11:57:09Z</time>
      </trkpt>
      <trkpt lat="42.6141397934" lon="0.8823001664">
        <ele>2297.69</ele>
        <time>2019-09-07T11:57:30Z</time>
      </trkpt>
      <trkpt lat="42.6141235325" lon="0.8823272400">
        <ele>2296.73</ele>
        <time>2019-09-07T12:00:22Z</time>
      </trkpt>
      <trkpt lat="42.6141221914" lon="0.8823272400">
        <ele>2295.28</ele>
        <time>2019-09-07T12:00:31Z</time>
      </trkpt>
      <trkpt lat="42.6141470857" lon="0.8823201992">
        <ele>2295.28</ele>
        <time>2019-09-07T12:01:14Z</time>
      </trkpt>
      <trkpt lat="42.6141470019" lon="0.8823171817">
        <ele>2295.28</ele>
        <time>2019-09-07T12:01:35Z</time>
      </trkpt>
      <trkpt lat="42.6141371112" lon="0.8823260665">
        <ele>2295.28</ele>
        <time>2019-09-07T12:01:51Z</time>
      </trkpt>
      <trkpt lat="42.6141429786" lon="0.8823112305">
        <ele>2295.28</ele>
        <time>2019-09-07T12:02:11Z</time>
      </trkpt>
      <trkpt lat="42.6141379494" lon="0.8823261503">
        <ele>2295.28</ele>
        <time>2019-09-07T12:02:27Z</time>
      </trkpt>
      <trkpt lat="42.6141400449" lon="0.8823209535">
        <ele>2295.28</ele>
        <time>2019-09-07T12:02:47Z</time>
      </trkpt>
      <trkpt lat="42.6141366083" lon="0.8823217079">
        <ele>2295.28</ele>
        <time>2019-09-07T12:03:05Z</time>
      </trkpt>
      <trkpt lat="42.6141366083" lon="0.8823161758">
        <ele>2295.28</ele>
        <time>2019-09-07T12:03:15Z</time>
      </trkpt>
      <trkpt lat="42.6141345128" lon="0.8823150862">
        <ele>2295.28</ele>
        <time>2019-09-07T12:03:32Z</time>
      </trkpt>
      <trkpt lat="42.6141800266" lon="0.8823366277">
        <ele>2295.77</ele>
        <time>2019-09-07T12:03:42Z</time>
      </trkpt>
      <trkpt lat="42.6142046694" lon="0.8822792117">
        <ele>2296.73</ele>
        <time>2019-09-07T12:03:51Z</time>
      </trkpt>
      <trkpt lat="42.6142191701" lon="0.8822466899">
        <ele>2296.73</ele>
        <time>2019-09-07T12:03:54Z</time>
      </trkpt>
      <trkpt lat="42.6142416336" lon="0.8822114021">
        <ele>2296.25</ele>
        <time>2019-09-07T12:03:57Z</time>
      </trkpt>
      <trkpt lat="42.6143495087" lon="0.8821061254">
        <ele>2296.73</ele>
        <time>2019-09-07T12:04:09Z</time>
      </trkpt>
      <trkpt lat="42.6144078467" lon="0.8819929697">
        <ele>2297.21</ele>
        <time>2019-09-07T12:04:17Z</time>
      </trkpt>
      <trkpt lat="42.6144298073" lon="0.8819352183">
        <ele>2297.21</ele>
        <time>2019-09-07T12:04:22Z</time>
      </trkpt>
      <trkpt lat="42.6144546177" lon="0.8819161914">
        <ele>2297.69</ele>
        <time>2019-09-07T12:04:25Z</time>
      </trkpt>
      <trkpt lat="42.6144895703" lon="0.8818576019">
        <ele>2298.17</ele>
        <time>2019-09-07T12:04:30Z</time>
      </trkpt>
      <trkpt lat="42.6145656779" lon="0.8817923907">
        <ele>2296.25</ele>
        <time>2019-09-07T12:04:41Z</time>
      </trkpt>
      <trkpt lat="42.6146633271" lon="0.8816926461">
        <ele>2294.32</ele>
        <time>2019-09-07T12:04:52Z</time>
      </trkpt>
      <trkpt lat="42.6146686915" lon="0.8816532511">
        <ele>2294.32</ele>
        <time>2019-09-07T12:04:56Z</time>
      </trkpt>
      <trkpt lat="42.6146805938" lon="0.8816181310">
        <ele>2293.84</ele>
        <time>2019-09-07T12:04:59Z</time>
      </trkpt>
      <trkpt lat="42.6147370879" lon="0.8815798257">
        <ele>2292.40</ele>
        <time>2019-09-07T12:05:10Z</time>
      </trkpt>
      <trkpt lat="42.6147524267" lon="0.8815954998">
        <ele>2292.40</ele>
        <time>2019-09-07T12:05:12Z</time>
      </trkpt>
      <trkpt lat="42.6148872077" lon="0.8816517424">
        <ele>2292.88</ele>
        <time>2019-09-07T12:05:25Z</time>
      </trkpt>
      <trkpt lat="42.6149996929" lon="0.8816666622">
        <ele>2293.84</ele>
        <time>2019-09-07T12:05:36Z</time>
      </trkpt>
      <trkpt lat="42.6151267625" lon="0.8816836774">
        <ele>2294.32</ele>
        <time>2019-09-07T12:05:47Z</time>
      </trkpt>
      <trkpt lat="42.6152171195" lon="0.8815663308">
        <ele>2294.80</ele>
        <time>2019-09-07T12:05:58Z</time>
      </trkpt>
      <trkpt lat="42.6152553409" lon="0.8814856969">
        <ele>2294.80</ele>
        <time>2019-09-07T12:06:03Z</time>
      </trkpt>
      <trkpt lat="42.6153094042" lon="0.8813469764">
        <ele>2294.32</ele>
        <time>2019-09-07T12:06:13Z</time>
      </trkpt>
      <trkpt lat="42.6153320353" lon="0.8813229203">
        <ele>2294.32</ele>
        <time>2019-09-07T12:06:16Z</time>
      </trkpt>
      <trkpt lat="42.6153881103" lon="0.8813292067">
        <ele>2294.80</ele>
        <time>2019-09-07T12:06:21Z</time>
      </trkpt>
      <trkpt lat="42.6154849213" lon="0.8813448809">
        <ele>2295.77</ele>
        <time>2019-09-07T12:06:29Z</time>
      </trkpt>
      <trkpt lat="42.6156088896" lon="0.8814325556">
        <ele>2295.28</ele>
        <time>2019-09-07T12:06:41Z</time>
      </trkpt>
      <trkpt lat="42.6157150045" lon="0.8814520855">
        <ele>2295.77</ele>
        <time>2019-09-07T12:06:51Z</time>
      </trkpt>
      <trkpt lat="42.6158346143" lon="0.8814729564">
        <ele>2297.69</ele>
        <time>2019-09-07T12:07:02Z</time>
      </trkpt>
      <trkpt lat="42.6159380469" lon="0.8814718667">
        <ele>2299.61</ele>
        <time>2019-09-07T12:07:14Z</time>
      </trkpt>
      <trkpt lat="42.6160133164" lon="0.8815017063">
        <ele>2302.49</ele>
        <time>2019-09-07T12:07:25Z</time>
      </trkpt>
      <trkpt lat="42.6160624344" lon="0.8814957552">
        <ele>2304.42</ele>
        <time>2019-09-07T12:07:37Z</time>
      </trkpt>
      <trkpt lat="42.6160712354" lon="0.8814551029">
        <ele>2306.34</ele>
        <time>2019-09-07T12:07:46Z</time>
      </trkpt>
      <trkpt lat="42.6160765160" lon="0.8814161271">
        <ele>2307.30</ele>
        <time>2019-09-07T12:07:55Z</time>
      </trkpt>
      <trkpt lat="42.6160483528" lon="0.8813539334">
        <ele>2308.74</ele>
        <time>2019-09-07T12:08:04Z</time>
      </trkpt>
      <trkpt lat="42.6160438266" lon="0.8812650852">
        <ele>2310.19</ele>
        <time>2019-09-07T12:08:15Z</time>
      </trkpt>
      <trkpt lat="42.6160641946" lon="0.8811983652">
        <ele>2312.59</ele>
        <time>2019-09-07T12:08:26Z</time>
      </trkpt>
      <trkpt lat="42.6161278132" lon="0.8812030591">
        <ele>2314.03</ele>
        <time>2019-09-07T12:08:37Z</time>
      </trkpt>
      <trkpt lat="42.6161800325" lon="0.8811658435">
        <ele>2314.99</ele>
        <time>2019-09-07T12:08:47Z</time>
      </trkpt>
      <trkpt lat="42.6162260491" lon="0.8811114449">
        <ele>2315.95</ele>
        <time>2019-09-07T12:08:58Z</time>
      </trkpt>
      <trkpt lat="42.6162735745" lon="0.8810381871">
        <ele>2318.36</ele>
        <time>2019-09-07T12:09:10Z</time>
      </trkpt>
      <trkpt lat="42.6163532026" lon="0.8810011391">
        <ele>2319.32</ele>
        <time>2019-09-07T12:09:21Z</time>
      </trkpt>
      <trkpt lat="42.6163590699" lon="0.8809929248">
        <ele>2319.32</ele>
        <time>2019-09-07T12:09:22Z</time>
      </trkpt>
      <trkpt lat="42.6164817810" lon="0.8809227683">
        <ele>2320.28</ele>
        <time>2019-09-07T12:09:36Z</time>
      </trkpt>
      <trkpt lat="42.6166131254" lon="0.8809057530">
        <ele>2321.72</ele>
        <time>2019-09-07T12:09:50Z</time>
      </trkpt>
      <trkpt lat="42.6166888140" lon="0.8808957785">
        <ele>2322.68</ele>
        <time>2019-09-07T12:10:00Z</time>
      </trkpt>
      <trkpt lat="42.6167675201" lon="0.8809467405">
        <ele>2323.16</ele>
        <time>2019-09-07T12:10:10Z</time>
      </trkpt>
      <trkpt lat="42.6168334857" lon="0.8809962776">
        <ele>2325.09</ele>
        <time>2019-09-07T12:10:20Z</time>
      </trkpt>
      <trkpt lat="42.6168929972" lon="0.8809741493">
        <ele>2326.53</ele>
        <time>2019-09-07T12:10:30Z</time>
      </trkpt>
      <trkpt lat="42.6169595495" lon="0.8810431324">
        <ele>2328.45</ele>
        <time>2019-09-07T12:10:41Z</time>
      </trkpt>
      <trkpt lat="42.6170327235" lon="0.8810534421">
        <ele>2331.33</ele>
        <time>2019-09-07T12:10:52Z</time>
      </trkpt>
      <trkpt lat="42.6171058137" lon="0.8810828626">
        <ele>2332.78</ele>
        <time>2019-09-07T12:11:02Z</time>
      </trkpt>
      <trkpt lat="42.6171739586" lon="0.8810734749">
        <ele>2334.70</ele>
        <time>2019-09-07T12:11:14Z</time>
      </trkpt>
      <trkpt lat="42.6172177959" lon="0.8810484130">
        <ele>2335.66</ele>
        <time>2019-09-07T12:11:25Z</time>
      </trkpt>
      <trkpt lat="42.6171986014" lon="0.8811185695">
        <ele>2337.58</ele>
        <time>2019-09-07T12:11:36Z</time>
      </trkpt>
      <trkpt lat="42.6172249205" lon="0.8811432961">
        <ele>2339.51</ele>
        <time>2019-09-07T12:11:46Z</time>
      </trkpt>
      <trkpt lat="42.6172399241" lon="0.8810992073">
        <ele>2341.43</ele>
        <time>2019-09-07T12:11:58Z</time>
      </trkpt>
      <trkpt lat="42.6172758825" lon="0.8810270391">
        <ele>2341.43</ele>
        <time>2019-09-07T12:12:08Z</time>
      </trkpt>
      <trkpt lat="42.6172846835" lon="0.8810833655">
        <ele>2342.87</ele>
        <time>2019-09-07T12:12:18Z</time>
      </trkpt>
      <trkpt lat="42.6173021179" lon="0.8811631612">
        <ele>2344.31</ele>
        <time>2019-09-07T12:12:28Z</time>
      </trkpt>
      <trkpt lat="42.6173263416" lon="0.8811892290">
        <ele>2345.27</ele>
        <time>2019-09-07T12:12:37Z</time>
      </trkpt>
      <trkpt lat="42.6173544209" lon="0.8812627383">
        <ele>2347.20</ele>
        <time>2019-09-07T12:12:49Z</time>
      </trkpt>
      <trkpt lat="42.6174166985" lon="0.8812406100">
        <ele>2349.60</ele>
        <time>2019-09-07T12:13:00Z</time>
      </trkpt>
      <trkpt lat="42.6174668223" lon="0.8812351618">
        <ele>2352.00</ele>
        <time>2019-09-07T12:13:10Z</time>
      </trkpt>
      <trkpt lat="42.6175210532" lon="0.8811820205">
        <ele>2353.93</ele>
        <time>2019-09-07T12:13:21Z</time>
      </trkpt>
      <trkpt lat="42.6175357215" lon="0.8812368382">
        <ele>2355.37</ele>
        <time>2019-09-07T12:13:32Z</time>
      </trkpt>
      <trkpt lat="42.6175703388" lon="0.8812173922">
        <ele>2356.81</ele>
        <time>2019-09-07T12:13:43Z</time>
      </trkpt>
      <trkpt lat="42.6176104881" lon="0.8811995387">
        <ele>2357.77</ele>
        <time>2019-09-07T12:13:53Z</time>
      </trkpt>
      <trkpt lat="42.6176638808" lon="0.8811838645">
        <ele>2360.17</ele>
        <time>2019-09-07T12:14:07Z</time>
      </trkpt>
      <trkpt lat="42.6177128311" lon="0.8812229242">
        <ele>2361.62</ele>
        <time>2019-09-07T12:14:18Z</time>
      </trkpt>
      <trkpt lat="42.6177423354" lon="0.8811773267">
        <ele>2363.54</ele>
        <time>2019-09-07T12:14:29Z</time>
      </trkpt>
      <trkpt lat="42.6177696604" lon="0.8811387699">
        <ele>2364.50</ele>
        <time>2019-09-07T12:14:37Z</time>
      </trkpt>
      <trkpt lat="42.6177915372" lon="0.8810859639">
        <ele>2366.42</ele>
        <time>2019-09-07T12:14:47Z</time>
      </trkpt>
      <trkpt lat="42.6178204548" lon="0.8810683619">
        <ele>2366.90</ele>
        <time>2019-09-07T12:15:01Z</time>
      </trkpt>
      <trkpt lat="42.6178688183" lon="0.8810850419">
        <ele>2367.38</ele>
        <time>2019-09-07T12:15:10Z</time>
      </trkpt>
      <trkpt lat="42.6179301739" lon="0.8810215909">
        <ele>2368.83</ele>
        <time>2019-09-07T12:15:22Z</time>
      </trkpt>
      <trkpt lat="42.6179378014" lon="0.8810118679">
        <ele>2369.31</ele>
        <time>2019-09-07T12:15:23Z</time>
      </trkpt>
      <trkpt lat="42.6180001628" lon="0.8809729759">
        <ele>2369.79</ele>
        <time>2019-09-07T12:15:32Z</time>
      </trkpt>
      <trkpt lat="42.6180553157" lon="0.8809383586">
        <ele>2370.27</ele>
        <time>2019-09-07T12:15:40Z</time>
      </trkpt>
      <trkpt lat="42.6181542221" lon="0.8809589781">
        <ele>2371.71</ele>
        <time>2019-09-07T12:15:52Z</time>
      </trkpt>
      <trkpt lat="42.6182199363" lon="0.8809772506">
        <ele>2373.15</ele>
        <time>2019-09-07T12:16:04Z</time>
      </trkpt>
      <trkpt lat="42.6182317548" lon="0.8809822798">
        <ele>2373.63</ele>
        <time>2019-09-07T12:16:05Z</time>
      </trkpt>
      <trkpt lat="42.6183104608" lon="0.8809402026">
        <ele>2375.07</ele>
        <time>2019-09-07T12:16:15Z</time>
      </trkpt>
      <trkpt lat="42.6183358580" lon="0.8809077647">
        <ele>2375.55</ele>
        <time>2019-09-07T12:16:19Z</time>
      </trkpt>
      <trkpt lat="42.6183750853" lon="0.8809178229">
        <ele>2375.55</ele>
        <time>2019-09-07T12:16:24Z</time>
      </trkpt>
      <trkpt lat="42.6184667833" lon="0.8809493389">
        <ele>2376.52</ele>
        <time>2019-09-07T12:16:36Z</time>
      </trkpt>
      <trkpt lat="42.6185672823" lon="0.8809200022">
        <ele>2377.48</ele>
        <time>2019-09-07T12:16:49Z</time>
      </trkpt>
      <trkpt lat="42.6186387800" lon="0.8808764163">
        <ele>2378.92</ele>
        <time>2019-09-07T12:17:00Z</time>
      </trkpt>
      <trkpt lat="42.6186644286" lon="0.8808422182">
        <ele>2379.88</ele>
        <time>2019-09-07T12:17:12Z</time>
      </trkpt>
      <trkpt lat="42.6186793484" lon="0.8808395360">
        <ele>2380.36</ele>
        <time>2019-09-07T12:17:14Z</time>
      </trkpt>
      <trkpt lat="42.6187135465" lon="0.8808135521">
        <ele>2380.84</ele>
        <time>2019-09-07T12:17:18Z</time>
      </trkpt>
      <trkpt lat="42.6188267861" lon="0.8807575610">
        <ele>2381.80</ele>
        <time>2019-09-07T12:17:31Z</time>
      </trkpt>
      <trkpt lat="42.6188737247" lon="0.8807047550">
        <ele>2382.28</ele>
        <time>2019-09-07T12:17:36Z</time>
      </trkpt>
      <trkpt lat="42.6188981999" lon="0.8805870730">
        <ele>2383.25</ele>
        <time>2019-09-07T12:17:46Z</time>
      </trkpt>
      <trkpt lat="42.6189272851" lon="0.8805330098">
        <ele>2384.21</ele>
        <time>2019-09-07T12:17:52Z</time>
      </trkpt>
      <trkpt lat="42.6189532690" lon="0.8805116359">
        <ele>2384.69</ele>
        <time>2019-09-07T12:17:55Z</time>
      </trkpt>
      <trkpt lat="42.6189919934" lon="0.8804292418">
        <ele>2385.65</ele>
        <time>2019-09-07T12:18:02Z</time>
      </trkpt>
      <trkpt lat="42.6190493256" lon="0.8803133201">
        <ele>2386.13</ele>
        <time>2019-09-07T12:18:12Z</time>
      </trkpt>
      <trkpt lat="42.6190758124" lon="0.8801968955">
        <ele>2386.61</ele>
        <time>2019-09-07T12:18:25Z</time>
      </trkpt>
      <trkpt lat="42.6190738007" lon="0.8801225480">
        <ele>2387.57</ele>
        <time>2019-09-07T12:18:33Z</time>
      </trkpt>
      <trkpt lat="42.6190963481" lon="0.8800282516">
        <ele>2389.01</ele>
        <time>2019-09-07T12:18:44Z</time>
      </trkpt>
      <trkpt lat="42.6191324741" lon="0.8799223043">
        <ele>2390.94</ele>
        <time>2019-09-07T12:18:55Z</time>
      </trkpt>
      <trkpt lat="42.6191598829" lon="0.8798149321">
        <ele>2392.38</ele>
        <time>2019-09-07T12:19:08Z</time>
      </trkpt>
      <trkpt lat="42.6191939134" lon="0.8797759563">
        <ele>2394.78</ele>
        <time>2019-09-07T12:19:20Z</time>
      </trkpt>
      <trkpt lat="42.6192208193" lon="0.8797187917">
        <ele>2397.18</ele>
        <time>2019-09-07T12:19:32Z</time>
      </trkpt>
      <trkpt lat="42.6192540955" lon="0.8796850126">
        <ele>2398.15</ele>
        <time>2019-09-07T12:19:41Z</time>
      </trkpt>
      <trkpt lat="42.6192602143" lon="0.8796403371">
        <ele>2399.11</ele>
        <time>2019-09-07T12:19:50Z</time>
      </trkpt>
      <trkpt lat="42.6192491502" lon="0.8795788977">
        <ele>2400.07</ele>
        <time>2019-09-07T12:20:01Z</time>
      </trkpt>
      <trkpt lat="42.6192970946" lon="0.8795581106">
        <ele>2402.95</ele>
        <time>2019-09-07T12:20:13Z</time>
      </trkpt>
      <trkpt lat="42.6193235815" lon="0.8794941567">
        <ele>2404.39</ele>
        <time>2019-09-07T12:20:23Z</time>
      </trkpt>
      <trkpt lat="42.6193613000" lon="0.8794338070">
        <ele>2405.84</ele>
        <time>2019-09-07T12:20:34Z</time>
      </trkpt>
      <trkpt lat="42.6193699334" lon="0.8794204798">
        <ele>2405.84</ele>
        <time>2019-09-07T12:20:36Z</time>
      </trkpt>
      <trkpt lat="42.6193939894" lon="0.8793788217">
        <ele>2405.36</ele>
        <time>2019-09-07T12:20:47Z</time>
      </trkpt>
      <trkpt lat="42.6194415987" lon="0.8793126885">
        <ele>2404.88</ele>
        <time>2019-09-07T12:21:00Z</time>
      </trkpt>
      <trkpt lat="42.6194902975" lon="0.8792342339">
        <ele>2404.88</ele>
        <time>2019-09-07T12:21:08Z</time>
      </trkpt>
      <trkpt lat="42.6195260882" lon="0.8791839425">
        <ele>2403.43</ele>
        <time>2019-09-07T12:21:17Z</time>
      </trkpt>
      <trkpt lat="42.6195404213" lon="0.8791116904">
        <ele>2403.43</ele>
        <time>2019-09-07T12:21:26Z</time>
      </trkpt>
      <trkpt lat="42.6195514016" lon="0.8790952619">
        <ele>2407.76</ele>
        <time>2019-09-07T12:21:30Z</time>
      </trkpt>
      <trkpt lat="42.6195549220" lon="0.8790890593">
        <ele>2406.32</ele>
        <time>2019-09-07T12:21:31Z</time>
      </trkpt>
      <trkpt lat="42.6195769664" lon="0.8790740557">
        <ele>2404.88</ele>
        <time>2019-09-07T12:21:34Z</time>
      </trkpt>
      <trkpt lat="42.6196616236" lon="0.8790381812">
        <ele>2405.36</ele>
        <time>2019-09-07T12:21:46Z</time>
      </trkpt>
      <trkpt lat="42.6197018567" lon="0.8790296316">
        <ele>2406.32</ele>
        <time>2019-09-07T12:21:56Z</time>
      </trkpt>
      <trkpt lat="42.6197394077" lon="0.8789886441">
        <ele>2406.32</ele>
        <time>2019-09-07T12:22:06Z</time>
      </trkpt>
      <trkpt lat="42.6197555009" lon="0.8789377660">
        <ele>2408.24</ele>
        <time>2019-09-07T12:22:17Z</time>
      </trkpt>
      <trkpt lat="42.6198098995" lon="0.8789128717">
        <ele>2409.68</ele>
        <time>2019-09-07T12:22:29Z</time>
      </trkpt>
      <trkpt lat="42.6198448520" lon="0.8789173979">
        <ele>2410.64</ele>
        <time>2019-09-07T12:22:37Z</time>
      </trkpt>
      <trkpt lat="42.6199459378" lon="0.8789198287">
        <ele>2412.09</ele>
        <time>2019-09-07T12:22:48Z</time>
      </trkpt>
      <trkpt lat="42.6200147532" lon="0.8789093513">
        <ele>2413.53</ele>
        <time>2019-09-07T12:22:59Z</time>
      </trkpt>
      <trkpt lat="42.6200179383" lon="0.8788286336">
        <ele>2414.97</ele>
        <time>2019-09-07T12:23:10Z</time>
      </trkpt>
      <trkpt lat="42.6200468559" lon="0.8787806891">
        <ele>2417.37</ele>
        <time>2019-09-07T12:23:20Z</time>
      </trkpt>
      <trkpt lat="42.6200831495" lon="0.8787013963">
        <ele>2418.81</ele>
        <time>2019-09-07T12:23:31Z</time>
      </trkpt>
      <trkpt lat="42.6200894359" lon="0.8786951937">
        <ele>2418.81</ele>
        <time>2019-09-07T12:23:32Z</time>
      </trkpt>
      <trkpt lat="42.6201303396" lon="0.8786200080">
        <ele>2418.81</ele>
        <time>2019-09-07T12:23:40Z</time>
      </trkpt>
      <trkpt lat="42.6202245522" lon="0.8785257954">
        <ele>2418.81</ele>
        <time>2019-09-07T12:23:53Z</time>
      </trkpt>
      <trkpt lat="42.6203087065" lon="0.8784697205">
        <ele>2419.30</ele>
        <time>2019-09-07T12:24:05Z</time>
      </trkpt>
      <trkpt lat="42.6203904301" lon="0.8785180002">
        <ele>2419.78</ele>
        <time>2019-09-07T12:24:16Z</time>
      </trkpt>
      <trkpt lat="42.6204342674" lon="0.8784970455">
        <ele>2420.74</ele>
        <time>2019-09-07T12:24:25Z</time>
      </trkpt>
      <trkpt lat="42.6204953715" lon="0.8784895018">
        <ele>2419.30</ele>
        <time>2019-09-07T12:24:35Z</time>
      </trkpt>
      <trkpt lat="42.6205157395" lon="0.8784831315">
        <ele>2419.30</ele>
        <time>2019-09-07T12:24:37Z</time>
      </trkpt>
      <trkpt lat="42.6205966249" lon="0.8784540463">
        <ele>2419.30</ele>
        <time>2019-09-07T12:24:50Z</time>
      </trkpt>
      <trkpt lat="42.6206332538" lon="0.8784311637">
        <ele>2419.30</ele>
        <time>2019-09-07T12:24:59Z</time>
      </trkpt>
      <trkpt lat="42.6207000576" lon="0.8784419764">
        <ele>2419.30</ele>
        <time>2019-09-07T12:25:09Z</time>
      </trkpt>
      <trkpt lat="42.6207164861" lon="0.8784353547">
        <ele>2419.30</ele>
        <time>2019-09-07T12:25:11Z</time>
      </trkpt>
      <trkpt lat="42.6208025683" lon="0.8783502784">
        <ele>2418.81</ele>
        <time>2019-09-07T12:25:23Z</time>
      </trkpt>
      <trkpt lat="42.6208427176" lon="0.8782634418">
        <ele>2419.30</ele>
        <time>2019-09-07T12:25:33Z</time>
      </trkpt>
      <trkpt lat="42.6209234353" lon="0.8781849872">
        <ele>2419.78</ele>
        <time>2019-09-07T12:25:45Z</time>
      </trkpt>
      <trkpt lat="42.6209413726" lon="0.8781663794">
        <ele>2419.78</ele>
        <time>2019-09-07T12:25:49Z</time>
      </trkpt>
      <trkpt lat="42.6209697872" lon="0.8781395573">
        <ele>2420.26</ele>
        <time>2019-09-07T12:25:56Z</time>
      </trkpt>
      <trkpt lat="42.6209833659" lon="0.8780673891">
        <ele>2420.26</ele>
        <time>2019-09-07T12:26:02Z</time>
      </trkpt>
      <trkpt lat="42.6210235991" lon="0.8780140802">
        <ele>2420.74</ele>
        <time>2019-09-07T12:26:11Z</time>
      </trkpt>
      <trkpt lat="42.6210722141" lon="0.8780198637">
        <ele>2422.18</ele>
        <time>2019-09-07T12:26:21Z</time>
      </trkpt>
      <trkpt lat="42.6211269479" lon="0.8780351188">
        <ele>2422.66</ele>
        <time>2019-09-07T12:26:29Z</time>
      </trkpt>
      <trkpt lat="42.6211702824" lon="0.8780258149">
        <ele>2423.62</ele>
        <time>2019-09-07T12:26:39Z</time>
      </trkpt>
      <trkpt lat="42.6211767364" lon="0.8780097216">
        <ele>2424.10</ele>
        <time>2019-09-07T12:26:54Z</time>
      </trkpt>
      <trkpt lat="42.6212518383" lon="0.8780195285">
        <ele>2423.62</ele>
        <time>2019-09-07T12:27:04Z</time>
      </trkpt>
      <trkpt lat="42.6212841924" lon="0.8780248929">
        <ele>2423.14</ele>
        <time>2019-09-07T12:27:08Z</time>
      </trkpt>
      <trkpt lat="42.6213793270" lon="0.8780421596">
        <ele>2421.22</ele>
        <time>2019-09-07T12:27:21Z</time>
      </trkpt>
      <trkpt lat="42.6214262657" lon="0.8780533914">
        <ele>2420.74</ele>
        <time>2019-09-07T12:27:29Z</time>
      </trkpt>
      <trkpt lat="42.6214814186" lon="0.8780932054">
        <ele>2419.30</ele>
        <time>2019-09-07T12:27:39Z</time>
      </trkpt>
      <trkpt lat="42.6215420198" lon="0.8781237155">
        <ele>2417.85</ele>
        <time>2019-09-07T12:27:50Z</time>
      </trkpt>
      <trkpt lat="42.6216079853" lon="0.8781946264">
        <ele>2417.37</ele>
        <time>2019-09-07T12:28:02Z</time>
      </trkpt>
      <trkpt lat="42.6216737833" lon="0.8782443311">
        <ele>2418.33</ele>
        <time>2019-09-07T12:28:12Z</time>
      </trkpt>
      <trkpt lat="42.6217122562" lon="0.8782870788">
        <ele>2417.85</ele>
        <time>2019-09-07T12:28:17Z</time>
      </trkpt>
      <trkpt lat="42.6217720192" lon="0.8782864083">
        <ele>2418.33</ele>
        <time>2019-09-07T12:28:24Z</time>
      </trkpt>
      <trkpt lat="42.6218446903" lon="0.8783356100">
        <ele>2418.33</ele>
        <time>2019-09-07T12:28:34Z</time>
      </trkpt>
      <trkpt lat="42.6219253242" lon="0.8784026653">
        <ele>2418.33</ele>
        <time>2019-09-07T12:28:47Z</time>
      </trkpt>
      <trkpt lat="42.6218995918" lon="0.8784053475">
        <ele>2418.81</ele>
        <time>2019-09-07T12:29:02Z</time>
      </trkpt>
      <trkpt lat="42.6219028607" lon="0.8784110472">
        <ele>2418.81</ele>
        <time>2019-09-07T12:29:17Z</time>
      </trkpt>
      <trkpt lat="42.6219506375" lon="0.8784365281">
        <ele>2418.81</ele>
        <time>2019-09-07T12:29:26Z</time>
      </trkpt>
      <trkpt lat="42.6220063772" lon="0.8784504421">
        <ele>2418.81</ele>
        <time>2019-09-07T12:29:35Z</time>
      </trkpt>
      <trkpt lat="42.6220445987" lon="0.8784769289">
        <ele>2418.81</ele>
        <time>2019-09-07T12:29:43Z</time>
      </trkpt>
      <trkpt lat="42.6220795512" lon="0.8785017394">
        <ele>2419.30</ele>
        <time>2019-09-07T12:29:53Z</time>
      </trkpt>
      <trkpt lat="42.6221401524" lon="0.8785081934">
        <ele>2418.81</ele>
        <time>2019-09-07T12:30:03Z</time>
      </trkpt>
      <trkpt lat="42.6222075429" lon="0.8785032481">
        <ele>2419.78</ele>
        <time>2019-09-07T12:30:15Z</time>
      </trkpt>
      <trkpt lat="42.6222385559" lon="0.8784969617">
        <ele>2419.78</ele>
        <time>2019-09-07T12:30:23Z</time>
      </trkpt>
      <trkpt lat="42.6223285776" lon="0.8784517832">
        <ele>2419.30</ele>
        <time>2019-09-07T12:30:35Z</time>
      </trkpt>
      <trkpt lat="42.6223492809" lon="0.8784474246">
        <ele>2419.30</ele>
        <time>2019-09-07T12:30:38Z</time>
      </trkpt>
      <trkpt lat="42.6223863289" lon="0.8784936927">
        <ele>2420.74</ele>
        <time>2019-09-07T12:30:48Z</time>
      </trkpt>
      <trkpt lat="42.6224438287" lon="0.8784998115">
        <ele>2421.70</ele>
        <time>2019-09-07T12:31:02Z</time>
      </trkpt>
      <trkpt lat="42.6225052681" lon="0.8784542140">
        <ele>2423.14</ele>
        <time>2019-09-07T12:31:13Z</time>
      </trkpt>
      <trkpt lat="42.6225718204" lon="0.8784123883">
        <ele>2422.66</ele>
        <time>2019-09-07T12:31:24Z</time>
      </trkpt>
      <trkpt lat="42.6226183400" lon="0.8784794435">
        <ele>2423.62</ele>
        <time>2019-09-07T12:31:32Z</time>
      </trkpt>
      <trkpt lat="42.6226790249" lon="0.8784993924">
        <ele>2424.58</ele>
        <time>2019-09-07T12:31:38Z</time>
      </trkpt>
      <trkpt lat="42.6227235328" lon="0.8784907591">
        <ele>2424.58</ele>
        <time>2019-09-07T12:31:42Z</time>
      </trkpt>
      <trkpt lat="42.6227674540" lon="0.8785017394">
        <ele>2424.58</ele>
        <time>2019-09-07T12:31:46Z</time>
      </trkpt>
      <trkpt lat="42.6228925958" lon="0.8784987219">
        <ele>2423.62</ele>
        <time>2019-09-07T12:31:59Z</time>
      </trkpt>
      <trkpt lat="42.6229263749" lon="0.8784892503">
        <ele>2423.62</ele>
        <time>2019-09-07T12:32:03Z</time>
      </trkpt>
      <trkpt lat="42.6230614074" lon="0.8784844726">
        <ele>2424.10</ele>
        <time>2019-09-07T12:32:16Z</time>
      </trkpt>
      <trkpt lat="42.6231553685" lon="0.8785083611">
        <ele>2425.06</ele>
        <time>2019-09-07T12:32:27Z</time>
      </trkpt>
      <trkpt lat="42.6232234295" lon="0.8785210177">
        <ele>2426.99</ele>
        <time>2019-09-07T12:32:39Z</time>
      </trkpt>
      <trkpt lat="42.6232707873" lon="0.8784914296">
        <ele>2428.43</ele>
        <time>2019-09-07T12:32:51Z</time>
      </trkpt>
      <trkpt lat="42.6233137026" lon="0.8784392942">
        <ele>2430.83</ele>
        <time>2019-09-07T12:33:06Z</time>
      </trkpt>
      <trkpt lat="42.6233489066" lon="0.8784595784">
        <ele>2431.79</ele>
        <time>2019-09-07T12:33:15Z</time>
      </trkpt>
      <trkpt lat="42.6233825181" lon="0.8784858137">
        <ele>2433.71</ele>
        <time>2019-09-07T12:33:27Z</time>
      </trkpt>
      <trkpt lat="42.6234454662" lon="0.8784784377">
        <ele>2435.64</ele>
        <time>2019-09-07T12:33:41Z</time>
      </trkpt>
      <trkpt lat="42.6234742999" lon="0.8784531243">
        <ele>2437.08</ele>
        <time>2019-09-07T12:33:51Z</time>
      </trkpt>
      <trkpt lat="42.6235211547" lon="0.8784673735">
        <ele>2439.00</ele>
        <time>2019-09-07T12:34:03Z</time>
      </trkpt>
      <trkpt lat="42.6235589571" lon="0.8784560580">
        <ele>2439.96</ele>
        <time>2019-09-07T12:34:12Z</time>
      </trkpt>
      <trkpt lat="42.6236284431" lon="0.8784323372">
        <ele>2442.37</ele>
        <time>2019-09-07T12:34:27Z</time>
      </trkpt>
      <trkpt lat="42.6236702688" lon="0.8784025814">
        <ele>2443.81</ele>
        <time>2019-09-07T12:34:38Z</time>
      </trkpt>
      <trkpt lat="42.6237285230" lon="0.8783947863">
        <ele>2445.73</ele>
        <time>2019-09-07T12:34:49Z</time>
      </trkpt>
      <trkpt lat="42.6237568539" lon="0.8783371188">
        <ele>2447.17</ele>
        <time>2019-09-07T12:35:00Z</time>
      </trkpt>
      <trkpt lat="42.6237745397" lon="0.8782716561">
        <ele>2448.62</ele>
        <time>2019-09-07T12:35:11Z</time>
      </trkpt>
      <trkpt lat="42.6237752941" lon="0.8782312553">
        <ele>2449.58</ele>
        <time>2019-09-07T12:35:21Z</time>
      </trkpt>
      <trkpt lat="42.6237514056" lon="0.8781366237">
        <ele>2451.02</ele>
        <time>2019-09-07T12:35:33Z</time>
      </trkpt>
      <trkpt lat="42.6237347256" lon="0.8780833986">
        <ele>2452.46</ele>
        <time>2019-09-07T12:35:41Z</time>
      </trkpt>
      <trkpt lat="42.6237328816" lon="0.8780290000">
        <ele>2454.38</ele>
        <time>2019-09-07T12:35:51Z</time>
      </trkpt>
      <trkpt lat="42.6237683371" lon="0.8779404033">
        <ele>2455.82</ele>
        <time>2019-09-07T12:36:02Z</time>
      </trkpt>
      <trkpt lat="42.6237788983" lon="0.8779187780">
        <ele>2455.82</ele>
        <time>2019-09-07T12:36:04Z</time>
      </trkpt>
      <trkpt lat="42.6237738691" lon="0.8777683228">
        <ele>2456.31</ele>
        <time>2019-09-07T12:36:16Z</time>
      </trkpt>
      <trkpt lat="42.6237926446" lon="0.8777420875">
        <ele>2456.31</ele>
        <time>2019-09-07T12:36:19Z</time>
      </trkpt>
      <trkpt lat="42.6238274295" lon="0.8775794785">
        <ele>2455.34</ele>
        <time>2019-09-07T12:36:31Z</time>
      </trkpt>
      <trkpt lat="42.6238467079" lon="0.8775177039">
        <ele>2454.38</ele>
        <time>2019-09-07T12:36:38Z</time>
      </trkpt>
      <trkpt lat="42.6238417625" lon="0.8774793986">
        <ele>2453.90</ele>
        <time>2019-09-07T12:36:41Z</time>
      </trkpt>
      <trkpt lat="42.6238669083" lon="0.8774402551">
        <ele>2452.94</ele>
        <time>2019-09-07T12:36:51Z</time>
      </trkpt>
      <trkpt lat="42.6239254978" lon="0.8773781452">
        <ele>2451.98</ele>
        <time>2019-09-07T12:37:01Z</time>
      </trkpt>
      <trkpt lat="42.6239362266" lon="0.8773594536">
        <ele>2451.98</ele>
        <time>2019-09-07T12:37:04Z</time>
      </trkpt>
      <trkpt lat="42.6239821594" lon="0.8772945777">
        <ele>2450.06</ele>
        <time>2019-09-07T12:37:14Z</time>
      </trkpt>
      <trkpt lat="42.6240197942" lon="0.8772059809">
        <ele>2448.62</ele>
        <time>2019-09-07T12:37:23Z</time>
      </trkpt>
      <trkpt lat="42.6240691636" lon="0.8771426138">
        <ele>2446.69</ele>
        <time>2019-09-07T12:37:33Z</time>
      </trkpt>
      <trkpt lat="42.6240730193" lon="0.8771365788">
        <ele>2446.69</ele>
        <time>2019-09-07T12:37:34Z</time>
      </trkpt>
      <trkpt lat="42.6240854245" lon="0.8771170489">
        <ele>2446.21</ele>
        <time>2019-09-07T12:37:36Z</time>
      </trkpt>
      <trkpt lat="42.6241447683" lon="0.8770632371">
        <ele>2444.77</ele>
        <time>2019-09-07T12:37:47Z</time>
      </trkpt>
      <trkpt lat="42.6242005918" lon="0.8770569507">
        <ele>2442.85</ele>
        <time>2019-09-07T12:37:58Z</time>
      </trkpt>
      <trkpt lat="42.6242415793" lon="0.8769862913">
        <ele>2440.44</ele>
        <time>2019-09-07T12:38:09Z</time>
      </trkpt>
      <trkpt lat="42.6242426690" lon="0.8769714553">
        <ele>2440.44</ele>
        <time>2019-09-07T12:38:10Z</time>
      </trkpt>
      <trkpt lat="42.6242635399" lon="0.8769740537">
        <ele>2439.48</ele>
        <time>2019-09-07T12:38:13Z</time>
      </trkpt>
      <trkpt lat="42.6243492868" lon="0.8770097606">
        <ele>2438.52</ele>
        <time>2019-09-07T12:38:22Z</time>
      </trkpt>
      <trkpt lat="42.6245134044" lon="0.8770315535">
        <ele>2438.04</ele>
        <time>2019-09-07T12:38:38Z</time>
      </trkpt>
      <trkpt lat="42.6245655399" lon="0.8771145344">
        <ele>2440.92</ele>
        <time>2019-09-07T12:38:52Z</time>
      </trkpt>
      <trkpt lat="42.6245790347" lon="0.8771258499">
        <ele>2441.41</ele>
        <time>2019-09-07T12:38:54Z</time>
      </trkpt>
      <trkpt lat="42.6246382110" lon="0.8771582041">
        <ele>2443.81</ele>
        <time>2019-09-07T12:39:03Z</time>
      </trkpt>
      <trkpt lat="42.6246787794" lon="0.8771975990">
        <ele>2444.77</ele>
        <time>2019-09-07T12:39:13Z</time>
      </trkpt>
      <trkpt lat="42.6247566473" lon="0.8772127703">
        <ele>2447.17</ele>
        <time>2019-09-07T12:39:26Z</time>
      </trkpt>
      <trkpt lat="42.6248048432" lon="0.8772261813">
        <ele>2448.62</ele>
        <time>2019-09-07T12:39:38Z</time>
      </trkpt>
      <trkpt lat="42.6248254627" lon="0.8772135247">
        <ele>2448.62</ele>
        <time>2019-09-07T12:39:49Z</time>
      </trkpt>
      <trkpt lat="42.6248279773" lon="0.8772089146">
        <ele>2448.13</ele>
        <time>2019-09-07T12:40:00Z</time>
      </trkpt>
      <trkpt lat="42.6248248760" lon="0.8772133570">
        <ele>2448.13</ele>
        <time>2019-09-07T12:40:24Z</time>
      </trkpt>
      <trkpt lat="42.6248227805" lon="0.8772181347">
        <ele>2447.65</ele>
        <time>2019-09-07T12:40:45Z</time>
      </trkpt>
      <trkpt lat="42.6248194277" lon="0.8772199787">
        <ele>2447.17</ele>
        <time>2019-09-07T12:40:56Z</time>
      </trkpt>
      <trkpt lat="42.6248270553" lon="0.8772283606">
        <ele>2447.17</ele>
        <time>2019-09-07T12:41:18Z</time>
      </trkpt>
      <trkpt lat="42.6248715632" lon="0.8772960026">
        <ele>2448.13</ele>
        <time>2019-09-07T12:41:31Z</time>
      </trkpt>
      <trkpt lat="42.6248782687" lon="0.8773423545">
        <ele>2448.13</ele>
        <time>2019-09-07T12:41:35Z</time>
      </trkpt>
      <trkpt lat="42.6249345951" lon="0.8774852660">
        <ele>2448.62</ele>
        <time>2019-09-07T12:41:47Z</time>
      </trkpt>
      <trkpt lat="42.6249743253" lon="0.8776121680">
        <ele>2449.58</ele>
        <time>2019-09-07T12:41:58Z</time>
      </trkpt>
      <trkpt lat="42.6250398718" lon="0.8777392376">
        <ele>2451.98</ele>
        <time>2019-09-07T12:42:12Z</time>
      </trkpt>
      <trkpt lat="42.6250889897" lon="0.8777249046">
        <ele>2452.46</ele>
        <time>2019-09-07T12:42:17Z</time>
      </trkpt>
      <trkpt lat="42.6251945179" lon="0.8776567597">
        <ele>2453.42</ele>
        <time>2019-09-07T12:42:27Z</time>
      </trkpt>
      <trkpt lat="42.6252441388" lon="0.8776556700">
        <ele>2453.42</ele>
        <time>2019-09-07T12:42:31Z</time>
      </trkpt>
      <trkpt lat="42.6253591385" lon="0.8776871860">
        <ele>2453.42</ele>
        <time>2019-09-07T12:42:41Z</time>
      </trkpt>
      <trkpt lat="42.6254960988" lon="0.8777583484">
        <ele>2454.38</ele>
        <time>2019-09-07T12:42:54Z</time>
      </trkpt>
      <trkpt lat="42.6255214959" lon="0.8777647186">
        <ele>2454.38</ele>
        <time>2019-09-07T12:42:57Z</time>
      </trkpt>
      <trkpt lat="42.6256101765" lon="0.8777347114">
        <ele>2454.86</ele>
        <time>2019-09-07T12:43:07Z</time>
      </trkpt>
      <trkpt lat="42.6256997790" lon="0.8777986653">
        <ele>2457.27</ele>
        <time>2019-09-07T12:43:20Z</time>
      </trkpt>
      <trkpt lat="42.6257845201" lon="0.8777457755">
        <ele>2459.19</ele>
        <time>2019-09-07T12:43:31Z</time>
      </trkpt>
      <trkpt lat="42.6258535031" lon="0.8778348751">
        <ele>2461.59</ele>
        <time>2019-09-07T12:43:42Z</time>
      </trkpt>
      <trkpt lat="42.6259022020" lon="0.8778959792">
        <ele>2461.59</ele>
        <time>2019-09-07T12:43:48Z</time>
      </trkpt>
      <trkpt lat="42.6260181237" lon="0.8779378049">
        <ele>2462.55</ele>
        <time>2019-09-07T12:43:59Z</time>
      </trkpt>
      <trkpt lat="42.6261199638" lon="0.8779005893">
        <ele>2463.04</ele>
        <time>2019-09-07T12:44:11Z</time>
      </trkpt>
      <trkpt lat="42.6261708420" lon="0.8778701629">
        <ele>2464.96</ele>
        <time>2019-09-07T12:44:22Z</time>
      </trkpt>
      <trkpt lat="42.6262194570" lon="0.8778508846">
        <ele>2466.40</ele>
        <time>2019-09-07T12:44:32Z</time>
      </trkpt>
      <trkpt lat="42.6262250729" lon="0.8778483700">
        <ele>2466.88</ele>
        <time>2019-09-07T12:44:44Z</time>
      </trkpt>
      <trkpt lat="42.6262297668" lon="0.8778452687">
        <ele>2467.36</ele>
        <time>2019-09-07T12:45:02Z</time>
      </trkpt>
      <trkpt lat="42.6262305211" lon="0.8778340369">
        <ele>2467.36</ele>
        <time>2019-09-07T12:45:26Z</time>
      </trkpt>
      <trkpt lat="42.6262326166" lon="0.8777176961">
        <ele>2467.36</ele>
        <time>2019-09-07T12:45:38Z</time>
      </trkpt>
      <trkpt lat="42.6262314431" lon="0.8776912093">
        <ele>2466.88</ele>
        <time>2019-09-07T12:45:40Z</time>
      </trkpt>
      <trkpt lat="42.6262429263" lon="0.8776402473">
        <ele>2465.92</ele>
        <time>2019-09-07T12:45:44Z</time>
      </trkpt>
      <trkpt lat="42.6262709219" lon="0.8774867747">
        <ele>2463.52</ele>
        <time>2019-09-07T12:45:56Z</time>
      </trkpt>
      <trkpt lat="42.6262606122" lon="0.8772937395">
        <ele>2462.55</ele>
        <time>2019-09-07T12:46:08Z</time>
      </trkpt>
      <trkpt lat="42.6262765378" lon="0.8771250956">
        <ele>2463.04</ele>
        <time>2019-09-07T12:46:20Z</time>
      </trkpt>
      <trkpt lat="42.6262368914" lon="0.8769510034">
        <ele>2464.48</ele>
        <time>2019-09-07T12:46:32Z</time>
      </trkpt>
      <trkpt lat="42.6262242347" lon="0.8769275341">
        <ele>2464.48</ele>
        <time>2019-09-07T12:46:34Z</time>
      </trkpt>
      <trkpt lat="42.6262200437" lon="0.8769028913">
        <ele>2464.00</ele>
        <time>2019-09-07T12:46:36Z</time>
      </trkpt>
      <trkpt lat="42.6262081414" lon="0.8768816013">
        <ele>2464.00</ele>
        <time>2019-09-07T12:46:38Z</time>
      </trkpt>
      <trkpt lat="42.6261558384" lon="0.8767416235">
        <ele>2461.59</ele>
        <time>2019-09-07T12:46:50Z</time>
      </trkpt>
      <trkpt lat="42.6261220593" lon="0.8766693715">
        <ele>2461.11</ele>
        <time>2019-09-07T12:46:57Z</time>
      </trkpt>
      <trkpt lat="42.6260752883" lon="0.8766199183">
        <ele>2462.07</ele>
        <time>2019-09-07T12:47:04Z</time>
      </trkpt>
      <trkpt lat="42.6260205545" lon="0.8764992189">
        <ele>2463.04</ele>
        <time>2019-09-07T12:47:14Z</time>
      </trkpt>
      <trkpt lat="42.6259960793" lon="0.8764395397">
        <ele>2463.04</ele>
        <time>2019-09-07T12:47:25Z</time>
      </trkpt>
      <trkpt lat="42.6260066405" lon="0.8763975464">
        <ele>2463.04</ele>
        <time>2019-09-07T12:47:28Z</time>
      </trkpt>
      <trkpt lat="42.6260234043" lon="0.8763638511">
        <ele>2463.04</ele>
        <time>2019-09-07T12:47:31Z</time>
      </trkpt>
      <trkpt lat="42.6260072272" lon="0.8762115519">
        <ele>2463.04</ele>
        <time>2019-09-07T12:47:42Z</time>
      </trkpt>
      <trkpt lat="42.6260674931" lon="0.8760923613">
        <ele>2464.48</ele>
        <time>2019-09-07T12:47:54Z</time>
      </trkpt>
      <trkpt lat="42.6261033677" lon="0.8760057762">
        <ele>2467.36</ele>
        <time>2019-09-07T12:48:06Z</time>
      </trkpt>
      <trkpt lat="42.6261340454" lon="0.8759358712">
        <ele>2469.76</ele>
        <time>2019-09-07T12:48:17Z</time>
      </trkpt>
      <trkpt lat="42.6261215564" lon="0.8758370485">
        <ele>2471.69</ele>
        <time>2019-09-07T12:48:27Z</time>
      </trkpt>
      <trkpt lat="42.6261182036" lon="0.8757290058">
        <ele>2473.13</ele>
        <time>2019-09-07T12:48:39Z</time>
      </trkpt>
      <trkpt lat="42.6261190418" lon="0.8756303508">
        <ele>2474.57</ele>
        <time>2019-09-07T12:48:49Z</time>
      </trkpt>
      <trkpt lat="42.6261314470" lon="0.8755256608">
        <ele>2476.49</ele>
        <time>2019-09-07T12:48:59Z</time>
      </trkpt>
      <trkpt lat="42.6261440199" lon="0.8754784707">
        <ele>2476.49</ele>
        <time>2019-09-07T12:49:09Z</time>
      </trkpt>
      <trkpt lat="42.6261970773" lon="0.8754562587">
        <ele>2476.49</ele>
        <time>2019-09-07T12:49:18Z</time>
      </trkpt>
      <trkpt lat="42.6262310240" lon="0.8754147682">
        <ele>2476.97</ele>
        <time>2019-09-07T12:49:23Z</time>
      </trkpt>
      <trkpt lat="42.6263011806" lon="0.8753384091">
        <ele>2477.94</ele>
        <time>2019-09-07T12:49:33Z</time>
      </trkpt>
      <trkpt lat="42.6263927110" lon="0.8752933145">
        <ele>2475.53</ele>
        <time>2019-09-07T12:49:42Z</time>
      </trkpt>
      <trkpt lat="42.6264150906" lon="0.8752327133">
        <ele>2475.53</ele>
        <time>2019-09-07T12:49:46Z</time>
      </trkpt>
      <trkpt lat="42.6264766976" lon="0.8750678413">
        <ele>2474.57</ele>
        <time>2019-09-07T12:49:57Z</time>
      </trkpt>
      <trkpt lat="42.6265626960" lon="0.8749515843">
        <ele>2474.09</ele>
        <time>2019-09-07T12:50:10Z</time>
      </trkpt>
      <trkpt lat="42.6265986543" lon="0.8748620655">
        <ele>2476.01</ele>
        <time>2019-09-07T12:50:21Z</time>
      </trkpt>
      <trkpt lat="42.6266306732" lon="0.8748689387">
        <ele>2476.49</ele>
        <time>2019-09-07T12:50:29Z</time>
      </trkpt>
      <trkpt lat="42.6266757678" lon="0.8748069126">
        <ele>2474.57</ele>
        <time>2019-09-07T12:50:39Z</time>
      </trkpt>
      <trkpt lat="42.6266699005" lon="0.8747637458">
        <ele>2473.13</ele>
        <time>2019-09-07T12:50:49Z</time>
      </trkpt>
      <trkpt lat="42.6266869996" lon="0.8747338224">
        <ele>2472.17</ele>
        <time>2019-09-07T12:50:55Z</time>
      </trkpt>
      <trkpt lat="42.6267716568" lon="0.8747051563">
        <ele>2470.73</ele>
        <time>2019-09-07T12:51:06Z</time>
      </trkpt>
      <trkpt lat="42.6268293243" lon="0.8747238480">
        <ele>2468.32</ele>
        <time>2019-09-07T12:51:17Z</time>
      </trkpt>
      <trkpt lat="42.6268884167" lon="0.8746452257">
        <ele>2466.40</ele>
        <time>2019-09-07T12:51:27Z</time>
      </trkpt>
      <trkpt lat="42.6268934458" lon="0.8746316470">
        <ele>2466.40</ele>
        <time>2019-09-07T12:51:28Z</time>
      </trkpt>
      <trkpt lat="42.6269162446" lon="0.8745296393">
        <ele>2464.00</ele>
        <time>2019-09-07T12:51:41Z</time>
      </trkpt>
      <trkpt lat="42.6269452460" lon="0.8744821977">
        <ele>2462.07</ele>
        <time>2019-09-07T12:51:50Z</time>
      </trkpt>
      <trkpt lat="42.6269366965" lon="0.8744454850">
        <ele>2460.15</ele>
        <time>2019-09-07T12:52:03Z</time>
      </trkpt>
      <trkpt lat="42.6269272249" lon="0.8744138852">
        <ele>2458.71</ele>
        <time>2019-09-07T12:52:11Z</time>
      </trkpt>
      <trkpt lat="42.6269088686" lon="0.8743995521">
        <ele>2456.79</ele>
        <time>2019-09-07T12:52:24Z</time>
      </trkpt>
      <trkpt lat="42.6269437373" lon="0.8743407950">
        <ele>2456.31</ele>
        <time>2019-09-07T12:52:37Z</time>
      </trkpt>
      <trkpt lat="42.6269553043" lon="0.8743056748">
        <ele>2454.86</ele>
        <time>2019-09-07T12:52:49Z</time>
      </trkpt>
      <trkpt lat="42.6269024145" lon="0.8742656931">
        <ele>2453.42</ele>
        <time>2019-09-07T12:53:01Z</time>
      </trkpt>
      <trkpt lat="42.6269117184" lon="0.8742400445">
        <ele>2451.50</ele>
        <time>2019-09-07T12:53:14Z</time>
      </trkpt>
      <trkpt lat="42.6269648597" lon="0.8742105402">
        <ele>2451.02</ele>
        <time>2019-09-07T12:53:29Z</time>
      </trkpt>
      <trkpt lat="42.6270190906" lon="0.8741724864">
        <ele>2448.62</ele>
        <time>2019-09-07T12:53:40Z</time>
      </trkpt>
      <trkpt lat="42.6270442363" lon="0.8741025813">
        <ele>2447.65</ele>
        <time>2019-09-07T12:53:52Z</time>
      </trkpt>
      <trkpt lat="42.6270768419" lon="0.8740429860">
        <ele>2446.21</ele>
        <time>2019-09-07T12:54:01Z</time>
      </trkpt>
      <trkpt lat="42.6270897500" lon="0.8739890903">
        <ele>2444.29</ele>
        <time>2019-09-07T12:54:12Z</time>
      </trkpt>
      <trkpt lat="42.6270968746" lon="0.8739060257">
        <ele>2441.41</ele>
        <time>2019-09-07T12:54:24Z</time>
      </trkpt>
      <trkpt lat="42.6271004789" lon="0.8739020023">
        <ele>2441.41</ele>
        <time>2019-09-07T12:54:25Z</time>
      </trkpt>
      <trkpt lat="42.6271250378" lon="0.8738481905">
        <ele>2439.96</ele>
        <time>2019-09-07T12:54:34Z</time>
      </trkpt>
      <trkpt lat="42.6270939410" lon="0.8738023415">
        <ele>2438.52</ele>
        <time>2019-09-07T12:54:44Z</time>
      </trkpt>
      <trkpt lat="42.6270875707" lon="0.8737714961">
        <ele>2436.60</ele>
        <time>2019-09-07T12:54:55Z</time>
      </trkpt>
      <trkpt lat="42.6271129679" lon="0.8736694045">
        <ele>2435.16</ele>
        <time>2019-09-07T12:55:05Z</time>
      </trkpt>
      <trkpt lat="42.6271376945" lon="0.8736250643">
        <ele>2433.23</ele>
        <time>2019-09-07T12:55:14Z</time>
      </trkpt>
      <trkpt lat="42.6271348447" lon="0.8735886868">
        <ele>2432.75</ele>
        <time>2019-09-07T12:55:19Z</time>
      </trkpt>
      <trkpt lat="42.6271227747" lon="0.8735202905">
        <ele>2430.83</ele>
        <time>2019-09-07T12:55:29Z</time>
      </trkpt>
      <trkpt lat="42.6271506026" lon="0.8734892774">
        <ele>2429.87</ele>
        <time>2019-09-07T12:55:33Z</time>
      </trkpt>
      <trkpt lat="42.6271487586" lon="0.8733866829">
        <ele>2427.95</ele>
        <time>2019-09-07T12:55:43Z</time>
      </trkpt>
      <trkpt lat="42.6271700487" lon="0.8733625431">
        <ele>2427.47</ele>
        <time>2019-09-07T12:55:46Z</time>
      </trkpt>
      <trkpt lat="42.6271913387" lon="0.8733503893">
        <ele>2426.99</ele>
        <time>2019-09-07T12:55:48Z</time>
      </trkpt>
      <trkpt lat="42.6272282191" lon="0.8733182866">
        <ele>2426.99</ele>
        <time>2019-09-07T12:55:52Z</time>
      </trkpt>
      <trkpt lat="42.6272464916" lon="0.8733122516">
        <ele>2426.50</ele>
        <time>2019-09-07T12:55:54Z</time>
      </trkpt>
      <trkpt lat="42.6273285504" lon="0.8731670771">
        <ele>2425.06</ele>
        <time>2019-09-07T12:56:07Z</time>
      </trkpt>
      <trkpt lat="42.6273699570" lon="0.8730799053">
        <ele>2423.62</ele>
        <time>2019-09-07T12:56:18Z</time>
      </trkpt>
      <trkpt lat="42.6273930911" lon="0.8730204776">
        <ele>2421.70</ele>
        <time>2019-09-07T12:56:29Z</time>
      </trkpt>
      <trkpt lat="42.6274479926" lon="0.8729930688">
        <ele>2419.78</ele>
        <time>2019-09-07T12:56:41Z</time>
      </trkpt>
      <trkpt lat="42.6274220925" lon="0.8729508240">
        <ele>2418.81</ele>
        <time>2019-09-07T12:56:49Z</time>
      </trkpt>
      <trkpt lat="42.6274246909" lon="0.8729192242">
        <ele>2415.93</ele>
        <time>2019-09-07T12:57:02Z</time>
      </trkpt>
      <trkpt lat="42.6274692826" lon="0.8728906419">
        <ele>2413.53</ele>
        <time>2019-09-07T12:57:13Z</time>
      </trkpt>
      <trkpt lat="42.6274357550" lon="0.8728468046">
        <ele>2411.60</ele>
        <time>2019-09-07T12:57:23Z</time>
      </trkpt>
      <trkpt lat="42.6274755690" lon="0.8728340641">
        <ele>2410.16</ele>
        <time>2019-09-07T12:57:31Z</time>
      </trkpt>
      <trkpt lat="42.6275064982" lon="0.8728130255">
        <ele>2408.72</ele>
        <time>2019-09-07T12:57:41Z</time>
      </trkpt>
      <trkpt lat="42.6274935901" lon="0.8727168851">
        <ele>2406.32</ele>
        <time>2019-09-07T12:57:54Z</time>
      </trkpt>
      <trkpt lat="42.6275704522" lon="0.8727172203">
        <ele>2403.43</ele>
        <time>2019-09-07T12:58:06Z</time>
      </trkpt>
      <trkpt lat="42.6276054047" lon="0.8726743888">
        <ele>2401.51</ele>
        <time>2019-09-07T12:58:18Z</time>
      </trkpt>
      <trkpt lat="42.6276371721" lon="0.8726882190">
        <ele>2399.59</ele>
        <time>2019-09-07T12:58:28Z</time>
      </trkpt>
      <trkpt lat="42.6276735496" lon="0.8726618160">
        <ele>2397.67</ele>
        <time>2019-09-07T12:58:40Z</time>
      </trkpt>
      <trkpt lat="42.6277051494" lon="0.8726472314">
        <ele>2396.22</ele>
        <time>2019-09-07T12:58:51Z</time>
      </trkpt>
      <trkpt lat="42.6277229190" lon="0.8725977782">
        <ele>2394.78</ele>
        <time>2019-09-07T12:59:01Z</time>
      </trkpt>
      <trkpt lat="42.6277768984" lon="0.8725878876">
        <ele>2392.38</ele>
        <time>2019-09-07T12:59:11Z</time>
      </trkpt>
      <trkpt lat="42.6278167963" lon="0.8725495823">
        <ele>2390.94</ele>
        <time>2019-09-07T12:59:22Z</time>
      </trkpt>
      <trkpt lat="42.6278479770" lon="0.8724907413">
        <ele>2389.01</ele>
        <time>2019-09-07T12:59:33Z</time>
      </trkpt>
      <trkpt lat="42.6278824266" lon="0.8724599797">
        <ele>2387.09</ele>
        <time>2019-09-07T12:59:43Z</time>
      </trkpt>
      <trkpt lat="42.6278841868" lon="0.8724469040">
        <ele>2386.61</ele>
        <time>2019-09-07T12:59:45Z</time>
      </trkpt>
      <trkpt lat="42.6278646570" lon="0.8723376878">
        <ele>2385.65</ele>
        <time>2019-09-07T12:59:53Z</time>
      </trkpt>
      <trkpt lat="42.6278116833" lon="0.8722586464">
        <ele>2384.21</ele>
        <time>2019-09-07T13:00:05Z</time>
      </trkpt>
      <trkpt lat="42.6278025471" lon="0.8722464088">
        <ele>2382.76</ele>
        <time>2019-09-07T13:00:12Z</time>
      </trkpt>
      <trkpt lat="42.6278326381" lon="0.8722367696">
        <ele>2381.32</ele>
        <time>2019-09-07T13:00:25Z</time>
      </trkpt>
      <trkpt lat="42.6278815884" lon="0.8722149767">
        <ele>2379.88</ele>
        <time>2019-09-07T13:00:35Z</time>
      </trkpt>
      <trkpt lat="42.6278887969" lon="0.8722160663">
        <ele>2379.88</ele>
        <time>2019-09-07T13:00:36Z</time>
      </trkpt>
      <trkpt lat="42.6279768907" lon="0.8722503483">
        <ele>2377.96</ele>
        <time>2019-09-07T13:00:48Z</time>
      </trkpt>
      <trkpt lat="42.6280079875" lon="0.8722568024">
        <ele>2377.00</ele>
        <time>2019-09-07T13:00:57Z</time>
      </trkpt>
      <trkpt lat="42.6280424371" lon="0.8722790983">
        <ele>2376.52</ele>
        <time>2019-09-07T13:01:06Z</time>
      </trkpt>
      <trkpt lat="42.6280819159" lon="0.8722945210">
        <ele>2375.07</ele>
        <time>2019-09-07T13:01:15Z</time>
      </trkpt>
      <trkpt lat="42.6281362306" lon="0.8722335007">
        <ele>2374.59</ele>
        <time>2019-09-07T13:01:26Z</time>
      </trkpt>
      <trkpt lat="42.6281798165" lon="0.8721776772">
        <ele>2374.59</ele>
        <time>2019-09-07T13:01:36Z</time>
      </trkpt>
      <trkpt lat="42.6282140147" lon="0.8721435629">
        <ele>2374.59</ele>
        <time>2019-09-07T13:01:45Z</time>
      </trkpt>
      <trkpt lat="42.6281794813" lon="0.8720879070">
        <ele>2373.63</ele>
        <time>2019-09-07T13:01:57Z</time>
      </trkpt>
      <trkpt lat="42.6282116678" lon="0.8720638510">
        <ele>2371.71</ele>
        <time>2019-09-07T13:02:07Z</time>
      </trkpt>
      <trkpt lat="42.6282664854" lon="0.8720181696">
        <ele>2370.75</ele>
        <time>2019-09-07T13:02:16Z</time>
      </trkpt>
      <trkpt lat="42.6283368096" lon="0.8719915990">
        <ele>2371.23</ele>
        <time>2019-09-07T13:02:27Z</time>
      </trkpt>
      <trkpt lat="42.6283824071" lon="0.8719859831">
        <ele>2371.23</ele>
        <time>2019-09-07T13:02:34Z</time>
      </trkpt>
      <trkpt lat="42.6283930521" lon="0.8719820436">
        <ele>2371.23</ele>
        <time>2019-09-07T13:02:35Z</time>
      </trkpt>
      <trkpt lat="42.6284033619" lon="0.8719791099">
        <ele>2371.23</ele>
        <time>2019-09-07T13:02:36Z</time>
      </trkpt>
      <trkpt lat="42.6284156833" lon="0.8719785232">
        <ele>2371.23</ele>
        <time>2019-09-07T13:02:37Z</time>
      </trkpt>
      <trkpt lat="42.6285018492" lon="0.8719991427">
        <ele>2371.23</ele>
        <time>2019-09-07T13:02:49Z</time>
      </trkpt>
      <trkpt lat="42.6285610255" lon="0.8720162418">
        <ele>2372.67</ele>
        <time>2019-09-07T13:03:01Z</time>
      </trkpt>
      <trkpt lat="42.6286051143" lon="0.8719774336">
        <ele>2372.19</ele>
        <time>2019-09-07T13:03:12Z</time>
      </trkpt>
      <trkpt lat="42.6286381390" lon="0.8719299082">
        <ele>2369.79</ele>
        <time>2019-09-07T13:03:21Z</time>
      </trkpt>
      <trkpt lat="42.6286860835" lon="0.8719078638">
        <ele>2368.83</ele>
        <time>2019-09-07T13:03:25Z</time>
      </trkpt>
      <trkpt lat="42.6287679747" lon="0.8718962967">
        <ele>2368.35</ele>
        <time>2019-09-07T13:03:33Z</time>
      </trkpt>
      <trkpt lat="42.6287928689" lon="0.8718520403">
        <ele>2367.86</ele>
        <time>2019-09-07T13:03:44Z</time>
      </trkpt>
      <trkpt lat="42.6288276538" lon="0.8717939537">
        <ele>2367.38</ele>
        <time>2019-09-07T13:03:55Z</time>
      </trkpt>
      <trkpt lat="42.6288845669" lon="0.8717382140">
        <ele>2366.90</ele>
        <time>2019-09-07T13:04:07Z</time>
      </trkpt>
      <trkpt lat="42.6289381273" lon="0.8717063628">
        <ele>2365.94</ele>
        <time>2019-09-07T13:04:18Z</time>
      </trkpt>
      <trkpt lat="42.6289975550" lon="0.8716867492">
        <ele>2365.94</ele>
        <time>2019-09-07T13:04:28Z</time>
      </trkpt>
      <trkpt lat="42.6290613413" lon="0.8716139942">
        <ele>2366.42</ele>
        <time>2019-09-07T13:04:40Z</time>
      </trkpt>
      <trkpt lat="42.6290765963" lon="0.8715634514">
        <ele>2364.98</ele>
        <time>2019-09-07T13:04:51Z</time>
      </trkpt>
      <trkpt lat="42.6290615927" lon="0.8715508785">
        <ele>2363.06</ele>
        <time>2019-09-07T13:05:04Z</time>
      </trkpt>
      <trkpt lat="42.6290584914" lon="0.8714886848">
        <ele>2361.62</ele>
        <time>2019-09-07T13:05:17Z</time>
      </trkpt>
      <trkpt lat="42.6290346868" lon="0.8714286704">
        <ele>2359.69</ele>
        <time>2019-09-07T13:05:29Z</time>
      </trkpt>
      <trkpt lat="42.6290396322" lon="0.8713899460">
        <ele>2358.25</ele>
        <time>2019-09-07T13:05:41Z</time>
      </trkpt>
      <trkpt lat="42.6290345192" lon="0.8713549934">
        <ele>2356.81</ele>
        <time>2019-09-07T13:05:52Z</time>
      </trkpt>
      <trkpt lat="42.6290268917" lon="0.8713476174">
        <ele>2356.81</ele>
        <time>2019-09-07T13:05:55Z</time>
      </trkpt>
      <trkpt lat="42.6289706491" lon="0.8713300154">
        <ele>2355.37</ele>
        <time>2019-09-07T13:06:06Z</time>
      </trkpt>
      <trkpt lat="42.6289594173" lon="0.8712291811">
        <ele>2352.00</ele>
        <time>2019-09-07T13:06:18Z</time>
      </trkpt>
      <trkpt lat="42.6289347745" lon="0.8711788058">
        <ele>2350.56</ele>
        <time>2019-09-07T13:06:28Z</time>
      </trkpt>
      <trkpt lat="42.6289387140" lon="0.8711301070">
        <ele>2349.12</ele>
        <time>2019-09-07T13:06:37Z</time>
      </trkpt>
      <trkpt lat="42.6289574895" lon="0.8710841741">
        <ele>2347.68</ele>
        <time>2019-09-07T13:06:46Z</time>
      </trkpt>
      <trkpt lat="42.6289595012" lon="0.8710139338">
        <ele>2346.23</ele>
        <time>2019-09-07T13:06:58Z</time>
      </trkpt>
      <trkpt lat="42.6289620157" lon="0.8709502313">
        <ele>2344.79</ele>
        <time>2019-09-07T13:07:08Z</time>
      </trkpt>
      <trkpt lat="42.6289771032" lon="0.8709109202">
        <ele>2343.83</ele>
        <time>2019-09-07T13:07:15Z</time>
      </trkpt>
      <trkpt lat="42.6290372014" lon="0.8708596230">
        <ele>2342.39</ele>
        <time>2019-09-07T13:07:24Z</time>
      </trkpt>
      <trkpt lat="42.6290471759" lon="0.8708551805">
        <ele>2342.39</ele>
        <time>2019-09-07T13:07:25Z</time>
      </trkpt>
      <trkpt lat="42.6291415561" lon="0.8708198927">
        <ele>2341.91</ele>
        <time>2019-09-07T13:07:35Z</time>
      </trkpt>
      <trkpt lat="42.6292081922" lon="0.8707566094">
        <ele>2341.43</ele>
        <time>2019-09-07T13:07:43Z</time>
      </trkpt>
      <trkpt lat="42.6292114612" lon="0.8707426954">
        <ele>2341.43</ele>
        <time>2019-09-07T13:07:44Z</time>
      </trkpt>
      <trkpt lat="42.6292426419" lon="0.8705918211">
        <ele>2338.54</ele>
        <time>2019-09-07T13:07:57Z</time>
      </trkpt>
      <trkpt lat="42.6293083560" lon="0.8705801703">
        <ele>2337.58</ele>
        <time>2019-09-07T13:08:05Z</time>
      </trkpt>
      <trkpt lat="42.6293198392" lon="0.8705716208">
        <ele>2337.10</ele>
        <time>2019-09-07T13:08:06Z</time>
      </trkpt>
      <trkpt lat="42.6293313224" lon="0.8705628198">
        <ele>2337.10</ele>
        <time>2019-09-07T13:08:07Z</time>
      </trkpt>
      <trkpt lat="42.6293418836" lon="0.8705561142">
        <ele>2337.10</ele>
        <time>2019-09-07T13:08:08Z</time>
      </trkpt>
      <trkpt lat="42.6293509360" lon="0.8705467265">
        <ele>2337.10</ele>
        <time>2019-09-07T13:08:09Z</time>
      </trkpt>
      <trkpt lat="42.6293929294" lon="0.8704939205">
        <ele>2336.62</ele>
        <time>2019-09-07T13:08:15Z</time>
      </trkpt>
      <trkpt lat="42.6293957792" lon="0.8704554476">
        <ele>2336.14</ele>
        <time>2019-09-07T13:08:17Z</time>
      </trkpt>
      <trkpt lat="42.6294050831" lon="0.8704437129">
        <ele>2336.14</ele>
        <time>2019-09-07T13:08:18Z</time>
      </trkpt>
      <trkpt lat="42.6294179074" lon="0.8704326488">
        <ele>2335.66</ele>
        <time>2019-09-07T13:08:19Z</time>
      </trkpt>
      <trkpt lat="42.6294319890" lon="0.8704228420">
        <ele>2335.18</ele>
        <time>2019-09-07T13:08:20Z</time>
      </trkpt>
      <trkpt lat="42.6294445619" lon="0.8704152983">
        <ele>2335.18</ele>
        <time>2019-09-07T13:08:21Z</time>
      </trkpt>
      <trkpt lat="42.6294540334" lon="0.8704056591">
        <ele>2334.70</ele>
        <time>2019-09-07T13:08:22Z</time>
      </trkpt>
      <trkpt lat="42.6295066718" lon="0.8703292161">
        <ele>2333.74</ele>
        <time>2019-09-07T13:08:29Z</time>
      </trkpt>
      <trkpt lat="42.6295165624" lon="0.8703278750">
        <ele>2333.74</ele>
        <time>2019-09-07T13:08:30Z</time>
      </trkpt>
      <trkpt lat="42.6295694523" lon="0.8703108598">
        <ele>2332.30</ele>
        <time>2019-09-07T13:08:40Z</time>
      </trkpt>
      <trkpt lat="42.6295924187" lon="0.8702799305">
        <ele>2330.37</ele>
        <time>2019-09-07T13:08:50Z</time>
      </trkpt>
      <trkpt lat="42.6296164747" lon="0.8702623285">
        <ele>2328.93</ele>
        <time>2019-09-07T13:09:00Z</time>
      </trkpt>
      <trkpt lat="42.6296232641" lon="0.8702248614">
        <ele>2327.01</ele>
        <time>2019-09-07T13:09:09Z</time>
      </trkpt>
      <trkpt lat="42.6296174806" lon="0.8701619133">
        <ele>2325.09</ele>
        <time>2019-09-07T13:09:19Z</time>
      </trkpt>
      <trkpt lat="42.6296201628" lon="0.8701303974">
        <ele>2324.12</ele>
        <time>2019-09-07T13:09:22Z</time>
      </trkpt>
      <trkpt lat="42.6296247728" lon="0.8700402081">
        <ele>2322.20</ele>
        <time>2019-09-07T13:09:31Z</time>
      </trkpt>
      <trkpt lat="42.6296343282" lon="0.8700203430">
        <ele>2322.20</ele>
        <time>2019-09-07T13:09:33Z</time>
      </trkpt>
      <trkpt lat="42.6296427101" lon="0.8700105362">
        <ele>2321.72</ele>
        <time>2019-09-07T13:09:34Z</time>
      </trkpt>
      <trkpt lat="42.6296490803" lon="0.8699961193">
        <ele>2321.24</ele>
        <time>2019-09-07T13:09:35Z</time>
      </trkpt>
      <trkpt lat="42.6297010481" lon="0.8698727377">
        <ele>2318.36</ele>
        <time>2019-09-07T13:09:46Z</time>
      </trkpt>
      <trkpt lat="42.6297469810" lon="0.8698019106">
        <ele>2316.43</ele>
        <time>2019-09-07T13:09:56Z</time>
      </trkpt>
      <trkpt lat="42.6297662593" lon="0.8697612584">
        <ele>2314.03</ele>
        <time>2019-09-07T13:10:06Z</time>
      </trkpt>
      <trkpt lat="42.6298063248" lon="0.8697147388">
        <ele>2311.15</ele>
        <time>2019-09-07T13:10:17Z</time>
      </trkpt>
      <trkpt lat="42.6298043970" lon="0.8696743380">
        <ele>2308.74</ele>
        <time>2019-09-07T13:10:30Z</time>
      </trkpt>
      <trkpt lat="42.6298108511" lon="0.8696558978">
        <ele>2308.26</ele>
        <time>2019-09-07T13:10:34Z</time>
      </trkpt>
      <trkpt lat="42.6297726296" lon="0.8695973922">
        <ele>2306.82</ele>
        <time>2019-09-07T13:10:44Z</time>
      </trkpt>
      <trkpt lat="42.6297351625" lon="0.8695812151">
        <ele>2304.42</ele>
        <time>2019-09-07T13:10:52Z</time>
      </trkpt>
      <trkpt lat="42.6297137886" lon="0.8695086278">
        <ele>2302.49</ele>
        <time>2019-09-07T13:11:02Z</time>
      </trkpt>
      <trkpt lat="42.6296936721" lon="0.8694448415">
        <ele>2300.57</ele>
        <time>2019-09-07T13:11:12Z</time>
      </trkpt>
      <trkpt lat="42.6296285447" lon="0.8694176842">
        <ele>2298.65</ele>
        <time>2019-09-07T13:11:22Z</time>
      </trkpt>
      <trkpt lat="42.6295815222" lon="0.8694047760">
        <ele>2297.21</ele>
        <time>2019-09-07T13:11:27Z</time>
      </trkpt>
      <trkpt lat="42.6295376848" lon="0.8692792151">
        <ele>2294.80</ele>
        <time>2019-09-07T13:11:38Z</time>
      </trkpt>
      <trkpt lat="42.6295591425" lon="0.8691561688">
        <ele>2291.92</ele>
        <time>2019-09-07T13:11:50Z</time>
      </trkpt>
      <trkpt lat="42.6296285447" lon="0.8691296820">
        <ele>2289.52</ele>
        <time>2019-09-07T13:12:00Z</time>
      </trkpt>
      <trkpt lat="42.6296784170" lon="0.8690817375">
        <ele>2287.59</ele>
        <time>2019-09-07T13:12:11Z</time>
      </trkpt>
      <trkpt lat="42.6297075860" lon="0.8690102398">
        <ele>2285.19</ele>
        <time>2019-09-07T13:12:21Z</time>
      </trkpt>
      <trkpt lat="42.6297054905" lon="0.8689347189">
        <ele>2283.75</ele>
        <time>2019-09-07T13:12:30Z</time>
      </trkpt>
      <trkpt lat="42.6297429577" lon="0.8688597847">
        <ele>2281.83</ele>
        <time>2019-09-07T13:12:41Z</time>
      </trkpt>
      <trkpt lat="42.6297431253" lon="0.8687410969">
        <ele>2279.42</ele>
        <time>2019-09-07T13:12:53Z</time>
      </trkpt>
      <trkpt lat="42.6297409460" lon="0.8687022049">
        <ele>2277.50</ele>
        <time>2019-09-07T13:13:05Z</time>
      </trkpt>
      <trkpt lat="42.6297685225" lon="0.8686514106">
        <ele>2277.02</ele>
        <time>2019-09-07T13:13:20Z</time>
      </trkpt>
      <trkpt lat="42.6297681872" lon="0.8686328027">
        <ele>2277.02</ele>
        <time>2019-09-07T13:13:21Z</time>
      </trkpt>
      <trkpt lat="42.6297711208" lon="0.8686141111">
        <ele>2276.54</ele>
        <time>2019-09-07T13:13:22Z</time>
      </trkpt>
      <trkpt lat="42.6297810953" lon="0.8686020412">
        <ele>2276.06</ele>
        <time>2019-09-07T13:13:23Z</time>
      </trkpt>
      <trkpt lat="42.6297940873" lon="0.8685903903">
        <ele>2276.06</ele>
        <time>2019-09-07T13:13:24Z</time>
      </trkpt>
      <trkpt lat="42.6298035588" lon="0.8685727045">
        <ele>2275.58</ele>
        <time>2019-09-07T13:13:25Z</time>
      </trkpt>
      <trkpt lat="42.6298108511" lon="0.8685554378">
        <ele>2275.58</ele>
        <time>2019-09-07T13:13:26Z</time>
      </trkpt>
      <trkpt lat="42.6298191492" lon="0.8685371652">
        <ele>2275.10</ele>
        <time>2019-09-07T13:13:27Z</time>
      </trkpt>
      <trkpt lat="42.6298292074" lon="0.8685250953">
        <ele>2274.62</ele>
        <time>2019-09-07T13:13:28Z</time>
      </trkpt>
      <trkpt lat="42.6298518386" lon="0.8685101755">
        <ele>2274.62</ele>
        <time>2019-09-07T13:13:30Z</time>
      </trkpt>
      <trkpt lat="42.6298649143" lon="0.8685017936">
        <ele>2274.14</ele>
        <time>2019-09-07T13:13:31Z</time>
      </trkpt>
      <trkpt lat="42.6299328916" lon="0.8683651686">
        <ele>2271.73</ele>
        <time>2019-09-07T13:13:41Z</time>
      </trkpt>
      <trkpt lat="42.6299400162" lon="0.8683479857">
        <ele>2271.25</ele>
        <time>2019-09-07T13:13:42Z</time>
      </trkpt>
      <trkpt lat="42.6299757231" lon="0.8683261927">
        <ele>2270.29</ele>
        <time>2019-09-07T13:13:45Z</time>
      </trkpt>
      <trkpt lat="42.6299856137" lon="0.8683106862">
        <ele>2269.81</ele>
        <time>2019-09-07T13:13:46Z</time>
      </trkpt>
      <trkpt lat="42.6299932413" lon="0.8682950959">
        <ele>2269.81</ele>
        <time>2019-09-07T13:13:47Z</time>
      </trkpt>
      <trkpt lat="42.6300018746" lon="0.8682495821">
        <ele>2269.33</ele>
        <time>2019-09-07T13:13:51Z</time>
      </trkpt>
      <trkpt lat="42.6300036348" lon="0.8682115283">
        <ele>2268.85</ele>
        <time>2019-09-07T13:13:54Z</time>
      </trkpt>
      <trkpt lat="42.6300083287" lon="0.8681941777">
        <ele>2268.37</ele>
        <time>2019-09-07T13:13:55Z</time>
      </trkpt>
      <trkpt lat="42.6300138608" lon="0.8681772463">
        <ele>2267.89</ele>
        <time>2019-09-07T13:13:56Z</time>
      </trkpt>
      <trkpt lat="42.6300188899" lon="0.8680775855">
        <ele>2266.45</ele>
        <time>2019-09-07T13:14:03Z</time>
      </trkpt>
      <trkpt lat="42.6300164592" lon="0.8680583071">
        <ele>2266.45</ele>
        <time>2019-09-07T13:14:04Z</time>
      </trkpt>
      <trkpt lat="42.6300166268" lon="0.8680395316">
        <ele>2266.45</ele>
        <time>2019-09-07T13:14:05Z</time>
      </trkpt>
      <trkpt lat="42.6300193090" lon="0.8680226002">
        <ele>2266.45</ele>
        <time>2019-09-07T13:14:06Z</time>
      </trkpt>
      <trkpt lat="42.6300239190" lon="0.8680063393">
        <ele>2265.96</ele>
        <time>2019-09-07T13:14:07Z</time>
      </trkpt>
      <trkpt lat="42.6300290320" lon="0.8679919224">
        <ele>2265.96</ele>
        <time>2019-09-07T13:14:08Z</time>
      </trkpt>
      <trkpt lat="42.6300345641" lon="0.8679789305">
        <ele>2265.96</ele>
        <time>2019-09-07T13:14:09Z</time>
      </trkpt>
      <trkpt lat="42.6301164553" lon="0.8679058403">
        <ele>2262.60</ele>
        <time>2019-09-07T13:14:17Z</time>
      </trkpt>
      <trkpt lat="42.6301843487" lon="0.8678270504">
        <ele>2261.16</ele>
        <time>2019-09-07T13:14:24Z</time>
      </trkpt>
      <trkpt lat="42.6302277669" lon="0.8678128850">
        <ele>2260.68</ele>
        <time>2019-09-07T13:14:28Z</time>
      </trkpt>
      <trkpt lat="42.6302343048" lon="0.8677964564">
        <ele>2260.68</ele>
        <time>2019-09-07T13:14:29Z</time>
      </trkpt>
      <trkpt lat="42.6302375738" lon="0.8677794412">
        <ele>2260.20</ele>
        <time>2019-09-07T13:14:30Z</time>
      </trkpt>
      <trkpt lat="42.6302398369" lon="0.8677228633">
        <ele>2260.20</ele>
        <time>2019-09-07T13:14:34Z</time>
      </trkpt>
      <trkpt lat="42.6302360650" lon="0.8677044231">
        <ele>2260.20</ele>
        <time>2019-09-07T13:14:35Z</time>
      </trkpt>
      <trkpt lat="42.6302338857" lon="0.8676834684">
        <ele>2260.20</ele>
        <time>2019-09-07T13:14:36Z</time>
      </trkpt>
      <trkpt lat="42.6302364841" lon="0.8676658664">
        <ele>2260.20</ele>
        <time>2019-09-07T13:14:37Z</time>
      </trkpt>
      <trkpt lat="42.6302535832" lon="0.8676114678">
        <ele>2259.24</ele>
        <time>2019-09-07T13:14:42Z</time>
      </trkpt>
      <trkpt lat="42.6302557625" lon="0.8675941173">
        <ele>2259.24</ele>
        <time>2019-09-07T13:14:43Z</time>
      </trkpt>
      <trkpt lat="42.6302756276" lon="0.8674543072">
        <ele>2257.31</ele>
        <time>2019-09-07T13:14:53Z</time>
      </trkpt>
      <trkpt lat="42.6302952413" lon="0.8673994895">
        <ele>2256.83</ele>
        <time>2019-09-07T13:14:57Z</time>
      </trkpt>
      <trkpt lat="42.6303257514" lon="0.8673838153">
        <ele>2255.87</ele>
        <time>2019-09-07T13:15:00Z</time>
      </trkpt>
      <trkpt lat="42.6303314511" lon="0.8673728351">
        <ele>2255.39</ele>
        <time>2019-09-07T13:15:01Z</time>
      </trkpt>
      <trkpt lat="42.6303332951" lon="0.8673603460">
        <ele>2255.39</ele>
        <time>2019-09-07T13:15:02Z</time>
      </trkpt>
      <trkpt lat="42.6303320378" lon="0.8673476893">
        <ele>2254.91</ele>
        <time>2019-09-07T13:15:03Z</time>
      </trkpt>
      <trkpt lat="42.6303266734" lon="0.8673114795">
        <ele>2254.43</ele>
        <time>2019-09-07T13:15:06Z</time>
      </trkpt>
      <trkpt lat="42.6303287689" lon="0.8672940452">
        <ele>2254.43</ele>
        <time>2019-09-07T13:15:07Z</time>
      </trkpt>
      <trkpt lat="42.6303300261" lon="0.8672762755">
        <ele>2253.95</ele>
        <time>2019-09-07T13:15:08Z</time>
      </trkpt>
      <trkpt lat="42.6303317863" lon="0.8672595117">
        <ele>2253.47</ele>
        <time>2019-09-07T13:15:09Z</time>
      </trkpt>
      <trkpt lat="42.6303332113" lon="0.8672449272">
        <ele>2252.99</ele>
        <time>2019-09-07T13:15:10Z</time>
      </trkpt>
      <trkpt lat="42.6303329598" lon="0.8672318514">
        <ele>2252.99</ele>
        <time>2019-09-07T13:15:11Z</time>
      </trkpt>
      <trkpt lat="42.6303292718" lon="0.8672187757">
        <ele>2252.99</ele>
        <time>2019-09-07T13:15:12Z</time>
      </trkpt>
      <trkpt lat="42.6303221472" lon="0.8672044426">
        <ele>2252.51</ele>
        <time>2019-09-07T13:15:13Z</time>
      </trkpt>
      <trkpt lat="42.6303139329" lon="0.8671908639">
        <ele>2252.51</ele>
        <time>2019-09-07T13:15:14Z</time>
      </trkpt>
      <trkpt lat="42.6303109992" lon="0.8671787102">
        <ele>2252.03</ele>
        <time>2019-09-07T13:15:15Z</time>
      </trkpt>
      <trkpt lat="42.6303149387" lon="0.8671663050">
        <ele>2252.03</ele>
        <time>2019-09-07T13:15:16Z</time>
      </trkpt>
      <trkpt lat="42.6303223986" lon="0.8671547379">
        <ele>2252.03</ele>
        <time>2019-09-07T13:15:17Z</time>
      </trkpt>
      <trkpt lat="42.6303311996" lon="0.8671440091">
        <ele>2251.54</ele>
        <time>2019-09-07T13:15:18Z</time>
      </trkpt>
      <trkpt lat="42.6303508971" lon="0.8671150915">
        <ele>2250.58</ele>
        <time>2019-09-07T13:15:21Z</time>
      </trkpt>
      <trkpt lat="42.6303923037" lon="0.8669116627">
        <ele>2248.18</ele>
        <time>2019-09-07T13:15:33Z</time>
      </trkpt>
      <trkpt lat="42.6303912140" lon="0.8668884449">
        <ele>2248.18</ele>
        <time>2019-09-07T13:15:34Z</time>
      </trkpt>
      <trkpt lat="42.6304477081" lon="0.8667524904">
        <ele>2245.78</ele>
        <time>2019-09-07T13:15:43Z</time>
      </trkpt>
      <trkpt lat="42.6304809004" lon="0.8667555079">
        <ele>2244.82</ele>
        <time>2019-09-07T13:15:46Z</time>
      </trkpt>
      <trkpt lat="42.6305090636" lon="0.8667063061">
        <ele>2244.33</ele>
        <time>2019-09-07T13:15:50Z</time>
      </trkpt>
      <trkpt lat="42.6306885201" lon="0.8666518237">
        <ele>2242.41</ele>
        <time>2019-09-07T13:16:03Z</time>
      </trkpt>
      <trkpt lat="42.6308807172" lon="0.8666873630">
        <ele>2240.49</ele>
        <time>2019-09-07T13:16:16Z</time>
      </trkpt>
      <trkpt lat="42.6310859900" lon="0.8667405043">
        <ele>2238.57</ele>
        <time>2019-09-07T13:16:30Z</time>
      </trkpt>
      <trkpt lat="42.6310978085" lon="0.8667330444">
        <ele>2238.09</ele>
        <time>2019-09-07T13:16:31Z</time>
      </trkpt>
      <trkpt lat="42.6311110519" lon="0.8667218965">
        <ele>2237.61</ele>
        <time>2019-09-07T13:16:32Z</time>
      </trkpt>
      <trkpt lat="42.6311237086" lon="0.8667120058">
        <ele>2237.61</ele>
        <time>2019-09-07T13:16:33Z</time>
      </trkpt>
      <trkpt lat="42.6311357785" lon="0.8667008579">
        <ele>2237.61</ele>
        <time>2019-09-07T13:16:34Z</time>
      </trkpt>
      <trkpt lat="42.6311477646" lon="0.8666915540">
        <ele>2237.61</ele>
        <time>2019-09-07T13:16:35Z</time>
      </trkpt>
      <trkpt lat="42.6311611757" lon="0.8666849323">
        <ele>2237.61</ele>
        <time>2019-09-07T13:16:36Z</time>
      </trkpt>
      <trkpt lat="42.6312258840" lon="0.8666608762">
        <ele>2237.13</ele>
        <time>2019-09-07T13:16:43Z</time>
      </trkpt>
      <trkpt lat="42.6312735770" lon="0.8666260075">
        <ele>2236.64</ele>
        <time>2019-09-07T13:16:55Z</time>
      </trkpt>
      <trkpt lat="42.6312751696" lon="0.8666079864">
        <ele>2236.64</ele>
        <time>2019-09-07T13:16:57Z</time>
      </trkpt>
      <trkpt lat="42.6313083619" lon="0.8665268496">
        <ele>2236.16</ele>
        <time>2019-09-07T13:17:07Z</time>
      </trkpt>
      <trkpt lat="42.6313887443" lon="0.8664728701">
        <ele>2236.16</ele>
        <time>2019-09-07T13:17:18Z</time>
      </trkpt>
      <trkpt lat="42.6314547099" lon="0.8664269373">
        <ele>2236.64</ele>
        <time>2019-09-07T13:17:27Z</time>
      </trkpt>
      <trkpt lat="42.6315114554" lon="0.8663859498">
        <ele>2237.61</ele>
        <time>2019-09-07T13:17:39Z</time>
      </trkpt>
      <trkpt lat="42.6315574721" lon="0.8663577866">
        <ele>2236.64</ele>
        <time>2019-09-07T13:17:49Z</time>
      </trkpt>
      <trkpt lat="42.6315712184" lon="0.8663059026">
        <ele>2236.64</ele>
        <time>2019-09-07T13:17:57Z</time>
      </trkpt>
      <trkpt lat="42.6315742359" lon="0.8662349079">
        <ele>2236.16</ele>
        <time>2019-09-07T13:18:02Z</time>
      </trkpt>
      <trkpt lat="42.6315778401" lon="0.8662169706">
        <ele>2236.16</ele>
        <time>2019-09-07T13:18:03Z</time>
      </trkpt>
      <trkpt lat="42.6315836236" lon="0.8662018832">
        <ele>2236.16</ele>
        <time>2019-09-07T13:18:04Z</time>
      </trkpt>
      <trkpt lat="42.6315889042" lon="0.8661888074">
        <ele>2235.68</ele>
        <time>2019-09-07T13:18:05Z</time>
      </trkpt>
      <trkpt lat="42.6315953583" lon="0.8661784139">
        <ele>2235.68</ele>
        <time>2019-09-07T13:18:06Z</time>
      </trkpt>
      <trkpt lat="42.6316215098" lon="0.8661583811">
        <ele>2235.68</ele>
        <time>2019-09-07T13:18:10Z</time>
      </trkpt>
      <trkpt lat="42.6316356752" lon="0.8660927508">
        <ele>2236.16</ele>
        <time>2019-09-07T13:18:15Z</time>
      </trkpt>
      <trkpt lat="42.6316973660" lon="0.8659532759">
        <ele>2237.13</ele>
        <time>2019-09-07T13:18:26Z</time>
      </trkpt>
      <trkpt lat="42.6316946000" lon="0.8658834547">
        <ele>2237.61</ele>
        <time>2019-09-07T13:18:32Z</time>
      </trkpt>
      <trkpt lat="42.6317131240" lon="0.8658318222">
        <ele>2237.61</ele>
        <time>2019-09-07T13:18:36Z</time>
      </trkpt>
      <trkpt lat="42.6317355037" lon="0.8657454047">
        <ele>2237.61</ele>
        <time>2019-09-07T13:18:44Z</time>
      </trkpt>
      <trkpt lat="42.6317637507" lon="0.8657325804">
        <ele>2237.61</ele>
        <time>2019-09-07T13:18:47Z</time>
      </trkpt>
      <trkpt lat="42.6318121143" lon="0.8655337617">
        <ele>2237.61</ele>
        <time>2019-09-07T13:18:59Z</time>
      </trkpt>
      <trkpt lat="42.6318534371" lon="0.8653380442">
        <ele>2237.61</ele>
        <time>2019-09-07T13:19:11Z</time>
      </trkpt>
      <trkpt lat="42.6319133677" lon="0.8652162552">
        <ele>2238.57</ele>
        <time>2019-09-07T13:19:22Z</time>
      </trkpt>
      <trkpt lat="42.6319632400" lon="0.8651007526">
        <ele>2239.05</ele>
        <time>2019-09-07T13:19:30Z</time>
      </trkpt>
      <trkpt lat="42.6320380904" lon="0.8649481181">
        <ele>2237.61</ele>
        <time>2019-09-07T13:19:43Z</time>
      </trkpt>
      <trkpt lat="42.6320381742" lon="0.8649129979">
        <ele>2237.61</ele>
        <time>2019-09-07T13:19:45Z</time>
      </trkpt>
      <trkpt lat="42.6320563629" lon="0.8648244850">
        <ele>2236.64</ele>
        <time>2019-09-07T13:19:50Z</time>
      </trkpt>
      <trkpt lat="42.6320990268" lon="0.8646160271">
        <ele>2235.20</ele>
        <time>2019-09-07T13:20:03Z</time>
      </trkpt>
      <trkpt lat="42.6321178023" lon="0.8644234110">
        <ele>2233.76</ele>
        <time>2019-09-07T13:20:14Z</time>
      </trkpt>
      <trkpt lat="42.6321242563" lon="0.8643949963">
        <ele>2233.28</ele>
        <time>2019-09-07T13:20:16Z</time>
      </trkpt>
      <trkpt lat="42.6321212389" lon="0.8643783163">
        <ele>2233.28</ele>
        <time>2019-09-07T13:20:17Z</time>
      </trkpt>
      <trkpt lat="42.6321214065" lon="0.8643599600">
        <ele>2233.28</ele>
        <time>2019-09-07T13:20:18Z</time>
      </trkpt>
      <trkpt lat="42.6321243402" lon="0.8643417712">
        <ele>2233.28</ele>
        <time>2019-09-07T13:20:19Z</time>
      </trkpt>
      <trkpt lat="42.6321286149" lon="0.8643245883">
        <ele>2233.28</ele>
        <time>2019-09-07T13:20:20Z</time>
      </trkpt>
      <trkpt lat="42.6321338955" lon="0.8643073216">
        <ele>2233.28</ele>
        <time>2019-09-07T13:20:21Z</time>
      </trkpt>
      <trkpt lat="42.6321385056" lon="0.8642888814">
        <ele>2232.80</ele>
        <time>2019-09-07T13:20:22Z</time>
      </trkpt>
      <trkpt lat="42.6322195586" lon="0.8640451357">
        <ele>2232.80</ele>
        <time>2019-09-07T13:20:36Z</time>
      </trkpt>
      <trkpt lat="42.6322559360" lon="0.8639001288">
        <ele>2234.24</ele>
        <time>2019-09-07T13:20:46Z</time>
      </trkpt>
      <trkpt lat="42.6323228236" lon="0.8637268748">
        <ele>2236.16</ele>
        <time>2019-09-07T13:21:00Z</time>
      </trkpt>
      <trkpt lat="42.6323286910" lon="0.8637104463">
        <ele>2236.64</ele>
        <time>2019-09-07T13:21:02Z</time>
      </trkpt>
      <trkpt lat="42.6323426887" lon="0.8636633400">
        <ele>2237.61</ele>
        <time>2019-09-07T13:21:06Z</time>
      </trkpt>
      <trkpt lat="42.6323744562" lon="0.8635572251">
        <ele>2238.57</ele>
        <time>2019-09-07T13:21:16Z</time>
      </trkpt>
      <trkpt lat="42.6323840953" lon="0.8635297325">
        <ele>2238.57</ele>
        <time>2019-09-07T13:21:18Z</time>
      </trkpt>
      <trkpt lat="42.6324099116" lon="0.8634701371">
        <ele>2239.53</ele>
        <time>2019-09-07T13:21:23Z</time>
      </trkpt>
      <trkpt lat="42.6324103307" lon="0.8634520322">
        <ele>2239.53</ele>
        <time>2019-09-07T13:21:24Z</time>
      </trkpt>
      <trkpt lat="42.6324132644" lon="0.8634371962">
        <ele>2239.53</ele>
        <time>2019-09-07T13:21:25Z</time>
      </trkpt>
      <trkpt lat="42.6324172039" lon="0.8634226955">
        <ele>2239.53</ele>
        <time>2019-09-07T13:21:26Z</time>
      </trkpt>
      <trkpt lat="42.6324226521" lon="0.8634111285">
        <ele>2240.01</ele>
        <time>2019-09-07T13:21:27Z</time>
      </trkpt>
      <trkpt lat="42.6324684173" lon="0.8633303270">
        <ele>2240.01</ele>
        <time>2019-09-07T13:21:37Z</time>
      </trkpt>
      <trkpt lat="42.6325099077" lon="0.8631679695">
        <ele>2239.53</ele>
        <time>2019-09-07T13:21:49Z</time>
      </trkpt>
      <trkpt lat="42.6325117517" lon="0.8631526306">
        <ele>2239.53</ele>
        <time>2019-09-07T13:21:50Z</time>
      </trkpt>
      <trkpt lat="42.6325172838" lon="0.8631360345">
        <ele>2239.05</ele>
        <time>2019-09-07T13:21:51Z</time>
      </trkpt>
      <trkpt lat="42.6325254142" lon="0.8631226234">
        <ele>2239.05</ele>
        <time>2019-09-07T13:21:52Z</time>
      </trkpt>
      <trkpt lat="42.6325342990" lon="0.8631123137">
        <ele>2239.05</ele>
        <time>2019-09-07T13:21:53Z</time>
      </trkpt>
      <trkpt lat="42.6325626299" lon="0.8630491979">
        <ele>2238.57</ele>
        <time>2019-09-07T13:21:59Z</time>
      </trkpt>
      <trkpt lat="42.6325596124" lon="0.8630326856">
        <ele>2238.57</ele>
        <time>2019-09-07T13:22:00Z</time>
      </trkpt>
      <trkpt lat="42.6325561758" lon="0.8630124014">
        <ele>2238.57</ele>
        <time>2019-09-07T13:22:01Z</time>
      </trkpt>
      <trkpt lat="42.6325561758" lon="0.8629932906">
        <ele>2238.57</ele>
        <time>2019-09-07T13:22:02Z</time>
      </trkpt>
      <trkpt lat="42.6325576846" lon="0.8629769459">
        <ele>2238.09</ele>
        <time>2019-09-07T13:22:03Z</time>
      </trkpt>
      <trkpt lat="42.6325551700" lon="0.8629608527">
        <ele>2238.09</ele>
        <time>2019-09-07T13:22:04Z</time>
      </trkpt>
      <trkpt lat="42.6325532421" lon="0.8629445918">
        <ele>2238.09</ele>
        <time>2019-09-07T13:22:05Z</time>
      </trkpt>
      <trkpt lat="42.6325545833" lon="0.8629239723">
        <ele>2238.09</ele>
        <time>2019-09-07T13:22:06Z</time>
      </trkpt>
      <trkpt lat="42.6325577684" lon="0.8629021794">
        <ele>2237.61</ele>
        <time>2019-09-07T13:22:07Z</time>
      </trkpt>
      <trkpt lat="42.6325635519" lon="0.8628842421">
        <ele>2237.61</ele>
        <time>2019-09-07T13:22:08Z</time>
      </trkpt>
      <trkpt lat="42.6325703412" lon="0.8628673945">
        <ele>2237.61</ele>
        <time>2019-09-07T13:22:09Z</time>
      </trkpt>
      <trkpt lat="42.6325749513" lon="0.8628503792">
        <ele>2237.61</ele>
        <time>2019-09-07T13:22:10Z</time>
      </trkpt>
      <trkpt lat="42.6325768791" lon="0.8628320228">
        <ele>2237.13</ele>
        <time>2019-09-07T13:22:11Z</time>
      </trkpt>
      <trkpt lat="42.6325791422" lon="0.8628148399">
        <ele>2237.13</ele>
        <time>2019-09-07T13:22:12Z</time>
      </trkpt>
      <trkpt lat="42.6325813215" lon="0.8627991658">
        <ele>2237.13</ele>
        <time>2019-09-07T13:22:13Z</time>
      </trkpt>
      <trkpt lat="42.6325832494" lon="0.8627847489">
        <ele>2237.13</ele>
        <time>2019-09-07T13:22:14Z</time>
      </trkpt>
      <trkpt lat="42.6325877756" lon="0.8627723437">
        <ele>2237.13</ele>
        <time>2019-09-07T13:22:15Z</time>
      </trkpt>
      <trkpt lat="42.6325902902" lon="0.8627156820">
        <ele>2237.61</ele>
        <time>2019-09-07T13:22:19Z</time>
      </trkpt>
      <trkpt lat="42.6325772144" lon="0.8626233973">
        <ele>2238.57</ele>
        <time>2019-09-07T13:22:26Z</time>
      </trkpt>
      <trkpt lat="42.6326045394" lon="0.8625859302">
        <ele>2238.57</ele>
        <time>2019-09-07T13:22:30Z</time>
      </trkpt>
      <trkpt lat="42.6326180343" lon="0.8625417575">
        <ele>2238.57</ele>
        <time>2019-09-07T13:22:35Z</time>
      </trkpt>
      <trkpt lat="42.6326188724" lon="0.8625259995">
        <ele>2238.57</ele>
        <time>2019-09-07T13:22:36Z</time>
      </trkpt>
      <trkpt lat="42.6326245721" lon="0.8625090681">
        <ele>2238.57</ele>
        <time>2019-09-07T13:22:37Z</time>
      </trkpt>
      <trkpt lat="42.6326299366" lon="0.8624928072">
        <ele>2238.57</ele>
        <time>2019-09-07T13:22:38Z</time>
      </trkpt>
      <trkpt lat="42.6326374803" lon="0.8624779712">
        <ele>2238.57</ele>
        <time>2019-09-07T13:22:39Z</time>
      </trkpt>
      <trkpt lat="42.6326435152" lon="0.8624637220">
        <ele>2238.57</ele>
        <time>2019-09-07T13:22:40Z</time>
      </trkpt>
      <trkpt lat="42.6326441858" lon="0.8624462038">
        <ele>2238.57</ele>
        <time>2019-09-07T13:22:41Z</time>
      </trkpt>
      <trkpt lat="42.6326416712" lon="0.8624247462">
        <ele>2238.09</ele>
        <time>2019-09-07T13:22:42Z</time>
      </trkpt>
      <trkpt lat="42.6326399110" lon="0.8624042943">
        <ele>2238.09</ele>
        <time>2019-09-07T13:22:43Z</time>
      </trkpt>
      <trkpt lat="42.6326418389" lon="0.8623835072">
        <ele>2238.09</ele>
        <time>2019-09-07T13:22:44Z</time>
      </trkpt>
      <trkpt lat="42.6326458622" lon="0.8623658214">
        <ele>2238.09</ele>
        <time>2019-09-07T13:22:45Z</time>
      </trkpt>
      <trkpt lat="42.6326515619" lon="0.8623492252">
        <ele>2238.09</ele>
        <time>2019-09-07T13:22:46Z</time>
      </trkpt>
      <trkpt lat="42.6326596923" lon="0.8623362333">
        <ele>2238.09</ele>
        <time>2019-09-07T13:22:47Z</time>
      </trkpt>
      <trkpt lat="42.6326679066" lon="0.8623248339">
        <ele>2238.09</ele>
        <time>2019-09-07T13:22:48Z</time>
      </trkpt>
      <trkpt lat="42.6326771267" lon="0.8623122610">
        <ele>2238.09</ele>
        <time>2019-09-07T13:22:49Z</time>
      </trkpt>
      <trkpt lat="42.6326852571" lon="0.8623011131">
        <ele>2237.61</ele>
        <time>2019-09-07T13:22:50Z</time>
      </trkpt>
      <trkpt lat="42.6326948963" lon="0.8622915577">
        <ele>2237.61</ele>
        <time>2019-09-07T13:22:51Z</time>
      </trkpt>
      <trkpt lat="42.6327058766" lon="0.8622828405">
        <ele>2237.61</ele>
        <time>2019-09-07T13:22:52Z</time>
      </trkpt>
      <trkpt lat="42.6327154320" lon="0.8622731175">
        <ele>2237.61</ele>
        <time>2019-09-07T13:22:53Z</time>
      </trkpt>
      <trkpt lat="42.6327248197" lon="0.8622597903">
        <ele>2237.61</ele>
        <time>2019-09-07T13:22:54Z</time>
      </trkpt>
      <trkpt lat="42.6327306870" lon="0.8622462954">
        <ele>2237.13</ele>
        <time>2019-09-07T13:22:55Z</time>
      </trkpt>
      <trkpt lat="42.6327755302" lon="0.8621508256">
        <ele>2235.20</ele>
        <time>2019-09-07T13:23:05Z</time>
      </trkpt>
      <trkpt lat="42.6327727642" lon="0.8620807528">
        <ele>2233.76</ele>
        <time>2019-09-07T13:23:11Z</time>
      </trkpt>
      <trkpt lat="42.6327715907" lon="0.8620657492">
        <ele>2233.76</ele>
        <time>2019-09-07T13:23:12Z</time>
      </trkpt>
      <trkpt lat="42.6327786315" lon="0.8620497398">
        <ele>2233.28</ele>
        <time>2019-09-07T13:23:13Z</time>
      </trkpt>
      <trkpt lat="42.6327902824" lon="0.8620400168">
        <ele>2233.28</ele>
        <time>2019-09-07T13:23:14Z</time>
      </trkpt>
      <trkpt lat="42.6328023523" lon="0.8620302100">
        <ele>2232.80</ele>
        <time>2019-09-07T13:23:15Z</time>
      </trkpt>
      <trkpt lat="42.6328138355" lon="0.8620203193">
        <ele>2232.80</ele>
        <time>2019-09-07T13:23:16Z</time>
      </trkpt>
      <trkpt lat="42.6328778733" lon="0.8619528450">
        <ele>2231.84</ele>
        <time>2019-09-07T13:23:25Z</time>
      </trkpt>
      <trkpt lat="42.6328704134" lon="0.8619380090">
        <ele>2231.84</ele>
        <time>2019-09-07T13:23:26Z</time>
      </trkpt>
      <trkpt lat="42.6328676473" lon="0.8619208261">
        <ele>2231.84</ele>
        <time>2019-09-07T13:23:27Z</time>
      </trkpt>
      <trkpt lat="42.6328701619" lon="0.8619038947">
        <ele>2231.84</ele>
        <time>2019-09-07T13:23:28Z</time>
      </trkpt>
      <trkpt lat="42.6328748558" lon="0.8618872985">
        <ele>2231.84</ele>
        <time>2019-09-07T13:23:29Z</time>
      </trkpt>
      <trkpt lat="42.6328787953" lon="0.8618714567">
        <ele>2231.84</ele>
        <time>2019-09-07T13:23:30Z</time>
      </trkpt>
      <trkpt lat="42.6328811422" lon="0.8618556149">
        <ele>2231.84</ele>
        <time>2019-09-07T13:23:31Z</time>
      </trkpt>
      <trkpt lat="42.6328799687" lon="0.8618398570">
        <ele>2231.84</ele>
        <time>2019-09-07T13:23:32Z</time>
      </trkpt>
      <trkpt lat="42.6328756940" lon="0.8618237637">
        <ele>2231.84</ele>
        <time>2019-09-07T13:23:33Z</time>
      </trkpt>
      <trkpt lat="42.6328699943" lon="0.8618090954">
        <ele>2231.84</ele>
        <time>2019-09-07T13:23:34Z</time>
      </trkpt>
      <trkpt lat="42.6328642108" lon="0.8617940079">
        <ele>2231.84</ele>
        <time>2019-09-07T13:23:35Z</time>
      </trkpt>
      <trkpt lat="42.6328142546" lon="0.8616098575">
        <ele>2231.84</ele>
        <time>2019-09-07T13:23:46Z</time>
      </trkpt>
      <trkpt lat="42.6327471156" lon="0.8615795150">
        <ele>2231.84</ele>
        <time>2019-09-07T13:23:51Z</time>
      </trkpt>
      <trkpt lat="42.6327016018" lon="0.8615842089">
        <ele>2229.43</ele>
        <time>2019-09-07T13:23:58Z</time>
      </trkpt>
      <trkpt lat="42.6326802280" lon="0.8615811076">
        <ele>2231.36</ele>
        <time>2019-09-07T13:24:00Z</time>
      </trkpt>
      <trkpt lat="42.6326397434" lon="0.8614712209">
        <ele>2232.32</ele>
        <time>2019-09-07T13:24:09Z</time>
      </trkpt>
      <trkpt lat="42.6326182019" lon="0.8612920158">
        <ele>2231.84</ele>
        <time>2019-09-07T13:24:22Z</time>
      </trkpt>
      <trkpt lat="42.6326544955" lon="0.8611744177">
        <ele>2229.43</ele>
        <time>2019-09-07T13:24:33Z</time>
      </trkpt>
      <trkpt lat="42.6326886099" lon="0.8610838931">
        <ele>2227.51</ele>
        <time>2019-09-07T13:24:44Z</time>
      </trkpt>
      <trkpt lat="42.6326929685" lon="0.8610309195">
        <ele>2226.07</ele>
        <time>2019-09-07T13:24:53Z</time>
      </trkpt>
      <trkpt lat="42.6327000931" lon="0.8610040136">
        <ele>2224.63</ele>
        <time>2019-09-07T13:25:03Z</time>
      </trkpt>
      <trkpt lat="42.6326956507" lon="0.8609677199">
        <ele>2224.15</ele>
        <time>2019-09-07T13:25:11Z</time>
      </trkpt>
      <trkpt lat="42.6327096485" lon="0.8609346114">
        <ele>2222.22</ele>
        <time>2019-09-07T13:25:21Z</time>
      </trkpt>
      <trkpt lat="42.6327201258" lon="0.8608841524">
        <ele>2220.78</ele>
        <time>2019-09-07T13:25:35Z</time>
      </trkpt>
      <trkpt lat="42.6327255741" lon="0.8608569112">
        <ele>2218.38</ele>
        <time>2019-09-07T13:25:48Z</time>
      </trkpt>
      <trkpt lat="42.6327340398" lon="0.8608059492">
        <ele>2217.42</ele>
        <time>2019-09-07T13:25:59Z</time>
      </trkpt>
      <trkpt lat="42.6327400748" lon="0.8607689012">
        <ele>2215.98</ele>
        <time>2019-09-07T13:26:10Z</time>
      </trkpt>
      <trkpt lat="42.6327438466" lon="0.8607378043">
        <ele>2215.50</ele>
        <time>2019-09-07T13:26:21Z</time>
      </trkpt>
      <trkpt lat="42.6327728480" lon="0.8606963139">
        <ele>2213.57</ele>
        <time>2019-09-07T13:26:32Z</time>
      </trkpt>
      <trkpt lat="42.6327731833" lon="0.8606731798">
        <ele>2212.61</ele>
        <time>2019-09-07T13:26:43Z</time>
      </trkpt>
      <trkpt lat="42.6327824872" lon="0.8606210444">
        <ele>2210.69</ele>
        <time>2019-09-07T13:26:53Z</time>
      </trkpt>
      <trkpt lat="42.6328156795" lon="0.8605608623">
        <ele>2207.32</ele>
        <time>2019-09-07T13:27:05Z</time>
      </trkpt>
      <trkpt lat="42.6328144222" lon="0.8605483733">
        <ele>2206.36</ele>
        <time>2019-09-07T13:27:14Z</time>
      </trkpt>
      <trkpt lat="42.6328252349" lon="0.8605005965">
        <ele>2204.92</ele>
        <time>2019-09-07T13:27:25Z</time>
      </trkpt>
      <trkpt lat="42.6328321081" lon="0.8604387380">
        <ele>2203.00</ele>
        <time>2019-09-07T13:27:36Z</time>
      </trkpt>
      <trkpt lat="42.6328451000" lon="0.8604055457">
        <ele>2202.52</ele>
        <time>2019-09-07T13:27:39Z</time>
      </trkpt>
      <trkpt lat="42.6328722574" lon="0.8603432681">
        <ele>2200.59</ele>
        <time>2019-09-07T13:27:49Z</time>
      </trkpt>
      <trkpt lat="42.6328599360" lon="0.8603445254">
        <ele>2200.11</ele>
        <time>2019-09-07T13:28:13Z</time>
      </trkpt>
      <trkpt lat="42.6328766998" lon="0.8602836728">
        <ele>2198.19</ele>
        <time>2019-09-07T13:28:25Z</time>
      </trkpt>
      <trkpt lat="42.6328951400" lon="0.8602647297">
        <ele>2197.71</ele>
        <time>2019-09-07T13:28:27Z</time>
      </trkpt>
      <trkpt lat="42.6329365466" lon="0.8601596206">
        <ele>2195.79</ele>
        <time>2019-09-07T13:28:38Z</time>
      </trkpt>
      <trkpt lat="42.6329427492" lon="0.8601371571">
        <ele>2195.31</ele>
        <time>2019-09-07T13:28:40Z</time>
      </trkpt>
      <trkpt lat="42.6329652127" lon="0.8600577805">
        <ele>2193.87</ele>
        <time>2019-09-07T13:28:49Z</time>
      </trkpt>
      <trkpt lat="42.6329839043" lon="0.8599919826">
        <ele>2191.94</ele>
        <time>2019-09-07T13:29:02Z</time>
      </trkpt>
      <trkpt lat="42.6329356246" lon="0.8599986043">
        <ele>2190.02</ele>
        <time>2019-09-07T13:29:12Z</time>
      </trkpt>
      <trkpt lat="42.6329176035" lon="0.8599665016">
        <ele>2189.06</ele>
        <time>2019-09-07T13:29:21Z</time>
      </trkpt>
      <trkpt lat="42.6329490356" lon="0.8599312976">
        <ele>2187.14</ele>
        <time>2019-09-07T13:29:30Z</time>
      </trkpt>
      <trkpt lat="42.6329505444" lon="0.8598986920">
        <ele>2185.69</ele>
        <time>2019-09-07T13:29:41Z</time>
      </trkpt>
      <trkpt lat="42.6329704095" lon="0.8598264400">
        <ele>2183.77</ele>
        <time>2019-09-07T13:29:52Z</time>
      </trkpt>
      <trkpt lat="42.6329761092" lon="0.8597777411">
        <ele>2182.33</ele>
        <time>2019-09-07T13:30:02Z</time>
      </trkpt>
      <trkpt lat="42.6329807192" lon="0.8597397711">
        <ele>2180.89</ele>
        <time>2019-09-07T13:30:12Z</time>
      </trkpt>
      <trkpt lat="42.6329572499" lon="0.8596578799">
        <ele>2178.00</ele>
        <time>2019-09-07T13:30:24Z</time>
      </trkpt>
      <trkpt lat="42.6329355408" lon="0.8596179821">
        <ele>2176.56</ele>
        <time>2019-09-07T13:30:33Z</time>
      </trkpt>
      <trkpt lat="42.6328734308" lon="0.8596328180">
        <ele>2174.64</ele>
        <time>2019-09-07T13:30:43Z</time>
      </trkpt>
      <trkpt lat="42.6328732632" lon="0.8595740609">
        <ele>2172.24</ele>
        <time>2019-09-07T13:30:53Z</time>
      </trkpt>
      <trkpt lat="42.6328763645" lon="0.8595241886">
        <ele>2170.79</ele>
        <time>2019-09-07T13:31:00Z</time>
      </trkpt>
      <trkpt lat="42.6328408252" lon="0.8594821114">
        <ele>2168.39</ele>
        <time>2019-09-07T13:31:13Z</time>
      </trkpt>
      <trkpt lat="42.6328756101" lon="0.8594275452">
        <ele>2166.47</ele>
        <time>2019-09-07T13:31:23Z</time>
      </trkpt>
      <trkpt lat="42.6329372171" lon="0.8593963645">
        <ele>2164.55</ele>
        <time>2019-09-07T13:31:35Z</time>
      </trkpt>
      <trkpt lat="42.6329948846" lon="0.8593523595">
        <ele>2161.66</ele>
        <time>2019-09-07T13:31:46Z</time>
      </trkpt>
      <trkpt lat="42.6330261491" lon="0.8592915069">
        <ele>2158.78</ele>
        <time>2019-09-07T13:31:57Z</time>
      </trkpt>
      <trkpt lat="42.6330137439" lon="0.8592350967">
        <ele>2157.34</ele>
        <time>2019-09-07T13:32:08Z</time>
      </trkpt>
      <trkpt lat="42.6330335252" lon="0.8591709752">
        <ele>2154.93</ele>
        <time>2019-09-07T13:32:18Z</time>
      </trkpt>
      <trkpt lat="42.6330074575" lon="0.8591638505">
        <ele>2153.01</ele>
        <time>2019-09-07T13:32:28Z</time>
      </trkpt>
      <trkpt lat="42.6330150012" lon="0.8590930235">
        <ele>2151.57</ele>
        <time>2019-09-07T13:32:38Z</time>
      </trkpt>
      <trkpt lat="42.6330354530" lon="0.8590050135">
        <ele>2149.65</ele>
        <time>2019-09-07T13:32:48Z</time>
      </trkpt>
      <trkpt lat="42.6330341119" lon="0.8589239605">
        <ele>2146.76</ele>
        <time>2019-09-07T13:32:58Z</time>
      </trkpt>
      <trkpt lat="42.6330653764" lon="0.8588759322">
        <ele>2144.84</ele>
        <time>2019-09-07T13:33:08Z</time>
      </trkpt>
      <trkpt lat="42.6330602635" lon="0.8588431589">
        <ele>2143.88</ele>
        <time>2019-09-07T13:33:15Z</time>
      </trkpt>
      <trkpt lat="42.6330678072" lon="0.8588307537">
        <ele>2143.88</ele>
        <time>2019-09-07T13:33:16Z</time>
      </trkpt>
      <trkpt lat="42.6331102196" lon="0.8587703202">
        <ele>2141.47</ele>
        <time>2019-09-07T13:33:26Z</time>
      </trkpt>
      <trkpt lat="42.6330761053" lon="0.8587108925">
        <ele>2139.55</ele>
        <time>2019-09-07T13:33:37Z</time>
      </trkpt>
      <trkpt lat="42.6331003290" lon="0.8586412389">
        <ele>2137.15</ele>
        <time>2019-09-07T13:33:48Z</time>
      </trkpt>
      <trkpt lat="42.6331045199" lon="0.8585911989">
        <ele>2135.23</ele>
        <time>2019-09-07T13:33:58Z</time>
      </trkpt>
      <trkpt lat="42.6331204455" lon="0.8585399017">
        <ele>2134.26</ele>
        <time>2019-09-07T13:34:02Z</time>
      </trkpt>
      <trkpt lat="42.6331564877" lon="0.8584443480">
        <ele>2132.34</ele>
        <time>2019-09-07T13:34:09Z</time>
      </trkpt>
      <trkpt lat="42.6331585832" lon="0.8584293444">
        <ele>2131.86</ele>
        <time>2019-09-07T13:34:10Z</time>
      </trkpt>
      <trkpt lat="42.6331636962" lon="0.8584146760">
        <ele>2131.86</ele>
        <time>2019-09-07T13:34:11Z</time>
      </trkpt>
      <trkpt lat="42.6331700664" lon="0.8583984990">
        <ele>2131.38</ele>
        <time>2019-09-07T13:34:12Z</time>
      </trkpt>
      <trkpt lat="42.6331770234" lon="0.8583830763">
        <ele>2131.38</ele>
        <time>2019-09-07T13:34:13Z</time>
      </trkpt>
      <trkpt lat="42.6331842318" lon="0.8583681565">
        <ele>2130.90</ele>
        <time>2019-09-07T13:34:14Z</time>
      </trkpt>
      <trkpt lat="42.6332525443" lon="0.8582608681">
        <ele>2129.94</ele>
        <time>2019-09-07T13:34:24Z</time>
      </trkpt>
      <trkpt lat="42.6332695596" lon="0.8582331240">
        <ele>2129.46</ele>
        <time>2019-09-07T13:34:30Z</time>
      </trkpt>
      <trkpt lat="42.6332763489" lon="0.8582213055">
        <ele>2129.46</ele>
        <time>2019-09-07T13:34:31Z</time>
      </trkpt>
      <trkpt lat="42.6332856528" lon="0.8582104091">
        <ele>2129.46</ele>
        <time>2019-09-07T13:34:32Z</time>
      </trkpt>
      <trkpt lat="42.6332962140" lon="0.8582013566">
        <ele>2129.46</ele>
        <time>2019-09-07T13:34:33Z</time>
      </trkpt>
      <trkpt lat="42.6333071105" lon="0.8581953216">
        <ele>2128.98</ele>
        <time>2019-09-07T13:34:34Z</time>
      </trkpt>
      <trkpt lat="42.6333201863" lon="0.8581794798">
        <ele>2128.98</ele>
        <time>2019-09-07T13:34:36Z</time>
      </trkpt>
      <trkpt lat="42.6333237067" lon="0.8581657335">
        <ele>2128.50</ele>
        <time>2019-09-07T13:34:37Z</time>
      </trkpt>
      <trkpt lat="42.6333281491" lon="0.8581509814">
        <ele>2128.50</ele>
        <time>2019-09-07T13:34:38Z</time>
      </trkpt>
      <trkpt lat="42.6333354414" lon="0.8581408393">
        <ele>2128.50</ele>
        <time>2019-09-07T13:34:39Z</time>
      </trkpt>
      <trkpt lat="42.6334562246" lon="0.8580467943">
        <ele>2127.05</ele>
        <time>2019-09-07T13:34:51Z</time>
      </trkpt>
      <trkpt lat="42.6334880758" lon="0.8579870313">
        <ele>2126.57</ele>
        <time>2019-09-07T13:34:58Z</time>
      </trkpt>
      <trkpt lat="42.6334931049" lon="0.8579742908">
        <ele>2126.09</ele>
        <time>2019-09-07T13:34:59Z</time>
      </trkpt>
      <trkpt lat="42.6335786842" lon="0.8578712773">
        <ele>2124.17</ele>
        <time>2019-09-07T13:35:09Z</time>
      </trkpt>
      <trkpt lat="42.6336028241" lon="0.8578129392">
        <ele>2123.69</ele>
        <time>2019-09-07T13:35:19Z</time>
      </trkpt>
      <trkpt lat="42.6336329151" lon="0.8577809203">
        <ele>2122.73</ele>
        <time>2019-09-07T13:35:30Z</time>
      </trkpt>
      <trkpt lat="42.6336417161" lon="0.8577773999">
        <ele>2122.25</ele>
        <time>2019-09-07T13:35:31Z</time>
      </trkpt>
      <trkpt lat="42.6336785126" lon="0.8577098418">
        <ele>2121.29</ele>
        <time>2019-09-07T13:35:42Z</time>
      </trkpt>
      <trkpt lat="42.6336408779" lon="0.8577071596">
        <ele>2120.32</ele>
        <time>2019-09-07T13:35:48Z</time>
      </trkpt>
      <trkpt lat="42.6336231083" lon="0.8577130269">
        <ele>2120.32</ele>
        <time>2019-09-07T13:35:49Z</time>
      </trkpt>
      <trkpt lat="42.6336058415" lon="0.8577206545">
        <ele>2119.84</ele>
        <time>2019-09-07T13:35:50Z</time>
      </trkpt>
      <trkpt lat="42.6335904188" lon="0.8577279467">
        <ele>2119.84</ele>
        <time>2019-09-07T13:35:51Z</time>
      </trkpt>
      <trkpt lat="42.6335771754" lon="0.8577358257">
        <ele>2119.36</ele>
        <time>2019-09-07T13:35:52Z</time>
      </trkpt>
      <trkpt lat="42.6335646864" lon="0.8577442914">
        <ele>2119.36</ele>
        <time>2019-09-07T13:35:53Z</time>
      </trkpt>
      <trkpt lat="42.6335532870" lon="0.8577548526">
        <ele>2118.88</ele>
        <time>2019-09-07T13:35:54Z</time>
      </trkpt>
      <trkpt lat="42.6335440669" lon="0.8577653300">
        <ele>2118.40</ele>
        <time>2019-09-07T13:35:55Z</time>
      </trkpt>
      <trkpt lat="42.6334784366" lon="0.8578005340">
        <ele>2117.92</ele>
        <time>2019-09-07T13:36:03Z</time>
      </trkpt>
      <trkpt lat="42.6334605832" lon="0.8578211535">
        <ele>2117.44</ele>
        <time>2019-09-07T13:36:05Z</time>
      </trkpt>
      <trkpt lat="42.6334252115" lon="0.8578401804">
        <ele>2116.96</ele>
        <time>2019-09-07T13:36:11Z</time>
      </trkpt>
      <trkpt lat="42.6334051788" lon="0.8578484785">
        <ele>2116.96</ele>
        <time>2019-09-07T13:36:13Z</time>
      </trkpt>
      <trkpt lat="42.6333931088" lon="0.8578576148">
        <ele>2116.96</ele>
        <time>2019-09-07T13:36:14Z</time>
      </trkpt>
      <trkpt lat="42.6333821286" lon="0.8578624763">
        <ele>2116.48</ele>
        <time>2019-09-07T13:36:15Z</time>
      </trkpt>
      <trkpt lat="42.6333636884" lon="0.8578778990">
        <ele>2116.00</ele>
        <time>2019-09-07T13:36:18Z</time>
      </trkpt>
      <trkpt lat="42.6333541330" lon="0.8578835148">
        <ele>2116.00</ele>
        <time>2019-09-07T13:36:19Z</time>
      </trkpt>
      <trkpt lat="42.6333368663" lon="0.8578958362">
        <ele>2115.52</ele>
        <time>2019-09-07T13:36:21Z</time>
      </trkpt>
      <trkpt lat="42.6332824677" lon="0.8578838501">
        <ele>2114.08</ele>
        <time>2019-09-07T13:36:31Z</time>
      </trkpt>
      <trkpt lat="42.6332626864" lon="0.8578908909">
        <ele>2113.60</ele>
        <time>2019-09-07T13:36:33Z</time>
      </trkpt>
      <trkpt lat="42.6332496945" lon="0.8578939922">
        <ele>2113.12</ele>
        <time>2019-09-07T13:36:34Z</time>
      </trkpt>
      <trkpt lat="42.6332368702" lon="0.8578949980">
        <ele>2113.12</ele>
        <time>2019-09-07T13:36:35Z</time>
      </trkpt>
      <trkpt lat="42.6331571583" lon="0.8578972612">
        <ele>2111.19</ele>
        <time>2019-09-07T13:36:46Z</time>
      </trkpt>
      <trkpt lat="42.6331316773" lon="0.8578693494">
        <ele>2109.75</ele>
        <time>2019-09-07T13:36:56Z</time>
      </trkpt>
      <trkpt lat="42.6331223734" lon="0.8578610513">
        <ele>2109.75</ele>
        <time>2019-09-07T13:36:57Z</time>
      </trkpt>
      <trkpt lat="42.6331095491" lon="0.8578579500">
        <ele>2109.75</ele>
        <time>2019-09-07T13:36:58Z</time>
      </trkpt>
      <trkpt lat="42.6330939587" lon="0.8578602131">
        <ele>2109.27</ele>
        <time>2019-09-07T13:36:59Z</time>
      </trkpt>
      <trkpt lat="42.6330825593" lon="0.8578639850">
        <ele>2108.79</ele>
        <time>2019-09-07T13:37:00Z</time>
      </trkpt>
      <trkpt lat="42.6330730040" lon="0.8578709420">
        <ele>2108.79</ele>
        <time>2019-09-07T13:37:01Z</time>
      </trkpt>
      <trkpt lat="42.6330394763" lon="0.8578709420">
        <ele>2106.87</ele>
        <time>2019-09-07T13:37:07Z</time>
      </trkpt>
      <trkpt lat="42.6330252271" lon="0.8578749653">
        <ele>2106.87</ele>
        <time>2019-09-07T13:37:08Z</time>
      </trkpt>
      <trkpt lat="42.6330139954" lon="0.8578836825">
        <ele>2106.39</ele>
        <time>2019-09-07T13:37:09Z</time>
      </trkpt>
      <trkpt lat="42.6330033503" lon="0.8578935731">
        <ele>2106.39</ele>
        <time>2019-09-07T13:37:10Z</time>
      </trkpt>
      <trkpt lat="42.6329643745" lon="0.8579094149">
        <ele>2105.91</ele>
        <time>2019-09-07T13:37:14Z</time>
      </trkpt>
      <trkpt lat="42.6328813937" lon="0.8579619695">
        <ele>2103.02</ele>
        <time>2019-09-07T13:37:25Z</time>
      </trkpt>
      <trkpt lat="42.6328311022" lon="0.8579304535">
        <ele>2100.62</ele>
        <time>2019-09-07T13:37:37Z</time>
      </trkpt>
      <trkpt lat="42.6328296773" lon="0.8578546811">
        <ele>2097.73</ele>
        <time>2019-09-07T13:37:46Z</time>
      </trkpt>
      <trkpt lat="42.6328347903" lon="0.8578421921">
        <ele>2097.25</ele>
        <time>2019-09-07T13:37:47Z</time>
      </trkpt>
      <trkpt lat="42.6328429207" lon="0.8578329720">
        <ele>2097.25</ele>
        <time>2019-09-07T13:37:48Z</time>
      </trkpt>
      <trkpt lat="42.6328769512" lon="0.8577668387">
        <ele>2094.85</ele>
        <time>2019-09-07T13:37:57Z</time>
      </trkpt>
      <trkpt lat="42.6328745205" lon="0.8577286173">
        <ele>2093.41</ele>
        <time>2019-09-07T13:38:02Z</time>
      </trkpt>
      <trkpt lat="42.6328779571" lon="0.8577146195">
        <ele>2093.41</ele>
        <time>2019-09-07T13:38:03Z</time>
      </trkpt>
      <trkpt lat="42.6328819804" lon="0.8577004541">
        <ele>2092.93</ele>
        <time>2019-09-07T13:38:04Z</time>
      </trkpt>
      <trkpt lat="42.6328861713" lon="0.8576875459">
        <ele>2092.45</ele>
        <time>2019-09-07T13:38:05Z</time>
      </trkpt>
      <trkpt lat="42.6329338644" lon="0.8576259390">
        <ele>2090.04</ele>
        <time>2019-09-07T13:38:16Z</time>
      </trkpt>
      <trkpt lat="42.6329367142" lon="0.8575821016">
        <ele>2089.08</ele>
        <time>2019-09-07T13:38:22Z</time>
      </trkpt>
      <trkpt lat="42.6329197828" lon="0.8575612307">
        <ele>2087.64</ele>
        <time>2019-09-07T13:38:28Z</time>
      </trkpt>
      <trkpt lat="42.6328641269" lon="0.8575962670">
        <ele>2086.68</ele>
        <time>2019-09-07T13:38:35Z</time>
      </trkpt>
      <trkpt lat="42.6328288391" lon="0.8575720433">
        <ele>2084.28</ele>
        <time>2019-09-07T13:38:45Z</time>
      </trkpt>
      <trkpt lat="42.6328544039" lon="0.8575050719">
        <ele>2082.83</ele>
        <time>2019-09-07T13:38:57Z</time>
      </trkpt>
      <trkpt lat="42.6328695752" lon="0.8574603964">
        <ele>2081.39</ele>
        <time>2019-09-07T13:39:05Z</time>
      </trkpt>
      <trkpt lat="42.6328969002" lon="0.8573826961">
        <ele>2079.47</ele>
        <time>2019-09-07T13:39:16Z</time>
      </trkpt>
      <trkpt lat="42.6329070423" lon="0.8573542815">
        <ele>2077.55</ele>
        <time>2019-09-07T13:39:29Z</time>
      </trkpt>
      <trkpt lat="42.6329580881" lon="0.8573060017">
        <ele>2076.59</ele>
        <time>2019-09-07T13:39:39Z</time>
      </trkpt>
      <trkpt lat="42.6329908613" lon="0.8572417963">
        <ele>2074.18</ele>
        <time>2019-09-07T13:39:47Z</time>
      </trkpt>
      <trkpt lat="42.6330126543" lon="0.8571858890">
        <ele>2072.26</ele>
        <time>2019-09-07T13:39:56Z</time>
      </trkpt>
      <trkpt lat="42.6330581680" lon="0.8571319096">
        <ele>2070.34</ele>
        <time>2019-09-07T13:40:07Z</time>
      </trkpt>
      <trkpt lat="42.6330779493" lon="0.8570497669">
        <ele>2067.93</ele>
        <time>2019-09-07T13:40:17Z</time>
      </trkpt>
      <trkpt lat="42.6331229601" lon="0.8569698874">
        <ele>2066.01</ele>
        <time>2019-09-07T13:40:29Z</time>
      </trkpt>
      <trkpt lat="42.6331167575" lon="0.8569116332">
        <ele>2063.61</ele>
        <time>2019-09-07T13:40:36Z</time>
      </trkpt>
      <trkpt lat="42.6331277378" lon="0.8568419795">
        <ele>2061.68</ele>
        <time>2019-09-07T13:40:44Z</time>
      </trkpt>
      <trkpt lat="42.6331207808" lon="0.8567984775">
        <ele>2060.24</ele>
        <time>2019-09-07T13:40:48Z</time>
      </trkpt>
      <trkpt lat="42.6331197750" lon="0.8567456715">
        <ele>2058.80</ele>
        <time>2019-09-07T13:40:53Z</time>
      </trkpt>
      <trkpt lat="42.6330447569" lon="0.8566425741">
        <ele>2056.40</ele>
        <time>2019-09-07T13:41:00Z</time>
      </trkpt>
      <trkpt lat="42.6329857484" lon="0.8564791270">
        <ele>2053.03</ele>
        <time>2019-09-07T13:41:09Z</time>
      </trkpt>
      <trkpt lat="42.6329683140" lon="0.8564472757">
        <ele>2051.59</ele>
        <time>2019-09-07T13:41:12Z</time>
      </trkpt>
      <trkpt lat="42.6329687331" lon="0.8563352097">
        <ele>2049.19</ele>
        <time>2019-09-07T13:41:22Z</time>
      </trkpt>
      <trkpt lat="42.6329569984" lon="0.8562246524">
        <ele>2046.30</ele>
        <time>2019-09-07T13:41:35Z</time>
      </trkpt>
      <trkpt lat="42.6329654641" lon="0.8562199585">
        <ele>2046.30</ele>
        <time>2019-09-07T13:41:36Z</time>
      </trkpt>
      <trkpt lat="42.6330434158" lon="0.8562421706">
        <ele>2044.38</ele>
        <time>2019-09-07T13:41:47Z</time>
      </trkpt>
      <trkpt lat="42.6331137400" lon="0.8562546596">
        <ele>2041.98</ele>
        <time>2019-09-07T13:41:57Z</time>
      </trkpt>
      <trkpt lat="42.6331361197" lon="0.8562841639">
        <ele>2041.50</ele>
        <time>2019-09-07T13:42:00Z</time>
      </trkpt>
      <trkpt lat="42.6331939548" lon="0.8562259935">
        <ele>2041.02</ele>
        <time>2019-09-07T13:42:06Z</time>
      </trkpt>
      <trkpt lat="42.6333063561" lon="0.8562603593">
        <ele>2040.54</ele>
        <time>2019-09-07T13:42:13Z</time>
      </trkpt>
      <trkpt lat="42.6334283128" lon="0.8562130015">
        <ele>2040.05</ele>
        <time>2019-09-07T13:42:22Z</time>
      </trkpt>
      <trkpt lat="42.6335118804" lon="0.8562514745">
        <ele>2040.05</ele>
        <time>2019-09-07T13:42:26Z</time>
      </trkpt>
      <trkpt lat="42.6335774269" lon="0.8562218025">
        <ele>2040.54</ele>
        <time>2019-09-07T13:42:32Z</time>
      </trkpt>
      <trkpt lat="42.6335475035" lon="0.8561517298">
        <ele>2040.54</ele>
        <time>2019-09-07T13:42:34Z</time>
      </trkpt>
      <trkpt lat="42.6336454879" lon="0.8562337887">
        <ele>2040.54</ele>
        <time>2019-09-07T13:42:37Z</time>
      </trkpt>
      <trkpt lat="42.6336828712" lon="0.8562233951">
        <ele>2041.02</ele>
        <time>2019-09-07T13:42:41Z</time>
      </trkpt>
      <trkpt lat="42.6337083522" lon="0.8561949804">
        <ele>2041.50</ele>
        <time>2019-09-07T13:42:44Z</time>
      </trkpt>
      <trkpt lat="42.6337579731" lon="0.8561599441">
        <ele>2041.98</ele>
        <time>2019-09-07T13:42:52Z</time>
      </trkpt>
      <trkpt lat="42.6337847952" lon="0.8561430126">
        <ele>2041.02</ele>
        <time>2019-09-07T13:42:55Z</time>
      </trkpt>
      <trkpt lat="42.6338264532" lon="0.8560841717">
        <ele>2039.57</ele>
        <time>2019-09-07T13:43:03Z</time>
      </trkpt>
      <trkpt lat="42.6338301413" lon="0.8560597803">
        <ele>2039.09</ele>
        <time>2019-09-07T13:43:05Z</time>
      </trkpt>
      <trkpt lat="42.6338671055" lon="0.8560306113">
        <ele>2037.65</ele>
        <time>2019-09-07T13:43:10Z</time>
      </trkpt>
      <trkpt lat="42.6339533553" lon="0.8559148572">
        <ele>2034.29</ele>
        <time>2019-09-07T13:43:21Z</time>
      </trkpt>
      <trkpt lat="42.6340135373" lon="0.8558664937">
        <ele>2032.84</ele>
        <time>2019-09-07T13:43:27Z</time>
      </trkpt>
      <trkpt lat="42.6340483222" lon="0.8558580279">
        <ele>2032.36</ele>
        <time>2019-09-07T13:43:31Z</time>
      </trkpt>
      <trkpt lat="42.6341447141" lon="0.8557994384">
        <ele>2030.44</ele>
        <time>2019-09-07T13:43:42Z</time>
      </trkpt>
      <trkpt lat="42.6341726258" lon="0.8557739574">
        <ele>2029.96</ele>
        <time>2019-09-07T13:43:49Z</time>
      </trkpt>
      <trkpt lat="42.6342034712" lon="0.8556632325">
        <ele>2028.04</ele>
        <time>2019-09-07T13:44:02Z</time>
      </trkpt>
      <trkpt lat="42.6341668423" lon="0.8556100074">
        <ele>2025.64</ele>
        <time>2019-09-07T13:44:12Z</time>
      </trkpt>
      <trkpt lat="42.6341571193" lon="0.8555732947">
        <ele>2024.67</ele>
        <time>2019-09-07T13:44:19Z</time>
      </trkpt>
      <trkpt lat="42.6341821812" lon="0.8555297926">
        <ele>2024.19</ele>
        <time>2019-09-07T13:44:22Z</time>
      </trkpt>
      <trkpt lat="42.6343297027" lon="0.8553479053">
        <ele>2023.23</ele>
        <time>2019-09-07T13:44:36Z</time>
      </trkpt>
      <trkpt lat="42.6343400124" lon="0.8553343266">
        <ele>2023.23</ele>
        <time>2019-09-07T13:44:37Z</time>
      </trkpt>
      <trkpt lat="42.6343482267" lon="0.8553198259">
        <ele>2023.23</ele>
        <time>2019-09-07T13:44:38Z</time>
      </trkpt>
      <trkpt lat="42.6343558542" lon="0.8553067502">
        <ele>2023.23</ele>
        <time>2019-09-07T13:44:39Z</time>
      </trkpt>
      <trkpt lat="42.6343617216" lon="0.8552915789">
        <ele>2023.23</ele>
        <time>2019-09-07T13:44:40Z</time>
      </trkpt>
      <trkpt lat="42.6343681756" lon="0.8552751504">
        <ele>2023.23</ele>
        <time>2019-09-07T13:44:41Z</time>
      </trkpt>
      <trkpt lat="42.6343742106" lon="0.8552579675">
        <ele>2023.23</ele>
        <time>2019-09-07T13:44:42Z</time>
      </trkpt>
      <trkpt lat="42.6343791559" lon="0.8552417904">
        <ele>2023.23</ele>
        <time>2019-09-07T13:44:43Z</time>
      </trkpt>
      <trkpt lat="42.6344052237" lon="0.8551769983">
        <ele>2023.23</ele>
        <time>2019-09-07T13:44:54Z</time>
      </trkpt>
      <trkpt lat="42.6344355661" lon="0.8551350050">
        <ele>2022.75</ele>
        <time>2019-09-07T13:44:59Z</time>
      </trkpt>
      <trkpt lat="42.6344447024" lon="0.8551121224">
        <ele>2022.27</ele>
        <time>2019-09-07T13:45:01Z</time>
      </trkpt>
      <trkpt lat="42.6344565209" lon="0.8550771698">
        <ele>2021.79</ele>
        <time>2019-09-07T13:45:04Z</time>
      </trkpt>
      <trkpt lat="42.6344904676" lon="0.8549859747">
        <ele>2020.35</ele>
        <time>2019-09-07T13:45:11Z</time>
      </trkpt>
      <trkpt lat="42.6344996877" lon="0.8549756650">
        <ele>2020.35</ele>
        <time>2019-09-07T13:45:12Z</time>
      </trkpt>
      <trkpt lat="42.6345232408" lon="0.8549305703">
        <ele>2019.39</ele>
        <time>2019-09-07T13:45:17Z</time>
      </trkpt>
      <trkpt lat="42.6345288567" lon="0.8549178299">
        <ele>2018.91</ele>
        <time>2019-09-07T13:45:18Z</time>
      </trkpt>
      <trkpt lat="42.6346091554" lon="0.8547690511">
        <ele>2016.98</ele>
        <time>2019-09-07T13:45:31Z</time>
      </trkpt>
      <trkpt lat="42.6346147712" lon="0.8547033370">
        <ele>2016.02</ele>
        <time>2019-09-07T13:45:37Z</time>
      </trkpt>
      <trkpt lat="42.6346084010" lon="0.8546913508">
        <ele>2016.02</ele>
        <time>2019-09-07T13:45:38Z</time>
      </trkpt>
      <trkpt lat="42.6346080657" lon="0.8546746708">
        <ele>2016.02</ele>
        <time>2019-09-07T13:45:39Z</time>
      </trkpt>
      <trkpt lat="42.6346108317" lon="0.8546605054">
        <ele>2015.54</ele>
        <time>2019-09-07T13:45:40Z</time>
      </trkpt>
      <trkpt lat="42.6346150227" lon="0.8546469267">
        <ele>2015.54</ele>
        <time>2019-09-07T13:45:41Z</time>
      </trkpt>
      <trkpt lat="42.6346210577" lon="0.8546343539">
        <ele>2015.54</ele>
        <time>2019-09-07T13:45:42Z</time>
      </trkpt>
      <trkpt lat="42.6346400008" lon="0.8546205238">
        <ele>2015.06</ele>
        <time>2019-09-07T13:45:50Z</time>
      </trkpt>
      <trkpt lat="42.6346072275" lon="0.8546292409">
        <ele>2015.06</ele>
        <time>2019-09-07T13:46:08Z</time>
      </trkpt>
      <trkpt lat="42.6345990133" lon="0.8546409756">
        <ele>2015.06</ele>
        <time>2019-09-07T13:46:24Z</time>
      </trkpt>
      <trkpt lat="42.6346173696" lon="0.8545919415">
        <ele>2015.06</ele>
        <time>2019-09-07T13:46:41Z</time>
      </trkpt>
      <trkpt lat="42.6346536633" lon="0.8546080347">
        <ele>2009.77</ele>
        <time>2019-09-07T13:46:53Z</time>
      </trkpt>
      <trkpt lat="42.6346627995" lon="0.8546198532">
        <ele>2012.18</ele>
        <time>2019-09-07T13:46:54Z</time>
      </trkpt>
      <trkpt lat="42.6346747857" lon="0.8546484355">
        <ele>2014.10</ele>
        <time>2019-09-07T13:46:56Z</time>
      </trkpt>
      <trkpt lat="42.6346767973" lon="0.8546639420">
        <ele>2014.58</ele>
        <time>2019-09-07T13:46:57Z</time>
      </trkpt>
      <trkpt lat="42.6346659008" lon="0.8548292331">
        <ele>2015.06</ele>
        <time>2019-09-07T13:47:37Z</time>
      </trkpt>
      <trkpt lat="42.6344359014" lon="0.8547542151">
        <ele>2016.50</ele>
        <time>2019-09-07T13:47:49Z</time>
      </trkpt>
      <trkpt lat="42.6343778986" lon="0.8549015690">
        <ele>2017.46</ele>
        <time>2019-09-07T13:48:01Z</time>
      </trkpt>
      <trkpt lat="42.6343757194" lon="0.8546574041">
        <ele>2017.46</ele>
        <time>2019-09-07T13:48:46Z</time>
      </trkpt>
      <trkpt lat="42.6340251043" lon="0.8540803101">
        <ele>2017.46</ele>
        <time>2019-09-07T13:49:03Z</time>
      </trkpt>
      <trkpt lat="42.6341789961" lon="0.8544939570">
        <ele>2014.58</ele>
        <time>2019-09-07T13:49:59Z</time>
      </trkpt>
      <trkpt lat="42.6342138648" lon="0.8545337711">
        <ele>2014.58</ele>
        <time>2019-09-07T13:50:00Z</time>
      </trkpt>
      <trkpt lat="42.6343302056" lon="0.8545528818">
        <ele>2014.58</ele>
        <time>2019-09-07T13:50:09Z</time>
      </trkpt>
      <trkpt lat="42.6345760468" lon="0.8544714097">
        <ele>2014.10</ele>
        <time>2019-09-07T13:51:11Z</time>
      </trkpt>
      <trkpt lat="42.6345137693" lon="0.8544746786">
        <ele>2014.58</ele>
        <time>2019-09-07T13:51:15Z</time>
      </trkpt>
      <trkpt lat="42.6344659925" lon="0.8544647042">
        <ele>2014.58</ele>
        <time>2019-09-07T13:51:18Z</time>
      </trkpt>
      <trkpt lat="42.6345845126" lon="0.8546185959">
        <ele>2014.58</ele>
        <time>2019-09-07T13:52:42Z</time>
      </trkpt>
      <trkpt lat="42.6346032880" lon="0.8545780275">
        <ele>2014.58</ele>
        <time>2019-09-07T13:52:47Z</time>
      </trkpt>
      <trkpt lat="42.6346124243" lon="0.8545691427">
        <ele>2014.10</ele>
        <time>2019-09-07T13:52:55Z</time>
      </trkpt>
      <trkpt lat="42.6346052997" lon="0.8545651194">
        <ele>2013.62</ele>
        <time>2019-09-07T13:53:09Z</time>
      </trkpt>
      <trkpt lat="42.6346094906" lon="0.8545735851">
        <ele>2013.62</ele>
        <time>2019-09-07T13:53:26Z</time>
      </trkpt>
      <trkpt lat="42.6345932297" lon="0.8545669634">
        <ele>2013.62</ele>
        <time>2019-09-07T13:53:43Z</time>
      </trkpt>
      <trkpt lat="42.6345855184" lon="0.8545916062">
        <ele>2013.62</ele>
        <time>2019-09-07T13:53:45Z</time>
      </trkpt>
      <trkpt lat="42.6345893741" lon="0.8546350244">
        <ele>2013.62</ele>
        <time>2019-09-07T13:53:49Z</time>
      </trkpt>
      <trkpt lat="42.6346241590" lon="0.8547119703">
        <ele>2013.62</ele>
        <time>2019-09-07T13:53:58Z</time>
      </trkpt>
      <trkpt lat="42.6345625520" lon="0.8548339270">
        <ele>2015.06</ele>
        <time>2019-09-07T13:54:09Z</time>
      </trkpt>
      <trkpt lat="42.6345086563" lon="0.8549543750">
        <ele>2016.98</ele>
        <time>2019-09-07T13:54:21Z</time>
      </trkpt>
      <trkpt lat="42.6344810799" lon="0.8550024033">
        <ele>2017.46</ele>
        <time>2019-09-07T13:54:26Z</time>
      </trkpt>
      <trkpt lat="42.6344514918" lon="0.8551070094">
        <ele>2018.91</ele>
        <time>2019-09-07T13:54:35Z</time>
      </trkpt>
      <trkpt lat="42.6344365720" lon="0.8551486675">
        <ele>2019.39</ele>
        <time>2019-09-07T13:54:39Z</time>
      </trkpt>
      <trkpt lat="42.6344172098" lon="0.8551837876">
        <ele>2020.35</ele>
        <time>2019-09-07T13:54:43Z</time>
      </trkpt>
      <trkpt lat="42.6344097499" lon="0.8551941812">
        <ele>2020.35</ele>
        <time>2019-09-07T13:54:44Z</time>
      </trkpt>
      <trkpt lat="42.6344017871" lon="0.8552078437">
        <ele>2020.83</ele>
        <time>2019-09-07T13:54:45Z</time>
      </trkpt>
      <trkpt lat="42.6343990210" lon="0.8552254457">
        <ele>2020.83</ele>
        <time>2019-09-07T13:54:46Z</time>
      </trkpt>
      <trkpt lat="42.6343915612" lon="0.8552374318">
        <ele>2020.83</ele>
        <time>2019-09-07T13:54:47Z</time>
      </trkpt>
      <trkpt lat="42.6343835145" lon="0.8552489150">
        <ele>2020.83</ele>
        <time>2019-09-07T13:54:48Z</time>
      </trkpt>
      <trkpt lat="42.6343760546" lon="0.8552630804">
        <ele>2020.83</ele>
        <time>2019-09-07T13:54:49Z</time>
      </trkpt>
      <trkpt lat="42.6343696006" lon="0.8552800119">
        <ele>2020.83</ele>
        <time>2019-09-07T13:54:50Z</time>
      </trkpt>
      <trkpt lat="42.6343028806" lon="0.8553797565">
        <ele>2020.83</ele>
        <time>2019-09-07T13:54:59Z</time>
      </trkpt>
      <trkpt lat="42.6342952531" lon="0.8553921618">
        <ele>2020.83</ele>
        <time>2019-09-07T13:55:00Z</time>
      </trkpt>
      <trkpt lat="42.6342891343" lon="0.8554051537">
        <ele>2020.83</ele>
        <time>2019-09-07T13:55:01Z</time>
      </trkpt>
      <trkpt lat="42.6342837699" lon="0.8554159664">
        <ele>2020.83</ele>
        <time>2019-09-07T13:55:02Z</time>
      </trkpt>
      <trkpt lat="42.6342765614" lon="0.8554281201">
        <ele>2020.83</ele>
        <time>2019-09-07T13:55:03Z</time>
      </trkpt>
      <trkpt lat="42.6342665870" lon="0.8554414473">
        <ele>2020.83</ele>
        <time>2019-09-07T13:55:04Z</time>
      </trkpt>
      <trkpt lat="42.6342368312" lon="0.8554824349">
        <ele>2020.83</ele>
        <time>2019-09-07T13:55:07Z</time>
      </trkpt>
      <trkpt lat="42.6341608074" lon="0.8555722889">
        <ele>2020.83</ele>
        <time>2019-09-07T13:55:16Z</time>
      </trkpt>
      <trkpt lat="42.6341509167" lon="0.8555822633">
        <ele>2020.83</ele>
        <time>2019-09-07T13:55:17Z</time>
      </trkpt>
      <trkpt lat="42.6341245975" lon="0.8556099236">
        <ele>2021.31</ele>
        <time>2019-09-07T13:55:20Z</time>
      </trkpt>
      <trkpt lat="42.6340705343" lon="0.8556804154">
        <ele>2023.23</ele>
        <time>2019-09-07T13:55:29Z</time>
      </trkpt>
      <trkpt lat="42.6340494119" lon="0.8557301201">
        <ele>2024.19</ele>
        <time>2019-09-07T13:55:35Z</time>
      </trkpt>
      <trkpt lat="42.6339613181" lon="0.8557922300">
        <ele>2024.67</ele>
        <time>2019-09-07T13:55:46Z</time>
      </trkpt>
      <trkpt lat="42.6339085121" lon="0.8558343071">
        <ele>2026.60</ele>
        <time>2019-09-07T13:55:54Z</time>
      </trkpt>
      <trkpt lat="42.6338066719" lon="0.8559011947">
        <ele>2028.04</ele>
        <time>2019-09-07T13:56:07Z</time>
      </trkpt>
      <trkpt lat="42.6337874774" lon="0.8559229039">
        <ele>2028.52</ele>
        <time>2019-09-07T13:56:10Z</time>
      </trkpt>
      <trkpt lat="42.6337257028" lon="0.8559180424">
        <ele>2029.96</ele>
        <time>2019-09-07T13:56:17Z</time>
      </trkpt>
      <trkpt lat="42.6336614136" lon="0.8559766319">
        <ele>2031.40</ele>
        <time>2019-09-07T13:56:25Z</time>
      </trkpt>
      <trkpt lat="42.6335920952" lon="0.8560292702">
        <ele>2033.81</ele>
        <time>2019-09-07T13:56:35Z</time>
      </trkpt>
      <trkpt lat="42.6335688774" lon="0.8560601156">
        <ele>2034.29</ele>
        <time>2019-09-07T13:56:39Z</time>
      </trkpt>
      <trkpt lat="42.6334913447" lon="0.8561717626">
        <ele>2036.21</ele>
        <time>2019-09-07T13:56:52Z</time>
      </trkpt>
      <trkpt lat="42.6335569751" lon="0.8561666496">
        <ele>2037.17</ele>
        <time>2019-09-07T13:56:58Z</time>
      </trkpt>
      <trkpt lat="42.6335884072" lon="0.8561676554">
        <ele>2037.17</ele>
        <time>2019-09-07T13:57:01Z</time>
      </trkpt>
      <trkpt lat="42.6336859725" lon="0.8561385702">
        <ele>2038.61</ele>
        <time>2019-09-07T13:57:12Z</time>
      </trkpt>
      <trkpt lat="42.6337227691" lon="0.8561287634">
        <ele>2039.09</ele>
        <time>2019-09-07T13:57:16Z</time>
      </trkpt>
      <trkpt lat="42.6337837894" lon="0.8561233152">
        <ele>2038.61</ele>
        <time>2019-09-07T13:57:24Z</time>
      </trkpt>
      <trkpt lat="42.6337951049" lon="0.8561201300">
        <ele>2038.13</ele>
        <time>2019-09-07T13:57:25Z</time>
      </trkpt>
      <trkpt lat="42.6338175684" lon="0.8561131731">
        <ele>2037.65</ele>
        <time>2019-09-07T13:57:27Z</time>
      </trkpt>
      <trkpt lat="42.6338461507" lon="0.8561282605">
        <ele>2036.69</ele>
        <time>2019-09-07T13:57:32Z</time>
      </trkpt>
      <trkpt lat="42.6338473242" lon="0.8560785558">
        <ele>2036.21</ele>
        <time>2019-09-07T13:57:36Z</time>
      </trkpt>
      <trkpt lat="42.6339070871" lon="0.8560795616">
        <ele>2035.25</ele>
        <time>2019-09-07T13:57:40Z</time>
      </trkpt>
      <trkpt lat="42.6339092664" lon="0.8560713474">
        <ele>2035.25</ele>
        <time>2019-09-07T13:57:41Z</time>
      </trkpt>
      <trkpt lat="42.6339348312" lon="0.8560147695">
        <ele>2033.81</ele>
        <time>2019-09-07T13:57:48Z</time>
      </trkpt>
      <trkpt lat="42.6339396089" lon="0.8560055494">
        <ele>2032.84</ele>
        <time>2019-09-07T13:57:57Z</time>
      </trkpt>
      <trkpt lat="42.6339399442" lon="0.8560219780">
        <ele>2032.36</ele>
        <time>2019-09-07T13:58:02Z</time>
      </trkpt>
      <trkpt lat="42.6339135412" lon="0.8560208883">
        <ele>2032.84</ele>
        <time>2019-09-07T13:58:07Z</time>
      </trkpt>
      <trkpt lat="42.6338629983" lon="0.8560593612">
        <ele>2034.77</ele>
        <time>2019-09-07T13:58:15Z</time>
      </trkpt>
      <trkpt lat="42.6338204183" lon="0.8560785558">
        <ele>2035.73</ele>
        <time>2019-09-07T13:58:24Z</time>
      </trkpt>
      <trkpt lat="42.6337245293" lon="0.8561543282">
        <ele>2038.61</ele>
        <time>2019-09-07T13:58:37Z</time>
      </trkpt>
      <trkpt lat="42.6337073464" lon="0.8561787196">
        <ele>2038.61</ele>
        <time>2019-09-07T13:58:39Z</time>
      </trkpt>
      <trkpt lat="42.6335650217" lon="0.8561648894">
        <ele>2038.13</ele>
        <time>2019-09-07T13:58:49Z</time>
      </trkpt>
      <trkpt lat="42.6334521174" lon="0.8562219702">
        <ele>2037.17</ele>
        <time>2019-09-07T13:58:58Z</time>
      </trkpt>
      <trkpt lat="42.6334256306" lon="0.8562342077">
        <ele>2037.17</ele>
        <time>2019-09-07T13:59:00Z</time>
      </trkpt>
      <trkpt lat="42.6333140675" lon="0.8562823199">
        <ele>2037.17</ele>
        <time>2019-09-07T13:59:09Z</time>
      </trkpt>
      <trkpt lat="42.6332719903" lon="0.8562834095">
        <ele>2037.17</ele>
        <time>2019-09-07T13:59:12Z</time>
      </trkpt>
      <trkpt lat="42.6332253031" lon="0.8563114051">
        <ele>2037.17</ele>
        <time>2019-09-07T13:59:16Z</time>
      </trkpt>
      <trkpt lat="42.6331414841" lon="0.8562961500">
        <ele>2037.17</ele>
        <time>2019-09-07T13:59:23Z</time>
      </trkpt>
      <trkpt lat="42.6330828946" lon="0.8562464453">
        <ele>2037.65</ele>
        <time>2019-09-07T13:59:31Z</time>
      </trkpt>
      <trkpt lat="42.6330502052" lon="0.8562494628">
        <ele>2038.61</ele>
        <time>2019-09-07T13:59:37Z</time>
      </trkpt>
      <trkpt lat="42.6330036856" lon="0.8562368900">
        <ele>2039.57</ele>
        <time>2019-09-07T13:59:43Z</time>
      </trkpt>
      <trkpt lat="42.6329562441" lon="0.8562296815">
        <ele>2041.02</ele>
        <time>2019-09-07T13:59:48Z</time>
      </trkpt>
      <trkpt lat="42.6329870895" lon="0.8563067112">
        <ele>2042.94</ele>
        <time>2019-09-07T13:59:57Z</time>
      </trkpt>
      <trkpt lat="42.6330046915" lon="0.8563962299">
        <ele>2044.38</ele>
        <time>2019-09-07T14:00:05Z</time>
      </trkpt>
      <trkpt lat="42.6330041047" lon="0.8564199507">
        <ele>2045.34</ele>
        <time>2019-09-07T14:00:08Z</time>
      </trkpt>
      <trkpt lat="42.6330299210" lon="0.8565132413">
        <ele>2046.78</ele>
        <time>2019-09-07T14:00:17Z</time>
      </trkpt>
      <trkpt lat="42.6330651250" lon="0.8565983176">
        <ele>2048.71</ele>
        <time>2019-09-07T14:00:27Z</time>
      </trkpt>
      <trkpt lat="42.6331084594" lon="0.8566957153">
        <ele>2050.63</ele>
        <time>2019-09-07T14:00:38Z</time>
      </trkpt>
      <trkpt lat="42.6331553981" lon="0.8567643631">
        <ele>2052.07</ele>
        <time>2019-09-07T14:00:47Z</time>
      </trkpt>
      <trkpt lat="42.6331770234" lon="0.8567939512">
        <ele>2053.03</ele>
        <time>2019-09-07T14:00:51Z</time>
      </trkpt>
      <trkpt lat="42.6331565715" lon="0.8568472601">
        <ele>2054.96</ele>
        <time>2019-09-07T14:01:00Z</time>
      </trkpt>
      <trkpt lat="42.6331631094" lon="0.8568858169">
        <ele>2056.40</ele>
        <time>2019-09-07T14:01:06Z</time>
      </trkpt>
      <trkpt lat="42.6331545599" lon="0.8569328394">
        <ele>2057.84</ele>
        <time>2019-09-07T14:01:14Z</time>
      </trkpt>
      <trkpt lat="42.6331543084" lon="0.8569870703">
        <ele>2059.76</ele>
        <time>2019-09-07T14:01:24Z</time>
      </trkpt>
      <trkpt lat="42.6331090461" lon="0.8570390381">
        <ele>2061.68</ele>
        <time>2019-09-07T14:01:35Z</time>
      </trkpt>
      <trkpt lat="42.6330985688" lon="0.8570676204">
        <ele>2062.65</ele>
        <time>2019-09-07T14:01:39Z</time>
      </trkpt>
      <trkpt lat="42.6330895163" lon="0.8571329154">
        <ele>2064.09</ele>
        <time>2019-09-07T14:01:48Z</time>
      </trkpt>
      <trkpt lat="42.6330600120" lon="0.8571829554">
        <ele>2065.53</ele>
        <time>2019-09-07T14:01:58Z</time>
      </trkpt>
      <trkpt lat="42.6330412365" lon="0.8572164830">
        <ele>2066.97</ele>
        <time>2019-09-07T14:02:08Z</time>
      </trkpt>
      <trkpt lat="42.6330044400" lon="0.8572922554">
        <ele>2068.89</ele>
        <time>2019-09-07T14:02:19Z</time>
      </trkpt>
      <trkpt lat="42.6329669729" lon="0.8573429659">
        <ele>2071.30</ele>
        <time>2019-09-07T14:02:30Z</time>
      </trkpt>
      <trkpt lat="42.6329289190" lon="0.8573898207">
        <ele>2073.22</ele>
        <time>2019-09-07T14:02:40Z</time>
      </trkpt>
      <trkpt lat="42.6329271588" lon="0.8574028127">
        <ele>2073.22</ele>
        <time>2019-09-07T14:02:41Z</time>
      </trkpt>
      <trkpt lat="42.6328919549" lon="0.8574772440">
        <ele>2075.14</ele>
        <time>2019-09-07T14:02:52Z</time>
      </trkpt>
      <trkpt lat="42.6328775380" lon="0.8575369231">
        <ele>2077.07</ele>
        <time>2019-09-07T14:03:01Z</time>
      </trkpt>
      <trkpt lat="42.6328524761" lon="0.8576022182">
        <ele>2078.99</ele>
        <time>2019-09-07T14:03:12Z</time>
      </trkpt>
      <trkpt lat="42.6329023484" lon="0.8575995360">
        <ele>2080.91</ele>
        <time>2019-09-07T14:03:25Z</time>
      </trkpt>
      <trkpt lat="42.6329063717" lon="0.8575970214">
        <ele>2080.91</ele>
        <time>2019-09-07T14:03:26Z</time>
      </trkpt>
      <trkpt lat="42.6329748519" lon="0.8576186467">
        <ele>2081.87</ele>
        <time>2019-09-07T14:03:31Z</time>
      </trkpt>
      <trkpt lat="42.6330093015" lon="0.8576393500">
        <ele>2083.79</ele>
        <time>2019-09-07T14:03:41Z</time>
      </trkpt>
      <trkpt lat="42.6329709124" lon="0.8576643281">
        <ele>2085.24</ele>
        <time>2019-09-07T14:03:48Z</time>
      </trkpt>
      <trkpt lat="42.6329232194" lon="0.8577261865">
        <ele>2086.20</ele>
        <time>2019-09-07T14:03:59Z</time>
      </trkpt>
      <trkpt lat="42.6329187769" lon="0.8577961754">
        <ele>2087.64</ele>
        <time>2019-09-07T14:04:08Z</time>
      </trkpt>
      <trkpt lat="42.6328974869" lon="0.8578499034">
        <ele>2089.08</ele>
        <time>2019-09-07T14:04:18Z</time>
      </trkpt>
      <trkpt lat="42.6328740176" lon="0.8579122648">
        <ele>2091.00</ele>
        <time>2019-09-07T14:04:27Z</time>
      </trkpt>
      <trkpt lat="42.6328616962" lon="0.8579586167">
        <ele>2092.45</ele>
        <time>2019-09-07T14:04:38Z</time>
      </trkpt>
      <trkpt lat="42.6328818966" lon="0.8580089919">
        <ele>2094.37</ele>
        <time>2019-09-07T14:04:48Z</time>
      </trkpt>
      <trkpt lat="42.6329097245" lon="0.8579787333">
        <ele>2095.81</ele>
        <time>2019-09-07T14:04:55Z</time>
      </trkpt>
      <trkpt lat="42.6328734308" lon="0.8579163719">
        <ele>2096.29</ele>
        <time>2019-09-07T14:04:58Z</time>
      </trkpt>
      <trkpt lat="42.6328932960" lon="0.8579119295">
        <ele>2096.77</ele>
        <time>2019-09-07T14:05:00Z</time>
      </trkpt>
      <trkpt lat="42.6329672243" lon="0.8578957524">
        <ele>2099.18</ele>
        <time>2019-09-07T14:05:11Z</time>
      </trkpt>
      <trkpt lat="42.6330356207" lon="0.8578647394">
        <ele>2100.14</ele>
        <time>2019-09-07T14:05:21Z</time>
      </trkpt>
      <trkpt lat="42.6330921985" lon="0.8578582015">
        <ele>2101.58</ele>
        <time>2019-09-07T14:05:30Z</time>
      </trkpt>
      <trkpt lat="42.6331868302" lon="0.8578589559">
        <ele>2103.50</ele>
        <time>2019-09-07T14:05:42Z</time>
      </trkpt>
      <trkpt lat="42.6332214475" lon="0.8578778990">
        <ele>2105.42</ele>
        <time>2019-09-07T14:05:53Z</time>
      </trkpt>
      <trkpt lat="42.6332721580" lon="0.8578889631">
        <ele>2106.39</ele>
        <time>2019-09-07T14:05:58Z</time>
      </trkpt>
      <trkpt lat="42.6332985610" lon="0.8578740433">
        <ele>2107.83</ele>
        <time>2019-09-07T14:06:08Z</time>
      </trkpt>
      <trkpt lat="42.6333019976" lon="0.8578754682">
        <ele>2108.79</ele>
        <time>2019-09-07T14:06:11Z</time>
      </trkpt>
      <trkpt lat="42.6333553065" lon="0.8578447904">
        <ele>2109.75</ele>
        <time>2019-09-07T14:06:17Z</time>
      </trkpt>
      <trkpt lat="42.6334014907" lon="0.8578173816">
        <ele>2110.23</ele>
        <time>2019-09-07T14:06:23Z</time>
      </trkpt>
      <trkpt lat="42.6334276423" lon="0.8578058984">
        <ele>2110.23</ele>
        <time>2019-09-07T14:06:25Z</time>
      </trkpt>
      <trkpt lat="42.6334503572" lon="0.8578137774">
        <ele>2111.19</ele>
        <time>2019-09-07T14:06:32Z</time>
      </trkpt>
      <trkpt lat="42.6334898360" lon="0.8577748016">
        <ele>2111.19</ele>
        <time>2019-09-07T14:06:39Z</time>
      </trkpt>
      <trkpt lat="42.6335160714" lon="0.8577584568">
        <ele>2111.67</ele>
        <time>2019-09-07T14:06:43Z</time>
      </trkpt>
      <trkpt lat="42.6335654408" lon="0.8577297069">
        <ele>2113.12</ele>
        <time>2019-09-07T14:06:49Z</time>
      </trkpt>
      <trkpt lat="42.6335758343" lon="0.8577242587">
        <ele>2113.12</ele>
        <time>2019-09-07T14:06:50Z</time>
      </trkpt>
      <trkpt lat="42.6335866470" lon="0.8577168826">
        <ele>2113.12</ele>
        <time>2019-09-07T14:06:51Z</time>
      </trkpt>
      <trkpt lat="42.6335962862" lon="0.8577090036">
        <ele>2113.12</ele>
        <time>2019-09-07T14:06:52Z</time>
      </trkpt>
      <trkpt lat="42.6336619165" lon="0.8576988615">
        <ele>2114.08</ele>
        <time>2019-09-07T14:07:02Z</time>
      </trkpt>
      <trkpt lat="42.6336634252" lon="0.8577462193">
        <ele>2116.00</ele>
        <time>2019-09-07T14:07:12Z</time>
      </trkpt>
      <trkpt lat="42.6336419675" lon="0.8577683475">
        <ele>2116.96</ele>
        <time>2019-09-07T14:07:16Z</time>
      </trkpt>
      <trkpt lat="42.6336139720" lon="0.8578264341">
        <ele>2117.44</ele>
        <time>2019-09-07T14:07:25Z</time>
      </trkpt>
      <trkpt lat="42.6335638482" lon="0.8579184674">
        <ele>2118.40</ele>
        <time>2019-09-07T14:07:35Z</time>
      </trkpt>
      <trkpt lat="42.6335050073" lon="0.8579943236">
        <ele>2118.88</ele>
        <time>2019-09-07T14:07:44Z</time>
      </trkpt>
      <trkpt lat="42.6334867347" lon="0.8580681682">
        <ele>2119.84</ele>
        <time>2019-09-07T14:07:53Z</time>
      </trkpt>
      <trkpt lat="42.6334359404" lon="0.8580980077">
        <ele>2120.81</ele>
        <time>2019-09-07T14:07:59Z</time>
      </trkpt>
      <trkpt lat="42.6334209368" lon="0.8581030369">
        <ele>2120.81</ele>
        <time>2019-09-07T14:08:00Z</time>
      </trkpt>
      <trkpt lat="42.6334119681" lon="0.8581143524">
        <ele>2120.81</ele>
        <time>2019-09-07T14:08:01Z</time>
      </trkpt>
      <trkpt lat="42.6334035024" lon="0.8581241593">
        <ele>2120.81</ele>
        <time>2019-09-07T14:08:02Z</time>
      </trkpt>
      <trkpt lat="42.6333550550" lon="0.8581999317">
        <ele>2121.29</ele>
        <time>2019-09-07T14:08:11Z</time>
      </trkpt>
      <trkpt lat="42.6333102956" lon="0.8582632989">
        <ele>2122.73</ele>
        <time>2019-09-07T14:08:18Z</time>
      </trkpt>
      <trkpt lat="42.6332630217" lon="0.8583556674">
        <ele>2123.69</ele>
        <time>2019-09-07T14:08:28Z</time>
      </trkpt>
      <trkpt lat="42.6332392171" lon="0.8583908714">
        <ele>2124.17</ele>
        <time>2019-09-07T14:08:32Z</time>
      </trkpt>
      <trkpt lat="42.6332335174" lon="0.8584053721">
        <ele>2124.17</ele>
        <time>2019-09-07T14:08:33Z</time>
      </trkpt>
      <trkpt lat="42.6331949607" lon="0.8584924601">
        <ele>2125.13</ele>
        <time>2019-09-07T14:08:42Z</time>
      </trkpt>
      <trkpt lat="42.6331724972" lon="0.8585918695">
        <ele>2126.57</ele>
        <time>2019-09-07T14:08:50Z</time>
      </trkpt>
      <trkpt lat="42.6331644505" lon="0.8586685639">
        <ele>2128.02</ele>
        <time>2019-09-07T14:08:59Z</time>
      </trkpt>
      <trkpt lat="42.6331174280" lon="0.8587231301">
        <ele>2128.98</ele>
        <time>2019-09-07T14:09:06Z</time>
      </trkpt>
      <trkpt lat="42.6331066154" lon="0.8588009980">
        <ele>2130.42</ele>
        <time>2019-09-07T14:09:16Z</time>
      </trkpt>
      <trkpt lat="42.6331478544" lon="0.8587870002">
        <ele>2133.30</ele>
        <time>2019-09-07T14:09:29Z</time>
      </trkpt>
      <trkpt lat="42.6331598405" lon="0.8587919455">
        <ele>2134.26</ele>
        <time>2019-09-07T14:09:37Z</time>
      </trkpt>
      <trkpt lat="42.6331330184" lon="0.8588429075">
        <ele>2135.71</ele>
        <time>2019-09-07T14:09:46Z</time>
      </trkpt>
      <trkpt lat="42.6331358682" lon="0.8589251339">
        <ele>2138.11</ele>
        <time>2019-09-07T14:09:58Z</time>
      </trkpt>
      <trkpt lat="42.6331231277" lon="0.8589915186">
        <ele>2140.03</ele>
        <time>2019-09-07T14:10:10Z</time>
      </trkpt>
      <trkpt lat="42.6331083756" lon="0.8590572327">
        <ele>2141.95</ele>
        <time>2019-09-07T14:10:22Z</time>
      </trkpt>
      <trkpt lat="42.6330911089" lon="0.8591241203">
        <ele>2144.84</ele>
        <time>2019-09-07T14:10:36Z</time>
      </trkpt>
      <trkpt lat="42.6330597606" lon="0.8591811173">
        <ele>2145.80</ele>
        <time>2019-09-07T14:10:45Z</time>
      </trkpt>
      <trkpt lat="42.6331003290" lon="0.8591842186">
        <ele>2147.24</ele>
        <time>2019-09-07T14:10:56Z</time>
      </trkpt>
      <trkpt lat="42.6330756862" lon="0.8592272177">
        <ele>2149.16</ele>
        <time>2019-09-07T14:11:08Z</time>
      </trkpt>
      <trkpt lat="42.6330652926" lon="0.8593027387">
        <ele>2150.61</ele>
        <time>2019-09-07T14:11:20Z</time>
      </trkpt>
      <trkpt lat="42.6330378838" lon="0.8593221847">
        <ele>2152.05</ele>
        <time>2019-09-07T14:11:28Z</time>
      </trkpt>
      <trkpt lat="42.6330299210" lon="0.8593505155">
        <ele>2153.49</ele>
        <time>2019-09-07T14:11:35Z</time>
      </trkpt>
      <trkpt lat="42.6330044400" lon="0.8593868930">
        <ele>2154.93</ele>
        <time>2019-09-07T14:11:43Z</time>
      </trkpt>
      <trkpt lat="42.6329667214" lon="0.8594273776">
        <ele>2156.86</ele>
        <time>2019-09-07T14:11:54Z</time>
      </trkpt>
      <trkpt lat="42.6329287514" lon="0.8594546188">
        <ele>2158.78</ele>
        <time>2019-09-07T14:12:05Z</time>
      </trkpt>
      <trkpt lat="42.6328982413" lon="0.8594930917">
        <ele>2160.70</ele>
        <time>2019-09-07T14:12:15Z</time>
      </trkpt>
      <trkpt lat="42.6329376362" lon="0.8595368452">
        <ele>2162.62</ele>
        <time>2019-09-07T14:12:27Z</time>
      </trkpt>
      <trkpt lat="42.6329869218" lon="0.8595479093">
        <ele>2164.55</ele>
        <time>2019-09-07T14:12:39Z</time>
      </trkpt>
      <trkpt lat="42.6329865027" lon="0.8595702052">
        <ele>2165.03</ele>
        <time>2019-09-07T14:12:42Z</time>
      </trkpt>
      <trkpt lat="42.6329492871" lon="0.8595890645">
        <ele>2165.99</ele>
        <time>2019-09-07T14:12:50Z</time>
      </trkpt>
      <trkpt lat="42.6329250634" lon="0.8596567903">
        <ele>2168.39</ele>
        <time>2019-09-07T14:13:04Z</time>
      </trkpt>
      <trkpt lat="42.6329549029" lon="0.8597251028">
        <ele>2169.83</ele>
        <time>2019-09-07T14:13:15Z</time>
      </trkpt>
      <trkpt lat="42.6329630334" lon="0.8597634919">
        <ele>2171.76</ele>
        <time>2019-09-07T14:13:25Z</time>
      </trkpt>
      <trkpt lat="42.6329794619" lon="0.8598044794">
        <ele>2173.68</ele>
        <time>2019-09-07T14:13:38Z</time>
      </trkpt>
      <trkpt lat="42.6329492871" lon="0.8598732948">
        <ele>2175.60</ele>
        <time>2019-09-07T14:13:51Z</time>
      </trkpt>
      <trkpt lat="42.6329238061" lon="0.8599146176">
        <ele>2177.52</ele>
        <time>2019-09-07T14:14:01Z</time>
      </trkpt>
      <trkpt lat="42.6328822318" lon="0.8599673398">
        <ele>2178.97</ele>
        <time>2019-09-07T14:14:13Z</time>
      </trkpt>
      <trkpt lat="42.6328807231" lon="0.8600193914">
        <ele>2181.37</ele>
        <time>2019-09-07T14:14:25Z</time>
      </trkpt>
      <trkpt lat="42.6329337806" lon="0.8600120991">
        <ele>2182.81</ele>
        <time>2019-09-07T14:14:35Z</time>
      </trkpt>
      <trkpt lat="42.6329632849" lon="0.8599630650">
        <ele>2183.77</ele>
        <time>2019-09-07T14:14:45Z</time>
      </trkpt>
      <trkpt lat="42.6330059487" lon="0.8599514980">
        <ele>2185.69</ele>
        <time>2019-09-07T14:14:56Z</time>
      </trkpt>
      <trkpt lat="42.6330095530" lon="0.8599913120">
        <ele>2187.14</ele>
        <time>2019-09-07T14:15:06Z</time>
      </trkpt>
      <trkpt lat="42.6329826470" lon="0.8600929845">
        <ele>2188.10</ele>
        <time>2019-09-07T14:15:16Z</time>
      </trkpt>
      <trkpt lat="42.6329559926" lon="0.8601651527">
        <ele>2189.54</ele>
        <time>2019-09-07T14:15:25Z</time>
      </trkpt>
      <trkpt lat="42.6329422463" lon="0.8602325432">
        <ele>2191.46</ele>
        <time>2019-09-07T14:15:36Z</time>
      </trkpt>
      <trkpt lat="42.6328798849" lon="0.8602971677">
        <ele>2193.39</ele>
        <time>2019-09-07T14:15:49Z</time>
      </trkpt>
      <trkpt lat="42.6328919549" lon="0.8603404183">
        <ele>2194.83</ele>
        <time>2019-09-07T14:15:59Z</time>
      </trkpt>
      <trkpt lat="42.6328798849" lon="0.8603990078">
        <ele>2196.75</ele>
        <time>2019-09-07T14:16:08Z</time>
      </trkpt>
      <trkpt lat="42.6328480337" lon="0.8604658954">
        <ele>2198.19</ele>
        <time>2019-09-07T14:16:20Z</time>
      </trkpt>
      <trkpt lat="42.6328189485" lon="0.8604956511">
        <ele>2199.63</ele>
        <time>2019-09-07T14:16:31Z</time>
      </trkpt>
      <trkpt lat="42.6328077167" lon="0.8605244849">
        <ele>2201.56</ele>
        <time>2019-09-07T14:16:41Z</time>
      </trkpt>
      <trkpt lat="42.6327955630" lon="0.8605779614">
        <ele>2203.48</ele>
        <time>2019-09-07T14:16:55Z</time>
      </trkpt>
      <trkpt lat="42.6327855047" lon="0.8606078848">
        <ele>2204.92</ele>
        <time>2019-09-07T14:17:05Z</time>
      </trkpt>
      <trkpt lat="42.6327852532" lon="0.8606542367">
        <ele>2206.36</ele>
        <time>2019-09-07T14:17:16Z</time>
      </trkpt>
      <trkpt lat="42.6327798888" lon="0.8606867585">
        <ele>2208.29</ele>
        <time>2019-09-07T14:17:27Z</time>
      </trkpt>
      <trkpt lat="42.6327759493" lon="0.8607233874">
        <ele>2210.21</ele>
        <time>2019-09-07T14:17:39Z</time>
      </trkpt>
      <trkpt lat="42.6327558327" lon="0.8607556578">
        <ele>2212.13</ele>
        <time>2019-09-07T14:17:49Z</time>
      </trkpt>
      <trkpt lat="42.6327452715" lon="0.8607989084">
        <ele>2213.57</ele>
        <time>2019-09-07T14:18:01Z</time>
      </trkpt>
      <trkpt lat="42.6327501331" lon="0.8608035184">
        <ele>2213.57</ele>
        <time>2019-09-07T14:18:15Z</time>
      </trkpt>
      <trkpt lat="42.6327458583" lon="0.8608120680">
        <ele>2213.57</ele>
        <time>2019-09-07T14:18:40Z</time>
      </trkpt>
      <trkpt lat="42.6327414997" lon="0.8608694002">
        <ele>2215.01</ele>
        <time>2019-09-07T14:18:50Z</time>
      </trkpt>
      <trkpt lat="42.6327314414" lon="0.8609097172">
        <ele>2217.42</ele>
        <time>2019-09-07T14:18:57Z</time>
      </trkpt>
      <trkpt lat="42.6327238139" lon="0.8609724138">
        <ele>2218.86</ele>
        <time>2019-09-07T14:19:06Z</time>
      </trkpt>
      <trkpt lat="42.6327278372" lon="0.8610154130">
        <ele>2220.78</ele>
        <time>2019-09-07T14:19:17Z</time>
      </trkpt>
      <trkpt lat="42.6327038649" lon="0.8610627707">
        <ele>2222.22</ele>
        <time>2019-09-07T14:19:27Z</time>
      </trkpt>
      <trkpt lat="42.6326830778" lon="0.8611232042">
        <ele>2224.15</ele>
        <time>2019-09-07T14:19:37Z</time>
      </trkpt>
      <trkpt lat="42.6326569263" lon="0.8612092026">
        <ele>2225.59</ele>
        <time>2019-09-07T14:19:47Z</time>
      </trkpt>
      <trkpt lat="42.6326499693" lon="0.8613227773">
        <ele>2227.99</ele>
        <time>2019-09-07T14:20:00Z</time>
      </trkpt>
      <trkpt lat="42.6326693315" lon="0.8614188340">
        <ele>2229.43</ele>
        <time>2019-09-07T14:20:08Z</time>
      </trkpt>
      <trkpt lat="42.6326772943" lon="0.8614505176">
        <ele>2229.43</ele>
        <time>2019-09-07T14:20:10Z</time>
      </trkpt>
      <trkpt lat="42.6326986682" lon="0.8615516871">
        <ele>2229.92</ele>
        <time>2019-09-07T14:20:19Z</time>
      </trkpt>
      <trkpt lat="42.6327330340" lon="0.8615869749">
        <ele>2229.43</ele>
        <time>2019-09-07T14:20:23Z</time>
      </trkpt>
      <trkpt lat="42.6328068785" lon="0.8615757432">
        <ele>2228.47</ele>
        <time>2019-09-07T14:20:30Z</time>
      </trkpt>
      <trkpt lat="42.6328528952" lon="0.8616588917">
        <ele>2228.47</ele>
        <time>2019-09-07T14:20:37Z</time>
      </trkpt>
      <trkpt lat="42.6328988280" lon="0.8618209139">
        <ele>2228.47</ele>
        <time>2019-09-07T14:20:47Z</time>
      </trkpt>
      <trkpt lat="42.6328836568" lon="0.8619157132">
        <ele>2228.95</ele>
        <time>2019-09-07T14:20:54Z</time>
      </trkpt>
      <trkpt lat="42.6328893565" lon="0.8619478159">
        <ele>2228.95</ele>
        <time>2019-09-07T14:20:56Z</time>
      </trkpt>
      <trkpt lat="42.6328314375" lon="0.8619743027">
        <ele>2228.95</ele>
        <time>2019-09-07T14:21:02Z</time>
      </trkpt>
      <trkpt lat="42.6328196190" lon="0.8619796671">
        <ele>2229.43</ele>
        <time>2019-09-07T14:21:03Z</time>
      </trkpt>
      <trkpt lat="42.6328091417" lon="0.8619834390">
        <ele>2229.43</ele>
        <time>2019-09-07T14:21:04Z</time>
      </trkpt>
      <trkpt lat="42.6327601913" lon="0.8620855305">
        <ele>2229.43</ele>
        <time>2019-09-07T14:21:13Z</time>
      </trkpt>
      <trkpt lat="42.6327546593" lon="0.8621908072">
        <ele>2231.84</ele>
        <time>2019-09-07T14:21:24Z</time>
      </trkpt>
      <trkpt lat="42.6327088941" lon="0.8622716926">
        <ele>2233.76</ele>
        <time>2019-09-07T14:21:33Z</time>
      </trkpt>
      <trkpt lat="42.6327005122" lon="0.8622806612">
        <ele>2233.76</ele>
        <time>2019-09-07T14:21:34Z</time>
      </trkpt>
      <trkpt lat="42.6326922979" lon="0.8622913063">
        <ele>2234.24</ele>
        <time>2019-09-07T14:21:35Z</time>
      </trkpt>
      <trkpt lat="42.6326864306" lon="0.8623045497">
        <ele>2234.24</ele>
        <time>2019-09-07T14:21:36Z</time>
      </trkpt>
      <trkpt lat="42.6326770429" lon="0.8623168711">
        <ele>2234.24</ele>
        <time>2019-09-07T14:21:37Z</time>
      </trkpt>
      <trkpt lat="42.6326694991" lon="0.8623286057">
        <ele>2234.72</ele>
        <time>2019-09-07T14:21:38Z</time>
      </trkpt>
      <trkpt lat="42.6326627936" lon="0.8623399213">
        <ele>2234.72</ele>
        <time>2019-09-07T14:21:39Z</time>
      </trkpt>
      <trkpt lat="42.6326581836" lon="0.8623532485">
        <ele>2234.72</ele>
        <time>2019-09-07T14:21:40Z</time>
      </trkpt>
      <trkpt lat="42.6326564234" lon="0.8623692580">
        <ele>2235.20</ele>
        <time>2019-09-07T14:21:41Z</time>
      </trkpt>
      <trkpt lat="42.6326576807" lon="0.8623846807">
        <ele>2235.20</ele>
        <time>2019-09-07T14:21:42Z</time>
      </trkpt>
      <trkpt lat="42.6326560881" lon="0.8623996004">
        <ele>2235.20</ele>
        <time>2019-09-07T14:21:43Z</time>
      </trkpt>
      <trkpt lat="42.6326564234" lon="0.8624121733">
        <ele>2235.20</ele>
        <time>2019-09-07T14:21:44Z</time>
      </trkpt>
      <trkpt lat="42.6326554175" lon="0.8624663204">
        <ele>2235.20</ele>
        <time>2019-09-07T14:21:48Z</time>
      </trkpt>
      <trkpt lat="42.6326498855" lon="0.8624788933">
        <ele>2235.20</ele>
        <time>2019-09-07T14:21:49Z</time>
      </trkpt>
      <trkpt lat="42.6326453593" lon="0.8624928072">
        <ele>2235.20</ele>
        <time>2019-09-07T14:21:50Z</time>
      </trkpt>
      <trkpt lat="42.6326194592" lon="0.8625783864">
        <ele>2235.20</ele>
        <time>2019-09-07T14:21:56Z</time>
      </trkpt>
      <trkpt lat="42.6326006837" lon="0.8626948111">
        <ele>2235.68</ele>
        <time>2019-09-07T14:22:05Z</time>
      </trkpt>
      <trkpt lat="42.6326068025" lon="0.8627137542">
        <ele>2235.68</ele>
        <time>2019-09-07T14:22:06Z</time>
      </trkpt>
      <trkpt lat="42.6326068863" lon="0.8627331164">
        <ele>2235.68</ele>
        <time>2019-09-07T14:22:07Z</time>
      </trkpt>
      <trkpt lat="42.6325653121" lon="0.8629302587">
        <ele>2234.24</ele>
        <time>2019-09-07T14:22:19Z</time>
      </trkpt>
      <trkpt lat="42.6325452793" lon="0.8630874194">
        <ele>2235.20</ele>
        <time>2019-09-07T14:22:31Z</time>
      </trkpt>
      <trkpt lat="42.6325365622" lon="0.8630969748">
        <ele>2235.20</ele>
        <time>2019-09-07T14:22:32Z</time>
      </trkpt>
      <trkpt lat="42.6325289346" lon="0.8631078713">
        <ele>2235.68</ele>
        <time>2019-09-07T14:22:33Z</time>
      </trkpt>
      <trkpt lat="42.6325228997" lon="0.8631195221">
        <ele>2235.68</ele>
        <time>2019-09-07T14:22:34Z</time>
      </trkpt>
      <trkpt lat="42.6325192954" lon="0.8631309215">
        <ele>2235.68</ele>
        <time>2019-09-07T14:22:35Z</time>
      </trkpt>
      <trkpt lat="42.6324784756" lon="0.8632639423">
        <ele>2236.64</ele>
        <time>2019-09-07T14:22:46Z</time>
      </trkpt>
      <trkpt lat="42.6324167009" lon="0.8634017408">
        <ele>2238.09</ele>
        <time>2019-09-07T14:22:58Z</time>
      </trkpt>
      <trkpt lat="42.6324132644" lon="0.8634168282">
        <ele>2237.61</ele>
        <time>2019-09-07T14:22:59Z</time>
      </trkpt>
      <trkpt lat="42.6324114203" lon="0.8634335920">
        <ele>2237.61</ele>
        <time>2019-09-07T14:23:00Z</time>
      </trkpt>
      <trkpt lat="42.6323646493" lon="0.8635814488">
        <ele>2236.16</ele>
        <time>2019-09-07T14:23:11Z</time>
      </trkpt>
      <trkpt lat="42.6323471311" lon="0.8636031579">
        <ele>2236.16</ele>
        <time>2019-09-07T14:23:14Z</time>
      </trkpt>
      <trkpt lat="42.6323462091" lon="0.8636145573">
        <ele>2235.68</ele>
        <time>2019-09-07T14:23:15Z</time>
      </trkpt>
      <trkpt lat="42.6323343068" lon="0.8636620827">
        <ele>2235.20</ele>
        <time>2019-09-07T14:23:18Z</time>
      </trkpt>
      <trkpt lat="42.6323281880" lon="0.8636775054">
        <ele>2235.20</ele>
        <time>2019-09-07T14:23:19Z</time>
      </trkpt>
      <trkpt lat="42.6323223207" lon="0.8636905812">
        <ele>2235.20</ele>
        <time>2019-09-07T14:23:20Z</time>
      </trkpt>
      <trkpt lat="42.6323131006" lon="0.8637017291">
        <ele>2234.72</ele>
        <time>2019-09-07T14:23:21Z</time>
      </trkpt>
      <trkpt lat="42.6323056407" lon="0.8637141343">
        <ele>2234.72</ele>
        <time>2019-09-07T14:23:22Z</time>
      </trkpt>
      <trkpt lat="42.6323017851" lon="0.8637296408">
        <ele>2234.72</ele>
        <time>2019-09-07T14:23:23Z</time>
      </trkpt>
      <trkpt lat="42.6322566066" lon="0.8639033139">
        <ele>2232.80</ele>
        <time>2019-09-07T14:23:33Z</time>
      </trkpt>
      <trkpt lat="42.6322083268" lon="0.8640803397">
        <ele>2230.88</ele>
        <time>2019-09-07T14:23:44Z</time>
      </trkpt>
      <trkpt lat="42.6321302075" lon="0.8642814215">
        <ele>2230.40</ele>
        <time>2019-09-07T14:23:56Z</time>
      </trkpt>
      <trkpt lat="42.6321095880" lon="0.8644670807">
        <ele>2230.40</ele>
        <time>2019-09-07T14:24:07Z</time>
      </trkpt>
      <trkpt lat="42.6320710313" lon="0.8646744490">
        <ele>2231.84</ele>
        <time>2019-09-07T14:24:20Z</time>
      </trkpt>
      <trkpt lat="42.6320428681" lon="0.8648843318">
        <ele>2232.80</ele>
        <time>2019-09-07T14:24:32Z</time>
      </trkpt>
      <trkpt lat="42.6320278645" lon="0.8649751917">
        <ele>2233.76</ele>
        <time>2019-09-07T14:24:40Z</time>
      </trkpt>
      <trkpt lat="42.6319575403" lon="0.8650846593">
        <ele>2234.72</ele>
        <time>2019-09-07T14:24:50Z</time>
      </trkpt>
      <trkpt lat="42.6319298800" lon="0.8651652094">
        <ele>2236.16</ele>
        <time>2019-09-07T14:24:57Z</time>
      </trkpt>
      <trkpt lat="42.6318616513" lon="0.8652760182">
        <ele>2236.16</ele>
        <time>2019-09-07T14:25:07Z</time>
      </trkpt>
      <trkpt lat="42.6318327338" lon="0.8654674608">
        <ele>2234.24</ele>
        <time>2019-09-07T14:25:18Z</time>
      </trkpt>
      <trkpt lat="42.6318029780" lon="0.8655564766">
        <ele>2234.24</ele>
        <time>2019-09-07T14:25:24Z</time>
      </trkpt>
      <trkpt lat="42.6317479089" lon="0.8657231089">
        <ele>2235.20</ele>
        <time>2019-09-07T14:25:37Z</time>
      </trkpt>
      <trkpt lat="42.6317363419" lon="0.8657775074">
        <ele>2234.72</ele>
        <time>2019-09-07T14:25:42Z</time>
      </trkpt>
      <trkpt lat="42.6316864695" lon="0.8658175729">
        <ele>2234.72</ele>
        <time>2019-09-07T14:25:49Z</time>
      </trkpt>
      <trkpt lat="42.6316496730" lon="0.8659349196">
        <ele>2234.24</ele>
        <time>2019-09-07T14:25:59Z</time>
      </trkpt>
      <trkpt lat="42.6316384412" lon="0.8659386914">
        <ele>2234.24</ele>
        <time>2019-09-07T14:26:00Z</time>
      </trkpt>
      <trkpt lat="42.6316193305" lon="0.8659717999">
        <ele>2234.24</ele>
        <time>2019-09-07T14:26:08Z</time>
      </trkpt>
      <trkpt lat="42.6316122059" lon="0.8661090955">
        <ele>2233.76</ele>
        <time>2019-09-07T14:26:18Z</time>
      </trkpt>
      <trkpt lat="42.6315852161" lon="0.8662139531">
        <ele>2232.80</ele>
        <time>2019-09-07T14:26:27Z</time>
      </trkpt>
      <trkpt lat="42.6315718051" lon="0.8662744705">
        <ele>2233.28</ele>
        <time>2019-09-07T14:26:37Z</time>
      </trkpt>
      <trkpt lat="42.6315712184" lon="0.8662888873">
        <ele>2233.28</ele>
        <time>2019-09-07T14:26:38Z</time>
      </trkpt>
      <trkpt lat="42.6315588970" lon="0.8663261868">
        <ele>2233.76</ele>
        <time>2019-09-07T14:26:42Z</time>
      </trkpt>
      <trkpt lat="42.6315271296" lon="0.8664052282">
        <ele>2234.24</ele>
        <time>2019-09-07T14:26:51Z</time>
      </trkpt>
      <trkpt lat="42.6314870641" lon="0.8664504066">
        <ele>2234.72</ele>
        <time>2019-09-07T14:27:01Z</time>
      </trkpt>
      <trkpt lat="42.6313983835" lon="0.8664766420">
        <ele>2233.76</ele>
        <time>2019-09-07T14:27:11Z</time>
      </trkpt>
      <trkpt lat="42.6313617546" lon="0.8664844371">
        <ele>2233.76</ele>
        <time>2019-09-07T14:27:15Z</time>
      </trkpt>
      <trkpt lat="42.6313157380" lon="0.8665303700">
        <ele>2233.28</ele>
        <time>2019-09-07T14:27:22Z</time>
      </trkpt>
      <trkpt lat="42.6312751696" lon="0.8665877022">
        <ele>2233.28</ele>
        <time>2019-09-07T14:27:32Z</time>
      </trkpt>
      <trkpt lat="42.6312178373" lon="0.8666604571">
        <ele>2233.76</ele>
        <time>2019-09-07T14:27:42Z</time>
      </trkpt>
      <trkpt lat="42.6311996486" lon="0.8666637260">
        <ele>2233.76</ele>
        <time>2019-09-07T14:27:44Z</time>
      </trkpt>
      <trkpt lat="42.6310719922" lon="0.8667399175">
        <ele>2234.24</ele>
        <time>2019-09-07T14:27:57Z</time>
      </trkpt>
      <trkpt lat="42.6309305895" lon="0.8667164482">
        <ele>2236.64</ele>
        <time>2019-09-07T14:28:10Z</time>
      </trkpt>
      <trkpt lat="42.6307465229" lon="0.8666583616">
        <ele>2238.09</ele>
        <time>2019-09-07T14:28:23Z</time>
      </trkpt>
      <trkpt lat="42.6307335310" lon="0.8666571043">
        <ele>2238.09</ele>
        <time>2019-09-07T14:28:24Z</time>
      </trkpt>
      <trkpt lat="42.6306989137" lon="0.8666572720">
        <ele>2238.57</ele>
        <time>2019-09-07T14:28:28Z</time>
      </trkpt>
      <trkpt lat="42.6306911185" lon="0.8666648995">
        <ele>2239.05</ele>
        <time>2019-09-07T14:28:29Z</time>
      </trkpt>
      <trkpt lat="42.6306839939" lon="0.8666754607">
        <ele>2239.05</ele>
        <time>2019-09-07T14:28:30Z</time>
      </trkpt>
      <trkpt lat="42.6306746900" lon="0.8666833397">
        <ele>2239.05</ele>
        <time>2019-09-07T14:28:31Z</time>
      </trkpt>
      <trkpt lat="42.6306652185" lon="0.8666865248">
        <ele>2239.53</ele>
        <time>2019-09-07T14:28:32Z</time>
      </trkpt>
      <trkpt lat="42.6306550764" lon="0.8666868601">
        <ele>2239.53</ele>
        <time>2019-09-07T14:28:33Z</time>
      </trkpt>
      <trkpt lat="42.6306451019" lon="0.8666876983">
        <ele>2239.53</ele>
        <time>2019-09-07T14:28:34Z</time>
      </trkpt>
      <trkpt lat="42.6306341216" lon="0.8666886203">
        <ele>2239.53</ele>
        <time>2019-09-07T14:28:35Z</time>
      </trkpt>
      <trkpt lat="42.6305862609" lon="0.8667057194">
        <ele>2240.01</ele>
        <time>2019-09-07T14:28:39Z</time>
      </trkpt>
      <trkpt lat="42.6305757836" lon="0.8667165320">
        <ele>2240.01</ele>
        <time>2019-09-07T14:28:40Z</time>
      </trkpt>
      <trkpt lat="42.6305674855" lon="0.8667280152">
        <ele>2240.01</ele>
        <time>2019-09-07T14:28:41Z</time>
      </trkpt>
      <trkpt lat="42.6305570081" lon="0.8667366486">
        <ele>2240.01</ele>
        <time>2019-09-07T14:28:42Z</time>
      </trkpt>
      <trkpt lat="42.6305451058" lon="0.8667436894">
        <ele>2240.01</ele>
        <time>2019-09-07T14:28:43Z</time>
      </trkpt>
      <trkpt lat="42.6305237319" lon="0.8667542506">
        <ele>2240.01</ele>
        <time>2019-09-07T14:28:45Z</time>
      </trkpt>
      <trkpt lat="42.6305174455" lon="0.8667621296">
        <ele>2240.01</ele>
        <time>2019-09-07T14:28:46Z</time>
      </trkpt>
      <trkpt lat="42.6304647233" lon="0.8667913824">
        <ele>2240.97</ele>
        <time>2019-09-07T14:28:52Z</time>
      </trkpt>
      <trkpt lat="42.6304532401" lon="0.8668145165">
        <ele>2240.97</ele>
        <time>2019-09-07T14:28:54Z</time>
      </trkpt>
      <trkpt lat="42.6304507256" lon="0.8668296039">
        <ele>2241.45</ele>
        <time>2019-09-07T14:28:55Z</time>
      </trkpt>
      <trkpt lat="42.6304260828" lon="0.8669921290">
        <ele>2243.37</ele>
        <time>2019-09-07T14:29:07Z</time>
      </trkpt>
      <trkpt lat="42.6303936448" lon="0.8670544904">
        <ele>2244.82</ele>
        <time>2019-09-07T14:29:15Z</time>
      </trkpt>
      <trkpt lat="42.6303931419" lon="0.8670837432">
        <ele>2245.30</ele>
        <time>2019-09-07T14:29:17Z</time>
      </trkpt>
      <trkpt lat="42.6303756237" lon="0.8672066219">
        <ele>2247.22</ele>
        <time>2019-09-07T14:29:26Z</time>
      </trkpt>
      <trkpt lat="42.6303784736" lon="0.8672991581">
        <ele>2248.66</ele>
        <time>2019-09-07T14:29:37Z</time>
      </trkpt>
      <trkpt lat="42.6303928066" lon="0.8674210310">
        <ele>2250.58</ele>
        <time>2019-09-07T14:29:49Z</time>
      </trkpt>
      <trkpt lat="42.6303353067" lon="0.8674671315">
        <ele>2251.54</ele>
        <time>2019-09-07T14:30:00Z</time>
      </trkpt>
      <trkpt lat="42.6303304452" lon="0.8674708195">
        <ele>2252.51</ele>
        <time>2019-09-07T14:30:13Z</time>
      </trkpt>
      <trkpt lat="42.6303243265" lon="0.8674736694">
        <ele>2252.99</ele>
        <time>2019-09-07T14:30:30Z</time>
      </trkpt>
      <trkpt lat="42.6303229854" lon="0.8674615156">
        <ele>2252.99</ele>
        <time>2019-09-07T14:30:45Z</time>
      </trkpt>
      <trkpt lat="42.6303284336" lon="0.8674770221">
        <ele>2253.47</ele>
        <time>2019-09-07T14:30:59Z</time>
      </trkpt>
      <trkpt lat="42.6303276792" lon="0.8674836438">
        <ele>2254.91</ele>
        <time>2019-09-07T14:31:04Z</time>
      </trkpt>
      <trkpt lat="42.6303271763" lon="0.8674863260">
        <ele>2253.47</ele>
        <time>2019-09-07T14:31:22Z</time>
      </trkpt>
      <trkpt lat="42.6303259190" lon="0.8674807940">
        <ele>2253.47</ele>
        <time>2019-09-07T14:31:35Z</time>
      </trkpt>
      <trkpt lat="42.6303248294" lon="0.8675128967">
        <ele>2253.47</ele>
        <time>2019-09-07T14:31:49Z</time>
      </trkpt>
      <trkpt lat="42.6303291041" lon="0.8675434068">
        <ele>2253.47</ele>
        <time>2019-09-07T14:31:51Z</time>
      </trkpt>
      <trkpt lat="42.6303311158" lon="0.8675592486">
        <ele>2253.47</ele>
        <time>2019-09-07T14:31:52Z</time>
      </trkpt>
      <trkpt lat="42.6303052157" lon="0.8676007390">
        <ele>2255.39</ele>
        <time>2019-09-07T14:32:01Z</time>
      </trkpt>
      <trkpt lat="42.6302799862" lon="0.8676757570">
        <ele>2256.35</ele>
        <time>2019-09-07T14:32:09Z</time>
      </trkpt>
      <trkpt lat="42.6302748732" lon="0.8677410521">
        <ele>2256.83</ele>
        <time>2019-09-07T14:32:14Z</time>
      </trkpt>
      <trkpt lat="42.6302716043" lon="0.8677670360">
        <ele>2256.83</ele>
        <time>2019-09-07T14:32:16Z</time>
      </trkpt>
      <trkpt lat="42.6302500628" lon="0.8678044192">
        <ele>2257.31</ele>
        <time>2019-09-07T14:32:19Z</time>
      </trkpt>
      <trkpt lat="42.6302165352" lon="0.8677987196">
        <ele>2257.31</ele>
        <time>2019-09-07T14:32:22Z</time>
      </trkpt>
      <trkpt lat="42.6301679201" lon="0.8678573091">
        <ele>2257.79</ele>
        <time>2019-09-07T14:32:29Z</time>
      </trkpt>
      <trkpt lat="42.6301598735" lon="0.8678661101">
        <ele>2257.79</ele>
        <time>2019-09-07T14:32:30Z</time>
      </trkpt>
      <trkpt lat="42.6301519945" lon="0.8678764198">
        <ele>2258.27</ele>
        <time>2019-09-07T14:32:31Z</time>
      </trkpt>
      <trkpt lat="42.6301412657" lon="0.8678853884">
        <ele>2258.27</ele>
        <time>2019-09-07T14:32:32Z</time>
      </trkpt>
      <trkpt lat="42.6301328838" lon="0.8678936865">
        <ele>2258.27</ele>
        <time>2019-09-07T14:32:33Z</time>
      </trkpt>
      <trkpt lat="42.6301234961" lon="0.8679043315">
        <ele>2258.75</ele>
        <time>2019-09-07T14:32:34Z</time>
      </trkpt>
      <trkpt lat="42.6300753001" lon="0.8679875638">
        <ele>2260.68</ele>
        <time>2019-09-07T14:32:44Z</time>
      </trkpt>
      <trkpt lat="42.6300718635" lon="0.8680271264">
        <ele>2261.16</ele>
        <time>2019-09-07T14:32:47Z</time>
      </trkpt>
      <trkpt lat="42.6300745457" lon="0.8681228478">
        <ele>2263.08</ele>
        <time>2019-09-07T14:32:56Z</time>
      </trkpt>
      <trkpt lat="42.6300560217" lon="0.8681679424">
        <ele>2263.56</ele>
        <time>2019-09-07T14:33:00Z</time>
      </trkpt>
      <trkpt lat="42.6300546806" lon="0.8681847062">
        <ele>2263.56</ele>
        <time>2019-09-07T14:33:01Z</time>
      </trkpt>
      <trkpt lat="42.6300404314" lon="0.8682764880">
        <ele>2265.00</ele>
        <time>2019-09-07T14:33:11Z</time>
      </trkpt>
      <trkpt lat="42.6300354861" lon="0.8683089260">
        <ele>2265.96</ele>
        <time>2019-09-07T14:33:17Z</time>
      </trkpt>
      <trkpt lat="42.6300027966" lon="0.8683339041">
        <ele>2266.45</ele>
        <time>2019-09-07T14:33:20Z</time>
      </trkpt>
      <trkpt lat="42.6299913973" lon="0.8683371730">
        <ele>2266.45</ele>
        <time>2019-09-07T14:33:21Z</time>
      </trkpt>
      <trkpt lat="42.6299665868" lon="0.8684331458">
        <ele>2267.41</ele>
        <time>2019-09-07T14:33:32Z</time>
      </trkpt>
      <trkpt lat="42.6299187262" lon="0.8684998658">
        <ele>2268.85</ele>
        <time>2019-09-07T14:33:41Z</time>
      </trkpt>
      <trkpt lat="42.6298521738" lon="0.8685724530">
        <ele>2270.77</ele>
        <time>2019-09-07T14:33:51Z</time>
      </trkpt>
      <trkpt lat="42.6298104320" lon="0.8686373290">
        <ele>2271.73</ele>
        <time>2019-09-07T14:34:02Z</time>
      </trkpt>
      <trkpt lat="42.6297883037" lon="0.8687142748">
        <ele>2274.14</ele>
        <time>2019-09-07T14:34:15Z</time>
      </trkpt>
      <trkpt lat="42.6297967695" lon="0.8687706012">
        <ele>2275.58</ele>
        <time>2019-09-07T14:34:26Z</time>
      </trkpt>
      <trkpt lat="42.6297805086" lon="0.8688404225">
        <ele>2277.02</ele>
        <time>2019-09-07T14:34:37Z</time>
      </trkpt>
      <trkpt lat="42.6297519263" lon="0.8688930608">
        <ele>2278.94</ele>
        <time>2019-09-07T14:34:48Z</time>
      </trkpt>
      <trkpt lat="42.6297296304" lon="0.8689543325">
        <ele>2280.87</ele>
        <time>2019-09-07T14:35:01Z</time>
      </trkpt>
      <trkpt lat="42.6297360845" lon="0.8690157719">
        <ele>2282.31</ele>
        <time>2019-09-07T14:35:09Z</time>
      </trkpt>
      <trkpt lat="42.6296941750" lon="0.8690684941">
        <ele>2283.27</ele>
        <time>2019-09-07T14:35:19Z</time>
      </trkpt>
      <trkpt lat="42.6296835300" lon="0.8691032790">
        <ele>2284.71</ele>
        <time>2019-09-07T14:35:29Z</time>
      </trkpt>
      <trkpt lat="42.6296446379" lon="0.8691261616">
        <ele>2286.15</ele>
        <time>2019-09-07T14:35:39Z</time>
      </trkpt>
      <trkpt lat="42.6295939274" lon="0.8691588510">
        <ele>2287.59</ele>
        <time>2019-09-07T14:35:50Z</time>
      </trkpt>
      <trkpt lat="42.6296128705" lon="0.8692294266">
        <ele>2289.52</ele>
        <time>2019-09-07T14:36:01Z</time>
      </trkpt>
      <trkpt lat="42.6295999624" lon="0.8692135848">
        <ele>2289.52</ele>
        <time>2019-09-07T14:36:02Z</time>
      </trkpt>
      <trkpt lat="42.6295867190" lon="0.8692502975">
        <ele>2290.96</ele>
        <time>2019-09-07T14:36:08Z</time>
      </trkpt>
      <trkpt lat="42.6296036504" lon="0.8693326917">
        <ele>2292.40</ele>
        <time>2019-09-07T14:36:19Z</time>
      </trkpt>
      <trkpt lat="42.6296551991" lon="0.8693849109">
        <ele>2293.84</ele>
        <time>2019-09-07T14:36:30Z</time>
      </trkpt>
      <trkpt lat="42.6297019701" lon="0.8694049437">
        <ele>2294.80</ele>
        <time>2019-09-07T14:36:38Z</time>
      </trkpt>
      <trkpt lat="42.6297371741" lon="0.8694212046">
        <ele>2295.77</ele>
        <time>2019-09-07T14:36:45Z</time>
      </trkpt>
      <trkpt lat="42.6297497470" lon="0.8694201987">
        <ele>2297.21</ele>
        <time>2019-09-07T14:36:51Z</time>
      </trkpt>
      <trkpt lat="42.6297403593" lon="0.8694828954">
        <ele>2298.17</ele>
        <time>2019-09-07T14:37:00Z</time>
      </trkpt>
      <trkpt lat="42.6297513396" lon="0.8695143275">
        <ele>2299.61</ele>
        <time>2019-09-07T14:37:08Z</time>
      </trkpt>
      <trkpt lat="42.6297736354" lon="0.8695798740">
        <ele>2301.53</ele>
        <time>2019-09-07T14:37:21Z</time>
      </trkpt>
      <trkpt lat="42.6298002061" lon="0.8696114738">
        <ele>2302.98</ele>
        <time>2019-09-07T14:37:31Z</time>
      </trkpt>
      <trkpt lat="42.6298256870" lon="0.8696409781">
        <ele>2304.42</ele>
        <time>2019-09-07T14:37:41Z</time>
      </trkpt>
      <trkpt lat="42.6298221666" lon="0.8696789481">
        <ele>2305.86</ele>
        <time>2019-09-07T14:37:51Z</time>
      </trkpt>
      <trkpt lat="42.6298276987" lon="0.8697193488">
        <ele>2307.30</ele>
        <time>2019-09-07T14:38:02Z</time>
      </trkpt>
      <trkpt lat="42.6298174728" lon="0.8697472606">
        <ele>2308.74</ele>
        <time>2019-09-07T14:38:13Z</time>
      </trkpt>
      <trkpt lat="42.6298256032" lon="0.8697956242">
        <ele>2311.15</ele>
        <time>2019-09-07T14:38:25Z</time>
      </trkpt>
      <trkpt lat="42.6298092585" lon="0.8698230330">
        <ele>2312.59</ele>
        <time>2019-09-07T14:38:35Z</time>
      </trkpt>
      <trkpt lat="42.6297593862" lon="0.8698765934">
        <ele>2314.03</ele>
        <time>2019-09-07T14:38:46Z</time>
      </trkpt>
      <trkpt lat="42.6297334023" lon="0.8699243702">
        <ele>2314.99</ele>
        <time>2019-09-07T14:38:55Z</time>
      </trkpt>
      <trkpt lat="42.6297033951" lon="0.8699967898">
        <ele>2316.91</ele>
        <time>2019-09-07T14:39:06Z</time>
      </trkpt>
      <trkpt lat="42.6296632458" lon="0.8700678684">
        <ele>2319.32</ele>
        <time>2019-09-07T14:39:19Z</time>
      </trkpt>
      <trkpt lat="42.6296570431" lon="0.8701454010">
        <ele>2320.76</ele>
        <time>2019-09-07T14:39:32Z</time>
      </trkpt>
      <trkpt lat="42.6296470687" lon="0.8701935131">
        <ele>2322.20</ele>
        <time>2019-09-07T14:39:42Z</time>
      </trkpt>
      <trkpt lat="42.6296575461" lon="0.8702245262">
        <ele>2323.64</ele>
        <time>2019-09-07T14:39:53Z</time>
      </trkpt>
      <trkpt lat="42.6296479907" lon="0.8702456485">
        <ele>2325.57</ele>
        <time>2019-09-07T14:40:02Z</time>
      </trkpt>
      <trkpt lat="42.6296188217" lon="0.8702819422">
        <ele>2327.01</ele>
        <time>2019-09-07T14:40:12Z</time>
      </trkpt>
      <trkpt lat="42.6295941789" lon="0.8703073394">
        <ele>2328.93</ele>
        <time>2019-09-07T14:40:21Z</time>
      </trkpt>
      <trkpt lat="42.6295481622" lon="0.8703239355">
        <ele>2330.37</ele>
        <time>2019-09-07T14:40:31Z</time>
      </trkpt>
      <trkpt lat="42.6294886507" lon="0.8703586366">
        <ele>2331.33</ele>
        <time>2019-09-07T14:40:41Z</time>
      </trkpt>
      <trkpt lat="42.6294482499" lon="0.8704427909">
        <ele>2332.30</ele>
        <time>2019-09-07T14:40:49Z</time>
      </trkpt>
      <trkpt lat="42.6294291392" lon="0.8704627398">
        <ele>2332.78</ele>
        <time>2019-09-07T14:40:52Z</time>
      </trkpt>
      <trkpt lat="42.6293635927" lon="0.8705147915">
        <ele>2334.22</ele>
        <time>2019-09-07T14:41:02Z</time>
      </trkpt>
      <trkpt lat="42.6293008961" lon="0.8705796674">
        <ele>2335.18</ele>
        <time>2019-09-07T14:41:12Z</time>
      </trkpt>
      <trkpt lat="42.6292507723" lon="0.8706204034">
        <ele>2336.62</ele>
        <time>2019-09-07T14:41:22Z</time>
      </trkpt>
      <trkpt lat="42.6292315777" lon="0.8706841897">
        <ele>2338.06</ele>
        <time>2019-09-07T14:41:33Z</time>
      </trkpt>
      <trkpt lat="42.6292132214" lon="0.8707733732">
        <ele>2339.51</ele>
        <time>2019-09-07T14:41:43Z</time>
      </trkpt>
      <trkpt lat="42.6291595772" lon="0.8708336391">
        <ele>2339.99</ele>
        <time>2019-09-07T14:41:51Z</time>
      </trkpt>
      <trkpt lat="42.6291252114" lon="0.8708436135">
        <ele>2340.95</ele>
        <time>2019-09-07T14:41:57Z</time>
      </trkpt>
      <trkpt lat="42.6290901750" lon="0.8708537556">
        <ele>2341.43</ele>
        <time>2019-09-07T14:42:00Z</time>
      </trkpt>
      <trkpt lat="42.6290791109" lon="0.8708521631">
        <ele>2341.43</ele>
        <time>2019-09-07T14:42:01Z</time>
      </trkpt>
      <trkpt lat="42.6290687174" lon="0.8708481397">
        <ele>2341.43</ele>
        <time>2019-09-07T14:42:02Z</time>
      </trkpt>
      <trkpt lat="42.6290281489" lon="0.8708960842">
        <ele>2340.95</ele>
        <time>2019-09-07T14:42:12Z</time>
      </trkpt>
      <trkpt lat="42.6289882511" lon="0.8709244989">
        <ele>2341.91</ele>
        <time>2019-09-07T14:42:22Z</time>
      </trkpt>
      <trkpt lat="42.6290013269" lon="0.8709891234">
        <ele>2343.35</ele>
        <time>2019-09-07T14:42:34Z</time>
      </trkpt>
      <trkpt lat="42.6289998181" lon="0.8710508142">
        <ele>2344.31</ele>
        <time>2019-09-07T14:42:43Z</time>
      </trkpt>
      <trkpt lat="42.6289978903" lon="0.8711251616">
        <ele>2346.23</ele>
        <time>2019-09-07T14:42:54Z</time>
      </trkpt>
      <trkpt lat="42.6289897598" lon="0.8711827453">
        <ele>2348.16</ele>
        <time>2019-09-07T14:43:07Z</time>
      </trkpt>
      <trkpt lat="42.6290252991" lon="0.8712201286">
        <ele>2350.08</ele>
        <time>2019-09-07T14:43:19Z</time>
      </trkpt>
      <trkpt lat="42.6290186774" lon="0.8712748624">
        <ele>2351.52</ele>
        <time>2019-09-07T14:43:29Z</time>
      </trkpt>
      <trkpt lat="42.6290314179" lon="0.8713051211">
        <ele>2352.96</ele>
        <time>2019-09-07T14:43:40Z</time>
      </trkpt>
      <trkpt lat="42.6290711481" lon="0.8713221364">
        <ele>2354.41</ele>
        <time>2019-09-07T14:43:53Z</time>
      </trkpt>
      <trkpt lat="42.6290758420" lon="0.8713716734">
        <ele>2355.85</ele>
        <time>2019-09-07T14:44:04Z</time>
      </trkpt>
      <trkpt lat="42.6291097887" lon="0.8713798039">
        <ele>2357.29</ele>
        <time>2019-09-07T14:44:13Z</time>
      </trkpt>
      <trkpt lat="42.6291295700" lon="0.8714388963">
        <ele>2358.25</ele>
        <time>2019-09-07T14:44:23Z</time>
      </trkpt>
      <trkpt lat="42.6290928572" lon="0.8714813087">
        <ele>2359.69</ele>
        <time>2019-09-07T14:44:34Z</time>
      </trkpt>
      <trkpt lat="42.6291047595" lon="0.8715158422">
        <ele>2361.62</ele>
        <time>2019-09-07T14:44:46Z</time>
      </trkpt>
      <trkpt lat="42.6291209366" lon="0.8715362940">
        <ele>2362.58</ele>
        <time>2019-09-07T14:44:57Z</time>
      </trkpt>
      <trkpt lat="42.6290760934" lon="0.8716019243">
        <ele>2364.50</ele>
        <time>2019-09-07T14:45:10Z</time>
      </trkpt>
      <trkpt lat="42.6290061045" lon="0.8716695663">
        <ele>2365.46</ele>
        <time>2019-09-07T14:45:22Z</time>
      </trkpt>
      <trkpt lat="42.6289464254" lon="0.8716952987">
        <ele>2364.98</ele>
        <time>2019-09-07T14:45:32Z</time>
      </trkpt>
      <trkpt lat="42.6288857404" lon="0.8717431594">
        <ele>2365.46</ele>
        <time>2019-09-07T14:45:43Z</time>
      </trkpt>
      <trkpt lat="42.6288442500" lon="0.8718130644">
        <ele>2366.42</ele>
        <time>2019-09-07T14:45:53Z</time>
      </trkpt>
      <trkpt lat="42.6288117282" lon="0.8718959615">
        <ele>2366.90</ele>
        <time>2019-09-07T14:46:04Z</time>
      </trkpt>
      <trkpt lat="42.6287558209" lon="0.8719294891">
        <ele>2367.38</ele>
        <time>2019-09-07T14:46:12Z</time>
      </trkpt>
      <trkpt lat="42.6286712475" lon="0.8719688002">
        <ele>2368.35</ele>
        <time>2019-09-07T14:46:24Z</time>
      </trkpt>
      <trkpt lat="42.6286291704" lon="0.8720098715">
        <ele>2369.79</ele>
        <time>2019-09-07T14:46:35Z</time>
      </trkpt>
      <trkpt lat="42.6285828184" lon="0.8720338438">
        <ele>2371.23</ele>
        <time>2019-09-07T14:46:46Z</time>
      </trkpt>
      <trkpt lat="42.6285328623" lon="0.8720213547">
        <ele>2371.71</ele>
        <time>2019-09-07T14:46:57Z</time>
      </trkpt>
      <trkpt lat="42.6284519769" lon="0.8719927724">
        <ele>2370.75</ele>
        <time>2019-09-07T14:47:09Z</time>
      </trkpt>
      <trkpt lat="42.6283530705" lon="0.8720037527">
        <ele>2369.79</ele>
        <time>2019-09-07T14:47:22Z</time>
      </trkpt>
      <trkpt lat="42.6283066347" lon="0.8720189240">
        <ele>2369.31</ele>
        <time>2019-09-07T14:47:32Z</time>
      </trkpt>
      <trkpt lat="42.6282902900" lon="0.8720241208">
        <ele>2373.63</ele>
        <time>2019-09-07T14:47:35Z</time>
      </trkpt>
      <trkpt lat="42.6282887813" lon="0.8720243722">
        <ele>2371.71</ele>
        <time>2019-09-07T14:47:36Z</time>
      </trkpt>
      <trkpt lat="42.6282750349" lon="0.8720319159">
        <ele>2370.27</ele>
        <time>2019-09-07T14:47:39Z</time>
      </trkpt>
      <trkpt lat="42.6282463688" lon="0.8720617555">
        <ele>2369.79</ele>
        <time>2019-09-07T14:47:49Z</time>
      </trkpt>
      <trkpt lat="42.6282433514" lon="0.8721056767">
        <ele>2369.79</ele>
        <time>2019-09-07T14:48:03Z</time>
      </trkpt>
      <trkpt lat="42.6282264199" lon="0.8721460775">
        <ele>2369.79</ele>
        <time>2019-09-07T14:48:13Z</time>
      </trkpt>
      <trkpt lat="42.6281731948" lon="0.8722243644">
        <ele>2371.71</ele>
        <time>2019-09-07T14:48:24Z</time>
      </trkpt>
      <trkpt lat="42.6281256694" lon="0.8722802717">
        <ele>2374.11</ele>
        <time>2019-09-07T14:48:36Z</time>
      </trkpt>
      <trkpt lat="42.6280625537" lon="0.8722614124">
        <ele>2374.59</ele>
        <time>2019-09-07T14:48:49Z</time>
      </trkpt>
      <trkpt lat="42.6280142739" lon="0.8722383622">
        <ele>2376.04</ele>
        <time>2019-09-07T14:48:59Z</time>
      </trkpt>
      <trkpt lat="42.6279576961" lon="0.8722275496">
        <ele>2377.48</ele>
        <time>2019-09-07T14:49:07Z</time>
      </trkpt>
      <trkpt lat="42.6278862823" lon="0.8721987996">
        <ele>2378.92</ele>
        <time>2019-09-07T14:49:19Z</time>
      </trkpt>
      <trkpt lat="42.6278517488" lon="0.8722039126">
        <ele>2380.36</ele>
        <time>2019-09-07T14:49:32Z</time>
      </trkpt>
      <trkpt lat="42.6278651599" lon="0.8722639270">
        <ele>2382.76</ele>
        <time>2019-09-07T14:49:43Z</time>
      </trkpt>
      <trkpt lat="42.6279234141" lon="0.8723419625">
        <ele>2384.21</ele>
        <time>2019-09-07T14:49:54Z</time>
      </trkpt>
      <trkpt lat="42.6279311255" lon="0.8724494185">
        <ele>2385.65</ele>
        <time>2019-09-07T14:50:07Z</time>
      </trkpt>
      <trkpt lat="42.6278827619" lon="0.8724854607">
        <ele>2387.57</ele>
        <time>2019-09-07T14:50:20Z</time>
      </trkpt>
      <trkpt lat="42.6278487314" lon="0.8725383505">
        <ele>2389.01</ele>
        <time>2019-09-07T14:50:30Z</time>
      </trkpt>
      <trkpt lat="42.6278137788" lon="0.8725860436">
        <ele>2390.94</ele>
        <time>2019-09-07T14:50:41Z</time>
      </trkpt>
      <trkpt lat="42.6277817599" lon="0.8725966047">
        <ele>2392.38</ele>
        <time>2019-09-07T14:50:51Z</time>
      </trkpt>
      <trkpt lat="42.6277261041" lon="0.8726114407">
        <ele>2393.82</ele>
        <time>2019-09-07T14:51:02Z</time>
      </trkpt>
      <trkpt lat="42.6277474780" lon="0.8726637438">
        <ele>2394.78</ele>
        <time>2019-09-07T14:51:12Z</time>
      </trkpt>
      <trkpt lat="42.6277178898" lon="0.8726634085">
        <ele>2396.22</ele>
        <time>2019-09-07T14:51:23Z</time>
      </trkpt>
      <trkpt lat="42.6276966836" lon="0.8727147896">
        <ele>2397.67</ele>
        <time>2019-09-07T14:51:34Z</time>
      </trkpt>
      <trkpt lat="42.6276340708" lon="0.8727088384">
        <ele>2399.59</ele>
        <time>2019-09-07T14:51:47Z</time>
      </trkpt>
      <trkpt lat="42.6276032254" lon="0.8727309667">
        <ele>2401.51</ele>
        <time>2019-09-07T14:51:58Z</time>
      </trkpt>
      <trkpt lat="42.6275986154" lon="0.8727577049">
        <ele>2402.95</ele>
        <time>2019-09-07T14:52:11Z</time>
      </trkpt>
      <trkpt lat="42.6275294647" lon="0.8727578726">
        <ele>2405.36</ele>
        <time>2019-09-07T14:52:25Z</time>
      </trkpt>
      <trkpt lat="42.6275294647" lon="0.8728072420">
        <ele>2406.32</ele>
        <time>2019-09-07T14:52:38Z</time>
      </trkpt>
      <trkpt lat="42.6275480725" lon="0.8728334773">
        <ele>2407.76</ele>
        <time>2019-09-07T14:52:48Z</time>
      </trkpt>
      <trkpt lat="42.6275207475" lon="0.8728478104">
        <ele>2409.20</ele>
        <time>2019-09-07T14:52:58Z</time>
      </trkpt>
      <trkpt lat="42.6274760719" lon="0.8728468046">
        <ele>2410.64</ele>
        <time>2019-09-07T14:53:08Z</time>
      </trkpt>
      <trkpt lat="42.6275083423" lon="0.8728879597">
        <ele>2411.60</ele>
        <time>2019-09-07T14:53:19Z</time>
      </trkpt>
      <trkpt lat="42.6274831966" lon="0.8729159553">
        <ele>2413.53</ele>
        <time>2019-09-07T14:53:31Z</time>
      </trkpt>
      <trkpt lat="42.6274456456" lon="0.8729413524">
        <ele>2415.93</ele>
        <time>2019-09-07T14:53:41Z</time>
      </trkpt>
      <trkpt lat="42.6274333242" lon="0.8729837649">
        <ele>2417.37</ele>
        <time>2019-09-07T14:53:53Z</time>
      </trkpt>
      <trkpt lat="42.6274734735" lon="0.8730134368">
        <ele>2418.81</ele>
        <time>2019-09-07T14:54:05Z</time>
      </trkpt>
      <trkpt lat="42.6274252776" lon="0.8730454557">
        <ele>2421.22</ele>
        <time>2019-09-07T14:54:17Z</time>
      </trkpt>
      <trkpt lat="42.6273961924" lon="0.8731178753">
        <ele>2422.66</ele>
        <time>2019-09-07T14:54:30Z</time>
      </trkpt>
      <trkpt lat="42.6273767464" lon="0.8732067235">
        <ele>2424.58</ele>
        <time>2019-09-07T14:54:44Z</time>
      </trkpt>
      <trkpt lat="42.6273324061" lon="0.8733037021">
        <ele>2426.02</ele>
        <time>2019-09-07T14:54:54Z</time>
      </trkpt>
      <trkpt lat="42.6272487547" lon="0.8733777981">
        <ele>2426.99</ele>
        <time>2019-09-07T14:55:06Z</time>
      </trkpt>
      <trkpt lat="42.6271935180" lon="0.8734300174">
        <ele>2428.43</ele>
        <time>2019-09-07T14:55:18Z</time>
      </trkpt>
      <trkpt lat="42.6271961164" lon="0.8734823205">
        <ele>2428.91</ele>
        <time>2019-09-07T14:55:28Z</time>
      </trkpt>
      <trkpt lat="42.6271651872" lon="0.8735426702">
        <ele>2429.87</ele>
        <time>2019-09-07T14:55:39Z</time>
      </trkpt>
      <trkpt lat="42.6271269657" lon="0.8735915367">
        <ele>2431.79</ele>
        <time>2019-09-07T14:55:50Z</time>
      </trkpt>
      <trkpt lat="42.6271597389" lon="0.8736678958">
        <ele>2433.71</ele>
        <time>2019-09-07T14:56:01Z</time>
      </trkpt>
      <trkpt lat="42.6271412149" lon="0.8737372141">
        <ele>2435.16</ele>
        <time>2019-09-07T14:56:14Z</time>
      </trkpt>
      <trkpt lat="42.6271480042" lon="0.8737770282">
        <ele>2436.60</ele>
        <time>2019-09-07T14:56:25Z</time>
      </trkpt>
      <trkpt lat="42.6271378621" lon="0.8738237992">
        <ele>2438.04</ele>
        <time>2019-09-07T14:56:38Z</time>
      </trkpt>
      <trkpt lat="42.6271385327" lon="0.8738571592">
        <ele>2439.96</ele>
        <time>2019-09-07T14:56:50Z</time>
      </trkpt>
      <trkpt lat="42.6271309890" lon="0.8739158325">
        <ele>2441.89</ele>
        <time>2019-09-07T14:57:01Z</time>
      </trkpt>
      <trkpt lat="42.6270931028" lon="0.8739974722">
        <ele>2443.81</ele>
        <time>2019-09-07T14:57:13Z</time>
      </trkpt>
      <trkpt lat="42.6270758361" lon="0.8740440756">
        <ele>2445.73</ele>
        <time>2019-09-07T14:57:25Z</time>
      </trkpt>
      <trkpt lat="42.6270470861" lon="0.8740947861">
        <ele>2447.65</ele>
        <time>2019-09-07T14:57:38Z</time>
      </trkpt>
      <trkpt lat="42.6270289812" lon="0.8741820417">
        <ele>2448.62</ele>
        <time>2019-09-07T14:57:49Z</time>
      </trkpt>
      <trkpt lat="42.6270170789" lon="0.8742477559">
        <ele>2450.54</ele>
        <time>2019-09-07T14:58:01Z</time>
      </trkpt>
      <trkpt lat="42.6269485150" lon="0.8742572274">
        <ele>2451.02</ele>
        <time>2019-09-07T14:58:12Z</time>
      </trkpt>
      <trkpt lat="42.6269190945" lon="0.8742527012">
        <ele>2451.98</ele>
        <time>2019-09-07T14:58:24Z</time>
      </trkpt>
      <trkpt lat="42.6268985588" lon="0.8743070159">
        <ele>2452.94</ele>
        <time>2019-09-07T14:58:35Z</time>
      </trkpt>
      <trkpt lat="42.6269402169" lon="0.8743516915">
        <ele>2455.82</ele>
        <time>2019-09-07T14:58:47Z</time>
      </trkpt>
      <trkpt lat="42.6269433182" lon="0.8743770886">
        <ele>2456.79</ele>
        <time>2019-09-07T14:58:57Z</time>
      </trkpt>
      <trkpt lat="42.6269066893" lon="0.8744067606">
        <ele>2458.71</ele>
        <time>2019-09-07T14:59:10Z</time>
      </trkpt>
      <trkpt lat="42.6269195974" lon="0.8744353428">
        <ele>2459.67</ele>
        <time>2019-09-07T14:59:21Z</time>
      </trkpt>
      <trkpt lat="42.6269384567" lon="0.8744569682">
        <ele>2461.59</ele>
        <time>2019-09-07T14:59:30Z</time>
      </trkpt>
      <trkpt lat="42.6269565616" lon="0.8744765818">
        <ele>2463.04</ele>
        <time>2019-09-07T14:59:42Z</time>
      </trkpt>
      <trkpt lat="42.6269503590" lon="0.8745054994">
        <ele>2464.00</ele>
        <time>2019-09-07T14:59:52Z</time>
      </trkpt>
      <trkpt lat="42.6269543823" lon="0.8745671064">
        <ele>2466.40</ele>
        <time>2019-09-07T15:00:05Z</time>
      </trkpt>
      <trkpt lat="42.6269520354" lon="0.8746562060">
        <ele>2466.88</ele>
        <time>2019-09-07T15:00:17Z</time>
      </trkpt>
      <trkpt lat="42.6269009896" lon="0.8746999595">
        <ele>2468.32</ele>
        <time>2019-09-07T15:00:28Z</time>
      </trkpt>
      <trkpt lat="42.6268404722" lon="0.8747576270">
        <ele>2469.76</ele>
        <time>2019-09-07T15:00:39Z</time>
      </trkpt>
      <trkpt lat="42.6268025022" lon="0.8747448027">
        <ele>2471.21</ele>
        <time>2019-09-07T15:00:50Z</time>
      </trkpt>
      <trkpt lat="42.6267548930" lon="0.8747166395">
        <ele>2472.17</ele>
        <time>2019-09-07T15:01:00Z</time>
      </trkpt>
      <trkpt lat="42.6267046854" lon="0.8747914899">
        <ele>2473.61</ele>
        <time>2019-09-07T15:01:11Z</time>
      </trkpt>
      <trkpt lat="42.6266862452" lon="0.8748368360">
        <ele>2475.05</ele>
        <time>2019-09-07T15:01:22Z</time>
      </trkpt>
      <trkpt lat="42.6266593393" lon="0.8748966828">
        <ele>2477.94</ele>
        <time>2019-09-07T15:01:34Z</time>
      </trkpt>
      <trkpt lat="42.6266327687" lon="0.8749563619">
        <ele>2479.86</ele>
        <time>2019-09-07T15:01:46Z</time>
      </trkpt>
      <trkpt lat="42.6265978161" lon="0.8750232495">
        <ele>2480.82</ele>
        <time>2019-09-07T15:01:55Z</time>
      </trkpt>
      <trkpt lat="42.6265710779" lon="0.8750559390">
        <ele>2479.86</ele>
        <time>2019-09-07T15:02:06Z</time>
      </trkpt>
      <trkpt lat="42.6265199482" lon="0.8750645723">
        <ele>2478.90</ele>
        <time>2019-09-07T15:02:15Z</time>
      </trkpt>
      <trkpt lat="42.6264552400" lon="0.8751618862">
        <ele>2478.90</ele>
        <time>2019-09-07T15:02:26Z</time>
      </trkpt>
      <trkpt lat="42.6264384761" lon="0.8752117585">
        <ele>2480.34</ele>
        <time>2019-09-07T15:02:38Z</time>
      </trkpt>
      <trkpt lat="42.6263712533" lon="0.8753311168">
        <ele>2480.82</ele>
        <time>2019-09-07T15:02:51Z</time>
      </trkpt>
      <trkpt lat="42.6262768731" lon="0.8753738645">
        <ele>2480.82</ele>
        <time>2019-09-07T15:03:02Z</time>
      </trkpt>
      <trkpt lat="42.6262347959" lon="0.8754339628">
        <ele>2483.70</ele>
        <time>2019-09-07T15:03:10Z</time>
      </trkpt>
      <trkpt lat="42.6261996757" lon="0.8755207155">
        <ele>2482.74</ele>
        <time>2019-09-07T15:03:20Z</time>
      </trkpt>
      <trkpt lat="42.6261707582" lon="0.8755831607">
        <ele>2481.78</ele>
        <time>2019-09-07T15:03:26Z</time>
      </trkpt>
      <trkpt lat="42.6261524018" lon="0.8756138384">
        <ele>2481.30</ele>
        <time>2019-09-07T15:03:29Z</time>
      </trkpt>
      <trkpt lat="42.6261360571" lon="0.8757174388">
        <ele>2480.34</ele>
        <time>2019-09-07T15:03:38Z</time>
      </trkpt>
      <trkpt lat="42.6261360571" lon="0.8758684807">
        <ele>2477.45</ele>
        <time>2019-09-07T15:03:50Z</time>
      </trkpt>
      <trkpt lat="42.6261408348" lon="0.8759516291">
        <ele>2475.05</ele>
        <time>2019-09-07T15:04:02Z</time>
      </trkpt>
      <trkpt lat="42.6261496358" lon="0.8759557363">
        <ele>2474.09</ele>
        <time>2019-09-07T15:04:13Z</time>
      </trkpt>
      <trkpt lat="42.6261436008" lon="0.8759394754">
        <ele>2476.01</ele>
        <time>2019-09-07T15:06:04Z</time>
      </trkpt>
      <trkpt lat="42.6261425111" lon="0.8759390563">
        <ele>2474.57</ele>
        <time>2019-09-07T15:06:06Z</time>
      </trkpt>
      <trkpt lat="42.6261372305" lon="0.8759363741">
        <ele>2474.09</ele>
        <time>2019-09-07T15:06:16Z</time>
      </trkpt>
      <trkpt lat="42.6261389907" lon="0.8759326022">
        <ele>2474.09</ele>
        <time>2019-09-07T15:06:32Z</time>
      </trkpt>
      <trkpt lat="42.6261407509" lon="0.8759343624">
        <ele>2474.09</ele>
        <time>2019-09-07T15:06:41Z</time>
      </trkpt>
      <trkpt lat="42.6261047088" lon="0.8760332689">
        <ele>2474.09</ele>
        <time>2019-09-07T15:06:55Z</time>
      </trkpt>
      <trkpt lat="42.6260856818" lon="0.8761145733">
        <ele>2469.76</ele>
        <time>2019-09-07T15:07:04Z</time>
      </trkpt>
      <trkpt lat="42.6260815747" lon="0.8761221170">
        <ele>2469.76</ele>
        <time>2019-09-07T15:07:05Z</time>
      </trkpt>
      <trkpt lat="42.6260767132" lon="0.8761327621">
        <ele>2469.76</ele>
        <time>2019-09-07T15:07:06Z</time>
      </trkpt>
      <trkpt lat="42.6260371506" lon="0.8762609214">
        <ele>2467.84</ele>
        <time>2019-09-07T15:07:15Z</time>
      </trkpt>
      <trkpt lat="42.6260506455" lon="0.8764612488">
        <ele>2467.36</ele>
        <time>2019-09-07T15:07:29Z</time>
      </trkpt>
      <trkpt lat="42.6261321176" lon="0.8766557928">
        <ele>2466.88</ele>
        <time>2019-09-07T15:07:44Z</time>
      </trkpt>
      <trkpt lat="42.6261653099" lon="0.8767836168">
        <ele>2465.44</ele>
        <time>2019-09-07T15:07:54Z</time>
      </trkpt>
      <trkpt lat="42.6261477917" lon="0.8768341597">
        <ele>2465.44</ele>
        <time>2019-09-07T15:07:58Z</time>
      </trkpt>
      <trkpt lat="42.6261380687" lon="0.8768896479">
        <ele>2465.44</ele>
        <time>2019-09-07T15:08:02Z</time>
      </trkpt>
      <trkpt lat="42.6261151861" lon="0.8769748919">
        <ele>2465.44</ele>
        <time>2019-09-07T15:08:09Z</time>
      </trkpt>
      <trkpt lat="42.6261090674" lon="0.8769869618">
        <ele>2465.44</ele>
        <time>2019-09-07T15:08:10Z</time>
      </trkpt>
      <trkpt lat="42.6260807365" lon="0.8770532627">
        <ele>2465.44</ele>
        <time>2019-09-07T15:08:15Z</time>
      </trkpt>
      <trkpt lat="42.6260766294" lon="0.8770685177">
        <ele>2465.44</ele>
        <time>2019-09-07T15:08:16Z</time>
      </trkpt>
      <trkpt lat="42.6260580216" lon="0.8771443740">
        <ele>2465.44</ele>
        <time>2019-09-07T15:08:21Z</time>
      </trkpt>
      <trkpt lat="42.6260603685" lon="0.8771597967">
        <ele>2465.44</ele>
        <time>2019-09-07T15:08:22Z</time>
      </trkpt>
      <trkpt lat="42.6260646433" lon="0.8771721181">
        <ele>2465.44</ele>
        <time>2019-09-07T15:08:23Z</time>
      </trkpt>
      <trkpt lat="42.6260962430" lon="0.8772255108">
        <ele>2465.92</ele>
        <time>2019-09-07T15:08:29Z</time>
      </trkpt>
      <trkpt lat="42.6261149347" lon="0.8772671688">
        <ele>2466.40</ele>
        <time>2019-09-07T15:08:34Z</time>
      </trkpt>
      <trkpt lat="42.6261357218" lon="0.8772700187">
        <ele>2466.40</ele>
        <time>2019-09-07T15:08:36Z</time>
      </trkpt>
      <trkpt lat="42.6261482947" lon="0.8772690129">
        <ele>2465.92</ele>
        <time>2019-09-07T15:08:37Z</time>
      </trkpt>
      <trkpt lat="42.6261746977" lon="0.8772675041">
        <ele>2465.44</ele>
        <time>2019-09-07T15:08:39Z</time>
      </trkpt>
      <trkpt lat="42.6261959877" lon="0.8772912249">
        <ele>2465.44</ele>
        <time>2019-09-07T15:08:42Z</time>
      </trkpt>
      <trkpt lat="42.6262653060" lon="0.8774731122">
        <ele>2466.40</ele>
        <time>2019-09-07T15:08:54Z</time>
      </trkpt>
      <trkpt lat="42.6262700837" lon="0.8775844239">
        <ele>2466.88</ele>
        <time>2019-09-07T15:09:05Z</time>
      </trkpt>
      <trkpt lat="42.6262813155" lon="0.8777009323">
        <ele>2469.28</ele>
        <time>2019-09-07T15:09:16Z</time>
      </trkpt>
      <trkpt lat="42.6262860093" lon="0.8778041136">
        <ele>2470.73</ele>
        <time>2019-09-07T15:09:26Z</time>
      </trkpt>
      <trkpt lat="42.6262894459" lon="0.8778158482">
        <ele>2471.21</ele>
        <time>2019-09-07T15:09:27Z</time>
      </trkpt>
      <trkpt lat="42.6263337862" lon="0.8779818099">
        <ele>2472.17</ele>
        <time>2019-09-07T15:09:39Z</time>
      </trkpt>
      <trkpt lat="42.6263373904" lon="0.8781733364">
        <ele>2472.17</ele>
        <time>2019-09-07T15:09:51Z</time>
      </trkpt>
      <trkpt lat="42.6263541542" lon="0.8783002384">
        <ele>2472.17</ele>
        <time>2019-09-07T15:10:03Z</time>
      </trkpt>
      <trkpt lat="42.6263338700" lon="0.8784258831">
        <ele>2472.17</ele>
        <time>2019-09-07T15:10:12Z</time>
      </trkpt>
      <trkpt lat="42.6262664795" lon="0.8785752486">
        <ele>2473.61</ele>
        <time>2019-09-07T15:10:23Z</time>
      </trkpt>
      <trkpt lat="42.6261517312" lon="0.8787545376">
        <ele>2474.09</ele>
        <time>2019-09-07T15:10:36Z</time>
      </trkpt>
      <trkpt lat="42.6260620449" lon="0.8788937610">
        <ele>2474.09</ele>
        <time>2019-09-07T15:10:47Z</time>
      </trkpt>
      <trkpt lat="42.6259935647" lon="0.8790127002">
        <ele>2475.05</ele>
        <time>2019-09-07T15:10:58Z</time>
      </trkpt>
      <trkpt lat="42.6259504817" lon="0.8791768178">
        <ele>2476.97</ele>
        <time>2019-09-07T15:11:10Z</time>
      </trkpt>
      <trkpt lat="42.6259486377" lon="0.8793020435">
        <ele>2477.94</ele>
        <time>2019-09-07T15:11:22Z</time>
      </trkpt>
      <trkpt lat="42.6258917246" lon="0.8794300351">
        <ele>2480.82</ele>
        <time>2019-09-07T15:11:34Z</time>
      </trkpt>
      <trkpt lat="42.6258827560" lon="0.8794557676">
        <ele>2480.82</ele>
        <time>2019-09-07T15:11:36Z</time>
      </trkpt>
      <trkpt lat="42.6257927343" lon="0.8796068933">
        <ele>2482.26</ele>
        <time>2019-09-07T15:11:50Z</time>
      </trkpt>
      <trkpt lat="42.6257447060" lon="0.8797694184">
        <ele>2482.74</ele>
        <time>2019-09-07T15:12:03Z</time>
      </trkpt>
      <trkpt lat="42.6257075742" lon="0.8798824064">
        <ele>2484.18</ele>
        <time>2019-09-07T15:12:14Z</time>
      </trkpt>
      <trkpt lat="42.6256875414" lon="0.8800358791">
        <ele>2486.59</ele>
        <time>2019-09-07T15:12:27Z</time>
      </trkpt>
      <trkpt lat="42.6256407704" lon="0.8800979052">
        <ele>2488.03</ele>
        <time>2019-09-07T15:12:35Z</time>
      </trkpt>
      <trkpt lat="42.6255651657" lon="0.8802437503">
        <ele>2488.99</ele>
        <time>2019-09-07T15:12:48Z</time>
      </trkpt>
      <trkpt lat="42.6255010441" lon="0.8803933673">
        <ele>2488.51</ele>
        <time>2019-09-07T15:13:00Z</time>
      </trkpt>
      <trkpt lat="42.6254377607" lon="0.8804978896">
        <ele>2490.43</ele>
        <time>2019-09-07T15:13:11Z</time>
      </trkpt>
      <trkpt lat="42.6253474038" lon="0.8805898391">
        <ele>2491.87</ele>
        <time>2019-09-07T15:13:24Z</time>
      </trkpt>
      <trkpt lat="42.6253359206" lon="0.8806697186">
        <ele>2493.32</ele>
        <time>2019-09-07T15:13:31Z</time>
      </trkpt>
      <trkpt lat="42.6253259461" lon="0.8807657752">
        <ele>2495.24</ele>
        <time>2019-09-07T15:13:42Z</time>
      </trkpt>
      <trkpt lat="42.6253251079" lon="0.8808704652">
        <ele>2497.16</ele>
        <time>2019-09-07T15:13:54Z</time>
      </trkpt>
      <trkpt lat="42.6253301371" lon="0.8809312340">
        <ele>2498.60</ele>
        <time>2019-09-07T15:14:04Z</time>
      </trkpt>
      <trkpt lat="42.6253395248" lon="0.8809879795">
        <ele>2500.05</ele>
        <time>2019-09-07T15:14:17Z</time>
      </trkpt>
      <trkpt lat="42.6253731363" lon="0.8810601477">
        <ele>2501.01</ele>
        <time>2019-09-07T15:14:28Z</time>
      </trkpt>
      <trkpt lat="42.6253950130" lon="0.8811151329">
        <ele>2502.45</ele>
        <time>2019-09-07T15:14:40Z</time>
      </trkpt>
      <trkpt lat="42.6253905706" lon="0.8812142909">
        <ele>2504.37</ele>
        <time>2019-09-07T15:14:53Z</time>
      </trkpt>
      <trkpt lat="42.6253938396" lon="0.8813494910">
        <ele>2505.81</ele>
        <time>2019-09-07T15:15:05Z</time>
      </trkpt>
      <trkpt lat="42.6253977790" lon="0.8814167976">
        <ele>2507.74</ele>
        <time>2019-09-07T15:15:15Z</time>
      </trkpt>
      <trkpt lat="42.6253973600" lon="0.8815229964">
        <ele>2509.66</ele>
        <time>2019-09-07T15:15:28Z</time>
      </trkpt>
      <trkpt lat="42.6253896486" lon="0.8816363197">
        <ele>2511.58</ele>
        <time>2019-09-07T15:15:40Z</time>
      </trkpt>
      <trkpt lat="42.6253854576" lon="0.8816960827">
        <ele>2513.50</ele>
        <time>2019-09-07T15:15:50Z</time>
      </trkpt>
      <trkpt lat="42.6253779139" lon="0.8817580249">
        <ele>2515.43</ele>
        <time>2019-09-07T15:16:00Z</time>
      </trkpt>
      <trkpt lat="42.6253663469" lon="0.8818565123">
        <ele>2517.83</ele>
        <time>2019-09-07T15:16:11Z</time>
      </trkpt>
      <trkpt lat="42.6253427938" lon="0.8819204662">
        <ele>2519.27</ele>
        <time>2019-09-07T15:16:23Z</time>
      </trkpt>
      <trkpt lat="42.6253030635" lon="0.8820135053">
        <ele>2520.23</ele>
        <time>2019-09-07T15:16:35Z</time>
      </trkpt>
      <trkpt lat="42.6252997108" lon="0.8821063768">
        <ele>2522.64</ele>
        <time>2019-09-07T15:16:50Z</time>
      </trkpt>
      <trkpt lat="42.6252753194" lon="0.8821704984">
        <ele>2524.08</ele>
        <time>2019-09-07T15:17:03Z</time>
      </trkpt>
      <trkpt lat="42.6252511796" lon="0.8822666388">
        <ele>2526.96</ele>
        <time>2019-09-07T15:17:18Z</time>
      </trkpt>
      <trkpt lat="42.6252295543" lon="0.8823361248">
        <ele>2528.40</ele>
        <time>2019-09-07T15:17:27Z</time>
      </trkpt>
      <trkpt lat="42.6251034066" lon="0.8824524656">
        <ele>2527.44</ele>
        <time>2019-09-07T15:17:41Z</time>
      </trkpt>
      <trkpt lat="42.6250184141" lon="0.8825665433">
        <ele>2526.00</ele>
        <time>2019-09-07T15:17:54Z</time>
      </trkpt>
      <trkpt lat="42.6249764208" lon="0.8827125560">
        <ele>2524.08</ele>
        <time>2019-09-07T15:18:06Z</time>
      </trkpt>
      <trkpt lat="42.6249792706" lon="0.8827205189">
        <ele>2523.60</ele>
        <time>2019-09-07T15:18:07Z</time>
      </trkpt>
      <trkpt lat="42.6249829587" lon="0.8828307409">
        <ele>2521.19</ele>
        <time>2019-09-07T15:18:18Z</time>
      </trkpt>
      <trkpt lat="42.6249448210" lon="0.8828630950">
        <ele>2520.23</ele>
        <time>2019-09-07T15:18:25Z</time>
      </trkpt>
      <trkpt lat="42.6249031629" lon="0.8828766737">
        <ele>2519.27</ele>
        <time>2019-09-07T15:18:36Z</time>
      </trkpt>
      <trkpt lat="42.6249104552" lon="0.8828739077">
        <ele>2519.27</ele>
        <time>2019-09-07T15:18:57Z</time>
      </trkpt>
      <trkpt lat="42.6249185018" lon="0.8828618377">
        <ele>2518.79</ele>
        <time>2019-09-07T15:19:14Z</time>
      </trkpt>
      <trkpt lat="42.6249164063" lon="0.8828692138">
        <ele>2518.79</ele>
        <time>2019-09-07T15:19:38Z</time>
      </trkpt>
      <trkpt lat="42.6249154843" lon="0.8829019032">
        <ele>2518.79</ele>
        <time>2019-09-07T15:19:50Z</time>
      </trkpt>
      <trkpt lat="42.6249070186" lon="0.8829700481">
        <ele>2518.79</ele>
        <time>2019-09-07T15:20:00Z</time>
      </trkpt>
      <trkpt lat="42.6248658635" lon="0.8830234408">
        <ele>2518.31</ele>
        <time>2019-09-07T15:20:11Z</time>
      </trkpt>
      <trkpt lat="42.6248680428" lon="0.8830316551">
        <ele>2515.43</ele>
        <time>2019-09-07T15:20:13Z</time>
      </trkpt>
      <trkpt lat="42.6248991396" lon="0.8830682840">
        <ele>2512.06</ele>
        <time>2019-09-07T15:20:23Z</time>
      </trkpt>
      <trkpt lat="42.6249353494" lon="0.8831113670">
        <ele>2509.66</ele>
        <time>2019-09-07T15:20:36Z</time>
      </trkpt>
      <trkpt lat="42.6249418035" lon="0.8831469063">
        <ele>2508.70</ele>
        <time>2019-09-07T15:20:45Z</time>
      </trkpt>
      <trkpt lat="42.6249341760" lon="0.8831562102">
        <ele>2506.77</ele>
        <time>2019-09-07T15:20:57Z</time>
      </trkpt>
      <trkpt lat="42.6249062642" lon="0.8831656817">
        <ele>2504.85</ele>
        <time>2019-09-07T15:21:07Z</time>
      </trkpt>
      <trkpt lat="42.6249023248" lon="0.8832014725">
        <ele>2503.89</ele>
        <time>2019-09-07T15:21:17Z</time>
      </trkpt>
      <trkpt lat="42.6248828787" lon="0.8832204156">
        <ele>2502.45</ele>
        <time>2019-09-07T15:21:27Z</time>
      </trkpt>
      <trkpt lat="42.6248498540" lon="0.8832369279">
        <ele>2500.53</ele>
        <time>2019-09-07T15:21:38Z</time>
      </trkpt>
      <trkpt lat="42.6248277258" lon="0.8832476567">
        <ele>2500.53</ele>
        <time>2019-09-07T15:21:41Z</time>
      </trkpt>
      <trkpt lat="42.6247831341" lon="0.8832812682">
        <ele>2497.16</ele>
        <time>2019-09-07T15:21:50Z</time>
      </trkpt>
      <trkpt lat="42.6247843914" lon="0.8832888119">
        <ele>2497.16</ele>
        <time>2019-09-07T15:21:51Z</time>
      </trkpt>
      <trkpt lat="42.6248024963" lon="0.8833722118">
        <ele>2494.76</ele>
        <time>2019-09-07T15:22:02Z</time>
      </trkpt>
      <trkpt lat="42.6247646939" lon="0.8834662568">
        <ele>2491.87</ele>
        <time>2019-09-07T15:22:13Z</time>
      </trkpt>
      <trkpt lat="42.6247711480" lon="0.8835373353">
        <ele>2489.95</ele>
        <time>2019-09-07T15:22:24Z</time>
      </trkpt>
      <trkpt lat="42.6247168332" lon="0.8835821785">
        <ele>2488.03</ele>
        <time>2019-09-07T15:22:35Z</time>
      </trkpt>
      <trkpt lat="42.6246863231" lon="0.8835852798">
        <ele>2486.11</ele>
        <time>2019-09-07T15:22:42Z</time>
      </trkpt>
      <trkpt lat="42.6246957108" lon="0.8835893031">
        <ele>2485.63</ele>
        <time>2019-09-07T15:22:44Z</time>
      </trkpt>
      <trkpt lat="42.6247571502" lon="0.8836625610">
        <ele>2484.18</ele>
        <time>2019-09-07T15:22:55Z</time>
      </trkpt>
      <trkpt lat="42.6248114649" lon="0.8837461285">
        <ele>2481.30</ele>
        <time>2019-09-07T15:23:06Z</time>
      </trkpt>
      <trkpt lat="42.6248366944" lon="0.8837717772">
        <ele>2479.38</ele>
        <time>2019-09-07T15:23:15Z</time>
      </trkpt>
      <trkpt lat="42.6248685457" lon="0.8838382456">
        <ele>2476.97</ele>
        <time>2019-09-07T15:23:27Z</time>
      </trkpt>
      <trkpt lat="42.6248666178" lon="0.8838963322">
        <ele>2474.09</ele>
        <time>2019-09-07T15:23:38Z</time>
      </trkpt>
      <trkpt lat="42.6248668693" lon="0.8839187119">
        <ele>2473.13</ele>
        <time>2019-09-07T15:23:50Z</time>
      </trkpt>
      <trkpt lat="42.6249048393" lon="0.8839705121">
        <ele>2471.69</ele>
        <time>2019-09-07T15:23:59Z</time>
      </trkpt>
      <trkpt lat="42.6248830464" lon="0.8840214740">
        <ele>2469.76</ele>
        <time>2019-09-07T15:24:09Z</time>
      </trkpt>
      <trkpt lat="42.6248961221" lon="0.8841259126">
        <ele>2467.36</ele>
        <time>2019-09-07T15:24:20Z</time>
      </trkpt>
      <trkpt lat="42.6248841360" lon="0.8841854241">
        <ele>2464.48</ele>
        <time>2019-09-07T15:24:30Z</time>
      </trkpt>
      <trkpt lat="42.6248708926" lon="0.8841930516">
        <ele>2463.04</ele>
        <time>2019-09-07T15:24:35Z</time>
      </trkpt>
      <trkpt lat="42.6248417236" lon="0.8841694985">
        <ele>2463.04</ele>
        <time>2019-09-07T15:24:38Z</time>
      </trkpt>
      <trkpt lat="42.6247706451" lon="0.8841346297">
        <ele>2461.59</ele>
        <time>2019-09-07T15:24:49Z</time>
      </trkpt>
      <trkpt lat="42.6247215271" lon="0.8841284271">
        <ele>2459.19</ele>
        <time>2019-09-07T15:25:00Z</time>
      </trkpt>
      <trkpt lat="42.6246797852" lon="0.8841508068">
        <ele>2458.23</ele>
        <time>2019-09-07T15:25:09Z</time>
      </trkpt>
      <trkpt lat="42.6246177591" lon="0.8841802273">
        <ele>2456.31</ele>
        <time>2019-09-07T15:25:19Z</time>
      </trkpt>
      <trkpt lat="42.6245681383" lon="0.8841916267">
        <ele>2453.42</ele>
        <time>2019-09-07T15:25:30Z</time>
      </trkpt>
      <trkpt lat="42.6245352812" lon="0.8842214663">
        <ele>2451.98</ele>
        <time>2019-09-07T15:25:41Z</time>
      </trkpt>
      <trkpt lat="42.6244782005" lon="0.8842892759">
        <ele>2449.58</ele>
        <time>2019-09-07T15:25:52Z</time>
      </trkpt>
      <trkpt lat="42.6244282443" lon="0.8843035251">
        <ele>2448.62</ele>
        <time>2019-09-07T15:25:58Z</time>
      </trkpt>
      <trkpt lat="42.6243846584" lon="0.8843523916">
        <ele>2448.13</ele>
        <time>2019-09-07T15:26:01Z</time>
      </trkpt>
      <trkpt lat="42.6243388932" lon="0.8843995817">
        <ele>2446.69</ele>
        <time>2019-09-07T15:26:11Z</time>
      </trkpt>
      <trkpt lat="42.6243341155" lon="0.8843952231">
        <ele>2445.25</ele>
        <time>2019-09-07T15:26:21Z</time>
      </trkpt>
      <trkpt lat="42.6243367977" lon="0.8844108973">
        <ele>2443.81</ele>
        <time>2019-09-07T15:26:30Z</time>
      </trkpt>
      <trkpt lat="42.6243189443" lon="0.8844219614">
        <ele>2440.92</ele>
        <time>2019-09-07T15:26:40Z</time>
      </trkpt>
      <trkpt lat="42.6242925413" lon="0.8844328579">
        <ele>2438.04</ele>
        <time>2019-09-07T15:26:51Z</time>
      </trkpt>
      <trkpt lat="42.6242504641" lon="0.8844561595">
        <ele>2435.16</ele>
        <time>2019-09-07T15:27:01Z</time>
      </trkpt>
      <trkpt lat="42.6242481172" lon="0.8845589217">
        <ele>2432.75</ele>
        <time>2019-09-07T15:27:11Z</time>
      </trkpt>
      <trkpt lat="42.6242035255" lon="0.8846283238">
        <ele>2430.83</ele>
        <time>2019-09-07T15:27:16Z</time>
      </trkpt>
      <trkpt lat="42.6241760328" lon="0.8846640307">
        <ele>2429.39</ele>
        <time>2019-09-07T15:27:19Z</time>
      </trkpt>
      <trkpt lat="42.6241537370" lon="0.8848418109">
        <ele>2428.43</ele>
        <time>2019-09-07T15:27:31Z</time>
      </trkpt>
      <trkpt lat="42.6241690759" lon="0.8849564753">
        <ele>2429.39</ele>
        <time>2019-09-07T15:27:38Z</time>
      </trkpt>
      <trkpt lat="42.6241679862" lon="0.8849931881">
        <ele>2429.39</ele>
        <time>2019-09-07T15:27:40Z</time>
      </trkpt>
      <trkpt lat="42.6241834089" lon="0.8851898275">
        <ele>2430.83</ele>
        <time>2019-09-07T15:27:53Z</time>
      </trkpt>
      <trkpt lat="42.6242133323" lon="0.8853409532">
        <ele>2433.23</ele>
        <time>2019-09-07T15:28:05Z</time>
      </trkpt>
      <trkpt lat="42.6242549904" lon="0.8854950126">
        <ele>2434.68</ele>
        <time>2019-09-07T15:28:16Z</time>
      </trkpt>
      <trkpt lat="42.6242497936" lon="0.8855676837">
        <ele>2432.75</ele>
        <time>2019-09-07T15:28:25Z</time>
      </trkpt>
      <trkpt lat="42.6242445130" lon="0.8856633212">
        <ele>2431.31</ele>
        <time>2019-09-07T15:28:36Z</time>
      </trkpt>
      <trkpt lat="42.6242483687" lon="0.8856792469">
        <ele>2431.31</ele>
        <time>2019-09-07T15:28:37Z</time>
      </trkpt>
      <trkpt lat="42.6242679823" lon="0.8857985213">
        <ele>2430.83</ele>
        <time>2019-09-07T15:28:47Z</time>
      </trkpt>
      <trkpt lat="42.6242322754" lon="0.8858724497">
        <ele>2430.35</ele>
        <time>2019-09-07T15:28:57Z</time>
      </trkpt>
      <trkpt lat="42.6242378075" lon="0.8859690931">
        <ele>2430.83</ele>
        <time>2019-09-07T15:29:06Z</time>
      </trkpt>
      <trkpt lat="42.6242288388" lon="0.8860825840">
        <ele>2430.83</ele>
        <time>2019-09-07T15:29:17Z</time>
      </trkpt>
      <trkpt lat="42.6242430881" lon="0.8861120045">
        <ele>2431.79</ele>
        <time>2019-09-07T15:29:20Z</time>
      </trkpt>
      <trkpt lat="42.6242720056" lon="0.8862088993">
        <ele>2432.27</ele>
        <time>2019-09-07T15:29:30Z</time>
      </trkpt>
      <trkpt lat="42.6242572535" lon="0.8862747811">
        <ele>2433.71</ele>
        <time>2019-09-07T15:29:39Z</time>
      </trkpt>
      <trkpt lat="42.6242189482" lon="0.8863541577">
        <ele>2434.68</ele>
        <time>2019-09-07T15:29:48Z</time>
      </trkpt>
      <trkpt lat="42.6242122427" lon="0.8864062931">
        <ele>2435.64</ele>
        <time>2019-09-07T15:29:53Z</time>
      </trkpt>
      <trkpt lat="42.6242037769" lon="0.8864767849">
        <ele>2436.60</ele>
        <time>2019-09-07T15:30:00Z</time>
      </trkpt>
      <trkpt lat="42.6241963170" lon="0.8866103925">
        <ele>2435.16</ele>
        <time>2019-09-07T15:30:10Z</time>
      </trkpt>
      <trkpt lat="42.6241957303" lon="0.8866779506">
        <ele>2435.16</ele>
        <time>2019-09-07T15:30:16Z</time>
      </trkpt>
      <trkpt lat="42.6241808105" lon="0.8867039345">
        <ele>2435.16</ele>
        <time>2019-09-07T15:30:20Z</time>
      </trkpt>
      <trkpt lat="42.6241232269" lon="0.8867627755">
        <ele>2434.20</ele>
        <time>2019-09-07T15:30:32Z</time>
      </trkpt>
      <trkpt lat="42.6241031941" lon="0.8868535515">
        <ele>2433.71</ele>
        <time>2019-09-07T15:30:41Z</time>
      </trkpt>
      <trkpt lat="42.6240558363" lon="0.8868859895">
        <ele>2433.23</ele>
        <time>2019-09-07T15:30:51Z</time>
      </trkpt>
      <trkpt lat="42.6239840034" lon="0.8868587483">
        <ele>2433.71</ele>
        <time>2019-09-07T15:31:02Z</time>
      </trkpt>
      <trkpt lat="42.6239140145" lon="0.8869076148">
        <ele>2433.23</ele>
        <time>2019-09-07T15:31:12Z</time>
      </trkpt>
      <trkpt lat="42.6238670759" lon="0.8869839739">
        <ele>2433.23</ele>
        <time>2019-09-07T15:31:24Z</time>
      </trkpt>
      <trkpt lat="42.6238343026" lon="0.8870081138">
        <ele>2432.27</ele>
        <time>2019-09-07T15:31:35Z</time>
      </trkpt>
      <trkpt lat="42.6237732824" lon="0.8870025817">
        <ele>2431.31</ele>
        <time>2019-09-07T15:31:45Z</time>
      </trkpt>
      <trkpt lat="42.6237317920" lon="0.8870864008">
        <ele>2429.87</ele>
        <time>2019-09-07T15:31:56Z</time>
      </trkpt>
      <trkpt lat="42.6236723643" lon="0.8871278912">
        <ele>2428.43</ele>
        <time>2019-09-07T15:32:06Z</time>
      </trkpt>
      <trkpt lat="42.6236240845" lon="0.8871562220">
        <ele>2426.99</ele>
        <time>2019-09-07T15:32:16Z</time>
      </trkpt>
      <trkpt lat="42.6235582866" lon="0.8872091956">
        <ele>2424.58</ele>
        <time>2019-09-07T15:32:27Z</time>
      </trkpt>
      <trkpt lat="42.6235163771" lon="0.8872640971">
        <ele>2423.14</ele>
        <time>2019-09-07T15:32:33Z</time>
      </trkpt>
      <trkpt lat="42.6234856155" lon="0.8873228543">
        <ele>2422.18</ele>
        <time>2019-09-07T15:32:37Z</time>
      </trkpt>
      <trkpt lat="42.6233976893" lon="0.8873977885">
        <ele>2421.22</ele>
        <time>2019-09-07T15:32:47Z</time>
      </trkpt>
      <trkpt lat="42.6233327296" lon="0.8873953577">
        <ele>2421.22</ele>
        <time>2019-09-07T15:32:56Z</time>
      </trkpt>
      <trkpt lat="42.6232904010" lon="0.8873898257">
        <ele>2422.18</ele>
        <time>2019-09-07T15:33:06Z</time>
      </trkpt>
      <trkpt lat="42.6232500840" lon="0.8873763308">
        <ele>2423.14</ele>
        <time>2019-09-07T15:33:14Z</time>
      </trkpt>
      <trkpt lat="42.6232323144" lon="0.8874303941">
        <ele>2423.62</ele>
        <time>2019-09-07T15:33:21Z</time>
      </trkpt>
      <trkpt lat="42.6232173946" lon="0.8874681965">
        <ele>2424.10</ele>
        <time>2019-09-07T15:33:24Z</time>
      </trkpt>
      <trkpt lat="42.6231948473" lon="0.8875238523">
        <ele>2424.58</ele>
        <time>2019-09-07T15:33:29Z</time>
      </trkpt>
      <trkpt lat="42.6231529377" lon="0.8875992056">
        <ele>2423.62</ele>
        <time>2019-09-07T15:33:36Z</time>
      </trkpt>
      <trkpt lat="42.6231321506" lon="0.8876171429">
        <ele>2423.14</ele>
        <time>2019-09-07T15:33:38Z</time>
      </trkpt>
      <trkpt lat="42.6230338309" lon="0.8877060749">
        <ele>2421.22</ele>
        <time>2019-09-07T15:33:49Z</time>
      </trkpt>
      <trkpt lat="42.6229831204" lon="0.8877341542">
        <ele>2421.70</ele>
        <time>2019-09-07T15:33:58Z</time>
      </trkpt>
      <trkpt lat="42.6229844615" lon="0.8877345733">
        <ele>2421.22</ele>
        <time>2019-09-07T15:34:11Z</time>
      </trkpt>
      <trkpt lat="42.6229739003" lon="0.8877199050">
        <ele>2421.22</ele>
        <time>2019-09-07T15:34:37Z</time>
      </trkpt>
      <trkpt lat="42.6229646802" lon="0.8877260238">
        <ele>2421.22</ele>
        <time>2019-09-07T15:35:16Z</time>
      </trkpt>
      <trkpt lat="42.6229742356" lon="0.8877263591">
        <ele>2421.22</ele>
        <time>2019-09-07T15:36:05Z</time>
      </trkpt>
      <trkpt lat="42.6229711343" lon="0.8877247665">
        <ele>2421.22</ele>
        <time>2019-09-07T15:36:32Z</time>
      </trkpt>
      <trkpt lat="42.6229668595" lon="0.8877163008">
        <ele>2421.22</ele>
        <time>2019-09-07T15:37:12Z</time>
      </trkpt>
      <trkpt lat="42.6229779236" lon="0.8877082542">
        <ele>2421.22</ele>
        <time>2019-09-07T15:37:26Z</time>
      </trkpt>
      <trkpt lat="42.6229832880" lon="0.8877096791">
        <ele>2421.22</ele>
        <time>2019-09-07T15:37:41Z</time>
      </trkpt>
      <trkpt lat="42.6229833718" lon="0.8877071645">
        <ele>2421.22</ele>
        <time>2019-09-07T15:38:01Z</time>
      </trkpt>
      <trkpt lat="42.6229877304" lon="0.8877079189">
        <ele>2421.22</ele>
        <time>2019-09-07T15:38:14Z</time>
      </trkpt>
      <trkpt lat="42.6229933463" lon="0.8877039794">
        <ele>2421.22</ele>
        <time>2019-09-07T15:38:35Z</time>
      </trkpt>
      <trkpt lat="42.6229886524" lon="0.8877086733">
        <ele>2421.22</ele>
        <time>2019-09-07T15:38:47Z</time>
      </trkpt>
      <trkpt lat="42.6229588967" lon="0.8877864573">
        <ele>2421.22</ele>
        <time>2019-09-07T15:39:06Z</time>
      </trkpt>
      <trkpt lat="42.6229103655" lon="0.8878895547">
        <ele>2421.22</ele>
        <time>2019-09-07T15:39:17Z</time>
      </trkpt>
      <trkpt lat="42.6228609122" lon="0.8880012017">
        <ele>2423.14</ele>
        <time>2019-09-07T15:39:29Z</time>
      </trkpt>
      <trkpt lat="42.6228525303" lon="0.8880224079">
        <ele>2423.62</ele>
        <time>2019-09-07T15:39:31Z</time>
      </trkpt>
      <trkpt lat="42.6228107885" lon="0.8881322108">
        <ele>2424.58</ele>
        <time>2019-09-07T15:39:41Z</time>
      </trkpt>
      <trkpt lat="42.6228101179" lon="0.8881575242">
        <ele>2424.58</ele>
        <time>2019-09-07T15:39:43Z</time>
      </trkpt>
      <trkpt lat="42.6227951981" lon="0.8883267548">
        <ele>2423.62</ele>
        <time>2019-09-07T15:39:55Z</time>
      </trkpt>
      <trkpt lat="42.6227938570" lon="0.8883429319">
        <ele>2423.62</ele>
        <time>2019-09-07T15:39:56Z</time>
      </trkpt>
      <trkpt lat="42.6227626763" lon="0.8884876873">
        <ele>2424.10</ele>
        <time>2019-09-07T15:40:08Z</time>
      </trkpt>
      <trkpt lat="42.6227597427" lon="0.8884979971">
        <ele>2424.10</ele>
        <time>2019-09-07T15:40:09Z</time>
      </trkpt>
      <trkpt lat="42.6227154862" lon="0.8885632921">
        <ele>2425.54</ele>
        <time>2019-09-07T15:40:18Z</time>
      </trkpt>
      <trkpt lat="42.6227014046" lon="0.8885982446">
        <ele>2426.02</ele>
        <time>2019-09-07T15:40:22Z</time>
      </trkpt>
      <trkpt lat="42.6226934418" lon="0.8886587620">
        <ele>2426.50</ele>
        <time>2019-09-07T15:40:27Z</time>
      </trkpt>
      <trkpt lat="42.6226698048" lon="0.8887443412">
        <ele>2426.99</ele>
        <time>2019-09-07T15:40:35Z</time>
      </trkpt>
      <trkpt lat="42.6226696372" lon="0.8887746837">
        <ele>2427.47</ele>
        <time>2019-09-07T15:40:37Z</time>
      </trkpt>
      <trkpt lat="42.6226590760" lon="0.8888999932">
        <ele>2428.43</ele>
        <time>2019-09-07T15:40:49Z</time>
      </trkpt>
      <trkpt lat="42.6226361934" lon="0.8889712393">
        <ele>2430.83</ele>
        <time>2019-09-07T15:41:00Z</time>
      </trkpt>
      <trkpt lat="42.6225905120" lon="0.8889768552">
        <ele>2432.27</ele>
        <time>2019-09-07T15:41:10Z</time>
      </trkpt>
      <trkpt lat="42.6225430705" lon="0.8890091255">
        <ele>2434.20</ele>
        <time>2019-09-07T15:41:20Z</time>
      </trkpt>
      <trkpt lat="42.6224896777" lon="0.8890521247">
        <ele>2434.68</ele>
        <time>2019-09-07T15:41:29Z</time>
      </trkpt>
      <trkpt lat="42.6224558987" lon="0.8890719060">
        <ele>2435.16</ele>
        <time>2019-09-07T15:41:33Z</time>
      </trkpt>
      <trkpt lat="42.6223875862" lon="0.8891864866">
        <ele>2435.16</ele>
        <time>2019-09-07T15:41:45Z</time>
      </trkpt>
      <trkpt lat="42.6223875862" lon="0.8892110456">
        <ele>2435.64</ele>
        <time>2019-09-07T15:41:47Z</time>
      </trkpt>
      <trkpt lat="42.6223890111" lon="0.8892387897">
        <ele>2435.64</ele>
        <time>2019-09-07T15:41:49Z</time>
      </trkpt>
      <trkpt lat="42.6223921124" lon="0.8893789351">
        <ele>2436.60</ele>
        <time>2019-09-07T15:41:58Z</time>
      </trkpt>
      <trkpt lat="42.6224722434" lon="0.8895212598">
        <ele>2437.56</ele>
        <time>2019-09-07T15:42:12Z</time>
      </trkpt>
      <trkpt lat="42.6224681363" lon="0.8896282967">
        <ele>2439.96</ele>
        <time>2019-09-07T15:42:24Z</time>
      </trkpt>
      <trkpt lat="42.6224717405" lon="0.8896532748">
        <ele>2439.96</ele>
        <time>2019-09-07T15:42:26Z</time>
      </trkpt>
      <trkpt lat="42.6224306691" lon="0.8897982817">
        <ele>2439.96</ele>
        <time>2019-09-07T15:42:38Z</time>
      </trkpt>
      <trkpt lat="42.6224066131" lon="0.8898798376">
        <ele>2440.92</ele>
        <time>2019-09-07T15:42:48Z</time>
      </trkpt>
      <trkpt lat="42.6224366203" lon="0.8899183106">
        <ele>2442.85</ele>
        <time>2019-09-07T15:43:00Z</time>
      </trkpt>
      <trkpt lat="42.6224989817" lon="0.8900432847">
        <ele>2444.77</ele>
        <time>2019-09-07T15:43:12Z</time>
      </trkpt>
      <trkpt lat="42.6225102134" lon="0.8901577815">
        <ele>2446.21</ele>
        <time>2019-09-07T15:43:23Z</time>
      </trkpt>
      <trkpt lat="42.6224426553" lon="0.8902280219">
        <ele>2448.13</ele>
        <time>2019-09-07T15:43:36Z</time>
      </trkpt>
      <trkpt lat="42.6223689783" lon="0.8902721945">
        <ele>2449.58</ele>
        <time>2019-09-07T15:43:47Z</time>
      </trkpt>
      <trkpt lat="42.6223741751" lon="0.8902830910">
        <ele>2450.54</ele>
        <time>2019-09-07T15:43:57Z</time>
      </trkpt>
      <trkpt lat="42.6223864127" lon="0.8903349750">
        <ele>2451.50</ele>
        <time>2019-09-07T15:44:08Z</time>
      </trkpt>
      <trkpt lat="42.6223991532" lon="0.8904210571">
        <ele>2452.46</ele>
        <time>2019-09-07T15:44:20Z</time>
      </trkpt>
      <trkpt lat="42.6224411465" lon="0.8904817421">
        <ele>2453.42</ele>
        <time>2019-09-07T15:44:30Z</time>
      </trkpt>
      <trkpt lat="42.6224382129" lon="0.8905581851">
        <ele>2454.86</ele>
        <time>2019-09-07T15:44:42Z</time>
      </trkpt>
      <trkpt lat="42.6224257238" lon="0.8906108234">
        <ele>2456.79</ele>
        <time>2019-09-07T15:44:54Z</time>
      </trkpt>
      <trkpt lat="42.6224021707" lon="0.8906399924">
        <ele>2458.23</ele>
        <time>2019-09-07T15:45:06Z</time>
      </trkpt>
      <trkpt lat="42.6224128995" lon="0.8906911220">
        <ele>2460.15</ele>
        <time>2019-09-07T15:45:18Z</time>
      </trkpt>
      <trkpt lat="42.6223828923" lon="0.8907135017">
        <ele>2461.59</ele>
        <time>2019-09-07T15:45:28Z</time>
      </trkpt>
      <trkpt lat="42.6223811321" lon="0.8907625359">
        <ele>2463.04</ele>
        <time>2019-09-07T15:45:40Z</time>
      </trkpt>
      <trkpt lat="42.6223569084" lon="0.8907769527">
        <ele>2464.48</ele>
        <time>2019-09-07T15:45:50Z</time>
      </trkpt>
      <trkpt lat="42.6223764382" lon="0.8908411581">
        <ele>2465.44</ele>
        <time>2019-09-07T15:46:03Z</time>
      </trkpt>
      <trkpt lat="42.6223845687" lon="0.8909037709">
        <ele>2467.36</ele>
        <time>2019-09-07T15:46:17Z</time>
      </trkpt>
      <trkpt lat="42.6223662961" lon="0.8909512963">
        <ele>2468.80</ele>
        <time>2019-09-07T15:46:28Z</time>
      </trkpt>
      <trkpt lat="42.6223562378" lon="0.8909600135">
        <ele>2469.28</ele>
        <time>2019-09-07T15:46:31Z</time>
      </trkpt>
      <trkpt lat="42.6223448385" lon="0.8909980673">
        <ele>2471.21</ele>
        <time>2019-09-07T15:46:41Z</time>
      </trkpt>
      <trkpt lat="42.6223230455" lon="0.8910362888">
        <ele>2473.13</ele>
        <time>2019-09-07T15:46:55Z</time>
      </trkpt>
      <trkpt lat="42.6223181840" lon="0.8910685591">
        <ele>2474.09</ele>
        <time>2019-09-07T15:47:05Z</time>
      </trkpt>
      <trkpt lat="42.6223307569" lon="0.8911139891">
        <ele>2476.01</ele>
        <time>2019-09-07T15:47:16Z</time>
      </trkpt>
      <trkpt lat="42.6223263983" lon="0.8911800385">
        <ele>2477.94</ele>
        <time>2019-09-07T15:47:30Z</time>
      </trkpt>
      <trkpt lat="42.6223006658" lon="0.8912227862">
        <ele>2479.86</ele>
        <time>2019-09-07T15:47:40Z</time>
      </trkpt>
      <trkpt lat="42.6222779509" lon="0.8912683837">
        <ele>2481.78</ele>
        <time>2019-09-07T15:47:52Z</time>
      </trkpt>
      <trkpt lat="42.6222660486" lon="0.8913175017">
        <ele>2483.22</ele>
        <time>2019-09-07T15:48:03Z</time>
      </trkpt>
      <trkpt lat="42.6222280785" lon="0.8914035000">
        <ele>2484.66</ele>
        <time>2019-09-07T15:48:14Z</time>
      </trkpt>
      <trkpt lat="42.6222107280" lon="0.8914870676">
        <ele>2485.63</ele>
        <time>2019-09-07T15:48:24Z</time>
      </trkpt>
      <trkpt lat="42.6221673097" lon="0.8915278036">
        <ele>2486.59</ele>
        <time>2019-09-07T15:48:36Z</time>
      </trkpt>
      <trkpt lat="42.6221426670" lon="0.8915946074">
        <ele>2488.03</ele>
        <time>2019-09-07T15:48:47Z</time>
      </trkpt>
      <trkpt lat="42.6221072115" lon="0.8916781750">
        <ele>2489.47</ele>
        <time>2019-09-07T15:48:59Z</time>
      </trkpt>
      <trkpt lat="42.6220985781" lon="0.8916927595">
        <ele>2489.95</ele>
        <time>2019-09-07T15:49:01Z</time>
      </trkpt>
      <trkpt lat="42.6220861729" lon="0.8917357586">
        <ele>2491.87</ele>
        <time>2019-09-07T15:49:11Z</time>
      </trkpt>
      <trkpt lat="42.6220688224" lon="0.8918091841">
        <ele>2492.84</ele>
        <time>2019-09-07T15:49:20Z</time>
      </trkpt>
      <trkpt lat="42.6220729295" lon="0.8918190747">
        <ele>2493.80</ele>
        <time>2019-09-07T15:49:30Z</time>
      </trkpt>
      <trkpt lat="42.6220659725" lon="0.8918900695">
        <ele>2494.76</ele>
        <time>2019-09-07T15:49:44Z</time>
      </trkpt>
      <trkpt lat="42.6220651343" lon="0.8919689432">
        <ele>2497.16</ele>
        <time>2019-09-07T15:49:58Z</time>
      </trkpt>
      <trkpt lat="42.6220399048" lon="0.8920158818">
        <ele>2498.60</ele>
        <time>2019-09-07T15:50:10Z</time>
      </trkpt>
      <trkpt lat="42.6220254041" lon="0.8920817636">
        <ele>2499.08</ele>
        <time>2019-09-07T15:50:20Z</time>
      </trkpt>
      <trkpt lat="42.6219805609" lon="0.8921494894">
        <ele>2500.53</ele>
        <time>2019-09-07T15:50:31Z</time>
      </trkpt>
      <trkpt lat="42.6219539065" lon="0.8922379185">
        <ele>2502.45</ele>
        <time>2019-09-07T15:50:44Z</time>
      </trkpt>
      <trkpt lat="42.6219399925" lon="0.8923130203">
        <ele>2504.85</ele>
        <time>2019-09-07T15:50:57Z</time>
      </trkpt>
      <trkpt lat="42.6219259948" lon="0.8923548460">
        <ele>2506.77</ele>
        <time>2019-09-07T15:51:08Z</time>
      </trkpt>
      <trkpt lat="42.6219173614" lon="0.8923884574">
        <ele>2508.70</ele>
        <time>2019-09-07T15:51:19Z</time>
      </trkpt>
      <trkpt lat="42.6219133381" lon="0.8924739528">
        <ele>2510.62</ele>
        <time>2019-09-07T15:51:33Z</time>
      </trkpt>
      <trkpt lat="42.6219240669" lon="0.8925358951">
        <ele>2510.62</ele>
        <time>2019-09-07T15:51:41Z</time>
      </trkpt>
      <trkpt lat="42.6219333708" lon="0.8926041238">
        <ele>2513.02</ele>
        <time>2019-09-07T15:51:52Z</time>
      </trkpt>
      <trkpt lat="42.6219585165" lon="0.8926802315">
        <ele>2513.98</ele>
        <time>2019-09-07T15:52:05Z</time>
      </trkpt>
      <trkpt lat="42.6219498832" lon="0.8927404974">
        <ele>2514.95</ele>
        <time>2019-09-07T15:52:16Z</time>
      </trkpt>
      <trkpt lat="42.6219345443" lon="0.8928132523">
        <ele>2516.87</ele>
        <time>2019-09-07T15:52:30Z</time>
      </trkpt>
      <trkpt lat="42.6219252404" lon="0.8928545751">
        <ele>2518.31</ele>
        <time>2019-09-07T15:52:43Z</time>
      </trkpt>
      <trkpt lat="42.6219208818" lon="0.8928934671">
        <ele>2520.23</ele>
        <time>2019-09-07T15:52:57Z</time>
      </trkpt>
      <trkpt lat="42.6219286770" lon="0.8929278329">
        <ele>2521.68</ele>
        <time>2019-09-07T15:53:05Z</time>
      </trkpt>
      <trkpt lat="42.6219074707" lon="0.8929583430">
        <ele>2523.60</ele>
        <time>2019-09-07T15:53:18Z</time>
      </trkpt>
      <trkpt lat="42.6218890306" lon="0.8929698262">
        <ele>2525.04</ele>
        <time>2019-09-07T15:53:31Z</time>
      </trkpt>
      <trkpt lat="42.6218701713" lon="0.8929964807">
        <ele>2526.00</ele>
        <time>2019-09-07T15:53:42Z</time>
      </trkpt>
      <trkpt lat="42.6218473725" lon="0.8930232190">
        <ele>2527.44</ele>
        <time>2019-09-07T15:53:55Z</time>
      </trkpt>
      <trkpt lat="42.6218177844" lon="0.8930256497">
        <ele>2529.37</ele>
        <time>2019-09-07T15:54:09Z</time>
      </trkpt>
      <trkpt lat="42.6218144316" lon="0.8930659667">
        <ele>2530.81</ele>
        <time>2019-09-07T15:54:19Z</time>
      </trkpt>
      <trkpt lat="42.6217607036" lon="0.8930720016">
        <ele>2532.73</ele>
        <time>2019-09-07T15:54:31Z</time>
      </trkpt>
      <trkpt lat="42.6217836700" lon="0.8931449242">
        <ele>2534.17</ele>
        <time>2019-09-07T15:54:42Z</time>
      </trkpt>
      <trkpt lat="42.6217824966" lon="0.8931890968">
        <ele>2535.13</ele>
        <time>2019-09-07T15:54:53Z</time>
      </trkpt>
      <trkpt lat="42.6217964105" lon="0.8932743408">
        <ele>2537.06</ele>
        <time>2019-09-07T15:55:06Z</time>
      </trkpt>
      <trkpt lat="42.6218468696" lon="0.8933327626">
        <ele>2538.50</ele>
        <time>2019-09-07T15:55:17Z</time>
      </trkpt>
      <trkpt lat="42.6218590233" lon="0.8934016619">
        <ele>2539.94</ele>
        <time>2019-09-07T15:55:30Z</time>
      </trkpt>
      <trkpt lat="42.6218697522" lon="0.8934222814">
        <ele>2539.94</ele>
        <time>2019-09-07T15:55:35Z</time>
      </trkpt>
      <trkpt lat="42.6218586881" lon="0.8935071900">
        <ele>2540.90</ele>
        <time>2019-09-07T15:55:46Z</time>
      </trkpt>
      <trkpt lat="42.6218493003" lon="0.8935586549">
        <ele>2541.38</ele>
        <time>2019-09-07T15:55:53Z</time>
      </trkpt>
      <trkpt lat="42.6218513958" lon="0.8936192561">
        <ele>2541.86</ele>
        <time>2019-09-07T15:55:57Z</time>
      </trkpt>
      <trkpt lat="42.6218457799" lon="0.8936617523">
        <ele>2541.86</ele>
        <time>2019-09-07T15:56:00Z</time>
      </trkpt>
      <trkpt lat="42.6218209695" lon="0.8937486727">
        <ele>2542.82</ele>
        <time>2019-09-07T15:56:09Z</time>
      </trkpt>
      <trkpt lat="42.6218241546" lon="0.8938200027">
        <ele>2543.79</ele>
        <time>2019-09-07T15:56:19Z</time>
      </trkpt>
      <trkpt lat="42.6218114141" lon="0.8938925900">
        <ele>2545.23</ele>
        <time>2019-09-07T15:56:30Z</time>
      </trkpt>
      <trkpt lat="42.6217726059" lon="0.8939337451">
        <ele>2546.19</ele>
        <time>2019-09-07T15:56:39Z</time>
      </trkpt>
      <trkpt lat="42.6217286848" lon="0.8940130379">
        <ele>2547.63</ele>
        <time>2019-09-07T15:56:51Z</time>
      </trkpt>
      <trkpt lat="42.6216759626" lon="0.8941142913">
        <ele>2547.63</ele>
        <time>2019-09-07T15:57:03Z</time>
      </trkpt>
      <trkpt lat="42.6216357294" lon="0.8941707853">
        <ele>2548.59</ele>
        <time>2019-09-07T15:57:14Z</time>
      </trkpt>
      <trkpt lat="42.6216340531" lon="0.8941894770">
        <ele>2549.07</ele>
        <time>2019-09-07T15:57:17Z</time>
      </trkpt>
      <trkpt lat="42.6216089074" lon="0.8942851145">
        <ele>2551.00</ele>
        <time>2019-09-07T15:57:29Z</time>
      </trkpt>
      <trkpt lat="42.6216056384" lon="0.8943551034">
        <ele>2552.44</ele>
        <time>2019-09-07T15:57:39Z</time>
      </trkpt>
      <trkpt lat="42.6215638127" lon="0.8944147825">
        <ele>2553.40</ele>
        <time>2019-09-07T15:57:49Z</time>
      </trkpt>
      <trkpt lat="42.6215237472" lon="0.8945075702">
        <ele>2556.28</ele>
        <time>2019-09-07T15:58:04Z</time>
      </trkpt>
      <trkpt lat="42.6215089113" lon="0.8946156967">
        <ele>2557.24</ele>
        <time>2019-09-07T15:58:15Z</time>
      </trkpt>
      <trkpt lat="42.6215094980" lon="0.8947036229">
        <ele>2558.69</ele>
        <time>2019-09-07T15:58:25Z</time>
      </trkpt>
      <trkpt lat="42.6214846876" lon="0.8947594464">
        <ele>2559.65</ele>
        <time>2019-09-07T15:58:34Z</time>
      </trkpt>
      <trkpt lat="42.6214851066" lon="0.8947882801">
        <ele>2560.13</ele>
        <time>2019-09-07T15:58:37Z</time>
      </trkpt>
      <trkpt lat="42.6214750484" lon="0.8949145116">
        <ele>2560.61</ele>
        <time>2019-09-07T15:58:48Z</time>
      </trkpt>
      <trkpt lat="42.6214778144" lon="0.8949653059">
        <ele>2561.57</ele>
        <time>2019-09-07T15:58:53Z</time>
      </trkpt>
      <trkpt lat="42.6215203106" lon="0.8950747736">
        <ele>2563.01</ele>
        <time>2019-09-07T15:59:03Z</time>
      </trkpt>
      <trkpt lat="42.6215570234" lon="0.8952023461">
        <ele>2563.97</ele>
        <time>2019-09-07T15:59:14Z</time>
      </trkpt>
      <trkpt lat="42.6215904672" lon="0.8953092154">
        <ele>2564.93</ele>
        <time>2019-09-07T15:59:25Z</time>
      </trkpt>
      <trkpt lat="42.6216145232" lon="0.8953832276">
        <ele>2565.42</ele>
        <time>2019-09-07T15:59:35Z</time>
      </trkpt>
      <trkpt lat="42.6216398366" lon="0.8954160847">
        <ele>2565.90</ele>
        <time>2019-09-07T15:59:39Z</time>
      </trkpt>
      <trkpt lat="42.6216970850" lon="0.8954946231">
        <ele>2567.34</ele>
        <time>2019-09-07T15:59:52Z</time>
      </trkpt>
      <trkpt lat="42.6217213925" lon="0.8955842257">
        <ele>2569.74</ele>
        <time>2019-09-07T16:00:05Z</time>
      </trkpt>
      <trkpt lat="42.6216916367" lon="0.8955988940">
        <ele>2570.22</ele>
        <time>2019-09-07T16:00:16Z</time>
      </trkpt>
      <trkpt lat="42.6216913853" lon="0.8956108801">
        <ele>2570.70</ele>
        <time>2019-09-07T16:00:30Z</time>
      </trkpt>
      <trkpt lat="42.6216819137" lon="0.8956210222">
        <ele>2570.70</ele>
        <time>2019-09-07T16:00:45Z</time>
      </trkpt>
      <trkpt lat="42.6216643956" lon="0.8955984749">
        <ele>2570.70</ele>
        <time>2019-09-07T16:00:59Z</time>
      </trkpt>
      <trkpt lat="42.6216642279" lon="0.8956004027">
        <ele>2570.70</ele>
        <time>2019-09-07T16:01:13Z</time>
      </trkpt>
      <trkpt lat="42.6216514874" lon="0.8956051804">
        <ele>2570.22</ele>
        <time>2019-09-07T16:01:43Z</time>
      </trkpt>
      <trkpt lat="42.6216923073" lon="0.8956172504">
        <ele>2570.22</ele>
        <time>2019-09-07T16:01:54Z</time>
      </trkpt>
      <trkpt lat="42.6217322890" lon="0.8957095351">
        <ele>2568.78</ele>
        <time>2019-09-07T16:02:07Z</time>
      </trkpt>
      <trkpt lat="42.6217267569" lon="0.8957385365">
        <ele>2568.30</ele>
        <time>2019-09-07T16:02:16Z</time>
      </trkpt>
      <trkpt lat="42.6217217278" lon="0.8957686275">
        <ele>2566.86</ele>
        <time>2019-09-07T16:02:26Z</time>
      </trkpt>
      <trkpt lat="42.6217029523" lon="0.8958221041">
        <ele>2565.90</ele>
        <time>2019-09-07T16:02:38Z</time>
      </trkpt>
      <trkpt lat="42.6217017788" lon="0.8958972897">
        <ele>2564.45</ele>
        <time>2019-09-07T16:02:46Z</time>
      </trkpt>
      <trkpt lat="42.6216984261" lon="0.8959681168">
        <ele>2562.53</ele>
        <time>2019-09-07T16:02:55Z</time>
      </trkpt>
      <trkpt lat="42.6216270961" lon="0.8960057516">
        <ele>2559.65</ele>
        <time>2019-09-07T16:03:07Z</time>
      </trkpt>
      <trkpt lat="42.6215840131" lon="0.8960848767">
        <ele>2556.76</ele>
        <time>2019-09-07T16:03:19Z</time>
      </trkpt>
      <trkpt lat="42.6215505693" lon="0.8961281274">
        <ele>2554.36</ele>
        <time>2019-09-07T16:03:29Z</time>
      </trkpt>
      <trkpt lat="42.6215451211" lon="0.8962067496">
        <ele>2552.44</ele>
        <time>2019-09-07T16:03:40Z</time>
      </trkpt>
      <trkpt lat="42.6215478033" lon="0.8963022195">
        <ele>2550.03</ele>
        <time>2019-09-07T16:03:50Z</time>
      </trkpt>
      <trkpt lat="42.6214796584" lon="0.8963610604">
        <ele>2547.15</ele>
        <time>2019-09-07T16:04:01Z</time>
      </trkpt>
      <trkpt lat="42.6215161197" lon="0.8964370843">
        <ele>2545.71</ele>
        <time>2019-09-07T16:04:12Z</time>
      </trkpt>
      <trkpt lat="42.6215571910" lon="0.8965413552">
        <ele>2542.82</ele>
        <time>2019-09-07T16:04:25Z</time>
      </trkpt>
      <trkpt lat="42.6215835940" lon="0.8966540080">
        <ele>2539.46</ele>
        <time>2019-09-07T16:04:39Z</time>
      </trkpt>
      <trkpt lat="42.6215761341" lon="0.8967736177">
        <ele>2537.06</ele>
        <time>2019-09-07T16:04:51Z</time>
      </trkpt>
      <trkpt lat="42.6215359010" lon="0.8968654834">
        <ele>2534.65</ele>
        <time>2019-09-07T16:05:02Z</time>
      </trkpt>
      <trkpt lat="42.6215443667" lon="0.8969705086">
        <ele>2531.77</ele>
        <time>2019-09-07T16:05:12Z</time>
      </trkpt>
      <trkpt lat="42.6215715241" lon="0.8970114961">
        <ele>2530.81</ele>
        <time>2019-09-07T16:05:18Z</time>
      </trkpt>
      <trkpt lat="42.6216016151" lon="0.8970594406">
        <ele>2528.89</ele>
        <time>2019-09-07T16:05:24Z</time>
      </trkpt>
      <trkpt lat="42.6216160320" lon="0.8970936388">
        <ele>2527.92</ele>
        <time>2019-09-07T16:05:27Z</time>
      </trkpt>
      <trkpt lat="42.6216313709" lon="0.8971363865">
        <ele>2526.96</ele>
        <time>2019-09-07T16:05:30Z</time>
      </trkpt>
      <trkpt lat="42.6216332987" lon="0.8972124942">
        <ele>2525.52</ele>
        <time>2019-09-07T16:05:35Z</time>
      </trkpt>
      <trkpt lat="42.6216428541" lon="0.8972927928">
        <ele>2523.60</ele>
        <time>2019-09-07T16:05:41Z</time>
      </trkpt>
      <trkpt lat="42.6216744538" lon="0.8973771986">
        <ele>2521.19</ele>
        <time>2019-09-07T16:05:52Z</time>
      </trkpt>
      <trkpt lat="42.6216384117" lon="0.8974323515">
        <ele>2519.27</ele>
        <time>2019-09-07T16:06:04Z</time>
      </trkpt>
      <trkpt lat="42.6215608791" lon="0.8974548150">
        <ele>2517.83</ele>
        <time>2019-09-07T16:06:15Z</time>
      </trkpt>
      <trkpt lat="42.6215271000" lon="0.8975066151">
        <ele>2515.91</ele>
        <time>2019-09-07T16:06:25Z</time>
      </trkpt>
      <trkpt lat="42.6215449534" lon="0.8975641150">
        <ele>2514.47</ele>
        <time>2019-09-07T16:06:37Z</time>
      </trkpt>
      <trkpt lat="42.6215688419" lon="0.8976317570">
        <ele>2513.02</ele>
        <time>2019-09-07T16:06:47Z</time>
      </trkpt>
      <trkpt lat="42.6215789840" lon="0.8977509476">
        <ele>2510.62</ele>
        <time>2019-09-07T16:06:59Z</time>
      </trkpt>
      <trkpt lat="42.6215812471" lon="0.8977781050">
        <ele>2510.14</ele>
        <time>2019-09-07T16:07:01Z</time>
      </trkpt>
      <trkpt lat="42.6216135174" lon="0.8978703059">
        <ele>2509.66</ele>
        <time>2019-09-07T16:07:13Z</time>
      </trkpt>
      <trkpt lat="42.6215922274" lon="0.8978831302">
        <ele>2508.22</ele>
        <time>2019-09-07T16:07:23Z</time>
      </trkpt>
      <trkpt lat="42.6215868630" lon="0.8979392890">
        <ele>2507.26</ele>
        <time>2019-09-07T16:07:29Z</time>
      </trkpt>
      <trkpt lat="42.6215955801" lon="0.8980249520">
        <ele>2505.81</ele>
        <time>2019-09-07T16:07:39Z</time>
      </trkpt>
      <trkpt lat="42.6215787325" lon="0.8980871458">
        <ele>2504.37</ele>
        <time>2019-09-07T16:07:49Z</time>
      </trkpt>
      <trkpt lat="42.6216135174" lon="0.8981777541">
        <ele>2502.93</ele>
        <time>2019-09-07T16:08:00Z</time>
      </trkpt>
      <trkpt lat="42.6216168702" lon="0.8982232679">
        <ele>2501.97</ele>
        <time>2019-09-07T16:08:05Z</time>
      </trkpt>
      <trkpt lat="42.6215844322" lon="0.8983552828">
        <ele>2500.05</ele>
        <time>2019-09-07T16:08:15Z</time>
      </trkpt>
      <trkpt lat="42.6215732004" lon="0.8984349947">
        <ele>2499.08</ele>
        <time>2019-09-07T16:08:22Z</time>
      </trkpt>
      <trkpt lat="42.6215581130" lon="0.8985068277">
        <ele>2497.64</ele>
        <time>2019-09-07T16:08:29Z</time>
      </trkpt>
      <trkpt lat="42.6214579493" lon="0.8985277824">
        <ele>2496.68</ele>
        <time>2019-09-07T16:08:40Z</time>
      </trkpt>
      <trkpt lat="42.6214456279" lon="0.8985573705">
        <ele>2495.24</ele>
        <time>2019-09-07T16:08:48Z</time>
      </trkpt>
      <trkpt lat="42.6214427780" lon="0.8985883836">
        <ele>2494.28</ele>
        <time>2019-09-07T16:08:50Z</time>
      </trkpt>
      <trkpt lat="42.6214493997" lon="0.8986536786">
        <ele>2493.32</ele>
        <time>2019-09-07T16:08:57Z</time>
      </trkpt>
      <trkpt lat="42.6214911416" lon="0.8987354022">
        <ele>2492.84</ele>
        <time>2019-09-07T16:09:07Z</time>
      </trkpt>
      <trkpt lat="42.6215162035" lon="0.8988077380">
        <ele>2491.87</ele>
        <time>2019-09-07T16:09:15Z</time>
      </trkpt>
      <trkpt lat="42.6215224061" lon="0.8988219872">
        <ele>2491.39</ele>
        <time>2019-09-07T16:09:16Z</time>
      </trkpt>
      <trkpt lat="42.6215261780" lon="0.8988876175">
        <ele>2490.91</ele>
        <time>2019-09-07T16:09:21Z</time>
      </trkpt>
      <trkpt lat="42.6215244178" lon="0.8989016153">
        <ele>2490.43</ele>
        <time>2019-09-07T16:09:22Z</time>
      </trkpt>
      <trkpt lat="42.6215358172" lon="0.8989789803">
        <ele>2489.95</ele>
        <time>2019-09-07T16:09:29Z</time>
      </trkpt>
      <trkpt lat="42.6215462107" lon="0.8989915531">
        <ele>2489.95</ele>
        <time>2019-09-07T16:09:30Z</time>
      </trkpt>
      <trkpt lat="42.6215544250" lon="0.8990030363">
        <ele>2489.95</ele>
        <time>2019-09-07T16:09:31Z</time>
      </trkpt>
      <trkpt lat="42.6215597056" lon="0.8990166150">
        <ele>2489.47</ele>
        <time>2019-09-07T16:09:32Z</time>
      </trkpt>
      <trkpt lat="42.6215630583" lon="0.8990311995">
        <ele>2489.47</ele>
        <time>2019-09-07T16:09:33Z</time>
      </trkpt>
      <trkpt lat="42.6215633098" lon="0.8990466222">
        <ele>2488.99</ele>
        <time>2019-09-07T16:09:34Z</time>
      </trkpt>
      <trkpt lat="42.6215648185" lon="0.8991809841">
        <ele>2488.03</ele>
        <time>2019-09-07T16:09:44Z</time>
      </trkpt>
      <trkpt lat="42.6215671655" lon="0.8991960716">
        <ele>2488.03</ele>
        <time>2019-09-07T16:09:45Z</time>
      </trkpt>
      <trkpt lat="42.6215689257" lon="0.8992133383">
        <ele>2487.55</ele>
        <time>2019-09-07T16:09:46Z</time>
      </trkpt>
      <trkpt lat="42.6215713564" lon="0.8992517274">
        <ele>2487.07</ele>
        <time>2019-09-07T16:09:49Z</time>
      </trkpt>
      <trkpt lat="42.6215964183" lon="0.8992472012">
        <ele>2486.59</ele>
        <time>2019-09-07T16:09:58Z</time>
      </trkpt>
      <trkpt lat="42.6216369867" lon="0.8993061259">
        <ele>2485.15</ele>
        <time>2019-09-07T16:10:08Z</time>
      </trkpt>
      <trkpt lat="42.6216331311" lon="0.8993372228">
        <ele>2484.66</ele>
        <time>2019-09-07T16:10:11Z</time>
      </trkpt>
      <trkpt lat="42.6216319576" lon="0.8995000832">
        <ele>2484.18</ele>
        <time>2019-09-07T16:10:23Z</time>
      </trkpt>
      <trkpt lat="42.6216281857" lon="0.8994996641">
        <ele>2483.22</ele>
        <time>2019-09-07T16:10:36Z</time>
      </trkpt>
      <trkpt lat="42.6216275152" lon="0.8994999155">
        <ele>2483.22</ele>
        <time>2019-09-07T16:10:38Z</time>
      </trkpt>
      <trkpt lat="42.6216062251" lon="0.8994927909">
        <ele>2482.26</ele>
        <time>2019-09-07T16:10:44Z</time>
      </trkpt>
      <trkpt lat="42.6216084883" lon="0.8994829841">
        <ele>2482.74</ele>
        <time>2019-09-07T16:12:03Z</time>
      </trkpt>
      <trkpt lat="42.6216161158" lon="0.8994725905">
        <ele>2483.22</ele>
        <time>2019-09-07T16:12:18Z</time>
      </trkpt>
      <trkpt lat="42.6216289401" lon="0.8994737640">
        <ele>2483.22</ele>
        <time>2019-09-07T16:12:37Z</time>
      </trkpt>
      <trkpt lat="42.6216338016" lon="0.8994733449">
        <ele>2482.74</ele>
        <time>2019-09-07T16:12:51Z</time>
      </trkpt>
      <trkpt lat="42.6216350589" lon="0.8995598461">
        <ele>2482.74</ele>
        <time>2019-09-07T16:13:03Z</time>
      </trkpt>
      <trkpt lat="42.6216291916" lon="0.8996419888">
        <ele>2480.82</ele>
        <time>2019-09-07T16:13:12Z</time>
      </trkpt>
      <trkpt lat="42.6216043811" lon="0.8996740077">
        <ele>2479.86</ele>
        <time>2019-09-07T16:13:15Z</time>
      </trkpt>
      <trkpt lat="42.6215873659" lon="0.8997037634">
        <ele>2479.38</ele>
        <time>2019-09-07T16:13:18Z</time>
      </trkpt>
      <trkpt lat="42.6215755474" lon="0.8997562341">
        <ele>2478.42</ele>
        <time>2019-09-07T16:13:23Z</time>
      </trkpt>
      <trkpt lat="42.6216079853" lon="0.8998585772">
        <ele>2477.45</ele>
        <time>2019-09-07T16:13:31Z</time>
      </trkpt>
      <trkpt lat="42.6216023695" lon="0.8999377023">
        <ele>2476.97</ele>
        <time>2019-09-07T16:13:37Z</time>
      </trkpt>
      <trkpt lat="42.6216243301" lon="0.8999769296">
        <ele>2476.49</ele>
        <time>2019-09-07T16:13:40Z</time>
      </trkpt>
      <trkpt lat="42.6216032077" lon="0.9001163207">
        <ele>2475.53</ele>
        <time>2019-09-07T16:13:50Z</time>
      </trkpt>
      <trkpt lat="42.6215953287" lon="0.9002005588">
        <ele>2475.53</ele>
        <time>2019-09-07T16:13:58Z</time>
      </trkpt>
      <trkpt lat="42.6216551755" lon="0.9002685361">
        <ele>2474.57</ele>
        <time>2019-09-07T16:14:10Z</time>
      </trkpt>
      <trkpt lat="42.6216753758" lon="0.9003336634">
        <ele>2474.09</ele>
        <time>2019-09-07T16:14:16Z</time>
      </trkpt>
      <trkpt lat="42.6217362285" lon="0.9004313964">
        <ele>2474.57</ele>
        <time>2019-09-07T16:14:24Z</time>
      </trkpt>
      <trkpt lat="42.6217949856" lon="0.9005812649">
        <ele>2475.05</ele>
        <time>2019-09-07T16:14:35Z</time>
      </trkpt>
      <trkpt lat="42.6217981707" lon="0.9005974419">
        <ele>2475.05</ele>
        <time>2019-09-07T16:14:36Z</time>
      </trkpt>
      <trkpt lat="42.6218065526" lon="0.9007717855">
        <ele>2476.01</ele>
        <time>2019-09-07T16:14:48Z</time>
      </trkpt>
      <trkpt lat="42.6218159404" lon="0.9008083306">
        <ele>2475.53</ele>
        <time>2019-09-07T16:14:50Z</time>
      </trkpt>
      <trkpt lat="42.6218298543" lon="0.9009736218">
        <ele>2474.09</ele>
        <time>2019-09-07T16:15:00Z</time>
      </trkpt>
      <trkpt lat="42.6218270045" lon="0.9009860270">
        <ele>2474.09</ele>
        <time>2019-09-07T16:15:01Z</time>
      </trkpt>
      <trkpt lat="42.6218018588" lon="0.9011675790">
        <ele>2473.61</ele>
        <time>2019-09-07T16:15:13Z</time>
      </trkpt>
      <trkpt lat="42.6218016911" lon="0.9011768829">
        <ele>2473.61</ele>
        <time>2019-09-07T16:15:14Z</time>
      </trkpt>
      <trkpt lat="42.6218012720" lon="0.9012047946">
        <ele>2473.61</ele>
        <time>2019-09-07T16:15:16Z</time>
      </trkpt>
      <trkpt lat="42.6218534913" lon="0.9013162740">
        <ele>2471.69</ele>
        <time>2019-09-07T16:15:29Z</time>
      </trkpt>
      <trkpt lat="42.6218709257" lon="0.9013276733">
        <ele>2471.21</ele>
        <time>2019-09-07T16:15:32Z</time>
      </trkpt>
      <trkpt lat="42.6219118293" lon="0.9014386497">
        <ele>2468.80</ele>
        <time>2019-09-07T16:15:40Z</time>
      </trkpt>
      <trkpt lat="42.6218751166" lon="0.9015312698">
        <ele>2468.32</ele>
        <time>2019-09-07T16:15:47Z</time>
      </trkpt>
      <trkpt lat="42.6218466181" lon="0.9016139153">
        <ele>2466.88</ele>
        <time>2019-09-07T16:15:58Z</time>
      </trkpt>
      <trkpt lat="42.6218478754" lon="0.9016756900">
        <ele>2465.44</ele>
        <time>2019-09-07T16:16:04Z</time>
      </trkpt>
      <trkpt lat="42.6218429301" lon="0.9017178509">
        <ele>2465.44</ele>
        <time>2019-09-07T16:16:07Z</time>
      </trkpt>
      <trkpt lat="42.6218368113" lon="0.9017625265">
        <ele>2464.48</ele>
        <time>2019-09-07T16:16:10Z</time>
      </trkpt>
      <trkpt lat="42.6218519825" lon="0.9018311743">
        <ele>2463.52</ele>
        <time>2019-09-07T16:16:14Z</time>
      </trkpt>
      <trkpt lat="42.6218267530" lon="0.9019911848">
        <ele>2461.59</ele>
        <time>2019-09-07T16:16:26Z</time>
      </trkpt>
      <trkpt lat="42.6217858493" lon="0.9021248762">
        <ele>2459.19</ele>
        <time>2019-09-07T16:16:38Z</time>
      </trkpt>
      <trkpt lat="42.6217584405" lon="0.9021921828">
        <ele>2457.27</ele>
        <time>2019-09-07T16:16:48Z</time>
      </trkpt>
      <trkpt lat="42.6217172015" lon="0.9022397082">
        <ele>2454.86</ele>
        <time>2019-09-07T16:16:57Z</time>
      </trkpt>
      <trkpt lat="42.6217066403" lon="0.9023545403">
        <ele>2451.98</ele>
        <time>2019-09-07T16:17:09Z</time>
      </trkpt>
      <trkpt lat="42.6217434369" lon="0.9024670254">
        <ele>2449.58</ele>
        <time>2019-09-07T16:17:21Z</time>
      </trkpt>
      <trkpt lat="42.6217518188" lon="0.9025117848">
        <ele>2448.62</ele>
        <time>2019-09-07T16:17:25Z</time>
      </trkpt>
      <trkpt lat="42.6217524055" lon="0.9025904909">
        <ele>2447.65</ele>
        <time>2019-09-07T16:17:31Z</time>
      </trkpt>
      <trkpt lat="42.6217464544" lon="0.9026926663">
        <ele>2445.73</ele>
        <time>2019-09-07T16:17:42Z</time>
      </trkpt>
      <trkpt lat="42.6217593625" lon="0.9027699474">
        <ele>2443.33</ele>
        <time>2019-09-07T16:17:54Z</time>
      </trkpt>
      <trkpt lat="42.6217684988" lon="0.9028461389">
        <ele>2441.41</ele>
        <time>2019-09-07T16:18:06Z</time>
      </trkpt>
      <trkpt lat="42.6217603683" lon="0.9029215761">
        <ele>2439.48</ele>
        <time>2019-09-07T16:18:14Z</time>
      </trkpt>
      <trkpt lat="42.6217839215" lon="0.9029912297">
        <ele>2436.60</ele>
        <time>2019-09-07T16:18:24Z</time>
      </trkpt>
      <trkpt lat="42.6217880286" lon="0.9030592069">
        <ele>2434.20</ele>
        <time>2019-09-07T16:18:34Z</time>
      </trkpt>
      <trkpt lat="42.6217839215" lon="0.9031146951">
        <ele>2432.75</ele>
        <time>2019-09-07T16:18:39Z</time>
      </trkpt>
      <trkpt lat="42.6218025293" lon="0.9031717759">
        <ele>2431.31</ele>
        <time>2019-09-07T16:18:45Z</time>
      </trkpt>
      <trkpt lat="42.6217412576" lon="0.9032076504">
        <ele>2429.87</ele>
        <time>2019-09-07T16:18:52Z</time>
      </trkpt>
      <trkpt lat="42.6217511483" lon="0.9032292757">
        <ele>2429.39</ele>
        <time>2019-09-07T16:18:54Z</time>
      </trkpt>
      <trkpt lat="42.6217380725" lon="0.9032906312">
        <ele>2427.47</ele>
        <time>2019-09-07T16:19:02Z</time>
      </trkpt>
      <trkpt lat="42.6217409223" lon="0.9033643920">
        <ele>2426.50</ele>
        <time>2019-09-07T16:19:08Z</time>
      </trkpt>
      <trkpt lat="42.6217431854" lon="0.9033887833">
        <ele>2426.02</ele>
        <time>2019-09-07T16:19:10Z</time>
      </trkpt>
      <trkpt lat="42.6218020264" lon="0.9034992568">
        <ele>2423.62</ele>
        <time>2019-09-07T16:19:20Z</time>
      </trkpt>
      <trkpt lat="42.6218163595" lon="0.9035193734">
        <ele>2423.62</ele>
        <time>2019-09-07T16:19:22Z</time>
      </trkpt>
      <trkpt lat="42.6218328718" lon="0.9036477841">
        <ele>2422.66</ele>
        <time>2019-09-07T16:19:31Z</time>
      </trkpt>
      <trkpt lat="42.6218649745" lon="0.9036695771">
        <ele>2422.18</ele>
        <time>2019-09-07T16:19:35Z</time>
      </trkpt>
      <trkpt lat="42.6218905393" lon="0.9036721755">
        <ele>2421.70</ele>
        <time>2019-09-07T16:19:37Z</time>
      </trkpt>
      <trkpt lat="42.6219078060" lon="0.9036694095">
        <ele>2421.22</ele>
        <time>2019-09-07T16:19:39Z</time>
      </trkpt>
      <trkpt lat="42.6219632942" lon="0.9036879335">
        <ele>2419.78</ele>
        <time>2019-09-07T16:19:50Z</time>
      </trkpt>
      <trkpt lat="42.6220469456" lon="0.9037149232">
        <ele>2418.33</ele>
        <time>2019-09-07T16:20:00Z</time>
      </trkpt>
      <trkpt lat="42.6220603567" lon="0.9037230536">
        <ele>2417.85</ele>
        <time>2019-09-07T16:20:02Z</time>
      </trkpt>
      <trkpt lat="42.6219937205" lon="0.9038124885">
        <ele>2415.93</ele>
        <time>2019-09-07T16:20:12Z</time>
      </trkpt>
      <trkpt lat="42.6219637133" lon="0.9038820583">
        <ele>2413.05</ele>
        <time>2019-09-07T16:20:24Z</time>
      </trkpt>
      <trkpt lat="42.6219729334" lon="0.9039298352">
        <ele>2411.12</ele>
        <time>2019-09-07T16:20:34Z</time>
      </trkpt>
      <trkpt lat="42.6219893619" lon="0.9039869998">
        <ele>2409.20</ele>
        <time>2019-09-07T16:20:43Z</time>
      </trkpt>
      <trkpt lat="42.6220099814" lon="0.9040255565">
        <ele>2407.28</ele>
        <time>2019-09-07T16:20:52Z</time>
      </trkpt>
      <trkpt lat="42.6220161002" lon="0.9040627722">
        <ele>2405.84</ele>
        <time>2019-09-07T16:21:01Z</time>
      </trkpt>
      <trkpt lat="42.6220145915" lon="0.9041339345">
        <ele>2404.39</ele>
        <time>2019-09-07T16:21:09Z</time>
      </trkpt>
      <trkpt lat="42.6219900325" lon="0.9042263869">
        <ele>2401.99</ele>
        <time>2019-09-07T16:21:18Z</time>
      </trkpt>
      <trkpt lat="42.6219495479" lon="0.9042727388">
        <ele>2399.59</ele>
        <time>2019-09-07T16:21:27Z</time>
      </trkpt>
      <trkpt lat="42.6219622046" lon="0.9043374471">
        <ele>2398.63</ele>
        <time>2019-09-07T16:21:35Z</time>
      </trkpt>
      <trkpt lat="42.6219388191" lon="0.9044108726">
        <ele>2397.18</ele>
        <time>2019-09-07T16:21:45Z</time>
      </trkpt>
      <trkpt lat="42.6219575945" lon="0.9044965357">
        <ele>2396.22</ele>
        <time>2019-09-07T16:21:55Z</time>
      </trkpt>
      <trkpt lat="42.6219995040" lon="0.9045485873">
        <ele>2394.78</ele>
        <time>2019-09-07T16:22:06Z</time>
      </trkpt>
      <trkpt lat="42.6219962351" lon="0.9046090208">
        <ele>2392.86</ele>
        <time>2019-09-07T16:22:16Z</time>
      </trkpt>
      <trkpt lat="42.6219854224" lon="0.9046717174">
        <ele>2391.42</ele>
        <time>2019-09-07T16:22:25Z</time>
      </trkpt>
      <trkpt lat="42.6219635457" lon="0.9047601465">
        <ele>2389.49</ele>
        <time>2019-09-07T16:22:37Z</time>
      </trkpt>
      <trkpt lat="42.6219837461" lon="0.9048181493">
        <ele>2388.53</ele>
        <time>2019-09-07T16:22:44Z</time>
      </trkpt>
      <trkpt lat="42.6220161002" lon="0.9048776608">
        <ele>2386.61</ele>
        <time>2019-09-07T16:22:52Z</time>
      </trkpt>
      <trkpt lat="42.6220461074" lon="0.9049245995">
        <ele>2384.69</ele>
        <time>2019-09-07T16:23:01Z</time>
      </trkpt>
      <trkpt lat="42.6220417488" lon="0.9050136153">
        <ele>2382.76</ele>
        <time>2019-09-07T16:23:13Z</time>
      </trkpt>
      <trkpt lat="42.6220758632" lon="0.9050832689">
        <ele>2381.80</ele>
        <time>2019-09-07T16:23:21Z</time>
      </trkpt>
      <trkpt lat="42.6220844965" lon="0.9051473904">
        <ele>2381.80</ele>
        <time>2019-09-07T16:23:30Z</time>
      </trkpt>
      <trkpt lat="42.6220083889" lon="0.9052126855">
        <ele>2379.88</ele>
        <time>2019-09-07T16:23:40Z</time>
      </trkpt>
      <trkpt lat="42.6219963189" lon="0.9053034615">
        <ele>2377.48</ele>
        <time>2019-09-07T16:23:50Z</time>
      </trkpt>
      <trkpt lat="42.6219617855" lon="0.9053565189">
        <ele>2375.55</ele>
        <time>2019-09-07T16:24:01Z</time>
      </trkpt>
      <trkpt lat="42.6219803933" lon="0.9054150246">
        <ele>2373.63</ele>
        <time>2019-09-07T16:24:12Z</time>
      </trkpt>
      <trkpt lat="42.6220271643" lon="0.9054764640">
        <ele>2371.23</ele>
        <time>2019-09-07T16:24:22Z</time>
      </trkpt>
      <trkpt lat="42.6220697444" lon="0.9055384062">
        <ele>2369.31</ele>
        <time>2019-09-07T16:24:32Z</time>
      </trkpt>
      <trkpt lat="42.6220960636" lon="0.9055902902">
        <ele>2368.35</ele>
        <time>2019-09-07T16:24:44Z</time>
      </trkpt>
      <trkpt lat="42.6221176051" lon="0.9056828264">
        <ele>2367.86</ele>
        <time>2019-09-07T16:24:53Z</time>
      </trkpt>
      <trkpt lat="42.6221114025" lon="0.9056974109">
        <ele>2367.86</ele>
        <time>2019-09-07T16:24:55Z</time>
      </trkpt>
      <trkpt lat="42.6220642123" lon="0.9057550784">
        <ele>2365.94</ele>
        <time>2019-09-07T16:25:04Z</time>
      </trkpt>
      <trkpt lat="42.6220900286" lon="0.9058369696">
        <ele>2363.06</ele>
        <time>2019-09-07T16:25:14Z</time>
      </trkpt>
      <trkpt lat="42.6220818143" lon="0.9058994148">
        <ele>2360.65</ele>
        <time>2019-09-07T16:25:24Z</time>
      </trkpt>
      <trkpt lat="42.6220869273" lon="0.9059709124">
        <ele>2358.73</ele>
        <time>2019-09-07T16:25:33Z</time>
      </trkpt>
      <trkpt lat="42.6220786292" lon="0.9060023446">
        <ele>2356.33</ele>
        <time>2019-09-07T16:25:44Z</time>
      </trkpt>
      <trkpt lat="42.6221008413" lon="0.9060658794">
        <ele>2354.89</ele>
        <time>2019-09-07T16:25:53Z</time>
      </trkpt>
      <trkpt lat="42.6221146714" lon="0.9061586671">
        <ele>2353.44</ele>
        <time>2019-09-07T16:26:04Z</time>
      </trkpt>
      <trkpt lat="42.6221253164" lon="0.9062378760">
        <ele>2352.48</ele>
        <time>2019-09-07T16:26:08Z</time>
      </trkpt>
      <trkpt lat="42.6221423317" lon="0.9063336812">
        <ele>2350.08</ele>
        <time>2019-09-07T16:26:21Z</time>
      </trkpt>
      <trkpt lat="42.6221643761" lon="0.9064091183">
        <ele>2348.16</ele>
        <time>2019-09-07T16:26:32Z</time>
      </trkpt>
      <trkpt lat="42.6221713331" lon="0.9064882435">
        <ele>2346.23</ele>
        <time>2019-09-07T16:26:42Z</time>
      </trkpt>
      <trkpt lat="42.6221377216" lon="0.9065330867">
        <ele>2344.31</ele>
        <time>2019-09-07T16:26:53Z</time>
      </trkpt>
      <trkpt lat="42.6220885199" lon="0.9065340087">
        <ele>2342.87</ele>
        <time>2019-09-07T16:27:04Z</time>
      </trkpt>
      <trkpt lat="42.6220383961" lon="0.9065482579">
        <ele>2340.95</ele>
        <time>2019-09-07T16:27:14Z</time>
      </trkpt>
      <trkpt lat="42.6219850872" lon="0.9065528680">
        <ele>2338.06</ele>
        <time>2019-09-07T16:27:24Z</time>
      </trkpt>
      <trkpt lat="42.6219534874" lon="0.9065479226">
        <ele>2335.66</ele>
        <time>2019-09-07T16:27:36Z</time>
      </trkpt>
      <trkpt lat="42.6218901202" lon="0.9065707214">
        <ele>2333.26</ele>
        <time>2019-09-07T16:27:47Z</time>
      </trkpt>
      <trkpt lat="42.6218087319" lon="0.9065763373">
        <ele>2329.89</ele>
        <time>2019-09-07T16:27:57Z</time>
      </trkpt>
      <trkpt lat="42.6217959076" lon="0.9066470806">
        <ele>2327.01</ele>
        <time>2019-09-07T16:28:07Z</time>
      </trkpt>
      <trkpt lat="42.6217903756" lon="0.9067038260">
        <ele>2323.64</ele>
        <time>2019-09-07T16:28:15Z</time>
      </trkpt>
      <trkpt lat="42.6217275951" lon="0.9067014791">
        <ele>2321.72</ele>
        <time>2019-09-07T16:28:25Z</time>
      </trkpt>
      <trkpt lat="42.6216506492" lon="0.9067030717">
        <ele>2318.84</ele>
        <time>2019-09-07T16:28:37Z</time>
      </trkpt>
      <trkpt lat="42.6216472965" lon="0.9067297261">
        <ele>2317.88</ele>
        <time>2019-09-07T16:28:41Z</time>
      </trkpt>
      <trkpt lat="42.6216436923" lon="0.9068100248">
        <ele>2315.47</ele>
        <time>2019-09-07T16:28:51Z</time>
      </trkpt>
      <trkpt lat="42.6216676645" lon="0.9069295507">
        <ele>2312.59</ele>
        <time>2019-09-07T16:29:00Z</time>
      </trkpt>
      <trkpt lat="42.6216897927" lon="0.9069977794">
        <ele>2309.70</ele>
        <time>2019-09-07T16:29:09Z</time>
      </trkpt>
      <trkpt lat="42.6217239909" lon="0.9070918243">
        <ele>2307.78</ele>
        <time>2019-09-07T16:29:20Z</time>
      </trkpt>
      <trkpt lat="42.6217270084" lon="0.9071042296">
        <ele>2307.30</ele>
        <time>2019-09-07T16:29:21Z</time>
      </trkpt>
      <trkpt lat="42.6217744499" lon="0.9072100930">
        <ele>2305.38</ele>
        <time>2019-09-07T16:29:33Z</time>
      </trkpt>
      <trkpt lat="42.6217659004" lon="0.9072832670">
        <ele>2303.46</ele>
        <time>2019-09-07T16:29:41Z</time>
      </trkpt>
      <trkpt lat="42.6217964105" lon="0.9073583689">
        <ele>2301.53</ele>
        <time>2019-09-07T16:29:48Z</time>
      </trkpt>
      <trkpt lat="42.6218465343" lon="0.9074813314">
        <ele>2299.13</ele>
        <time>2019-09-07T16:29:58Z</time>
      </trkpt>
      <trkpt lat="42.6218598615" lon="0.9075494763">
        <ele>2297.69</ele>
        <time>2019-09-07T16:30:04Z</time>
      </trkpt>
      <trkpt lat="42.6217771322" lon="0.9075584449">
        <ele>2296.25</ele>
        <time>2019-09-07T16:30:11Z</time>
      </trkpt>
      <trkpt lat="42.6216998510" lon="0.9075617138">
        <ele>2293.36</ele>
        <time>2019-09-07T16:30:22Z</time>
      </trkpt>
      <trkpt lat="42.6216404233" lon="0.9075442795">
        <ele>2290.00</ele>
        <time>2019-09-07T16:30:33Z</time>
      </trkpt>
      <trkpt lat="42.6216147747" lon="0.9075764660">
        <ele>2288.08</ele>
        <time>2019-09-07T16:30:44Z</time>
      </trkpt>
      <trkpt lat="42.6216266770" lon="0.9076683316">
        <ele>2285.67</ele>
        <time>2019-09-07T16:30:55Z</time>
      </trkpt>
      <trkpt lat="42.6216027047" lon="0.9077414218">
        <ele>2283.27</ele>
        <time>2019-09-07T16:31:03Z</time>
      </trkpt>
      <trkpt lat="42.6215828396" lon="0.9077705070">
        <ele>2282.31</ele>
        <time>2019-09-07T16:31:07Z</time>
      </trkpt>
      <trkpt lat="42.6215480547" lon="0.9078123327">
        <ele>2280.87</ele>
        <time>2019-09-07T16:31:13Z</time>
      </trkpt>
      <trkpt lat="42.6215590350" lon="0.9078575112">
        <ele>2279.42</ele>
        <time>2019-09-07T16:31:17Z</time>
      </trkpt>
      <trkpt lat="42.6215222385" lon="0.9079151787">
        <ele>2277.02</ele>
        <time>2019-09-07T16:31:26Z</time>
      </trkpt>
      <trkpt lat="42.6214877889" lon="0.9079701640">
        <ele>2275.10</ele>
        <time>2019-09-07T16:31:38Z</time>
      </trkpt>
      <trkpt lat="42.6215033792" lon="0.9080013447">
        <ele>2274.62</ele>
        <time>2019-09-07T16:31:41Z</time>
      </trkpt>
      <trkpt lat="42.6215285249" lon="0.9081736766">
        <ele>2272.21</ele>
        <time>2019-09-07T16:31:53Z</time>
      </trkpt>
      <trkpt lat="42.6215312071" lon="0.9081917815">
        <ele>2272.21</ele>
        <time>2019-09-07T16:31:54Z</time>
      </trkpt>
      <trkpt lat="42.6215192210" lon="0.9082980640">
        <ele>2271.25</ele>
        <time>2019-09-07T16:32:01Z</time>
      </trkpt>
      <trkpt lat="42.6215612981" lon="0.9083703998">
        <ele>2270.77</ele>
        <time>2019-09-07T16:32:06Z</time>
      </trkpt>
      <trkpt lat="42.6215669978" lon="0.9084890876">
        <ele>2269.33</ele>
        <time>2019-09-07T16:32:16Z</time>
      </trkpt>
      <trkpt lat="42.6215180475" lon="0.9085398819">
        <ele>2268.37</ele>
        <time>2019-09-07T16:32:26Z</time>
      </trkpt>
      <trkpt lat="42.6214797422" lon="0.9086193424">
        <ele>2266.93</ele>
        <time>2019-09-07T16:32:36Z</time>
      </trkpt>
      <trkpt lat="42.6214274392" lon="0.9086643532">
        <ele>2265.96</ele>
        <time>2019-09-07T16:32:44Z</time>
      </trkpt>
      <trkpt lat="42.6214151178" lon="0.9087687917">
        <ele>2265.00</ele>
        <time>2019-09-07T16:32:51Z</time>
      </trkpt>
      <trkpt lat="42.6214182191" lon="0.9088315722">
        <ele>2264.52</ele>
        <time>2019-09-07T16:32:56Z</time>
      </trkpt>
      <trkpt lat="42.6214178838" lon="0.9088670276">
        <ele>2264.04</ele>
        <time>2019-09-07T16:32:59Z</time>
      </trkpt>
      <trkpt lat="42.6214163750" lon="0.9089298081">
        <ele>2261.64</ele>
        <time>2019-09-07T16:33:04Z</time>
      </trkpt>
      <trkpt lat="42.6214234158" lon="0.9090153873">
        <ele>2260.20</ele>
        <time>2019-09-07T16:33:13Z</time>
      </trkpt>
      <trkpt lat="42.6214318816" lon="0.9090544470">
        <ele>2259.72</ele>
        <time>2019-09-07T16:33:16Z</time>
      </trkpt>
      <trkpt lat="42.6214120165" lon="0.9091254417">
        <ele>2258.75</ele>
        <time>2019-09-07T16:33:20Z</time>
      </trkpt>
      <trkpt lat="42.6213570312" lon="0.9092502482">
        <ele>2256.83</ele>
        <time>2019-09-07T16:33:30Z</time>
      </trkpt>
      <trkpt lat="42.6213336457" lon="0.9094201494">
        <ele>2255.39</ele>
        <time>2019-09-07T16:33:42Z</time>
      </trkpt>
      <trkpt lat="42.6213360764" lon="0.9095109254">
        <ele>2252.51</ele>
        <time>2019-09-07T16:33:54Z</time>
      </trkpt>
      <trkpt lat="42.6213236712" lon="0.9095919784">
        <ele>2250.58</ele>
        <time>2019-09-07T16:34:05Z</time>
      </trkpt>
      <trkpt lat="42.6212907303" lon="0.9096374083">
        <ele>2249.62</ele>
        <time>2019-09-07T16:34:14Z</time>
      </trkpt>
      <trkpt lat="42.6212660037" lon="0.9096534178">
        <ele>2247.22</ele>
        <time>2019-09-07T16:34:25Z</time>
      </trkpt>
      <trkpt lat="42.6212779060" lon="0.9097161982">
        <ele>2245.30</ele>
        <time>2019-09-07T16:34:40Z</time>
      </trkpt>
      <trkpt lat="42.6212965976" lon="0.9097858518">
        <ele>2244.33</ele>
        <time>2019-09-07T16:34:52Z</time>
      </trkpt>
      <trkpt lat="42.6213025488" lon="0.9098883625">
        <ele>2243.37</ele>
        <time>2019-09-07T16:35:02Z</time>
      </trkpt>
      <trkpt lat="42.6212943345" lon="0.9099799767">
        <ele>2242.41</ele>
        <time>2019-09-07T16:35:13Z</time>
      </trkpt>
      <trkpt lat="42.6212903950" lon="0.9100363031">
        <ele>2240.97</ele>
        <time>2019-09-07T16:35:23Z</time>
      </trkpt>
      <trkpt lat="42.6213022135" lon="0.9101427533">
        <ele>2239.53</ele>
        <time>2019-09-07T16:35:35Z</time>
      </trkpt>
      <trkpt lat="42.6213065721" lon="0.9102590103">
        <ele>2237.61</ele>
        <time>2019-09-07T16:35:45Z</time>
      </trkpt>
      <trkpt lat="42.6213234197" lon="0.9103546478">
        <ele>2235.68</ele>
        <time>2019-09-07T16:35:54Z</time>
      </trkpt>
      <trkpt lat="42.6213659160" lon="0.9104218706">
        <ele>2235.20</ele>
        <time>2019-09-07T16:36:07Z</time>
      </trkpt>
      <trkpt lat="42.6213784050" lon="0.9105144907">
        <ele>2234.24</ele>
        <time>2019-09-07T16:36:15Z</time>
      </trkpt>
      <trkpt lat="42.6213849429" lon="0.9105494432">
        <ele>2233.76</ele>
        <time>2019-09-07T16:36:19Z</time>
      </trkpt>
      <trkpt lat="42.6213893015" lon="0.9106719028">
        <ele>2232.80</ele>
        <time>2019-09-07T16:36:30Z</time>
      </trkpt>
      <trkpt lat="42.6213741302" lon="0.9106895886">
        <ele>2232.32</ele>
        <time>2019-09-07T16:36:33Z</time>
      </trkpt>
      <trkpt lat="42.6213953365" lon="0.9108575620">
        <ele>2231.84</ele>
        <time>2019-09-07T16:36:46Z</time>
      </trkpt>
      <trkpt lat="42.6213915646" lon="0.9109012317">
        <ele>2231.84</ele>
        <time>2019-09-07T16:36:53Z</time>
      </trkpt>
      <trkpt lat="42.6213785727" lon="0.9109376930">
        <ele>2231.36</ele>
        <time>2019-09-07T16:36:56Z</time>
      </trkpt>
      <trkpt lat="42.6213603001" lon="0.9109702986">
        <ele>2231.36</ele>
        <time>2019-09-07T16:36:58Z</time>
      </trkpt>
      <trkpt lat="42.6213475596" lon="0.9110438917">
        <ele>2230.88</ele>
        <time>2019-09-07T16:37:04Z</time>
      </trkpt>
      <trkpt lat="42.6213621441" lon="0.9111890662">
        <ele>2230.40</ele>
        <time>2019-09-07T16:37:18Z</time>
      </trkpt>
      <trkpt lat="42.6213922352" lon="0.9112664312">
        <ele>2229.92</ele>
        <time>2019-09-07T16:37:27Z</time>
      </trkpt>
      <trkpt lat="42.6213833503" lon="0.9113540221">
        <ele>2229.43</ele>
        <time>2019-09-07T16:37:36Z</time>
      </trkpt>
      <trkpt lat="42.6213722024" lon="0.9114792477">
        <ele>2229.92</ele>
        <time>2019-09-07T16:37:47Z</time>
      </trkpt>
      <trkpt lat="42.6213624794" lon="0.9115017112">
        <ele>2229.92</ele>
        <time>2019-09-07T16:37:49Z</time>
      </trkpt>
      <trkpt lat="42.6213536784" lon="0.9116365761">
        <ele>2229.43</ele>
        <time>2019-09-07T16:38:01Z</time>
      </trkpt>
      <trkpt lat="42.6213575341" lon="0.9117390029">
        <ele>2229.92</ele>
        <time>2019-09-07T16:38:13Z</time>
      </trkpt>
      <trkpt lat="42.6213275269" lon="0.9118483867">
        <ele>2228.95</ele>
        <time>2019-09-07T16:38:21Z</time>
      </trkpt>
      <trkpt lat="42.6213234197" lon="0.9120161086">
        <ele>2227.99</ele>
        <time>2019-09-07T16:38:34Z</time>
      </trkpt>
      <trkpt lat="42.6213306282" lon="0.9120689984">
        <ele>2227.51</ele>
        <time>2019-09-07T16:38:45Z</time>
      </trkpt>
      <trkpt lat="42.6213285327" lon="0.9121378977">
        <ele>2227.51</ele>
        <time>2019-09-07T16:38:56Z</time>
      </trkpt>
      <trkpt lat="42.6213265210" lon="0.9121708386">
        <ele>2227.51</ele>
        <time>2019-09-07T16:38:59Z</time>
      </trkpt>
      <trkpt lat="42.6212942507" lon="0.9122377262">
        <ele>2227.51</ele>
        <time>2019-09-07T16:39:04Z</time>
      </trkpt>
      <trkpt lat="42.6213157084" lon="0.9123393148">
        <ele>2227.03</ele>
        <time>2019-09-07T16:39:14Z</time>
      </trkpt>
      <trkpt lat="42.6213420276" lon="0.9123966470">
        <ele>2227.03</ele>
        <time>2019-09-07T16:39:19Z</time>
      </trkpt>
      <trkpt lat="42.6213386748" lon="0.9124937933">
        <ele>2227.03</ele>
        <time>2019-09-07T16:39:26Z</time>
      </trkpt>
      <trkpt lat="42.6213887986" lon="0.9126050211">
        <ele>2227.51</ele>
        <time>2019-09-07T16:39:39Z</time>
      </trkpt>
      <trkpt lat="42.6213927381" lon="0.9126123972">
        <ele>2227.51</ele>
        <time>2019-09-07T16:39:40Z</time>
      </trkpt>
      <trkpt lat="42.6213767286" lon="0.9126834758">
        <ele>2227.03</ele>
        <time>2019-09-07T16:39:50Z</time>
      </trkpt>
      <trkpt lat="42.6214115974" lon="0.9127695579">
        <ele>2227.03</ele>
        <time>2019-09-07T16:39:59Z</time>
      </trkpt>
      <trkpt lat="42.6214123517" lon="0.9129413031">
        <ele>2227.03</ele>
        <time>2019-09-07T16:40:12Z</time>
      </trkpt>
      <trkpt lat="42.6214784011" lon="0.9130205121">
        <ele>2226.55</ele>
        <time>2019-09-07T16:40:22Z</time>
      </trkpt>
      <trkpt lat="42.6215050556" lon="0.9130685404">
        <ele>2226.55</ele>
        <time>2019-09-07T16:40:31Z</time>
      </trkpt>
      <trkpt lat="42.6215315424" lon="0.9131410439">
        <ele>2227.99</ele>
        <time>2019-09-07T16:40:42Z</time>
      </trkpt>
      <trkpt lat="42.6215266809" lon="0.9131570533">
        <ele>2227.03</ele>
        <time>2019-09-07T16:40:52Z</time>
      </trkpt>
      <trkpt lat="42.6215688419" lon="0.9132076800">
        <ele>2226.55</ele>
        <time>2019-09-07T16:40:59Z</time>
      </trkpt>
      <trkpt lat="42.6215685904" lon="0.9132844582">
        <ele>2226.55</ele>
        <time>2019-09-07T16:41:04Z</time>
      </trkpt>
      <trkpt lat="42.6216020342" lon="0.9134394396">
        <ele>2225.59</ele>
        <time>2019-09-07T16:41:14Z</time>
      </trkpt>
      <trkpt lat="42.6216409262" lon="0.9135788307">
        <ele>2225.59</ele>
        <time>2019-09-07T16:41:25Z</time>
      </trkpt>
      <trkpt lat="42.6216648147" lon="0.9136271104">
        <ele>2225.11</ele>
        <time>2019-09-07T16:41:33Z</time>
      </trkpt>
      <trkpt lat="42.6216908824" lon="0.9136856999">
        <ele>2224.63</ele>
        <time>2019-09-07T16:41:41Z</time>
      </trkpt>
      <trkpt lat="42.6217111666" lon="0.9137851931">
        <ele>2224.15</ele>
        <time>2019-09-07T16:41:52Z</time>
      </trkpt>
      <trkpt lat="42.6217163634" lon="0.9138485603">
        <ele>2223.19</ele>
        <time>2019-09-07T16:42:03Z</time>
      </trkpt>
      <trkpt lat="42.6217285171" lon="0.9139017854">
        <ele>2223.19</ele>
        <time>2019-09-07T16:42:14Z</time>
      </trkpt>
      <trkpt lat="42.6217743661" lon="0.9139723610">
        <ele>2222.71</ele>
        <time>2019-09-07T16:42:25Z</time>
      </trkpt>
      <trkpt lat="42.6217849273" lon="0.9140300285">
        <ele>2221.26</ele>
        <time>2019-09-07T16:42:35Z</time>
      </trkpt>
      <trkpt lat="42.6218037866" lon="0.9141152725">
        <ele>2219.82</ele>
        <time>2019-09-07T16:42:45Z</time>
      </trkpt>
      <trkpt lat="42.6217783056" lon="0.9141164459">
        <ele>2219.82</ele>
        <time>2019-09-07T16:42:54Z</time>
      </trkpt>
      <trkpt lat="42.6217456162" lon="0.9141467046">
        <ele>2218.86</ele>
        <time>2019-09-07T16:43:04Z</time>
      </trkpt>
      <trkpt lat="42.6217424311" lon="0.9142262489">
        <ele>2217.90</ele>
        <time>2019-09-07T16:43:15Z</time>
      </trkpt>
      <trkpt lat="42.6217998471" lon="0.9142864309">
        <ele>2217.42</ele>
        <time>2019-09-07T16:43:28Z</time>
      </trkpt>
      <trkpt lat="42.6218393259" lon="0.9143761173">
        <ele>2216.94</ele>
        <time>2019-09-07T16:43:39Z</time>
      </trkpt>
      <trkpt lat="42.6218534913" lon="0.9144784603">
        <ele>2214.53</ele>
        <time>2019-09-07T16:43:51Z</time>
      </trkpt>
      <trkpt lat="42.6218437683" lon="0.9145227168">
        <ele>2213.57</ele>
        <time>2019-09-07T16:43:55Z</time>
      </trkpt>
      <trkpt lat="42.6218710933" lon="0.9146034345">
        <ele>2212.13</ele>
        <time>2019-09-07T16:44:02Z</time>
      </trkpt>
      <trkpt lat="42.6219028607" lon="0.9146319330">
        <ele>2211.65</ele>
        <time>2019-09-07T16:44:06Z</time>
      </trkpt>
      <trkpt lat="42.6219124999" lon="0.9146466851">
        <ele>2211.65</ele>
        <time>2019-09-07T16:44:07Z</time>
      </trkpt>
      <trkpt lat="42.6219294313" lon="0.9146701545">
        <ele>2211.17</ele>
        <time>2019-09-07T16:44:09Z</time>
      </trkpt>
      <trkpt lat="42.6219401602" lon="0.9146863315">
        <ele>2211.17</ele>
        <time>2019-09-07T16:44:10Z</time>
      </trkpt>
      <trkpt lat="42.6219456084" lon="0.9146965574">
        <ele>2211.17</ele>
        <time>2019-09-07T16:44:11Z</time>
      </trkpt>
      <trkpt lat="42.6219570078" lon="0.9147740062">
        <ele>2211.17</ele>
        <time>2019-09-07T16:44:18Z</time>
      </trkpt>
      <trkpt lat="42.6219839975" lon="0.9148916043">
        <ele>2210.69</ele>
        <time>2019-09-07T16:44:30Z</time>
      </trkpt>
      <trkpt lat="42.6220085565" lon="0.9149207734">
        <ele>2210.69</ele>
        <time>2019-09-07T16:44:39Z</time>
      </trkpt>
      <trkpt lat="42.6220500469" lon="0.9149914328">
        <ele>2209.73</ele>
        <time>2019-09-07T16:44:47Z</time>
      </trkpt>
      <trkpt lat="42.6220694929" lon="0.9150024131">
        <ele>2209.25</ele>
        <time>2019-09-07T16:44:50Z</time>
      </trkpt>
      <trkpt lat="42.6221497077" lon="0.9150288999">
        <ele>2209.73</ele>
        <time>2019-09-07T16:45:01Z</time>
      </trkpt>
      <trkpt lat="42.6221736800" lon="0.9150634333">
        <ele>2209.73</ele>
        <time>2019-09-07T16:45:05Z</time>
      </trkpt>
      <trkpt lat="42.6221963950" lon="0.9151371103">
        <ele>2208.77</ele>
        <time>2019-09-07T16:45:10Z</time>
      </trkpt>
      <trkpt lat="42.6222352870" lon="0.9152138885">
        <ele>2208.29</ele>
        <time>2019-09-07T16:45:16Z</time>
      </trkpt>
      <trkpt lat="42.6222833991" lon="0.9153241944">
        <ele>2207.81</ele>
        <time>2019-09-07T16:45:25Z</time>
      </trkpt>
      <trkpt lat="42.6223838143" lon="0.9154224303">
        <ele>2206.84</ele>
        <time>2019-09-07T16:45:36Z</time>
      </trkpt>
      <trkpt lat="42.6224849001" lon="0.9154941794">
        <ele>2206.36</ele>
        <time>2019-09-07T16:45:46Z</time>
      </trkpt>
      <trkpt lat="42.6225445792" lon="0.9155318141">
        <ele>2206.36</ele>
        <time>2019-09-07T16:45:55Z</time>
      </trkpt>
      <trkpt lat="42.6225536317" lon="0.9155720472">
        <ele>2206.36</ele>
        <time>2019-09-07T16:45:59Z</time>
      </trkpt>
      <trkpt lat="42.6225812919" lon="0.9156131186">
        <ele>2205.88</ele>
        <time>2019-09-07T16:46:03Z</time>
      </trkpt>
      <trkpt lat="42.6225888357" lon="0.9156472329">
        <ele>2205.40</ele>
        <time>2019-09-07T16:46:06Z</time>
      </trkpt>
      <trkpt lat="42.6226377860" lon="0.9157150425">
        <ele>2205.40</ele>
        <time>2019-09-07T16:46:14Z</time>
      </trkpt>
      <trkpt lat="42.6226464193" lon="0.9157280345">
        <ele>2205.40</ele>
        <time>2019-09-07T16:46:15Z</time>
      </trkpt>
      <trkpt lat="42.6226667874" lon="0.9157698601">
        <ele>2205.40</ele>
        <time>2019-09-07T16:46:18Z</time>
      </trkpt>
      <trkpt lat="42.6226817910" lon="0.9159755521">
        <ele>2204.44</ele>
        <time>2019-09-07T16:46:31Z</time>
      </trkpt>
      <trkpt lat="42.6226684637" lon="0.9161427710">
        <ele>2204.92</ele>
        <time>2019-09-07T16:46:43Z</time>
      </trkpt>
      <trkpt lat="42.6226643566" lon="0.9162213095">
        <ele>2205.40</ele>
        <time>2019-09-07T16:46:50Z</time>
      </trkpt>
      <trkpt lat="42.6226607524" lon="0.9163196292">
        <ele>2204.44</ele>
        <time>2019-09-07T16:47:00Z</time>
      </trkpt>
      <trkpt lat="42.6226631831" lon="0.9163329564">
        <ele>2204.44</ele>
        <time>2019-09-07T16:47:01Z</time>
      </trkpt>
      <trkpt lat="42.6227045059" lon="0.9164614510">
        <ele>2202.52</ele>
        <time>2019-09-07T16:47:11Z</time>
      </trkpt>
      <trkpt lat="42.6227061823" lon="0.9164747782">
        <ele>2202.52</ele>
        <time>2019-09-07T16:47:12Z</time>
      </trkpt>
      <trkpt lat="42.6227089483" lon="0.9164889436">
        <ele>2202.04</ele>
        <time>2019-09-07T16:47:13Z</time>
      </trkpt>
      <trkpt lat="42.6227086131" lon="0.9166441765">
        <ele>2201.56</ele>
        <time>2019-09-07T16:47:24Z</time>
      </trkpt>
      <trkpt lat="42.6227097865" lon="0.9166589286">
        <ele>2201.08</ele>
        <time>2019-09-07T16:47:25Z</time>
      </trkpt>
      <trkpt lat="42.6227098703" lon="0.9167059511">
        <ele>2200.59</ele>
        <time>2019-09-07T16:47:28Z</time>
      </trkpt>
      <trkpt lat="42.6227142289" lon="0.9167227149">
        <ele>2200.59</ele>
        <time>2019-09-07T16:47:29Z</time>
      </trkpt>
      <trkpt lat="42.6227187552" lon="0.9167379700">
        <ele>2200.59</ele>
        <time>2019-09-07T16:47:30Z</time>
      </trkpt>
      <trkpt lat="42.6227236167" lon="0.9167528059">
        <ele>2200.59</ele>
        <time>2019-09-07T16:47:31Z</time>
      </trkpt>
      <trkpt lat="42.6227273047" lon="0.9167688154">
        <ele>2200.59</ele>
        <time>2019-09-07T16:47:32Z</time>
      </trkpt>
      <trkpt lat="42.6227317471" lon="0.9167860821">
        <ele>2200.59</ele>
        <time>2019-09-07T16:47:33Z</time>
      </trkpt>
      <trkpt lat="42.6227362733" lon="0.9168028459">
        <ele>2200.59</ele>
        <time>2019-09-07T16:47:34Z</time>
      </trkpt>
      <trkpt lat="42.6227417216" lon="0.9168186039">
        <ele>2200.59</ele>
        <time>2019-09-07T16:47:35Z</time>
      </trkpt>
      <trkpt lat="42.6227493491" lon="0.9168355353">
        <ele>2200.59</ele>
        <time>2019-09-07T16:47:36Z</time>
      </trkpt>
      <trkpt lat="42.6228494290" lon="0.9169280715">
        <ele>2200.11</ele>
        <time>2019-09-07T16:47:47Z</time>
      </trkpt>
      <trkpt lat="42.6228966191" lon="0.9169331845">
        <ele>2199.63</ele>
        <time>2019-09-07T16:47:52Z</time>
      </trkpt>
      <trkpt lat="42.6230120379" lon="0.9169037640">
        <ele>2197.71</ele>
        <time>2019-09-07T16:48:03Z</time>
      </trkpt>
      <trkpt lat="42.6230984554" lon="0.9168498684">
        <ele>2195.79</ele>
        <time>2019-09-07T16:48:14Z</time>
      </trkpt>
      <trkpt lat="42.6231638342" lon="0.9168817196">
        <ele>2195.79</ele>
        <time>2019-09-07T16:48:22Z</time>
      </trkpt>
      <trkpt lat="42.6232675184" lon="0.9168748464">
        <ele>2194.83</ele>
        <time>2019-09-07T16:48:35Z</time>
      </trkpt>
      <trkpt lat="42.6232916582" lon="0.9168896824">
        <ele>2194.83</ele>
        <time>2019-09-07T16:48:44Z</time>
      </trkpt>
      <trkpt lat="42.6233473979" lon="0.9169369563">
        <ele>2194.83</ele>
        <time>2019-09-07T16:48:54Z</time>
      </trkpt>
      <trkpt lat="42.6233638264" lon="0.9169491939">
        <ele>2194.83</ele>
        <time>2019-09-07T16:48:56Z</time>
      </trkpt>
      <trkpt lat="42.6233844459" lon="0.9169789497">
        <ele>2194.83</ele>
        <time>2019-09-07T16:48:59Z</time>
      </trkpt>
      <trkpt lat="42.6234445442" lon="0.9170438256">
        <ele>2194.83</ele>
        <time>2019-09-07T16:49:10Z</time>
      </trkpt>
      <trkpt lat="42.6235111803" lon="0.9170701448">
        <ele>2194.83</ele>
        <time>2019-09-07T16:49:21Z</time>
      </trkpt>
      <trkpt lat="42.6235235855" lon="0.9170844778">
        <ele>2193.87</ele>
        <time>2019-09-07T16:49:33Z</time>
      </trkpt>
      <trkpt lat="42.6235648245" lon="0.9171075281">
        <ele>2193.39</ele>
        <time>2019-09-07T16:49:46Z</time>
      </trkpt>
      <trkpt lat="42.6235820074" lon="0.9171199333">
        <ele>2193.39</ele>
        <time>2019-09-07T16:49:59Z</time>
      </trkpt>
      <trkpt lat="42.6236166246" lon="0.9171470907">
        <ele>2192.42</ele>
        <time>2019-09-07T16:50:11Z</time>
      </trkpt>
      <trkpt lat="42.6236441173" lon="0.9171825461">
        <ele>2191.46</ele>
        <time>2019-09-07T16:50:25Z</time>
      </trkpt>
      <trkpt lat="42.6236963365" lon="0.9172045067">
        <ele>2190.50</ele>
        <time>2019-09-07T16:50:37Z</time>
      </trkpt>
      <trkpt lat="42.6237601228" lon="0.9172134753">
        <ele>2190.98</ele>
        <time>2019-09-07T16:50:50Z</time>
      </trkpt>
      <trkpt lat="42.6237782277" lon="0.9172232822">
        <ele>2190.50</ele>
        <time>2019-09-07T16:51:05Z</time>
      </trkpt>
      <trkpt lat="42.6237931475" lon="0.9172561392">
        <ele>2190.02</ele>
        <time>2019-09-07T16:51:14Z</time>
      </trkpt>
      <trkpt lat="42.6238151081" lon="0.9172880743">
        <ele>2188.58</ele>
        <time>2019-09-07T16:51:34Z</time>
      </trkpt>
      <trkpt lat="42.6238155272" lon="0.9173276369">
        <ele>2186.66</ele>
        <time>2019-09-07T16:51:46Z</time>
      </trkpt>
      <trkpt lat="42.6238488033" lon="0.9173359349">
        <ele>2185.69</ele>
        <time>2019-09-07T16:51:56Z</time>
      </trkpt>
      <trkpt lat="42.6238778047" lon="0.9173866455">
        <ele>2183.77</ele>
        <time>2019-09-07T16:52:07Z</time>
      </trkpt>
      <trkpt lat="42.6239053812" lon="0.9174092766">
        <ele>2183.29</ele>
        <time>2019-09-07T16:52:17Z</time>
      </trkpt>
      <trkpt lat="42.6239082310" lon="0.9174317401">
        <ele>2181.85</ele>
        <time>2019-09-07T16:52:30Z</time>
      </trkpt>
      <trkpt lat="42.6239422616" lon="0.9174687043">
        <ele>2181.37</ele>
        <time>2019-09-07T16:52:39Z</time>
      </trkpt>
      <trkpt lat="42.6239964925" lon="0.9174920898">
        <ele>2180.89</ele>
        <time>2019-09-07T16:52:48Z</time>
      </trkpt>
      <trkpt lat="42.6240585186" lon="0.9175718017">
        <ele>2181.37</ele>
        <time>2019-09-07T16:52:58Z</time>
      </trkpt>
      <trkpt lat="42.6240962371" lon="0.9176191594">
        <ele>2180.89</ele>
        <time>2019-09-07T16:53:03Z</time>
      </trkpt>
      <trkpt lat="42.6241058763" lon="0.9176304750">
        <ele>2180.89</ele>
        <time>2019-09-07T16:53:04Z</time>
      </trkpt>
      <trkpt lat="42.6241157670" lon="0.9176399466">
        <ele>2180.41</ele>
        <time>2019-09-07T16:53:05Z</time>
      </trkpt>
      <trkpt lat="42.6241835766" lon="0.9176985361">
        <ele>2180.41</ele>
        <time>2019-09-07T16:53:16Z</time>
      </trkpt>
      <trkpt lat="42.6242416631" lon="0.9177498333">
        <ele>2178.00</ele>
        <time>2019-09-07T16:53:26Z</time>
      </trkpt>
      <trkpt lat="42.6242755260" lon="0.9177804273">
        <ele>2177.04</ele>
        <time>2019-09-07T16:53:36Z</time>
      </trkpt>
      <trkpt lat="42.6243053656" lon="0.9178137034">
        <ele>2176.56</ele>
        <time>2019-09-07T16:53:48Z</time>
      </trkpt>
      <trkpt lat="42.6243455987" lon="0.9179067425">
        <ele>2175.60</ele>
        <time>2019-09-07T16:54:01Z</time>
      </trkpt>
      <trkpt lat="42.6244217902" lon="0.9179256018">
        <ele>2174.64</ele>
        <time>2019-09-07T16:54:12Z</time>
      </trkpt>
      <trkpt lat="42.6244558208" lon="0.9179162979">
        <ele>2174.64</ele>
        <time>2019-09-07T16:54:18Z</time>
      </trkpt>
      <trkpt lat="42.6244770270" lon="0.9179116040">
        <ele>2174.64</ele>
        <time>2019-09-07T16:54:21Z</time>
      </trkpt>
      <trkpt lat="42.6244818885" lon="0.9179460537">
        <ele>2174.64</ele>
        <time>2019-09-07T16:54:23Z</time>
      </trkpt>
      <trkpt lat="42.6245339401" lon="0.9180272743">
        <ele>2173.68</ele>
        <time>2019-09-07T16:54:32Z</time>
      </trkpt>
      <trkpt lat="42.6245709043" lon="0.9180411883">
        <ele>2173.20</ele>
        <time>2019-09-07T16:54:41Z</time>
      </trkpt>
      <trkpt lat="42.6245979778" lon="0.9180650767">
        <ele>2173.20</ele>
        <time>2019-09-07T16:54:48Z</time>
      </trkpt>
      <trkpt lat="42.6246379595" lon="0.9180724528">
        <ele>2172.72</ele>
        <time>2019-09-07T16:54:57Z</time>
      </trkpt>
      <trkpt lat="42.6247068588" lon="0.9180604666">
        <ele>2172.24</ele>
        <time>2019-09-07T16:55:09Z</time>
      </trkpt>
      <trkpt lat="42.6247254666" lon="0.9181041364">
        <ele>2170.79</ele>
        <time>2019-09-07T16:55:21Z</time>
      </trkpt>
      <trkpt lat="42.6247677952" lon="0.9181301203">
        <ele>2169.83</ele>
        <time>2019-09-07T16:55:33Z</time>
      </trkpt>
      <trkpt lat="42.6248159073" lon="0.9181556851">
        <ele>2169.35</ele>
        <time>2019-09-07T16:55:45Z</time>
      </trkpt>
      <trkpt lat="42.6248418912" lon="0.9181900509">
        <ele>2167.91</ele>
        <time>2019-09-07T16:55:57Z</time>
      </trkpt>
      <trkpt lat="42.6248881593" lon="0.9182148613">
        <ele>2167.43</ele>
        <time>2019-09-07T16:56:09Z</time>
      </trkpt>
      <trkpt lat="42.6249285601" lon="0.9182318766">
        <ele>2167.43</ele>
        <time>2019-09-07T16:56:18Z</time>
      </trkpt>
      <trkpt lat="42.6249952801" lon="0.9182559326">
        <ele>2166.47</ele>
        <time>2019-09-07T16:56:32Z</time>
      </trkpt>
      <trkpt lat="42.6250083558" lon="0.9182928968">
        <ele>2165.51</ele>
        <time>2019-09-07T16:56:45Z</time>
      </trkpt>
      <trkpt lat="42.6250099484" lon="0.9183084872">
        <ele>2165.03</ele>
        <time>2019-09-07T16:56:46Z</time>
      </trkpt>
      <trkpt lat="42.6250653528" lon="0.9183651488">
        <ele>2164.06</ele>
        <time>2019-09-07T16:56:59Z</time>
      </trkpt>
      <trkpt lat="42.6251165662" lon="0.9184012748">
        <ele>2163.58</ele>
        <time>2019-09-07T16:57:11Z</time>
      </trkpt>
      <trkpt lat="42.6251999661" lon="0.9184928052">
        <ele>2162.62</ele>
        <time>2019-09-07T16:57:22Z</time>
      </trkpt>
      <trkpt lat="42.6252006367" lon="0.9185890295">
        <ele>2162.62</ele>
        <time>2019-09-07T16:57:33Z</time>
      </trkpt>
      <trkpt lat="42.6252308115" lon="0.9186389856">
        <ele>2162.62</ele>
        <time>2019-09-07T16:57:53Z</time>
      </trkpt>
      <trkpt lat="42.6253160555" lon="0.9186610300">
        <ele>2162.14</ele>
        <time>2019-09-07T16:58:05Z</time>
      </trkpt>
      <trkpt lat="42.6254044846" lon="0.9186882712">
        <ele>2162.14</ele>
        <time>2019-09-07T16:58:15Z</time>
      </trkpt>
      <trkpt lat="42.6254634932" lon="0.9187355451">
        <ele>2162.14</ele>
        <time>2019-09-07T16:58:25Z</time>
      </trkpt>
      <trkpt lat="42.6254664268" lon="0.9187603556">
        <ele>2162.62</ele>
        <time>2019-09-07T16:58:34Z</time>
      </trkpt>
      <trkpt lat="42.6254427899" lon="0.9188507963">
        <ele>2162.14</ele>
        <time>2019-09-07T16:58:43Z</time>
      </trkpt>
      <trkpt lat="42.6254495792" lon="0.9189414885">
        <ele>2160.70</ele>
        <time>2019-09-07T16:58:54Z</time>
      </trkpt>
      <trkpt lat="42.6254105195" lon="0.9189741779">
        <ele>2158.78</ele>
        <time>2019-09-07T16:59:04Z</time>
      </trkpt>
      <trkpt lat="42.6254164707" lon="0.9190134052">
        <ele>2157.82</ele>
        <time>2019-09-07T16:59:16Z</time>
      </trkpt>
      <trkpt lat="42.6253866311" lon="0.9190503694">
        <ele>2156.37</ele>
        <time>2019-09-07T16:59:27Z</time>
      </trkpt>
      <trkpt lat="42.6253577974" lon="0.9190870821">
        <ele>2154.45</ele>
        <time>2019-09-07T16:59:39Z</time>
      </trkpt>
      <trkpt lat="42.6253165584" lon="0.9191356972">
        <ele>2153.49</ele>
        <time>2019-09-07T16:59:49Z</time>
      </trkpt>
      <trkpt lat="42.6252959389" lon="0.9191907663">
        <ele>2151.57</ele>
        <time>2019-09-07T16:59:59Z</time>
      </trkpt>
      <trkpt lat="42.6252571307" lon="0.9192386270">
        <ele>2148.68</ele>
        <time>2019-09-07T17:00:11Z</time>
      </trkpt>
      <trkpt lat="42.6252250280" lon="0.9192594979">
        <ele>2147.24</ele>
        <time>2019-09-07T17:00:16Z</time>
      </trkpt>
      <trkpt lat="42.6251959428" lon="0.9193098731">
        <ele>2145.80</ele>
        <time>2019-09-07T17:00:27Z</time>
      </trkpt>
      <trkpt lat="42.6252147183" lon="0.9193619248">
        <ele>2143.40</ele>
        <time>2019-09-07T17:00:41Z</time>
      </trkpt>
      <trkpt lat="42.6252156403" lon="0.9194029123">
        <ele>2143.40</ele>
        <time>2019-09-07T17:00:45Z</time>
      </trkpt>
      <trkpt lat="42.6252085995" lon="0.9194462467">
        <ele>2142.92</ele>
        <time>2019-09-07T17:00:48Z</time>
      </trkpt>
      <trkpt lat="42.6251680311" lon="0.9195620008">
        <ele>2143.40</ele>
        <time>2019-09-07T17:00:59Z</time>
      </trkpt>
      <trkpt lat="42.6251264568" lon="0.9196598176">
        <ele>2144.84</ele>
        <time>2019-09-07T17:01:10Z</time>
      </trkpt>
      <trkpt lat="42.6250681188" lon="0.9197675250">
        <ele>2146.28</ele>
        <time>2019-09-07T17:01:22Z</time>
      </trkpt>
      <trkpt lat="42.6250530314" lon="0.9197874740">
        <ele>2146.76</ele>
        <time>2019-09-07T17:01:24Z</time>
      </trkpt>
      <trkpt lat="42.6250314899" lon="0.9198602289">
        <ele>2146.76</ele>
        <time>2019-09-07T17:01:29Z</time>
      </trkpt>
      <trkpt lat="42.6249478385" lon="0.9200276993">
        <ele>2145.80</ele>
        <time>2019-09-07T17:01:43Z</time>
      </trkpt>
      <trkpt lat="42.6249272190" lon="0.9201096743">
        <ele>2144.84</ele>
        <time>2019-09-07T17:01:53Z</time>
      </trkpt>
      <trkpt lat="42.6249166578" lon="0.9201324731">
        <ele>2144.36</ele>
        <time>2019-09-07T17:01:55Z</time>
      </trkpt>
      <trkpt lat="42.6248505246" lon="0.9200955089">
        <ele>2143.40</ele>
        <time>2019-09-07T17:02:03Z</time>
      </trkpt>
      <trkpt lat="42.6248251274" lon="0.9200841095">
        <ele>2142.92</ele>
        <time>2019-09-07T17:02:06Z</time>
      </trkpt>
      <trkpt lat="42.6248060167" lon="0.9200674295">
        <ele>2142.44</ele>
        <time>2019-09-07T17:02:08Z</time>
      </trkpt>
      <trkpt lat="42.6247951202" lon="0.9200547729">
        <ele>2142.44</ele>
        <time>2019-09-07T17:02:09Z</time>
      </trkpt>
      <trkpt lat="42.6247829664" lon="0.9200473968">
        <ele>2142.44</ele>
        <time>2019-09-07T17:02:10Z</time>
      </trkpt>
      <trkpt lat="42.6247727405" lon="0.9200422000">
        <ele>2141.95</ele>
        <time>2019-09-07T17:02:11Z</time>
      </trkpt>
      <trkpt lat="42.6247605029" lon="0.9200419486">
        <ele>2141.95</ele>
        <time>2019-09-07T17:02:12Z</time>
      </trkpt>
      <trkpt lat="42.6247391291" lon="0.9200491570">
        <ele>2141.47</ele>
        <time>2019-09-07T17:02:14Z</time>
      </trkpt>
      <trkpt lat="42.6247282326" lon="0.9200532641">
        <ele>2141.47</ele>
        <time>2019-09-07T17:02:15Z</time>
      </trkpt>
      <trkpt lat="42.6247045957" lon="0.9200707823">
        <ele>2140.99</ele>
        <time>2019-09-07T17:02:18Z</time>
      </trkpt>
      <trkpt lat="42.6246938668" lon="0.9200801700">
        <ele>2140.99</ele>
        <time>2019-09-07T17:02:19Z</time>
      </trkpt>
      <trkpt lat="42.6246403065" lon="0.9201354068">
        <ele>2140.99</ele>
        <time>2019-09-07T17:02:29Z</time>
      </trkpt>
      <trkpt lat="42.6246336009" lon="0.9201405197">
        <ele>2140.99</ele>
        <time>2019-09-07T17:02:30Z</time>
      </trkpt>
      <trkpt lat="42.6245688088" lon="0.9201944154">
        <ele>2140.51</ele>
        <time>2019-09-07T17:02:38Z</time>
      </trkpt>
      <trkpt lat="42.6245351974" lon="0.9202353191">
        <ele>2140.03</ele>
        <time>2019-09-07T17:02:42Z</time>
      </trkpt>
      <trkpt lat="42.6243966445" lon="0.9203255922">
        <ele>2138.59</ele>
        <time>2019-09-07T17:02:57Z</time>
      </trkpt>
      <trkpt lat="42.6243879274" lon="0.9203387517">
        <ele>2139.07</ele>
        <time>2019-09-07T17:02:59Z</time>
      </trkpt>
      <trkpt lat="42.6243704092" lon="0.9203600418">
        <ele>2139.55</ele>
        <time>2019-09-07T17:03:01Z</time>
      </trkpt>
      <trkpt lat="42.6243555732" lon="0.9204016160">
        <ele>2139.55</ele>
        <time>2019-09-07T17:03:04Z</time>
      </trkpt>
      <trkpt lat="42.6242918707" lon="0.9204510693">
        <ele>2139.07</ele>
        <time>2019-09-07T17:03:11Z</time>
      </trkpt>
      <trkpt lat="42.6242084708" lon="0.9205141012">
        <ele>2138.59</ele>
        <time>2019-09-07T17:03:22Z</time>
      </trkpt>
      <trkpt lat="42.6241818164" lon="0.9205076471">
        <ele>2139.07</ele>
        <time>2019-09-07T17:03:41Z</time>
      </trkpt>
      <trkpt lat="42.6241690759" lon="0.9205315355">
        <ele>2138.59</ele>
        <time>2019-09-07T17:04:12Z</time>
      </trkpt>
      <trkpt lat="42.6243146695" lon="0.9205285180">
        <ele>2137.63</ele>
        <time>2019-09-07T17:04:45Z</time>
      </trkpt>
      <trkpt lat="42.6244508754" lon="0.9208039474">
        <ele>2121.77</ele>
        <time>2019-09-07T17:05:26Z</time>
      </trkpt>
      <trkpt lat="42.6236020401" lon="0.9201508295">
        <ele>2113.60</ele>
        <time>2019-09-08T05:53:11Z</time>
      </trkpt>
      <trkpt lat="42.6242492069" lon="0.9203814156">
        <ele>2113.12</ele>
        <time>2019-09-08T05:53:22Z</time>
      </trkpt>
      <trkpt lat="42.6241272502" lon="0.9205834195">
        <ele>2115.04</ele>
        <time>2019-09-08T05:53:32Z</time>
      </trkpt>
      <trkpt lat="42.6241340395" lon="0.9205946513">
        <ele>2119.36</ele>
        <time>2019-09-08T05:53:34Z</time>
      </trkpt>
      <trkpt lat="42.6241391525" lon="0.9205988422">
        <ele>2123.69</ele>
        <time>2019-09-08T05:53:36Z</time>
      </trkpt>
      <trkpt lat="42.6241475344" lon="0.9205954894">
        <ele>2127.53</ele>
        <time>2019-09-08T05:53:39Z</time>
      </trkpt>
      <trkpt lat="42.6241384819" lon="0.9205938969">
        <ele>2130.90</ele>
        <time>2019-09-08T05:53:43Z</time>
      </trkpt>
      <trkpt lat="42.6241423376" lon="0.9205966629">
        <ele>2133.78</ele>
        <time>2019-09-08T05:53:47Z</time>
      </trkpt>
      <trkpt lat="42.6241320278" lon="0.9205926396">
        <ele>2137.15</ele>
        <time>2019-09-08T05:53:51Z</time>
      </trkpt>
      <trkpt lat="42.6241199579" lon="0.9206117503">
        <ele>2140.03</ele>
        <time>2019-09-08T05:53:58Z</time>
      </trkpt>
      <trkpt lat="42.6240959018" lon="0.9206153546">
        <ele>2143.40</ele>
        <time>2019-09-08T05:54:07Z</time>
      </trkpt>
      <trkpt lat="42.6241027750" lon="0.9206265025">
        <ele>2146.76</ele>
        <time>2019-09-08T05:54:15Z</time>
      </trkpt>
      <trkpt lat="42.6241057925" lon="0.9206295200">
        <ele>2146.76</ele>
        <time>2019-09-08T05:54:16Z</time>
      </trkpt>
      <trkpt lat="42.6241188683" lon="0.9206348006">
        <ele>2146.76</ele>
        <time>2019-09-08T05:54:31Z</time>
      </trkpt>
      <trkpt lat="42.6241384819" lon="0.9206415061">
        <ele>2146.76</ele>
        <time>2019-09-08T05:54:50Z</time>
      </trkpt>
      <trkpt lat="42.6241514739" lon="0.9206182882">
        <ele>2146.76</ele>
        <time>2019-09-08T05:55:04Z</time>
      </trkpt>
      <trkpt lat="42.6241755299" lon="0.9206249937">
        <ele>2146.76</ele>
        <time>2019-09-08T05:55:20Z</time>
      </trkpt>
      <trkpt lat="42.6241580956" lon="0.9206171986">
        <ele>2146.76</ele>
        <time>2019-09-08T05:55:35Z</time>
      </trkpt>
      <trkpt lat="42.6241303515" lon="0.9206258319">
        <ele>2146.76</ele>
        <time>2019-09-08T05:55:53Z</time>
      </trkpt>
      <trkpt lat="42.6241867617" lon="0.9205879457">
        <ele>2146.76</ele>
        <time>2019-09-08T05:56:14Z</time>
      </trkpt>
      <trkpt lat="42.6241734345" lon="0.9205526579">
        <ele>2146.76</ele>
        <time>2019-09-08T05:56:33Z</time>
      </trkpt>
      <trkpt lat="42.6242300961" lon="0.9204971697">
        <ele>2147.24</ele>
        <time>2019-09-08T05:56:49Z</time>
      </trkpt>
      <trkpt lat="42.6242315210" lon="0.9204918891">
        <ele>2148.20</ele>
        <time>2019-09-08T05:57:03Z</time>
      </trkpt>
      <trkpt lat="42.6242339518" lon="0.9204887040">
        <ele>2147.72</ele>
        <time>2019-09-08T05:57:23Z</time>
      </trkpt>
      <trkpt lat="42.6242687367" lon="0.9204652347">
        <ele>2148.20</ele>
        <time>2019-09-08T05:57:28Z</time>
      </trkpt>
      <trkpt lat="42.6243569143" lon="0.9203453735">
        <ele>2149.16</ele>
        <time>2019-09-08T05:57:41Z</time>
      </trkpt>
      <trkpt lat="42.6243766956" lon="0.9203118458">
        <ele>2149.16</ele>
        <time>2019-09-08T05:57:45Z</time>
      </trkpt>
      <trkpt lat="42.6245063636" lon="0.9202013724">
        <ele>2148.20</ele>
        <time>2019-09-08T05:58:00Z</time>
      </trkpt>
      <trkpt lat="42.6245218702" lon="0.9201942477">
        <ele>2149.16</ele>
        <time>2019-09-08T05:58:14Z</time>
      </trkpt>
      <trkpt lat="42.6245931163" lon="0.9201199003">
        <ele>2150.13</ele>
        <time>2019-09-08T05:58:27Z</time>
      </trkpt>
      <trkpt lat="42.6246563159" lon="0.9200575389">
        <ele>2150.13</ele>
        <time>2019-09-08T05:58:38Z</time>
      </trkpt>
      <trkpt lat="42.6246849820" lon="0.9200438764">
        <ele>2150.13</ele>
        <time>2019-09-08T05:58:41Z</time>
      </trkpt>
      <trkpt lat="42.6247836370" lon="0.9200766496">
        <ele>2150.61</ele>
        <time>2019-09-08T05:58:52Z</time>
      </trkpt>
      <trkpt lat="42.6248468366" lon="0.9201198164">
        <ele>2151.57</ele>
        <time>2019-09-08T05:59:01Z</time>
      </trkpt>
      <trkpt lat="42.6248957030" lon="0.9200615622">
        <ele>2153.01</ele>
        <time>2019-09-08T05:59:12Z</time>
      </trkpt>
      <trkpt lat="42.6249350980" lon="0.9199561179">
        <ele>2154.45</ele>
        <time>2019-09-08T05:59:24Z</time>
      </trkpt>
      <trkpt lat="42.6249398757" lon="0.9199439641">
        <ele>2154.45</ele>
        <time>2019-09-08T05:59:25Z</time>
      </trkpt>
      <trkpt lat="42.6249439828" lon="0.9199297149">
        <ele>2154.45</ele>
        <time>2019-09-08T05:59:26Z</time>
      </trkpt>
      <trkpt lat="42.6250081044" lon="0.9197629150">
        <ele>2155.41</ele>
        <time>2019-09-08T05:59:40Z</time>
      </trkpt>
      <trkpt lat="42.6250746567" lon="0.9196251165">
        <ele>2155.41</ele>
        <time>2019-09-08T05:59:52Z</time>
      </trkpt>
      <trkpt lat="42.6251075137" lon="0.9195161518">
        <ele>2153.97</ele>
        <time>2019-09-08T06:00:04Z</time>
      </trkpt>
      <trkpt lat="42.6251164824" lon="0.9194655251">
        <ele>2152.05</ele>
        <time>2019-09-08T06:00:17Z</time>
      </trkpt>
      <trkpt lat="42.6251282170" lon="0.9194330871">
        <ele>2152.53</ele>
        <time>2019-09-08T06:00:29Z</time>
      </trkpt>
      <trkpt lat="42.6251541171" lon="0.9193445742">
        <ele>2152.53</ele>
        <time>2019-09-08T06:00:42Z</time>
      </trkpt>
      <trkpt lat="42.6251985412" lon="0.9193485137">
        <ele>2151.57</ele>
        <time>2019-09-08T06:00:52Z</time>
      </trkpt>
      <trkpt lat="42.6252948493" lon="0.9193247091">
        <ele>2152.05</ele>
        <time>2019-09-08T06:01:05Z</time>
      </trkpt>
      <trkpt lat="42.6253813505" lon="0.9193535428">
        <ele>2153.49</ele>
        <time>2019-09-08T06:01:16Z</time>
      </trkpt>
      <trkpt lat="42.6254100166" lon="0.9193408862">
        <ele>2153.49</ele>
        <time>2019-09-08T06:01:20Z</time>
      </trkpt>
      <trkpt lat="42.6254613977" lon="0.9193218593">
        <ele>2153.97</ele>
        <time>2019-09-08T06:01:25Z</time>
      </trkpt>
      <trkpt lat="42.6255923230" lon="0.9193126392">
        <ele>2153.97</ele>
        <time>2019-09-08T06:01:39Z</time>
      </trkpt>
      <trkpt lat="42.6256259345" lon="0.9193279780">
        <ele>2153.97</ele>
        <time>2019-09-08T06:01:44Z</time>
      </trkpt>
      <trkpt lat="42.6256954204" lon="0.9193915967">
        <ele>2153.01</ele>
        <time>2019-09-08T06:01:53Z</time>
      </trkpt>
      <trkpt lat="42.6257024612" lon="0.9194038343">
        <ele>2153.01</ele>
        <time>2019-09-08T06:01:54Z</time>
      </trkpt>
      <trkpt lat="42.6257228293" lon="0.9194320813">
        <ele>2153.01</ele>
        <time>2019-09-08T06:01:57Z</time>
      </trkpt>
      <trkpt lat="42.6258155331" lon="0.9194870666">
        <ele>2153.01</ele>
        <time>2019-09-08T06:02:10Z</time>
      </trkpt>
      <trkpt lat="42.6258448698" lon="0.9194897488">
        <ele>2153.01</ele>
        <time>2019-09-08T06:02:22Z</time>
      </trkpt>
      <trkpt lat="42.6258589514" lon="0.9195531160">
        <ele>2153.01</ele>
        <time>2019-09-08T06:02:33Z</time>
      </trkpt>
      <trkpt lat="42.6258673333" lon="0.9195637610">
        <ele>2153.01</ele>
        <time>2019-09-08T06:02:34Z</time>
      </trkpt>
      <trkpt lat="42.6259180438" lon="0.9195997193">
        <ele>2152.05</ele>
        <time>2019-09-08T06:02:40Z</time>
      </trkpt>
      <trkpt lat="42.6259256713" lon="0.9196095262">
        <ele>2151.57</ele>
        <time>2019-09-08T06:02:41Z</time>
      </trkpt>
      <trkpt lat="42.6259359811" lon="0.9196169022">
        <ele>2151.57</ele>
        <time>2019-09-08T06:02:42Z</time>
      </trkpt>
      <trkpt lat="42.6259524096" lon="0.9196360130">
        <ele>2151.57</ele>
        <time>2019-09-08T06:02:44Z</time>
      </trkpt>
      <trkpt lat="42.6260253321" lon="0.9197809361">
        <ele>2150.13</ele>
        <time>2019-09-08T06:02:55Z</time>
      </trkpt>
      <trkpt lat="42.6261215564" lon="0.9199015517">
        <ele>2147.24</ele>
        <time>2019-09-08T06:03:07Z</time>
      </trkpt>
      <trkpt lat="42.6261873543" lon="0.9199999552">
        <ele>2146.28</ele>
        <time>2019-09-08T06:03:17Z</time>
      </trkpt>
      <trkpt lat="42.6262295991" lon="0.9200938325">
        <ele>2144.84</ele>
        <time>2019-09-08T06:03:27Z</time>
      </trkpt>
      <trkpt lat="42.6262711734" lon="0.9201737121">
        <ele>2142.44</ele>
        <time>2019-09-08T06:03:40Z</time>
      </trkpt>
      <trkpt lat="42.6262567565" lon="0.9202380851">
        <ele>2140.51</ele>
        <time>2019-09-08T06:03:50Z</time>
      </trkpt>
      <trkpt lat="42.6262850873" lon="0.9203150310">
        <ele>2139.55</ele>
        <time>2019-09-08T06:03:59Z</time>
      </trkpt>
      <trkpt lat="42.6263345405" lon="0.9204073157">
        <ele>2137.63</ele>
        <time>2019-09-08T06:04:09Z</time>
      </trkpt>
      <trkpt lat="42.6263420004" lon="0.9204151109">
        <ele>2137.63</ele>
        <time>2019-09-08T06:04:10Z</time>
      </trkpt>
      <trkpt lat="42.6263943035" lon="0.9204689227">
        <ele>2136.19</ele>
        <time>2019-09-08T06:04:20Z</time>
      </trkpt>
      <trkpt lat="42.6264039427" lon="0.9204831719">
        <ele>2136.19</ele>
        <time>2019-09-08T06:04:22Z</time>
      </trkpt>
      <trkpt lat="42.6264196169" lon="0.9205379058">
        <ele>2134.74</ele>
        <time>2019-09-08T06:04:27Z</time>
      </trkpt>
      <trkpt lat="42.6264280826" lon="0.9205503948">
        <ele>2134.26</ele>
        <time>2019-09-08T06:04:28Z</time>
      </trkpt>
      <trkpt lat="42.6264377218" lon="0.9205628838">
        <ele>2134.26</ele>
        <time>2019-09-08T06:04:29Z</time>
      </trkpt>
      <trkpt lat="42.6264704112" lon="0.9206443559">
        <ele>2133.78</ele>
        <time>2019-09-08T06:04:36Z</time>
      </trkpt>
      <trkpt lat="42.6264751051" lon="0.9206606168">
        <ele>2133.78</ele>
        <time>2019-09-08T06:04:37Z</time>
      </trkpt>
      <trkpt lat="42.6265326887" lon="0.9207842499">
        <ele>2133.78</ele>
        <time>2019-09-08T06:04:49Z</time>
      </trkpt>
      <trkpt lat="42.6265989058" lon="0.9209106490">
        <ele>2134.74</ele>
        <time>2019-09-08T06:05:00Z</time>
      </trkpt>
      <trkpt lat="42.6266149152" lon="0.9209500439">
        <ele>2134.74</ele>
        <time>2019-09-08T06:05:03Z</time>
      </trkpt>
      <trkpt lat="42.6266214531" lon="0.9209767822">
        <ele>2135.23</ele>
        <time>2019-09-08T06:05:05Z</time>
      </trkpt>
      <trkpt lat="42.6266495325" lon="0.9210500401">
        <ele>2135.71</ele>
        <time>2019-09-08T06:05:14Z</time>
      </trkpt>
      <trkpt lat="42.6266521309" lon="0.9210973978">
        <ele>2136.19</ele>
        <time>2019-09-08T06:05:18Z</time>
      </trkpt>
      <trkpt lat="42.6266610995" lon="0.9211324342">
        <ele>2136.19</ele>
        <time>2019-09-08T06:05:21Z</time>
      </trkpt>
      <trkpt lat="42.6266757678" lon="0.9212359507">
        <ele>2136.19</ele>
        <time>2019-09-08T06:05:29Z</time>
      </trkpt>
      <trkpt lat="42.6267032605" lon="0.9213553928">
        <ele>2137.15</ele>
        <time>2019-09-08T06:05:39Z</time>
      </trkpt>
      <trkpt lat="42.6267139893" lon="0.9213813767">
        <ele>2137.63</ele>
        <time>2019-09-08T06:05:41Z</time>
      </trkpt>
      <trkpt lat="42.6266994886" lon="0.9214752540">
        <ele>2139.55</ele>
        <time>2019-09-08T06:05:51Z</time>
      </trkpt>
      <trkpt lat="42.6266979799" lon="0.9215411358">
        <ele>2141.47</ele>
        <time>2019-09-08T06:06:03Z</time>
      </trkpt>
      <trkpt lat="42.6266419049" lon="0.9216178302">
        <ele>2142.44</ele>
        <time>2019-09-08T06:06:14Z</time>
      </trkpt>
      <trkpt lat="42.6265828963" lon="0.9216956981">
        <ele>2140.99</ele>
        <time>2019-09-08T06:06:27Z</time>
      </trkpt>
      <trkpt lat="42.6265585888" lon="0.9217495937">
        <ele>2140.99</ele>
        <time>2019-09-08T06:06:34Z</time>
      </trkpt>
      <trkpt lat="42.6265278272" lon="0.9217884857">
        <ele>2140.03</ele>
        <time>2019-09-08T06:06:43Z</time>
      </trkpt>
      <trkpt lat="42.6265256479" lon="0.9218009748">
        <ele>2140.03</ele>
        <time>2019-09-08T06:06:55Z</time>
      </trkpt>
      <trkpt lat="42.6265348680" lon="0.9218024835">
        <ele>2140.03</ele>
        <time>2019-09-08T06:07:10Z</time>
      </trkpt>
      <trkpt lat="42.6265473571" lon="0.9217838757">
        <ele>2140.03</ele>
        <time>2019-09-08T06:07:22Z</time>
      </trkpt>
      <trkpt lat="42.6265665516" lon="0.9217982087">
        <ele>2140.03</ele>
        <time>2019-09-08T06:07:26Z</time>
      </trkpt>
      <trkpt lat="42.6266115624" lon="0.9218495060">
        <ele>2140.03</ele>
        <time>2019-09-08T06:07:33Z</time>
      </trkpt>
      <trkpt lat="42.6266465988" lon="0.9218879789">
        <ele>2140.03</ele>
        <time>2019-09-08T06:07:41Z</time>
      </trkpt>
      <trkpt lat="42.6266891789" lon="0.9218962770">
        <ele>2139.07</ele>
        <time>2019-09-08T06:07:52Z</time>
      </trkpt>
      <trkpt lat="42.6267172582" lon="0.9219549503">
        <ele>2137.15</ele>
        <time>2019-09-08T06:08:03Z</time>
      </trkpt>
      <trkpt lat="42.6266936213" lon="0.9219983686">
        <ele>2136.19</ele>
        <time>2019-09-08T06:08:11Z</time>
      </trkpt>
      <trkpt lat="42.6266442519" lon="0.9220105223">
        <ele>2135.23</ele>
        <time>2019-09-08T06:08:16Z</time>
      </trkpt>
      <trkpt lat="42.6266213693" lon="0.9220013861">
        <ele>2134.74</ele>
        <time>2019-09-08T06:08:18Z</time>
      </trkpt>
      <trkpt lat="42.6265630312" lon="0.9219352528">
        <ele>2133.78</ele>
        <time>2019-09-08T06:08:26Z</time>
      </trkpt>
      <trkpt lat="42.6264989097" lon="0.9218833689">
        <ele>2132.82</ele>
        <time>2019-09-08T06:08:34Z</time>
      </trkpt>
      <trkpt lat="42.6264927071" lon="0.9218727238">
        <ele>2132.34</ele>
        <time>2019-09-08T06:08:35Z</time>
      </trkpt>
      <trkpt lat="42.6264730934" lon="0.9218944330">
        <ele>2132.34</ele>
        <time>2019-09-08T06:08:44Z</time>
      </trkpt>
      <trkpt lat="42.6264670584" lon="0.9219184052">
        <ele>2132.82</ele>
        <time>2019-09-08T06:08:54Z</time>
      </trkpt>
      <trkpt lat="42.6264595985" lon="0.9219724685">
        <ele>2132.82</ele>
        <time>2019-09-08T06:08:59Z</time>
      </trkpt>
      <trkpt lat="42.6264577545" lon="0.9219872206">
        <ele>2132.82</ele>
        <time>2019-09-08T06:09:00Z</time>
      </trkpt>
      <trkpt lat="42.6263969857" lon="0.9222365823">
        <ele>2132.82</ele>
        <time>2019-09-08T06:09:17Z</time>
      </trkpt>
      <trkpt lat="42.6263423357" lon="0.9224194754">
        <ele>2132.82</ele>
        <time>2019-09-08T06:09:33Z</time>
      </trkpt>
      <trkpt lat="42.6263342891" lon="0.9224564396">
        <ele>2132.82</ele>
        <time>2019-09-08T06:09:40Z</time>
      </trkpt>
      <trkpt lat="42.6263249014" lon="0.9224870335">
        <ele>2132.82</ele>
        <time>2019-09-08T06:09:42Z</time>
      </trkpt>
      <trkpt lat="42.6263211295" lon="0.9225027915">
        <ele>2132.82</ele>
        <time>2019-09-08T06:09:43Z</time>
      </trkpt>
      <trkpt lat="42.6263171062" lon="0.9225193039">
        <ele>2132.82</ele>
        <time>2019-09-08T06:09:44Z</time>
      </trkpt>
      <trkpt lat="42.6262469497" lon="0.9227954037">
        <ele>2132.82</ele>
        <time>2019-09-08T06:10:01Z</time>
      </trkpt>
      <trkpt lat="42.6261586044" lon="0.9230980743">
        <ele>2132.82</ele>
        <time>2019-09-08T06:10:21Z</time>
      </trkpt>
      <trkpt lat="42.6260851789" lon="0.9233828913">
        <ele>2132.34</ele>
        <time>2019-09-08T06:10:38Z</time>
      </trkpt>
      <trkpt lat="42.6259492245" lon="0.9236043412">
        <ele>2132.34</ele>
        <time>2019-09-08T06:10:56Z</time>
      </trkpt>
      <trkpt lat="42.6259033754" lon="0.9236568958">
        <ele>2132.82</ele>
        <time>2019-09-08T06:11:08Z</time>
      </trkpt>
      <trkpt lat="42.6259196363" lon="0.9237003140">
        <ele>2131.86</ele>
        <time>2019-09-08T06:11:17Z</time>
      </trkpt>
      <trkpt lat="42.6259259228" lon="0.9237075225">
        <ele>2130.90</ele>
        <time>2019-09-08T06:11:19Z</time>
      </trkpt>
      <trkpt lat="42.6259374060" lon="0.9237254597">
        <ele>2131.86</ele>
        <time>2019-09-08T06:11:21Z</time>
      </trkpt>
      <trkpt lat="42.6259830873" lon="0.9237786848">
        <ele>2132.34</ele>
        <time>2019-09-08T06:11:34Z</time>
      </trkpt>
      <trkpt lat="42.6260043774" lon="0.9237692971">
        <ele>2131.86</ele>
        <time>2019-09-08T06:11:47Z</time>
      </trkpt>
      <trkpt lat="42.6260609552" lon="0.9238721430">
        <ele>2129.46</ele>
        <time>2019-09-08T06:12:00Z</time>
      </trkpt>
      <trkpt lat="42.6260969136" lon="0.9238918405">
        <ele>2128.02</ele>
        <time>2019-09-08T06:12:10Z</time>
      </trkpt>
      <trkpt lat="42.6260954048" lon="0.9239151422">
        <ele>2127.53</ele>
        <time>2019-09-08T06:12:13Z</time>
      </trkpt>
      <trkpt lat="42.6260884479" lon="0.9239434730">
        <ele>2125.61</ele>
        <time>2019-09-08T06:12:25Z</time>
      </trkpt>
      <trkpt lat="42.6261018589" lon="0.9239998832">
        <ele>2124.65</ele>
        <time>2019-09-08T06:12:35Z</time>
      </trkpt>
      <trkpt lat="42.6261006016" lon="0.9240818582">
        <ele>2123.21</ele>
        <time>2019-09-08T06:12:43Z</time>
      </trkpt>
      <trkpt lat="42.6260827482" lon="0.9242161363">
        <ele>2122.73</ele>
        <time>2019-09-08T06:12:54Z</time>
      </trkpt>
      <trkpt lat="42.6260765456" lon="0.9243295435">
        <ele>2123.69</ele>
        <time>2019-09-08T06:13:02Z</time>
      </trkpt>
      <trkpt lat="42.6260973327" lon="0.9243774880">
        <ele>2124.17</ele>
        <time>2019-09-08T06:13:06Z</time>
      </trkpt>
      <trkpt lat="42.6261071395" lon="0.9243907314">
        <ele>2124.17</ele>
        <time>2019-09-08T06:13:07Z</time>
      </trkpt>
      <trkpt lat="42.6261184551" lon="0.9244008735">
        <ele>2124.17</ele>
        <time>2019-09-08T06:13:08Z</time>
      </trkpt>
      <trkpt lat="42.6261865161" lon="0.9244680963">
        <ele>2123.69</ele>
        <time>2019-09-08T06:13:18Z</time>
      </trkpt>
      <trkpt lat="42.6261972450" lon="0.9244976006">
        <ele>2123.21</ele>
        <time>2019-09-08T06:13:27Z</time>
      </trkpt>
      <trkpt lat="42.6262041181" lon="0.9245136939">
        <ele>2123.21</ele>
        <time>2019-09-08T06:13:28Z</time>
      </trkpt>
      <trkpt lat="42.6262097340" lon="0.9245319664">
        <ele>2123.21</ele>
        <time>2019-09-08T06:13:29Z</time>
      </trkpt>
      <trkpt lat="42.6262218878" lon="0.9245504905">
        <ele>2123.21</ele>
        <time>2019-09-08T06:13:31Z</time>
      </trkpt>
      <trkpt lat="42.6262342092" lon="0.9245506581">
        <ele>2123.21</ele>
        <time>2019-09-08T06:13:32Z</time>
      </trkpt>
      <trkpt lat="42.6262351312" lon="0.9245748818">
        <ele>2123.21</ele>
        <time>2019-09-08T06:13:33Z</time>
      </trkpt>
      <trkpt lat="42.6262338739" lon="0.9246706869">
        <ele>2123.21</ele>
        <time>2019-09-08T06:13:38Z</time>
      </trkpt>
      <trkpt lat="42.6262347121" lon="0.9246879537">
        <ele>2123.21</ele>
        <time>2019-09-08T06:13:39Z</time>
      </trkpt>
      <trkpt lat="42.6262290962" lon="0.9247056395">
        <ele>2123.21</ele>
        <time>2019-09-08T06:13:40Z</time>
      </trkpt>
      <trkpt lat="42.6262254920" lon="0.9247232415">
        <ele>2123.21</ele>
        <time>2019-09-08T06:13:41Z</time>
      </trkpt>
      <trkpt lat="42.6262239832" lon="0.9247400053">
        <ele>2123.21</ele>
        <time>2019-09-08T06:13:42Z</time>
      </trkpt>
      <trkpt lat="42.6262228936" lon="0.9247563500">
        <ele>2123.21</ele>
        <time>2019-09-08T06:13:43Z</time>
      </trkpt>
      <trkpt lat="42.6262187026" lon="0.9247735329">
        <ele>2123.21</ele>
        <time>2019-09-08T06:13:44Z</time>
      </trkpt>
      <trkpt lat="42.6262135897" lon="0.9247924760">
        <ele>2122.73</ele>
        <time>2019-09-08T06:13:45Z</time>
      </trkpt>
      <trkpt lat="42.6262136735" lon="0.9248127602">
        <ele>2122.73</ele>
        <time>2019-09-08T06:13:46Z</time>
      </trkpt>
      <trkpt lat="42.6262147631" lon="0.9248302784">
        <ele>2122.73</ele>
        <time>2019-09-08T06:13:47Z</time>
      </trkpt>
      <trkpt lat="42.6262166072" lon="0.9248473775">
        <ele>2122.25</ele>
        <time>2019-09-08T06:13:48Z</time>
      </trkpt>
      <trkpt lat="42.6262209658" lon="0.9248631354">
        <ele>2122.25</ele>
        <time>2019-09-08T06:13:49Z</time>
      </trkpt>
      <trkpt lat="42.6262277551" lon="0.9248778876">
        <ele>2121.77</ele>
        <time>2019-09-08T06:13:50Z</time>
      </trkpt>
      <trkpt lat="42.6262488775" lon="0.9248984233">
        <ele>2121.77</ele>
        <time>2019-09-08T06:13:52Z</time>
      </trkpt>
      <trkpt lat="42.6262598578" lon="0.9249082301">
        <ele>2121.77</ele>
        <time>2019-09-08T06:13:53Z</time>
      </trkpt>
      <trkpt lat="42.6262648869" lon="0.9249228984">
        <ele>2121.77</ele>
        <time>2019-09-08T06:13:54Z</time>
      </trkpt>
      <trkpt lat="42.6262767054" lon="0.9249249939">
        <ele>2121.77</ele>
        <time>2019-09-08T06:13:55Z</time>
      </trkpt>
      <trkpt lat="42.6262804773" lon="0.9249342140">
        <ele>2121.77</ele>
        <time>2019-09-08T06:13:56Z</time>
      </trkpt>
      <trkpt lat="42.6262663119" lon="0.9249604493">
        <ele>2121.77</ele>
        <time>2019-09-08T06:13:57Z</time>
      </trkpt>
      <trkpt lat="42.6262673177" lon="0.9249783866">
        <ele>2121.77</ele>
        <time>2019-09-08T06:13:58Z</time>
      </trkpt>
      <trkpt lat="42.6262659766" lon="0.9249964915">
        <ele>2121.77</ele>
        <time>2019-09-08T06:13:59Z</time>
      </trkpt>
      <trkpt lat="42.6262647193" lon="0.9250139259">
        <ele>2121.77</ele>
        <time>2019-09-08T06:14:00Z</time>
      </trkpt>
      <trkpt lat="42.6262840815" lon="0.9251787141">
        <ele>2121.77</ele>
        <time>2019-09-08T06:14:11Z</time>
      </trkpt>
      <trkpt lat="42.6262747776" lon="0.9252772853">
        <ele>2122.25</ele>
        <time>2019-09-08T06:14:17Z</time>
      </trkpt>
      <trkpt lat="42.6262618694" lon="0.9253698215">
        <ele>2122.73</ele>
        <time>2019-09-08T06:14:25Z</time>
      </trkpt>
      <trkpt lat="42.6262539066" lon="0.9253851604">
        <ele>2122.73</ele>
        <time>2019-09-08T06:14:26Z</time>
      </trkpt>
      <trkpt lat="42.6262275036" lon="0.9254628606">
        <ele>2124.17</ele>
        <time>2019-09-08T06:14:35Z</time>
      </trkpt>
      <trkpt lat="42.6262482908" lon="0.9254916944">
        <ele>2125.13</ele>
        <time>2019-09-08T06:14:38Z</time>
      </trkpt>
      <trkpt lat="42.6262687426" lon="0.9255218692">
        <ele>2125.61</ele>
        <time>2019-09-08T06:14:41Z</time>
      </trkpt>
      <trkpt lat="42.6262976602" lon="0.9256241284">
        <ele>2126.57</ele>
        <time>2019-09-08T06:14:50Z</time>
      </trkpt>
      <trkpt lat="42.6263031084" lon="0.9257138148">
        <ele>2127.53</ele>
        <time>2019-09-08T06:15:00Z</time>
      </trkpt>
      <trkpt lat="42.6262951456" lon="0.9257983882">
        <ele>2128.98</ele>
        <time>2019-09-08T06:15:08Z</time>
      </trkpt>
      <trkpt lat="42.6262876857" lon="0.9259273019">
        <ele>2130.42</ele>
        <time>2019-09-08T06:15:19Z</time>
      </trkpt>
      <trkpt lat="42.6262658089" lon="0.9259609133">
        <ele>2130.42</ele>
        <time>2019-09-08T06:15:22Z</time>
      </trkpt>
      <trkpt lat="42.6262721792" lon="0.9260127973">
        <ele>2131.38</ele>
        <time>2019-09-08T06:15:28Z</time>
      </trkpt>
      <trkpt lat="42.6262392383" lon="0.9260994662">
        <ele>2133.78</ele>
        <time>2019-09-08T06:15:40Z</time>
      </trkpt>
      <trkpt lat="42.6262255758" lon="0.9261530265">
        <ele>2135.71</ele>
        <time>2019-09-08T06:15:52Z</time>
      </trkpt>
      <trkpt lat="42.6262262464" lon="0.9262269549">
        <ele>2137.15</ele>
        <time>2019-09-08T06:16:03Z</time>
      </trkpt>
      <trkpt lat="42.6261965744" lon="0.9262971953">
        <ele>2138.59</ele>
        <time>2019-09-08T06:16:13Z</time>
      </trkpt>
      <trkpt lat="42.6262184512" lon="0.9263503365">
        <ele>2140.99</ele>
        <time>2019-09-08T06:16:25Z</time>
      </trkpt>
      <trkpt lat="42.6262808964" lon="0.9264292102">
        <ele>2142.44</ele>
        <time>2019-09-08T06:16:39Z</time>
      </trkpt>
      <trkpt lat="42.6263474487" lon="0.9264630731">
        <ele>2143.40</ele>
        <time>2019-09-08T06:16:51Z</time>
      </trkpt>
      <trkpt lat="42.6263547409" lon="0.9264732152">
        <ele>2143.40</ele>
        <time>2019-09-08T06:16:52Z</time>
      </trkpt>
      <trkpt lat="42.6263709180" lon="0.9265177231">
        <ele>2143.40</ele>
        <time>2019-09-08T06:16:56Z</time>
      </trkpt>
      <trkpt lat="42.6263808087" lon="0.9265784081">
        <ele>2144.36</ele>
        <time>2019-09-08T06:17:04Z</time>
      </trkpt>
      <trkpt lat="42.6264141686" lon="0.9266338963">
        <ele>2146.28</ele>
        <time>2019-09-08T06:17:17Z</time>
      </trkpt>
      <trkpt lat="42.6264843252" lon="0.9266675077">
        <ele>2147.24</ele>
        <time>2019-09-08T06:17:24Z</time>
      </trkpt>
      <trkpt lat="42.6265186910" lon="0.9266836848">
        <ele>2147.72</ele>
        <time>2019-09-08T06:17:27Z</time>
      </trkpt>
      <trkpt lat="42.6265942957" lon="0.9267351497">
        <ele>2148.20</ele>
        <time>2019-09-08T06:17:36Z</time>
      </trkpt>
      <trkpt lat="42.6266597584" lon="0.9267684259">
        <ele>2149.16</ele>
        <time>2019-09-08T06:17:47Z</time>
      </trkpt>
      <trkpt lat="42.6266782824" lon="0.9268078208">
        <ele>2151.09</ele>
        <time>2019-09-08T06:17:58Z</time>
      </trkpt>
      <trkpt lat="42.6266398933" lon="0.9269043803">
        <ele>2153.01</ele>
        <time>2019-09-08T06:18:12Z</time>
      </trkpt>
      <trkpt lat="42.6265942957" lon="0.9270070586">
        <ele>2154.93</ele>
        <time>2019-09-08T06:18:26Z</time>
      </trkpt>
      <trkpt lat="42.6265335269" lon="0.9270862676">
        <ele>2157.34</ele>
        <time>2019-09-08T06:18:40Z</time>
      </trkpt>
      <trkpt lat="42.6265039388" lon="0.9271723498">
        <ele>2159.26</ele>
        <time>2019-09-08T06:18:53Z</time>
      </trkpt>
      <trkpt lat="42.6264002547" lon="0.9272265807">
        <ele>2161.18</ele>
        <time>2019-09-08T06:19:06Z</time>
      </trkpt>
      <trkpt lat="42.6264228020" lon="0.9272613656">
        <ele>2162.62</ele>
        <time>2019-09-08T06:19:19Z</time>
      </trkpt>
      <trkpt lat="42.6264521386" lon="0.9272554144">
        <ele>2163.58</ele>
        <time>2019-09-08T06:19:23Z</time>
      </trkpt>
      <trkpt lat="42.6264834031" lon="0.9272794705">
        <ele>2164.06</ele>
        <time>2019-09-08T06:19:29Z</time>
      </trkpt>
      <trkpt lat="42.6265156735" lon="0.9273189493">
        <ele>2166.47</ele>
        <time>2019-09-08T06:19:41Z</time>
      </trkpt>
      <trkpt lat="42.6264933776" lon="0.9273613617">
        <ele>2168.39</ele>
        <time>2019-09-08T06:19:57Z</time>
      </trkpt>
      <trkpt lat="42.6265331078" lon="0.9274127427">
        <ele>2170.79</ele>
        <time>2019-09-08T06:20:10Z</time>
      </trkpt>
      <trkpt lat="42.6265873387" lon="0.9275456797">
        <ele>2173.20</ele>
        <time>2019-09-08T06:20:24Z</time>
      </trkpt>
      <trkpt lat="42.6265712455" lon="0.9275977314">
        <ele>2174.64</ele>
        <time>2019-09-08T06:20:39Z</time>
      </trkpt>
      <trkpt lat="42.6265119016" lon="0.9277087916">
        <ele>2176.56</ele>
        <time>2019-09-08T06:20:54Z</time>
      </trkpt>
      <trkpt lat="42.6264674775" lon="0.9277680516">
        <ele>2178.00</ele>
        <time>2019-09-08T06:21:06Z</time>
      </trkpt>
      <trkpt lat="42.6264248975" lon="0.9278451651">
        <ele>2179.93</ele>
        <time>2019-09-08T06:21:17Z</time>
      </trkpt>
      <trkpt lat="42.6264470257" lon="0.9279649425">
        <ele>2181.37</ele>
        <time>2019-09-08T06:21:31Z</time>
      </trkpt>
      <trkpt lat="42.6264069602" lon="0.9279999789">
        <ele>2183.77</ele>
        <time>2019-09-08T06:21:45Z</time>
      </trkpt>
      <trkpt lat="42.6264126599" lon="0.9280799422">
        <ele>2186.66</ele>
        <time>2019-09-08T06:21:57Z</time>
      </trkpt>
      <trkpt lat="42.6264295913" lon="0.9281183314">
        <ele>2188.10</ele>
        <time>2019-09-08T06:22:06Z</time>
      </trkpt>
      <trkpt lat="42.6264189463" lon="0.9281588998">
        <ele>2190.02</ele>
        <time>2019-09-08T06:22:18Z</time>
      </trkpt>
      <trkpt lat="42.6264186110" lon="0.9282132145">
        <ele>2191.94</ele>
        <time>2019-09-08T06:22:29Z</time>
      </trkpt>
      <trkpt lat="42.6264187787" lon="0.9282719716">
        <ele>2193.87</ele>
        <time>2019-09-08T06:22:41Z</time>
      </trkpt>
      <trkpt lat="42.6263915375" lon="0.9284130391">
        <ele>2195.79</ele>
        <time>2019-09-08T06:22:57Z</time>
      </trkpt>
      <trkpt lat="42.6263962314" lon="0.9284737241">
        <ele>2197.71</ele>
        <time>2019-09-08T06:23:08Z</time>
      </trkpt>
      <trkpt lat="42.6263819821" lon="0.9285269491">
        <ele>2197.71</ele>
        <time>2019-09-08T06:23:18Z</time>
      </trkpt>
      <trkpt lat="42.6263376419" lon="0.9286289569">
        <ele>2195.79</ele>
        <time>2019-09-08T06:23:29Z</time>
      </trkpt>
      <trkpt lat="42.6262921281" lon="0.9287090879">
        <ele>2194.35</ele>
        <time>2019-09-08T06:23:40Z</time>
      </trkpt>
      <trkpt lat="42.6262274198" lon="0.9287670907">
        <ele>2192.90</ele>
        <time>2019-09-08T06:23:52Z</time>
      </trkpt>
      <trkpt lat="42.6261826605" lon="0.9287841897">
        <ele>2192.42</ele>
        <time>2019-09-08T06:23:57Z</time>
      </trkpt>
      <trkpt lat="42.6261732727" lon="0.9287931584">
        <ele>2192.42</ele>
        <time>2019-09-08T06:23:58Z</time>
      </trkpt>
      <trkpt lat="42.6261651423" lon="0.9288035519">
        <ele>2191.94</ele>
        <time>2019-09-08T06:23:59Z</time>
      </trkpt>
      <trkpt lat="42.6261555031" lon="0.9288118500">
        <ele>2191.94</ele>
        <time>2019-09-08T06:24:00Z</time>
      </trkpt>
      <trkpt lat="42.6261467859" lon="0.9288204834">
        <ele>2191.46</ele>
        <time>2019-09-08T06:24:01Z</time>
      </trkpt>
      <trkpt lat="42.6261383202" lon="0.9288301226">
        <ele>2190.98</ele>
        <time>2019-09-08T06:24:02Z</time>
      </trkpt>
      <trkpt lat="42.6261290163" lon="0.9288409352">
        <ele>2190.98</ele>
        <time>2019-09-08T06:24:03Z</time>
      </trkpt>
      <trkpt lat="42.6261047926" lon="0.9288768936">
        <ele>2190.02</ele>
        <time>2019-09-08T06:24:14Z</time>
      </trkpt>
      <trkpt lat="42.6260965783" lon="0.9288959205">
        <ele>2190.02</ele>
        <time>2019-09-08T06:24:24Z</time>
      </trkpt>
      <trkpt lat="42.6260892022" lon="0.9289079905">
        <ele>2190.02</ele>
        <time>2019-09-08T06:24:25Z</time>
      </trkpt>
      <trkpt lat="42.6260812394" lon="0.9289207309">
        <ele>2190.02</ele>
        <time>2019-09-08T06:24:26Z</time>
      </trkpt>
      <trkpt lat="42.6260721870" lon="0.9289332200">
        <ele>2190.02</ele>
        <time>2019-09-08T06:24:27Z</time>
      </trkpt>
      <trkpt lat="42.6260641403" lon="0.9289449546">
        <ele>2190.02</ele>
        <time>2019-09-08T06:24:28Z</time>
      </trkpt>
      <trkpt lat="42.6260583568" lon="0.9289584495">
        <ele>2190.02</ele>
        <time>2019-09-08T06:24:29Z</time>
      </trkpt>
      <trkpt lat="42.6260523219" lon="0.9289722797">
        <ele>2190.02</ele>
        <time>2019-09-08T06:24:30Z</time>
      </trkpt>
      <trkpt lat="42.6260438561" lon="0.9289840143">
        <ele>2190.02</ele>
        <time>2019-09-08T06:24:31Z</time>
      </trkpt>
      <trkpt lat="42.6260363963" lon="0.9289947432">
        <ele>2190.02</ele>
        <time>2019-09-08T06:24:32Z</time>
      </trkpt>
      <trkpt lat="42.6260286011" lon="0.9290079866">
        <ele>2190.02</ele>
        <time>2019-09-08T06:24:33Z</time>
      </trkpt>
      <trkpt lat="42.6260200515" lon="0.9290227387">
        <ele>2190.02</ele>
        <time>2019-09-08T06:24:34Z</time>
      </trkpt>
      <trkpt lat="42.6259651501" lon="0.9290864412">
        <ele>2189.54</ele>
        <time>2019-09-08T06:24:41Z</time>
      </trkpt>
      <trkpt lat="42.6259615459" lon="0.9291015286">
        <ele>2189.06</ele>
        <time>2019-09-08T06:24:42Z</time>
      </trkpt>
      <trkpt lat="42.6259432733" lon="0.9291156940">
        <ele>2189.06</ele>
        <time>2019-09-08T06:24:44Z</time>
      </trkpt>
      <trkpt lat="42.6259320416" lon="0.9291172028">
        <ele>2189.06</ele>
        <time>2019-09-08T06:24:45Z</time>
      </trkpt>
      <trkpt lat="42.6259205583" lon="0.9291174542">
        <ele>2189.06</ele>
        <time>2019-09-08T06:24:46Z</time>
      </trkpt>
      <trkpt lat="42.6258439478" lon="0.9291638900">
        <ele>2187.62</ele>
        <time>2019-09-08T06:24:58Z</time>
      </trkpt>
      <trkpt lat="42.6258003619" lon="0.9292296041">
        <ele>2186.66</ele>
        <time>2019-09-08T06:25:07Z</time>
      </trkpt>
      <trkpt lat="42.6257938240" lon="0.9292408358">
        <ele>2186.66</ele>
        <time>2019-09-08T06:25:08Z</time>
      </trkpt>
      <trkpt lat="42.6257908065" lon="0.9292530734">
        <ele>2186.66</ele>
        <time>2019-09-08T06:25:09Z</time>
      </trkpt>
      <trkpt lat="42.6257966738" lon="0.9292794764">
        <ele>2186.18</ele>
        <time>2019-09-08T06:25:11Z</time>
      </trkpt>
      <trkpt lat="42.6258017030" lon="0.9292953182">
        <ele>2186.18</ele>
        <time>2019-09-08T06:25:12Z</time>
      </trkpt>
      <trkpt lat="42.6258006133" lon="0.9293100704">
        <ele>2186.18</ele>
        <time>2019-09-08T06:25:13Z</time>
      </trkpt>
      <trkpt lat="42.6257838495" lon="0.9293346293">
        <ele>2185.69</ele>
        <time>2019-09-08T06:25:16Z</time>
      </trkpt>
      <trkpt lat="42.6257772278" lon="0.9293331206">
        <ele>2185.69</ele>
        <time>2019-09-08T06:25:17Z</time>
      </trkpt>
      <trkpt lat="42.6257689297" lon="0.9294000082">
        <ele>2185.21</ele>
        <time>2019-09-08T06:25:24Z</time>
      </trkpt>
      <trkpt lat="42.6257007010" lon="0.9294886887">
        <ele>2183.29</ele>
        <time>2019-09-08T06:25:36Z</time>
      </trkpt>
      <trkpt lat="42.6256860327" lon="0.9295074642">
        <ele>2182.81</ele>
        <time>2019-09-08T06:25:38Z</time>
      </trkpt>
      <trkpt lat="42.6256736275" lon="0.9295163490">
        <ele>2182.33</ele>
        <time>2019-09-08T06:25:39Z</time>
      </trkpt>
      <trkpt lat="42.6256608870" lon="0.9295189474">
        <ele>2182.33</ele>
        <time>2019-09-08T06:25:40Z</time>
      </trkpt>
      <trkpt lat="42.6255730446" lon="0.9295280837">
        <ele>2180.41</ele>
        <time>2019-09-08T06:25:49Z</time>
      </trkpt>
      <trkpt lat="42.6255320571" lon="0.9295922052">
        <ele>2178.97</ele>
        <time>2019-09-08T06:26:01Z</time>
      </trkpt>
      <trkpt lat="42.6255216636" lon="0.9296452627">
        <ele>2178.00</ele>
        <time>2019-09-08T06:26:11Z</time>
      </trkpt>
      <trkpt lat="42.6255360804" lon="0.9296409041">
        <ele>2177.52</ele>
        <time>2019-09-08T06:26:30Z</time>
      </trkpt>
      <trkpt lat="42.6255754754" lon="0.9296828136">
        <ele>2177.04</ele>
        <time>2019-09-08T06:26:46Z</time>
      </trkpt>
      <trkpt lat="42.6254927460" lon="0.9297661297">
        <ele>2178.00</ele>
        <time>2019-09-08T06:26:55Z</time>
      </trkpt>
      <trkpt lat="42.6254780777" lon="0.9297761042">
        <ele>2178.00</ele>
        <time>2019-09-08T06:26:56Z</time>
      </trkpt>
      <trkpt lat="42.6254421193" lon="0.9297979809">
        <ele>2178.48</ele>
        <time>2019-09-08T06:26:59Z</time>
      </trkpt>
      <trkpt lat="42.6253477391" lon="0.9298262279">
        <ele>2178.97</ele>
        <time>2019-09-08T06:27:09Z</time>
      </trkpt>
      <trkpt lat="42.6252666861" lon="0.9297954664">
        <ele>2179.93</ele>
        <time>2019-09-08T06:27:17Z</time>
      </trkpt>
      <trkpt lat="42.6252531074" lon="0.9297920298">
        <ele>2179.93</ele>
        <time>2019-09-08T06:27:18Z</time>
      </trkpt>
      <trkpt lat="42.6251978707" lon="0.9297164250">
        <ele>2180.41</ele>
        <time>2019-09-08T06:27:27Z</time>
      </trkpt>
      <trkpt lat="42.6251661032" lon="0.9296516329">
        <ele>2182.33</ele>
        <time>2019-09-08T06:27:38Z</time>
      </trkpt>
      <trkpt lat="42.6251166500" lon="0.9296031855">
        <ele>2182.81</ele>
        <time>2019-09-08T06:27:48Z</time>
      </trkpt>
      <trkpt lat="42.6250612456" lon="0.9295963123">
        <ele>2184.25</ele>
        <time>2019-09-08T06:27:58Z</time>
      </trkpt>
      <trkpt lat="42.6250022370" lon="0.9295670595">
        <ele>2185.21</ele>
        <time>2019-09-08T06:28:06Z</time>
      </trkpt>
      <trkpt lat="42.6249764208" lon="0.9295640420">
        <ele>2185.21</ele>
        <time>2019-09-08T06:28:09Z</time>
      </trkpt>
      <trkpt lat="42.6249656919" lon="0.9295645449">
        <ele>2185.21</ele>
        <time>2019-09-08T06:28:10Z</time>
      </trkpt>
      <trkpt lat="42.6249554660" lon="0.9295608569">
        <ele>2185.21</ele>
        <time>2019-09-08T06:28:11Z</time>
      </trkpt>
      <trkpt lat="42.6248556376" lon="0.9295238089">
        <ele>2185.21</ele>
        <time>2019-09-08T06:28:22Z</time>
      </trkpt>
      <trkpt lat="42.6247879956" lon="0.9295707475">
        <ele>2186.18</ele>
        <time>2019-09-08T06:28:32Z</time>
      </trkpt>
      <trkpt lat="42.6247310825" lon="0.9296352882">
        <ele>2187.14</ele>
        <time>2019-09-08T06:28:41Z</time>
      </trkpt>
      <trkpt lat="42.6247211080" lon="0.9296440892">
        <ele>2187.14</ele>
        <time>2019-09-08T06:28:42Z</time>
      </trkpt>
      <trkpt lat="42.6246257219" lon="0.9297382180">
        <ele>2186.18</ele>
        <time>2019-09-08T06:28:54Z</time>
      </trkpt>
      <trkpt lat="42.6245444175" lon="0.9297928680">
        <ele>2187.14</ele>
        <time>2019-09-08T06:29:05Z</time>
      </trkpt>
      <trkpt lat="42.6244747639" lon="0.9298501164">
        <ele>2187.62</ele>
        <time>2019-09-08T06:29:16Z</time>
      </trkpt>
      <trkpt lat="42.6243827306" lon="0.9298645332">
        <ele>2186.66</ele>
        <time>2019-09-08T06:29:28Z</time>
      </trkpt>
      <trkpt lat="42.6243054494" lon="0.9298881702">
        <ele>2185.21</ele>
        <time>2019-09-08T06:29:39Z</time>
      </trkpt>
      <trkpt lat="42.6242394000" lon="0.9299206082">
        <ele>2183.77</ele>
        <time>2019-09-08T06:29:50Z</time>
      </trkpt>
      <trkpt lat="42.6242249832" lon="0.9299470950">
        <ele>2183.29</ele>
        <time>2019-09-08T06:29:53Z</time>
      </trkpt>
      <trkpt lat="42.6242187805" lon="0.9299582429">
        <ele>2182.81</ele>
        <time>2019-09-08T06:29:54Z</time>
      </trkpt>
      <trkpt lat="42.6240517292" lon="0.9299611766">
        <ele>2181.37</ele>
        <time>2019-09-08T06:30:08Z</time>
      </trkpt>
      <trkpt lat="42.6239798963" lon="0.9299969673">
        <ele>2182.33</ele>
        <time>2019-09-08T06:30:19Z</time>
      </trkpt>
      <trkpt lat="42.6239719335" lon="0.9300034214">
        <ele>2182.33</ele>
        <time>2019-09-08T06:30:20Z</time>
      </trkpt>
      <trkpt lat="42.6238739491" lon="0.9300375357">
        <ele>2180.89</ele>
        <time>2019-09-08T06:30:31Z</time>
      </trkpt>
      <trkpt lat="42.6237990148" lon="0.9300651122">
        <ele>2178.97</ele>
        <time>2019-09-08T06:30:41Z</time>
      </trkpt>
      <trkpt lat="42.6237875316" lon="0.9300641064">
        <ele>2178.97</ele>
        <time>2019-09-08T06:30:42Z</time>
      </trkpt>
      <trkpt lat="42.6237637270" lon="0.9300628491">
        <ele>2177.52</ele>
        <time>2019-09-08T06:30:53Z</time>
      </trkpt>
      <trkpt lat="42.6237332169" lon="0.9300710633">
        <ele>2177.52</ele>
        <time>2019-09-08T06:31:07Z</time>
      </trkpt>
      <trkpt lat="42.6237125974" lon="0.9300835524">
        <ele>2177.52</ele>
        <time>2019-09-08T06:31:09Z</time>
      </trkpt>
      <trkpt lat="42.6237021200" lon="0.9300880786">
        <ele>2177.52</ele>
        <time>2019-09-08T06:31:10Z</time>
      </trkpt>
      <trkpt lat="42.6236906368" lon="0.9300874919">
        <ele>2177.52</ele>
        <time>2019-09-08T06:31:11Z</time>
      </trkpt>
      <trkpt lat="42.6236054767" lon="0.9300600830">
        <ele>2177.04</ele>
        <time>2019-09-08T06:31:19Z</time>
      </trkpt>
      <trkpt lat="42.6235766429" lon="0.9300828818">
        <ele>2177.52</ele>
        <time>2019-09-08T06:31:23Z</time>
      </trkpt>
      <trkpt lat="42.6235427801" lon="0.9301224444">
        <ele>2178.48</ele>
        <time>2019-09-08T06:31:29Z</time>
      </trkpt>
      <trkpt lat="42.6235208195" lon="0.9301662818">
        <ele>2178.97</ele>
        <time>2019-09-08T06:31:33Z</time>
      </trkpt>
      <trkpt lat="42.6235112641" lon="0.9301801119">
        <ele>2178.97</ele>
        <time>2019-09-08T06:31:34Z</time>
      </trkpt>
      <trkpt lat="42.6234739646" lon="0.9301953670">
        <ele>2179.45</ele>
        <time>2019-09-08T06:31:38Z</time>
      </trkpt>
      <trkpt lat="42.6233711187" lon="0.9302250389">
        <ele>2178.00</ele>
        <time>2019-09-08T06:31:50Z</time>
      </trkpt>
      <trkpt lat="42.6233462244" lon="0.9302430600">
        <ele>2178.00</ele>
        <time>2019-09-08T06:31:53Z</time>
      </trkpt>
      <trkpt lat="42.6233362500" lon="0.9302546270">
        <ele>2178.00</ele>
        <time>2019-09-08T06:31:54Z</time>
      </trkpt>
      <trkpt lat="42.6232494973" lon="0.9303596523">
        <ele>2176.56</ele>
        <time>2019-09-08T06:32:06Z</time>
      </trkpt>
      <trkpt lat="42.6231902372" lon="0.9304359276">
        <ele>2176.08</ele>
        <time>2019-09-08T06:32:18Z</time>
      </trkpt>
      <trkpt lat="42.6231510937" lon="0.9304756578">
        <ele>2176.08</ele>
        <time>2019-09-08T06:32:24Z</time>
      </trkpt>
      <trkpt lat="42.6231095195" lon="0.9305560403">
        <ele>2177.04</ele>
        <time>2019-09-08T06:32:33Z</time>
      </trkpt>
      <trkpt lat="42.6230942644" lon="0.9306291305">
        <ele>2178.00</ele>
        <time>2019-09-08T06:32:41Z</time>
      </trkpt>
      <trkpt lat="42.6230349205" lon="0.9307132848">
        <ele>2178.97</ele>
        <time>2019-09-08T06:32:51Z</time>
      </trkpt>
      <trkpt lat="42.6230242755" lon="0.9307166375">
        <ele>2178.97</ele>
        <time>2019-09-08T06:32:52Z</time>
      </trkpt>
      <trkpt lat="42.6230166480" lon="0.9307546075">
        <ele>2178.97</ele>
        <time>2019-09-08T06:32:55Z</time>
      </trkpt>
      <trkpt lat="42.6230094396" lon="0.9308914002">
        <ele>2177.04</ele>
        <time>2019-09-08T06:33:07Z</time>
      </trkpt>
      <trkpt lat="42.6230092719" lon="0.9308901429">
        <ele>2178.00</ele>
        <time>2019-09-08T06:33:09Z</time>
      </trkpt>
      <trkpt lat="42.6229828689" lon="0.9309368301">
        <ele>2178.00</ele>
        <time>2019-09-08T06:33:30Z</time>
      </trkpt>
      <trkpt lat="42.6229636744" lon="0.9309974313">
        <ele>2178.48</ele>
        <time>2019-09-08T06:33:36Z</time>
      </trkpt>
      <trkpt lat="42.6229208428" lon="0.9310714435">
        <ele>2180.41</ele>
        <time>2019-09-08T06:33:46Z</time>
      </trkpt>
      <trkpt lat="42.6229354274" lon="0.9311161190">
        <ele>2181.37</ele>
        <time>2019-09-08T06:33:50Z</time>
      </trkpt>
      <trkpt lat="42.6229532808" lon="0.9311519098">
        <ele>2181.85</ele>
        <time>2019-09-08T06:33:53Z</time>
      </trkpt>
      <trkpt lat="42.6229522750" lon="0.9311664943">
        <ele>2182.33</ele>
        <time>2019-09-08T06:33:54Z</time>
      </trkpt>
      <trkpt lat="42.6229505986" lon="0.9313148540">
        <ele>2183.29</ele>
        <time>2019-09-08T06:34:04Z</time>
      </trkpt>
      <trkpt lat="42.6229246985" lon="0.9314047080">
        <ele>2184.25</ele>
        <time>2019-09-08T06:34:12Z</time>
      </trkpt>
      <trkpt lat="42.6228664443" lon="0.9315220546">
        <ele>2186.18</ele>
        <time>2019-09-08T06:34:23Z</time>
      </trkpt>
      <trkpt lat="42.6228127163" lon="0.9316043649">
        <ele>2187.14</ele>
        <time>2019-09-08T06:34:33Z</time>
      </trkpt>
      <trkpt lat="42.6227924321" lon="0.9316533990">
        <ele>2187.62</ele>
        <time>2019-09-08T06:34:37Z</time>
      </trkpt>
      <trkpt lat="42.6227329206" lon="0.9317423310">
        <ele>2188.58</ele>
        <time>2019-09-08T06:34:47Z</time>
      </trkpt>
      <trkpt lat="42.6227227785" lon="0.9317663871">
        <ele>2188.58</ele>
        <time>2019-09-08T06:34:50Z</time>
      </trkpt>
      <trkpt lat="42.6227071881" lon="0.9318024293">
        <ele>2188.58</ele>
        <time>2019-09-08T06:34:54Z</time>
      </trkpt>
      <trkpt lat="42.6227011532" lon="0.9318155050">
        <ele>2188.58</ele>
        <time>2019-09-08T06:34:55Z</time>
      </trkpt>
      <trkpt lat="42.6226936094" lon="0.9318273235">
        <ele>2188.58</ele>
        <time>2019-09-08T06:34:56Z</time>
      </trkpt>
      <trkpt lat="42.6226723194" lon="0.9318759385">
        <ele>2188.10</ele>
        <time>2019-09-08T06:35:02Z</time>
      </trkpt>
      <trkpt lat="42.6226543821" lon="0.9319284931">
        <ele>2187.62</ele>
        <time>2019-09-08T06:35:06Z</time>
      </trkpt>
      <trkpt lat="42.6226497721" lon="0.9319462627">
        <ele>2187.62</ele>
        <time>2019-09-08T06:35:07Z</time>
      </trkpt>
      <trkpt lat="42.6226395462" lon="0.9319595899">
        <ele>2187.62</ele>
        <time>2019-09-08T06:35:08Z</time>
      </trkpt>
      <trkpt lat="42.6226208545" lon="0.9319753479">
        <ele>2187.62</ele>
        <time>2019-09-08T06:35:10Z</time>
      </trkpt>
      <trkpt lat="42.6226135623" lon="0.9319891781">
        <ele>2187.62</ele>
        <time>2019-09-08T06:35:11Z</time>
      </trkpt>
      <trkpt lat="42.6226031687" lon="0.9320030082">
        <ele>2187.62</ele>
        <time>2019-09-08T06:35:12Z</time>
      </trkpt>
      <trkpt lat="42.6225905959" lon="0.9320125636">
        <ele>2187.62</ele>
        <time>2019-09-08T06:35:13Z</time>
      </trkpt>
      <trkpt lat="42.6225773524" lon="0.9320189338">
        <ele>2187.62</ele>
        <time>2019-09-08T06:35:14Z</time>
      </trkpt>
      <trkpt lat="42.6225657854" lon="0.9320241306">
        <ele>2187.14</ele>
        <time>2019-09-08T06:35:15Z</time>
      </trkpt>
      <trkpt lat="42.6224600058" lon="0.9320745058">
        <ele>2186.66</ele>
        <time>2019-09-08T06:35:26Z</time>
      </trkpt>
      <trkpt lat="42.6223134063" lon="0.9321377054">
        <ele>2185.21</ele>
        <time>2019-09-08T06:35:38Z</time>
      </trkpt>
      <trkpt lat="42.6222056989" lon="0.9321507812">
        <ele>2185.21</ele>
        <time>2019-09-08T06:35:48Z</time>
      </trkpt>
      <trkpt lat="42.6221941318" lon="0.9321580734">
        <ele>2185.69</ele>
        <time>2019-09-08T06:35:49Z</time>
      </trkpt>
      <trkpt lat="42.6221821457" lon="0.9321675450">
        <ele>2185.69</ele>
        <time>2019-09-08T06:35:50Z</time>
      </trkpt>
      <trkpt lat="42.6221702434" lon="0.9321760945">
        <ele>2185.69</ele>
        <time>2019-09-08T06:35:51Z</time>
      </trkpt>
      <trkpt lat="42.6221600175" lon="0.9321843926">
        <ele>2185.69</ele>
        <time>2019-09-08T06:35:52Z</time>
      </trkpt>
      <trkpt lat="42.6221512165" lon="0.9321920201">
        <ele>2185.69</ele>
        <time>2019-09-08T06:35:53Z</time>
      </trkpt>
      <trkpt lat="42.6220931299" lon="0.9322558064">
        <ele>2185.69</ele>
        <time>2019-09-08T06:36:02Z</time>
      </trkpt>
      <trkpt lat="42.6220477000" lon="0.9322765097">
        <ele>2184.73</ele>
        <time>2019-09-08T06:36:13Z</time>
      </trkpt>
      <trkpt lat="42.6220377255" lon="0.9322957043">
        <ele>2184.73</ele>
        <time>2019-09-08T06:36:15Z</time>
      </trkpt>
      <trkpt lat="42.6220350433" lon="0.9323094506">
        <ele>2184.73</ele>
        <time>2019-09-08T06:36:16Z</time>
      </trkpt>
      <trkpt lat="42.6220161840" lon="0.9324842971">
        <ele>2183.29</ele>
        <time>2019-09-08T06:36:28Z</time>
      </trkpt>
      <trkpt lat="42.6219793875" lon="0.9326735605">
        <ele>2182.33</ele>
        <time>2019-09-08T06:36:40Z</time>
      </trkpt>
      <trkpt lat="42.6219685748" lon="0.9326866362">
        <ele>2182.33</ele>
        <time>2019-09-08T06:36:41Z</time>
      </trkpt>
      <trkpt lat="42.6219567563" lon="0.9326984547">
        <ele>2181.85</ele>
        <time>2019-09-08T06:36:42Z</time>
      </trkpt>
      <trkpt lat="42.6218928862" lon="0.9328629076">
        <ele>2180.89</ele>
        <time>2019-09-08T06:36:54Z</time>
      </trkpt>
      <trkpt lat="42.6218812354" lon="0.9328861255">
        <ele>2180.89</ele>
        <time>2019-09-08T06:36:56Z</time>
      </trkpt>
      <trkpt lat="42.6218334585" lon="0.9329307172">
        <ele>2181.37</ele>
        <time>2019-09-08T06:37:06Z</time>
      </trkpt>
      <trkpt lat="42.6218209695" lon="0.9329567850">
        <ele>2181.37</ele>
        <time>2019-09-08T06:37:14Z</time>
      </trkpt>
      <trkpt lat="42.6218130905" lon="0.9329683520">
        <ele>2181.37</ele>
        <time>2019-09-08T06:37:15Z</time>
      </trkpt>
      <trkpt lat="42.6218028646" lon="0.9329783265">
        <ele>2181.37</ele>
        <time>2019-09-08T06:37:16Z</time>
      </trkpt>
      <trkpt lat="42.6217051316" lon="0.9330886323">
        <ele>2180.89</ele>
        <time>2019-09-08T06:37:27Z</time>
      </trkpt>
      <trkpt lat="42.6216320414" lon="0.9331610519">
        <ele>2180.89</ele>
        <time>2019-09-08T06:37:35Z</time>
      </trkpt>
      <trkpt lat="42.6216023695" lon="0.9332429431">
        <ele>2180.89</ele>
        <time>2019-09-08T06:37:43Z</time>
      </trkpt>
      <trkpt lat="42.6215946581" lon="0.9332536720">
        <ele>2180.41</ele>
        <time>2019-09-08T06:37:44Z</time>
      </trkpt>
      <trkpt lat="42.6215265971" lon="0.9333524108">
        <ele>2179.45</ele>
        <time>2019-09-08T06:37:53Z</time>
      </trkpt>
      <trkpt lat="42.6215062290" lon="0.9333705157">
        <ele>2178.97</ele>
        <time>2019-09-08T06:37:56Z</time>
      </trkpt>
      <trkpt lat="42.6214970089" lon="0.9333794843">
        <ele>2178.97</ele>
        <time>2019-09-08T06:37:57Z</time>
      </trkpt>
      <trkpt lat="42.6214861125" lon="0.9333887883">
        <ele>2178.97</ele>
        <time>2019-09-08T06:37:58Z</time>
      </trkpt>
      <trkpt lat="42.6214768924" lon="0.9334013611">
        <ele>2178.48</ele>
        <time>2019-09-08T06:37:59Z</time>
      </trkpt>
      <trkpt lat="42.6214729529" lon="0.9334129281">
        <ele>2178.48</ele>
        <time>2019-09-08T06:38:00Z</time>
      </trkpt>
      <trkpt lat="42.6214278582" lon="0.9335627127">
        <ele>2178.00</ele>
        <time>2019-09-08T06:38:11Z</time>
      </trkpt>
      <trkpt lat="42.6213569473" lon="0.9336601105">
        <ele>2178.97</ele>
        <time>2019-09-08T06:38:19Z</time>
      </trkpt>
      <trkpt lat="42.6213360764" lon="0.9336798079">
        <ele>2178.97</ele>
        <time>2019-09-08T06:38:22Z</time>
      </trkpt>
      <trkpt lat="42.6213162951" lon="0.9337091446">
        <ele>2178.97</ele>
        <time>2019-09-08T06:38:25Z</time>
      </trkpt>
      <trkpt lat="42.6213097572" lon="0.9337192867">
        <ele>2178.97</ele>
        <time>2019-09-08T06:38:26Z</time>
      </trkpt>
      <trkpt lat="42.6213053148" lon="0.9337280877">
        <ele>2178.97</ele>
        <time>2019-09-08T06:38:27Z</time>
      </trkpt>
      <trkpt lat="42.6212983578" lon="0.9337399062">
        <ele>2178.97</ele>
        <time>2019-09-08T06:38:28Z</time>
      </trkpt>
      <trkpt lat="42.6212903950" lon="0.9337530658">
        <ele>2178.97</ele>
        <time>2019-09-08T06:38:29Z</time>
      </trkpt>
      <trkpt lat="42.6212438755" lon="0.9338387288">
        <ele>2178.48</ele>
        <time>2019-09-08T06:38:37Z</time>
      </trkpt>
      <trkpt lat="42.6212000381" lon="0.9339085501">
        <ele>2177.52</ele>
        <time>2019-09-08T06:38:45Z</time>
      </trkpt>
      <trkpt lat="42.6210923307" lon="0.9340255614">
        <ele>2175.60</ele>
        <time>2019-09-08T06:38:57Z</time>
      </trkpt>
      <trkpt lat="42.6209868863" lon="0.9341359511">
        <ele>2174.64</ele>
        <time>2019-09-08T06:39:09Z</time>
      </trkpt>
      <trkpt lat="42.6208927575" lon="0.9342527948">
        <ele>2175.60</ele>
        <time>2019-09-08T06:39:20Z</time>
      </trkpt>
      <trkpt lat="42.6208130457" lon="0.9343607537">
        <ele>2176.56</ele>
        <time>2019-09-08T06:39:30Z</time>
      </trkpt>
      <trkpt lat="42.6208067592" lon="0.9343755059">
        <ele>2176.56</ele>
        <time>2019-09-08T06:39:31Z</time>
      </trkpt>
      <trkpt lat="42.6207987126" lon="0.9343880787">
        <ele>2176.56</ele>
        <time>2019-09-08T06:39:32Z</time>
      </trkpt>
      <trkpt lat="42.6207910851" lon="0.9344002325">
        <ele>2177.04</ele>
        <time>2019-09-08T06:39:33Z</time>
      </trkpt>
      <trkpt lat="42.6207831223" lon="0.9344105422">
        <ele>2177.04</ele>
        <time>2019-09-08T06:39:34Z</time>
      </trkpt>
      <trkpt lat="42.6207338367" lon="0.9345076885">
        <ele>2178.48</ele>
        <time>2019-09-08T06:39:43Z</time>
      </trkpt>
      <trkpt lat="42.6207206771" lon="0.9345257096">
        <ele>2178.48</ele>
        <time>2019-09-08T06:39:45Z</time>
      </trkpt>
      <trkpt lat="42.6206867304" lon="0.9346431401">
        <ele>2178.97</ele>
        <time>2019-09-08T06:39:55Z</time>
      </trkpt>
      <trkpt lat="42.6206685416" lon="0.9346613288">
        <ele>2179.45</ele>
        <time>2019-09-08T06:39:57Z</time>
      </trkpt>
      <trkpt lat="42.6206185855" lon="0.9347610734">
        <ele>2181.37</ele>
        <time>2019-09-08T06:40:08Z</time>
      </trkpt>
      <trkpt lat="42.6205285639" lon="0.9348632488">
        <ele>2182.81</ele>
        <time>2019-09-08T06:40:22Z</time>
      </trkpt>
      <trkpt lat="42.6204522047" lon="0.9349406138">
        <ele>2183.77</ele>
        <time>2019-09-08T06:40:33Z</time>
      </trkpt>
      <trkpt lat="42.6203962974" lon="0.9349798411">
        <ele>2184.73</ele>
        <time>2019-09-08T06:40:44Z</time>
      </trkpt>
      <trkpt lat="42.6203670446" lon="0.9350599721">
        <ele>2185.69</ele>
        <time>2019-09-08T06:40:55Z</time>
      </trkpt>
      <trkpt lat="42.6203367859" lon="0.9351094253">
        <ele>2185.21</ele>
        <time>2019-09-08T06:41:06Z</time>
      </trkpt>
      <trkpt lat="42.6203204412" lon="0.9351389296">
        <ele>2184.25</ele>
        <time>2019-09-08T06:41:16Z</time>
      </trkpt>
      <trkpt lat="42.6202656236" lon="0.9351928253">
        <ele>2183.29</ele>
        <time>2019-09-08T06:41:23Z</time>
      </trkpt>
      <trkpt lat="42.6201787870" lon="0.9352642391">
        <ele>2181.37</ele>
        <time>2019-09-08T06:41:34Z</time>
      </trkpt>
      <trkpt lat="42.6201291662" lon="0.9353204817">
        <ele>2179.45</ele>
        <time>2019-09-08T06:41:42Z</time>
      </trkpt>
      <trkpt lat="42.6201216225" lon="0.9353326354">
        <ele>2179.45</ele>
        <time>2019-09-08T06:41:43Z</time>
      </trkpt>
      <trkpt lat="42.6201129053" lon="0.9353431128">
        <ele>2178.97</ele>
        <time>2019-09-08T06:41:44Z</time>
      </trkpt>
      <trkpt lat="42.6200342830" lon="0.9353951644">
        <ele>2178.00</ele>
        <time>2019-09-08T06:41:51Z</time>
      </trkpt>
      <trkpt lat="42.6200223807" lon="0.9353979304">
        <ele>2178.00</ele>
        <time>2019-09-08T06:41:52Z</time>
      </trkpt>
      <trkpt lat="42.6199201215" lon="0.9354598727">
        <ele>2177.52</ele>
        <time>2019-09-08T06:42:03Z</time>
      </trkpt>
      <trkpt lat="42.6198324468" lon="0.9355122596">
        <ele>2177.04</ele>
        <time>2019-09-08T06:42:11Z</time>
      </trkpt>
      <trkpt lat="42.6198214665" lon="0.9355078172">
        <ele>2177.04</ele>
        <time>2019-09-08T06:42:12Z</time>
      </trkpt>
      <trkpt lat="42.6197562553" lon="0.9355405904">
        <ele>2178.00</ele>
        <time>2019-09-08T06:42:19Z</time>
      </trkpt>
      <trkpt lat="42.6197415870" lon="0.9355395846">
        <ele>2178.00</ele>
        <time>2019-09-08T06:42:20Z</time>
      </trkpt>
      <trkpt lat="42.6197234821" lon="0.9355410933">
        <ele>2178.00</ele>
        <time>2019-09-08T06:42:21Z</time>
      </trkpt>
      <trkpt lat="42.6197104901" lon="0.9355426859">
        <ele>2178.00</ele>
        <time>2019-09-08T06:42:22Z</time>
      </trkpt>
      <trkpt lat="42.6196973305" lon="0.9355436917">
        <ele>2178.48</ele>
        <time>2019-09-08T06:42:23Z</time>
      </trkpt>
      <trkpt lat="42.6196825784" lon="0.9355434403">
        <ele>2178.48</ele>
        <time>2019-09-08T06:42:24Z</time>
      </trkpt>
      <trkpt lat="42.6196705922" lon="0.9355420992">
        <ele>2178.48</ele>
        <time>2019-09-08T06:42:25Z</time>
      </trkpt>
      <trkpt lat="42.6195783075" lon="0.9355836734">
        <ele>2180.89</ele>
        <time>2019-09-08T06:42:36Z</time>
      </trkpt>
      <trkpt lat="42.6195260882" lon="0.9356635530">
        <ele>2182.33</ele>
        <time>2019-09-08T06:42:45Z</time>
      </trkpt>
      <trkpt lat="42.6195174549" lon="0.9356797300">
        <ele>2182.33</ele>
        <time>2019-09-08T06:42:46Z</time>
      </trkpt>
      <trkpt lat="42.6195077319" lon="0.9356969129">
        <ele>2182.33</ele>
        <time>2019-09-08T06:42:47Z</time>
      </trkpt>
      <trkpt lat="42.6194889564" lon="0.9357559215">
        <ele>2181.85</ele>
        <time>2019-09-08T06:42:53Z</time>
      </trkpt>
      <trkpt lat="42.6194826700" lon="0.9357927181">
        <ele>2181.37</ele>
        <time>2019-09-08T06:42:56Z</time>
      </trkpt>
      <trkpt lat="42.6194772217" lon="0.9358056262">
        <ele>2181.37</ele>
        <time>2019-09-08T06:42:57Z</time>
      </trkpt>
      <trkpt lat="42.6194718573" lon="0.9358181152">
        <ele>2181.37</ele>
        <time>2019-09-08T06:42:58Z</time>
      </trkpt>
      <trkpt lat="42.6194151118" lon="0.9358819854">
        <ele>2180.41</ele>
        <time>2019-09-08T06:43:06Z</time>
      </trkpt>
      <trkpt lat="42.6194006950" lon="0.9358949773">
        <ele>2179.93</ele>
        <time>2019-09-08T06:43:08Z</time>
      </trkpt>
      <trkpt lat="42.6193938218" lon="0.9359035268">
        <ele>2179.45</ele>
        <time>2019-09-08T06:43:09Z</time>
      </trkpt>
      <trkpt lat="42.6193928998" lon="0.9359173570">
        <ele>2179.45</ele>
        <time>2019-09-08T06:43:10Z</time>
      </trkpt>
      <trkpt lat="42.6193690114" lon="0.9359349590">
        <ele>2178.97</ele>
        <time>2019-09-08T06:43:13Z</time>
      </trkpt>
      <trkpt lat="42.6193434466" lon="0.9359535668">
        <ele>2178.97</ele>
        <time>2019-09-08T06:43:16Z</time>
      </trkpt>
      <trkpt lat="42.6193388365" lon="0.9359648824">
        <ele>2178.97</ele>
        <time>2019-09-08T06:43:17Z</time>
      </trkpt>
      <trkpt lat="42.6193340588" lon="0.9359798022">
        <ele>2178.97</ele>
        <time>2019-09-08T06:43:18Z</time>
      </trkpt>
      <trkpt lat="42.6193270180" lon="0.9359919559">
        <ele>2178.97</ele>
        <time>2019-09-08T06:43:19Z</time>
      </trkpt>
      <trkpt lat="42.6192793250" lon="0.9360595141">
        <ele>2178.48</ele>
        <time>2019-09-08T06:43:26Z</time>
      </trkpt>
      <trkpt lat="42.6192727033" lon="0.9360870067">
        <ele>2178.00</ele>
        <time>2019-09-08T06:43:28Z</time>
      </trkpt>
      <trkpt lat="42.6192447077" lon="0.9361195285">
        <ele>2178.00</ele>
        <time>2019-09-08T06:43:31Z</time>
      </trkpt>
      <trkpt lat="42.6191705279" lon="0.9361944627">
        <ele>2177.52</ele>
        <time>2019-09-08T06:43:40Z</time>
      </trkpt>
      <trkpt lat="42.6191545185" lon="0.9362155851">
        <ele>2177.52</ele>
        <time>2019-09-08T06:43:42Z</time>
      </trkpt>
      <trkpt lat="42.6191188116" lon="0.9363194369">
        <ele>2178.00</ele>
        <time>2019-09-08T06:43:52Z</time>
      </trkpt>
      <trkpt lat="42.6190927438" lon="0.9363608435">
        <ele>2178.48</ele>
        <time>2019-09-08T06:44:00Z</time>
      </trkpt>
      <trkpt lat="42.6190725435" lon="0.9363694768">
        <ele>2178.97</ele>
        <time>2019-09-08T06:44:17Z</time>
      </trkpt>
      <trkpt lat="42.6190479845" lon="0.9364549723">
        <ele>2179.45</ele>
        <time>2019-09-08T06:44:26Z</time>
      </trkpt>
      <trkpt lat="42.6189717930" lon="0.9365173336">
        <ele>2179.93</ele>
        <time>2019-09-08T06:44:39Z</time>
      </trkpt>
      <trkpt lat="42.6189576276" lon="0.9365537949">
        <ele>2180.41</ele>
        <time>2019-09-08T06:44:42Z</time>
      </trkpt>
      <trkpt lat="42.6189489104" lon="0.9365660325">
        <ele>2180.41</ele>
        <time>2019-09-08T06:44:43Z</time>
      </trkpt>
      <trkpt lat="42.6189413667" lon="0.9365779348">
        <ele>2180.41</ele>
        <time>2019-09-08T06:44:44Z</time>
      </trkpt>
      <trkpt lat="42.6188551169" lon="0.9366456605">
        <ele>2181.37</ele>
        <time>2019-09-08T06:44:55Z</time>
      </trkpt>
      <trkpt lat="42.6188089326" lon="0.9366843011">
        <ele>2182.33</ele>
        <time>2019-09-08T06:45:01Z</time>
      </trkpt>
      <trkpt lat="42.6187807694" lon="0.9367744066">
        <ele>2182.33</ele>
        <time>2019-09-08T06:45:08Z</time>
      </trkpt>
      <trkpt lat="42.6187772490" lon="0.9368623327">
        <ele>2182.81</ele>
        <time>2019-09-08T06:45:15Z</time>
      </trkpt>
      <trkpt lat="42.6187816076" lon="0.9368784260">
        <ele>2182.81</ele>
        <time>2019-09-08T06:45:16Z</time>
      </trkpt>
      <trkpt lat="42.6187718846" lon="0.9369630832">
        <ele>2182.81</ele>
        <time>2019-09-08T06:45:22Z</time>
      </trkpt>
      <trkpt lat="42.6186887361" lon="0.9370225947">
        <ele>2183.77</ele>
        <time>2019-09-08T06:45:31Z</time>
      </trkpt>
      <trkpt lat="42.6186832879" lon="0.9370350000">
        <ele>2183.77</ele>
        <time>2019-09-08T06:45:32Z</time>
      </trkpt>
      <trkpt lat="42.6186816953" lon="0.9370509256">
        <ele>2183.77</ele>
        <time>2019-09-08T06:45:33Z</time>
      </trkpt>
      <trkpt lat="42.6186726429" lon="0.9370980319">
        <ele>2183.77</ele>
        <time>2019-09-08T06:45:36Z</time>
      </trkpt>
      <trkpt lat="42.6186668593" lon="0.9371129517">
        <ele>2184.25</ele>
        <time>2019-09-08T06:45:37Z</time>
      </trkpt>
      <trkpt lat="42.6186605729" lon="0.9371252730">
        <ele>2184.25</ele>
        <time>2019-09-08T06:45:38Z</time>
      </trkpt>
      <trkpt lat="42.6186514366" lon="0.9371472336">
        <ele>2184.25</ele>
        <time>2019-09-08T06:45:40Z</time>
      </trkpt>
      <trkpt lat="42.6186106168" lon="0.9372265264">
        <ele>2185.21</ele>
        <time>2019-09-08T06:45:48Z</time>
      </trkpt>
      <trkpt lat="42.6186081022" lon="0.9372567851">
        <ele>2185.21</ele>
        <time>2019-09-08T06:45:50Z</time>
      </trkpt>
      <trkpt lat="42.6185978763" lon="0.9372993652">
        <ele>2185.69</ele>
        <time>2019-09-08T06:45:54Z</time>
      </trkpt>
      <trkpt lat="42.6185896620" lon="0.9373091720">
        <ele>2185.69</ele>
        <time>2019-09-08T06:45:55Z</time>
      </trkpt>
      <trkpt lat="42.6185838785" lon="0.9373243432">
        <ele>2185.69</ele>
        <time>2019-09-08T06:45:56Z</time>
      </trkpt>
      <trkpt lat="42.6185423881" lon="0.9373916499">
        <ele>2186.66</ele>
        <time>2019-09-08T06:46:02Z</time>
      </trkpt>
      <trkpt lat="42.6185202599" lon="0.9374161251">
        <ele>2187.14</ele>
        <time>2019-09-08T06:46:05Z</time>
      </trkpt>
      <trkpt lat="42.6184402127" lon="0.9374850243">
        <ele>2188.10</ele>
        <time>2019-09-08T06:46:15Z</time>
      </trkpt>
      <trkpt lat="42.6184335072" lon="0.9375143610">
        <ele>2188.58</ele>
        <time>2019-09-08T06:46:17Z</time>
      </trkpt>
      <trkpt lat="42.6184276398" lon="0.9375272691">
        <ele>2188.58</ele>
        <time>2019-09-08T06:46:18Z</time>
      </trkpt>
      <trkpt lat="42.6184202638" lon="0.9375341423">
        <ele>2188.58</ele>
        <time>2019-09-08T06:46:19Z</time>
      </trkpt>
      <trkpt lat="42.6183559746" lon="0.9375708550">
        <ele>2189.54</ele>
        <time>2019-09-08T06:46:27Z</time>
      </trkpt>
      <trkpt lat="42.6182955410" lon="0.9376218170">
        <ele>2191.46</ele>
        <time>2019-09-08T06:46:35Z</time>
      </trkpt>
      <trkpt lat="42.6182563975" lon="0.9376651514">
        <ele>2192.42</ele>
        <time>2019-09-08T06:46:43Z</time>
      </trkpt>
      <trkpt lat="42.6182136498" lon="0.9377227351">
        <ele>2194.35</ele>
        <time>2019-09-08T06:46:55Z</time>
      </trkpt>
      <trkpt lat="42.6181794517" lon="0.9377809055">
        <ele>2196.27</ele>
        <time>2019-09-08T06:47:05Z</time>
      </trkpt>
      <trkpt lat="42.6181211974" lon="0.9378938098">
        <ele>2198.19</ele>
        <time>2019-09-08T06:47:19Z</time>
      </trkpt>
      <trkpt lat="42.6180906035" lon="0.9379234817">
        <ele>2199.15</ele>
        <time>2019-09-08T06:47:24Z</time>
      </trkpt>
      <trkpt lat="42.6180719957" lon="0.9379309416">
        <ele>2199.15</ele>
        <time>2019-09-08T06:47:26Z</time>
      </trkpt>
      <trkpt lat="42.6180061139" lon="0.9379544947">
        <ele>2200.11</ele>
        <time>2019-09-08T06:47:35Z</time>
      </trkpt>
      <trkpt lat="42.6179703232" lon="0.9380170237">
        <ele>2202.04</ele>
        <time>2019-09-08T06:47:44Z</time>
      </trkpt>
      <trkpt lat="42.6179756038" lon="0.9381441772">
        <ele>2203.00</ele>
        <time>2019-09-08T06:47:57Z</time>
      </trkpt>
      <trkpt lat="42.6179414056" lon="0.9381984081">
        <ele>2204.44</ele>
        <time>2019-09-08T06:48:07Z</time>
      </trkpt>
      <trkpt lat="42.6179072075" lon="0.9383204486">
        <ele>2206.36</ele>
        <time>2019-09-08T06:48:19Z</time>
      </trkpt>
      <trkpt lat="42.6178680640" lon="0.9383947123">
        <ele>2207.81</ele>
        <time>2019-09-08T06:48:29Z</time>
      </trkpt>
      <trkpt lat="42.6178134978" lon="0.9383906890">
        <ele>2209.73</ele>
        <time>2019-09-08T06:48:41Z</time>
      </trkpt>
      <trkpt lat="42.6177645475" lon="0.9383522160">
        <ele>2211.65</ele>
        <time>2019-09-08T06:48:51Z</time>
      </trkpt>
      <trkpt lat="42.6176947262" lon="0.9383130725">
        <ele>2213.09</ele>
        <time>2019-09-08T06:49:02Z</time>
      </trkpt>
      <trkpt lat="42.6176561695" lon="0.9382554889">
        <ele>2213.57</ele>
        <time>2019-09-08T06:49:13Z</time>
      </trkpt>
      <trkpt lat="42.6176611148" lon="0.9382615238">
        <ele>2214.05</ele>
        <time>2019-09-08T06:49:34Z</time>
      </trkpt>
      <trkpt lat="42.6176640484" lon="0.9382616077">
        <ele>2213.57</ele>
        <time>2019-09-08T06:49:46Z</time>
      </trkpt>
      <trkpt lat="42.6176622044" lon="0.9382606018">
        <ele>2212.61</ele>
        <time>2019-09-08T06:50:04Z</time>
      </trkpt>
      <trkpt lat="42.6176649705" lon="0.9382613562">
        <ele>2212.61</ele>
        <time>2019-09-08T06:50:29Z</time>
      </trkpt>
      <trkpt lat="42.6176568400" lon="0.9382613562">
        <ele>2212.61</ele>
        <time>2019-09-08T06:50:56Z</time>
      </trkpt>
      <trkpt lat="42.6176563371" lon="0.9382588416">
        <ele>2211.17</ele>
        <time>2019-09-08T06:51:16Z</time>
      </trkpt>
      <trkpt lat="42.6176498830" lon="0.9382722527">
        <ele>2212.61</ele>
        <time>2019-09-08T06:51:47Z</time>
      </trkpt>
      <trkpt lat="42.6176446863" lon="0.9382723365">
        <ele>2212.61</ele>
        <time>2019-09-08T06:52:02Z</time>
      </trkpt>
      <trkpt lat="42.6176482905" lon="0.9382725880">
        <ele>2212.61</ele>
        <time>2019-09-08T06:52:17Z</time>
      </trkpt>
      <trkpt lat="42.6176549960" lon="0.9382692352">
        <ele>2212.61</ele>
        <time>2019-09-08T06:52:38Z</time>
      </trkpt>
      <trkpt lat="42.6176448539" lon="0.9382584225">
        <ele>2212.61</ele>
        <time>2019-09-08T06:52:56Z</time>
      </trkpt>
      <trkpt lat="42.6175933052" lon="0.9382400662">
        <ele>2212.61</ele>
        <time>2019-09-08T06:53:07Z</time>
      </trkpt>
      <trkpt lat="42.6175518986" lon="0.9382418264">
        <ele>2212.61</ele>
        <time>2019-09-08T06:53:16Z</time>
      </trkpt>
      <trkpt lat="42.6175462827" lon="0.9382353723">
        <ele>2215.98</ele>
        <time>2019-09-08T06:53:17Z</time>
      </trkpt>
      <trkpt lat="42.6175422594" lon="0.9382304270">
        <ele>2215.98</ele>
        <time>2019-09-08T06:53:18Z</time>
      </trkpt>
      <trkpt lat="42.6175197959" lon="0.9382949676">
        <ele>2217.42</ele>
        <time>2019-09-08T06:53:30Z</time>
      </trkpt>
      <trkpt lat="42.6175357215" lon="0.9383634478">
        <ele>2218.86</ele>
        <time>2019-09-08T06:53:42Z</time>
      </trkpt>
      <trkpt lat="42.6175615378" lon="0.9384290781">
        <ele>2219.82</ele>
        <time>2019-09-08T06:53:52Z</time>
      </trkpt>
      <trkpt lat="42.6175042894" lon="0.9384737536">
        <ele>2221.26</ele>
        <time>2019-09-08T06:54:02Z</time>
      </trkpt>
      <trkpt lat="42.6174248289" lon="0.9385085385">
        <ele>2222.71</ele>
        <time>2019-09-08T06:54:13Z</time>
      </trkpt>
      <trkpt lat="42.6173546724" lon="0.9385465086">
        <ele>2224.63</ele>
        <time>2019-09-08T06:54:24Z</time>
      </trkpt>
      <trkpt lat="42.6172902156" lon="0.9386003204">
        <ele>2225.59</ele>
        <time>2019-09-08T06:54:33Z</time>
      </trkpt>
      <trkpt lat="42.6172534190" lon="0.9386195149">
        <ele>2226.07</ele>
        <time>2019-09-08T06:54:38Z</time>
      </trkpt>
      <trkpt lat="42.6171751320" lon="0.9386729915">
        <ele>2226.55</ele>
        <time>2019-09-08T06:54:49Z</time>
      </trkpt>
      <trkpt lat="42.6170583721" lon="0.9387301560">
        <ele>2227.51</ele>
        <time>2019-09-08T06:55:02Z</time>
      </trkpt>
      <trkpt lat="42.6168728806" lon="0.9388035815">
        <ele>2227.03</ele>
        <time>2019-09-08T06:55:17Z</time>
      </trkpt>
      <trkpt lat="42.6168603078" lon="0.9388099518">
        <ele>2227.03</ele>
        <time>2019-09-08T06:55:18Z</time>
      </trkpt>
      <trkpt lat="42.6168475673" lon="0.9388092812">
        <ele>2227.03</ele>
        <time>2019-09-08T06:55:19Z</time>
      </trkpt>
      <trkpt lat="42.6168334018" lon="0.9388103709">
        <ele>2227.03</ele>
        <time>2019-09-08T06:55:20Z</time>
      </trkpt>
      <trkpt lat="42.6168199070" lon="0.9388076048">
        <ele>2227.03</ele>
        <time>2019-09-08T06:55:21Z</time>
      </trkpt>
      <trkpt lat="42.6167477388" lon="0.9388023242">
        <ele>2227.03</ele>
        <time>2019-09-08T06:55:27Z</time>
      </trkpt>
      <trkpt lat="42.6166970283" lon="0.9387942776">
        <ele>2227.51</ele>
        <time>2019-09-08T06:55:36Z</time>
      </trkpt>
      <trkpt lat="42.6166636683" lon="0.9388499334">
        <ele>2227.99</ele>
        <time>2019-09-08T06:55:45Z</time>
      </trkpt>
      <trkpt lat="42.6165847946" lon="0.9387824591">
        <ele>2228.95</ele>
        <time>2019-09-08T06:55:55Z</time>
      </trkpt>
      <trkpt lat="42.6165549550" lon="0.9387516137">
        <ele>2229.43</ele>
        <time>2019-09-08T06:56:04Z</time>
      </trkpt>
      <trkpt lat="42.6165171526" lon="0.9388014860">
        <ele>2229.43</ele>
        <time>2019-09-08T06:56:12Z</time>
      </trkpt>
      <trkpt lat="42.6165087707" lon="0.9388233628">
        <ele>2229.43</ele>
        <time>2019-09-08T06:56:15Z</time>
      </trkpt>
      <trkpt lat="42.6164928451" lon="0.9388465807">
        <ele>2229.43</ele>
        <time>2019-09-08T06:56:17Z</time>
      </trkpt>
      <trkpt lat="42.6164680347" lon="0.9388492629">
        <ele>2229.43</ele>
        <time>2019-09-08T06:56:19Z</time>
      </trkpt>
      <trkpt lat="42.6164526958" lon="0.9388495982">
        <ele>2229.43</ele>
        <time>2019-09-08T06:56:20Z</time>
      </trkpt>
      <trkpt lat="42.6164397039" lon="0.9388506878">
        <ele>2229.43</ele>
        <time>2019-09-08T06:56:21Z</time>
      </trkpt>
      <trkpt lat="42.6163290627" lon="0.9388573095">
        <ele>2229.43</ele>
        <time>2019-09-08T06:56:32Z</time>
      </trkpt>
      <trkpt lat="42.6162655279" lon="0.9388459940">
        <ele>2229.92</ele>
        <time>2019-09-08T06:56:41Z</time>
      </trkpt>
      <trkpt lat="42.6162372809" lon="0.9388772584">
        <ele>2230.40</ele>
        <time>2019-09-08T06:56:50Z</time>
      </trkpt>
      <trkpt lat="42.6161952876" lon="0.9389059246">
        <ele>2230.40</ele>
        <time>2019-09-08T06:56:57Z</time>
      </trkpt>
      <trkpt lat="42.6161790267" lon="0.9389214311">
        <ele>2230.40</ele>
        <time>2019-09-08T06:56:59Z</time>
      </trkpt>
      <trkpt lat="42.6161121391" lon="0.9389642626">
        <ele>2230.88</ele>
        <time>2019-09-08T06:57:07Z</time>
      </trkpt>
      <trkpt lat="42.6161004044" lon="0.9389655199">
        <ele>2230.88</ele>
        <time>2019-09-08T06:57:08Z</time>
      </trkpt>
      <trkpt lat="42.6160900947" lon="0.9389683697">
        <ele>2231.36</ele>
        <time>2019-09-08T06:57:09Z</time>
      </trkpt>
      <trkpt lat="42.6159848180" lon="0.9389947727">
        <ele>2231.84</ele>
        <time>2019-09-08T06:57:21Z</time>
      </trkpt>
      <trkpt lat="42.6159582473" lon="0.9389962815">
        <ele>2232.32</ele>
        <time>2019-09-08T06:57:24Z</time>
      </trkpt>
      <trkpt lat="42.6158537250" lon="0.9390222654">
        <ele>2232.80</ele>
        <time>2019-09-08T06:57:34Z</time>
      </trkpt>
      <trkpt lat="42.6158165094" lon="0.9390443936">
        <ele>2232.80</ele>
        <time>2019-09-08T06:57:39Z</time>
      </trkpt>
      <trkpt lat="42.6157880947" lon="0.9390610736">
        <ele>2232.80</ele>
        <time>2019-09-08T06:57:42Z</time>
      </trkpt>
      <trkpt lat="42.6157665532" lon="0.9390549548">
        <ele>2232.80</ele>
        <time>2019-09-08T06:57:44Z</time>
      </trkpt>
      <trkpt lat="42.6157290861" lon="0.9390426334">
        <ele>2233.28</ele>
        <time>2019-09-08T06:57:48Z</time>
      </trkpt>
      <trkpt lat="42.6157190278" lon="0.9390442260">
        <ele>2233.28</ele>
        <time>2019-09-08T06:57:49Z</time>
      </trkpt>
      <trkpt lat="42.6155726798" lon="0.9390870575">
        <ele>2233.76</ele>
        <time>2019-09-08T06:58:02Z</time>
      </trkpt>
      <trkpt lat="42.6155623700" lon="0.9390921704">
        <ele>2233.76</ele>
        <time>2019-09-08T06:58:03Z</time>
      </trkpt>
      <trkpt lat="42.6155506354" lon="0.9390948527">
        <ele>2233.76</ele>
        <time>2019-09-08T06:58:04Z</time>
      </trkpt>
      <trkpt lat="42.6155377273" lon="0.9390951879">
        <ele>2233.76</ele>
        <time>2019-09-08T06:58:05Z</time>
      </trkpt>
      <trkpt lat="42.6155261602" lon="0.9390950203">
        <ele>2233.76</ele>
        <time>2019-09-08T06:58:06Z</time>
      </trkpt>
      <trkpt lat="42.6154010184" lon="0.9391401988">
        <ele>2233.76</ele>
        <time>2019-09-08T06:58:19Z</time>
      </trkpt>
      <trkpt lat="42.6153907925" lon="0.9391496703">
        <ele>2233.76</ele>
        <time>2019-09-08T06:58:20Z</time>
      </trkpt>
      <trkpt lat="42.6153798960" lon="0.9391578007">
        <ele>2233.76</ele>
        <time>2019-09-08T06:58:21Z</time>
      </trkpt>
      <trkpt lat="42.6153680775" lon="0.9391624108">
        <ele>2233.76</ele>
        <time>2019-09-08T06:58:22Z</time>
      </trkpt>
      <trkpt lat="42.6153539959" lon="0.9391657636">
        <ele>2233.76</ele>
        <time>2019-09-08T06:58:23Z</time>
      </trkpt>
      <trkpt lat="42.6152219810" lon="0.9391947649">
        <ele>2232.80</ele>
        <time>2019-09-08T06:58:35Z</time>
      </trkpt>
      <trkpt lat="42.6152022835" lon="0.9392071702">
        <ele>2233.28</ele>
        <time>2019-09-08T06:58:37Z</time>
      </trkpt>
      <trkpt lat="42.6151105016" lon="0.9392895643">
        <ele>2233.28</ele>
        <time>2019-09-08T06:58:48Z</time>
      </trkpt>
      <trkpt lat="42.6150831766" lon="0.9393513389">
        <ele>2233.76</ele>
        <time>2019-09-08T06:58:53Z</time>
      </trkpt>
      <trkpt lat="42.6150172111" lon="0.9394764807">
        <ele>2233.28</ele>
        <time>2019-09-08T06:59:07Z</time>
      </trkpt>
      <trkpt lat="42.6149808336" lon="0.9395003691">
        <ele>2232.80</ele>
        <time>2019-09-08T06:59:27Z</time>
      </trkpt>
      <trkpt lat="42.6149764750" lon="0.9395179711">
        <ele>2232.80</ele>
        <time>2019-09-08T06:59:28Z</time>
      </trkpt>
      <trkpt lat="42.6149685122" lon="0.9395331424">
        <ele>2232.80</ele>
        <time>2019-09-08T06:59:29Z</time>
      </trkpt>
      <trkpt lat="42.6149585377" lon="0.9395457152">
        <ele>2232.80</ele>
        <time>2019-09-08T06:59:30Z</time>
      </trkpt>
      <trkpt lat="42.6149467193" lon="0.9395564441">
        <ele>2232.80</ele>
        <time>2019-09-08T06:59:31Z</time>
      </trkpt>
      <trkpt lat="42.6149340626" lon="0.9395620599">
        <ele>2232.80</ele>
        <time>2019-09-08T06:59:32Z</time>
      </trkpt>
      <trkpt lat="42.6149244234" lon="0.9395707771">
        <ele>2232.80</ele>
        <time>2019-09-08T06:59:33Z</time>
      </trkpt>
      <trkpt lat="42.6149149518" lon="0.9395834338">
        <ele>2232.80</ele>
        <time>2019-09-08T06:59:34Z</time>
      </trkpt>
      <trkpt lat="42.6148497406" lon="0.9396314621">
        <ele>2232.80</ele>
        <time>2019-09-08T06:59:40Z</time>
      </trkpt>
      <trkpt lat="42.6148368325" lon="0.9396376647">
        <ele>2232.80</ele>
        <time>2019-09-08T06:59:41Z</time>
      </trkpt>
      <trkpt lat="42.6148243435" lon="0.9396447055">
        <ele>2232.80</ele>
        <time>2019-09-08T06:59:42Z</time>
      </trkpt>
      <trkpt lat="42.6148153748" lon="0.9396548476">
        <ele>2232.80</ele>
        <time>2019-09-08T06:59:43Z</time>
      </trkpt>
      <trkpt lat="42.6148035564" lon="0.9396654088">
        <ele>2232.80</ele>
        <time>2019-09-08T06:59:44Z</time>
      </trkpt>
      <trkpt lat="42.6147406921" lon="0.9397361521">
        <ele>2233.28</ele>
        <time>2019-09-08T06:59:53Z</time>
      </trkpt>
      <trkpt lat="42.6147308853" lon="0.9397462104">
        <ele>2233.28</ele>
        <time>2019-09-08T06:59:54Z</time>
      </trkpt>
      <trkpt lat="42.6147121936" lon="0.9397692606">
        <ele>2233.28</ele>
        <time>2019-09-08T06:59:57Z</time>
      </trkpt>
      <trkpt lat="42.6146932505" lon="0.9397911374">
        <ele>2233.76</ele>
        <time>2019-09-08T06:59:59Z</time>
      </trkpt>
      <trkpt lat="42.6146831922" lon="0.9398003574">
        <ele>2233.76</ele>
        <time>2019-09-08T07:00:00Z</time>
      </trkpt>
      <trkpt lat="42.6146748941" lon="0.9398112539">
        <ele>2233.76</ele>
        <time>2019-09-08T07:00:01Z</time>
      </trkpt>
      <trkpt lat="42.6145966910" lon="0.9399153572">
        <ele>2234.72</ele>
        <time>2019-09-08T07:00:11Z</time>
      </trkpt>
      <trkpt lat="42.6145720482" lon="0.9399550036">
        <ele>2235.20</ele>
        <time>2019-09-08T07:00:15Z</time>
      </trkpt>
      <trkpt lat="42.6144996285" lon="0.9400202148">
        <ele>2237.13</ele>
        <time>2019-09-08T07:00:26Z</time>
      </trkpt>
      <trkpt lat="42.6144855469" lon="0.9400411695">
        <ele>2237.61</ele>
        <time>2019-09-08T07:00:29Z</time>
      </trkpt>
      <trkpt lat="42.6144668553" lon="0.9400683269">
        <ele>2237.61</ele>
        <time>2019-09-08T07:00:31Z</time>
      </trkpt>
      <trkpt lat="42.6144029014" lon="0.9400972445">
        <ele>2237.61</ele>
        <time>2019-09-08T07:00:39Z</time>
      </trkpt>
      <trkpt lat="42.6143913344" lon="0.9400979150">
        <ele>2237.61</ele>
        <time>2019-09-08T07:00:40Z</time>
      </trkpt>
      <trkpt lat="42.6143781748" lon="0.9400974121">
        <ele>2237.61</ele>
        <time>2019-09-08T07:00:41Z</time>
      </trkpt>
      <trkpt lat="42.6143682841" lon="0.9401010163">
        <ele>2237.61</ele>
        <time>2019-09-08T07:00:42Z</time>
      </trkpt>
      <trkpt lat="42.6143570524" lon="0.9401061293">
        <ele>2237.61</ele>
        <time>2019-09-08T07:00:43Z</time>
      </trkpt>
      <trkpt lat="42.6143454015" lon="0.9401101526">
        <ele>2237.61</ele>
        <time>2019-09-08T07:00:44Z</time>
      </trkpt>
      <trkpt lat="42.6143334154" lon="0.9401140083">
        <ele>2237.61</ele>
        <time>2019-09-08T07:00:45Z</time>
      </trkpt>
      <trkpt lat="42.6141982153" lon="0.9401361365">
        <ele>2238.09</ele>
        <time>2019-09-08T07:00:57Z</time>
      </trkpt>
      <trkpt lat="42.6139704790" lon="0.9402409941">
        <ele>2238.57</ele>
        <time>2019-09-08T07:01:14Z</time>
      </trkpt>
      <trkpt lat="42.6139600854" lon="0.9402357135">
        <ele>2238.09</ele>
        <time>2019-09-08T07:01:27Z</time>
      </trkpt>
      <trkpt lat="42.6139595825" lon="0.9402376413">
        <ele>2238.09</ele>
        <time>2019-09-08T07:01:44Z</time>
      </trkpt>
      <trkpt lat="42.6139512006" lon="0.9402413294">
        <ele>2238.09</ele>
        <time>2019-09-08T07:01:53Z</time>
      </trkpt>
      <trkpt lat="42.6139270607" lon="0.9402414132">
        <ele>2238.09</ele>
        <time>2019-09-08T07:01:55Z</time>
      </trkpt>
      <trkpt lat="42.6139121410" lon="0.9402413294">
        <ele>2238.09</ele>
        <time>2019-09-08T07:01:56Z</time>
      </trkpt>
      <trkpt lat="42.6138983946" lon="0.9402422514">
        <ele>2238.09</ele>
        <time>2019-09-08T07:01:57Z</time>
      </trkpt>
      <trkpt lat="42.6138840616" lon="0.9402436763">
        <ele>2238.09</ele>
        <time>2019-09-08T07:01:58Z</time>
      </trkpt>
      <trkpt lat="42.6138702314" lon="0.9402470291">
        <ele>2238.09</ele>
        <time>2019-09-08T07:01:59Z</time>
      </trkpt>
      <trkpt lat="42.6137611829" lon="0.9402421676">
        <ele>2237.61</ele>
        <time>2019-09-08T07:02:07Z</time>
      </trkpt>
      <trkpt lat="42.6137496158" lon="0.9402435087">
        <ele>2238.09</ele>
        <time>2019-09-08T07:02:08Z</time>
      </trkpt>
      <trkpt lat="42.6137381326" lon="0.9402481187">
        <ele>2238.09</ele>
        <time>2019-09-08T07:02:09Z</time>
      </trkpt>
      <trkpt lat="42.6137274038" lon="0.9402539022">
        <ele>2238.09</ele>
        <time>2019-09-08T07:02:10Z</time>
      </trkpt>
      <trkpt lat="42.6137152500" lon="0.9402593505">
        <ele>2238.09</ele>
        <time>2019-09-08T07:02:11Z</time>
      </trkpt>
      <trkpt lat="42.6137025096" lon="0.9402611945">
        <ele>2238.09</ele>
        <time>2019-09-08T07:02:12Z</time>
      </trkpt>
      <trkpt lat="42.6136890147" lon="0.9402612783">
        <ele>2238.09</ele>
        <time>2019-09-08T07:02:13Z</time>
      </trkpt>
      <trkpt lat="42.6136756875" lon="0.9402596019">
        <ele>2238.09</ele>
        <time>2019-09-08T07:02:14Z</time>
      </trkpt>
      <trkpt lat="42.6136631146" lon="0.9402570873">
        <ele>2238.09</ele>
        <time>2019-09-08T07:02:15Z</time>
      </trkpt>
      <trkpt lat="42.6135470252" lon="0.9402216319">
        <ele>2238.09</ele>
        <time>2019-09-08T07:02:25Z</time>
      </trkpt>
      <trkpt lat="42.6135373022" lon="0.9402229730">
        <ele>2238.09</ele>
        <time>2019-09-08T07:02:26Z</time>
      </trkpt>
      <trkpt lat="42.6135272440" lon="0.9402239788">
        <ele>2238.09</ele>
        <time>2019-09-08T07:02:27Z</time>
      </trkpt>
      <trkpt lat="42.6135160122" lon="0.9402208775">
        <ele>2238.09</ele>
        <time>2019-09-08T07:02:28Z</time>
      </trkpt>
      <trkpt lat="42.6135050319" lon="0.9402166028">
        <ele>2238.09</ele>
        <time>2019-09-08T07:02:29Z</time>
      </trkpt>
      <trkpt lat="42.6134845801" lon="0.9402116574">
        <ele>2238.09</ele>
        <time>2019-09-08T07:02:31Z</time>
      </trkpt>
      <trkpt lat="42.6134307683" lon="0.9402412456">
        <ele>2238.09</ele>
        <time>2019-09-08T07:02:38Z</time>
      </trkpt>
      <trkpt lat="42.6134216320" lon="0.9402476158">
        <ele>2238.09</ele>
        <time>2019-09-08T07:02:39Z</time>
      </trkpt>
      <trkpt lat="42.6133913733" lon="0.9402452689">
        <ele>2238.09</ele>
        <time>2019-09-08T07:02:42Z</time>
      </trkpt>
      <trkpt lat="42.6133784652" lon="0.9402436763">
        <ele>2238.09</ele>
        <time>2019-09-08T07:02:43Z</time>
      </trkpt>
      <trkpt lat="42.6133598574" lon="0.9402474482">
        <ele>2238.09</ele>
        <time>2019-09-08T07:02:45Z</time>
      </trkpt>
      <trkpt lat="42.6133099012" lon="0.9403103963">
        <ele>2238.57</ele>
        <time>2019-09-08T07:02:57Z</time>
      </trkpt>
      <trkpt lat="42.6132942270" lon="0.9403415769">
        <ele>2239.05</ele>
        <time>2019-09-08T07:03:10Z</time>
      </trkpt>
      <trkpt lat="42.6132856775" lon="0.9403543174">
        <ele>2239.05</ele>
        <time>2019-09-08T07:03:11Z</time>
      </trkpt>
      <trkpt lat="42.6132792234" lon="0.9403689019">
        <ele>2239.05</ele>
        <time>2019-09-08T07:03:12Z</time>
      </trkpt>
      <trkpt lat="42.6131582726" lon="0.9404725861">
        <ele>2237.61</ele>
        <time>2019-09-08T07:03:24Z</time>
      </trkpt>
      <trkpt lat="42.6131525729" lon="0.9404859971">
        <ele>2237.61</ele>
        <time>2019-09-08T07:03:25Z</time>
      </trkpt>
      <trkpt lat="42.6131440233" lon="0.9404982347">
        <ele>2237.61</ele>
        <time>2019-09-08T07:03:26Z</time>
      </trkpt>
      <trkpt lat="42.6131333783" lon="0.9405103046">
        <ele>2237.61</ele>
        <time>2019-09-08T07:03:27Z</time>
      </trkpt>
      <trkpt lat="42.6131221466" lon="0.9405196924">
        <ele>2237.61</ele>
        <time>2019-09-08T07:03:28Z</time>
      </trkpt>
      <trkpt lat="42.6130560134" lon="0.9405827243">
        <ele>2237.13</ele>
        <time>2019-09-08T07:03:35Z</time>
      </trkpt>
      <trkpt lat="42.6129255071" lon="0.9406510368">
        <ele>2237.13</ele>
        <time>2019-09-08T07:03:46Z</time>
      </trkpt>
      <trkpt lat="42.6128553506" lon="0.9406811278">
        <ele>2236.16</ele>
        <time>2019-09-08T07:03:53Z</time>
      </trkpt>
      <trkpt lat="42.6127596293" lon="0.9406935330">
        <ele>2236.16</ele>
        <time>2019-09-08T07:04:01Z</time>
      </trkpt>
      <trkpt lat="42.6127482299" lon="0.9406980593">
        <ele>2236.16</ele>
        <time>2019-09-08T07:04:02Z</time>
      </trkpt>
      <trkpt lat="42.6127375849" lon="0.9407056030">
        <ele>2235.68</ele>
        <time>2019-09-08T07:04:03Z</time>
      </trkpt>
      <trkpt lat="42.6127287000" lon="0.9407159965">
        <ele>2235.68</ele>
        <time>2019-09-08T07:04:04Z</time>
      </trkpt>
      <trkpt lat="42.6127228327" lon="0.9407302458">
        <ele>2235.68</ele>
        <time>2019-09-08T07:04:05Z</time>
      </trkpt>
      <trkpt lat="42.6127152890" lon="0.9407443274">
        <ele>2235.20</ele>
        <time>2019-09-08T07:04:06Z</time>
      </trkpt>
      <trkpt lat="42.6127053145" lon="0.9407624323">
        <ele>2235.20</ele>
        <time>2019-09-08T07:04:08Z</time>
      </trkpt>
      <trkpt lat="42.6127044763" lon="0.9407775197">
        <ele>2235.20</ele>
        <time>2019-09-08T07:04:09Z</time>
      </trkpt>
      <trkpt lat="42.6126992796" lon="0.9408024978">
        <ele>2235.20</ele>
        <time>2019-09-08T07:04:11Z</time>
      </trkpt>
      <trkpt lat="42.6126916520" lon="0.9408192616">
        <ele>2235.20</ele>
        <time>2019-09-08T07:04:12Z</time>
      </trkpt>
      <trkpt lat="42.6126801688" lon="0.9408341814">
        <ele>2235.20</ele>
        <time>2019-09-08T07:04:13Z</time>
      </trkpt>
      <trkpt lat="42.6126580406" lon="0.9408520348">
        <ele>2235.20</ele>
        <time>2019-09-08T07:04:15Z</time>
      </trkpt>
      <trkpt lat="42.6126064919" lon="0.9409008175">
        <ele>2235.20</ele>
        <time>2019-09-08T07:04:22Z</time>
      </trkpt>
      <trkpt lat="42.6125992835" lon="0.9409123845">
        <ele>2235.68</ele>
        <time>2019-09-08T07:04:23Z</time>
      </trkpt>
      <trkpt lat="42.6125749759" lon="0.9409342613">
        <ele>2236.16</ele>
        <time>2019-09-08T07:04:26Z</time>
      </trkpt>
      <trkpt lat="42.6125172246" lon="0.9409930184">
        <ele>2238.09</ele>
        <time>2019-09-08T07:04:35Z</time>
      </trkpt>
      <trkpt lat="42.6124910731" lon="0.9410640970">
        <ele>2239.53</ele>
        <time>2019-09-08T07:04:43Z</time>
      </trkpt>
      <trkpt lat="42.6124919113" lon="0.9411101975">
        <ele>2240.01</ele>
        <time>2019-09-08T07:04:47Z</time>
      </trkpt>
      <trkpt lat="42.6124866307" lon="0.9411210939">
        <ele>2240.01</ele>
        <time>2019-09-08T07:04:48Z</time>
      </trkpt>
      <trkpt lat="42.6124810986" lon="0.9411318228">
        <ele>2240.01</ele>
        <time>2019-09-08T07:04:49Z</time>
      </trkpt>
      <trkpt lat="42.6124784164" lon="0.9411428869">
        <ele>2240.01</ele>
        <time>2019-09-08T07:04:50Z</time>
      </trkpt>
      <trkpt lat="42.6124743931" lon="0.9411541186">
        <ele>2240.01</ele>
        <time>2019-09-08T07:04:51Z</time>
      </trkpt>
      <trkpt lat="42.6124682743" lon="0.9411664400">
        <ele>2240.01</ele>
        <time>2019-09-08T07:04:52Z</time>
      </trkpt>
      <trkpt lat="42.6124424580" lon="0.9412372671">
        <ele>2238.57</ele>
        <time>2019-09-08T07:04:58Z</time>
      </trkpt>
      <trkpt lat="42.6124398597" lon="0.9412527736">
        <ele>2238.57</ele>
        <time>2019-09-08T07:04:59Z</time>
      </trkpt>
      <trkpt lat="42.6124354172" lon="0.9412688669">
        <ele>2238.09</ele>
        <time>2019-09-08T07:05:00Z</time>
      </trkpt>
      <trkpt lat="42.6124142110" lon="0.9413473215">
        <ele>2236.64</ele>
        <time>2019-09-08T07:05:09Z</time>
      </trkpt>
      <trkpt lat="42.6124143787" lon="0.9413725510">
        <ele>2236.16</ele>
        <time>2019-09-08T07:05:11Z</time>
      </trkpt>
      <trkpt lat="42.6124119479" lon="0.9414050728">
        <ele>2235.68</ele>
        <time>2019-09-08T07:05:13Z</time>
      </trkpt>
      <trkpt lat="42.6123618241" lon="0.9415904805">
        <ele>2232.80</ele>
        <time>2019-09-08T07:05:24Z</time>
      </trkpt>
      <trkpt lat="42.6122922543" lon="0.9417648241">
        <ele>2232.32</ele>
        <time>2019-09-08T07:05:35Z</time>
      </trkpt>
      <trkpt lat="42.6122813579" lon="0.9417768102">
        <ele>2232.32</ele>
        <time>2019-09-08T07:05:36Z</time>
      </trkpt>
      <trkpt lat="42.6122714672" lon="0.9417872876">
        <ele>2232.32</ele>
        <time>2019-09-08T07:05:37Z</time>
      </trkpt>
      <trkpt lat="42.6122335810" lon="0.9418452065">
        <ele>2232.32</ele>
        <time>2019-09-08T07:05:45Z</time>
      </trkpt>
      <trkpt lat="42.6122385263" lon="0.9418796562">
        <ele>2232.32</ele>
        <time>2019-09-08T07:05:48Z</time>
      </trkpt>
      <trkpt lat="42.6122159790" lon="0.9419370722">
        <ele>2231.84</ele>
        <time>2019-09-08T07:05:53Z</time>
      </trkpt>
      <trkpt lat="42.6121790987" lon="0.9420079831">
        <ele>2232.32</ele>
        <time>2019-09-08T07:06:01Z</time>
      </trkpt>
      <trkpt lat="42.6121731475" lon="0.9420568496">
        <ele>2232.32</ele>
        <time>2019-09-08T07:06:04Z</time>
      </trkpt>
      <trkpt lat="42.6121678669" lon="0.9420831688">
        <ele>2232.32</ele>
        <time>2019-09-08T07:06:06Z</time>
      </trkpt>
      <trkpt lat="42.6121661067" lon="0.9421314485">
        <ele>2232.32</ele>
        <time>2019-09-08T07:06:10Z</time>
      </trkpt>
      <trkpt lat="42.6121591497" lon="0.9421427641">
        <ele>2232.32</ele>
        <time>2019-09-08T07:06:11Z</time>
      </trkpt>
      <trkpt lat="42.6121537853" lon="0.9421570972">
        <ele>2232.32</ele>
        <time>2019-09-08T07:06:12Z</time>
      </trkpt>
      <trkpt lat="42.6121477503" lon="0.9422027785">
        <ele>2232.32</ele>
        <time>2019-09-08T07:06:15Z</time>
      </trkpt>
      <trkpt lat="42.6121416315" lon="0.9422155190">
        <ele>2231.84</ele>
        <time>2019-09-08T07:06:16Z</time>
      </trkpt>
      <trkpt lat="42.6121373568" lon="0.9422316123">
        <ele>2231.84</ele>
        <time>2019-09-08T07:06:17Z</time>
      </trkpt>
      <trkpt lat="42.6121350937" lon="0.9422498848">
        <ele>2231.84</ele>
        <time>2019-09-08T07:06:18Z</time>
      </trkpt>
      <trkpt lat="42.6121320762" lon="0.9422674868">
        <ele>2231.84</ele>
        <time>2019-09-08T07:06:19Z</time>
      </trkpt>
      <trkpt lat="42.6121174078" lon="0.9422887769">
        <ele>2231.84</ele>
        <time>2019-09-08T07:06:21Z</time>
      </trkpt>
      <trkpt lat="42.6120534539" lon="0.9423368052">
        <ele>2233.28</ele>
        <time>2019-09-08T07:06:31Z</time>
      </trkpt>
      <trkpt lat="42.6120424736" lon="0.9423565026">
        <ele>2233.76</ele>
        <time>2019-09-08T07:06:49Z</time>
      </trkpt>
      <trkpt lat="42.6120089460" lon="0.9424321912">
        <ele>2235.20</ele>
        <time>2019-09-08T07:07:00Z</time>
      </trkpt>
      <trkpt lat="42.6120026596" lon="0.9424440935">
        <ele>2235.20</ele>
        <time>2019-09-08T07:07:01Z</time>
      </trkpt>
      <trkpt lat="42.6119883265" lon="0.9424808063">
        <ele>2235.68</ele>
        <time>2019-09-08T07:07:04Z</time>
      </trkpt>
      <trkpt lat="42.6119838841" lon="0.9424946364">
        <ele>2235.68</ele>
        <time>2019-09-08T07:07:05Z</time>
      </trkpt>
      <trkpt lat="42.6119310781" lon="0.9425647091">
        <ele>2236.64</ele>
        <time>2019-09-08T07:07:14Z</time>
      </trkpt>
      <trkpt lat="42.6119093690" lon="0.9425803833">
        <ele>2237.13</ele>
        <time>2019-09-08T07:07:16Z</time>
      </trkpt>
      <trkpt lat="42.6117900945" lon="0.9426343627">
        <ele>2237.61</ele>
        <time>2019-09-08T07:07:30Z</time>
      </trkpt>
      <trkpt lat="42.6117454190" lon="0.9426707402">
        <ele>2237.13</ele>
        <time>2019-09-08T07:07:36Z</time>
      </trkpt>
      <trkpt lat="42.6116750948" lon="0.9426731709">
        <ele>2237.13</ele>
        <time>2019-09-08T07:07:45Z</time>
      </trkpt>
      <trkpt lat="42.6116446685" lon="0.9426816367">
        <ele>2237.61</ele>
        <time>2019-09-08T07:07:49Z</time>
      </trkpt>
      <trkpt lat="42.6115499530" lon="0.9426925331">
        <ele>2238.09</ele>
        <time>2019-09-08T07:08:00Z</time>
      </trkpt>
      <trkpt lat="42.6114982367" lon="0.9427035134">
        <ele>2238.09</ele>
        <time>2019-09-08T07:08:11Z</time>
      </trkpt>
      <trkpt lat="42.6114408206" lon="0.9426674712">
        <ele>2238.09</ele>
        <time>2019-09-08T07:08:24Z</time>
      </trkpt>
      <trkpt lat="42.6113965642" lon="0.9426626097">
        <ele>2239.05</ele>
        <time>2019-09-08T07:08:36Z</time>
      </trkpt>
      <trkpt lat="42.6113852486" lon="0.9426828939">
        <ele>2238.57</ele>
        <time>2019-09-08T07:08:42Z</time>
      </trkpt>
      <trkpt lat="42.6113435067" lon="0.9426863305">
        <ele>2238.57</ele>
        <time>2019-09-08T07:08:47Z</time>
      </trkpt>
      <trkpt lat="42.6112766191" lon="0.9427111410">
        <ele>2240.49</ele>
        <time>2019-09-08T07:08:58Z</time>
      </trkpt>
      <trkpt lat="42.6112765353" lon="0.9427624382">
        <ele>2240.49</ele>
        <time>2019-09-08T07:09:02Z</time>
      </trkpt>
      <trkpt lat="42.6113139186" lon="0.9428256378">
        <ele>2240.49</ele>
        <time>2019-09-08T07:09:08Z</time>
      </trkpt>
      <trkpt lat="42.6113552414" lon="0.9429069422">
        <ele>2240.01</ele>
        <time>2019-09-08T07:09:16Z</time>
      </trkpt>
      <trkpt lat="42.6113868412" lon="0.9428895079">
        <ele>2240.01</ele>
        <time>2019-09-08T07:09:19Z</time>
      </trkpt>
      <trkpt lat="42.6115433313" lon="0.9428682178">
        <ele>2238.09</ele>
        <time>2019-09-08T07:09:30Z</time>
      </trkpt>
      <trkpt lat="42.6115661301" lon="0.9428720735">
        <ele>2237.61</ele>
        <time>2019-09-08T07:09:32Z</time>
      </trkpt>
      <trkpt lat="42.6116119791" lon="0.9429074451">
        <ele>2237.13</ele>
        <time>2019-09-08T07:09:35Z</time>
      </trkpt>
      <trkpt lat="42.6115790382" lon="0.9429948684">
        <ele>2236.16</ele>
        <time>2019-09-08T07:09:41Z</time>
      </trkpt>
      <trkpt lat="42.6115691476" lon="0.9430090338">
        <ele>2236.16</ele>
        <time>2019-09-08T07:09:42Z</time>
      </trkpt>
      <trkpt lat="42.6114866696" lon="0.9431555495">
        <ele>2234.24</ele>
        <time>2019-09-08T07:09:54Z</time>
      </trkpt>
      <trkpt lat="42.6114783715" lon="0.9432477504">
        <ele>2233.76</ele>
        <time>2019-09-08T07:10:04Z</time>
      </trkpt>
      <trkpt lat="42.6114935428" lon="0.9432779253">
        <ele>2233.76</ele>
        <time>2019-09-08T07:10:07Z</time>
      </trkpt>
      <trkpt lat="42.6115056966" lon="0.9432892408">
        <ele>2233.76</ele>
        <time>2019-09-08T07:10:08Z</time>
      </trkpt>
      <trkpt lat="42.6115080435" lon="0.9433022328">
        <ele>2233.76</ele>
        <time>2019-09-08T07:10:09Z</time>
      </trkpt>
      <trkpt lat="42.6115064509" lon="0.9433178231">
        <ele>2233.76</ele>
        <time>2019-09-08T07:10:10Z</time>
      </trkpt>
      <trkpt lat="42.6115014218" lon="0.9433314856">
        <ele>2233.76</ele>
        <time>2019-09-08T07:10:11Z</time>
      </trkpt>
      <trkpt lat="42.6114947163" lon="0.9433431365">
        <ele>2233.76</ele>
        <time>2019-09-08T07:10:12Z</time>
      </trkpt>
      <trkpt lat="42.6114880946" lon="0.9433566313">
        <ele>2233.76</ele>
        <time>2019-09-08T07:10:13Z</time>
      </trkpt>
      <trkpt lat="42.6114827301" lon="0.9433698747">
        <ele>2233.76</ele>
        <time>2019-09-08T07:10:14Z</time>
      </trkpt>
      <trkpt lat="42.6114893518" lon="0.9434302244">
        <ele>2233.76</ele>
        <time>2019-09-08T07:10:19Z</time>
      </trkpt>
      <trkpt lat="42.6114941295" lon="0.9434473235">
        <ele>2233.76</ele>
        <time>2019-09-08T07:10:20Z</time>
      </trkpt>
      <trkpt lat="42.6114986558" lon="0.9434641711">
        <ele>2233.76</ele>
        <time>2019-09-08T07:10:21Z</time>
      </trkpt>
      <trkpt lat="42.6115058642" lon="0.9434805997">
        <ele>2233.76</ele>
        <time>2019-09-08T07:10:22Z</time>
      </trkpt>
      <trkpt lat="42.6115114801" lon="0.9434962738">
        <ele>2233.76</ele>
        <time>2019-09-08T07:10:23Z</time>
      </trkpt>
      <trkpt lat="42.6115106419" lon="0.9435131215">
        <ele>2233.76</ele>
        <time>2019-09-08T07:10:24Z</time>
      </trkpt>
      <trkpt lat="42.6115087140" lon="0.9435301367">
        <ele>2233.76</ele>
        <time>2019-09-08T07:10:25Z</time>
      </trkpt>
      <trkpt lat="42.6115079597" lon="0.9435484093">
        <ele>2233.76</ele>
        <time>2019-09-08T07:10:26Z</time>
      </trkpt>
      <trkpt lat="42.6115115639" lon="0.9435662627">
        <ele>2233.76</ele>
        <time>2019-09-08T07:10:27Z</time>
      </trkpt>
      <trkpt lat="42.6115155872" lon="0.9436984453">
        <ele>2232.32</ele>
        <time>2019-09-08T07:10:38Z</time>
      </trkpt>
      <trkpt lat="42.6115249749" lon="0.9437275305">
        <ele>2231.84</ele>
        <time>2019-09-08T07:10:40Z</time>
      </trkpt>
      <trkpt lat="42.6115336083" lon="0.9437716193">
        <ele>2231.84</ele>
        <time>2019-09-08T07:10:43Z</time>
      </trkpt>
      <trkpt lat="42.6115397271" lon="0.9437864553">
        <ele>2231.84</ele>
        <time>2019-09-08T07:10:44Z</time>
      </trkpt>
      <trkpt lat="42.6115450077" lon="0.9438050631">
        <ele>2231.84</ele>
        <time>2019-09-08T07:10:45Z</time>
      </trkpt>
      <trkpt lat="42.6115548145" lon="0.9439288639">
        <ele>2232.32</ele>
        <time>2019-09-08T07:10:55Z</time>
      </trkpt>
      <trkpt lat="42.6115765236" lon="0.9439736232">
        <ele>2232.80</ele>
        <time>2019-09-08T07:10:58Z</time>
      </trkpt>
      <trkpt lat="42.6115756854" lon="0.9439877886">
        <ele>2232.80</ele>
        <time>2019-09-08T07:10:59Z</time>
      </trkpt>
      <trkpt lat="42.6115688961" lon="0.9440040495">
        <ele>2232.80</ele>
        <time>2019-09-08T07:11:00Z</time>
      </trkpt>
      <trkpt lat="42.6115848217" lon="0.9440443665">
        <ele>2232.80</ele>
        <time>2019-09-08T07:11:04Z</time>
      </trkpt>
      <trkpt lat="42.6116069499" lon="0.9440641478">
        <ele>2232.80</ele>
        <time>2019-09-08T07:11:06Z</time>
      </trkpt>
      <trkpt lat="42.6116154157" lon="0.9440756310">
        <ele>2232.80</ele>
        <time>2019-09-08T07:11:07Z</time>
      </trkpt>
      <trkpt lat="42.6116331853" lon="0.9441059735">
        <ele>2232.32</ele>
        <time>2019-09-08T07:11:12Z</time>
      </trkpt>
      <trkpt lat="42.6116696466" lon="0.9441897087">
        <ele>2232.80</ele>
        <time>2019-09-08T07:11:21Z</time>
      </trkpt>
      <trkpt lat="42.6116864104" lon="0.9441929776">
        <ele>2233.28</ele>
        <time>2019-09-08T07:11:23Z</time>
      </trkpt>
      <trkpt lat="42.6117068622" lon="0.9441946540">
        <ele>2233.76</ele>
        <time>2019-09-08T07:11:25Z</time>
      </trkpt>
      <trkpt lat="42.6117183454" lon="0.9442006890">
        <ele>2233.76</ele>
        <time>2019-09-08T07:11:26Z</time>
      </trkpt>
      <trkpt lat="42.6117340196" lon="0.9442221466">
        <ele>2233.76</ele>
        <time>2019-09-08T07:11:28Z</time>
      </trkpt>
      <trkpt lat="42.6117579080" lon="0.9442655649">
        <ele>2233.76</ele>
        <time>2019-09-08T07:11:31Z</time>
      </trkpt>
      <trkpt lat="42.6117598359" lon="0.9442814905">
        <ele>2233.76</ele>
        <time>2019-09-08T07:11:32Z</time>
      </trkpt>
      <trkpt lat="42.6117651165" lon="0.9442971647">
        <ele>2233.76</ele>
        <time>2019-09-08T07:11:33Z</time>
      </trkpt>
      <trkpt lat="42.6117764320" lon="0.9443088155">
        <ele>2233.76</ele>
        <time>2019-09-08T07:11:34Z</time>
      </trkpt>
      <trkpt lat="42.6117970515" lon="0.9443263337">
        <ele>2233.76</ele>
        <time>2019-09-08T07:11:37Z</time>
      </trkpt>
      <trkpt lat="42.6118048467" lon="0.9443388227">
        <ele>2233.76</ele>
        <time>2019-09-08T07:11:38Z</time>
      </trkpt>
      <trkpt lat="42.6118229516" lon="0.9443723504">
        <ele>2234.24</ele>
        <time>2019-09-08T07:11:41Z</time>
      </trkpt>
      <trkpt lat="42.6118403859" lon="0.9443933889">
        <ele>2234.72</ele>
        <time>2019-09-08T07:11:43Z</time>
      </trkpt>
      <trkpt lat="42.6118511148" lon="0.9444180317">
        <ele>2235.20</ele>
        <time>2019-09-08T07:11:45Z</time>
      </trkpt>
      <trkpt lat="42.6118574850" lon="0.9444331191">
        <ele>2235.20</ele>
        <time>2019-09-08T07:11:46Z</time>
      </trkpt>
      <trkpt lat="42.6118614245" lon="0.9444487933">
        <ele>2235.20</ele>
        <time>2019-09-08T07:11:47Z</time>
      </trkpt>
      <trkpt lat="42.6118656993" lon="0.9444623720">
        <ele>2235.20</ele>
        <time>2019-09-08T07:11:48Z</time>
      </trkpt>
      <trkpt lat="42.6118671242" lon="0.9444759507">
        <ele>2235.20</ele>
        <time>2019-09-08T07:11:49Z</time>
      </trkpt>
      <trkpt lat="42.6118689682" lon="0.9444899485">
        <ele>2235.20</ele>
        <time>2019-09-08T07:11:50Z</time>
      </trkpt>
      <trkpt lat="42.6118748356" lon="0.9445039462">
        <ele>2235.20</ele>
        <time>2019-09-08T07:11:51Z</time>
      </trkpt>
      <trkpt lat="42.6118846424" lon="0.9445169382">
        <ele>2235.20</ele>
        <time>2019-09-08T07:11:52Z</time>
      </trkpt>
      <trkpt lat="42.6118942816" lon="0.9445269965">
        <ele>2235.20</ele>
        <time>2019-09-08T07:11:53Z</time>
      </trkpt>
      <trkpt lat="42.6119060162" lon="0.9445345402">
        <ele>2235.20</ele>
        <time>2019-09-08T07:11:54Z</time>
      </trkpt>
      <trkpt lat="42.6119165774" lon="0.9445423353">
        <ele>2235.20</ele>
        <time>2019-09-08T07:11:55Z</time>
      </trkpt>
      <trkpt lat="42.6119435672" lon="0.9445738513">
        <ele>2235.20</ele>
        <time>2019-09-08T07:12:06Z</time>
      </trkpt>
      <trkpt lat="42.6119667850" lon="0.9446197841">
        <ele>2235.20</ele>
        <time>2019-09-08T07:12:14Z</time>
      </trkpt>
      <trkpt lat="42.6120690443" lon="0.9446378890">
        <ele>2237.13</ele>
        <time>2019-09-08T07:12:25Z</time>
      </trkpt>
      <trkpt lat="42.6121093612" lon="0.9446832351">
        <ele>2238.09</ele>
        <time>2019-09-08T07:12:33Z</time>
      </trkpt>
      <trkpt lat="42.6121670287" lon="0.9446865879">
        <ele>2240.01</ele>
        <time>2019-09-08T07:12:41Z</time>
      </trkpt>
      <trkpt lat="42.6121848822" lon="0.9446835704">
        <ele>2240.01</ele>
        <time>2019-09-08T07:12:43Z</time>
      </trkpt>
      <trkpt lat="42.6122764964" lon="0.9447227139">
        <ele>2241.93</ele>
        <time>2019-09-08T07:12:55Z</time>
      </trkpt>
      <trkpt lat="42.6123298053" lon="0.9447582532">
        <ele>2243.37</ele>
        <time>2019-09-08T07:13:04Z</time>
      </trkpt>
      <trkpt lat="42.6123939268" lon="0.9448236320">
        <ele>2245.78</ele>
        <time>2019-09-08T07:13:15Z</time>
      </trkpt>
      <trkpt lat="42.6123719662" lon="0.9448719118">
        <ele>2247.22</ele>
        <time>2019-09-08T07:13:24Z</time>
      </trkpt>
      <trkpt lat="42.6123055816" lon="0.9448823892">
        <ele>2249.14</ele>
        <time>2019-09-08T07:13:35Z</time>
      </trkpt>
      <trkpt lat="42.6122521888" lon="0.9449137375">
        <ele>2250.58</ele>
        <time>2019-09-08T07:13:52Z</time>
      </trkpt>
      <trkpt lat="42.6122498419" lon="0.9449237119">
        <ele>2250.58</ele>
        <time>2019-09-08T07:13:53Z</time>
      </trkpt>
      <trkpt lat="42.6122149732" lon="0.9450184274">
        <ele>2252.03</ele>
        <time>2019-09-08T07:14:03Z</time>
      </trkpt>
      <trkpt lat="42.6121974550" lon="0.9451055992">
        <ele>2253.95</ele>
        <time>2019-09-08T07:14:12Z</time>
      </trkpt>
      <trkpt lat="42.6121355966" lon="0.9451170824">
        <ele>2255.87</ele>
        <time>2019-09-08T07:14:22Z</time>
      </trkpt>
      <trkpt lat="42.6120988838" lon="0.9451214410">
        <ele>2257.79</ele>
        <time>2019-09-08T07:14:32Z</time>
      </trkpt>
      <trkpt lat="42.6120535377" lon="0.9451037552">
        <ele>2259.24</ele>
        <time>2019-09-08T07:14:41Z</time>
      </trkpt>
      <trkpt lat="42.6119846385" lon="0.9451795276">
        <ele>2261.64</ele>
        <time>2019-09-08T07:14:54Z</time>
      </trkpt>
      <trkpt lat="42.6119311620" lon="0.9452898335">
        <ele>2263.08</ele>
        <time>2019-09-08T07:15:06Z</time>
      </trkpt>
      <trkpt lat="42.6118979696" lon="0.9453540388">
        <ele>2264.04</ele>
        <time>2019-09-08T07:15:16Z</time>
      </trkpt>
      <trkpt lat="42.6118534617" lon="0.9454030730">
        <ele>2265.96</ele>
        <time>2019-09-08T07:15:29Z</time>
      </trkpt>
      <trkpt lat="42.6117796171" lon="0.9454608243">
        <ele>2268.37</ele>
        <time>2019-09-08T07:15:42Z</time>
      </trkpt>
      <trkpt lat="42.6117638592" lon="0.9454729781">
        <ele>2268.37</ele>
        <time>2019-09-08T07:15:45Z</time>
      </trkpt>
      <trkpt lat="42.6116921101" lon="0.9455060028">
        <ele>2269.81</ele>
        <time>2019-09-08T07:15:55Z</time>
      </trkpt>
      <trkpt lat="42.6116487756" lon="0.9455568809">
        <ele>2271.25</ele>
        <time>2019-09-08T07:16:05Z</time>
      </trkpt>
      <trkpt lat="42.6116011664" lon="0.9456019755">
        <ele>2272.69</ele>
        <time>2019-09-08T07:16:14Z</time>
      </trkpt>
      <trkpt lat="42.6115440018" lon="0.9455961082">
        <ele>2274.14</ele>
        <time>2019-09-08T07:16:25Z</time>
      </trkpt>
      <trkpt lat="42.6115107257" lon="0.9456394427">
        <ele>2276.54</ele>
        <time>2019-09-08T07:16:36Z</time>
      </trkpt>
      <trkpt lat="42.6115004998" lon="0.9456743952">
        <ele>2277.98</ele>
        <time>2019-09-08T07:16:46Z</time>
      </trkpt>
      <trkpt lat="42.6114758570" lon="0.9456982836">
        <ele>2279.42</ele>
        <time>2019-09-08T07:16:59Z</time>
      </trkpt>
      <trkpt lat="42.6114497893" lon="0.9457719605">
        <ele>2281.35</ele>
        <time>2019-09-08T07:17:09Z</time>
      </trkpt>
      <trkpt lat="42.6114037726" lon="0.9458478168">
        <ele>2283.75</ele>
        <time>2019-09-08T07:17:22Z</time>
      </trkpt>
      <trkpt lat="42.6114031859" lon="0.9459159616">
        <ele>2285.19</ele>
        <time>2019-09-08T07:17:32Z</time>
      </trkpt>
      <trkpt lat="42.6113601867" lon="0.9459023830">
        <ele>2286.63</ele>
        <time>2019-09-08T07:17:44Z</time>
      </trkpt>
      <trkpt lat="42.6113117393" lon="0.9459063224">
        <ele>2289.04</ele>
        <time>2019-09-08T07:17:55Z</time>
      </trkpt>
      <trkpt lat="42.6112969033" lon="0.9459818434">
        <ele>2290.48</ele>
        <time>2019-09-08T07:18:06Z</time>
      </trkpt>
      <trkpt lat="42.6112896111" lon="0.9460324701">
        <ele>2290.96</ele>
        <time>2019-09-08T07:18:11Z</time>
      </trkpt>
      <trkpt lat="42.6112089772" lon="0.9461066499">
        <ele>2292.40</ele>
        <time>2019-09-08T07:18:23Z</time>
      </trkpt>
      <trkpt lat="42.6111548301" lon="0.9461896308">
        <ele>2293.84</ele>
        <time>2019-09-08T07:18:34Z</time>
      </trkpt>
      <trkpt lat="42.6111056283" lon="0.9462098312">
        <ele>2295.77</ele>
        <time>2019-09-08T07:18:45Z</time>
      </trkpt>
      <trkpt lat="42.6110639703" lon="0.9462605417">
        <ele>2297.21</ele>
        <time>2019-09-08T07:18:55Z</time>
      </trkpt>
      <trkpt lat="42.6110228989" lon="0.9462709352">
        <ele>2298.17</ele>
        <time>2019-09-08T07:19:05Z</time>
      </trkpt>
      <trkpt lat="42.6109964121" lon="0.9463295247">
        <ele>2300.09</ele>
        <time>2019-09-08T07:19:13Z</time>
      </trkpt>
      <trkpt lat="42.6109477133" lon="0.9463718534">
        <ele>2301.53</ele>
        <time>2019-09-08T07:19:23Z</time>
      </trkpt>
      <trkpt lat="42.6108931471" lon="0.9464164451">
        <ele>2302.98</ele>
        <time>2019-09-08T07:19:35Z</time>
      </trkpt>
      <trkpt lat="42.6108382456" lon="0.9464840032">
        <ele>2304.42</ele>
        <time>2019-09-08T07:19:45Z</time>
      </trkpt>
      <trkpt lat="42.6107768063" lon="0.9465354681">
        <ele>2305.38</ele>
        <time>2019-09-08T07:19:55Z</time>
      </trkpt>
      <trkpt lat="42.6107312925" lon="0.9465642180">
        <ele>2306.34</ele>
        <time>2019-09-08T07:20:07Z</time>
      </trkpt>
      <trkpt lat="42.6106992736" lon="0.9465786349">
        <ele>2306.82</ele>
        <time>2019-09-08T07:20:12Z</time>
      </trkpt>
      <trkpt lat="42.6106053125" lon="0.9465877712">
        <ele>2308.26</ele>
        <time>2019-09-08T07:20:22Z</time>
      </trkpt>
      <trkpt lat="42.6105714496" lon="0.9465932194">
        <ele>2309.22</ele>
        <time>2019-09-08T07:20:26Z</time>
      </trkpt>
      <trkpt lat="42.6105120219" lon="0.9466145094">
        <ele>2310.19</ele>
        <time>2019-09-08T07:20:36Z</time>
      </trkpt>
      <trkpt lat="42.6104679331" lon="0.9466080554">
        <ele>2311.63</ele>
        <time>2019-09-08T07:20:46Z</time>
      </trkpt>
      <trkpt lat="42.6104552764" lon="0.9466473665">
        <ele>2313.07</ele>
        <time>2019-09-08T07:20:56Z</time>
      </trkpt>
      <trkpt lat="42.6104021352" lon="0.9466778766">
        <ele>2314.51</ele>
        <time>2019-09-08T07:21:07Z</time>
      </trkpt>
      <trkpt lat="42.6103690267" lon="0.9467114042">
        <ele>2316.43</ele>
        <time>2019-09-08T07:21:16Z</time>
      </trkpt>
      <trkpt lat="42.6103525981" lon="0.9467930440">
        <ele>2317.40</ele>
        <time>2019-09-08T07:21:25Z</time>
      </trkpt>
      <trkpt lat="42.6103215851" lon="0.9468694869">
        <ele>2317.40</ele>
        <time>2019-09-08T07:21:32Z</time>
      </trkpt>
      <trkpt lat="42.6102495845" lon="0.9469931200">
        <ele>2317.40</ele>
        <time>2019-09-08T07:21:44Z</time>
      </trkpt>
      <trkpt lat="42.6102502551" lon="0.9470024239">
        <ele>2317.40</ele>
        <time>2019-09-08T07:21:45Z</time>
      </trkpt>
      <trkpt lat="42.6102624927" lon="0.9470547270">
        <ele>2317.40</ele>
        <time>2019-09-08T07:21:55Z</time>
      </trkpt>
      <trkpt lat="42.6103274524" lon="0.9470752627">
        <ele>2318.84</ele>
        <time>2019-09-08T07:22:06Z</time>
      </trkpt>
      <trkpt lat="42.6103690267" lon="0.9471099637">
        <ele>2319.80</ele>
        <time>2019-09-08T07:22:15Z</time>
      </trkpt>
      <trkpt lat="42.6104043145" lon="0.9471740015">
        <ele>2320.76</ele>
        <time>2019-09-08T07:22:24Z</time>
      </trkpt>
      <trkpt lat="42.6104381774" lon="0.9471838921">
        <ele>2321.72</ele>
        <time>2019-09-08T07:22:30Z</time>
      </trkpt>
      <trkpt lat="42.6105028018" lon="0.9471911006">
        <ele>2323.64</ele>
        <time>2019-09-08T07:22:43Z</time>
      </trkpt>
      <trkpt lat="42.6104987785" lon="0.9471885022">
        <ele>2324.12</ele>
        <time>2019-09-08T07:23:12Z</time>
      </trkpt>
      <trkpt lat="42.6104939170" lon="0.9471906815">
        <ele>2324.12</ele>
        <time>2019-09-08T07:23:34Z</time>
      </trkpt>
      <trkpt lat="42.6104874630" lon="0.9471968003">
        <ele>2324.12</ele>
        <time>2019-09-08T07:23:57Z</time>
      </trkpt>
      <trkpt lat="42.6104879659" lon="0.9472425655">
        <ele>2324.12</ele>
        <time>2019-09-08T07:24:20Z</time>
      </trkpt>
      <trkpt lat="42.6104903966" lon="0.9472884145">
        <ele>2324.12</ele>
        <time>2019-09-08T07:24:26Z</time>
      </trkpt>
      <trkpt lat="42.6104952581" lon="0.9473480936">
        <ele>2325.57</ele>
        <time>2019-09-08T07:24:32Z</time>
      </trkpt>
      <trkpt lat="42.6104920730" lon="0.9473878238">
        <ele>2326.05</ele>
        <time>2019-09-08T07:24:36Z</time>
      </trkpt>
      <trkpt lat="42.6105000358" lon="0.9474289790">
        <ele>2326.53</ele>
        <time>2019-09-08T07:24:39Z</time>
      </trkpt>
      <trkpt lat="42.6104660891" lon="0.9475399554">
        <ele>2326.53</ele>
        <time>2019-09-08T07:24:52Z</time>
      </trkpt>
      <trkpt lat="42.6104349084" lon="0.9475840442">
        <ele>2326.53</ele>
        <time>2019-09-08T07:24:56Z</time>
      </trkpt>
      <trkpt lat="42.6104405243" lon="0.9477458149">
        <ele>2326.53</ele>
        <time>2019-09-08T07:25:08Z</time>
      </trkpt>
      <trkpt lat="42.6104411948" lon="0.9478169773">
        <ele>2326.53</ele>
        <time>2019-09-08T07:25:14Z</time>
      </trkpt>
      <trkpt lat="42.6104587968" lon="0.9479112737">
        <ele>2327.01</ele>
        <time>2019-09-08T07:25:24Z</time>
      </trkpt>
      <trkpt lat="42.6104649995" lon="0.9480071627">
        <ele>2327.97</ele>
        <time>2019-09-08T07:25:34Z</time>
      </trkpt>
      <trkpt lat="42.6104790810" lon="0.9480563644">
        <ele>2329.41</ele>
        <time>2019-09-08T07:25:39Z</time>
      </trkpt>
      <trkpt lat="42.6105116867" lon="0.9481602162">
        <ele>2329.89</ele>
        <time>2019-09-08T07:25:48Z</time>
      </trkpt>
      <trkpt lat="42.6105022151" lon="0.9482375812">
        <ele>2331.33</ele>
        <time>2019-09-08T07:25:59Z</time>
      </trkpt>
      <trkpt lat="42.6105612237" lon="0.9482571948">
        <ele>2333.26</ele>
        <time>2019-09-08T07:26:09Z</time>
      </trkpt>
      <trkpt lat="42.6105463039" lon="0.9482823405">
        <ele>2334.22</ele>
        <time>2019-09-08T07:26:16Z</time>
      </trkpt>
      <trkpt lat="42.6104910672" lon="0.9483598731">
        <ele>2337.10</ele>
        <time>2019-09-08T07:26:31Z</time>
      </trkpt>
      <trkpt lat="42.6104656700" lon="0.9484267607">
        <ele>2339.02</ele>
        <time>2019-09-08T07:26:43Z</time>
      </trkpt>
      <trkpt lat="42.6104547735" lon="0.9484849311">
        <ele>2340.95</ele>
        <time>2019-09-08T07:26:53Z</time>
      </trkpt>
      <trkpt lat="42.6104454696" lon="0.9485321213">
        <ele>2342.87</ele>
        <time>2019-09-08T07:27:04Z</time>
      </trkpt>
      <trkpt lat="42.6103899814" lon="0.9486102406">
        <ele>2345.27</ele>
        <time>2019-09-08T07:27:18Z</time>
      </trkpt>
      <trkpt lat="42.6103712898" lon="0.9486844204">
        <ele>2346.23</ele>
        <time>2019-09-08T07:27:28Z</time>
      </trkpt>
      <trkpt lat="42.6103649195" lon="0.9487567563">
        <ele>2347.68</ele>
        <time>2019-09-08T07:27:39Z</time>
      </trkpt>
      <trkpt lat="42.6103577949" lon="0.9488337860">
        <ele>2349.12</ele>
        <time>2019-09-08T07:27:48Z</time>
      </trkpt>
      <trkpt lat="42.6103235967" lon="0.9489119891">
        <ele>2350.56</ele>
        <time>2019-09-08T07:27:59Z</time>
      </trkpt>
      <trkpt lat="42.6103188191" lon="0.9490006696">
        <ele>2352.00</ele>
        <time>2019-09-08T07:28:11Z</time>
      </trkpt>
      <trkpt lat="42.6103470661" lon="0.9490770288">
        <ele>2353.93</ele>
        <time>2019-09-08T07:28:21Z</time>
      </trkpt>
      <trkpt lat="42.6103908196" lon="0.9491161723">
        <ele>2355.37</ele>
        <time>2019-09-08T07:28:31Z</time>
      </trkpt>
      <trkpt lat="42.6104017999" lon="0.9491461795">
        <ele>2355.85</ele>
        <time>2019-09-08T07:28:35Z</time>
      </trkpt>
      <trkpt lat="42.6104408596" lon="0.9491841495">
        <ele>2357.29</ele>
        <time>2019-09-08T07:28:44Z</time>
      </trkpt>
      <trkpt lat="42.6104916539" lon="0.9492223710">
        <ele>2358.73</ele>
        <time>2019-09-08T07:28:54Z</time>
      </trkpt>
      <trkpt lat="42.6105374191" lon="0.9492538869">
        <ele>2359.69</ele>
        <time>2019-09-08T07:29:05Z</time>
      </trkpt>
      <trkpt lat="42.6105466392" lon="0.9492602572">
        <ele>2360.17</ele>
        <time>2019-09-08T07:29:06Z</time>
      </trkpt>
      <trkpt lat="42.6106264349" lon="0.9492525458">
        <ele>2361.62</ele>
        <time>2019-09-08T07:29:17Z</time>
      </trkpt>
      <trkpt lat="42.6106552687" lon="0.9492781106">
        <ele>2362.58</ele>
        <time>2019-09-08T07:29:31Z</time>
      </trkpt>
      <trkpt lat="42.6106618904" lon="0.9493072797">
        <ele>2364.02</ele>
        <time>2019-09-08T07:29:40Z</time>
      </trkpt>
      <trkpt lat="42.6106623095" lon="0.9493475128">
        <ele>2364.50</ele>
        <time>2019-09-08T07:29:58Z</time>
      </trkpt>
      <trkpt lat="42.6106621418" lon="0.9493514523">
        <ele>2364.98</ele>
        <time>2019-09-08T07:30:17Z</time>
      </trkpt>
      <trkpt lat="42.6106628124" lon="0.9494161606">
        <ele>2365.94</ele>
        <time>2019-09-08T07:30:27Z</time>
      </trkpt>
      <trkpt lat="42.6107090805" lon="0.9494896699">
        <ele>2367.38</ele>
        <time>2019-09-08T07:30:37Z</time>
      </trkpt>
      <trkpt lat="42.6107773930" lon="0.9495514445">
        <ele>2368.83</ele>
        <time>2019-09-08T07:30:47Z</time>
      </trkpt>
      <trkpt lat="42.6108315401" lon="0.9496077709">
        <ele>2369.79</ele>
        <time>2019-09-08T07:30:57Z</time>
      </trkpt>
      <trkpt lat="42.6108694263" lon="0.9496392030">
        <ele>2371.23</ele>
        <time>2019-09-08T07:31:08Z</time>
      </trkpt>
      <trkpt lat="42.6109348051" lon="0.9496796038">
        <ele>2373.63</ele>
        <time>2019-09-08T07:31:21Z</time>
      </trkpt>
      <trkpt lat="42.6109711826" lon="0.9496935178">
        <ele>2374.59</ele>
        <time>2019-09-08T07:31:31Z</time>
      </trkpt>
      <trkpt lat="42.6109730266" lon="0.9497036599">
        <ele>2375.07</ele>
        <time>2019-09-08T07:31:55Z</time>
      </trkpt>
      <trkpt lat="42.6109736972" lon="0.9497030731">
        <ele>2375.07</ele>
        <time>2019-09-08T07:32:18Z</time>
      </trkpt>
      <trkpt lat="42.6110060513" lon="0.9497236088">
        <ele>2375.55</ele>
        <time>2019-09-08T07:32:40Z</time>
      </trkpt>
      <trkpt lat="42.6110274252" lon="0.9497587290">
        <ele>2376.52</ele>
        <time>2019-09-08T07:32:49Z</time>
      </trkpt>
      <trkpt lat="42.6110569295" lon="0.9497791808">
        <ele>2377.96</ele>
        <time>2019-09-08T07:32:59Z</time>
      </trkpt>
      <trkpt lat="42.6110724360" lon="0.9497938491">
        <ele>2379.40</ele>
        <time>2019-09-08T07:33:12Z</time>
      </trkpt>
      <trkpt lat="42.6111607812" lon="0.9498402011">
        <ele>2379.88</ele>
        <time>2019-09-08T07:33:25Z</time>
      </trkpt>
      <trkpt lat="42.6112073846" lon="0.9498705436">
        <ele>2381.32</ele>
        <time>2019-09-08T07:33:37Z</time>
      </trkpt>
      <trkpt lat="42.6112133358" lon="0.9499005508">
        <ele>2381.80</ele>
        <time>2019-09-08T07:33:42Z</time>
      </trkpt>
      <trkpt lat="42.6111516450" lon="0.9499261994">
        <ele>2383.73</ele>
        <time>2019-09-08T07:33:51Z</time>
      </trkpt>
      <trkpt lat="42.6110752858" lon="0.9499543626">
        <ele>2385.17</ele>
        <time>2019-09-08T07:34:03Z</time>
      </trkpt>
      <trkpt lat="42.6110121701" lon="0.9499712940">
        <ele>2387.09</ele>
        <time>2019-09-08T07:34:15Z</time>
      </trkpt>
      <trkpt lat="42.6109129284" lon="0.9499826096">
        <ele>2388.05</ele>
        <time>2019-09-08T07:34:26Z</time>
      </trkpt>
      <trkpt lat="42.6108202245" lon="0.9500180651">
        <ele>2389.49</ele>
        <time>2019-09-08T07:34:38Z</time>
      </trkpt>
      <trkpt lat="42.6107738726" lon="0.9500735532">
        <ele>2390.94</ele>
        <time>2019-09-08T07:34:47Z</time>
      </trkpt>
      <trkpt lat="42.6107395906" lon="0.9500966873">
        <ele>2392.38</ele>
        <time>2019-09-08T07:34:58Z</time>
      </trkpt>
      <trkpt lat="42.6107099187" lon="0.9501088411">
        <ele>2392.86</ele>
        <time>2019-09-08T07:35:11Z</time>
      </trkpt>
      <trkpt lat="42.6106740441" lon="0.9501466434">
        <ele>2393.82</ele>
        <time>2019-09-08T07:35:21Z</time>
      </trkpt>
      <trkpt lat="42.6106700208" lon="0.9501365852">
        <ele>2394.78</ele>
        <time>2019-09-08T07:35:49Z</time>
      </trkpt>
      <trkpt lat="42.6105997805" lon="0.9501869604">
        <ele>2395.26</ele>
        <time>2019-09-08T07:36:04Z</time>
      </trkpt>
      <trkpt lat="42.6105212420" lon="0.9502495732">
        <ele>2396.70</ele>
        <time>2019-09-08T07:36:17Z</time>
      </trkpt>
      <trkpt lat="42.6104893070" lon="0.9503107611">
        <ele>2398.63</ele>
        <time>2019-09-08T07:36:30Z</time>
      </trkpt>
      <trkpt lat="42.6104292925" lon="0.9503715299">
        <ele>2401.03</ele>
        <time>2019-09-08T07:36:43Z</time>
      </trkpt>
      <trkpt lat="42.6103601418" lon="0.9504337236">
        <ele>2404.39</ele>
        <time>2019-09-08T07:36:57Z</time>
      </trkpt>
      <trkpt lat="42.6102741435" lon="0.9504131041">
        <ele>2405.36</ele>
        <time>2019-09-08T07:37:07Z</time>
      </trkpt>
      <trkpt lat="42.6102311444" lon="0.9504721966">
        <ele>2407.76</ele>
        <time>2019-09-08T07:37:22Z</time>
      </trkpt>
      <trkpt lat="42.6101840381" lon="0.9504747111">
        <ele>2409.20</ele>
        <time>2019-09-08T07:37:32Z</time>
      </trkpt>
      <trkpt lat="42.6101479121" lon="0.9505039640">
        <ele>2411.60</ele>
        <time>2019-09-08T07:37:46Z</time>
      </trkpt>
      <trkpt lat="42.6101098582" lon="0.9505226556">
        <ele>2413.05</ele>
        <time>2019-09-08T07:37:58Z</time>
      </trkpt>
      <trkpt lat="42.6101552043" lon="0.9505599551">
        <ele>2414.97</ele>
        <time>2019-09-08T07:38:09Z</time>
      </trkpt>
      <trkpt lat="42.6101852953" lon="0.9506025352">
        <ele>2416.41</ele>
        <time>2019-09-08T07:38:20Z</time>
      </trkpt>
      <trkpt lat="42.6101917494" lon="0.9506540000">
        <ele>2417.37</ele>
        <time>2019-09-08T07:38:31Z</time>
      </trkpt>
      <trkpt lat="42.6101477444" lon="0.9506693389">
        <ele>2419.30</ele>
        <time>2019-09-08T07:38:43Z</time>
      </trkpt>
      <trkpt lat="42.6101049129" lon="0.9506857675">
        <ele>2421.22</ele>
        <time>2019-09-08T07:38:53Z</time>
      </trkpt>
      <trkpt lat="42.6100438926" lon="0.9506927244">
        <ele>2423.14</ele>
        <time>2019-09-08T07:39:05Z</time>
      </trkpt>
      <trkpt lat="42.6100616623" lon="0.9507252462">
        <ele>2424.10</ele>
        <time>2019-09-08T07:39:15Z</time>
      </trkpt>
      <trkpt lat="42.6101071760" lon="0.9507556725">
        <ele>2426.02</ele>
        <time>2019-09-08T07:39:25Z</time>
      </trkpt>
      <trkpt lat="42.6101084333" lon="0.9508100711">
        <ele>2426.99</ele>
        <time>2019-09-08T07:39:36Z</time>
      </trkpt>
      <trkpt lat="42.6100652665" lon="0.9508492146">
        <ele>2428.91</ele>
        <time>2019-09-08T07:39:46Z</time>
      </trkpt>
      <trkpt lat="42.6100242790" lon="0.9508811496">
        <ele>2430.35</ele>
        <time>2019-09-08T07:39:57Z</time>
      </trkpt>
      <trkpt lat="42.6099810284" lon="0.9508785512">
        <ele>2431.31</ele>
        <time>2019-09-08T07:40:13Z</time>
      </trkpt>
      <trkpt lat="42.6099445671" lon="0.9508965723">
        <ele>2433.23</ele>
        <time>2019-09-08T07:40:24Z</time>
      </trkpt>
      <trkpt lat="42.6099224389" lon="0.9509295970">
        <ele>2434.20</ele>
        <time>2019-09-08T07:40:35Z</time>
      </trkpt>
      <trkpt lat="42.6099346764" lon="0.9509830736">
        <ele>2435.64</ele>
        <time>2019-09-08T07:40:46Z</time>
      </trkpt>
      <trkpt lat="42.6098780986" lon="0.9510106500">
        <ele>2436.60</ele>
        <time>2019-09-08T07:40:56Z</time>
      </trkpt>
      <trkpt lat="42.6098226942" lon="0.9510360472">
        <ele>2438.52</ele>
        <time>2019-09-08T07:41:08Z</time>
      </trkpt>
      <trkpt lat="42.6097587403" lon="0.9510220494">
        <ele>2439.48</ele>
        <time>2019-09-08T07:41:18Z</time>
      </trkpt>
      <trkpt lat="42.6097396296" lon="0.9510094766">
        <ele>2440.44</ele>
        <time>2019-09-08T07:41:28Z</time>
      </trkpt>
      <trkpt lat="42.6097290684" lon="0.9510115720">
        <ele>2440.92</ele>
        <time>2019-09-08T07:41:38Z</time>
      </trkpt>
      <trkpt lat="42.6097140647" lon="0.9510100633">
        <ele>2440.92</ele>
        <time>2019-09-08T07:41:53Z</time>
      </trkpt>
      <trkpt lat="42.6097158249" lon="0.9509967361">
        <ele>2440.92</ele>
        <time>2019-09-08T07:42:26Z</time>
      </trkpt>
      <trkpt lat="42.6097109634" lon="0.9509986639">
        <ele>2440.44</ele>
        <time>2019-09-08T07:43:09Z</time>
      </trkpt>
      <trkpt lat="42.6096945349" lon="0.9509945568">
        <ele>2440.44</ele>
        <time>2019-09-08T07:43:33Z</time>
      </trkpt>
      <trkpt lat="42.6096485183" lon="0.9510273300">
        <ele>2440.44</ele>
        <time>2019-09-08T07:43:43Z</time>
      </trkpt>
      <trkpt lat="42.6097087003" lon="0.9510831535">
        <ele>2440.92</ele>
        <time>2019-09-08T07:43:54Z</time>
      </trkpt>
      <trkpt lat="42.6097294036" lon="0.9511005878">
        <ele>2443.81</ele>
        <time>2019-09-08T07:44:03Z</time>
      </trkpt>
      <trkpt lat="42.6097356062" lon="0.9511441737">
        <ele>2444.77</ele>
        <time>2019-09-08T07:44:16Z</time>
      </trkpt>
      <trkpt lat="42.6097413898" lon="0.9511732589">
        <ele>2446.21</ele>
        <time>2019-09-08T07:44:26Z</time>
      </trkpt>
      <trkpt lat="42.6097796112" lon="0.9512320161">
        <ele>2447.17</ele>
        <time>2019-09-08T07:44:36Z</time>
      </trkpt>
      <trkpt lat="42.6098444872" lon="0.9512445889">
        <ele>2448.13</ele>
        <time>2019-09-08T07:44:46Z</time>
      </trkpt>
      <trkpt lat="42.6098871510" lon="0.9512753505">
        <ele>2449.58</ele>
        <time>2019-09-08T07:44:56Z</time>
      </trkpt>
      <trkpt lat="42.6099068485" lon="0.9513078723">
        <ele>2451.02</ele>
        <time>2019-09-08T07:45:06Z</time>
      </trkpt>
      <trkpt lat="42.6098723151" lon="0.9513620194">
        <ele>2452.46</ele>
        <time>2019-09-08T07:45:18Z</time>
      </trkpt>
      <trkpt lat="42.6098213531" lon="0.9514352772">
        <ele>2454.86</ele>
        <time>2019-09-08T07:45:30Z</time>
      </trkpt>
      <trkpt lat="42.6097927708" lon="0.9514919389">
        <ele>2456.31</ele>
        <time>2019-09-08T07:45:41Z</time>
      </trkpt>
      <trkpt lat="42.6097646914" lon="0.9515824635">
        <ele>2457.27</ele>
        <time>2019-09-08T07:45:50Z</time>
      </trkpt>
      <trkpt lat="42.6097317506" lon="0.9516406339">
        <ele>2458.23</ele>
        <time>2019-09-08T07:46:00Z</time>
      </trkpt>
      <trkpt lat="42.6096673775" lon="0.9516247083">
        <ele>2460.15</ele>
        <time>2019-09-08T07:46:11Z</time>
      </trkpt>
      <trkpt lat="42.6096495241" lon="0.9516361915">
        <ele>2460.63</ele>
        <time>2019-09-08T07:46:22Z</time>
      </trkpt>
      <trkpt lat="42.6096469257" lon="0.9516259655">
        <ele>2461.59</ele>
        <time>2019-09-08T07:46:40Z</time>
      </trkpt>
      <trkpt lat="42.6096433215" lon="0.9516087826">
        <ele>2461.11</ele>
        <time>2019-09-08T07:46:51Z</time>
      </trkpt>
      <trkpt lat="42.6096512843" lon="0.9515921865">
        <ele>2461.11</ele>
        <time>2019-09-08T07:47:01Z</time>
      </trkpt>
      <trkpt lat="42.6096403040" lon="0.9516245406">
        <ele>2461.11</ele>
        <time>2019-09-08T07:47:24Z</time>
      </trkpt>
      <trkpt lat="42.6096646953" lon="0.9516335092">
        <ele>2461.59</ele>
        <time>2019-09-08T07:47:38Z</time>
      </trkpt>
      <trkpt lat="42.6096388791" lon="0.9516705573">
        <ele>2462.07</ele>
        <time>2019-09-08T07:47:54Z</time>
      </trkpt>
      <trkpt lat="42.6095908508" lon="0.9517444018">
        <ele>2464.48</ele>
        <time>2019-09-08T07:48:06Z</time>
      </trkpt>
      <trkpt lat="42.6095725782" lon="0.9517917596">
        <ele>2466.88</ele>
        <time>2019-09-08T07:48:18Z</time>
      </trkpt>
      <trkpt lat="42.6095654536" lon="0.9518411290">
        <ele>2467.36</ele>
        <time>2019-09-08T07:48:38Z</time>
      </trkpt>
      <trkpt lat="42.6095711533" lon="0.9519268759">
        <ele>2469.76</ele>
        <time>2019-09-08T07:48:48Z</time>
      </trkpt>
      <trkpt lat="42.6095581613" lon="0.9520068392">
        <ele>2471.21</ele>
        <time>2019-09-08T07:48:59Z</time>
      </trkpt>
      <trkpt lat="42.6095170900" lon="0.9520811867">
        <ele>2472.17</ele>
        <time>2019-09-08T07:49:10Z</time>
      </trkpt>
      <trkpt lat="42.6094966382" lon="0.9521469008">
        <ele>2474.57</ele>
        <time>2019-09-08T07:49:23Z</time>
      </trkpt>
      <trkpt lat="42.6094648708" lon="0.9522169735">
        <ele>2476.49</ele>
        <time>2019-09-08T07:49:33Z</time>
      </trkpt>
      <trkpt lat="42.6094487775" lon="0.9523194842">
        <ele>2477.94</ele>
        <time>2019-09-08T07:49:45Z</time>
      </trkpt>
      <trkpt lat="42.6094219554" lon="0.9523919038">
        <ele>2479.86</ele>
        <time>2019-09-08T07:49:56Z</time>
      </trkpt>
      <trkpt lat="42.6094046887" lon="0.9524302091">
        <ele>2480.34</ele>
        <time>2019-09-08T07:49:59Z</time>
      </trkpt>
      <trkpt lat="42.6093709935" lon="0.9525259305">
        <ele>2481.30</ele>
        <time>2019-09-08T07:50:07Z</time>
      </trkpt>
      <trkpt lat="42.6093652099" lon="0.9525488969">
        <ele>2481.78</ele>
        <time>2019-09-08T07:50:09Z</time>
      </trkpt>
      <trkpt lat="42.6092989929" lon="0.9526735358">
        <ele>2483.22</ele>
        <time>2019-09-08T07:50:20Z</time>
      </trkpt>
      <trkpt lat="42.6092801336" lon="0.9527017828">
        <ele>2483.70</ele>
        <time>2019-09-08T07:50:23Z</time>
      </trkpt>
      <trkpt lat="42.6091846637" lon="0.9528498072">
        <ele>2485.15</ele>
        <time>2019-09-08T07:50:36Z</time>
      </trkpt>
      <trkpt lat="42.6091345400" lon="0.9529156052">
        <ele>2485.63</ele>
        <time>2019-09-08T07:50:42Z</time>
      </trkpt>
      <trkpt lat="42.6091261581" lon="0.9529249091">
        <ele>2485.63</ele>
        <time>2019-09-08T07:50:43Z</time>
      </trkpt>
      <trkpt lat="42.6091201231" lon="0.9529369790">
        <ele>2485.63</ele>
        <time>2019-09-08T07:50:44Z</time>
      </trkpt>
      <trkpt lat="42.6091163512" lon="0.9529508092">
        <ele>2485.63</ele>
        <time>2019-09-08T07:50:45Z</time>
      </trkpt>
      <trkpt lat="42.6090775430" lon="0.9530087281">
        <ele>2486.59</ele>
        <time>2019-09-08T07:50:52Z</time>
      </trkpt>
      <trkpt lat="42.6090337057" lon="0.9530849196">
        <ele>2487.55</ele>
        <time>2019-09-08T07:51:00Z</time>
      </trkpt>
      <trkpt lat="42.6090307720" lon="0.9530969895">
        <ele>2487.55</ele>
        <time>2019-09-08T07:51:01Z</time>
      </trkpt>
      <trkpt lat="42.6090256590" lon="0.9531097300">
        <ele>2488.03</ele>
        <time>2019-09-08T07:51:02Z</time>
      </trkpt>
      <trkpt lat="42.6089481264" lon="0.9532340337">
        <ele>2488.03</ele>
        <time>2019-09-08T07:51:13Z</time>
      </trkpt>
      <trkpt lat="42.6088889502" lon="0.9533896018">
        <ele>2490.43</ele>
        <time>2019-09-08T07:51:26Z</time>
      </trkpt>
      <trkpt lat="42.6088676602" lon="0.9534310922">
        <ele>2490.91</ele>
        <time>2019-09-08T07:51:30Z</time>
      </trkpt>
      <trkpt lat="42.6087995153" lon="0.9535752609">
        <ele>2492.36</ele>
        <time>2019-09-08T07:51:42Z</time>
      </trkpt>
      <trkpt lat="42.6087042131" lon="0.9537651110">
        <ele>2493.32</ele>
        <time>2019-09-08T07:51:57Z</time>
      </trkpt>
      <trkpt lat="42.6086754631" lon="0.9538069367">
        <ele>2493.80</ele>
        <time>2019-09-08T07:52:01Z</time>
      </trkpt>
      <trkpt lat="42.6085644029" lon="0.9539096989">
        <ele>2493.80</ele>
        <time>2019-09-08T07:52:13Z</time>
      </trkpt>
      <trkpt lat="42.6084838528" lon="0.9540092759">
        <ele>2494.76</ele>
        <time>2019-09-08T07:52:24Z</time>
      </trkpt>
      <trkpt lat="42.6084696874" lon="0.9541474935">
        <ele>2495.24</ele>
        <time>2019-09-08T07:52:36Z</time>
      </trkpt>
      <trkpt lat="42.6084738784" lon="0.9543090966">
        <ele>2495.24</ele>
        <time>2019-09-08T07:52:49Z</time>
      </trkpt>
      <trkpt lat="42.6083955076" lon="0.9543447196">
        <ele>2496.20</ele>
        <time>2019-09-08T07:52:59Z</time>
      </trkpt>
      <trkpt lat="42.6083727088" lon="0.9544221684">
        <ele>2498.60</ele>
        <time>2019-09-08T07:53:12Z</time>
      </trkpt>
      <trkpt lat="42.6083193161" lon="0.9544505831">
        <ele>2499.57</ele>
        <time>2019-09-08T07:53:19Z</time>
      </trkpt>
      <trkpt lat="42.6083009597" lon="0.9544670954">
        <ele>2500.05</ele>
        <time>2019-09-08T07:53:21Z</time>
      </trkpt>
      <trkpt lat="42.6082929131" lon="0.9544761479">
        <ele>2500.05</ele>
        <time>2019-09-08T07:53:22Z</time>
      </trkpt>
      <trkpt lat="42.6082147937" lon="0.9545955062">
        <ele>2501.01</ele>
        <time>2019-09-08T07:53:33Z</time>
      </trkpt>
      <trkpt lat="42.6080884784" lon="0.9547049738">
        <ele>2501.97</ele>
        <time>2019-09-08T07:53:45Z</time>
      </trkpt>
      <trkpt lat="42.6079639234" lon="0.9547503199">
        <ele>2502.93</ele>
        <time>2019-09-08T07:53:57Z</time>
      </trkpt>
      <trkpt lat="42.6079401188" lon="0.9547669999">
        <ele>2502.93</ele>
        <time>2019-09-08T07:54:00Z</time>
      </trkpt>
      <trkpt lat="42.6079295576" lon="0.9547706041">
        <ele>2502.93</ele>
        <time>2019-09-08T07:54:01Z</time>
      </trkpt>
      <trkpt lat="42.6079204213" lon="0.9547680058">
        <ele>2503.41</ele>
        <time>2019-09-08T07:54:02Z</time>
      </trkpt>
      <trkpt lat="42.6078395359" lon="0.9547920618">
        <ele>2504.37</ele>
        <time>2019-09-08T07:54:11Z</time>
      </trkpt>
      <trkpt lat="42.6078188326" lon="0.9548074845">
        <ele>2504.37</ele>
        <time>2019-09-08T07:54:13Z</time>
      </trkpt>
      <trkpt lat="42.6078083552" lon="0.9548124298">
        <ele>2504.85</ele>
        <time>2019-09-08T07:54:14Z</time>
      </trkpt>
      <trkpt lat="42.6077973749" lon="0.9548203927">
        <ele>2504.85</ele>
        <time>2019-09-08T07:54:15Z</time>
      </trkpt>
      <trkpt lat="42.6077869814" lon="0.9548268467">
        <ele>2504.85</ele>
        <time>2019-09-08T07:54:16Z</time>
      </trkpt>
      <trkpt lat="42.6077762526" lon="0.9548327979">
        <ele>2504.85</ele>
        <time>2019-09-08T07:54:17Z</time>
      </trkpt>
      <trkpt lat="42.6077652723" lon="0.9548364859">
        <ele>2505.33</ele>
        <time>2019-09-08T07:54:18Z</time>
      </trkpt>
      <trkpt lat="42.6076782681" lon="0.9548786469">
        <ele>2506.77</ele>
        <time>2019-09-08T07:54:29Z</time>
      </trkpt>
      <trkpt lat="42.6076093689" lon="0.9549510665">
        <ele>2508.22</ele>
        <time>2019-09-08T07:54:41Z</time>
      </trkpt>
      <trkpt lat="42.6075456664" lon="0.9550273418">
        <ele>2510.62</ele>
        <time>2019-09-08T07:54:52Z</time>
      </trkpt>
      <trkpt lat="42.6074741688" lon="0.9550498053">
        <ele>2513.02</ele>
        <time>2019-09-08T07:55:06Z</time>
      </trkpt>
      <trkpt lat="42.6074300800" lon="0.9550974146">
        <ele>2513.98</ele>
        <time>2019-09-08T07:55:15Z</time>
      </trkpt>
      <trkpt lat="42.6073660422" lon="0.9551253263">
        <ele>2515.91</ele>
        <time>2019-09-08T07:55:26Z</time>
      </trkpt>
      <trkpt lat="42.6072994061" lon="0.9551744442">
        <ele>2517.83</ele>
        <time>2019-09-08T07:55:38Z</time>
      </trkpt>
      <trkpt lat="42.6072292496" lon="0.9551621228">
        <ele>2519.75</ele>
        <time>2019-09-08T07:55:49Z</time>
      </trkpt>
      <trkpt lat="42.6071771979" lon="0.9551928006">
        <ele>2522.16</ele>
        <time>2019-09-08T07:56:00Z</time>
      </trkpt>
      <trkpt lat="42.6071242243" lon="0.9552220535">
        <ele>2524.08</ele>
        <time>2019-09-08T07:56:13Z</time>
      </trkpt>
      <trkpt lat="42.6071441732" lon="0.9552613646">
        <ele>2525.52</ele>
        <time>2019-09-08T07:56:24Z</time>
      </trkpt>
      <trkpt lat="42.6071049459" lon="0.9553474467">
        <ele>2527.44</ele>
        <time>2019-09-08T07:56:37Z</time>
      </trkpt>
      <trkpt lat="42.6070689876" lon="0.9553905297">
        <ele>2529.37</ele>
        <time>2019-09-08T07:56:49Z</time>
      </trkpt>
      <trkpt lat="42.6070309337" lon="0.9554318525">
        <ele>2532.25</ele>
        <time>2019-09-08T07:57:00Z</time>
      </trkpt>
      <trkpt lat="42.6069611125" lon="0.9554586746">
        <ele>2534.17</ele>
        <time>2019-09-08T07:57:14Z</time>
      </trkpt>
      <trkpt lat="42.6069584303" lon="0.9555008356">
        <ele>2535.61</ele>
        <time>2019-09-08T07:57:26Z</time>
      </trkpt>
      <trkpt lat="42.6069247350" lon="0.9555281606">
        <ele>2538.02</ele>
        <time>2019-09-08T07:57:38Z</time>
      </trkpt>
      <trkpt lat="42.6068765391" lon="0.9555802122">
        <ele>2540.90</ele>
        <time>2019-09-08T07:57:52Z</time>
      </trkpt>
      <trkpt lat="42.6068327017" lon="0.9556207806">
        <ele>2542.82</ele>
        <time>2019-09-08T07:58:02Z</time>
      </trkpt>
      <trkpt lat="42.6068176981" lon="0.9556460939">
        <ele>2545.23</ele>
        <time>2019-09-08T07:58:12Z</time>
      </trkpt>
      <trkpt lat="42.6067811530" lon="0.9556591697">
        <ele>2546.67</ele>
        <time>2019-09-08T07:58:21Z</time>
      </trkpt>
      <trkpt lat="42.6067420095" lon="0.9556845669">
        <ele>2548.59</ele>
        <time>2019-09-08T07:58:32Z</time>
      </trkpt>
      <trkpt lat="42.6066931430" lon="0.9557082877">
        <ele>2550.03</ele>
        <time>2019-09-08T07:58:42Z</time>
      </trkpt>
      <trkpt lat="42.6066622138" lon="0.9557187650">
        <ele>2551.96</ele>
        <time>2019-09-08T07:58:54Z</time>
      </trkpt>
      <trkpt lat="42.6066975016" lon="0.9557472635">
        <ele>2553.40</ele>
        <time>2019-09-08T07:59:06Z</time>
      </trkpt>
      <trkpt lat="42.6066775527" lon="0.9557775222">
        <ele>2554.84</ele>
        <time>2019-09-08T07:59:16Z</time>
      </trkpt>
      <trkpt lat="42.6066232380" lon="0.9557993151">
        <ele>2556.76</ele>
        <time>2019-09-08T07:59:27Z</time>
      </trkpt>
      <trkpt lat="42.6065840945" lon="0.9558507800">
        <ele>2558.69</ele>
        <time>2019-09-08T07:59:40Z</time>
      </trkpt>
      <trkpt lat="42.6065393351" lon="0.9558887500">
        <ele>2561.57</ele>
        <time>2019-09-08T07:59:52Z</time>
      </trkpt>
      <trkpt lat="42.6065928116" lon="0.9559267201">
        <ele>2563.01</ele>
        <time>2019-09-08T08:00:04Z</time>
      </trkpt>
      <trkpt lat="42.6065830048" lon="0.9559861477">
        <ele>2564.93</ele>
        <time>2019-09-08T08:00:16Z</time>
      </trkpt>
      <trkpt lat="42.6065405086" lon="0.9560143109">
        <ele>2566.86</ele>
        <time>2019-09-08T08:00:26Z</time>
      </trkpt>
      <trkpt lat="42.6064976770" lon="0.9560333379">
        <ele>2567.82</ele>
        <time>2019-09-08T08:00:32Z</time>
      </trkpt>
      <trkpt lat="42.6064165402" lon="0.9560756665">
        <ele>2568.78</ele>
        <time>2019-09-08T08:00:44Z</time>
      </trkpt>
      <trkpt lat="42.6063495688" lon="0.9561420511">
        <ele>2570.22</ele>
        <time>2019-09-08T08:00:56Z</time>
      </trkpt>
      <trkpt lat="42.6062870398" lon="0.9561674483">
        <ele>2571.66</ele>
        <time>2019-09-08T08:01:06Z</time>
      </trkpt>
      <trkpt lat="42.6062315516" lon="0.9562112857">
        <ele>2573.11</ele>
        <time>2019-09-08T08:01:16Z</time>
      </trkpt>
      <trkpt lat="42.6061603893" lon="0.9562658519">
        <ele>2574.07</ele>
        <time>2019-09-08T08:01:27Z</time>
      </trkpt>
      <trkpt lat="42.6060939208" lon="0.9563137125">
        <ele>2575.51</ele>
        <time>2019-09-08T08:01:38Z</time>
      </trkpt>
      <trkpt lat="42.6060810126" lon="0.9563248605">
        <ele>2575.99</ele>
        <time>2019-09-08T08:01:40Z</time>
      </trkpt>
      <trkpt lat="42.6059636660" lon="0.9564467333">
        <ele>2575.99</ele>
        <time>2019-09-08T08:01:54Z</time>
      </trkpt>
      <trkpt lat="42.6058547851" lon="0.9565533511">
        <ele>2576.47</ele>
        <time>2019-09-08T08:02:06Z</time>
      </trkpt>
      <trkpt lat="42.6057308167" lon="0.9566494077">
        <ele>2577.43</ele>
        <time>2019-09-08T08:02:19Z</time>
      </trkpt>
      <trkpt lat="42.6056085248" lon="0.9567167982">
        <ele>2578.87</ele>
        <time>2019-09-08T08:02:32Z</time>
      </trkpt>
      <trkpt lat="42.6055299025" lon="0.9567856137">
        <ele>2581.28</ele>
        <time>2019-09-08T08:02:44Z</time>
      </trkpt>
      <trkpt lat="42.6054705586" lon="0.9568701871">
        <ele>2583.20</ele>
        <time>2019-09-08T08:02:54Z</time>
      </trkpt>
      <trkpt lat="42.6054167468" lon="0.9569246694">
        <ele>2584.16</ele>
        <time>2019-09-08T08:03:01Z</time>
      </trkpt>
      <trkpt lat="42.6053817943" lon="0.9569684230">
        <ele>2584.64</ele>
        <time>2019-09-08T08:03:06Z</time>
      </trkpt>
      <trkpt lat="42.6053026691" lon="0.9570422675">
        <ele>2584.64</ele>
        <time>2019-09-08T08:03:15Z</time>
      </trkpt>
      <trkpt lat="42.6051937882" lon="0.9571910463">
        <ele>2582.24</ele>
        <time>2019-09-08T08:03:29Z</time>
      </trkpt>
      <trkpt lat="42.6050907746" lon="0.9572902881">
        <ele>2580.80</ele>
        <time>2019-09-08T08:03:40Z</time>
      </trkpt>
      <trkpt lat="42.6050330233" lon="0.9573278390">
        <ele>2579.84</ele>
        <time>2019-09-08T08:03:47Z</time>
      </trkpt>
      <trkpt lat="42.6050018426" lon="0.9573683236">
        <ele>2579.84</ele>
        <time>2019-09-08T08:03:59Z</time>
      </trkpt>
      <trkpt lat="42.6049837377" lon="0.9574041981">
        <ele>2580.80</ele>
        <time>2019-09-08T08:04:06Z</time>
      </trkpt>
      <trkpt lat="42.6049593464" lon="0.9574718401">
        <ele>2580.80</ele>
        <time>2019-09-08T08:04:11Z</time>
      </trkpt>
      <trkpt lat="42.6048720069" lon="0.9575284179">
        <ele>2581.76</ele>
        <time>2019-09-08T08:04:22Z</time>
      </trkpt>
      <trkpt lat="42.6048195362" lon="0.9575986583">
        <ele>2582.24</ele>
        <time>2019-09-08T08:04:34Z</time>
      </trkpt>
      <trkpt lat="42.6048160158" lon="0.9576325212">
        <ele>2582.24</ele>
        <time>2019-09-08T08:04:41Z</time>
      </trkpt>
      <trkpt lat="42.6047647186" lon="0.9576807171">
        <ele>2582.24</ele>
        <time>2019-09-08T08:04:47Z</time>
      </trkpt>
      <trkpt lat="42.6047342923" lon="0.9576868359">
        <ele>2582.24</ele>
        <time>2019-09-08T08:04:50Z</time>
      </trkpt>
      <trkpt lat="42.6046972442" lon="0.9577299189">
        <ele>2582.72</ele>
        <time>2019-09-08T08:04:55Z</time>
      </trkpt>
      <trkpt lat="42.6045700070" lon="0.9577824734">
        <ele>2583.68</ele>
        <time>2019-09-08T08:05:08Z</time>
      </trkpt>
      <trkpt lat="42.6045508962" lon="0.9577918611">
        <ele>2584.16</ele>
        <time>2019-09-08T08:05:10Z</time>
      </trkpt>
      <trkpt lat="42.6044809073" lon="0.9578253049">
        <ele>2584.64</ele>
        <time>2019-09-08T08:05:17Z</time>
      </trkpt>
      <trkpt lat="42.6044207253" lon="0.9578642808">
        <ele>2585.12</ele>
        <time>2019-09-08T08:05:23Z</time>
      </trkpt>
      <trkpt lat="42.6043485571" lon="0.9578956291">
        <ele>2585.60</ele>
        <time>2019-09-08T08:05:30Z</time>
      </trkpt>
      <trkpt lat="42.6042474713" lon="0.9579259716">
        <ele>2586.56</ele>
        <time>2019-09-08T08:05:40Z</time>
      </trkpt>
      <trkpt lat="42.6041413564" lon="0.9579061065">
        <ele>2588.49</ele>
        <time>2019-09-08T08:05:51Z</time>
      </trkpt>
      <trkpt lat="42.6040666737" lon="0.9579720721">
        <ele>2590.89</ele>
        <time>2019-09-08T08:06:02Z</time>
      </trkpt>
      <trkpt lat="42.6040609740" lon="0.9579820465">
        <ele>2591.37</ele>
        <time>2019-09-08T08:06:03Z</time>
      </trkpt>
      <trkpt lat="42.6040220819" lon="0.9580630995">
        <ele>2592.33</ele>
        <time>2019-09-08T08:06:12Z</time>
      </trkpt>
      <trkpt lat="42.6039971039" lon="0.9581121337">
        <ele>2592.81</ele>
        <time>2019-09-08T08:06:22Z</time>
      </trkpt>
      <trkpt lat="42.6039616484" lon="0.9581579827">
        <ele>2592.81</ele>
        <time>2019-09-08T08:06:27Z</time>
      </trkpt>
      <trkpt lat="42.6039302163" lon="0.9582101181">
        <ele>2593.77</ele>
        <time>2019-09-08T08:06:32Z</time>
      </trkpt>
      <trkpt lat="42.6038480736" lon="0.9583343379">
        <ele>2593.77</ele>
        <time>2019-09-08T08:06:45Z</time>
      </trkpt>
      <trkpt lat="42.6037197467" lon="0.9585243557">
        <ele>2591.37</ele>
        <time>2019-09-08T08:07:01Z</time>
      </trkpt>
      <trkpt lat="42.6036009751" lon="0.9586316440">
        <ele>2589.45</ele>
        <time>2019-09-08T08:07:13Z</time>
      </trkpt>
      <trkpt lat="42.6034668647" lon="0.9587358311">
        <ele>2589.93</ele>
        <time>2019-09-08T08:07:26Z</time>
      </trkpt>
      <trkpt lat="42.6033196785" lon="0.9588214103">
        <ele>2588.97</ele>
        <time>2019-09-08T08:07:41Z</time>
      </trkpt>
      <trkpt lat="42.6033103745" lon="0.9588395152">
        <ele>2588.49</ele>
        <time>2019-09-08T08:07:52Z</time>
      </trkpt>
      <trkpt lat="42.6032947842" lon="0.9588630684">
        <ele>2588.97</ele>
        <time>2019-09-08T08:07:55Z</time>
      </trkpt>
      <trkpt lat="42.6032872405" lon="0.9588731267">
        <ele>2588.97</ele>
        <time>2019-09-08T08:07:56Z</time>
      </trkpt>
      <trkpt lat="42.6032795291" lon="0.9588846099">
        <ele>2588.97</ele>
        <time>2019-09-08T08:07:57Z</time>
      </trkpt>
      <trkpt lat="42.6032705605" lon="0.9588945843">
        <ele>2588.97</ele>
        <time>2019-09-08T08:07:58Z</time>
      </trkpt>
      <trkpt lat="42.6032418944" lon="0.9589364100">
        <ele>2588.01</ele>
        <time>2019-09-08T08:08:10Z</time>
      </trkpt>
      <trkpt lat="42.6032561436" lon="0.9589164611">
        <ele>2588.01</ele>
        <time>2019-09-08T08:08:16Z</time>
      </trkpt>
      <trkpt lat="42.6032807864" lon="0.9588940814">
        <ele>2588.97</ele>
        <time>2019-09-08T08:08:26Z</time>
      </trkpt>
      <trkpt lat="42.6032624301" lon="0.9589141980">
        <ele>2588.49</ele>
        <time>2019-09-08T08:08:39Z</time>
      </trkpt>
      <trkpt lat="42.6032467559" lon="0.9589414392">
        <ele>2588.49</ele>
        <time>2019-09-08T08:08:42Z</time>
      </trkpt>
      <trkpt lat="42.6032373682" lon="0.9589701053">
        <ele>2588.49</ele>
        <time>2019-09-08T08:08:44Z</time>
      </trkpt>
      <trkpt lat="42.6032330096" lon="0.9589841869">
        <ele>2588.49</ele>
        <time>2019-09-08T08:08:45Z</time>
      </trkpt>
      <trkpt lat="42.6032255497" lon="0.9589963406">
        <ele>2588.01</ele>
        <time>2019-09-08T08:08:46Z</time>
      </trkpt>
      <trkpt lat="42.6030776091" lon="0.9591312055">
        <ele>2586.56</ele>
        <time>2019-09-08T08:08:59Z</time>
      </trkpt>
      <trkpt lat="42.6030013338" lon="0.9591844305">
        <ele>2584.16</ele>
        <time>2019-09-08T08:09:11Z</time>
      </trkpt>
      <trkpt lat="42.6029901858" lon="0.9592133481">
        <ele>2584.16</ele>
        <time>2019-09-08T08:09:20Z</time>
      </trkpt>
      <trkpt lat="42.6029816363" lon="0.9592229035">
        <ele>2584.16</ele>
        <time>2019-09-08T08:09:21Z</time>
      </trkpt>
      <trkpt lat="42.6029731706" lon="0.9592315368">
        <ele>2584.16</ele>
        <time>2019-09-08T08:09:22Z</time>
      </trkpt>
      <trkpt lat="42.6029637828" lon="0.9592392482">
        <ele>2584.16</ele>
        <time>2019-09-08T08:09:23Z</time>
      </trkpt>
      <trkpt lat="42.6029527187" lon="0.9592479654">
        <ele>2583.68</ele>
        <time>2019-09-08T08:09:24Z</time>
      </trkpt>
      <trkpt lat="42.6028569136" lon="0.9593296889">
        <ele>2581.28</ele>
        <time>2019-09-08T08:09:32Z</time>
      </trkpt>
      <trkpt lat="42.6028542314" lon="0.9593445249">
        <ele>2580.80</ele>
        <time>2019-09-08T08:09:33Z</time>
      </trkpt>
      <trkpt lat="42.6028087176" lon="0.9594736062">
        <ele>2577.91</ele>
        <time>2019-09-08T08:09:40Z</time>
      </trkpt>
      <trkpt lat="42.6027570013" lon="0.9595847502">
        <ele>2574.55</ele>
        <time>2019-09-08T08:09:46Z</time>
      </trkpt>
      <trkpt lat="42.6027473621" lon="0.9595989995">
        <ele>2573.59</ele>
        <time>2019-09-08T08:09:47Z</time>
      </trkpt>
      <trkpt lat="42.6027367171" lon="0.9596083034">
        <ele>2573.59</ele>
        <time>2019-09-08T08:09:48Z</time>
      </trkpt>
      <trkpt lat="42.6027288381" lon="0.9596203733">
        <ele>2572.63</ele>
        <time>2019-09-08T08:09:49Z</time>
      </trkpt>
      <trkpt lat="42.6027211268" lon="0.9596478660">
        <ele>2571.66</ele>
        <time>2019-09-08T08:09:51Z</time>
      </trkpt>
      <trkpt lat="42.6027209591" lon="0.9596622828">
        <ele>2571.18</ele>
        <time>2019-09-08T08:09:52Z</time>
      </trkpt>
      <trkpt lat="42.6027198695" lon="0.9596765321">
        <ele>2570.70</ele>
        <time>2019-09-08T08:09:53Z</time>
      </trkpt>
      <trkpt lat="42.6027149241" lon="0.9596901946">
        <ele>2570.22</ele>
        <time>2019-09-08T08:09:54Z</time>
      </trkpt>
      <trkpt lat="42.6027103141" lon="0.9597046953">
        <ele>2570.22</ele>
        <time>2019-09-08T08:09:55Z</time>
      </trkpt>
      <trkpt lat="42.6027049497" lon="0.9597989079">
        <ele>2568.78</ele>
        <time>2019-09-08T08:10:01Z</time>
      </trkpt>
      <trkpt lat="42.6027006749" lon="0.9598715790">
        <ele>2567.82</ele>
        <time>2019-09-08T08:10:10Z</time>
      </trkpt>
      <trkpt lat="42.6027002558" lon="0.9598755185">
        <ele>2567.34</ele>
        <time>2019-09-08T08:10:26Z</time>
      </trkpt>
      <trkpt lat="42.6026996691" lon="0.9599034302">
        <ele>2567.34</ele>
        <time>2019-09-08T08:10:29Z</time>
      </trkpt>
      <trkpt lat="42.6026989985" lon="0.9599181823">
        <ele>2567.34</ele>
        <time>2019-09-08T08:10:30Z</time>
      </trkpt>
      <trkpt lat="42.6026999205" lon="0.9599326830">
        <ele>2567.34</ele>
        <time>2019-09-08T08:10:31Z</time>
      </trkpt>
      <trkpt lat="42.6027052850" lon="0.9599848185">
        <ele>2566.38</ele>
        <time>2019-09-08T08:10:37Z</time>
      </trkpt>
      <trkpt lat="42.6027082186" lon="0.9599992353">
        <ele>2566.38</ele>
        <time>2019-09-08T08:10:38Z</time>
      </trkpt>
      <trkpt lat="42.6027088054" lon="0.9600136522">
        <ele>2566.38</ele>
        <time>2019-09-08T08:10:39Z</time>
      </trkpt>
      <trkpt lat="42.6026982442" lon="0.9601838049">
        <ele>2563.97</ele>
        <time>2019-09-08T08:10:50Z</time>
      </trkpt>
      <trkpt lat="42.6026875991" lon="0.9603815340">
        <ele>2563.01</ele>
        <time>2019-09-08T08:11:01Z</time>
      </trkpt>
      <trkpt lat="42.6026496291" lon="0.9606106114">
        <ele>2561.09</ele>
        <time>2019-09-08T08:11:14Z</time>
      </trkpt>
      <trkpt lat="42.6026880182" lon="0.9608469810">
        <ele>2558.21</ele>
        <time>2019-09-08T08:11:28Z</time>
      </trkpt>
      <trkpt lat="42.6026961487" lon="0.9608580451">
        <ele>2557.73</ele>
        <time>2019-09-08T08:11:29Z</time>
      </trkpt>
      <trkpt lat="42.6027336996" lon="0.9609204065">
        <ele>2555.80</ele>
        <time>2019-09-08T08:11:36Z</time>
      </trkpt>
      <trkpt lat="42.6027466077" lon="0.9609777387">
        <ele>2555.80</ele>
        <time>2019-09-08T08:11:40Z</time>
      </trkpt>
      <trkpt lat="42.6027369685" lon="0.9611689299">
        <ele>2554.84</ele>
        <time>2019-09-08T08:11:51Z</time>
      </trkpt>
      <trkpt lat="42.6026932150" lon="0.9612933174">
        <ele>2554.36</ele>
        <time>2019-09-08T08:11:59Z</time>
      </trkpt>
      <trkpt lat="42.6026389841" lon="0.9615259152">
        <ele>2551.48</ele>
        <time>2019-09-08T08:12:14Z</time>
      </trkpt>
      <trkpt lat="42.6025671512" lon="0.9616703354">
        <ele>2549.55</ele>
        <time>2019-09-08T08:12:25Z</time>
      </trkpt>
      <trkpt lat="42.6025569253" lon="0.9616767056">
        <ele>2549.07</ele>
        <time>2019-09-08T08:12:26Z</time>
      </trkpt>
      <trkpt lat="42.6024883613" lon="0.9618110675">
        <ele>2546.19</ele>
        <time>2019-09-08T08:12:35Z</time>
      </trkpt>
      <trkpt lat="42.6024825778" lon="0.9618364647">
        <ele>2545.23</ele>
        <time>2019-09-08T08:12:37Z</time>
      </trkpt>
      <trkpt lat="42.6024679933" lon="0.9619088843">
        <ele>2544.27</ele>
        <time>2019-09-08T08:12:41Z</time>
      </trkpt>
      <trkpt lat="42.6024423447" lon="0.9620953817">
        <ele>2542.34</ele>
        <time>2019-09-08T08:12:53Z</time>
      </trkpt>
      <trkpt lat="42.6024232339" lon="0.9621376265">
        <ele>2541.86</ele>
        <time>2019-09-08T08:12:56Z</time>
      </trkpt>
      <trkpt lat="42.6023928076" lon="0.9623529576">
        <ele>2539.46</ele>
        <time>2019-09-08T08:13:08Z</time>
      </trkpt>
      <trkpt lat="42.6023471262" lon="0.9624866489">
        <ele>2538.98</ele>
        <time>2019-09-08T08:13:16Z</time>
      </trkpt>
      <trkpt lat="42.6022732817" lon="0.9626689553">
        <ele>2538.50</ele>
        <time>2019-09-08T08:13:28Z</time>
      </trkpt>
      <trkpt lat="42.6022597030" lon="0.9626989625">
        <ele>2538.02</ele>
        <time>2019-09-08T08:13:30Z</time>
      </trkpt>
      <trkpt lat="42.6022606250" lon="0.9627722204">
        <ele>2537.54</ele>
        <time>2019-09-08T08:13:34Z</time>
      </trkpt>
      <trkpt lat="42.6022644807" lon="0.9628054127">
        <ele>2537.06</ele>
        <time>2019-09-08T08:13:36Z</time>
      </trkpt>
      <trkpt lat="42.6022683363" lon="0.9630034771">
        <ele>2535.61</ele>
        <time>2019-09-08T08:13:49Z</time>
      </trkpt>
      <trkpt lat="42.6022744551" lon="0.9630048182">
        <ele>2535.13</ele>
        <time>2019-09-08T08:13:50Z</time>
      </trkpt>
      <trkpt lat="42.6022909675" lon="0.9630185645">
        <ele>2534.17</ele>
        <time>2019-09-08T08:13:52Z</time>
      </trkpt>
      <trkpt lat="42.6023730263" lon="0.9631148726">
        <ele>2530.81</ele>
        <time>2019-09-08T08:14:01Z</time>
      </trkpt>
      <trkpt lat="42.6024547499" lon="0.9632632323">
        <ele>2528.40</ele>
        <time>2019-09-08T08:14:12Z</time>
      </trkpt>
      <trkpt lat="42.6024969947" lon="0.9634059761">
        <ele>2526.96</ele>
        <time>2019-09-08T08:14:22Z</time>
      </trkpt>
      <trkpt lat="42.6025267504" lon="0.9634806588">
        <ele>2526.00</ele>
        <time>2019-09-08T08:14:32Z</time>
      </trkpt>
      <trkpt lat="42.6025400776" lon="0.9635510668">
        <ele>2526.48</ele>
        <time>2019-09-08T08:14:43Z</time>
      </trkpt>
      <trkpt lat="42.6025602780" lon="0.9635998495">
        <ele>2526.00</ele>
        <time>2019-09-08T08:14:47Z</time>
      </trkpt>
      <trkpt lat="42.6025725156" lon="0.9636222292">
        <ele>2526.00</ele>
        <time>2019-09-08T08:14:49Z</time>
      </trkpt>
      <trkpt lat="42.6026336197" lon="0.9636873566">
        <ele>2525.52</ele>
        <time>2019-09-08T08:14:58Z</time>
      </trkpt>
      <trkpt lat="42.6026126649" lon="0.9637275059">
        <ele>2523.60</ele>
        <time>2019-09-08T08:15:06Z</time>
      </trkpt>
      <trkpt lat="42.6026496291" lon="0.9638556652">
        <ele>2522.64</ele>
        <time>2019-09-08T08:15:12Z</time>
      </trkpt>
      <trkpt lat="42.6026532333" lon="0.9638852533">
        <ele>2522.16</ele>
        <time>2019-09-08T08:15:13Z</time>
      </trkpt>
      <trkpt lat="42.6026554126" lon="0.9639129136">
        <ele>2521.68</ele>
        <time>2019-09-08T08:15:14Z</time>
      </trkpt>
      <trkpt lat="42.6026668120" lon="0.9640675597">
        <ele>2519.27</ele>
        <time>2019-09-08T08:15:24Z</time>
      </trkpt>
      <trkpt lat="42.6026505511" lon="0.9641044401">
        <ele>2518.79</ele>
        <time>2019-09-08T08:15:32Z</time>
      </trkpt>
      <trkpt lat="42.6026483718" lon="0.9641217906">
        <ele>2518.79</ele>
        <time>2019-09-08T08:15:33Z</time>
      </trkpt>
      <trkpt lat="42.6026321948" lon="0.9641590901">
        <ele>2518.31</ele>
        <time>2019-09-08T08:15:36Z</time>
      </trkpt>
      <trkpt lat="42.6026240643" lon="0.9641740937">
        <ele>2518.31</ele>
        <time>2019-09-08T08:15:37Z</time>
      </trkpt>
      <trkpt lat="42.6026192028" lon="0.9641932044">
        <ele>2518.31</ele>
        <time>2019-09-08T08:15:38Z</time>
      </trkpt>
      <trkpt lat="42.6026076358" lon="0.9643568192">
        <ele>2518.79</ele>
        <time>2019-09-08T08:15:49Z</time>
      </trkpt>
      <trkpt lat="42.6026121620" lon="0.9644357767">
        <ele>2520.23</ele>
        <time>2019-09-08T08:15:58Z</time>
      </trkpt>
      <trkpt lat="42.6026471984" lon="0.9644923545">
        <ele>2519.75</ele>
        <time>2019-09-08T08:16:07Z</time>
      </trkpt>
      <trkpt lat="42.6026266627" lon="0.9645530395">
        <ele>2517.83</ele>
        <time>2019-09-08T08:16:17Z</time>
      </trkpt>
      <trkpt lat="42.6026238129" lon="0.9645724017">
        <ele>2517.35</ele>
        <time>2019-09-08T08:16:20Z</time>
      </trkpt>
      <trkpt lat="42.6026362181" lon="0.9646173287">
        <ele>2515.91</ele>
        <time>2019-09-08T08:16:25Z</time>
      </trkpt>
      <trkpt lat="42.6026346255" lon="0.9647016507">
        <ele>2513.98</ele>
        <time>2019-09-08T08:16:35Z</time>
      </trkpt>
      <trkpt lat="42.6025725994" lon="0.9646500181">
        <ele>2512.06</ele>
        <time>2019-09-08T08:16:44Z</time>
      </trkpt>
      <trkpt lat="42.6025337074" lon="0.9646634292">
        <ele>2510.14</ele>
        <time>2019-09-08T08:16:57Z</time>
      </trkpt>
      <trkpt lat="42.6024684124" lon="0.9646915924">
        <ele>2508.22</ele>
        <time>2019-09-08T08:17:06Z</time>
      </trkpt>
      <trkpt lat="42.6023638900" lon="0.9647818655">
        <ele>2505.33</ele>
        <time>2019-09-08T08:17:15Z</time>
      </trkpt>
      <trkpt lat="42.6023558434" lon="0.9647979587">
        <ele>2504.85</ele>
        <time>2019-09-08T08:17:16Z</time>
      </trkpt>
      <trkpt lat="42.6023033727" lon="0.9648511838">
        <ele>2503.89</ele>
        <time>2019-09-08T08:17:21Z</time>
      </trkpt>
      <trkpt lat="42.6022956613" lon="0.9648678638">
        <ele>2503.89</ele>
        <time>2019-09-08T08:17:22Z</time>
      </trkpt>
      <trkpt lat="42.6022832561" lon="0.9649182390">
        <ele>2502.93</ele>
        <time>2019-09-08T08:17:25Z</time>
      </trkpt>
      <trkpt lat="42.6022896264" lon="0.9649525210">
        <ele>2501.97</ele>
        <time>2019-09-08T08:17:27Z</time>
      </trkpt>
      <trkpt lat="42.6022837590" lon="0.9649654292">
        <ele>2501.97</ele>
        <time>2019-09-08T08:17:28Z</time>
      </trkpt>
      <trkpt lat="42.6022749580" lon="0.9649780858">
        <ele>2501.49</ele>
        <time>2019-09-08T08:17:29Z</time>
      </trkpt>
      <trkpt lat="42.6022659894" lon="0.9649911616">
        <ele>2501.49</ele>
        <time>2019-09-08T08:17:30Z</time>
      </trkpt>
      <trkpt lat="42.6022553444" lon="0.9650039021">
        <ele>2501.49</ele>
        <time>2019-09-08T08:17:31Z</time>
      </trkpt>
      <trkpt lat="42.6021791529" lon="0.9651543573">
        <ele>2500.05</ele>
        <time>2019-09-08T08:17:41Z</time>
      </trkpt>
      <trkpt lat="42.6021743752" lon="0.9651831910">
        <ele>2499.57</ele>
        <time>2019-09-08T08:17:50Z</time>
      </trkpt>
      <trkpt lat="42.6021758839" lon="0.9651956800">
        <ele>2499.57</ele>
        <time>2019-09-08T08:17:51Z</time>
      </trkpt>
      <trkpt lat="42.6021761354" lon="0.9652139526">
        <ele>2499.57</ele>
        <time>2019-09-08T08:17:52Z</time>
      </trkpt>
      <trkpt lat="42.6021742076" lon="0.9652331471">
        <ele>2499.57</ele>
        <time>2019-09-08T08:17:53Z</time>
      </trkpt>
      <trkpt lat="42.6021707710" lon="0.9652502462">
        <ele>2499.08</ele>
        <time>2019-09-08T08:17:54Z</time>
      </trkpt>
      <trkpt lat="42.6021652389" lon="0.9652680997">
        <ele>2498.60</ele>
        <time>2019-09-08T08:17:55Z</time>
      </trkpt>
      <trkpt lat="42.6021571923" lon="0.9652871266">
        <ele>2498.60</ele>
        <time>2019-09-08T08:17:56Z</time>
      </trkpt>
      <trkpt lat="42.6021471340" lon="0.9653024655">
        <ele>2498.60</ele>
        <time>2019-09-08T08:17:57Z</time>
      </trkpt>
      <trkpt lat="42.6021364052" lon="0.9653172176">
        <ele>2498.60</ele>
        <time>2019-09-08T08:17:58Z</time>
      </trkpt>
      <trkpt lat="42.6021264307" lon="0.9653335623">
        <ele>2498.60</ele>
        <time>2019-09-08T08:17:59Z</time>
      </trkpt>
      <trkpt lat="42.6021179650" lon="0.9653502423">
        <ele>2499.08</ele>
        <time>2019-09-08T08:18:00Z</time>
      </trkpt>
      <trkpt lat="42.6021067332" lon="0.9653644077">
        <ele>2499.57</ele>
        <time>2019-09-08T08:18:01Z</time>
      </trkpt>
      <trkpt lat="42.6020949986" lon="0.9653771482">
        <ele>2499.57</ele>
        <time>2019-09-08T08:18:02Z</time>
      </trkpt>
      <trkpt lat="42.6019750535" lon="0.9655340575">
        <ele>2499.57</ele>
        <time>2019-09-08T08:18:15Z</time>
      </trkpt>
      <trkpt lat="42.6019750535" lon="0.9655792359">
        <ele>2499.08</ele>
        <time>2019-09-08T08:18:19Z</time>
      </trkpt>
      <trkpt lat="42.6019692700" lon="0.9656042978">
        <ele>2498.60</ele>
        <time>2019-09-08T08:18:21Z</time>
      </trkpt>
      <trkpt lat="42.6019709464" lon="0.9656338021">
        <ele>2498.12</ele>
        <time>2019-09-08T08:18:23Z</time>
      </trkpt>
      <trkpt lat="42.6019757241" lon="0.9656474646">
        <ele>2498.12</ele>
        <time>2019-09-08T08:18:24Z</time>
      </trkpt>
      <trkpt lat="42.6019776519" lon="0.9656772204">
        <ele>2497.16</ele>
        <time>2019-09-08T08:18:34Z</time>
      </trkpt>
      <trkpt lat="42.6019566134" lon="0.9657063894">
        <ele>2495.72</ele>
        <time>2019-09-08T08:18:52Z</time>
      </trkpt>
      <trkpt lat="42.6019269414" lon="0.9657892026">
        <ele>2494.76</ele>
        <time>2019-09-08T08:19:02Z</time>
      </trkpt>
      <trkpt lat="42.6019252650" lon="0.9658026975">
        <ele>2494.28</ele>
        <time>2019-09-08T08:19:03Z</time>
      </trkpt>
      <trkpt lat="42.6019236725" lon="0.9658203833">
        <ele>2493.80</ele>
        <time>2019-09-08T08:19:04Z</time>
      </trkpt>
      <trkpt lat="42.6019048132" lon="0.9659726825">
        <ele>2492.36</ele>
        <time>2019-09-08T08:19:15Z</time>
      </trkpt>
      <trkpt lat="42.6019095909" lon="0.9660359658">
        <ele>2493.32</ele>
        <time>2019-09-08T08:19:20Z</time>
      </trkpt>
      <trkpt lat="42.6019169670" lon="0.9660637937">
        <ele>2493.80</ele>
        <time>2019-09-08T08:19:22Z</time>
      </trkpt>
      <trkpt lat="42.6019216608" lon="0.9662480280">
        <ele>2496.68</ele>
        <time>2019-09-08T08:19:34Z</time>
      </trkpt>
      <trkpt lat="42.6018927433" lon="0.9663983993">
        <ele>2498.60</ele>
        <time>2019-09-08T08:19:46Z</time>
      </trkpt>
      <trkpt lat="42.6018961798" lon="0.9664375428">
        <ele>2499.08</ele>
        <time>2019-09-08T08:19:50Z</time>
      </trkpt>
      <trkpt lat="42.6019661687" lon="0.9665518720">
        <ele>2499.57</ele>
        <time>2019-09-08T08:20:02Z</time>
      </trkpt>
      <trkpt lat="42.6020318829" lon="0.9666085336">
        <ele>2501.01</ele>
        <time>2019-09-08T08:20:11Z</time>
      </trkpt>
      <trkpt lat="42.6020716969" lon="0.9667097870">
        <ele>2503.41</ele>
        <time>2019-09-08T08:20:23Z</time>
      </trkpt>
      <trkpt lat="42.6020500716" lon="0.9668243676">
        <ele>2505.33</ele>
        <time>2019-09-08T08:20:33Z</time>
      </trkpt>
      <trkpt lat="42.6020647399" lon="0.9669681173">
        <ele>2506.77</ele>
        <time>2019-09-08T08:20:45Z</time>
      </trkpt>
      <trkpt lat="42.6020517480" lon="0.9671034012">
        <ele>2507.26</ele>
        <time>2019-09-08T08:20:57Z</time>
      </trkpt>
      <trkpt lat="42.6020556875" lon="0.9672821034">
        <ele>2509.66</ele>
        <time>2019-09-08T08:21:09Z</time>
      </trkpt>
      <trkpt lat="42.6020426117" lon="0.9674134478">
        <ele>2511.10</ele>
        <time>2019-09-08T08:21:21Z</time>
      </trkpt>
      <trkpt lat="42.6020348165" lon="0.9674270265">
        <ele>2511.58</ele>
        <time>2019-09-08T08:21:23Z</time>
      </trkpt>
      <trkpt lat="42.6020551007" lon="0.9675178025">
        <ele>2513.02</ele>
        <time>2019-09-08T08:21:35Z</time>
      </trkpt>
      <trkpt lat="42.6020530891" lon="0.9675956704">
        <ele>2513.98</ele>
        <time>2019-09-08T08:21:44Z</time>
      </trkpt>
      <trkpt lat="42.6020516641" lon="0.9676754661">
        <ele>2514.47</ele>
        <time>2019-09-08T08:21:54Z</time>
      </trkpt>
      <trkpt lat="42.6021154504" lon="0.9677054733">
        <ele>2515.91</ele>
        <time>2019-09-08T08:22:05Z</time>
      </trkpt>
      <trkpt lat="42.6021640655" lon="0.9678069782">
        <ele>2515.91</ele>
        <time>2019-09-08T08:22:15Z</time>
      </trkpt>
      <trkpt lat="42.6021825895" lon="0.9679227322">
        <ele>2513.50</ele>
        <time>2019-09-08T08:22:26Z</time>
      </trkpt>
      <trkpt lat="42.6021787338" lon="0.9679560084">
        <ele>2513.02</ele>
        <time>2019-09-08T08:22:29Z</time>
      </trkpt>
      <trkpt lat="42.6021673344" lon="0.9680181183">
        <ele>2512.06</ele>
        <time>2019-09-08T08:22:34Z</time>
      </trkpt>
      <trkpt lat="42.6021821704" lon="0.9680788033">
        <ele>2509.18</ele>
        <time>2019-09-08T08:22:40Z</time>
      </trkpt>
      <trkpt lat="42.6021827571" lon="0.9681114089">
        <ele>2509.18</ele>
        <time>2019-09-08T08:22:43Z</time>
      </trkpt>
      <trkpt lat="42.6021737047" lon="0.9681949764">
        <ele>2509.18</ele>
        <time>2019-09-08T08:22:53Z</time>
      </trkpt>
      <trkpt lat="42.6021671668" lon="0.9682115726">
        <ele>2509.18</ele>
        <time>2019-09-08T08:22:55Z</time>
      </trkpt>
      <trkpt lat="42.6021682564" lon="0.9682585951">
        <ele>2508.22</ele>
        <time>2019-09-08T08:22:58Z</time>
      </trkpt>
      <trkpt lat="42.6022208109" lon="0.9684706572">
        <ele>2506.29</ele>
        <time>2019-09-08T08:23:10Z</time>
      </trkpt>
      <trkpt lat="42.6022326294" lon="0.9685378801">
        <ele>2507.26</ele>
        <time>2019-09-08T08:23:21Z</time>
      </trkpt>
      <trkpt lat="42.6022299472" lon="0.9685572423">
        <ele>2507.26</ele>
        <time>2019-09-08T08:23:38Z</time>
      </trkpt>
      <trkpt lat="42.6022292767" lon="0.9686077014">
        <ele>2507.74</ele>
        <time>2019-09-08T08:23:53Z</time>
      </trkpt>
      <trkpt lat="42.6022325456" lon="0.9686166700">
        <ele>2508.22</ele>
        <time>2019-09-08T08:23:54Z</time>
      </trkpt>
      <trkpt lat="42.6022426039" lon="0.9686407261">
        <ele>2508.22</ele>
        <time>2019-09-08T08:23:56Z</time>
      </trkpt>
      <trkpt lat="42.6022504829" lon="0.9686678834">
        <ele>2507.74</ele>
        <time>2019-09-08T08:23:58Z</time>
      </trkpt>
      <trkpt lat="42.6022836752" lon="0.9688438196">
        <ele>2507.26</ele>
        <time>2019-09-08T08:24:11Z</time>
      </trkpt>
      <trkpt lat="42.6023027021" lon="0.9689305723">
        <ele>2508.70</ele>
        <time>2019-09-08T08:24:20Z</time>
      </trkpt>
      <trkpt lat="42.6023084857" lon="0.9690238629">
        <ele>2508.70</ele>
        <time>2019-09-08T08:24:28Z</time>
      </trkpt>
      <trkpt lat="42.6023095753" lon="0.9691476636">
        <ele>2508.22</ele>
        <time>2019-09-08T08:24:37Z</time>
      </trkpt>
      <trkpt lat="42.6023306977" lon="0.9692262858">
        <ele>2507.26</ele>
        <time>2019-09-08T08:24:43Z</time>
      </trkpt>
      <trkpt lat="42.6023819111" lon="0.9693235997">
        <ele>2507.74</ele>
        <time>2019-09-08T08:24:54Z</time>
      </trkpt>
      <trkpt lat="42.6023941487" lon="0.9693901520">
        <ele>2506.77</ele>
        <time>2019-09-08T08:24:59Z</time>
      </trkpt>
      <trkpt lat="42.6024673227" lon="0.9695607238">
        <ele>2506.77</ele>
        <time>2019-09-08T08:25:11Z</time>
      </trkpt>
      <trkpt lat="42.6024929713" lon="0.9696046449">
        <ele>2506.77</ele>
        <time>2019-09-08T08:25:14Z</time>
      </trkpt>
      <trkpt lat="42.6025066338" lon="0.9696269408">
        <ele>2506.77</ele>
        <time>2019-09-08T08:25:16Z</time>
      </trkpt>
      <trkpt lat="42.6025492139" lon="0.9697521664">
        <ele>2507.74</ele>
        <time>2019-09-08T08:25:23Z</time>
      </trkpt>
      <trkpt lat="42.6025508903" lon="0.9699290246">
        <ele>2507.74</ele>
        <time>2019-09-08T08:25:34Z</time>
      </trkpt>
      <trkpt lat="42.6025523990" lon="0.9701054636">
        <ele>2508.22</ele>
        <time>2019-09-08T08:25:45Z</time>
      </trkpt>
      <trkpt lat="42.6025373954" lon="0.9701850917">
        <ele>2509.18</ele>
        <time>2019-09-08T08:25:52Z</time>
      </trkpt>
      <trkpt lat="42.6025535725" lon="0.9703577589">
        <ele>2511.58</ele>
        <time>2019-09-08T08:26:06Z</time>
      </trkpt>
      <trkpt lat="42.6025104895" lon="0.9705260675">
        <ele>2512.06</ele>
        <time>2019-09-08T08:26:18Z</time>
      </trkpt>
      <trkpt lat="42.6025021914" lon="0.9705998283">
        <ele>2511.10</ele>
        <time>2019-09-08T08:26:26Z</time>
      </trkpt>
      <trkpt lat="42.6025059633" lon="0.9706891794">
        <ele>2510.62</ele>
        <time>2019-09-08T08:26:35Z</time>
      </trkpt>
      <trkpt lat="42.6025050413" lon="0.9707356151">
        <ele>2510.62</ele>
        <time>2019-09-08T08:26:39Z</time>
      </trkpt>
      <trkpt lat="42.6025176141" lon="0.9707988985">
        <ele>2510.62</ele>
        <time>2019-09-08T08:26:44Z</time>
      </trkpt>
      <trkpt lat="42.6025205478" lon="0.9709128086">
        <ele>2510.62</ele>
        <time>2019-09-08T08:26:55Z</time>
      </trkpt>
      <trkpt lat="42.6025528181" lon="0.9710102063">
        <ele>2509.66</ele>
        <time>2019-09-08T08:27:04Z</time>
      </trkpt>
      <trkpt lat="42.6025538240" lon="0.9711957816">
        <ele>2509.66</ele>
        <time>2019-09-08T08:27:16Z</time>
      </trkpt>
      <trkpt lat="42.6025902014" lon="0.9713388607">
        <ele>2510.62</ele>
        <time>2019-09-08T08:27:28Z</time>
      </trkpt>
      <trkpt lat="42.6026005950" lon="0.9713875595">
        <ele>2511.10</ele>
        <time>2019-09-08T08:27:33Z</time>
      </trkpt>
      <trkpt lat="42.6026007626" lon="0.9714840353">
        <ele>2512.06</ele>
        <time>2019-09-08T08:27:44Z</time>
      </trkpt>
      <trkpt lat="42.6025975775" lon="0.9715888090">
        <ele>2511.58</ele>
        <time>2019-09-08T08:27:55Z</time>
      </trkpt>
      <trkpt lat="42.6026267465" lon="0.9716738015">
        <ele>2512.54</ele>
        <time>2019-09-08T08:28:07Z</time>
      </trkpt>
      <trkpt lat="42.6026223041" lon="0.9717395995">
        <ele>2513.02</ele>
        <time>2019-09-08T08:28:16Z</time>
      </trkpt>
      <trkpt lat="42.6026173588" lon="0.9718172159">
        <ele>2511.58</ele>
        <time>2019-09-08T08:28:27Z</time>
      </trkpt>
      <trkpt lat="42.6026101504" lon="0.9718828462">
        <ele>2511.10</ele>
        <time>2019-09-08T08:28:34Z</time>
      </trkpt>
      <trkpt lat="42.6025971584" lon="0.9719313774">
        <ele>2511.10</ele>
        <time>2019-09-08T08:28:37Z</time>
      </trkpt>
      <trkpt lat="42.6025711745" lon="0.9720118437">
        <ele>2510.62</ele>
        <time>2019-09-08T08:28:43Z</time>
      </trkpt>
      <trkpt lat="42.6025068015" lon="0.9720493946">
        <ele>2510.14</ele>
        <time>2019-09-08T08:28:53Z</time>
      </trkpt>
      <trkpt lat="42.6024903730" lon="0.9720866941">
        <ele>2509.18</ele>
        <time>2019-09-08T08:29:06Z</time>
      </trkpt>
      <trkpt lat="42.6024454460" lon="0.9721742850">
        <ele>2507.74</ele>
        <time>2019-09-08T08:29:15Z</time>
      </trkpt>
      <trkpt lat="42.6024160255" lon="0.9723062161">
        <ele>2506.77</ele>
        <time>2019-09-08T08:29:27Z</time>
      </trkpt>
      <trkpt lat="42.6024238206" lon="0.9723211359">
        <ele>2506.77</ele>
        <time>2019-09-08T08:29:38Z</time>
      </trkpt>
      <trkpt lat="42.6024213899" lon="0.9723865148">
        <ele>2505.81</ele>
        <time>2019-09-08T08:29:49Z</time>
      </trkpt>
      <trkpt lat="42.6024236530" lon="0.9724035300">
        <ele>2505.81</ele>
        <time>2019-09-08T08:29:51Z</time>
      </trkpt>
      <trkpt lat="42.6024030335" lon="0.9724721778">
        <ele>2504.37</ele>
        <time>2019-09-08T08:29:56Z</time>
      </trkpt>
      <trkpt lat="42.6023799833" lon="0.9725675639">
        <ele>2502.93</ele>
        <time>2019-09-08T08:30:05Z</time>
      </trkpt>
      <trkpt lat="42.6023439411" lon="0.9726749361">
        <ele>2501.49</ele>
        <time>2019-09-08T08:30:16Z</time>
      </trkpt>
      <trkpt lat="42.6023292728" lon="0.9727045242">
        <ele>2500.53</ele>
        <time>2019-09-08T08:30:19Z</time>
      </trkpt>
      <trkpt lat="42.6023073960" lon="0.9727925342">
        <ele>2499.57</ele>
        <time>2019-09-08T08:30:25Z</time>
      </trkpt>
      <trkpt lat="42.6022803225" lon="0.9728281572">
        <ele>2499.57</ele>
        <time>2019-09-08T08:30:28Z</time>
      </trkpt>
      <trkpt lat="42.6021473017" lon="0.9729346074">
        <ele>2499.57</ele>
        <time>2019-09-08T08:30:40Z</time>
      </trkpt>
      <trkpt lat="42.6021269336" lon="0.9729409777">
        <ele>2499.57</ele>
        <time>2019-09-08T08:30:42Z</time>
      </trkpt>
      <trkpt lat="42.6020938251" lon="0.9729509521">
        <ele>2499.08</ele>
        <time>2019-09-08T08:30:46Z</time>
      </trkpt>
      <trkpt lat="42.6020154543" lon="0.9729538858">
        <ele>2497.16</ele>
        <time>2019-09-08T08:30:56Z</time>
      </trkpt>
      <trkpt lat="42.6019479800" lon="0.9730044287">
        <ele>2495.72</ele>
        <time>2019-09-08T08:31:06Z</time>
      </trkpt>
      <trkpt lat="42.6018702798" lon="0.9730609227">
        <ele>2497.16</ele>
        <time>2019-09-08T08:31:18Z</time>
      </trkpt>
      <trkpt lat="42.6018222515" lon="0.9731138125">
        <ele>2499.08</ele>
        <time>2019-09-08T08:31:29Z</time>
      </trkpt>
      <trkpt lat="42.6018030569" lon="0.9731364436">
        <ele>2501.01</ele>
        <time>2019-09-08T08:31:36Z</time>
      </trkpt>
      <trkpt lat="42.6017535198" lon="0.9731449094">
        <ele>2500.53</ele>
        <time>2019-09-08T08:31:46Z</time>
      </trkpt>
      <trkpt lat="42.6016978640" lon="0.9731754195">
        <ele>2500.53</ele>
        <time>2019-09-08T08:31:58Z</time>
      </trkpt>
      <trkpt lat="42.6016816031" lon="0.9732305724">
        <ele>2500.53</ele>
        <time>2019-09-08T08:32:03Z</time>
      </trkpt>
      <trkpt lat="42.6016513444" lon="0.9733055905">
        <ele>2503.41</ele>
        <time>2019-09-08T08:32:09Z</time>
      </trkpt>
      <trkpt lat="42.6016458962" lon="0.9734184109">
        <ele>2504.85</ele>
        <time>2019-09-08T08:32:19Z</time>
      </trkpt>
      <trkpt lat="42.6016391069" lon="0.9735478275">
        <ele>2505.81</ele>
        <time>2019-09-08T08:32:29Z</time>
      </trkpt>
      <trkpt lat="42.6015946828" lon="0.9736511763">
        <ele>2506.77</ele>
        <time>2019-09-08T08:32:40Z</time>
      </trkpt>
      <trkpt lat="42.6015260350" lon="0.9737605602">
        <ele>2508.70</ele>
        <time>2019-09-08T08:32:52Z</time>
      </trkpt>
      <trkpt lat="42.6015111152" lon="0.9738426190">
        <ele>2509.18</ele>
        <time>2019-09-08T08:33:00Z</time>
      </trkpt>
      <trkpt lat="42.6015039906" lon="0.9739043098">
        <ele>2509.66</ele>
        <time>2019-09-08T08:33:06Z</time>
      </trkpt>
      <trkpt lat="42.6015264541" lon="0.9739950858">
        <ele>2510.62</ele>
        <time>2019-09-08T08:33:16Z</time>
      </trkpt>
      <trkpt lat="42.6015174016" lon="0.9740730375">
        <ele>2511.10</ele>
        <time>2019-09-08T08:33:24Z</time>
      </trkpt>
      <trkpt lat="42.6015120372" lon="0.9741752129">
        <ele>2511.58</ele>
        <time>2019-09-08T08:33:36Z</time>
      </trkpt>
      <trkpt lat="42.6015487500" lon="0.9741956647">
        <ele>2511.58</ele>
        <time>2019-09-08T08:33:50Z</time>
      </trkpt>
      <trkpt lat="42.6015578024" lon="0.9742212296">
        <ele>2511.58</ele>
        <time>2019-09-08T08:33:58Z</time>
      </trkpt>
      <trkpt lat="42.6015604008" lon="0.9742132667">
        <ele>2511.10</ele>
        <time>2019-09-08T08:34:17Z</time>
      </trkpt>
      <trkpt lat="42.6015525218" lon="0.9742170386">
        <ele>2511.58</ele>
        <time>2019-09-08T08:34:49Z</time>
      </trkpt>
      <trkpt lat="42.6015406195" lon="0.9742084891">
        <ele>2511.58</ele>
        <time>2019-09-08T08:35:00Z</time>
      </trkpt>
      <trkpt lat="42.6015313994" lon="0.9741941560">
        <ele>2511.58</ele>
        <time>2019-09-08T08:35:36Z</time>
      </trkpt>
      <trkpt lat="42.6015396137" lon="0.9741779789">
        <ele>2511.58</ele>
        <time>2019-09-08T08:36:33Z</time>
      </trkpt>
      <trkpt lat="42.6015500911" lon="0.9741965029">
        <ele>2511.58</ele>
        <time>2019-09-08T08:37:26Z</time>
      </trkpt>
      <trkpt lat="42.6015412062" lon="0.9741931502">
        <ele>2511.58</ele>
        <time>2019-09-08T08:37:43Z</time>
      </trkpt>
      <trkpt lat="42.6015402842" lon="0.9741555993">
        <ele>2511.58</ele>
        <time>2019-09-08T08:38:01Z</time>
      </trkpt>
      <trkpt lat="42.6015306450" lon="0.9741305374">
        <ele>2511.58</ele>
        <time>2019-09-08T08:38:04Z</time>
      </trkpt>
      <trkpt lat="42.6015222631" lon="0.9740579501">
        <ele>2511.58</ele>
        <time>2019-09-08T08:38:10Z</time>
      </trkpt>
      <trkpt lat="42.6015241072" lon="0.9740266856">
        <ele>2511.58</ele>
        <time>2019-09-08T08:38:12Z</time>
      </trkpt>
      <trkpt lat="42.6015749853" lon="0.9740319662">
        <ele>2510.62</ele>
        <time>2019-09-08T08:38:21Z</time>
      </trkpt>
      <trkpt lat="42.6016059145" lon="0.9740929026">
        <ele>2510.62</ele>
        <time>2019-09-08T08:38:36Z</time>
      </trkpt>
      <trkpt lat="42.6016079262" lon="0.9741032962">
        <ele>2510.62</ele>
        <time>2019-09-08T08:38:37Z</time>
      </trkpt>
      <trkpt lat="42.6016083453" lon="0.9742230736">
        <ele>2509.18</ele>
        <time>2019-09-08T08:38:48Z</time>
      </trkpt>
      <trkpt lat="42.6015895698" lon="0.9743176214">
        <ele>2506.77</ele>
        <time>2019-09-08T08:38:57Z</time>
      </trkpt>
      <trkpt lat="42.6016013045" lon="0.9743723553">
        <ele>2503.89</ele>
        <time>2019-09-08T08:39:06Z</time>
      </trkpt>
      <trkpt lat="42.6015689503" lon="0.9744464513">
        <ele>2501.01</ele>
        <time>2019-09-08T08:39:17Z</time>
      </trkpt>
      <trkpt lat="42.6015843730" lon="0.9744928870">
        <ele>2498.60</ele>
        <time>2019-09-08T08:39:27Z</time>
      </trkpt>
      <trkpt lat="42.6015743148" lon="0.9745285101">
        <ele>2496.68</ele>
        <time>2019-09-08T08:39:37Z</time>
      </trkpt>
      <trkpt lat="42.6015443914" lon="0.9745772090">
        <ele>2494.76</ele>
        <time>2019-09-08T08:39:47Z</time>
      </trkpt>
      <trkpt lat="42.6015352551" lon="0.9745788854">
        <ele>2493.80</ele>
        <time>2019-09-08T08:39:59Z</time>
      </trkpt>
      <trkpt lat="42.6015355065" lon="0.9745828249">
        <ele>2493.32</ele>
        <time>2019-09-08T08:40:14Z</time>
      </trkpt>
      <trkpt lat="42.6014853828" lon="0.9746239800">
        <ele>2492.36</ele>
        <time>2019-09-08T08:40:29Z</time>
      </trkpt>
      <trkpt lat="42.6014741510" lon="0.9746753611">
        <ele>2490.43</ele>
        <time>2019-09-08T08:40:41Z</time>
      </trkpt>
      <trkpt lat="42.6014947705" lon="0.9747025184">
        <ele>2487.55</ele>
        <time>2019-09-08T08:40:53Z</time>
      </trkpt>
      <trkpt lat="42.6014868915" lon="0.9747511335">
        <ele>2486.59</ele>
        <time>2019-09-08T08:41:04Z</time>
      </trkpt>
      <trkpt lat="42.6014922559" lon="0.9748290852">
        <ele>2484.18</ele>
        <time>2019-09-08T08:41:15Z</time>
      </trkpt>
      <trkpt lat="42.6015086006" lon="0.9748731740">
        <ele>2483.22</ele>
        <time>2019-09-08T08:41:24Z</time>
      </trkpt>
      <trkpt lat="42.6014720555" lon="0.9748992417">
        <ele>2481.78</ele>
        <time>2019-09-08T08:41:34Z</time>
      </trkpt>
      <trkpt lat="42.6014397852" lon="0.9749084618">
        <ele>2479.38</ele>
        <time>2019-09-08T08:41:44Z</time>
      </trkpt>
      <trkpt lat="42.6014386117" lon="0.9749097191">
        <ele>2477.94</ele>
        <time>2019-09-08T08:42:04Z</time>
      </trkpt>
      <trkpt lat="42.6014406234" lon="0.9749053605">
        <ele>2477.94</ele>
        <time>2019-09-08T08:42:38Z</time>
      </trkpt>
      <trkpt lat="42.6014415454" lon="0.9749047738">
        <ele>2477.94</ele>
        <time>2019-09-08T08:43:02Z</time>
      </trkpt>
      <trkpt lat="42.6014459878" lon="0.9749081265">
        <ele>2477.45</ele>
        <time>2019-09-08T08:43:21Z</time>
      </trkpt>
      <trkpt lat="42.6014433056" lon="0.9749139100">
        <ele>2477.94</ele>
        <time>2019-09-08T08:43:46Z</time>
      </trkpt>
      <trkpt lat="42.6014399529" lon="0.9749421570">
        <ele>2477.94</ele>
        <time>2019-09-08T08:43:52Z</time>
      </trkpt>
      <trkpt lat="42.6014475804" lon="0.9749807138">
        <ele>2476.97</ele>
        <time>2019-09-08T08:43:55Z</time>
      </trkpt>
      <trkpt lat="42.6014901605" lon="0.9750504512">
        <ele>2476.97</ele>
        <time>2019-09-08T08:44:06Z</time>
      </trkpt>
      <trkpt lat="42.6015105285" lon="0.9751042631">
        <ele>2476.01</ele>
        <time>2019-09-08T08:44:16Z</time>
      </trkpt>
      <trkpt lat="42.6015256997" lon="0.9751316719">
        <ele>2475.05</ele>
        <time>2019-09-08T08:44:20Z</time>
      </trkpt>
      <trkpt lat="42.6015652623" lon="0.9752030019">
        <ele>2473.61</ele>
        <time>2019-09-08T08:44:30Z</time>
      </trkpt>
      <trkpt lat="42.6016134582" lon="0.9752167482">
        <ele>2471.69</ele>
        <time>2019-09-08T08:44:38Z</time>
      </trkpt>
      <trkpt lat="42.6016547810" lon="0.9752217773">
        <ele>2469.76</ele>
        <time>2019-09-08T08:44:47Z</time>
      </trkpt>
      <trkpt lat="42.6016552839" lon="0.9753058478">
        <ele>2468.32</ele>
        <time>2019-09-08T08:44:57Z</time>
      </trkpt>
      <trkpt lat="42.6016686112" lon="0.9753471706">
        <ele>2466.40</ele>
        <time>2019-09-08T08:45:08Z</time>
      </trkpt>
      <trkpt lat="42.6016455609" lon="0.9754261281">
        <ele>2463.52</ele>
        <time>2019-09-08T08:45:18Z</time>
      </trkpt>
      <trkpt lat="42.6016564574" lon="0.9754743241">
        <ele>2461.59</ele>
        <time>2019-09-08T08:45:29Z</time>
      </trkpt>
      <trkpt lat="42.6016855426" lon="0.9755210951">
        <ele>2460.15</ele>
        <time>2019-09-08T08:45:43Z</time>
      </trkpt>
      <trkpt lat="42.6016752329" lon="0.9756209236">
        <ele>2458.23</ele>
        <time>2019-09-08T08:45:55Z</time>
      </trkpt>
      <trkpt lat="42.6016667672" lon="0.9756947681">
        <ele>2458.23</ele>
        <time>2019-09-08T08:46:00Z</time>
      </trkpt>
      <trkpt lat="42.6016588043" lon="0.9757969435">
        <ele>2457.27</ele>
        <time>2019-09-08T08:46:09Z</time>
      </trkpt>
      <trkpt lat="42.6016748976" lon="0.9758862946">
        <ele>2456.31</ele>
        <time>2019-09-08T08:46:19Z</time>
      </trkpt>
      <trkpt lat="42.6016700361" lon="0.9758955985">
        <ele>2456.31</ele>
        <time>2019-09-08T08:46:20Z</time>
      </trkpt>
      <trkpt lat="42.6016373467" lon="0.9760665894">
        <ele>2454.38</ele>
        <time>2019-09-08T08:46:31Z</time>
      </trkpt>
      <trkpt lat="42.6016442198" lon="0.9760720376">
        <ele>2454.38</ele>
        <time>2019-09-08T08:46:32Z</time>
      </trkpt>
      <trkpt lat="42.6016612351" lon="0.9761271067">
        <ele>2453.90</ele>
        <time>2019-09-08T08:46:38Z</time>
      </trkpt>
      <trkpt lat="42.6016353350" lon="0.9761560243">
        <ele>2453.42</ele>
        <time>2019-09-08T08:46:41Z</time>
      </trkpt>
      <trkpt lat="42.6016280428" lon="0.9762433637">
        <ele>2451.02</ele>
        <time>2019-09-08T08:46:51Z</time>
      </trkpt>
      <trkpt lat="42.6016048249" lon="0.9762908053">
        <ele>2449.58</ele>
        <time>2019-09-08T08:46:56Z</time>
      </trkpt>
      <trkpt lat="42.6015769970" lon="0.9763353132">
        <ele>2448.62</ele>
        <time>2019-09-08T08:47:01Z</time>
      </trkpt>
      <trkpt lat="42.6015334949" lon="0.9764240775">
        <ele>2445.73</ele>
        <time>2019-09-08T08:47:14Z</time>
      </trkpt>
      <trkpt lat="42.6015259512" lon="0.9765058849">
        <ele>2443.33</ele>
        <time>2019-09-08T08:47:24Z</time>
      </trkpt>
      <trkpt lat="42.6015237719" lon="0.9766081441">
        <ele>2440.44</ele>
        <time>2019-09-08T08:47:34Z</time>
      </trkpt>
      <trkpt lat="42.6015035715" lon="0.9766503051">
        <ele>2438.52</ele>
        <time>2019-09-08T08:47:43Z</time>
      </trkpt>
      <trkpt lat="42.6015078463" lon="0.9767399076">
        <ele>2436.12</ele>
        <time>2019-09-08T08:47:53Z</time>
      </trkpt>
      <trkpt lat="42.6014681160" lon="0.9767705854">
        <ele>2433.23</ele>
        <time>2019-09-08T08:48:03Z</time>
      </trkpt>
      <trkpt lat="42.6014662720" lon="0.9767929651">
        <ele>2433.23</ele>
        <time>2019-09-08T08:48:07Z</time>
      </trkpt>
      <trkpt lat="42.6014252007" lon="0.9768450167">
        <ele>2431.79</ele>
        <time>2019-09-08T08:48:13Z</time>
      </trkpt>
      <trkpt lat="42.6013519429" lon="0.9769018460">
        <ele>2429.39</ele>
        <time>2019-09-08T08:48:19Z</time>
      </trkpt>
      <trkpt lat="42.6013123803" lon="0.9768928774">
        <ele>2428.43</ele>
        <time>2019-09-08T08:48:22Z</time>
      </trkpt>
      <trkpt lat="42.6012715604" lon="0.9769029357">
        <ele>2427.47</ele>
        <time>2019-09-08T08:48:26Z</time>
      </trkpt>
      <trkpt lat="42.6012525335" lon="0.9769544844">
        <ele>2426.50</ele>
        <time>2019-09-08T08:48:31Z</time>
      </trkpt>
      <trkpt lat="42.6012454927" lon="0.9770074580">
        <ele>2426.02</ele>
        <time>2019-09-08T08:48:36Z</time>
      </trkpt>
      <trkpt lat="42.6012204308" lon="0.9770264011">
        <ele>2424.58</ele>
        <time>2019-09-08T08:48:39Z</time>
      </trkpt>
      <trkpt lat="42.6011688821" lon="0.9771621879">
        <ele>2422.66</ele>
        <time>2019-09-08T08:48:49Z</time>
      </trkpt>
      <trkpt lat="42.6011665352" lon="0.9771700669">
        <ele>2422.18</ele>
        <time>2019-09-08T08:48:50Z</time>
      </trkpt>
      <trkpt lat="42.6011292357" lon="0.9772635251">
        <ele>2421.22</ele>
        <time>2019-09-08T08:48:56Z</time>
      </trkpt>
      <trkpt lat="42.6011040062" lon="0.9773537144">
        <ele>2420.26</ele>
        <time>2019-09-08T08:49:02Z</time>
      </trkpt>
      <trkpt lat="42.6010856498" lon="0.9774275590">
        <ele>2419.78</ele>
        <time>2019-09-08T08:49:08Z</time>
      </trkpt>
      <trkpt lat="42.6011080295" lon="0.9775187541">
        <ele>2418.81</ele>
        <time>2019-09-08T08:49:15Z</time>
      </trkpt>
      <trkpt lat="42.6010728255" lon="0.9775459953">
        <ele>2417.37</ele>
        <time>2019-09-08T08:49:24Z</time>
      </trkpt>
      <trkpt lat="42.6010408904" lon="0.9775456600">
        <ele>2415.93</ele>
        <time>2019-09-08T08:49:30Z</time>
      </trkpt>
      <trkpt lat="42.6010076981" lon="0.9776373580">
        <ele>2413.53</ele>
        <time>2019-09-08T08:49:42Z</time>
      </trkpt>
      <trkpt lat="42.6009994000" lon="0.9776645154">
        <ele>2412.57</ele>
        <time>2019-09-08T08:49:45Z</time>
      </trkpt>
      <trkpt lat="42.6010030042" lon="0.9777827002">
        <ele>2409.68</ele>
        <time>2019-09-08T08:49:55Z</time>
      </trkpt>
      <trkpt lat="42.6010141522" lon="0.9778122883">
        <ele>2409.20</ele>
        <time>2019-09-08T08:49:58Z</time>
      </trkpt>
      <trkpt lat="42.6010144874" lon="0.9778778348">
        <ele>2407.28</ele>
        <time>2019-09-08T08:50:05Z</time>
      </trkpt>
      <trkpt lat="42.6009652857" lon="0.9779261146">
        <ele>2404.88</ele>
        <time>2019-09-08T08:50:14Z</time>
      </trkpt>
      <trkpt lat="42.6009273995" lon="0.9779462311">
        <ele>2401.99</ele>
        <time>2019-09-08T08:50:24Z</time>
      </trkpt>
      <trkpt lat="42.6008960512" lon="0.9780112747">
        <ele>2399.11</ele>
        <time>2019-09-08T08:50:34Z</time>
      </trkpt>
      <trkpt lat="42.6009145752" lon="0.9780491609">
        <ele>2397.67</ele>
        <time>2019-09-08T08:50:40Z</time>
      </trkpt>
      <trkpt lat="42.6009166706" lon="0.9781015478">
        <ele>2397.18</ele>
        <time>2019-09-08T08:50:44Z</time>
      </trkpt>
      <trkpt lat="42.6009126473" lon="0.9781299625">
        <ele>2396.70</ele>
        <time>2019-09-08T08:50:46Z</time>
      </trkpt>
      <trkpt lat="42.6009187661" lon="0.9783524182">
        <ele>2393.82</ele>
        <time>2019-09-08T08:50:58Z</time>
      </trkpt>
      <trkpt lat="42.6009283215" lon="0.9783933219">
        <ele>2393.34</ele>
        <time>2019-09-08T08:51:01Z</time>
      </trkpt>
      <trkpt lat="42.6009041816" lon="0.9785039630">
        <ele>2391.42</ele>
        <time>2019-09-08T08:51:08Z</time>
      </trkpt>
      <trkpt lat="42.6008089632" lon="0.9786777198">
        <ele>2390.46</ele>
        <time>2019-09-08T08:51:19Z</time>
      </trkpt>
      <trkpt lat="42.6007952169" lon="0.9787120018">
        <ele>2390.46</ele>
        <time>2019-09-08T08:51:22Z</time>
      </trkpt>
      <trkpt lat="42.6007664669" lon="0.9787288494">
        <ele>2390.94</ele>
        <time>2019-09-08T08:51:25Z</time>
      </trkpt>
      <trkpt lat="42.6006985735" lon="0.9788183682">
        <ele>2391.42</ele>
        <time>2019-09-08T08:51:33Z</time>
      </trkpt>
      <trkpt lat="42.6006645430" lon="0.9789460246">
        <ele>2391.90</ele>
        <time>2019-09-08T08:51:41Z</time>
      </trkpt>
      <trkpt lat="42.6006314345" lon="0.9790090565">
        <ele>2391.90</ele>
        <time>2019-09-08T08:51:46Z</time>
      </trkpt>
      <trkpt lat="42.6005718391" lon="0.9791532252">
        <ele>2390.94</ele>
        <time>2019-09-08T08:51:58Z</time>
      </trkpt>
      <trkpt lat="42.6005666424" lon="0.9791626129">
        <ele>2390.94</ele>
        <time>2019-09-08T08:51:59Z</time>
      </trkpt>
      <trkpt lat="42.6005328633" lon="0.9792020917">
        <ele>2390.46</ele>
        <time>2019-09-08T08:52:03Z</time>
      </trkpt>
      <trkpt lat="42.6004857570" lon="0.9793610126">
        <ele>2389.01</ele>
        <time>2019-09-08T08:52:13Z</time>
      </trkpt>
      <trkpt lat="42.6004731003" lon="0.9793955460">
        <ele>2388.53</ele>
        <time>2019-09-08T08:52:15Z</time>
      </trkpt>
      <trkpt lat="42.6004751120" lon="0.9794677980">
        <ele>2388.05</ele>
        <time>2019-09-08T08:52:19Z</time>
      </trkpt>
      <trkpt lat="42.6004273351" lon="0.9795951191">
        <ele>2388.05</ele>
        <time>2019-09-08T08:52:29Z</time>
      </trkpt>
      <trkpt lat="42.6004099846" lon="0.9797485080">
        <ele>2388.53</ele>
        <time>2019-09-08T08:52:38Z</time>
      </trkpt>
      <trkpt lat="42.6003998425" lon="0.9798619989">
        <ele>2387.09</ele>
        <time>2019-09-08T08:52:49Z</time>
      </trkpt>
      <trkpt lat="42.6004105713" lon="0.9798636753">
        <ele>2387.09</ele>
        <time>2019-09-08T08:52:50Z</time>
      </trkpt>
      <trkpt lat="42.6004223060" lon="0.9799151402">
        <ele>2386.13</ele>
        <time>2019-09-08T08:52:54Z</time>
      </trkpt>
      <trkpt lat="42.6004045364" lon="0.9799894039">
        <ele>2385.65</ele>
        <time>2019-09-08T08:53:00Z</time>
      </trkpt>
      <trkpt lat="42.6003812347" lon="0.9800303914">
        <ele>2385.65</ele>
        <time>2019-09-08T08:53:05Z</time>
      </trkpt>
      <trkpt lat="42.6003011037" lon="0.9800929204">
        <ele>2383.73</ele>
        <time>2019-09-08T08:53:14Z</time>
      </trkpt>
      <trkpt lat="42.6002621278" lon="0.9801665973">
        <ele>2382.76</ele>
        <time>2019-09-08T08:53:20Z</time>
      </trkpt>
      <trkpt lat="42.6001938153" lon="0.9802780766">
        <ele>2381.80</ele>
        <time>2019-09-08T08:53:30Z</time>
      </trkpt>
      <trkpt lat="42.6001372375" lon="0.9803916514">
        <ele>2380.36</ele>
        <time>2019-09-08T08:53:38Z</time>
      </trkpt>
      <trkpt lat="42.6000585314" lon="0.9805375803">
        <ele>2379.88</ele>
        <time>2019-09-08T08:53:48Z</time>
      </trkpt>
      <trkpt lat="42.5999623071" lon="0.9806131013">
        <ele>2379.88</ele>
        <time>2019-09-08T08:54:02Z</time>
      </trkpt>
      <trkpt lat="42.5999417715" lon="0.9806596208">
        <ele>2380.84</ele>
        <time>2019-09-08T08:54:11Z</time>
      </trkpt>
      <trkpt lat="42.5998290349" lon="0.9806771390">
        <ele>2380.36</ele>
        <time>2019-09-08T08:54:25Z</time>
      </trkpt>
      <trkpt lat="42.5998343993" lon="0.9807028715">
        <ele>2379.40</ele>
        <time>2019-09-08T08:54:37Z</time>
      </trkpt>
      <trkpt lat="42.5998483133" lon="0.9807448648">
        <ele>2378.92</ele>
        <time>2019-09-08T08:54:48Z</time>
      </trkpt>
      <trkpt lat="42.5998462178" lon="0.9807900432">
        <ele>2378.44</ele>
        <time>2019-09-08T08:54:53Z</time>
      </trkpt>
      <trkpt lat="42.5998304598" lon="0.9808993433">
        <ele>2379.40</ele>
        <time>2019-09-08T08:55:03Z</time>
      </trkpt>
      <trkpt lat="42.5998298731" lon="0.9809094016">
        <ele>2379.40</ele>
        <time>2019-09-08T08:55:04Z</time>
      </trkpt>
      <trkpt lat="42.5998275261" lon="0.9809360560">
        <ele>2379.88</ele>
        <time>2019-09-08T08:55:06Z</time>
      </trkpt>
      <trkpt lat="42.5997620635" lon="0.9810306039">
        <ele>2379.88</ele>
        <time>2019-09-08T08:55:13Z</time>
      </trkpt>
      <trkpt lat="42.5996909011" lon="0.9811331145">
        <ele>2379.40</ele>
        <time>2019-09-08T08:55:22Z</time>
      </trkpt>
      <trkpt lat="42.5996884704" lon="0.9811761975">
        <ele>2379.88</ele>
        <time>2019-09-08T08:55:25Z</time>
      </trkpt>
      <trkpt lat="42.5996427052" lon="0.9813011717">
        <ele>2380.84</ele>
        <time>2019-09-08T08:55:35Z</time>
      </trkpt>
      <trkpt lat="42.5996228401" lon="0.9813390579">
        <ele>2381.80</ele>
        <time>2019-09-08T08:55:46Z</time>
      </trkpt>
      <trkpt lat="42.5996279530" lon="0.9813489486">
        <ele>2382.28</ele>
        <time>2019-09-08T08:55:51Z</time>
      </trkpt>
      <trkpt lat="42.5996458065" lon="0.9814058617">
        <ele>2382.28</ele>
        <time>2019-09-08T08:55:56Z</time>
      </trkpt>
      <trkpt lat="42.5996190682" lon="0.9815484378">
        <ele>2383.25</ele>
        <time>2019-09-08T08:56:08Z</time>
      </trkpt>
      <trkpt lat="42.5995966047" lon="0.9815772716">
        <ele>2383.73</ele>
        <time>2019-09-08T08:56:19Z</time>
      </trkpt>
      <trkpt lat="42.5995728001" lon="0.9815886710">
        <ele>2383.73</ele>
        <time>2019-09-08T08:56:31Z</time>
      </trkpt>
      <trkpt lat="42.5995080918" lon="0.9816078655">
        <ele>2383.25</ele>
        <time>2019-09-08T08:56:46Z</time>
      </trkpt>
      <trkpt lat="42.5993516855" lon="0.9816570673">
        <ele>2382.76</ele>
        <time>2019-09-08T08:57:02Z</time>
      </trkpt>
      <trkpt lat="42.5992080197" lon="0.9816473443">
        <ele>2383.25</ele>
        <time>2019-09-08T08:57:15Z</time>
      </trkpt>
      <trkpt lat="42.5991656072" lon="0.9816633537">
        <ele>2384.21</ele>
        <time>2019-09-08T08:57:24Z</time>
      </trkpt>
      <trkpt lat="42.5991504360" lon="0.9816726577">
        <ele>2384.21</ele>
        <time>2019-09-08T08:57:30Z</time>
      </trkpt>
      <trkpt lat="42.5991406292" lon="0.9816802014">
        <ele>2384.21</ele>
        <time>2019-09-08T08:57:31Z</time>
      </trkpt>
      <trkpt lat="42.5991319958" lon="0.9816886671">
        <ele>2384.21</ele>
        <time>2019-09-08T08:57:32Z</time>
      </trkpt>
      <trkpt lat="42.5991217699" lon="0.9816959593">
        <ele>2384.21</ele>
        <time>2019-09-08T08:57:33Z</time>
      </trkpt>
      <trkpt lat="42.5991110411" lon="0.9816993959">
        <ele>2384.21</ele>
        <time>2019-09-08T08:57:34Z</time>
      </trkpt>
      <trkpt lat="42.5990699697" lon="0.9817271400">
        <ele>2384.21</ele>
        <time>2019-09-08T08:57:38Z</time>
      </trkpt>
      <trkpt lat="42.5990625937" lon="0.9817424789">
        <ele>2384.69</ele>
        <time>2019-09-08T08:57:39Z</time>
      </trkpt>
      <trkpt lat="42.5990557205" lon="0.9817571472">
        <ele>2384.69</ele>
        <time>2019-09-08T08:57:40Z</time>
      </trkpt>
      <trkpt lat="42.5989941135" lon="0.9818211850">
        <ele>2385.65</ele>
        <time>2019-09-08T08:57:48Z</time>
      </trkpt>
      <trkpt lat="42.5989520364" lon="0.9818583168">
        <ele>2386.61</ele>
        <time>2019-09-08T08:57:53Z</time>
      </trkpt>
      <trkpt lat="42.5989231188" lon="0.9818861447">
        <ele>2386.61</ele>
        <time>2019-09-08T08:57:57Z</time>
      </trkpt>
      <trkpt lat="42.5989063550" lon="0.9818982147">
        <ele>2386.61</ele>
        <time>2019-09-08T08:57:59Z</time>
      </trkpt>
      <trkpt lat="42.5988513697" lon="0.9819511045">
        <ele>2387.57</ele>
        <time>2019-09-08T08:58:10Z</time>
      </trkpt>
      <trkpt lat="42.5988421496" lon="0.9819605760">
        <ele>2387.57</ele>
        <time>2019-09-08T08:58:11Z</time>
      </trkpt>
      <trkpt lat="42.5988318399" lon="0.9819691256">
        <ele>2387.57</ele>
        <time>2019-09-08T08:58:12Z</time>
      </trkpt>
      <trkpt lat="42.5987019204" lon="0.9820317384">
        <ele>2387.57</ele>
        <time>2019-09-08T08:58:24Z</time>
      </trkpt>
      <trkpt lat="42.5986226276" lon="0.9820697084">
        <ele>2387.57</ele>
        <time>2019-09-08T08:58:31Z</time>
      </trkpt>
      <trkpt lat="42.5986113120" lon="0.9820771683">
        <ele>2387.57</ele>
        <time>2019-09-08T08:58:32Z</time>
      </trkpt>
      <trkpt lat="42.5985989906" lon="0.9820821136">
        <ele>2387.57</ele>
        <time>2019-09-08T08:58:33Z</time>
      </trkpt>
      <trkpt lat="42.5985885970" lon="0.9820878133">
        <ele>2387.57</ele>
        <time>2019-09-08T08:58:34Z</time>
      </trkpt>
      <trkpt lat="42.5985647086" lon="0.9821148869">
        <ele>2387.57</ele>
        <time>2019-09-08T08:58:37Z</time>
      </trkpt>
      <trkpt lat="42.5985554885" lon="0.9821230173">
        <ele>2387.09</ele>
        <time>2019-09-08T08:58:38Z</time>
      </trkpt>
      <trkpt lat="42.5985441729" lon="0.9821282979">
        <ele>2387.09</ele>
        <time>2019-09-08T08:58:39Z</time>
      </trkpt>
      <trkpt lat="42.5985321868" lon="0.9821374342">
        <ele>2387.09</ele>
        <time>2019-09-08T08:58:40Z</time>
      </trkpt>
      <trkpt lat="42.5985212903" lon="0.9821469057">
        <ele>2387.09</ele>
        <time>2019-09-08T08:58:41Z</time>
      </trkpt>
      <trkpt lat="42.5985077117" lon="0.9821560420">
        <ele>2387.09</ele>
        <time>2019-09-08T08:58:42Z</time>
      </trkpt>
      <trkpt lat="42.5984950550" lon="0.9821641725">
        <ele>2387.09</ele>
        <time>2019-09-08T08:58:43Z</time>
      </trkpt>
      <trkpt lat="42.5984834880" lon="0.9821736440">
        <ele>2387.09</ele>
        <time>2019-09-08T08:58:44Z</time>
      </trkpt>
      <trkpt lat="42.5984721724" lon="0.9821824450">
        <ele>2387.09</ele>
        <time>2019-09-08T08:58:45Z</time>
      </trkpt>
      <trkpt lat="42.5984606892" lon="0.9821910784">
        <ele>2386.61</ele>
        <time>2019-09-08T08:58:46Z</time>
      </trkpt>
      <trkpt lat="42.5984466914" lon="0.9821965266">
        <ele>2386.61</ele>
        <time>2019-09-08T08:58:47Z</time>
      </trkpt>
      <trkpt lat="42.5984347053" lon="0.9822008852">
        <ele>2386.61</ele>
        <time>2019-09-08T08:58:48Z</time>
      </trkpt>
      <trkpt lat="42.5984234735" lon="0.9822098538">
        <ele>2386.61</ele>
        <time>2019-09-08T08:58:49Z</time>
      </trkpt>
      <trkpt lat="42.5984137505" lon="0.9822178166">
        <ele>2386.61</ele>
        <time>2019-09-08T08:58:50Z</time>
      </trkpt>
      <trkpt lat="42.5984007586" lon="0.9822254442">
        <ele>2386.61</ele>
        <time>2019-09-08T08:58:51Z</time>
      </trkpt>
      <trkpt lat="42.5983899459" lon="0.9822328202">
        <ele>2386.61</ele>
        <time>2019-09-08T08:58:52Z</time>
      </trkpt>
      <trkpt lat="42.5983784627" lon="0.9822399449">
        <ele>2386.61</ele>
        <time>2019-09-08T08:58:53Z</time>
      </trkpt>
      <trkpt lat="42.5983669795" lon="0.9822458960">
        <ele>2386.61</ele>
        <time>2019-09-08T08:58:54Z</time>
      </trkpt>
      <trkpt lat="42.5983560830" lon="0.9822526015">
        <ele>2386.61</ele>
        <time>2019-09-08T08:58:55Z</time>
      </trkpt>
      <trkpt lat="42.5983446836" lon="0.9822591394">
        <ele>2386.61</ele>
        <time>2019-09-08T08:58:56Z</time>
      </trkpt>
      <trkpt lat="42.5983327813" lon="0.9822650906">
        <ele>2386.61</ele>
        <time>2019-09-08T08:58:57Z</time>
      </trkpt>
      <trkpt lat="42.5983231422" lon="0.9822712094">
        <ele>2386.61</ele>
        <time>2019-09-08T08:58:58Z</time>
      </trkpt>
      <trkpt lat="42.5983114913" lon="0.9822772443">
        <ele>2386.61</ele>
        <time>2019-09-08T08:58:59Z</time>
      </trkpt>
      <trkpt lat="42.5982998405" lon="0.9822833631">
        <ele>2386.61</ele>
        <time>2019-09-08T08:59:00Z</time>
      </trkpt>
      <trkpt lat="42.5982877705" lon="0.9822914936">
        <ele>2386.61</ele>
        <time>2019-09-08T08:59:01Z</time>
      </trkpt>
      <trkpt lat="42.5982749462" lon="0.9823018033">
        <ele>2386.61</ele>
        <time>2019-09-08T08:59:02Z</time>
      </trkpt>
      <trkpt lat="42.5982656423" lon="0.9823132027">
        <ele>2386.61</ele>
        <time>2019-09-08T08:59:03Z</time>
      </trkpt>
      <trkpt lat="42.5982528180" lon="0.9823224228">
        <ele>2386.61</ele>
        <time>2019-09-08T08:59:04Z</time>
      </trkpt>
      <trkpt lat="42.5982430112" lon="0.9823339060">
        <ele>2386.61</ele>
        <time>2019-09-08T08:59:05Z</time>
      </trkpt>
      <trkpt lat="42.5982336234" lon="0.9823448025">
        <ele>2387.09</ele>
        <time>2019-09-08T08:59:06Z</time>
      </trkpt>
      <trkpt lat="42.5982227270" lon="0.9823520947">
        <ele>2387.09</ele>
        <time>2019-09-08T08:59:07Z</time>
      </trkpt>
      <trkpt lat="42.5981243234" lon="0.9825047292">
        <ele>2387.57</ele>
        <time>2019-09-08T08:59:18Z</time>
      </trkpt>
      <trkpt lat="42.5980200525" lon="0.9826963395">
        <ele>2389.01</ele>
        <time>2019-09-08T08:59:31Z</time>
      </trkpt>
      <trkpt lat="42.5979156140" lon="0.9828956611">
        <ele>2389.49</ele>
        <time>2019-09-08T08:59:44Z</time>
      </trkpt>
      <trkpt lat="42.5978073198" lon="0.9831409156">
        <ele>2389.01</ele>
        <time>2019-09-08T08:59:59Z</time>
      </trkpt>
      <trkpt lat="42.5977328885" lon="0.9833473619">
        <ele>2387.57</ele>
        <time>2019-09-08T09:00:11Z</time>
      </trkpt>
      <trkpt lat="42.5976684317" lon="0.9835481923">
        <ele>2385.65</ele>
        <time>2019-09-08T09:00:23Z</time>
      </trkpt>
      <trkpt lat="42.5975582935" lon="0.9837149084">
        <ele>2383.73</ele>
        <time>2019-09-08T09:00:35Z</time>
      </trkpt>
      <trkpt lat="42.5974957645" lon="0.9837543033">
        <ele>2382.28</ele>
        <time>2019-09-08T09:00:40Z</time>
      </trkpt>
      <trkpt lat="42.5974871311" lon="0.9837649483">
        <ele>2381.80</ele>
        <time>2019-09-08T09:00:41Z</time>
      </trkpt>
      <trkpt lat="42.5974762347" lon="0.9837773535">
        <ele>2381.80</ele>
        <time>2019-09-08T09:00:42Z</time>
      </trkpt>
      <trkpt lat="42.5973696169" lon="0.9838948678">
        <ele>2378.92</ele>
        <time>2019-09-08T09:00:53Z</time>
      </trkpt>
      <trkpt lat="42.5972438883" lon="0.9840899147">
        <ele>2376.04</ele>
        <time>2019-09-08T09:01:07Z</time>
      </trkpt>
      <trkpt lat="42.5971946027" lon="0.9841879830">
        <ele>2375.07</ele>
        <time>2019-09-08T09:01:14Z</time>
      </trkpt>
      <trkpt lat="42.5971869752" lon="0.9841967840">
        <ele>2374.59</ele>
        <time>2019-09-08T09:01:15Z</time>
      </trkpt>
      <trkpt lat="42.5971792638" lon="0.9842075128">
        <ele>2374.59</ele>
        <time>2019-09-08T09:01:16Z</time>
      </trkpt>
      <trkpt lat="42.5971728098" lon="0.9842198342">
        <ele>2374.59</ele>
        <time>2019-09-08T09:01:17Z</time>
      </trkpt>
      <trkpt lat="42.5971672777" lon="0.9842331614">
        <ele>2374.59</ele>
        <time>2019-09-08T09:01:18Z</time>
      </trkpt>
      <trkpt lat="42.5970468298" lon="0.9844038170">
        <ele>2373.63</ele>
        <time>2019-09-08T09:01:32Z</time>
      </trkpt>
      <trkpt lat="42.5969340932" lon="0.9845548589">
        <ele>2372.19</ele>
        <time>2019-09-08T09:01:45Z</time>
      </trkpt>
      <trkpt lat="42.5968773477" lon="0.9846223332">
        <ele>2371.23</ele>
        <time>2019-09-08T09:01:56Z</time>
      </trkpt>
      <trkpt lat="42.5968327560" lon="0.9846266918">
        <ele>2370.75</ele>
        <time>2019-09-08T09:02:15Z</time>
      </trkpt>
      <trkpt lat="42.5968076102" lon="0.9846154600">
        <ele>2370.27</ele>
        <time>2019-09-08T09:02:24Z</time>
      </trkpt>
      <trkpt lat="42.5967842247" lon="0.9846264403">
        <ele>2370.27</ele>
        <time>2019-09-08T09:02:27Z</time>
      </trkpt>
      <trkpt lat="42.5967650302" lon="0.9846418630">
        <ele>2370.27</ele>
        <time>2019-09-08T09:02:29Z</time>
      </trkpt>
      <trkpt lat="42.5967553072" lon="0.9846502449">
        <ele>2370.27</ele>
        <time>2019-09-08T09:02:30Z</time>
      </trkpt>
      <trkpt lat="42.5967455003" lon="0.9846596327">
        <ele>2370.27</ele>
        <time>2019-09-08T09:02:31Z</time>
      </trkpt>
      <trkpt lat="42.5966822170" lon="0.9846852813">
        <ele>2369.79</ele>
        <time>2019-09-08T09:02:42Z</time>
      </trkpt>
      <trkpt lat="42.5966778584" lon="0.9846953396">
        <ele>2370.27</ele>
        <time>2019-09-08T09:02:48Z</time>
      </trkpt>
      <trkpt lat="42.5966766011" lon="0.9848703537">
        <ele>2370.27</ele>
        <time>2019-09-08T09:02:55Z</time>
      </trkpt>
      <trkpt lat="42.5966812950" lon="0.9849248361">
        <ele>2369.79</ele>
        <time>2019-09-08T09:03:05Z</time>
      </trkpt>
      <trkpt lat="42.5966905989" lon="0.9849014506">
        <ele>2369.31</ele>
        <time>2019-09-08T09:03:15Z</time>
      </trkpt>
      <trkpt lat="42.5967023335" lon="0.9849076532">
        <ele>2368.83</ele>
        <time>2019-09-08T09:03:34Z</time>
      </trkpt>
      <trkpt lat="42.5967129786" lon="0.9849543404">
        <ele>2369.31</ele>
        <time>2019-09-08T09:03:54Z</time>
      </trkpt>
      <trkpt lat="42.5967182592" lon="0.9850091580">
        <ele>2369.79</ele>
        <time>2019-09-08T09:04:11Z</time>
      </trkpt>
      <trkpt lat="42.5967905950" lon="0.9848327190">
        <ele>2369.79</ele>
        <time>2019-09-08T09:04:34Z</time>
      </trkpt>
      <trkpt lat="42.5967863202" lon="0.9848229121">
        <ele>2369.79</ele>
        <time>2019-09-08T09:04:36Z</time>
      </trkpt>
      <trkpt lat="42.5967693888" lon="0.9847965930">
        <ele>2370.75</ele>
        <time>2019-09-08T09:04:50Z</time>
      </trkpt>
      <trkpt lat="42.5966897607" lon="0.9846105985">
        <ele>2373.15</ele>
        <time>2019-09-08T09:05:45Z</time>
      </trkpt>
      <trkpt lat="42.5967019144" lon="0.9845892247">
        <ele>2372.67</ele>
        <time>2019-09-08T09:06:15Z</time>
      </trkpt>
      <trkpt lat="42.5966856536" lon="0.9845309705">
        <ele>2372.67</ele>
        <time>2019-09-08T09:08:23Z</time>
      </trkpt>
      <trkpt lat="42.5966192689" lon="0.9846452158">
        <ele>2372.67</ele>
        <time>2019-09-08T09:09:18Z</time>
      </trkpt>
      <trkpt lat="42.5965937041" lon="0.9847173840">
        <ele>2373.15</ele>
        <time>2019-09-08T09:09:39Z</time>
      </trkpt>
      <trkpt lat="42.5967247132" lon="0.9846482333">
        <ele>2373.63</ele>
        <time>2019-09-08T09:13:52Z</time>
      </trkpt>
      <trkpt lat="42.5967126433" lon="0.9846427850">
        <ele>2371.23</ele>
        <time>2019-09-08T09:14:09Z</time>
      </trkpt>
      <trkpt lat="42.5964854099" lon="0.9847418591">
        <ele>2370.75</ele>
        <time>2019-09-08T09:14:39Z</time>
      </trkpt>
      <trkpt lat="42.5965800416" lon="0.9844167251">
        <ele>2370.27</ele>
        <time>2019-09-08T09:15:15Z</time>
      </trkpt>
      <trkpt lat="42.5967139006" lon="0.9843400307">
        <ele>2371.23</ele>
        <time>2019-09-08T09:15:26Z</time>
      </trkpt>
      <trkpt lat="42.5966103841" lon="0.9847013745">
        <ele>2370.75</ele>
        <time>2019-09-08T09:15:35Z</time>
      </trkpt>
      <trkpt lat="42.5966091268" lon="0.9847119357">
        <ele>2370.27</ele>
        <time>2019-09-08T09:15:39Z</time>
      </trkpt>
      <trkpt lat="42.5965751801" lon="0.9847282805">
        <ele>2370.27</ele>
        <time>2019-09-08T09:15:54Z</time>
      </trkpt>
      <trkpt lat="42.5966170896" lon="0.9847588744">
        <ele>2370.27</ele>
        <time>2019-09-08T09:16:12Z</time>
      </trkpt>
      <trkpt lat="42.5966580771" lon="0.9847736266">
        <ele>2370.27</ele>
        <time>2019-09-08T09:16:32Z</time>
      </trkpt>
      <trkpt lat="42.5966224540" lon="0.9849138558">
        <ele>2370.27</ele>
        <time>2019-09-08T09:16:43Z</time>
      </trkpt>
      <trkpt lat="42.5965687260" lon="0.9849320445">
        <ele>2369.79</ele>
        <time>2019-09-08T09:16:47Z</time>
      </trkpt>
      <trkpt lat="42.5965198595" lon="0.9849527478">
        <ele>2367.86</ele>
        <time>2019-09-08T09:16:51Z</time>
      </trkpt>
      <trkpt lat="42.5965088792" lon="0.9849545080">
        <ele>2367.38</ele>
        <time>2019-09-08T09:16:52Z</time>
      </trkpt>
      <trkpt lat="42.5964955520" lon="0.9849400073">
        <ele>2367.38</ele>
        <time>2019-09-08T09:16:53Z</time>
      </trkpt>
      <trkpt lat="42.5964832306" lon="0.9849248361">
        <ele>2367.38</ele>
        <time>2019-09-08T09:16:54Z</time>
      </trkpt>
      <trkpt lat="42.5964718312" lon="0.9849117603">
        <ele>2367.38</ele>
        <time>2019-09-08T09:16:55Z</time>
      </trkpt>
      <trkpt lat="42.5964601804" lon="0.9849037137">
        <ele>2367.38</ele>
        <time>2019-09-08T09:16:56Z</time>
      </trkpt>
      <trkpt lat="42.5963678956" lon="0.9848116804">
        <ele>2366.42</ele>
        <time>2019-09-08T09:17:09Z</time>
      </trkpt>
      <trkpt lat="42.5963604357" lon="0.9847936593">
        <ele>2366.42</ele>
        <time>2019-09-08T09:17:12Z</time>
      </trkpt>
      <trkpt lat="42.5963395648" lon="0.9847545996">
        <ele>2365.94</ele>
        <time>2019-09-08T09:17:15Z</time>
      </trkpt>
      <trkpt lat="42.5963328592" lon="0.9847400989">
        <ele>2365.94</ele>
        <time>2019-09-08T09:17:16Z</time>
      </trkpt>
      <trkpt lat="42.5963111501" lon="0.9846547712">
        <ele>2364.50</ele>
        <time>2019-09-08T09:17:27Z</time>
      </trkpt>
      <trkpt lat="42.5963026006" lon="0.9846052341">
        <ele>2364.50</ele>
        <time>2019-09-08T09:17:30Z</time>
      </trkpt>
      <trkpt lat="42.5963031873" lon="0.9845880512">
        <ele>2364.50</ele>
        <time>2019-09-08T09:17:31Z</time>
      </trkpt>
      <trkpt lat="42.5963070430" lon="0.9845714550">
        <ele>2364.50</ele>
        <time>2019-09-08T09:17:32Z</time>
      </trkpt>
      <trkpt lat="42.5963121559" lon="0.9845555294">
        <ele>2364.02</ele>
        <time>2019-09-08T09:17:33Z</time>
      </trkpt>
      <trkpt lat="42.5963145867" lon="0.9845391847">
        <ele>2364.02</ele>
        <time>2019-09-08T09:17:34Z</time>
      </trkpt>
      <trkpt lat="42.5963155925" lon="0.9845227562">
        <ele>2363.54</ele>
        <time>2019-09-08T09:17:35Z</time>
      </trkpt>
      <trkpt lat="42.5963701587" lon="0.9843339957">
        <ele>2362.10</ele>
        <time>2019-09-08T09:17:48Z</time>
      </trkpt>
      <trkpt lat="42.5963746849" lon="0.9843184892">
        <ele>2362.10</ele>
        <time>2019-09-08T09:17:49Z</time>
      </trkpt>
      <trkpt lat="42.5964609347" lon="0.9841469117">
        <ele>2358.73</ele>
        <time>2019-09-08T09:18:03Z</time>
      </trkpt>
      <trkpt lat="42.5965093821" lon="0.9839933552">
        <ele>2355.37</ele>
        <time>2019-09-08T09:18:13Z</time>
      </trkpt>
      <trkpt lat="42.5965231284" lon="0.9838991426">
        <ele>2353.44</ele>
        <time>2019-09-08T09:18:19Z</time>
      </trkpt>
      <trkpt lat="42.5965258945" lon="0.9838834684">
        <ele>2353.44</ele>
        <time>2019-09-08T09:18:20Z</time>
      </trkpt>
      <trkpt lat="42.5965276547" lon="0.9838676266">
        <ele>2352.96</ele>
        <time>2019-09-08T09:18:21Z</time>
      </trkpt>
      <trkpt lat="42.5965684745" lon="0.9836819675">
        <ele>2352.48</ele>
        <time>2019-09-08T09:18:33Z</time>
      </trkpt>
      <trkpt lat="42.5965849031" lon="0.9834528062">
        <ele>2350.56</ele>
        <time>2019-09-08T09:18:45Z</time>
      </trkpt>
      <trkpt lat="42.5965802092" lon="0.9833209589">
        <ele>2349.12</ele>
        <time>2019-09-08T09:18:56Z</time>
      </trkpt>
      <trkpt lat="42.5965736713" lon="0.9832304344">
        <ele>2347.20</ele>
        <time>2019-09-08T09:19:09Z</time>
      </trkpt>
      <trkpt lat="42.5965771917" lon="0.9830447752">
        <ele>2344.79</ele>
        <time>2019-09-08T09:19:20Z</time>
      </trkpt>
      <trkpt lat="42.5965703186" lon="0.9829071444">
        <ele>2342.39</ele>
        <time>2019-09-08T09:19:30Z</time>
      </trkpt>
      <trkpt lat="42.5965791196" lon="0.9827359021">
        <ele>2340.47</ele>
        <time>2019-09-08T09:19:41Z</time>
      </trkpt>
      <trkpt lat="42.5965778623" lon="0.9827186354">
        <ele>2340.47</ele>
        <time>2019-09-08T09:19:42Z</time>
      </trkpt>
      <trkpt lat="42.5965716597" lon="0.9824955091">
        <ele>2337.58</ele>
        <time>2019-09-08T09:19:55Z</time>
      </trkpt>
      <trkpt lat="42.5965455081" lon="0.9823313076">
        <ele>2335.66</ele>
        <time>2019-09-08T09:20:06Z</time>
      </trkpt>
      <trkpt lat="42.5965245534" lon="0.9822240192">
        <ele>2333.74</ele>
        <time>2019-09-08T09:20:14Z</time>
      </trkpt>
      <trkpt lat="42.5965224579" lon="0.9821976162">
        <ele>2333.26</ele>
        <time>2019-09-08T09:20:16Z</time>
      </trkpt>
      <trkpt lat="42.5965181831" lon="0.9821852110">
        <ele>2333.26</ele>
        <time>2019-09-08T09:20:17Z</time>
      </trkpt>
      <trkpt lat="42.5964701548" lon="0.9820324928">
        <ele>2330.37</ele>
        <time>2019-09-08T09:20:29Z</time>
      </trkpt>
      <trkpt lat="42.5964509603" lon="0.9819569718">
        <ele>2329.41</ele>
        <time>2019-09-08T09:20:34Z</time>
      </trkpt>
      <trkpt lat="42.5964279100" lon="0.9817502741">
        <ele>2326.53</ele>
        <time>2019-09-08T09:20:47Z</time>
      </trkpt>
      <trkpt lat="42.5964188576" lon="0.9815512039">
        <ele>2324.61</ele>
        <time>2019-09-08T09:20:59Z</time>
      </trkpt>
      <trkpt lat="42.5964227971" lon="0.9814970568">
        <ele>2324.12</ele>
        <time>2019-09-08T09:21:02Z</time>
      </trkpt>
      <trkpt lat="42.5964036863" lon="0.9814309236">
        <ele>2323.16</ele>
        <time>2019-09-08T09:21:06Z</time>
      </trkpt>
      <trkpt lat="42.5963602681" lon="0.9813912772">
        <ele>2322.20</ele>
        <time>2019-09-08T09:21:10Z</time>
      </trkpt>
      <trkpt lat="42.5963284168" lon="0.9814057779">
        <ele>2321.24</ele>
        <time>2019-09-08T09:21:14Z</time>
      </trkpt>
      <trkpt lat="42.5962978229" lon="0.9814820532">
        <ele>2319.80</ele>
        <time>2019-09-08T09:21:20Z</time>
      </trkpt>
      <trkpt lat="42.5962897763" lon="0.9815399721">
        <ele>2318.84</ele>
        <time>2019-09-08T09:21:24Z</time>
      </trkpt>
      <trkpt lat="42.5962683186" lon="0.9816898406">
        <ele>2315.47</ele>
        <time>2019-09-08T09:21:34Z</time>
      </trkpt>
      <trkpt lat="42.5962105673" lon="0.9818738233">
        <ele>2312.11</ele>
        <time>2019-09-08T09:21:46Z</time>
      </trkpt>
      <trkpt lat="42.5961672328" lon="0.9819681197">
        <ele>2309.22</ele>
        <time>2019-09-08T09:21:53Z</time>
      </trkpt>
      <trkpt lat="42.5961621199" lon="0.9819811117">
        <ele>2308.74</ele>
        <time>2019-09-08T09:21:54Z</time>
      </trkpt>
      <trkpt lat="42.5961166061" lon="0.9821325727">
        <ele>2305.38</ele>
        <time>2019-09-08T09:22:05Z</time>
      </trkpt>
      <trkpt lat="42.5960565079" lon="0.9822717123">
        <ele>2302.49</ele>
        <time>2019-09-08T09:22:16Z</time>
      </trkpt>
      <trkpt lat="42.5959775504" lon="0.9823606443">
        <ele>2299.13</ele>
        <time>2019-09-08T09:22:26Z</time>
      </trkpt>
      <trkpt lat="42.5959468726" lon="0.9823844489">
        <ele>2298.17</ele>
        <time>2019-09-08T09:22:30Z</time>
      </trkpt>
      <trkpt lat="42.5959376525" lon="0.9823893942">
        <ele>2298.17</ele>
        <time>2019-09-08T09:22:31Z</time>
      </trkpt>
      <trkpt lat="42.5959304441" lon="0.9823992848">
        <ele>2297.69</ele>
        <time>2019-09-08T09:22:32Z</time>
      </trkpt>
      <trkpt lat="42.5958761293" lon="0.9824598022">
        <ele>2295.77</ele>
        <time>2019-09-08T09:22:39Z</time>
      </trkpt>
      <trkpt lat="42.5958037097" lon="0.9825846087">
        <ele>2292.88</ele>
        <time>2019-09-08T09:22:50Z</time>
      </trkpt>
      <trkpt lat="42.5958012789" lon="0.9826010372">
        <ele>2292.40</ele>
        <time>2019-09-08T09:22:51Z</time>
      </trkpt>
      <trkpt lat="42.5957996864" lon="0.9826176334">
        <ele>2292.40</ele>
        <time>2019-09-08T09:22:52Z</time>
      </trkpt>
      <trkpt lat="42.5957757980" lon="0.9827599581">
        <ele>2289.52</ele>
        <time>2019-09-08T09:23:05Z</time>
      </trkpt>
      <trkpt lat="42.5956980139" lon="0.9828426037">
        <ele>2286.63</ele>
        <time>2019-09-08T09:23:17Z</time>
      </trkpt>
      <trkpt lat="42.5956547633" lon="0.9828799032">
        <ele>2285.19</ele>
        <time>2019-09-08T09:23:22Z</time>
      </trkpt>
      <trkpt lat="42.5956276059" lon="0.9829089884">
        <ele>2284.71</ele>
        <time>2019-09-08T09:23:25Z</time>
      </trkpt>
      <trkpt lat="42.5956187211" lon="0.9829178732">
        <ele>2284.23</ele>
        <time>2019-09-08T09:23:26Z</time>
      </trkpt>
      <trkpt lat="42.5955466367" lon="0.9829619620">
        <ele>2282.79</ele>
        <time>2019-09-08T09:23:34Z</time>
      </trkpt>
      <trkpt lat="42.5955196470" lon="0.9830003511">
        <ele>2280.87</ele>
        <time>2019-09-08T09:23:39Z</time>
      </trkpt>
      <trkpt lat="42.5954913162" lon="0.9830293525">
        <ele>2280.38</ele>
        <time>2019-09-08T09:23:42Z</time>
      </trkpt>
      <trkpt lat="42.5953985285" lon="0.9831338748">
        <ele>2277.50</ele>
        <time>2019-09-08T09:23:53Z</time>
      </trkpt>
      <trkpt lat="42.5953571219" lon="0.9831872676">
        <ele>2276.06</ele>
        <time>2019-09-08T09:23:59Z</time>
      </trkpt>
      <trkpt lat="42.5953260250" lon="0.9832065459">
        <ele>2275.10</ele>
        <time>2019-09-08T09:24:03Z</time>
      </trkpt>
      <trkpt lat="42.5953183975" lon="0.9832162689">
        <ele>2275.10</ele>
        <time>2019-09-08T09:24:04Z</time>
      </trkpt>
      <trkpt lat="42.5953102671" lon="0.9832257405">
        <ele>2274.62</ele>
        <time>2019-09-08T09:24:05Z</time>
      </trkpt>
      <trkpt lat="42.5952219218" lon="0.9832865931">
        <ele>2271.73</ele>
        <time>2019-09-08T09:24:16Z</time>
      </trkpt>
      <trkpt lat="42.5951598957" lon="0.9833457693">
        <ele>2269.33</ele>
        <time>2019-09-08T09:24:26Z</time>
      </trkpt>
      <trkpt lat="42.5950726401" lon="0.9833885171">
        <ele>2266.45</ele>
        <time>2019-09-08T09:24:37Z</time>
      </trkpt>
      <trkpt lat="42.5950466562" lon="0.9834034368">
        <ele>2265.00</ele>
        <time>2019-09-08T09:24:40Z</time>
      </trkpt>
      <trkpt lat="42.5950318202" lon="0.9834027663">
        <ele>2265.00</ele>
        <time>2019-09-08T09:24:41Z</time>
      </trkpt>
      <trkpt lat="42.5949568022" lon="0.9834562428">
        <ele>2262.60</ele>
        <time>2019-09-08T09:24:49Z</time>
      </trkpt>
      <trkpt lat="42.5949470792" lon="0.9834675584">
        <ele>2262.60</ele>
        <time>2019-09-08T09:24:50Z</time>
      </trkpt>
      <trkpt lat="42.5949369371" lon="0.9834811371">
        <ele>2262.60</ele>
        <time>2019-09-08T09:24:51Z</time>
      </trkpt>
      <trkpt lat="42.5948124658" lon="0.9834782872">
        <ele>2259.72</ele>
        <time>2019-09-08T09:25:02Z</time>
      </trkpt>
      <trkpt lat="42.5947536249" lon="0.9833796322">
        <ele>2258.75</ele>
        <time>2019-09-08T09:25:09Z</time>
      </trkpt>
      <trkpt lat="42.5947522838" lon="0.9833622817">
        <ele>2258.75</ele>
        <time>2019-09-08T09:25:10Z</time>
      </trkpt>
      <trkpt lat="42.5947420578" lon="0.9833249822">
        <ele>2257.79</ele>
        <time>2019-09-08T09:25:12Z</time>
      </trkpt>
      <trkpt lat="42.5947350170" lon="0.9833077993">
        <ele>2257.79</ele>
        <time>2019-09-08T09:25:13Z</time>
      </trkpt>
      <trkpt lat="42.5947319996" lon="0.9832896106">
        <ele>2257.31</ele>
        <time>2019-09-08T09:25:14Z</time>
      </trkpt>
      <trkpt lat="42.5947301555" lon="0.9832721762">
        <ele>2256.83</ele>
        <time>2019-09-08T09:25:15Z</time>
      </trkpt>
      <trkpt lat="42.5947282277" lon="0.9832567535">
        <ele>2256.83</ele>
        <time>2019-09-08T09:25:16Z</time>
      </trkpt>
      <trkpt lat="42.5947235338" lon="0.9832396545">
        <ele>2256.83</ele>
        <time>2019-09-08T09:25:17Z</time>
      </trkpt>
      <trkpt lat="42.5947194267" lon="0.9832198732">
        <ele>2256.35</ele>
        <time>2019-09-08T09:25:18Z</time>
      </trkpt>
      <trkpt lat="42.5947168283" lon="0.9831998404">
        <ele>2255.87</ele>
        <time>2019-09-08T09:25:19Z</time>
      </trkpt>
      <trkpt lat="42.5947161578" lon="0.9831787180">
        <ele>2255.87</ele>
        <time>2019-09-08T09:25:20Z</time>
      </trkpt>
      <trkpt lat="42.5947202649" lon="0.9831581824">
        <ele>2255.39</ele>
        <time>2019-09-08T09:25:21Z</time>
      </trkpt>
      <trkpt lat="42.5947260484" lon="0.9831402451">
        <ele>2255.39</ele>
        <time>2019-09-08T09:25:22Z</time>
      </trkpt>
      <trkpt lat="42.5947251264" lon="0.9831180330">
        <ele>2255.39</ele>
        <time>2019-09-08T09:25:23Z</time>
      </trkpt>
      <trkpt lat="42.5947191752" lon="0.9830826614">
        <ele>2255.39</ele>
        <time>2019-09-08T09:25:24Z</time>
      </trkpt>
      <trkpt lat="42.5947193429" lon="0.9830641374">
        <ele>2254.91</ele>
        <time>2019-09-08T09:25:25Z</time>
      </trkpt>
      <trkpt lat="42.5947244558" lon="0.9830632992">
        <ele>2254.91</ele>
        <time>2019-09-08T09:25:26Z</time>
      </trkpt>
      <trkpt lat="42.5947250426" lon="0.9830461163">
        <ele>2254.91</ele>
        <time>2019-09-08T09:25:27Z</time>
      </trkpt>
      <trkpt lat="42.5947247073" lon="0.9830291010">
        <ele>2254.91</ele>
        <time>2019-09-08T09:25:28Z</time>
      </trkpt>
      <trkpt lat="42.5947219413" lon="0.9829690028">
        <ele>2254.91</ele>
        <time>2019-09-08T09:25:32Z</time>
      </trkpt>
      <trkpt lat="42.5947108772" lon="0.9829512332">
        <ele>2254.91</ele>
        <time>2019-09-08T09:25:33Z</time>
      </trkpt>
      <trkpt lat="42.5946978852" lon="0.9829361457">
        <ele>2254.91</ele>
        <time>2019-09-08T09:25:34Z</time>
      </trkpt>
      <trkpt lat="42.5946882460" lon="0.9829220641">
        <ele>2254.91</ele>
        <time>2019-09-08T09:25:35Z</time>
      </trkpt>
      <trkpt lat="42.5946851447" lon="0.9829065576">
        <ele>2254.43</ele>
        <time>2019-09-08T09:25:36Z</time>
      </trkpt>
      <trkpt lat="42.5946818758" lon="0.9828925598">
        <ele>2254.43</ele>
        <time>2019-09-08T09:25:37Z</time>
      </trkpt>
      <trkpt lat="42.5946755894" lon="0.9828807414">
        <ele>2254.43</ele>
        <time>2019-09-08T09:25:38Z</time>
      </trkpt>
      <trkpt lat="42.5946679618" lon="0.9828728624">
        <ele>2254.43</ele>
        <time>2019-09-08T09:25:39Z</time>
      </trkpt>
      <trkpt lat="42.5946619269" lon="0.9828640614">
        <ele>2254.43</ele>
        <time>2019-09-08T09:25:40Z</time>
      </trkpt>
      <trkpt lat="42.5946407206" lon="0.9828617983">
        <ele>2253.47</ele>
        <time>2019-09-08T09:25:43Z</time>
      </trkpt>
      <trkpt lat="42.5946304109" lon="0.9828560986">
        <ele>2253.47</ele>
        <time>2019-09-08T09:25:44Z</time>
      </trkpt>
      <trkpt lat="42.5946140662" lon="0.9828363173">
        <ele>2252.99</ele>
        <time>2019-09-08T09:25:46Z</time>
      </trkpt>
      <trkpt lat="42.5946032535" lon="0.9828253370">
        <ele>2252.99</ele>
        <time>2019-09-08T09:25:47Z</time>
      </trkpt>
      <trkpt lat="42.5945916027" lon="0.9828193020">
        <ele>2252.51</ele>
        <time>2019-09-08T09:25:48Z</time>
      </trkpt>
      <trkpt lat="42.5945815444" lon="0.9828130156">
        <ele>2252.51</ele>
        <time>2019-09-08T09:25:49Z</time>
      </trkpt>
      <trkpt lat="42.5945731625" lon="0.9828055557">
        <ele>2252.51</ele>
        <time>2019-09-08T09:25:50Z</time>
      </trkpt>
      <trkpt lat="42.5945648644" lon="0.9827980958">
        <ele>2252.51</ele>
        <time>2019-09-08T09:25:51Z</time>
      </trkpt>
      <trkpt lat="42.5945556443" lon="0.9827897977">
        <ele>2252.03</ele>
        <time>2019-09-08T09:25:52Z</time>
      </trkpt>
      <trkpt lat="42.5944748428" lon="0.9826537594">
        <ele>2250.10</ele>
        <time>2019-09-08T09:26:03Z</time>
      </trkpt>
      <trkpt lat="42.5944622699" lon="0.9826285299">
        <ele>2249.14</ele>
        <time>2019-09-08T09:26:05Z</time>
      </trkpt>
      <trkpt lat="42.5944565702" lon="0.9826098382">
        <ele>2248.66</ele>
        <time>2019-09-08T09:26:06Z</time>
      </trkpt>
      <trkpt lat="42.5943954661" lon="0.9824698605">
        <ele>2246.74</ele>
        <time>2019-09-08T09:26:16Z</time>
      </trkpt>
      <trkpt lat="42.5943315960" lon="0.9823225066">
        <ele>2243.37</ele>
        <time>2019-09-08T09:26:26Z</time>
      </trkpt>
      <trkpt lat="42.5942386407" lon="0.9821840376">
        <ele>2240.01</ele>
        <time>2019-09-08T09:26:36Z</time>
      </trkpt>
      <trkpt lat="42.5941002555" lon="0.9820724744">
        <ele>2237.13</ele>
        <time>2019-09-08T09:26:47Z</time>
      </trkpt>
      <trkpt lat="42.5939656422" lon="0.9821033198">
        <ele>2235.68</ele>
        <time>2019-09-08T09:26:58Z</time>
      </trkpt>
      <trkpt lat="42.5939571764" lon="0.9821173176">
        <ele>2235.68</ele>
        <time>2019-09-08T09:26:59Z</time>
      </trkpt>
      <trkpt lat="42.5939489622" lon="0.9821328241">
        <ele>2235.68</ele>
        <time>2019-09-08T09:27:00Z</time>
      </trkpt>
      <trkpt lat="42.5939384848" lon="0.9821490012">
        <ele>2235.68</ele>
        <time>2019-09-08T09:27:01Z</time>
      </trkpt>
      <trkpt lat="42.5939316954" lon="0.9821679443">
        <ele>2235.20</ele>
        <time>2019-09-08T09:27:02Z</time>
      </trkpt>
      <trkpt lat="42.5939247385" lon="0.9821889829">
        <ele>2235.20</ele>
        <time>2019-09-08T09:27:03Z</time>
      </trkpt>
      <trkpt lat="42.5939164404" lon="0.9822086804">
        <ele>2235.20</ele>
        <time>2019-09-08T09:27:04Z</time>
      </trkpt>
      <trkpt lat="42.5938296039" lon="0.9824705310">
        <ele>2233.76</ele>
        <time>2019-09-08T09:27:16Z</time>
      </trkpt>
      <trkpt lat="42.5937912986" lon="0.9827286936">
        <ele>2230.88</ele>
        <time>2019-09-08T09:27:26Z</time>
      </trkpt>
      <trkpt lat="42.5937684998" lon="0.9829866048">
        <ele>2227.99</ele>
        <time>2019-09-08T09:27:37Z</time>
      </trkpt>
      <trkpt lat="42.5937123410" lon="0.9831775445">
        <ele>2225.11</ele>
        <time>2019-09-08T09:27:47Z</time>
      </trkpt>
      <trkpt lat="42.5937082339" lon="0.9831948113">
        <ele>2225.11</ele>
        <time>2019-09-08T09:27:48Z</time>
      </trkpt>
      <trkpt lat="42.5937058870" lon="0.9832153469">
        <ele>2225.11</ele>
        <time>2019-09-08T09:27:49Z</time>
      </trkpt>
      <trkpt lat="42.5937028695" lon="0.9832340386">
        <ele>2224.63</ele>
        <time>2019-09-08T09:27:50Z</time>
      </trkpt>
      <trkpt lat="42.5936995167" lon="0.9832519758">
        <ele>2224.63</ele>
        <time>2019-09-08T09:27:51Z</time>
      </trkpt>
      <trkpt lat="42.5936955772" lon="0.9832694940">
        <ele>2224.63</ele>
        <time>2019-09-08T09:27:52Z</time>
      </trkpt>
      <trkpt lat="42.5936902966" lon="0.9832866769">
        <ele>2224.15</ele>
        <time>2019-09-08T09:27:53Z</time>
      </trkpt>
      <trkpt lat="42.5936389156" lon="0.9834994934">
        <ele>2222.22</ele>
        <time>2019-09-08T09:28:04Z</time>
      </trkpt>
      <trkpt lat="42.5935752131" lon="0.9837407246">
        <ele>2219.82</ele>
        <time>2019-09-08T09:28:16Z</time>
      </trkpt>
      <trkpt lat="42.5935483072" lon="0.9839639347">
        <ele>2217.42</ele>
        <time>2019-09-08T09:28:27Z</time>
      </trkpt>
      <trkpt lat="42.5935410149" lon="0.9842407890">
        <ele>2215.01</ele>
        <time>2019-09-08T09:28:41Z</time>
      </trkpt>
      <trkpt lat="42.5935184676" lon="0.9843991231">
        <ele>2213.09</ele>
        <time>2019-09-08T09:28:50Z</time>
      </trkpt>
      <trkpt lat="42.5934186392" lon="0.9846375044">
        <ele>2210.21</ele>
        <time>2019-09-08T09:29:03Z</time>
      </trkpt>
      <trkpt lat="42.5933382567" lon="0.9848374967">
        <ele>2208.29</ele>
        <time>2019-09-08T09:29:15Z</time>
      </trkpt>
      <trkpt lat="42.5931935012" lon="0.9849454556">
        <ele>2207.81</ele>
        <time>2019-09-08T09:29:27Z</time>
      </trkpt>
      <trkpt lat="42.5930127036" lon="0.9848261811">
        <ele>2205.88</ele>
        <time>2019-09-08T09:29:39Z</time>
      </trkpt>
      <trkpt lat="42.5928694569" lon="0.9847285319">
        <ele>2203.00</ele>
        <time>2019-09-08T09:29:49Z</time>
      </trkpt>
      <trkpt lat="42.5927433930" lon="0.9847626463">
        <ele>2200.59</ele>
        <time>2019-09-08T09:29:57Z</time>
      </trkpt>
      <trkpt lat="42.5926859770" lon="0.9849715233">
        <ele>2199.15</ele>
        <time>2019-09-08T09:30:09Z</time>
      </trkpt>
      <trkpt lat="42.5926221907" lon="0.9851741139">
        <ele>2198.19</ele>
        <time>2019-09-08T09:30:22Z</time>
      </trkpt>
      <trkpt lat="42.5926159043" lon="0.9852037858">
        <ele>2198.19</ele>
        <time>2019-09-08T09:30:24Z</time>
      </trkpt>
      <trkpt lat="42.5926145632" lon="0.9852238186">
        <ele>2198.19</ele>
        <time>2019-09-08T09:30:25Z</time>
      </trkpt>
      <trkpt lat="42.5926093664" lon="0.9852397442">
        <ele>2198.19</ele>
        <time>2019-09-08T09:30:26Z</time>
      </trkpt>
      <trkpt lat="42.5926014036" lon="0.9852553345">
        <ele>2198.19</ele>
        <time>2019-09-08T09:30:27Z</time>
      </trkpt>
      <trkpt lat="42.5925952010" lon="0.9852712601">
        <ele>2198.19</ele>
        <time>2019-09-08T09:30:28Z</time>
      </trkpt>
      <trkpt lat="42.5925898366" lon="0.9852907062">
        <ele>2197.71</ele>
        <time>2019-09-08T09:30:29Z</time>
      </trkpt>
      <trkpt lat="42.5925640203" lon="0.9855328593">
        <ele>2196.75</ele>
        <time>2019-09-08T09:30:41Z</time>
      </trkpt>
      <trkpt lat="42.5925360247" lon="0.9855901916">
        <ele>2196.75</ele>
        <time>2019-09-08T09:30:44Z</time>
      </trkpt>
      <trkpt lat="42.5925302412" lon="0.9856073745">
        <ele>2196.27</ele>
        <time>2019-09-08T09:30:45Z</time>
      </trkpt>
      <trkpt lat="42.5925299060" lon="0.9856243897">
        <ele>2196.27</ele>
        <time>2019-09-08T09:30:46Z</time>
      </trkpt>
      <trkpt lat="42.5925305765" lon="0.9856403153">
        <ele>2196.27</ele>
        <time>2019-09-08T09:30:47Z</time>
      </trkpt>
      <trkpt lat="42.5925268885" lon="0.9856564924">
        <ele>2196.27</ele>
        <time>2019-09-08T09:30:48Z</time>
      </trkpt>
      <trkpt lat="42.5925193448" lon="0.9856733400">
        <ele>2195.79</ele>
        <time>2019-09-08T09:30:49Z</time>
      </trkpt>
      <trkpt lat="42.5925084483" lon="0.9856940433">
        <ele>2195.79</ele>
        <time>2019-09-08T09:30:50Z</time>
      </trkpt>
      <trkpt lat="42.5925027486" lon="0.9857142437">
        <ele>2195.79</ele>
        <time>2019-09-08T09:30:51Z</time>
      </trkpt>
      <trkpt lat="42.5925023295" lon="0.9857339412">
        <ele>2195.79</ele>
        <time>2019-09-08T09:30:52Z</time>
      </trkpt>
      <trkpt lat="42.5925014075" lon="0.9857524652">
        <ele>2195.79</ele>
        <time>2019-09-08T09:30:53Z</time>
      </trkpt>
      <trkpt lat="42.5925026648" lon="0.9857717436">
        <ele>2195.79</ele>
        <time>2019-09-08T09:30:54Z</time>
      </trkpt>
      <trkpt lat="42.5925014075" lon="0.9857906029">
        <ele>2195.31</ele>
        <time>2019-09-08T09:30:55Z</time>
      </trkpt>
      <trkpt lat="42.5924998149" lon="0.9858099651">
        <ele>2195.31</ele>
        <time>2019-09-08T09:30:56Z</time>
      </trkpt>
      <trkpt lat="42.5924991444" lon="0.9858276509">
        <ele>2194.83</ele>
        <time>2019-09-08T09:30:57Z</time>
      </trkpt>
      <trkpt lat="42.5924955402" lon="0.9858479351">
        <ele>2194.83</ele>
        <time>2019-09-08T09:30:58Z</time>
      </trkpt>
      <trkpt lat="42.5924797822" lon="0.9860383719">
        <ele>2193.87</ele>
        <time>2019-09-08T09:31:07Z</time>
      </trkpt>
      <trkpt lat="42.5924743339" lon="0.9860939439">
        <ele>2193.39</ele>
        <time>2019-09-08T09:31:11Z</time>
      </trkpt>
      <trkpt lat="42.5924692210" lon="0.9861083608">
        <ele>2193.39</ele>
        <time>2019-09-08T09:31:12Z</time>
      </trkpt>
      <trkpt lat="42.5924435724" lon="0.9862652700">
        <ele>2192.42</ele>
        <time>2019-09-08T09:31:21Z</time>
      </trkpt>
      <trkpt lat="42.5923728291" lon="0.9865162242">
        <ele>2190.50</ele>
        <time>2019-09-08T09:31:33Z</time>
      </trkpt>
      <trkpt lat="42.5923067797" lon="0.9866918251">
        <ele>2190.02</ele>
        <time>2019-09-08T09:31:42Z</time>
      </trkpt>
      <trkpt lat="42.5922994036" lon="0.9867331479">
        <ele>2190.02</ele>
        <time>2019-09-08T09:31:44Z</time>
      </trkpt>
      <trkpt lat="42.5922541413" lon="0.9869148675">
        <ele>2188.58</ele>
        <time>2019-09-08T09:31:54Z</time>
      </trkpt>
      <trkpt lat="42.5922438316" lon="0.9869315475">
        <ele>2188.58</ele>
        <time>2019-09-08T09:31:55Z</time>
      </trkpt>
      <trkpt lat="42.5921989046" lon="0.9870764706">
        <ele>2188.10</ele>
        <time>2019-09-08T09:32:03Z</time>
      </trkpt>
      <trkpt lat="42.5921734236" lon="0.9871755447">
        <ele>2187.62</ele>
        <time>2019-09-08T09:32:08Z</time>
      </trkpt>
      <trkpt lat="42.5921704900" lon="0.9871947393">
        <ele>2187.62</ele>
        <time>2019-09-08T09:32:09Z</time>
      </trkpt>
      <trkpt lat="42.5921694841" lon="0.9872137662">
        <ele>2187.62</ele>
        <time>2019-09-08T09:32:10Z</time>
      </trkpt>
      <trkpt lat="42.5921666343" lon="0.9872310329">
        <ele>2187.62</ele>
        <time>2019-09-08T09:32:11Z</time>
      </trkpt>
      <trkpt lat="42.5921641197" lon="0.9872481320">
        <ele>2187.62</ele>
        <time>2019-09-08T09:32:12Z</time>
      </trkpt>
      <trkpt lat="42.5921642035" lon="0.9872702602">
        <ele>2187.62</ele>
        <time>2019-09-08T09:32:13Z</time>
      </trkpt>
      <trkpt lat="42.5921634492" lon="0.9872897062">
        <ele>2187.62</ele>
        <time>2019-09-08T09:32:14Z</time>
      </trkpt>
      <trkpt lat="42.5921640359" lon="0.9873095714">
        <ele>2188.10</ele>
        <time>2019-09-08T09:32:15Z</time>
      </trkpt>
      <trkpt lat="42.5921647064" lon="0.9873248264">
        <ele>2188.10</ele>
        <time>2019-09-08T09:32:16Z</time>
      </trkpt>
      <trkpt lat="42.5921645388" lon="0.9873399138">
        <ele>2188.10</ele>
        <time>2019-09-08T09:32:17Z</time>
      </trkpt>
      <trkpt lat="42.5921512116" lon="0.9874080587">
        <ele>2188.58</ele>
        <time>2019-09-08T09:32:22Z</time>
      </trkpt>
      <trkpt lat="42.5921441708" lon="0.9875126649">
        <ele>2189.06</ele>
        <time>2019-09-08T09:32:29Z</time>
      </trkpt>
      <trkpt lat="42.5921264850" lon="0.9877405688">
        <ele>2190.02</ele>
        <time>2019-09-08T09:32:41Z</time>
      </trkpt>
      <trkpt lat="42.5920471083" lon="0.9879872482">
        <ele>2191.94</ele>
        <time>2019-09-08T09:32:53Z</time>
      </trkpt>
      <trkpt lat="42.5919668935" lon="0.9881311655">
        <ele>2192.42</ele>
        <time>2019-09-08T09:33:03Z</time>
      </trkpt>
      <trkpt lat="42.5919419993" lon="0.9881633520">
        <ele>2192.42</ele>
        <time>2019-09-08T09:33:06Z</time>
      </trkpt>
      <trkpt lat="42.5918531511" lon="0.9883646015">
        <ele>2192.42</ele>
        <time>2019-09-08T09:33:18Z</time>
      </trkpt>
      <trkpt lat="42.5918073021" lon="0.9884453192">
        <ele>2191.46</ele>
        <time>2019-09-08T09:33:24Z</time>
      </trkpt>
      <trkpt lat="42.5918024406" lon="0.9884591494">
        <ele>2191.46</ele>
        <time>2019-09-08T09:33:25Z</time>
      </trkpt>
      <trkpt lat="42.5917703379" lon="0.9885497577">
        <ele>2190.50</ele>
        <time>2019-09-08T09:33:33Z</time>
      </trkpt>
      <trkpt lat="42.5917622913" lon="0.9885627497">
        <ele>2190.02</ele>
        <time>2019-09-08T09:33:34Z</time>
      </trkpt>
      <trkpt lat="42.5917350501" lon="0.9885856323">
        <ele>2189.54</ele>
        <time>2019-09-08T09:33:36Z</time>
      </trkpt>
      <trkpt lat="42.5917203818" lon="0.9885974508">
        <ele>2189.54</ele>
        <time>2019-09-08T09:33:37Z</time>
      </trkpt>
      <trkpt lat="42.5917050429" lon="0.9886135440">
        <ele>2189.54</ele>
        <time>2019-09-08T09:33:38Z</time>
      </trkpt>
      <trkpt lat="42.5916896202" lon="0.9886269551">
        <ele>2189.06</ele>
        <time>2019-09-08T09:33:39Z</time>
      </trkpt>
      <trkpt lat="42.5916745327" lon="0.9886368457">
        <ele>2189.06</ele>
        <time>2019-09-08T09:33:40Z</time>
      </trkpt>
      <trkpt lat="42.5916584395" lon="0.9886407014">
        <ele>2189.06</ele>
        <time>2019-09-08T09:33:41Z</time>
      </trkpt>
      <trkpt lat="42.5916418433" lon="0.9886395279">
        <ele>2189.06</ele>
        <time>2019-09-08T09:33:42Z</time>
      </trkpt>
      <trkpt lat="42.5916276779" lon="0.9886357561">
        <ele>2188.58</ele>
        <time>2019-09-08T09:33:43Z</time>
      </trkpt>
      <trkpt lat="42.5915882830" lon="0.9886344150">
        <ele>2188.58</ele>
        <time>2019-09-08T09:33:46Z</time>
      </trkpt>
      <trkpt lat="42.5915700942" lon="0.9886362590">
        <ele>2188.10</ele>
        <time>2019-09-08T09:33:47Z</time>
      </trkpt>
      <trkpt lat="42.5913547631" lon="0.9885883145">
        <ele>2184.73</ele>
        <time>2019-09-08T09:34:00Z</time>
      </trkpt>
      <trkpt lat="42.5912272744" lon="0.9886074252">
        <ele>2181.85</ele>
        <time>2019-09-08T09:34:08Z</time>
      </trkpt>
      <trkpt lat="42.5911186449" lon="0.9886444733">
        <ele>2178.97</ele>
        <time>2019-09-08T09:34:15Z</time>
      </trkpt>
      <trkpt lat="42.5909831934" lon="0.9887440503">
        <ele>2175.60</ele>
        <time>2019-09-08T09:34:25Z</time>
      </trkpt>
      <trkpt lat="42.5908715464" lon="0.9888581280">
        <ele>2173.20</ele>
        <time>2019-09-08T09:34:35Z</time>
      </trkpt>
      <trkpt lat="42.5908621587" lon="0.9888683539">
        <ele>2173.20</ele>
        <time>2019-09-08T09:34:36Z</time>
      </trkpt>
      <trkpt lat="42.5908470713" lon="0.9888852853">
        <ele>2172.72</ele>
        <time>2019-09-08T09:34:38Z</time>
      </trkpt>
      <trkpt lat="42.5908360910" lon="0.9888946731">
        <ele>2172.72</ele>
        <time>2019-09-08T09:34:39Z</time>
      </trkpt>
      <trkpt lat="42.5908265356" lon="0.9889048990">
        <ele>2172.24</ele>
        <time>2019-09-08T09:34:40Z</time>
      </trkpt>
      <trkpt lat="42.5908159744" lon="0.9889134485">
        <ele>2172.24</ele>
        <time>2019-09-08T09:34:41Z</time>
      </trkpt>
      <trkpt lat="42.5908027310" lon="0.9889251832">
        <ele>2172.24</ele>
        <time>2019-09-08T09:34:42Z</time>
      </trkpt>
      <trkpt lat="42.5907891523" lon="0.9889402706">
        <ele>2171.76</ele>
        <time>2019-09-08T09:34:43Z</time>
      </trkpt>
      <trkpt lat="42.5907178223" lon="0.9890816733">
        <ele>2169.83</ele>
        <time>2019-09-08T09:34:52Z</time>
      </trkpt>
      <trkpt lat="42.5906440616" lon="0.9892897122">
        <ele>2167.43</ele>
        <time>2019-09-08T09:35:03Z</time>
      </trkpt>
      <trkpt lat="42.5906308182" lon="0.9892980941">
        <ele>2167.43</ele>
        <time>2019-09-08T09:35:04Z</time>
      </trkpt>
      <trkpt lat="42.5906193350" lon="0.9892969206">
        <ele>2167.43</ele>
        <time>2019-09-08T09:35:05Z</time>
      </trkpt>
      <trkpt lat="42.5906082708" lon="0.9892948251">
        <ele>2166.95</ele>
        <time>2019-09-08T09:35:06Z</time>
      </trkpt>
      <trkpt lat="42.5905088615" lon="0.9891647380">
        <ele>2163.58</ele>
        <time>2019-09-08T09:35:16Z</time>
      </trkpt>
      <trkpt lat="42.5904602464" lon="0.9890908934">
        <ele>2162.14</ele>
        <time>2019-09-08T09:35:22Z</time>
      </trkpt>
      <trkpt lat="42.5904440694" lon="0.9890875407">
        <ele>2161.66</ele>
        <time>2019-09-08T09:35:23Z</time>
      </trkpt>
      <trkpt lat="42.5904308259" lon="0.9890910611">
        <ele>2161.66</ele>
        <time>2019-09-08T09:35:24Z</time>
      </trkpt>
      <trkpt lat="42.5904164091" lon="0.9891139437">
        <ele>2161.18</ele>
        <time>2019-09-08T09:35:26Z</time>
      </trkpt>
      <trkpt lat="42.5904125534" lon="0.9891294502">
        <ele>2161.18</ele>
        <time>2019-09-08T09:35:27Z</time>
      </trkpt>
      <trkpt lat="42.5904073566" lon="0.9891457111">
        <ele>2160.70</ele>
        <time>2019-09-08T09:35:28Z</time>
      </trkpt>
      <trkpt lat="42.5904015731" lon="0.9891621396">
        <ele>2160.22</ele>
        <time>2019-09-08T09:35:29Z</time>
      </trkpt>
      <trkpt lat="42.5903185923" lon="0.9893464576">
        <ele>2158.30</ele>
        <time>2019-09-08T09:35:39Z</time>
      </trkpt>
      <trkpt lat="42.5903126411" lon="0.9893642273">
        <ele>2158.30</ele>
        <time>2019-09-08T09:35:40Z</time>
      </trkpt>
      <trkpt lat="42.5903039239" lon="0.9893794823">
        <ele>2158.30</ele>
        <time>2019-09-08T09:35:41Z</time>
      </trkpt>
      <trkpt lat="42.5902063586" lon="0.9894683305">
        <ele>2157.34</ele>
        <time>2019-09-08T09:35:49Z</time>
      </trkpt>
      <trkpt lat="42.5901336875" lon="0.9895262495">
        <ele>2156.86</ele>
        <time>2019-09-08T09:36:02Z</time>
      </trkpt>
      <trkpt lat="42.5900719967" lon="0.9895803966">
        <ele>2156.37</ele>
        <time>2019-09-08T09:36:07Z</time>
      </trkpt>
      <trkpt lat="42.5900626089" lon="0.9895929694">
        <ele>2156.37</ele>
        <time>2019-09-08T09:36:08Z</time>
      </trkpt>
      <trkpt lat="42.5900529698" lon="0.9896009322">
        <ele>2156.37</ele>
        <time>2019-09-08T09:36:09Z</time>
      </trkpt>
      <trkpt lat="42.5900433306" lon="0.9896102361">
        <ele>2156.37</ele>
        <time>2019-09-08T09:36:10Z</time>
      </trkpt>
      <trkpt lat="42.5900336076" lon="0.9896202106">
        <ele>2156.37</ele>
        <time>2019-09-08T09:36:11Z</time>
      </trkpt>
      <trkpt lat="42.5900211185" lon="0.9896279220">
        <ele>2156.37</ele>
        <time>2019-09-08T09:36:12Z</time>
      </trkpt>
      <trkpt lat="42.5900026783" lon="0.9896447696">
        <ele>2156.37</ele>
        <time>2019-09-08T09:36:14Z</time>
      </trkpt>
      <trkpt lat="42.5899091363" lon="0.9897427540">
        <ele>2156.37</ele>
        <time>2019-09-08T09:36:24Z</time>
      </trkpt>
      <trkpt lat="42.5898179412" lon="0.9898795467">
        <ele>2156.86</ele>
        <time>2019-09-08T09:36:33Z</time>
      </trkpt>
      <trkpt lat="42.5897995848" lon="0.9899052791">
        <ele>2156.86</ele>
        <time>2019-09-08T09:36:35Z</time>
      </trkpt>
      <trkpt lat="42.5897886883" lon="0.9899164271">
        <ele>2156.86</ele>
        <time>2019-09-08T09:36:36Z</time>
      </trkpt>
      <trkpt lat="42.5897772890" lon="0.9899310116">
        <ele>2156.86</ele>
        <time>2019-09-08T09:36:37Z</time>
      </trkpt>
      <trkpt lat="42.5897191186" lon="0.9899892658">
        <ele>2156.37</ele>
        <time>2019-09-08T09:36:42Z</time>
      </trkpt>
      <trkpt lat="42.5897051208" lon="0.9899928700">
        <ele>2156.37</ele>
        <time>2019-09-08T09:36:43Z</time>
      </trkpt>
      <trkpt lat="42.5896907039" lon="0.9899934568">
        <ele>2156.37</ele>
        <time>2019-09-08T09:36:44Z</time>
      </trkpt>
      <trkpt lat="42.5896764547" lon="0.9899964742">
        <ele>2156.37</ele>
        <time>2019-09-08T09:36:45Z</time>
      </trkpt>
      <trkpt lat="42.5896611158" lon="0.9900026768">
        <ele>2156.37</ele>
        <time>2019-09-08T09:36:46Z</time>
      </trkpt>
      <trkpt lat="42.5895785540" lon="0.9899860807">
        <ele>2156.37</ele>
        <time>2019-09-08T09:36:56Z</time>
      </trkpt>
      <trkpt lat="42.5895649754" lon="0.9899998270">
        <ele>2156.86</ele>
        <time>2019-09-08T09:37:11Z</time>
      </trkpt>
      <trkpt lat="42.5895575993" lon="0.9900160041">
        <ele>2156.86</ele>
        <time>2019-09-08T09:37:12Z</time>
      </trkpt>
      <trkpt lat="42.5895518158" lon="0.9900302533">
        <ele>2156.86</ele>
        <time>2019-09-08T09:37:13Z</time>
      </trkpt>
      <trkpt lat="42.5895446911" lon="0.9900449216">
        <ele>2156.86</ele>
        <time>2019-09-08T09:37:14Z</time>
      </trkpt>
      <trkpt lat="42.5894933939" lon="0.9901648667">
        <ele>2156.37</ele>
        <time>2019-09-08T09:37:22Z</time>
      </trkpt>
      <trkpt lat="42.5894369837" lon="0.9903406352">
        <ele>2155.41</ele>
        <time>2019-09-08T09:37:33Z</time>
      </trkpt>
      <trkpt lat="42.5893552601" lon="0.9905134700">
        <ele>2153.01</ele>
        <time>2019-09-08T09:37:44Z</time>
      </trkpt>
      <trkpt lat="42.5893501472" lon="0.9905265458">
        <ele>2153.01</ele>
        <time>2019-09-08T09:37:45Z</time>
      </trkpt>
      <trkpt lat="42.5893259235" lon="0.9905630071">
        <ele>2153.01</ele>
        <time>2019-09-08T09:37:48Z</time>
      </trkpt>
      <trkpt lat="42.5893164519" lon="0.9905806929">
        <ele>2152.53</ele>
        <time>2019-09-08T09:37:49Z</time>
      </trkpt>
      <trkpt lat="42.5892280228" lon="0.9907536115">
        <ele>2151.57</ele>
        <time>2019-09-08T09:37:59Z</time>
      </trkpt>
      <trkpt lat="42.5891354028" lon="0.9909313079">
        <ele>2150.13</ele>
        <time>2019-09-08T09:38:09Z</time>
      </trkpt>
      <trkpt lat="42.5891330559" lon="0.9909541067">
        <ele>2150.13</ele>
        <time>2019-09-08T09:38:10Z</time>
      </trkpt>
      <trkpt lat="42.5891290326" lon="0.9909758996">
        <ele>2150.13</ele>
        <time>2019-09-08T09:38:11Z</time>
      </trkpt>
      <trkpt lat="42.5891244225" lon="0.9910511691">
        <ele>2149.65</ele>
        <time>2019-09-08T09:38:15Z</time>
      </trkpt>
      <trkpt lat="42.5891210698" lon="0.9910707828">
        <ele>2149.65</ele>
        <time>2019-09-08T09:38:16Z</time>
      </trkpt>
      <trkpt lat="42.5891225785" lon="0.9911752213">
        <ele>2149.16</ele>
        <time>2019-09-08T09:38:21Z</time>
      </trkpt>
      <trkpt lat="42.5891257636" lon="0.9911953378">
        <ele>2149.16</ele>
        <time>2019-09-08T09:38:22Z</time>
      </trkpt>
      <trkpt lat="42.5891266018" lon="0.9912136104">
        <ele>2149.16</ele>
        <time>2019-09-08T09:38:23Z</time>
      </trkpt>
      <trkpt lat="42.5891259313" lon="0.9912343137">
        <ele>2149.16</ele>
        <time>2019-09-08T09:38:24Z</time>
      </trkpt>
      <trkpt lat="42.5891250093" lon="0.9912548494">
        <ele>2149.16</ele>
        <time>2019-09-08T09:38:25Z</time>
      </trkpt>
      <trkpt lat="42.5891154539" lon="0.9914635587">
        <ele>2146.76</ele>
        <time>2019-09-08T09:38:36Z</time>
      </trkpt>
      <trkpt lat="42.5891178846" lon="0.9916574322">
        <ele>2145.32</ele>
        <time>2019-09-08T09:38:48Z</time>
      </trkpt>
      <trkpt lat="42.5891176332" lon="0.9916634671">
        <ele>2144.84</ele>
        <time>2019-09-08T09:38:53Z</time>
      </trkpt>
      <trkpt lat="42.5891162083" lon="0.9916753694">
        <ele>2144.84</ele>
        <time>2019-09-08T09:38:54Z</time>
      </trkpt>
      <trkpt lat="42.5891103409" lon="0.9916920494">
        <ele>2144.84</ele>
        <time>2019-09-08T09:38:55Z</time>
      </trkpt>
      <trkpt lat="42.5891052280" lon="0.9917088132">
        <ele>2144.84</ele>
        <time>2019-09-08T09:38:56Z</time>
      </trkpt>
      <trkpt lat="42.5890984386" lon="0.9917254932">
        <ele>2144.84</ele>
        <time>2019-09-08T09:38:57Z</time>
      </trkpt>
      <trkpt lat="42.5890867040" lon="0.9917411674">
        <ele>2144.84</ele>
        <time>2019-09-08T09:38:58Z</time>
      </trkpt>
      <trkpt lat="42.5890742987" lon="0.9917529020">
        <ele>2144.84</ele>
        <time>2019-09-08T09:38:59Z</time>
      </trkpt>
      <trkpt lat="42.5890649948" lon="0.9917647205">
        <ele>2144.84</ele>
        <time>2019-09-08T09:39:00Z</time>
      </trkpt>
      <trkpt lat="42.5890552718" lon="0.9917805623">
        <ele>2144.84</ele>
        <time>2019-09-08T09:39:01Z</time>
      </trkpt>
      <trkpt lat="42.5889463909" lon="0.9920160100">
        <ele>2143.40</ele>
        <time>2019-09-08T09:39:13Z</time>
      </trkpt>
      <trkpt lat="42.5888860412" lon="0.9921759367">
        <ele>2141.95</ele>
        <time>2019-09-08T09:39:22Z</time>
      </trkpt>
      <trkpt lat="42.5888538547" lon="0.9923812933">
        <ele>2140.99</ele>
        <time>2019-09-08T09:39:32Z</time>
      </trkpt>
      <trkpt lat="42.5888541900" lon="0.9924020804">
        <ele>2140.99</ele>
        <time>2019-09-08T09:39:33Z</time>
      </trkpt>
      <trkpt lat="42.5888555311" lon="0.9924221970">
        <ele>2140.51</ele>
        <time>2019-09-08T09:39:34Z</time>
      </trkpt>
      <trkpt lat="42.5888251048" lon="0.9926342592">
        <ele>2140.03</ele>
        <time>2019-09-08T09:39:44Z</time>
      </trkpt>
      <trkpt lat="42.5887949299" lon="0.9928433876">
        <ele>2138.59</ele>
        <time>2019-09-08T09:39:55Z</time>
      </trkpt>
      <trkpt lat="42.5887645874" lon="0.9930448886">
        <ele>2137.15</ele>
        <time>2019-09-08T09:40:05Z</time>
      </trkpt>
      <trkpt lat="42.5887574628" lon="0.9932390973">
        <ele>2136.19</ele>
        <time>2019-09-08T09:40:15Z</time>
      </trkpt>
      <trkpt lat="42.5887538586" lon="0.9934476390">
        <ele>2135.23</ele>
        <time>2019-09-08T09:40:26Z</time>
      </trkpt>
      <trkpt lat="42.5887529366" lon="0.9935042169">
        <ele>2135.23</ele>
        <time>2019-09-08T09:40:29Z</time>
      </trkpt>
      <trkpt lat="42.5887543615" lon="0.9935247526">
        <ele>2135.23</ele>
        <time>2019-09-08T09:40:30Z</time>
      </trkpt>
      <trkpt lat="42.5887573790" lon="0.9935441986">
        <ele>2135.23</ele>
        <time>2019-09-08T09:40:31Z</time>
      </trkpt>
      <trkpt lat="42.5887602288" lon="0.9935623035">
        <ele>2135.23</ele>
        <time>2019-09-08T09:40:32Z</time>
      </trkpt>
      <trkpt lat="42.5887605641" lon="0.9935818333">
        <ele>2135.23</ele>
        <time>2019-09-08T09:40:33Z</time>
      </trkpt>
      <trkpt lat="42.5887593906" lon="0.9935994353">
        <ele>2135.23</ele>
        <time>2019-09-08T09:40:34Z</time>
      </trkpt>
      <trkpt lat="42.5887593068" lon="0.9936167859">
        <ele>2135.71</ele>
        <time>2019-09-08T09:40:35Z</time>
      </trkpt>
      <trkpt lat="42.5887606479" lon="0.9936348069">
        <ele>2135.71</ele>
        <time>2019-09-08T09:40:36Z</time>
      </trkpt>
      <trkpt lat="42.5887598936" lon="0.9936535824">
        <ele>2135.71</ele>
        <time>2019-09-08T09:40:37Z</time>
      </trkpt>
      <trkpt lat="42.5887588877" lon="0.9936731122">
        <ele>2135.71</ele>
        <time>2019-09-08T09:40:38Z</time>
      </trkpt>
      <trkpt lat="42.5887598097" lon="0.9936928935">
        <ele>2135.71</ele>
        <time>2019-09-08T09:40:39Z</time>
      </trkpt>
      <trkpt lat="42.5887655932" lon="0.9937150218">
        <ele>2136.19</ele>
        <time>2019-09-08T09:40:40Z</time>
      </trkpt>
      <trkpt lat="42.5887712929" lon="0.9937355574">
        <ele>2136.19</ele>
        <time>2019-09-08T09:40:41Z</time>
      </trkpt>
      <trkpt lat="42.5887719635" lon="0.9937539138">
        <ele>2136.19</ele>
        <time>2019-09-08T09:40:42Z</time>
      </trkpt>
      <trkpt lat="42.5887682755" lon="0.9937735274">
        <ele>2136.19</ele>
        <time>2019-09-08T09:40:43Z</time>
      </trkpt>
      <trkpt lat="42.5887653418" lon="0.9937942307">
        <ele>2136.19</ele>
        <time>2019-09-08T09:40:44Z</time>
      </trkpt>
      <trkpt lat="42.5887650065" lon="0.9938166104">
        <ele>2136.19</ele>
        <time>2019-09-08T09:40:45Z</time>
      </trkpt>
      <trkpt lat="42.5887677725" lon="0.9938404150">
        <ele>2136.67</ele>
        <time>2019-09-08T09:40:46Z</time>
      </trkpt>
      <trkpt lat="42.5887702871" lon="0.9938600287">
        <ele>2136.67</ele>
        <time>2019-09-08T09:40:47Z</time>
      </trkpt>
      <trkpt lat="42.5887722988" lon="0.9938762058">
        <ele>2136.67</ele>
        <time>2019-09-08T09:40:48Z</time>
      </trkpt>
      <trkpt lat="42.5887499191" lon="0.9940963145">
        <ele>2136.67</ele>
        <time>2019-09-08T09:40:59Z</time>
      </trkpt>
      <trkpt lat="42.5887229294" lon="0.9942791238">
        <ele>2137.63</ele>
        <time>2019-09-08T09:41:08Z</time>
      </trkpt>
      <trkpt lat="42.5886672735" lon="0.9944747575">
        <ele>2137.15</ele>
        <time>2019-09-08T09:41:19Z</time>
      </trkpt>
      <trkpt lat="42.5886627473" lon="0.9944946226">
        <ele>2137.15</ele>
        <time>2019-09-08T09:41:20Z</time>
      </trkpt>
      <trkpt lat="42.5886277948" lon="0.9946230333">
        <ele>2137.15</ele>
        <time>2019-09-08T09:41:27Z</time>
      </trkpt>
      <trkpt lat="42.5886253640" lon="0.9946417250">
        <ele>2137.63</ele>
        <time>2019-09-08T09:41:28Z</time>
      </trkpt>
      <trkpt lat="42.5885643438" lon="0.9948361013">
        <ele>2137.63</ele>
        <time>2019-09-08T09:41:39Z</time>
      </trkpt>
      <trkpt lat="42.5885075983" lon="0.9949813597">
        <ele>2137.63</ele>
        <time>2019-09-08T09:41:49Z</time>
      </trkpt>
      <trkpt lat="42.5884561334" lon="0.9952061623">
        <ele>2137.63</ele>
        <time>2019-09-08T09:42:00Z</time>
      </trkpt>
      <trkpt lat="42.5884059258" lon="0.9953385126">
        <ele>2138.11</ele>
        <time>2019-09-08T09:42:08Z</time>
      </trkpt>
      <trkpt lat="42.5884074345" lon="0.9953565337">
        <ele>2138.11</ele>
        <time>2019-09-08T09:42:09Z</time>
      </trkpt>
      <trkpt lat="42.5883656926" lon="0.9954454657">
        <ele>2139.07</ele>
        <time>2019-09-08T09:42:16Z</time>
      </trkpt>
      <trkpt lat="42.5883563049" lon="0.9954634029">
        <ele>2139.07</ele>
        <time>2019-09-08T09:42:17Z</time>
      </trkpt>
      <trkpt lat="42.5882863998" lon="0.9955579508">
        <ele>2140.99</ele>
        <time>2019-09-08T09:42:25Z</time>
      </trkpt>
      <trkpt lat="42.5882721506" lon="0.9955733735">
        <ele>2141.47</ele>
        <time>2019-09-08T09:42:26Z</time>
      </trkpt>
      <trkpt lat="42.5882572308" lon="0.9955901373">
        <ele>2141.47</ele>
        <time>2019-09-08T09:42:27Z</time>
      </trkpt>
      <trkpt lat="42.5882413890" lon="0.9956079908">
        <ele>2141.95</ele>
        <time>2019-09-08T09:42:28Z</time>
      </trkpt>
      <trkpt lat="42.5882283133" lon="0.9956263471">
        <ele>2141.95</ele>
        <time>2019-09-08T09:42:29Z</time>
      </trkpt>
      <trkpt lat="42.5881271437" lon="0.9957602061">
        <ele>2142.44</ele>
        <time>2019-09-08T09:42:37Z</time>
      </trkpt>
      <trkpt lat="42.5880546402" lon="0.9959245753">
        <ele>2141.95</ele>
        <time>2019-09-08T09:42:47Z</time>
      </trkpt>
      <trkpt lat="42.5880184304" lon="0.9960157704">
        <ele>2141.95</ele>
        <time>2019-09-08T09:42:53Z</time>
      </trkpt>
      <trkpt lat="42.5880135689" lon="0.9960324503">
        <ele>2141.95</ele>
        <time>2019-09-08T09:42:54Z</time>
      </trkpt>
      <trkpt lat="42.5880103838" lon="0.9960489627">
        <ele>2141.47</ele>
        <time>2019-09-08T09:42:55Z</time>
      </trkpt>
      <trkpt lat="42.5880073663" lon="0.9960639663">
        <ele>2141.47</ele>
        <time>2019-09-08T09:42:56Z</time>
      </trkpt>
      <trkpt lat="42.5880016666" lon="0.9961339552">
        <ele>2141.47</ele>
        <time>2019-09-08T09:43:00Z</time>
      </trkpt>
      <trkpt lat="42.5879976433" lon="0.9961545747">
        <ele>2141.47</ele>
        <time>2019-09-08T09:43:01Z</time>
      </trkpt>
      <trkpt lat="42.5879921950" lon="0.9962547384">
        <ele>2141.47</ele>
        <time>2019-09-08T09:43:06Z</time>
      </trkpt>
      <trkpt lat="42.5879933685" lon="0.9962731786">
        <ele>2141.47</ele>
        <time>2019-09-08T09:43:07Z</time>
      </trkpt>
      <trkpt lat="42.5879825559" lon="0.9964548144">
        <ele>2140.03</ele>
        <time>2019-09-08T09:43:17Z</time>
      </trkpt>
      <trkpt lat="42.5878667179" lon="0.9966589138">
        <ele>2136.67</ele>
        <time>2019-09-08T09:43:26Z</time>
      </trkpt>
      <trkpt lat="42.5878307596" lon="0.9967078641">
        <ele>2135.71</ele>
        <time>2019-09-08T09:43:29Z</time>
      </trkpt>
      <trkpt lat="42.5878229644" lon="0.9967238735">
        <ele>2135.23</ele>
        <time>2019-09-08T09:43:30Z</time>
      </trkpt>
      <trkpt lat="42.5878032669" lon="0.9967535455">
        <ele>2133.78</ele>
        <time>2019-09-08T09:43:32Z</time>
      </trkpt>
      <trkpt lat="42.5877153408" lon="0.9969216865">
        <ele>2131.38</ele>
        <time>2019-09-08T09:43:40Z</time>
      </trkpt>
      <trkpt lat="42.5877074618" lon="0.9969905857">
        <ele>2129.94</ele>
        <time>2019-09-08T09:43:48Z</time>
      </trkpt>
      <trkpt lat="42.5876976550" lon="0.9970236942">
        <ele>2129.94</ele>
        <time>2019-09-08T09:43:50Z</time>
      </trkpt>
      <trkpt lat="42.5876927935" lon="0.9970423020">
        <ele>2129.94</ele>
        <time>2019-09-08T09:43:51Z</time>
      </trkpt>
      <trkpt lat="42.5876896083" lon="0.9970599879">
        <ele>2129.94</ele>
        <time>2019-09-08T09:43:52Z</time>
      </trkpt>
      <trkpt lat="42.5876897760" lon="0.9970800206">
        <ele>2129.46</ele>
        <time>2019-09-08T09:43:53Z</time>
      </trkpt>
      <trkpt lat="42.5876896083" lon="0.9971013945">
        <ele>2129.46</ele>
        <time>2019-09-08T09:43:54Z</time>
      </trkpt>
      <trkpt lat="42.5876849145" lon="0.9971233550">
        <ele>2129.46</ele>
        <time>2019-09-08T09:43:55Z</time>
      </trkpt>
      <trkpt lat="42.5876466930" lon="0.9972975310">
        <ele>2127.05</ele>
        <time>2019-09-08T09:44:04Z</time>
      </trkpt>
      <trkpt lat="42.5876207091" lon="0.9973639995">
        <ele>2125.13</ele>
        <time>2019-09-08T09:44:08Z</time>
      </trkpt>
      <trkpt lat="42.5875634607" lon="0.9975598846">
        <ele>2122.73</ele>
        <time>2019-09-08T09:44:19Z</time>
      </trkpt>
      <trkpt lat="42.5875551626" lon="0.9975765646">
        <ele>2122.25</ele>
        <time>2019-09-08T09:44:20Z</time>
      </trkpt>
      <trkpt lat="42.5875293463" lon="0.9976631496">
        <ele>2121.77</ele>
        <time>2019-09-08T09:44:25Z</time>
      </trkpt>
      <trkpt lat="42.5875246525" lon="0.9976798296">
        <ele>2121.29</ele>
        <time>2019-09-08T09:44:26Z</time>
      </trkpt>
      <trkpt lat="42.5875060447" lon="0.9977757186">
        <ele>2120.32</ele>
        <time>2019-09-08T09:44:32Z</time>
      </trkpt>
      <trkpt lat="42.5875241496" lon="0.9978954121">
        <ele>2119.36</ele>
        <time>2019-09-08T09:44:43Z</time>
      </trkpt>
      <trkpt lat="42.5875191204" lon="0.9979229886">
        <ele>2118.88</ele>
        <time>2019-09-08T09:44:59Z</time>
      </trkpt>
      <trkpt lat="42.5875270832" lon="0.9979548398">
        <ele>2118.88</ele>
        <time>2019-09-08T09:45:17Z</time>
      </trkpt>
      <trkpt lat="42.5875716750" lon="0.9980711807">
        <ele>2117.92</ele>
        <time>2019-09-08T09:45:30Z</time>
      </trkpt>
      <trkpt lat="42.5875948090" lon="0.9981212206">
        <ele>2117.44</ele>
        <time>2019-09-08T09:45:35Z</time>
      </trkpt>
      <trkpt lat="42.5876213796" lon="0.9981497191">
        <ele>2117.44</ele>
        <time>2019-09-08T09:45:38Z</time>
      </trkpt>
      <trkpt lat="42.5876277499" lon="0.9981618728">
        <ele>2117.44</ele>
        <time>2019-09-08T09:45:39Z</time>
      </trkpt>
      <trkpt lat="42.5876606070" lon="0.9982163552">
        <ele>2116.96</ele>
        <time>2019-09-08T09:45:43Z</time>
      </trkpt>
      <trkpt lat="42.5876655523" lon="0.9982293472">
        <ele>2116.96</ele>
        <time>2019-09-08T09:45:44Z</time>
      </trkpt>
      <trkpt lat="42.5877435040" lon="0.9983578417">
        <ele>2116.48</ele>
        <time>2019-09-08T09:45:53Z</time>
      </trkpt>
      <trkpt lat="42.5877191965" lon="0.9984155092">
        <ele>2116.00</ele>
        <time>2019-09-08T09:45:59Z</time>
      </trkpt>
      <trkpt lat="42.5877233036" lon="0.9984330274">
        <ele>2115.04</ele>
        <time>2019-09-08T09:46:00Z</time>
      </trkpt>
      <trkpt lat="42.5877310988" lon="0.9984709974">
        <ele>2114.56</ele>
        <time>2019-09-08T09:46:02Z</time>
      </trkpt>
      <trkpt lat="42.5877333619" lon="0.9984897729">
        <ele>2114.56</ele>
        <time>2019-09-08T09:46:03Z</time>
      </trkpt>
      <trkpt lat="42.5877213757" lon="0.9985876735">
        <ele>2112.15</ele>
        <time>2019-09-08T09:46:12Z</time>
      </trkpt>
      <trkpt lat="42.5877046958" lon="0.9986581653">
        <ele>2110.23</ele>
        <time>2019-09-08T09:46:18Z</time>
      </trkpt>
      <trkpt lat="42.5877026841" lon="0.9986756835">
        <ele>2110.23</ele>
        <time>2019-09-08T09:46:19Z</time>
      </trkpt>
      <trkpt lat="42.5876936316" lon="0.9986885916">
        <ele>2109.75</ele>
        <time>2019-09-08T09:46:20Z</time>
      </trkpt>
      <trkpt lat="42.5876580924" lon="0.9987971373">
        <ele>2106.87</ele>
        <time>2019-09-08T09:46:29Z</time>
      </trkpt>
      <trkpt lat="42.5876113214" lon="0.9988662880">
        <ele>2104.46</ele>
        <time>2019-09-08T09:46:40Z</time>
      </trkpt>
      <trkpt lat="42.5875770394" lon="0.9989832155">
        <ele>2102.54</ele>
        <time>2019-09-08T09:46:50Z</time>
      </trkpt>
      <trkpt lat="42.5875354651" lon="0.9991234448">
        <ele>2100.14</ele>
        <time>2019-09-08T09:47:01Z</time>
      </trkpt>
      <trkpt lat="42.5875038654" lon="0.9992232732">
        <ele>2098.70</ele>
        <time>2019-09-08T09:47:11Z</time>
      </trkpt>
      <trkpt lat="42.5875007641" lon="0.9992568009">
        <ele>2098.21</ele>
        <time>2019-09-08T09:47:13Z</time>
      </trkpt>
      <trkpt lat="42.5875028595" lon="0.9992758278">
        <ele>2098.21</ele>
        <time>2019-09-08T09:47:14Z</time>
      </trkpt>
      <trkpt lat="42.5875003450" lon="0.9993372671">
        <ele>2096.77</ele>
        <time>2019-09-08T09:47:18Z</time>
      </trkpt>
      <trkpt lat="42.5874943100" lon="0.9993655980">
        <ele>2096.77</ele>
        <time>2019-09-08T09:47:20Z</time>
      </trkpt>
      <trkpt lat="42.5874803122" lon="0.9995090961">
        <ele>2094.37</ele>
        <time>2019-09-08T09:47:29Z</time>
      </trkpt>
      <trkpt lat="42.5875032786" lon="0.9996591322">
        <ele>2092.45</ele>
        <time>2019-09-08T09:47:39Z</time>
      </trkpt>
      <trkpt lat="42.5875118282" lon="0.9996950068">
        <ele>2091.97</ele>
        <time>2019-09-08T09:47:41Z</time>
      </trkpt>
      <trkpt lat="42.5875104032" lon="0.9997104295">
        <ele>2091.97</ele>
        <time>2019-09-08T09:47:42Z</time>
      </trkpt>
      <trkpt lat="42.5875411648" lon="0.9998472221">
        <ele>2089.08</ele>
        <time>2019-09-08T09:47:53Z</time>
      </trkpt>
      <trkpt lat="42.5875662267" lon="0.9999675862">
        <ele>2086.20</ele>
        <time>2019-09-08T09:48:04Z</time>
      </trkpt>
      <trkpt lat="42.5874924660" lon="1.0000357311">
        <ele>2083.31</ele>
        <time>2019-09-08T09:48:14Z</time>
      </trkpt>
      <trkpt lat="42.5874221418" lon="1.0001063906">
        <ele>2080.43</ele>
        <time>2019-09-08T09:48:26Z</time>
      </trkpt>
      <trkpt lat="42.5874211360" lon="1.0001893714">
        <ele>2078.03</ele>
        <time>2019-09-08T09:48:38Z</time>
      </trkpt>
      <trkpt lat="42.5874571782" lon="1.0002451949">
        <ele>2075.62</ele>
        <time>2019-09-08T09:48:49Z</time>
      </trkpt>
      <trkpt lat="42.5874286797" lon="1.0002957378">
        <ele>2073.22</ele>
        <time>2019-09-08T09:48:58Z</time>
      </trkpt>
      <trkpt lat="42.5874118321" lon="1.0003350489">
        <ele>2071.78</ele>
        <time>2019-09-08T09:49:04Z</time>
      </trkpt>
      <trkpt lat="42.5874151848" lon="1.0003639665">
        <ele>2071.78</ele>
        <time>2019-09-08T09:49:06Z</time>
      </trkpt>
      <trkpt lat="42.5873688329" lon="1.0004107375">
        <ele>2069.38</ele>
        <time>2019-09-08T09:49:15Z</time>
      </trkpt>
      <trkpt lat="42.5873550028" lon="1.0004497971">
        <ele>2068.89</ele>
        <time>2019-09-08T09:49:19Z</time>
      </trkpt>
      <trkpt lat="42.5873741973" lon="1.0004594363">
        <ele>2068.41</ele>
        <time>2019-09-08T09:49:26Z</time>
      </trkpt>
      <trkpt lat="42.5873737782" lon="1.0004767030">
        <ele>2068.41</ele>
        <time>2019-09-08T09:49:33Z</time>
      </trkpt>
      <trkpt lat="42.5873744488" lon="1.0005252343">
        <ele>2067.93</ele>
        <time>2019-09-08T09:49:39Z</time>
      </trkpt>
      <trkpt lat="42.5873654801" lon="1.0005245637">
        <ele>2067.45</ele>
        <time>2019-09-08T09:49:41Z</time>
      </trkpt>
      <trkpt lat="42.5873011909" lon="1.0004889406">
        <ele>2066.97</ele>
        <time>2019-09-08T09:49:46Z</time>
      </trkpt>
      <trkpt lat="42.5872126780" lon="1.0004206281">
        <ele>2067.45</ele>
        <time>2019-09-08T09:49:52Z</time>
      </trkpt>
      <trkpt lat="42.5871886220" lon="1.0004012659">
        <ele>2067.45</ele>
        <time>2019-09-08T09:49:59Z</time>
      </trkpt>
      <trkpt lat="42.5870991033" lon="1.0003694147">
        <ele>2067.45</ele>
        <time>2019-09-08T09:50:08Z</time>
      </trkpt>
      <trkpt lat="42.5870238338" lon="1.0003655590">
        <ele>2066.97</ele>
        <time>2019-09-08T09:50:14Z</time>
      </trkpt>
      <trkpt lat="42.5869490672" lon="1.0003269184">
        <ele>2065.53</ele>
        <time>2019-09-08T09:50:19Z</time>
      </trkpt>
      <trkpt lat="42.5868791621" lon="1.0002395790">
        <ele>2064.57</ele>
        <time>2019-09-08T09:50:27Z</time>
      </trkpt>
      <trkpt lat="42.5868078321" lon="1.0001606215">
        <ele>2063.13</ele>
        <time>2019-09-08T09:50:37Z</time>
      </trkpt>
      <trkpt lat="42.5867927447" lon="1.0001167003">
        <ele>2062.17</ele>
        <time>2019-09-08T09:50:40Z</time>
      </trkpt>
      <trkpt lat="42.5867413636" lon="1.0000545066">
        <ele>2060.72</ele>
        <time>2019-09-08T09:50:45Z</time>
      </trkpt>
      <trkpt lat="42.5866843667" lon="0.9999729507">
        <ele>2058.80</ele>
        <time>2019-09-08T09:50:53Z</time>
      </trkpt>
      <trkpt lat="42.5866668485" lon="0.9999730345">
        <ele>2058.32</ele>
        <time>2019-09-08T09:50:55Z</time>
      </trkpt>
      <trkpt lat="42.5866165571" lon="0.9999097511">
        <ele>2055.92</ele>
        <time>2019-09-08T09:51:03Z</time>
      </trkpt>
      <trkpt lat="42.5865631644" lon="0.9998168796">
        <ele>2053.03</ele>
        <time>2019-09-08T09:51:13Z</time>
      </trkpt>
      <trkpt lat="42.5865197461" lon="0.9996947553">
        <ele>2049.67</ele>
        <time>2019-09-08T09:51:23Z</time>
      </trkpt>
      <trkpt lat="42.5864826981" lon="0.9995422047">
        <ele>2046.78</ele>
        <time>2019-09-08T09:51:33Z</time>
      </trkpt>
      <trkpt lat="42.5864477456" lon="0.9994364250">
        <ele>2043.90</ele>
        <time>2019-09-08T09:51:40Z</time>
      </trkpt>
      <trkpt lat="42.5864671916" lon="0.9993109480">
        <ele>2041.50</ele>
        <time>2019-09-08T09:51:47Z</time>
      </trkpt>
      <trkpt lat="42.5864761602" lon="0.9991247021">
        <ele>2039.57</ele>
        <time>2019-09-08T09:51:57Z</time>
      </trkpt>
      <trkpt lat="42.5864820275" lon="0.9989959560">
        <ele>2038.13</ele>
        <time>2019-09-08T09:52:10Z</time>
      </trkpt>
      <trkpt lat="42.5864821114" lon="0.9989642724">
        <ele>2036.69</ele>
        <time>2019-09-08T09:52:24Z</time>
      </trkpt>
      <trkpt lat="42.5864772499" lon="0.9989206027">
        <ele>2037.17</ele>
        <time>2019-09-08T09:52:42Z</time>
      </trkpt>
      <trkpt lat="42.5864228513" lon="0.9989491850">
        <ele>2036.69</ele>
        <time>2019-09-08T09:52:52Z</time>
      </trkpt>
      <trkpt lat="42.5864272937" lon="0.9989536274">
        <ele>2034.77</ele>
        <time>2019-09-08T09:53:10Z</time>
      </trkpt>
      <trkpt lat="42.5864582229" lon="0.9989252128">
        <ele>2034.77</ele>
        <time>2019-09-08T09:53:28Z</time>
      </trkpt>
      <trkpt lat="42.5864247791" lon="0.9988796152">
        <ele>2036.21</ele>
        <time>2019-09-08T09:53:40Z</time>
      </trkpt>
      <trkpt lat="42.5864334125" lon="0.9988396335">
        <ele>2036.69</ele>
        <time>2019-09-08T09:53:53Z</time>
      </trkpt>
      <trkpt lat="42.5864319038" lon="0.9988543019">
        <ele>2036.69</ele>
        <time>2019-09-08T09:54:09Z</time>
      </trkpt>
      <trkpt lat="42.5864314847" lon="0.9988373704">
        <ele>2037.17</ele>
        <time>2019-09-08T09:54:25Z</time>
      </trkpt>
      <trkpt lat="42.5864258688" lon="0.9988441598">
        <ele>2037.17</ele>
        <time>2019-09-08T09:54:41Z</time>
      </trkpt>
      <trkpt lat="42.5864389446" lon="0.9988430701">
        <ele>2036.69</ele>
        <time>2019-09-08T09:55:03Z</time>
      </trkpt>
      <trkpt lat="42.5864311494" lon="0.9988542181">
        <ele>2036.69</ele>
        <time>2019-09-08T09:55:06Z</time>
      </trkpt>
      <trkpt lat="42.5864293892" lon="0.9988505300">
        <ele>2033.33</ele>
        <time>2019-09-08T09:55:17Z</time>
      </trkpt>
      <trkpt lat="42.5864267908" lon="0.9988491051">
        <ele>2034.77</ele>
        <time>2019-09-08T09:55:18Z</time>
      </trkpt>
      <trkpt lat="42.5864143856" lon="0.9988425672">
        <ele>2036.69</ele>
        <time>2019-09-08T09:55:21Z</time>
      </trkpt>
      <trkpt lat="42.5864231028" lon="0.9988657851">
        <ele>2036.69</ele>
        <time>2019-09-08T09:55:35Z</time>
      </trkpt>
      <trkpt lat="42.5864568818" lon="0.9989139810">
        <ele>2036.69</ele>
        <time>2019-09-08T09:55:53Z</time>
      </trkpt>
      <trkpt lat="42.5864521880" lon="0.9989506938">
        <ele>2036.69</ele>
        <time>2019-09-08T09:56:03Z</time>
      </trkpt>
      <trkpt lat="42.5864493381" lon="0.9989832994">
        <ele>2036.69</ele>
        <time>2019-09-08T09:56:15Z</time>
      </trkpt>
      <trkpt lat="42.5864430517" lon="0.9989847243">
        <ele>2034.29</ele>
        <time>2019-09-08T09:56:20Z</time>
      </trkpt>
      <trkpt lat="42.5864387769" lon="0.9989843890">
        <ele>2034.77</ele>
        <time>2019-09-08T09:56:36Z</time>
      </trkpt>
      <trkpt lat="42.5863698777" lon="0.9990790207">
        <ele>2034.29</ele>
        <time>2019-09-08T09:56:48Z</time>
      </trkpt>
      <trkpt lat="42.5863467436" lon="0.9991273005">
        <ele>2033.81</ele>
        <time>2019-09-08T09:56:51Z</time>
      </trkpt>
      <trkpt lat="42.5862552132" lon="0.9992028214">
        <ele>2030.92</ele>
        <time>2019-09-08T09:57:04Z</time>
      </trkpt>
      <trkpt lat="42.5862135552" lon="0.9992531966">
        <ele>2028.04</ele>
        <time>2019-09-08T09:57:10Z</time>
      </trkpt>
      <trkpt lat="42.5861511100" lon="0.9993510135">
        <ele>2025.64</ele>
        <time>2019-09-08T09:57:19Z</time>
      </trkpt>
      <trkpt lat="42.5861123856" lon="0.9994644206">
        <ele>2022.27</ele>
        <time>2019-09-08T09:57:28Z</time>
      </trkpt>
      <trkpt lat="42.5860561430" lon="0.9995772410">
        <ele>2019.39</ele>
        <time>2019-09-08T09:57:36Z</time>
      </trkpt>
      <trkpt lat="42.5860466715" lon="0.9995777439">
        <ele>2018.91</ele>
        <time>2019-09-08T09:57:37Z</time>
      </trkpt>
      <trkpt lat="42.5860426482" lon="0.9994530212">
        <ele>2016.02</ele>
        <time>2019-09-08T09:57:47Z</time>
      </trkpt>
      <trkpt lat="42.5859945361" lon="0.9993332438">
        <ele>2013.62</ele>
        <time>2019-09-08T09:57:56Z</time>
      </trkpt>
      <trkpt lat="42.5859364495" lon="0.9993023984">
        <ele>2011.70</ele>
        <time>2019-09-08T09:58:01Z</time>
      </trkpt>
      <trkpt lat="42.5858733337" lon="0.9992832877">
        <ele>2008.33</ele>
        <time>2019-09-08T09:58:09Z</time>
      </trkpt>
      <trkpt lat="42.5858794525" lon="0.9992070962">
        <ele>2005.45</ele>
        <time>2019-09-08T09:58:18Z</time>
      </trkpt>
      <trkpt lat="42.5858081225" lon="0.9991466627">
        <ele>2002.56</ele>
        <time>2019-09-08T09:58:30Z</time>
      </trkpt>
      <trkpt lat="42.5857824739" lon="0.9991460759">
        <ele>2002.08</ele>
        <time>2019-09-08T09:58:32Z</time>
      </trkpt>
      <trkpt lat="42.5857509580" lon="0.9991509374">
        <ele>2002.08</ele>
        <time>2019-09-08T09:58:34Z</time>
      </trkpt>
      <trkpt lat="42.5857211184" lon="0.9991546255">
        <ele>2001.60</ele>
        <time>2019-09-08T09:58:37Z</time>
      </trkpt>
      <trkpt lat="42.5856814720" lon="0.9992556274">
        <ele>1999.68</ele>
        <time>2019-09-08T09:58:44Z</time>
      </trkpt>
      <trkpt lat="42.5856343657" lon="0.9994108602">
        <ele>1998.24</ele>
        <time>2019-09-08T09:58:54Z</time>
      </trkpt>
      <trkpt lat="42.5856270734" lon="0.9994432144">
        <ele>1998.24</ele>
        <time>2019-09-08T09:58:56Z</time>
      </trkpt>
      <trkpt lat="42.5856247265" lon="0.9995898977">
        <ele>1998.24</ele>
        <time>2019-09-08T09:59:04Z</time>
      </trkpt>
      <trkpt lat="42.5856204517" lon="0.9997960087">
        <ele>1997.28</ele>
        <time>2019-09-08T09:59:14Z</time>
      </trkpt>
      <trkpt lat="42.5856068730" lon="0.9999620542">
        <ele>1996.80</ele>
        <time>2019-09-08T09:59:22Z</time>
      </trkpt>
      <trkpt lat="42.5855595991" lon="1.0001576878">
        <ele>1995.35</ele>
        <time>2019-09-08T09:59:32Z</time>
      </trkpt>
      <trkpt lat="42.5855424162" lon="1.0002199654">
        <ele>1994.87</ele>
        <time>2019-09-08T09:59:35Z</time>
      </trkpt>
      <trkpt lat="42.5855326094" lon="1.0002678260">
        <ele>1994.39</ele>
        <time>2019-09-08T09:59:37Z</time>
      </trkpt>
      <trkpt lat="42.5855115708" lon="1.0003666487">
        <ele>1994.39</ele>
        <time>2019-09-08T09:59:43Z</time>
      </trkpt>
      <trkpt lat="42.5854428392" lon="1.0006080475">
        <ele>1993.43</ele>
        <time>2019-09-08T09:59:54Z</time>
      </trkpt>
      <trkpt lat="42.5854365528" lon="1.0006553214">
        <ele>1993.43</ele>
        <time>2019-09-08T09:59:56Z</time>
      </trkpt>
      <trkpt lat="42.5854111556" lon="1.0007930361">
        <ele>1993.43</ele>
        <time>2019-09-08T10:00:02Z</time>
      </trkpt>
      <trkpt lat="42.5853766222" lon="1.0010151565">
        <ele>1991.99</ele>
        <time>2019-09-08T10:00:15Z</time>
      </trkpt>
      <trkpt lat="42.5853432622" lon="1.0012299847">
        <ele>1988.62</ele>
        <time>2019-09-08T10:00:29Z</time>
      </trkpt>
      <trkpt lat="42.5852873549" lon="1.0013392009">
        <ele>1985.26</ele>
        <time>2019-09-08T10:00:38Z</time>
      </trkpt>
      <trkpt lat="42.5852360576" lon="1.0014801007">
        <ele>1982.38</ele>
        <time>2019-09-08T10:00:48Z</time>
      </trkpt>
      <trkpt lat="42.5851627160" lon="1.0015904903">
        <ele>1979.01</ele>
        <time>2019-09-08T10:00:57Z</time>
      </trkpt>
      <trkpt lat="42.5850682519" lon="1.0017185658">
        <ele>1975.65</ele>
        <time>2019-09-08T10:01:07Z</time>
      </trkpt>
      <trkpt lat="42.5849908870" lon="1.0018418636">
        <ele>1973.24</ele>
        <time>2019-09-08T10:01:16Z</time>
      </trkpt>
      <trkpt lat="42.5849704351" lon="1.0018627346">
        <ele>1972.76</ele>
        <time>2019-09-08T10:01:18Z</time>
      </trkpt>
      <trkpt lat="42.5848799944" lon="1.0019472241">
        <ele>1971.80</ele>
        <time>2019-09-08T10:01:25Z</time>
      </trkpt>
      <trkpt lat="42.5847602170" lon="1.0020576976">
        <ele>1969.40</ele>
        <time>2019-09-08T10:01:36Z</time>
      </trkpt>
      <trkpt lat="42.5846249331" lon="1.0021687578">
        <ele>1966.99</ele>
        <time>2019-09-08T10:01:49Z</time>
      </trkpt>
      <trkpt lat="42.5845667627" lon="1.0021610465">
        <ele>1964.59</ele>
        <time>2019-09-08T10:01:56Z</time>
      </trkpt>
      <trkpt lat="42.5845108554" lon="1.0021578614">
        <ele>1963.63</ele>
        <time>2019-09-08T10:02:04Z</time>
      </trkpt>
      <trkpt lat="42.5844561215" lon="1.0021695960">
        <ele>1963.15</ele>
        <time>2019-09-08T10:02:07Z</time>
      </trkpt>
      <trkpt lat="42.5844132900" lon="1.0021610465">
        <ele>1962.19</ele>
        <time>2019-09-08T10:02:10Z</time>
      </trkpt>
      <trkpt lat="42.5843475759" lon="1.0021572746">
        <ele>1961.23</ele>
        <time>2019-09-08T10:02:14Z</time>
      </trkpt>
      <trkpt lat="42.5842305645" lon="1.0022553429">
        <ele>1958.82</ele>
        <time>2019-09-08T10:02:24Z</time>
      </trkpt>
      <trkpt lat="42.5841366034" lon="1.0023470409">
        <ele>1958.82</ele>
        <time>2019-09-08T10:02:33Z</time>
      </trkpt>
      <trkpt lat="42.5840989687" lon="1.0023799818">
        <ele>1958.82</ele>
        <time>2019-09-08T10:02:36Z</time>
      </trkpt>
      <trkpt lat="42.5840501022" lon="1.0024423432">
        <ele>1957.86</ele>
        <time>2019-09-08T10:02:43Z</time>
      </trkpt>
      <trkpt lat="42.5839034189" lon="1.0025798902">
        <ele>1955.94</ele>
        <time>2019-09-08T10:02:55Z</time>
      </trkpt>
      <trkpt lat="42.5838475116" lon="1.0026656371">
        <ele>1955.46</ele>
        <time>2019-09-08T10:03:01Z</time>
      </trkpt>
      <trkpt lat="42.5837620161" lon="1.0028175171">
        <ele>1954.98</ele>
        <time>2019-09-08T10:03:11Z</time>
      </trkpt>
      <trkpt lat="42.5836867467" lon="1.0028484464">
        <ele>1954.98</ele>
        <time>2019-09-08T10:03:16Z</time>
      </trkpt>
      <trkpt lat="42.5835518818" lon="1.0029164236">
        <ele>1953.54</ele>
        <time>2019-09-08T10:03:25Z</time>
      </trkpt>
      <trkpt lat="42.5835325196" lon="1.0029222909">
        <ele>1953.54</ele>
        <time>2019-09-08T10:03:26Z</time>
      </trkpt>
      <trkpt lat="42.5833743531" lon="1.0029083770">
        <ele>1953.06</ele>
        <time>2019-09-08T10:03:36Z</time>
      </trkpt>
      <trkpt lat="42.5832326151" lon="1.0028908588">
        <ele>1952.57</ele>
        <time>2019-09-08T10:03:47Z</time>
      </trkpt>
      <trkpt lat="42.5831946451" lon="1.0029256437">
        <ele>1952.57</ele>
        <time>2019-09-08T10:03:51Z</time>
      </trkpt>
      <trkpt lat="42.5831249077" lon="1.0029860772">
        <ele>1953.54</ele>
        <time>2019-09-08T10:04:01Z</time>
      </trkpt>
      <trkpt lat="42.5831201300" lon="1.0030027572">
        <ele>1953.54</ele>
        <time>2019-09-08T10:04:02Z</time>
      </trkpt>
      <trkpt lat="42.5831156876" lon="1.0030214489">
        <ele>1953.54</ele>
        <time>2019-09-08T10:04:03Z</time>
      </trkpt>
      <trkpt lat="42.5831103232" lon="1.0030383803">
        <ele>1953.54</ele>
        <time>2019-09-08T10:04:04Z</time>
      </trkpt>
      <trkpt lat="42.5831056293" lon="1.0030554794">
        <ele>1953.54</ele>
        <time>2019-09-08T10:04:05Z</time>
      </trkpt>
      <trkpt lat="42.5831019413" lon="1.0030719917">
        <ele>1953.54</ele>
        <time>2019-09-08T10:04:06Z</time>
      </trkpt>
      <trkpt lat="42.5831285957" lon="1.0032107960">
        <ele>1953.54</ele>
        <time>2019-09-08T10:04:14Z</time>
      </trkpt>
      <trkpt lat="42.5831329543" lon="1.0032410547">
        <ele>1954.02</ele>
        <time>2019-09-08T10:04:16Z</time>
      </trkpt>
      <trkpt lat="42.5831059646" lon="1.0033963714">
        <ele>1954.98</ele>
        <time>2019-09-08T10:04:27Z</time>
      </trkpt>
      <trkpt lat="42.5831079762" lon="1.0034198407">
        <ele>1954.98</ele>
        <time>2019-09-08T10:04:28Z</time>
      </trkpt>
      <trkpt lat="42.5831052940" lon="1.0034405440">
        <ele>1955.46</ele>
        <time>2019-09-08T10:04:29Z</time>
      </trkpt>
      <trkpt lat="42.5831021089" lon="1.0034571402">
        <ele>1955.46</ele>
        <time>2019-09-08T10:04:30Z</time>
      </trkpt>
      <trkpt lat="42.5830976665" lon="1.0034749936">
        <ele>1955.46</ele>
        <time>2019-09-08T10:04:31Z</time>
      </trkpt>
      <trkpt lat="42.5830941461" lon="1.0034951102">
        <ele>1955.94</ele>
        <time>2019-09-08T10:04:32Z</time>
      </trkpt>
      <trkpt lat="42.5830928050" lon="1.0035160650">
        <ele>1955.94</ele>
        <time>2019-09-08T10:04:33Z</time>
      </trkpt>
      <trkpt lat="42.5830907933" lon="1.0035355110">
        <ele>1955.94</ele>
        <time>2019-09-08T10:04:34Z</time>
      </trkpt>
      <trkpt lat="42.5830864348" lon="1.0035877302">
        <ele>1955.94</ele>
        <time>2019-09-08T10:04:37Z</time>
      </trkpt>
      <trkpt lat="42.5830651447" lon="1.0036833677">
        <ele>1955.94</ele>
        <time>2019-09-08T10:04:42Z</time>
      </trkpt>
      <trkpt lat="42.5830568466" lon="1.0037010536">
        <ele>1955.46</ele>
        <time>2019-09-08T10:04:43Z</time>
      </trkpt>
      <trkpt lat="42.5830508117" lon="1.0037571285">
        <ele>1954.98</ele>
        <time>2019-09-08T10:04:46Z</time>
      </trkpt>
      <trkpt lat="42.5830488838" lon="1.0037755687">
        <ele>1954.98</ele>
        <time>2019-09-08T10:04:47Z</time>
      </trkpt>
      <trkpt lat="42.5830475427" lon="1.0038268659">
        <ele>1954.98</ele>
        <time>2019-09-08T10:04:50Z</time>
      </trkpt>
      <trkpt lat="42.5830405857" lon="1.0039920732">
        <ele>1954.98</ele>
        <time>2019-09-08T10:05:00Z</time>
      </trkpt>
      <trkpt lat="42.5830442738" lon="1.0041056480">
        <ele>1954.98</ele>
        <time>2019-09-08T10:05:06Z</time>
      </trkpt>
      <trkpt lat="42.5830518175" lon="1.0041239206">
        <ele>1954.98</ele>
        <time>2019-09-08T10:05:07Z</time>
      </trkpt>
      <trkpt lat="42.5830829144" lon="1.0043238290">
        <ele>1953.54</ele>
        <time>2019-09-08T10:05:18Z</time>
      </trkpt>
      <trkpt lat="42.5830913801" lon="1.0043823346">
        <ele>1953.54</ele>
        <time>2019-09-08T10:05:21Z</time>
      </trkpt>
      <trkpt lat="42.5831192080" lon="1.0045583546">
        <ele>1953.06</ele>
        <time>2019-09-08T10:05:30Z</time>
      </trkpt>
      <trkpt lat="42.5831077248" lon="1.0046902858">
        <ele>1952.57</ele>
        <time>2019-09-08T10:05:37Z</time>
      </trkpt>
      <trkpt lat="42.5831142627" lon="1.0048567504">
        <ele>1950.17</ele>
        <time>2019-09-08T10:05:47Z</time>
      </trkpt>
      <trkpt lat="42.5831119157" lon="1.0049356241">
        <ele>1949.69</ele>
        <time>2019-09-08T10:05:51Z</time>
      </trkpt>
      <trkpt lat="42.5831065513" lon="1.0049564112">
        <ele>1949.69</ele>
        <time>2019-09-08T10:05:52Z</time>
      </trkpt>
      <trkpt lat="42.5831160229" lon="1.0050900187">
        <ele>1948.73</ele>
        <time>2019-09-08T10:05:59Z</time>
      </trkpt>
      <trkpt lat="42.5831233989" lon="1.0051103029">
        <ele>1948.73</ele>
        <time>2019-09-08T10:06:00Z</time>
      </trkpt>
      <trkpt lat="42.5831357203" lon="1.0051298328">
        <ele>1948.73</ele>
        <time>2019-09-08T10:06:01Z</time>
      </trkpt>
      <trkpt lat="42.5831445213" lon="1.0051774420">
        <ele>1948.25</ele>
        <time>2019-09-08T10:06:04Z</time>
      </trkpt>
      <trkpt lat="42.5831621233" lon="1.0053170007">
        <ele>1946.33</ele>
        <time>2019-09-08T10:06:14Z</time>
      </trkpt>
      <trkpt lat="42.5831336249" lon="1.0053376202">
        <ele>1945.36</ele>
        <time>2019-09-08T10:06:17Z</time>
      </trkpt>
      <trkpt lat="42.5831047911" lon="1.0053947009">
        <ele>1943.92</ele>
        <time>2019-09-08T10:06:20Z</time>
      </trkpt>
      <trkpt lat="42.5830897037" lon="1.0054646060">
        <ele>1942.48</ele>
        <time>2019-09-08T10:06:24Z</time>
      </trkpt>
      <trkpt lat="42.5830748677" lon="1.0055041686">
        <ele>1942.00</ele>
        <time>2019-09-08T10:06:26Z</time>
      </trkpt>
      <trkpt lat="42.5830688328" lon="1.0055241175">
        <ele>1941.52</ele>
        <time>2019-09-08T10:06:27Z</time>
      </trkpt>
      <trkpt lat="42.5830784719" lon="1.0056710523">
        <ele>1940.08</ele>
        <time>2019-09-08T10:06:36Z</time>
      </trkpt>
      <trkpt lat="42.5830810703" lon="1.0056979582">
        <ele>1940.08</ele>
        <time>2019-09-08T10:06:37Z</time>
      </trkpt>
      <trkpt lat="42.5830846746" lon="1.0057203379">
        <ele>1940.08</ele>
        <time>2019-09-08T10:06:38Z</time>
      </trkpt>
      <trkpt lat="42.5830850098" lon="1.0057433043">
        <ele>1940.08</ele>
        <time>2019-09-08T10:06:39Z</time>
      </trkpt>
      <trkpt lat="42.5830832496" lon="1.0057622474">
        <ele>1940.08</ele>
        <time>2019-09-08T10:06:40Z</time>
      </trkpt>
      <trkpt lat="42.5830806512" lon="1.0057797655">
        <ele>1940.08</ele>
        <time>2019-09-08T10:06:41Z</time>
      </trkpt>
      <trkpt lat="42.5830591097" lon="1.0059772432">
        <ele>1937.67</ele>
        <time>2019-09-08T10:06:52Z</time>
      </trkpt>
      <trkpt lat="42.5830607023" lon="1.0059994552">
        <ele>1937.67</ele>
        <time>2019-09-08T10:06:53Z</time>
      </trkpt>
      <trkpt lat="42.5831126701" lon="1.0061991960">
        <ele>1936.71</ele>
        <time>2019-09-08T10:07:02Z</time>
      </trkpt>
      <trkpt lat="42.5831172802" lon="1.0062910616">
        <ele>1935.27</ele>
        <time>2019-09-08T10:07:07Z</time>
      </trkpt>
      <trkpt lat="42.5831109937" lon="1.0063074902">
        <ele>1934.79</ele>
        <time>2019-09-08T10:07:08Z</time>
      </trkpt>
      <trkpt lat="42.5831068028" lon="1.0063250083">
        <ele>1934.79</ele>
        <time>2019-09-08T10:07:09Z</time>
      </trkpt>
      <trkpt lat="42.5830815732" lon="1.0064999387">
        <ele>1931.91</ele>
        <time>2019-09-08T10:07:20Z</time>
      </trkpt>
      <trkpt lat="42.5830718502" lon="1.0065576900">
        <ele>1931.43</ele>
        <time>2019-09-08T10:07:23Z</time>
      </trkpt>
      <trkpt lat="42.5830746163" lon="1.0065782256">
        <ele>1931.43</ele>
        <time>2019-09-08T10:07:24Z</time>
      </trkpt>
      <trkpt lat="42.5830788910" lon="1.0066391621">
        <ele>1930.95</ele>
        <time>2019-09-08T10:07:27Z</time>
      </trkpt>
      <trkpt lat="42.5830753706" lon="1.0066606198">
        <ele>1930.95</ele>
        <time>2019-09-08T10:07:28Z</time>
      </trkpt>
      <trkpt lat="42.5830718502" lon="1.0066819936">
        <ele>1930.95</ele>
        <time>2019-09-08T10:07:29Z</time>
      </trkpt>
      <trkpt lat="42.5830701739" lon="1.0067025293">
        <ele>1930.95</ele>
        <time>2019-09-08T10:07:30Z</time>
      </trkpt>
      <trkpt lat="42.5830681622" lon="1.0067220591">
        <ele>1930.46</ele>
        <time>2019-09-08T10:07:31Z</time>
      </trkpt>
      <trkpt lat="42.5830685813" lon="1.0067418404">
        <ele>1930.46</ele>
        <time>2019-09-08T10:07:32Z</time>
      </trkpt>
      <trkpt lat="42.5830684137" lon="1.0067602806">
        <ele>1930.46</ele>
        <time>2019-09-08T10:07:33Z</time>
      </trkpt>
      <trkpt lat="42.5830431003" lon="1.0069813952">
        <ele>1928.06</ele>
        <time>2019-09-08T10:07:41Z</time>
      </trkpt>
      <trkpt lat="42.5830452796" lon="1.0071082134">
        <ele>1926.62</ele>
        <time>2019-09-08T10:07:48Z</time>
      </trkpt>
      <trkpt lat="42.5830141827" lon="1.0072626080">
        <ele>1926.14</ele>
        <time>2019-09-08T10:07:59Z</time>
      </trkpt>
      <trkpt lat="42.5830103271" lon="1.0073875822">
        <ele>1926.14</ele>
        <time>2019-09-08T10:08:12Z</time>
      </trkpt>
      <trkpt lat="42.5830032025" lon="1.0074170865">
        <ele>1925.18</ele>
        <time>2019-09-08T10:08:33Z</time>
      </trkpt>
      <trkpt lat="42.5829632208" lon="1.0075254645">
        <ele>1924.70</ele>
        <time>2019-09-08T10:08:45Z</time>
      </trkpt>
      <trkpt lat="42.5829364825" lon="1.0076729860">
        <ele>1923.74</ele>
        <time>2019-09-08T10:08:54Z</time>
      </trkpt>
      <trkpt lat="42.5829178747" lon="1.0077397060">
        <ele>1923.74</ele>
        <time>2019-09-08T10:08:58Z</time>
      </trkpt>
      <trkpt lat="42.5829123426" lon="1.0077925958">
        <ele>1924.22</ele>
        <time>2019-09-08T10:09:01Z</time>
      </trkpt>
      <trkpt lat="42.5829125941" lon="1.0078128800">
        <ele>1924.22</ele>
        <time>2019-09-08T10:09:02Z</time>
      </trkpt>
      <trkpt lat="42.5828880351" lon="1.0079068411">
        <ele>1923.74</ele>
        <time>2019-09-08T10:09:07Z</time>
      </trkpt>
      <trkpt lat="42.5828800723" lon="1.0079386923">
        <ele>1923.74</ele>
        <time>2019-09-08T10:09:09Z</time>
      </trkpt>
      <trkpt lat="42.5828734506" lon="1.0079576354">
        <ele>1923.25</ele>
        <time>2019-09-08T10:09:10Z</time>
      </trkpt>
      <trkpt lat="42.5828679185" lon="1.0079746507">
        <ele>1923.25</ele>
        <time>2019-09-08T10:09:11Z</time>
      </trkpt>
      <trkpt lat="42.5828376599" lon="1.0081603099">
        <ele>1923.25</ele>
        <time>2019-09-08T10:09:21Z</time>
      </trkpt>
      <trkpt lat="42.5828039646" lon="1.0083396826">
        <ele>1924.22</ele>
        <time>2019-09-08T10:09:32Z</time>
      </trkpt>
      <trkpt lat="42.5828005280" lon="1.0083579551">
        <ele>1924.22</ele>
        <time>2019-09-08T10:09:33Z</time>
      </trkpt>
      <trkpt lat="42.5827991031" lon="1.0083762277">
        <ele>1924.22</ele>
        <time>2019-09-08T10:09:34Z</time>
      </trkpt>
      <trkpt lat="42.5827944931" lon="1.0083915666">
        <ele>1924.22</ele>
        <time>2019-09-08T10:09:35Z</time>
      </trkpt>
      <trkpt lat="42.5827866141" lon="1.0084069893">
        <ele>1924.22</ele>
        <time>2019-09-08T10:09:36Z</time>
      </trkpt>
      <trkpt lat="42.5827625580" lon="1.0084540956">
        <ele>1924.22</ele>
        <time>2019-09-08T10:09:39Z</time>
      </trkpt>
      <trkpt lat="42.5827573612" lon="1.0084762238">
        <ele>1924.22</ele>
        <time>2019-09-08T10:09:40Z</time>
      </trkpt>
      <trkpt lat="42.5827530865" lon="1.0084937420">
        <ele>1924.22</ele>
        <time>2019-09-08T10:09:41Z</time>
      </trkpt>
      <trkpt lat="42.5827423576" lon="1.0085085779">
        <ele>1924.22</ele>
        <time>2019-09-08T10:09:42Z</time>
      </trkpt>
      <trkpt lat="42.5827288628" lon="1.0085239168">
        <ele>1924.22</ele>
        <time>2019-09-08T10:09:43Z</time>
      </trkpt>
      <trkpt lat="42.5827178825" lon="1.0085461289">
        <ele>1924.22</ele>
        <time>2019-09-08T10:09:44Z</time>
      </trkpt>
      <trkpt lat="42.5827061478" lon="1.0085701849">
        <ele>1924.22</ele>
        <time>2019-09-08T10:09:45Z</time>
      </trkpt>
      <trkpt lat="42.5826853607" lon="1.0085912235">
        <ele>1923.74</ele>
        <time>2019-09-08T10:09:46Z</time>
      </trkpt>
      <trkpt lat="42.5826164614" lon="1.0087287705">
        <ele>1921.81</ele>
        <time>2019-09-08T10:09:52Z</time>
      </trkpt>
      <trkpt lat="42.5825789943" lon="1.0088030342">
        <ele>1921.33</ele>
        <time>2019-09-08T10:09:56Z</time>
      </trkpt>
      <trkpt lat="42.5825660024" lon="1.0088229831">
        <ele>1921.33</ele>
        <time>2019-09-08T10:09:57Z</time>
      </trkpt>
      <trkpt lat="42.5824363343" lon="1.0089417547">
        <ele>1920.85</ele>
        <time>2019-09-08T10:10:08Z</time>
      </trkpt>
      <trkpt lat="42.5823688600" lon="1.0090668127">
        <ele>1921.81</ele>
        <time>2019-09-08T10:10:17Z</time>
      </trkpt>
      <trkpt lat="42.5823346619" lon="1.0091029387">
        <ele>1922.77</ele>
        <time>2019-09-08T10:10:20Z</time>
      </trkpt>
      <trkpt lat="42.5823248550" lon="1.0091160983">
        <ele>1923.25</ele>
        <time>2019-09-08T10:10:21Z</time>
      </trkpt>
      <trkpt lat="42.5822906569" lon="1.0091660544">
        <ele>1923.74</ele>
        <time>2019-09-08T10:10:25Z</time>
      </trkpt>
      <trkpt lat="42.5822080113" lon="1.0092273261">
        <ele>1924.22</ele>
        <time>2019-09-08T10:10:32Z</time>
      </trkpt>
      <trkpt lat="42.5821986236" lon="1.0092410725">
        <ele>1924.22</ele>
        <time>2019-09-08T10:10:33Z</time>
      </trkpt>
      <trkpt lat="42.5821378548" lon="1.0093749315">
        <ele>1925.18</ele>
        <time>2019-09-08T10:10:43Z</time>
      </trkpt>
      <trkpt lat="42.5821242761" lon="1.0093883425">
        <ele>1925.18</ele>
        <time>2019-09-08T10:10:44Z</time>
      </trkpt>
      <trkpt lat="42.5821129605" lon="1.0094030108">
        <ele>1925.18</ele>
        <time>2019-09-08T10:10:45Z</time>
      </trkpt>
      <trkpt lat="42.5821017288" lon="1.0094203614">
        <ele>1925.18</ele>
        <time>2019-09-08T10:10:46Z</time>
      </trkpt>
      <trkpt lat="42.5820901617" lon="1.0094374605">
        <ele>1925.18</ele>
        <time>2019-09-08T10:10:47Z</time>
      </trkpt>
      <trkpt lat="42.5820469111" lon="1.0096370336">
        <ele>1924.70</ele>
        <time>2019-09-08T10:10:57Z</time>
      </trkpt>
      <trkpt lat="42.5820531975" lon="1.0097353533">
        <ele>1924.70</ele>
        <time>2019-09-08T10:11:05Z</time>
      </trkpt>
      <trkpt lat="42.5820423849" lon="1.0097651929">
        <ele>1924.70</ele>
        <time>2019-09-08T10:11:07Z</time>
      </trkpt>
      <trkpt lat="42.5819381140" lon="1.0099354293">
        <ele>1924.70</ele>
        <time>2019-09-08T10:11:20Z</time>
      </trkpt>
      <trkpt lat="42.5818295684" lon="1.0100974515">
        <ele>1923.74</ele>
        <time>2019-09-08T10:11:34Z</time>
      </trkpt>
      <trkpt lat="42.5818262156" lon="1.0101063363">
        <ele>1923.74</ele>
        <time>2019-09-08T10:11:47Z</time>
      </trkpt>
      <trkpt lat="42.5818300713" lon="1.0101606511">
        <ele>1923.74</ele>
        <time>2019-09-08T10:12:01Z</time>
      </trkpt>
      <trkpt lat="42.5818159059" lon="1.0103090107">
        <ele>1923.74</ele>
        <time>2019-09-08T10:12:15Z</time>
      </trkpt>
      <trkpt lat="42.5818139780" lon="1.0103235114">
        <ele>1924.22</ele>
        <time>2019-09-08T10:12:16Z</time>
      </trkpt>
      <trkpt lat="42.5817596633" lon="1.0103997868">
        <ele>1923.25</ele>
        <time>2019-09-08T10:12:24Z</time>
      </trkpt>
      <trkpt lat="42.5816938654" lon="1.0104130302">
        <ele>1921.81</ele>
        <time>2019-09-08T10:12:29Z</time>
      </trkpt>
      <trkpt lat="42.5816283189" lon="1.0102726333">
        <ele>1918.93</ele>
        <time>2019-09-08T10:12:38Z</time>
      </trkpt>
      <trkpt lat="42.5815144088" lon="1.0101324879">
        <ele>1917.01</ele>
        <time>2019-09-08T10:12:51Z</time>
      </trkpt>
      <trkpt lat="42.5813740119" lon="1.0100287199">
        <ele>1916.04</ele>
        <time>2019-09-08T10:13:03Z</time>
      </trkpt>
      <trkpt lat="42.5812632870" lon="1.0099690408">
        <ele>1915.56</ele>
        <time>2019-09-08T10:13:13Z</time>
      </trkpt>
      <trkpt lat="42.5811434258" lon="1.0099687055">
        <ele>1915.56</ele>
        <time>2019-09-08T10:13:24Z</time>
      </trkpt>
      <trkpt lat="42.5810482074" lon="1.0099528637">
        <ele>1914.60</ele>
        <time>2019-09-08T10:13:33Z</time>
      </trkpt>
      <trkpt lat="42.5809701718" lon="1.0098870657">
        <ele>1913.16</ele>
        <time>2019-09-08T10:13:42Z</time>
      </trkpt>
      <trkpt lat="42.5809065532" lon="1.0098321643">
        <ele>1912.68</ele>
        <time>2019-09-08T10:13:47Z</time>
      </trkpt>
      <trkpt lat="42.5808802340" lon="1.0098354332">
        <ele>1912.68</ele>
        <time>2019-09-08T10:13:48Z</time>
      </trkpt>
      <trkpt lat="42.5808617100" lon="1.0098459106">
        <ele>1912.20</ele>
        <time>2019-09-08T10:13:49Z</time>
      </trkpt>
      <trkpt lat="42.5808550883" lon="1.0098642670">
        <ele>1912.20</ele>
        <time>2019-09-08T10:13:50Z</time>
      </trkpt>
      <trkpt lat="42.5808633026" lon="1.0098893289">
        <ele>1912.20</ele>
        <time>2019-09-08T10:13:51Z</time>
      </trkpt>
      <trkpt lat="42.5808729418" lon="1.0099107865">
        <ele>1912.20</ele>
        <time>2019-09-08T10:13:52Z</time>
      </trkpt>
      <trkpt lat="42.5808819104" lon="1.0099247005">
        <ele>1912.20</ele>
        <time>2019-09-08T10:13:53Z</time>
      </trkpt>
      <trkpt lat="42.5808941480" lon="1.0099329986">
        <ele>1911.72</ele>
        <time>2019-09-08T10:13:54Z</time>
      </trkpt>
      <trkpt lat="42.5809029490" lon="1.0099416319">
        <ele>1911.24</ele>
        <time>2019-09-08T10:13:55Z</time>
      </trkpt>
      <trkpt lat="42.5809109956" lon="1.0099521093">
        <ele>1911.24</ele>
        <time>2019-09-08T10:13:56Z</time>
      </trkpt>
      <trkpt lat="42.5809615385" lon="1.0100112855">
        <ele>1909.32</ele>
        <time>2019-09-08T10:14:02Z</time>
      </trkpt>
      <trkpt lat="42.5809701718" lon="1.0100238584">
        <ele>1908.83</ele>
        <time>2019-09-08T10:14:03Z</time>
      </trkpt>
      <trkpt lat="42.5809813198" lon="1.0100345034">
        <ele>1908.83</ele>
        <time>2019-09-08T10:14:04Z</time>
      </trkpt>
      <trkpt lat="42.5809879415" lon="1.0100490041">
        <ele>1908.83</ele>
        <time>2019-09-08T10:14:05Z</time>
      </trkpt>
      <trkpt lat="42.5809947308" lon="1.0100643430">
        <ele>1908.83</ele>
        <time>2019-09-08T10:14:06Z</time>
      </trkpt>
      <trkpt lat="42.5810544938" lon="1.0102419555">
        <ele>1907.39</ele>
        <time>2019-09-08T10:14:16Z</time>
      </trkpt>
      <trkpt lat="42.5810560863" lon="1.0102667660">
        <ele>1906.91</ele>
        <time>2019-09-08T10:14:17Z</time>
      </trkpt>
      <trkpt lat="42.5810597744" lon="1.0102914087">
        <ele>1906.91</ele>
        <time>2019-09-08T10:14:18Z</time>
      </trkpt>
      <trkpt lat="42.5810751133" lon="1.0104841925">
        <ele>1904.03</ele>
        <time>2019-09-08T10:14:27Z</time>
      </trkpt>
      <trkpt lat="42.5810675696" lon="1.0105002858">
        <ele>1903.55</ele>
        <time>2019-09-08T10:14:28Z</time>
      </trkpt>
      <trkpt lat="42.5810626242" lon="1.0105193127">
        <ele>1903.07</ele>
        <time>2019-09-08T10:14:29Z</time>
      </trkpt>
      <trkpt lat="42.5810566731" lon="1.0105412733">
        <ele>1903.07</ele>
        <time>2019-09-08T10:14:30Z</time>
      </trkpt>
      <trkpt lat="42.5810457766" lon="1.0105597135">
        <ele>1902.59</ele>
        <time>2019-09-08T10:14:31Z</time>
      </trkpt>
      <trkpt lat="42.5810341258" lon="1.0105788242">
        <ele>1902.59</ele>
        <time>2019-09-08T10:14:32Z</time>
      </trkpt>
      <trkpt lat="42.5810221396" lon="1.0105984379">
        <ele>1902.11</ele>
        <time>2019-09-08T10:14:33Z</time>
      </trkpt>
      <trkpt lat="42.5810140930" lon="1.0106158722">
        <ele>1901.63</ele>
        <time>2019-09-08T10:14:34Z</time>
      </trkpt>
      <trkpt lat="42.5810090639" lon="1.0106380004">
        <ele>1901.63</ele>
        <time>2019-09-08T10:14:35Z</time>
      </trkpt>
      <trkpt lat="42.5810069684" lon="1.0106626432">
        <ele>1901.14</ele>
        <time>2019-09-08T10:14:36Z</time>
      </trkpt>
      <trkpt lat="42.5809990056" lon="1.0106880404">
        <ele>1900.66</ele>
        <time>2019-09-08T10:14:37Z</time>
      </trkpt>
      <trkpt lat="42.5809959881" lon="1.0107211489">
        <ele>1900.18</ele>
        <time>2019-09-08T10:14:38Z</time>
      </trkpt>
      <trkpt lat="42.5809881091" lon="1.0107523296">
        <ele>1900.18</ele>
        <time>2019-09-08T10:14:39Z</time>
      </trkpt>
      <trkpt lat="42.5809822418" lon="1.0107830912">
        <ele>1899.70</ele>
        <time>2019-09-08T10:14:40Z</time>
      </trkpt>
      <trkpt lat="42.5809764583" lon="1.0108173732">
        <ele>1899.22</ele>
        <time>2019-09-08T10:14:41Z</time>
      </trkpt>
      <trkpt lat="42.5809331238" lon="1.0109821614">
        <ele>1896.82</ele>
        <time>2019-09-08T10:14:47Z</time>
      </trkpt>
      <trkpt lat="42.5809239037" lon="1.0110072233">
        <ele>1896.34</ele>
        <time>2019-09-08T10:14:48Z</time>
      </trkpt>
      <trkpt lat="42.5809055474" lon="1.0110721830">
        <ele>1894.90</ele>
        <time>2019-09-08T10:14:51Z</time>
      </trkpt>
      <trkpt lat="42.5808756240" lon="1.0112135857">
        <ele>1892.49</ele>
        <time>2019-09-08T10:14:58Z</time>
      </trkpt>
      <trkpt lat="42.5808752887" lon="1.0112352949">
        <ele>1892.49</ele>
        <time>2019-09-08T10:14:59Z</time>
      </trkpt>
      <trkpt lat="42.5808736123" lon="1.0112616140">
        <ele>1892.01</ele>
        <time>2019-09-08T10:15:00Z</time>
      </trkpt>
      <trkpt lat="42.5808465388" lon="1.0113646276">
        <ele>1890.57</ele>
        <time>2019-09-08T10:15:06Z</time>
      </trkpt>
      <trkpt lat="42.5808421802" lon="1.0113816429">
        <ele>1890.57</ele>
        <time>2019-09-08T10:15:07Z</time>
      </trkpt>
      <trkpt lat="42.5808391627" lon="1.0114010889">
        <ele>1890.57</ele>
        <time>2019-09-08T10:15:08Z</time>
      </trkpt>
      <trkpt lat="42.5808360614" lon="1.0114216246">
        <ele>1890.09</ele>
        <time>2019-09-08T10:15:09Z</time>
      </trkpt>
      <trkpt lat="42.5808315352" lon="1.0114425793">
        <ele>1890.09</ele>
        <time>2019-09-08T10:15:10Z</time>
      </trkpt>
      <trkpt lat="42.5808161963" lon="1.0114994925">
        <ele>1888.17</ele>
        <time>2019-09-08T10:15:18Z</time>
      </trkpt>
      <trkpt lat="42.5808129273" lon="1.0115542263">
        <ele>1888.17</ele>
        <time>2019-09-08T10:15:21Z</time>
      </trkpt>
      <trkpt lat="42.5808398332" lon="1.0115656257">
        <ele>1888.17</ele>
        <time>2019-09-08T10:15:29Z</time>
      </trkpt>
      <trkpt lat="42.5808483828" lon="1.0116178449">
        <ele>1887.69</ele>
        <time>2019-09-08T10:15:33Z</time>
      </trkpt>
      <trkpt lat="42.5808353070" lon="1.0116946232">
        <ele>1887.21</ele>
        <time>2019-09-08T10:15:37Z</time>
      </trkpt>
      <trkpt lat="42.5808274280" lon="1.0117145721">
        <ele>1887.21</ele>
        <time>2019-09-08T10:15:38Z</time>
      </trkpt>
      <trkpt lat="42.5807918888" lon="1.0118234530">
        <ele>1885.28</ele>
        <time>2019-09-08T10:15:43Z</time>
      </trkpt>
      <trkpt lat="42.5807822496" lon="1.0118518677">
        <ele>1885.28</ele>
        <time>2019-09-08T10:15:44Z</time>
      </trkpt>
      <trkpt lat="42.5807667430" lon="1.0119387880">
        <ele>1883.84</ele>
        <time>2019-09-08T10:15:48Z</time>
      </trkpt>
      <trkpt lat="42.5807670783" lon="1.0119594075">
        <ele>1883.84</ele>
        <time>2019-09-08T10:15:49Z</time>
      </trkpt>
      <trkpt lat="42.5807197206" lon="1.0121473297">
        <ele>1881.44</ele>
        <time>2019-09-08T10:16:00Z</time>
      </trkpt>
      <trkpt lat="42.5806701835" lon="1.0123472381">
        <ele>1878.55</ele>
        <time>2019-09-08T10:16:11Z</time>
      </trkpt>
      <trkpt lat="42.5806321297" lon="1.0125855356">
        <ele>1875.19</ele>
        <time>2019-09-08T10:16:22Z</time>
      </trkpt>
      <trkpt lat="42.5806375779" lon="1.0127382539">
        <ele>1874.23</ele>
        <time>2019-09-08T10:16:29Z</time>
      </trkpt>
      <trkpt lat="42.5806437805" lon="1.0127573647">
        <ele>1873.75</ele>
        <time>2019-09-08T10:16:30Z</time>
      </trkpt>
      <trkpt lat="42.5806507375" lon="1.0127758887">
        <ele>1873.75</ele>
        <time>2019-09-08T10:16:31Z</time>
      </trkpt>
      <trkpt lat="42.5806828402" lon="1.0128284432">
        <ele>1873.27</ele>
        <time>2019-09-08T10:16:34Z</time>
      </trkpt>
      <trkpt lat="42.5806962512" lon="1.0128437821">
        <ele>1872.79</ele>
        <time>2019-09-08T10:16:35Z</time>
      </trkpt>
      <trkpt lat="42.5808690861" lon="1.0129420180">
        <ele>1870.38</ele>
        <time>2019-09-08T10:16:47Z</time>
      </trkpt>
      <trkpt lat="42.5809015241" lon="1.0129400063">
        <ele>1870.38</ele>
        <time>2019-09-08T10:16:49Z</time>
      </trkpt>
      <trkpt lat="42.5809223950" lon="1.0129343066">
        <ele>1870.38</ele>
        <time>2019-09-08T10:16:50Z</time>
      </trkpt>
      <trkpt lat="42.5810938887" lon="1.0129409283">
        <ele>1869.42</ele>
        <time>2019-09-08T10:17:01Z</time>
      </trkpt>
      <trkpt lat="42.5811190344" lon="1.0129504837">
        <ele>1868.94</ele>
        <time>2019-09-08T10:17:03Z</time>
      </trkpt>
      <trkpt lat="42.5812024344" lon="1.0130937304">
        <ele>1867.98</ele>
        <time>2019-09-08T10:17:13Z</time>
      </trkpt>
      <trkpt lat="42.5812026020" lon="1.0131115001">
        <ele>1867.50</ele>
        <time>2019-09-08T10:17:14Z</time>
      </trkpt>
      <trkpt lat="42.5812011771" lon="1.0131300241">
        <ele>1867.50</ele>
        <time>2019-09-08T10:17:15Z</time>
      </trkpt>
      <trkpt lat="42.5811997522" lon="1.0131479613">
        <ele>1867.02</ele>
        <time>2019-09-08T10:17:16Z</time>
      </trkpt>
      <trkpt lat="42.5812002551" lon="1.0131680779">
        <ele>1867.02</ele>
        <time>2019-09-08T10:17:17Z</time>
      </trkpt>
      <trkpt lat="42.5811981596" lon="1.0131906252">
        <ele>1866.54</ele>
        <time>2019-09-08T10:17:18Z</time>
      </trkpt>
      <trkpt lat="42.5811905321" lon="1.0132123344">
        <ele>1866.06</ele>
        <time>2019-09-08T10:17:19Z</time>
      </trkpt>
      <trkpt lat="42.5811808091" lon="1.0132303555">
        <ele>1866.06</ele>
        <time>2019-09-08T10:17:20Z</time>
      </trkpt>
      <trkpt lat="42.5811707508" lon="1.0132462811">
        <ele>1866.06</ele>
        <time>2019-09-08T10:17:21Z</time>
      </trkpt>
      <trkpt lat="42.5811610278" lon="1.0132622905">
        <ele>1865.58</ele>
        <time>2019-09-08T10:17:22Z</time>
      </trkpt>
      <trkpt lat="42.5811552443" lon="1.0132813174">
        <ele>1865.58</ele>
        <time>2019-09-08T10:17:23Z</time>
      </trkpt>
      <trkpt lat="42.5810515601" lon="1.0134672280">
        <ele>1862.21</ele>
        <time>2019-09-08T10:17:35Z</time>
      </trkpt>
      <trkpt lat="42.5809199642" lon="1.0136942938">
        <ele>1859.33</ele>
        <time>2019-09-08T10:17:48Z</time>
      </trkpt>
      <trkpt lat="42.5808639731" lon="1.0139075294">
        <ele>1856.92</ele>
        <time>2019-09-08T10:17:59Z</time>
      </trkpt>
      <trkpt lat="42.5808596145" lon="1.0139307473">
        <ele>1856.44</ele>
        <time>2019-09-08T10:18:00Z</time>
      </trkpt>
      <trkpt lat="42.5808400847" lon="1.0140188411">
        <ele>1855.48</ele>
        <time>2019-09-08T10:18:04Z</time>
      </trkpt>
      <trkpt lat="42.5808400847" lon="1.0140390415">
        <ele>1855.00</ele>
        <time>2019-09-08T10:18:05Z</time>
      </trkpt>
      <trkpt lat="42.5808379892" lon="1.0140580684">
        <ele>1855.00</ele>
        <time>2019-09-08T10:18:06Z</time>
      </trkpt>
      <trkpt lat="42.5808359776" lon="1.0140782688">
        <ele>1855.00</ele>
        <time>2019-09-08T10:18:07Z</time>
      </trkpt>
      <trkpt lat="42.5808353908" lon="1.0141024087">
        <ele>1854.52</ele>
        <time>2019-09-08T10:18:08Z</time>
      </trkpt>
      <trkpt lat="42.5808318704" lon="1.0141248722">
        <ele>1854.52</ele>
        <time>2019-09-08T10:18:09Z</time>
      </trkpt>
      <trkpt lat="42.5808296073" lon="1.0142482538">
        <ele>1852.60</ele>
        <time>2019-09-08T10:18:16Z</time>
      </trkpt>
      <trkpt lat="42.5809483789" lon="1.0143377725">
        <ele>1850.68</ele>
        <time>2019-09-08T10:18:25Z</time>
      </trkpt>
      <trkpt lat="42.5810341258" lon="1.0142679513">
        <ele>1850.19</ele>
        <time>2019-09-08T10:18:31Z</time>
      </trkpt>
      <trkpt lat="42.5810757000" lon="1.0141975433">
        <ele>1849.23</ele>
        <time>2019-09-08T10:18:36Z</time>
      </trkpt>
      <trkpt lat="42.5811470300" lon="1.0140770953">
        <ele>1847.79</ele>
        <time>2019-09-08T10:18:43Z</time>
      </trkpt>
      <trkpt lat="42.5812240597" lon="1.0140257981">
        <ele>1846.83</ele>
        <time>2019-09-08T10:18:49Z</time>
      </trkpt>
      <trkpt lat="42.5812462717" lon="1.0140287317">
        <ele>1846.83</ele>
        <time>2019-09-08T10:18:50Z</time>
      </trkpt>
      <trkpt lat="42.5812676456" lon="1.0140398797">
        <ele>1846.83</ele>
        <time>2019-09-08T10:18:51Z</time>
      </trkpt>
      <trkpt lat="42.5812859181" lon="1.0140552185">
        <ele>1846.83</ele>
        <time>2019-09-08T10:18:52Z</time>
      </trkpt>
      <trkpt lat="42.5813024305" lon="1.0140798613">
        <ele>1846.35</ele>
        <time>2019-09-08T10:18:53Z</time>
      </trkpt>
      <trkpt lat="42.5813135784" lon="1.0141116288">
        <ele>1846.35</ele>
        <time>2019-09-08T10:18:54Z</time>
      </trkpt>
      <trkpt lat="42.5813181046" lon="1.0141434800">
        <ele>1845.87</ele>
        <time>2019-09-08T10:18:55Z</time>
      </trkpt>
      <trkpt lat="42.5813140813" lon="1.0141787678">
        <ele>1845.39</ele>
        <time>2019-09-08T10:18:56Z</time>
      </trkpt>
      <trkpt lat="42.5812739320" lon="1.0143550392">
        <ele>1842.50</ele>
        <time>2019-09-08T10:19:02Z</time>
      </trkpt>
      <trkpt lat="42.5812648796" lon="1.0145457275">
        <ele>1839.14</ele>
        <time>2019-09-08T10:19:12Z</time>
      </trkpt>
      <trkpt lat="42.5812616106" lon="1.0146311391">
        <ele>1837.70</ele>
        <time>2019-09-08T10:19:16Z</time>
      </trkpt>
      <trkpt lat="42.5812664721" lon="1.0146572068">
        <ele>1837.22</ele>
        <time>2019-09-08T10:19:17Z</time>
      </trkpt>
      <trkpt lat="42.5812728424" lon="1.0146836098">
        <ele>1836.74</ele>
        <time>2019-09-08T10:19:18Z</time>
      </trkpt>
      <trkpt lat="42.5812766142" lon="1.0147307161">
        <ele>1835.77</ele>
        <time>2019-09-08T10:19:20Z</time>
      </trkpt>
      <trkpt lat="42.5812737644" lon="1.0147515032">
        <ele>1835.77</ele>
        <time>2019-09-08T10:19:21Z</time>
      </trkpt>
      <trkpt lat="42.5812522229" lon="1.0149378330">
        <ele>1832.89</ele>
        <time>2019-09-08T10:19:30Z</time>
      </trkpt>
      <trkpt lat="42.5812611077" lon="1.0149838496">
        <ele>1831.93</ele>
        <time>2019-09-08T10:19:32Z</time>
      </trkpt>
      <trkpt lat="42.5812552404" lon="1.0151503980">
        <ele>1830.01</ele>
        <time>2019-09-08T10:19:40Z</time>
      </trkpt>
      <trkpt lat="42.5812565815" lon="1.0151762981">
        <ele>1830.01</ele>
        <time>2019-09-08T10:19:41Z</time>
      </trkpt>
      <trkpt lat="42.5812561624" lon="1.0152011923">
        <ele>1829.53</ele>
        <time>2019-09-08T10:19:42Z</time>
      </trkpt>
      <trkpt lat="42.5812559947" lon="1.0152228177">
        <ele>1829.05</ele>
        <time>2019-09-08T10:19:43Z</time>
      </trkpt>
      <trkpt lat="42.5812583417" lon="1.0152453650">
        <ele>1829.05</ele>
        <time>2019-09-08T10:19:44Z</time>
      </trkpt>
      <trkpt lat="42.5812571682" lon="1.0152671579">
        <ele>1828.56</ele>
        <time>2019-09-08T10:19:45Z</time>
      </trkpt>
      <trkpt lat="42.5812531449" lon="1.0152892862">
        <ele>1828.08</ele>
        <time>2019-09-08T10:19:46Z</time>
      </trkpt>
      <trkpt lat="42.5812616106" lon="1.0155229736">
        <ele>1825.20</ele>
        <time>2019-09-08T10:19:57Z</time>
      </trkpt>
      <trkpt lat="42.5812626164" lon="1.0155628715">
        <ele>1825.20</ele>
        <time>2019-09-08T10:19:59Z</time>
      </trkpt>
      <trkpt lat="42.5812592637" lon="1.0157020111">
        <ele>1823.28</ele>
        <time>2019-09-08T10:20:07Z</time>
      </trkpt>
      <trkpt lat="42.5812557433" lon="1.0157264862">
        <ele>1822.80</ele>
        <time>2019-09-08T10:20:08Z</time>
      </trkpt>
      <trkpt lat="42.5812497083" lon="1.0157517996">
        <ele>1822.80</ele>
        <time>2019-09-08T10:20:09Z</time>
      </trkpt>
      <trkpt lat="42.5812446792" lon="1.0157766100">
        <ele>1822.32</ele>
        <time>2019-09-08T10:20:10Z</time>
      </trkpt>
      <trkpt lat="42.5812404044" lon="1.0158004146">
        <ele>1821.84</ele>
        <time>2019-09-08T10:20:11Z</time>
      </trkpt>
      <trkpt lat="42.5812371355" lon="1.0158238001">
        <ele>1821.84</ele>
        <time>2019-09-08T10:20:12Z</time>
      </trkpt>
      <trkpt lat="42.5812196173" lon="1.0159834754">
        <ele>1819.43</ele>
        <time>2019-09-08T10:20:19Z</time>
      </trkpt>
      <trkpt lat="42.5812151749" lon="1.0160519555">
        <ele>1818.47</ele>
        <time>2019-09-08T10:20:22Z</time>
      </trkpt>
      <trkpt lat="42.5812246464" lon="1.0161295719">
        <ele>1817.51</ele>
        <time>2019-09-08T10:20:25Z</time>
      </trkpt>
      <trkpt lat="42.5813093036" lon="1.0164547898">
        <ele>1817.03</ele>
        <time>2019-09-08T10:20:39Z</time>
      </trkpt>
      <trkpt lat="42.5813057832" lon="1.0164733976">
        <ele>1817.03</ele>
        <time>2019-09-08T10:20:40Z</time>
      </trkpt>
      <trkpt lat="42.5813040230" lon="1.0164914187">
        <ele>1817.03</ele>
        <time>2019-09-08T10:20:41Z</time>
      </trkpt>
      <trkpt lat="42.5812996645" lon="1.0165089369">
        <ele>1817.03</ele>
        <time>2019-09-08T10:20:42Z</time>
      </trkpt>
      <trkpt lat="42.5812910311" lon="1.0165236052">
        <ele>1817.03</ele>
        <time>2019-09-08T10:20:43Z</time>
      </trkpt>
      <trkpt lat="42.5812850799" lon="1.0165386088">
        <ele>1816.55</ele>
        <time>2019-09-08T10:20:44Z</time>
      </trkpt>
      <trkpt lat="42.5812802184" lon="1.0165534448">
        <ele>1816.55</ele>
        <time>2019-09-08T10:20:45Z</time>
      </trkpt>
      <trkpt lat="42.5812738482" lon="1.0165736452">
        <ele>1816.55</ele>
        <time>2019-09-08T10:20:46Z</time>
      </trkpt>
      <trkpt lat="42.5812650472" lon="1.0165900737">
        <ele>1816.55</ele>
        <time>2019-09-08T10:20:47Z</time>
      </trkpt>
      <trkpt lat="42.5812549051" lon="1.0166067537">
        <ele>1816.07</ele>
        <time>2019-09-08T10:20:48Z</time>
      </trkpt>
      <trkpt lat="42.5812435895" lon="1.0166222602">
        <ele>1816.07</ele>
        <time>2019-09-08T10:20:49Z</time>
      </trkpt>
      <trkpt lat="42.5812333636" lon="1.0166372638">
        <ele>1816.07</ele>
        <time>2019-09-08T10:20:50Z</time>
      </trkpt>
      <trkpt lat="42.5811596029" lon="1.0167154670">
        <ele>1815.59</ele>
        <time>2019-09-08T10:20:59Z</time>
      </trkpt>
      <trkpt lat="42.5811376423" lon="1.0167426243">
        <ele>1815.11</ele>
        <time>2019-09-08T10:21:02Z</time>
      </trkpt>
      <trkpt lat="42.5810668152" lon="1.0168223362">
        <ele>1814.15</ele>
        <time>2019-09-08T10:21:07Z</time>
      </trkpt>
      <trkpt lat="42.5810418371" lon="1.0168935824">
        <ele>1813.66</ele>
        <time>2019-09-08T10:21:11Z</time>
      </trkpt>
      <trkpt lat="42.5810356345" lon="1.0169176385">
        <ele>1813.66</ele>
        <time>2019-09-08T10:21:13Z</time>
      </trkpt>
      <trkpt lat="42.5810256600" lon="1.0169248469">
        <ele>1813.66</ele>
        <time>2019-09-08T10:21:14Z</time>
      </trkpt>
      <trkpt lat="42.5809869356" lon="1.0169680975">
        <ele>1813.66</ele>
        <time>2019-09-08T10:21:18Z</time>
      </trkpt>
      <trkpt lat="42.5809116662" lon="1.0171021242">
        <ele>1812.22</ele>
        <time>2019-09-08T10:21:27Z</time>
      </trkpt>
      <trkpt lat="42.5808827486" lon="1.0172768030">
        <ele>1809.82</ele>
        <time>2019-09-08T10:21:37Z</time>
      </trkpt>
      <trkpt lat="42.5808634702" lon="1.0173524916">
        <ele>1809.82</ele>
        <time>2019-09-08T10:21:40Z</time>
      </trkpt>
      <trkpt lat="42.5808613747" lon="1.0173826665">
        <ele>1809.82</ele>
        <time>2019-09-08T10:21:41Z</time>
      </trkpt>
      <trkpt lat="42.5808573514" lon="1.0174094886">
        <ele>1809.34</ele>
        <time>2019-09-08T10:21:42Z</time>
      </trkpt>
      <trkpt lat="42.5808354747" lon="1.0174559243">
        <ele>1809.34</ele>
        <time>2019-09-08T10:21:44Z</time>
      </trkpt>
      <trkpt lat="42.5808343012" lon="1.0175124183">
        <ele>1808.86</ele>
        <time>2019-09-08T10:21:47Z</time>
      </trkpt>
      <trkpt lat="42.5808344688" lon="1.0175486282">
        <ele>1808.86</ele>
        <time>2019-09-08T10:21:49Z</time>
      </trkpt>
      <trkpt lat="42.5808192138" lon="1.0177057050">
        <ele>1807.90</ele>
        <time>2019-09-08T10:21:58Z</time>
      </trkpt>
      <trkpt lat="42.5807917211" lon="1.0179103911">
        <ele>1807.42</ele>
        <time>2019-09-08T10:22:10Z</time>
      </trkpt>
      <trkpt lat="42.5807595346" lon="1.0179559048">
        <ele>1806.94</ele>
        <time>2019-09-08T10:22:12Z</time>
      </trkpt>
      <trkpt lat="42.5807480514" lon="1.0179859120">
        <ele>1806.45</ele>
        <time>2019-09-08T10:22:13Z</time>
      </trkpt>
      <trkpt lat="42.5806891266" lon="1.0181979742">
        <ele>1807.42</ele>
        <time>2019-09-08T10:22:23Z</time>
      </trkpt>
      <trkpt lat="42.5806528330" lon="1.0184220225">
        <ele>1807.42</ele>
        <time>2019-09-08T10:22:35Z</time>
      </trkpt>
      <trkpt lat="42.5806354824" lon="1.0186145548">
        <ele>1806.94</ele>
        <time>2019-09-08T10:22:47Z</time>
      </trkpt>
      <trkpt lat="42.5805701036" lon="1.0188397765">
        <ele>1805.97</ele>
        <time>2019-09-08T10:22:58Z</time>
      </trkpt>
      <trkpt lat="42.5805823412" lon="1.0190639924">
        <ele>1805.01</ele>
        <time>2019-09-08T10:23:11Z</time>
      </trkpt>
      <trkpt lat="42.5806357339" lon="1.0192920640">
        <ele>1803.57</ele>
        <time>2019-09-08T10:23:23Z</time>
      </trkpt>
      <trkpt lat="42.5806555990" lon="1.0193645675">
        <ele>1803.09</ele>
        <time>2019-09-08T10:23:27Z</time>
      </trkpt>
      <trkpt lat="42.5807636417" lon="1.0195773840">
        <ele>1803.57</ele>
        <time>2019-09-08T10:23:38Z</time>
      </trkpt>
      <trkpt lat="42.5807852671" lon="1.0196144320">
        <ele>1803.57</ele>
        <time>2019-09-08T10:23:40Z</time>
      </trkpt>
      <trkpt lat="42.5808331277" lon="1.0197131708">
        <ele>1803.09</ele>
        <time>2019-09-08T10:23:45Z</time>
      </trkpt>
      <trkpt lat="42.5808539148" lon="1.0197965708">
        <ele>1803.09</ele>
        <time>2019-09-08T10:23:49Z</time>
      </trkpt>
      <trkpt lat="42.5808765460" lon="1.0198616143">
        <ele>1803.09</ele>
        <time>2019-09-08T10:23:52Z</time>
      </trkpt>
      <trkpt lat="42.5808929745" lon="1.0199138336">
        <ele>1802.61</ele>
        <time>2019-09-08T10:23:54Z</time>
      </trkpt>
      <trkpt lat="42.5809072237" lon="1.0200030170">
        <ele>1802.61</ele>
        <time>2019-09-08T10:23:58Z</time>
      </trkpt>
      <trkpt lat="42.5809221435" lon="1.0200956371">
        <ele>1801.65</ele>
        <time>2019-09-08T10:24:04Z</time>
      </trkpt>
      <trkpt lat="42.5809460320" lon="1.0201894306">
        <ele>1800.69</ele>
        <time>2019-09-08T10:24:10Z</time>
      </trkpt>
      <trkpt lat="42.5809608679" lon="1.0202136543">
        <ele>1800.69</ele>
        <time>2019-09-08T10:24:11Z</time>
      </trkpt>
      <trkpt lat="42.5810125843" lon="1.0203732457">
        <ele>1800.21</ele>
        <time>2019-09-08T10:24:18Z</time>
      </trkpt>
      <trkpt lat="42.5810880214" lon="1.0205352679">
        <ele>1800.69</ele>
        <time>2019-09-08T10:24:27Z</time>
      </trkpt>
      <trkpt lat="42.5811009295" lon="1.0205543786">
        <ele>1801.17</ele>
        <time>2019-09-08T10:24:28Z</time>
      </trkpt>
      <trkpt lat="42.5811396539" lon="1.0206185840">
        <ele>1801.17</ele>
        <time>2019-09-08T10:24:32Z</time>
      </trkpt>
      <trkpt lat="42.5812015124" lon="1.0208286345">
        <ele>1800.69</ele>
        <time>2019-09-08T10:24:43Z</time>
      </trkpt>
      <trkpt lat="42.5812310167" lon="1.0210062470">
        <ele>1800.21</ele>
        <time>2019-09-08T10:24:53Z</time>
      </trkpt>
      <trkpt lat="42.5812800508" lon="1.0211534332">
        <ele>1799.73</ele>
        <time>2019-09-08T10:25:01Z</time>
      </trkpt>
      <trkpt lat="42.5813017599" lon="1.0211745556">
        <ele>1799.73</ele>
        <time>2019-09-08T10:25:02Z</time>
      </trkpt>
      <trkpt lat="42.5813137461" lon="1.0211935826">
        <ele>1799.73</ele>
        <time>2019-09-08T10:25:03Z</time>
      </trkpt>
      <trkpt lat="42.5813808851" lon="1.0213797446">
        <ele>1799.73</ele>
        <time>2019-09-08T10:25:14Z</time>
      </trkpt>
      <trkpt lat="42.5814262312" lon="1.0215108376">
        <ele>1799.73</ele>
        <time>2019-09-08T10:25:21Z</time>
      </trkpt>
      <trkpt lat="42.5814212859" lon="1.0216182936">
        <ele>1798.76</ele>
        <time>2019-09-08T10:25:27Z</time>
      </trkpt>
      <trkpt lat="42.5814235490" lon="1.0216418467">
        <ele>1798.76</ele>
        <time>2019-09-08T10:25:28Z</time>
      </trkpt>
      <trkpt lat="42.5814270694" lon="1.0216595326">
        <ele>1798.28</ele>
        <time>2019-09-08T10:25:29Z</time>
      </trkpt>
      <trkpt lat="42.5814291649" lon="1.0216786433">
        <ele>1797.80</ele>
        <time>2019-09-08T10:25:30Z</time>
      </trkpt>
      <trkpt lat="42.5814336073" lon="1.0216982570">
        <ele>1797.32</ele>
        <time>2019-09-08T10:25:31Z</time>
      </trkpt>
      <trkpt lat="42.5814381335" lon="1.0217185412">
        <ele>1797.32</ele>
        <time>2019-09-08T10:25:32Z</time>
      </trkpt>
      <trkpt lat="42.5814640336" lon="1.0218975786">
        <ele>1796.36</ele>
        <time>2019-09-08T10:25:42Z</time>
      </trkpt>
      <trkpt lat="42.5814659614" lon="1.0220523924">
        <ele>1796.36</ele>
        <time>2019-09-08T10:25:51Z</time>
      </trkpt>
      <trkpt lat="42.5814667996" lon="1.0221609380">
        <ele>1796.36</ele>
        <time>2019-09-08T10:25:58Z</time>
      </trkpt>
      <trkpt lat="42.5814607646" lon="1.0221772827">
        <ele>1796.36</ele>
        <time>2019-09-08T10:25:59Z</time>
      </trkpt>
      <trkpt lat="42.5814523827" lon="1.0222506244">
        <ele>1795.88</ele>
        <time>2019-09-08T10:26:04Z</time>
      </trkpt>
      <trkpt lat="42.5814436655" lon="1.0222730041">
        <ele>1795.88</ele>
        <time>2019-09-08T10:26:05Z</time>
      </trkpt>
      <trkpt lat="42.5814372953" lon="1.0222951323">
        <ele>1795.88</ele>
        <time>2019-09-08T10:26:06Z</time>
      </trkpt>
      <trkpt lat="42.5814363733" lon="1.0223143268">
        <ele>1795.88</ele>
        <time>2019-09-08T10:26:07Z</time>
      </trkpt>
      <trkpt lat="42.5814457610" lon="1.0225096252">
        <ele>1796.84</ele>
        <time>2019-09-08T10:26:17Z</time>
      </trkpt>
      <trkpt lat="42.5814722478" lon="1.0227114614">
        <ele>1798.76</ele>
        <time>2019-09-08T10:26:26Z</time>
      </trkpt>
      <trkpt lat="42.5814936217" lon="1.0228242818">
        <ele>1799.24</ele>
        <time>2019-09-08T10:26:31Z</time>
      </trkpt>
      <trkpt lat="42.5814890116" lon="1.0229240265">
        <ele>1795.88</ele>
        <time>2019-09-08T10:26:39Z</time>
      </trkpt>
      <trkpt lat="42.5814916939" lon="1.0230007209">
        <ele>1794.44</ele>
        <time>2019-09-08T10:26:44Z</time>
      </trkpt>
      <trkpt lat="42.5814912748" lon="1.0230282973">
        <ele>1793.96</ele>
        <time>2019-09-08T10:26:45Z</time>
      </trkpt>
      <trkpt lat="42.5814876705" lon="1.0230551194">
        <ele>1793.48</ele>
        <time>2019-09-08T10:26:46Z</time>
      </trkpt>
      <trkpt lat="42.5814838149" lon="1.0230804328">
        <ele>1793.00</ele>
        <time>2019-09-08T10:26:47Z</time>
      </trkpt>
      <trkpt lat="42.5814797916" lon="1.0231055785">
        <ele>1793.00</ele>
        <time>2019-09-08T10:26:48Z</time>
      </trkpt>
      <trkpt lat="42.5814751815" lon="1.0231282935">
        <ele>1792.52</ele>
        <time>2019-09-08T10:26:49Z</time>
      </trkpt>
      <trkpt lat="42.5814572442" lon="1.0232737195">
        <ele>1791.07</ele>
        <time>2019-09-08T10:26:55Z</time>
      </trkpt>
      <trkpt lat="42.5814559869" lon="1.0232945904">
        <ele>1791.07</ele>
        <time>2019-09-08T10:26:56Z</time>
      </trkpt>
      <trkpt lat="42.5814501196" lon="1.0233176406">
        <ele>1790.59</ele>
        <time>2019-09-08T10:26:57Z</time>
      </trkpt>
      <trkpt lat="42.5814414024" lon="1.0233349074">
        <ele>1790.59</ele>
        <time>2019-09-08T10:26:58Z</time>
      </trkpt>
      <trkpt lat="42.5814358704" lon="1.0233525932">
        <ele>1790.11</ele>
        <time>2019-09-08T10:26:59Z</time>
      </trkpt>
      <trkpt lat="42.5814324338" lon="1.0233712010">
        <ele>1790.11</ele>
        <time>2019-09-08T10:27:00Z</time>
      </trkpt>
      <trkpt lat="42.5813843217" lon="1.0235287808">
        <ele>1787.23</ele>
        <time>2019-09-08T10:27:09Z</time>
      </trkpt>
      <trkpt lat="42.5813887641" lon="1.0236791521">
        <ele>1786.75</ele>
        <time>2019-09-08T10:27:21Z</time>
      </trkpt>
      <trkpt lat="42.5813388918" lon="1.0239724349">
        <ele>1786.27</ele>
        <time>2019-09-08T10:27:37Z</time>
      </trkpt>
      <trkpt lat="42.5813508779" lon="1.0240553319">
        <ele>1786.27</ele>
        <time>2019-09-08T10:27:41Z</time>
      </trkpt>
      <trkpt lat="42.5813559070" lon="1.0240771249">
        <ele>1786.27</ele>
        <time>2019-09-08T10:27:42Z</time>
      </trkpt>
      <trkpt lat="42.5813618582" lon="1.0241954774">
        <ele>1785.79</ele>
        <time>2019-09-08T10:27:50Z</time>
      </trkpt>
      <trkpt lat="42.5812846608" lon="1.0244222917">
        <ele>1784.82</ele>
        <time>2019-09-08T10:28:03Z</time>
      </trkpt>
      <trkpt lat="42.5812659692" lon="1.0245499481">
        <ele>1785.31</ele>
        <time>2019-09-08T10:28:09Z</time>
      </trkpt>
      <trkpt lat="42.5812616944" lon="1.0245739203">
        <ele>1785.79</ele>
        <time>2019-09-08T10:28:10Z</time>
      </trkpt>
      <trkpt lat="42.5812178571" lon="1.0247528739">
        <ele>1786.27</ele>
        <time>2019-09-08T10:28:19Z</time>
      </trkpt>
      <trkpt lat="42.5811818987" lon="1.0249357671">
        <ele>1785.79</ele>
        <time>2019-09-08T10:28:31Z</time>
      </trkpt>
      <trkpt lat="42.5811668951" lon="1.0249933507">
        <ele>1785.79</ele>
        <time>2019-09-08T10:28:34Z</time>
      </trkpt>
      <trkpt lat="42.5811486226" lon="1.0250317398">
        <ele>1785.79</ele>
        <time>2019-09-08T10:28:36Z</time>
      </trkpt>
      <trkpt lat="42.5810732692" lon="1.0252474900">
        <ele>1784.82</ele>
        <time>2019-09-08T10:28:47Z</time>
      </trkpt>
      <trkpt lat="42.5810693298" lon="1.0252870526">
        <ele>1784.82</ele>
        <time>2019-09-08T10:28:49Z</time>
      </trkpt>
      <trkpt lat="42.5810663123" lon="1.0253130365">
        <ele>1784.34</ele>
        <time>2019-09-08T10:28:50Z</time>
      </trkpt>
      <trkpt lat="42.5810583495" lon="1.0253353324">
        <ele>1784.34</ele>
        <time>2019-09-08T10:28:51Z</time>
      </trkpt>
      <trkpt lat="42.5810358860" lon="1.0254250187">
        <ele>1783.38</ele>
        <time>2019-09-08T10:28:55Z</time>
      </trkpt>
      <trkpt lat="42.5810268335" lon="1.0254497454">
        <ele>1783.38</ele>
        <time>2019-09-08T10:28:56Z</time>
      </trkpt>
      <trkpt lat="42.5810232293" lon="1.0254676826">
        <ele>1782.90</ele>
        <time>2019-09-08T10:28:57Z</time>
      </trkpt>
      <trkpt lat="42.5810060464" lon="1.0256890487">
        <ele>1781.46</ele>
        <time>2019-09-08T10:29:07Z</time>
      </trkpt>
      <trkpt lat="42.5809878577" lon="1.0258783121">
        <ele>1780.50</ele>
        <time>2019-09-08T10:29:16Z</time>
      </trkpt>
      <trkpt lat="42.5809946470" lon="1.0258980095">
        <ele>1780.50</ele>
        <time>2019-09-08T10:29:17Z</time>
      </trkpt>
      <trkpt lat="42.5811010133" lon="1.0260431841">
        <ele>1777.13</ele>
        <time>2019-09-08T10:29:28Z</time>
      </trkpt>
      <trkpt lat="42.5811170228" lon="1.0260820761">
        <ele>1776.17</ele>
        <time>2019-09-08T10:29:31Z</time>
      </trkpt>
      <trkpt lat="42.5811608601" lon="1.0261499695">
        <ele>1774.25</ele>
        <time>2019-09-08T10:29:36Z</time>
      </trkpt>
      <trkpt lat="42.5811673142" lon="1.0261658952">
        <ele>1774.25</ele>
        <time>2019-09-08T10:29:37Z</time>
      </trkpt>
      <trkpt lat="42.5811850838" lon="1.0262139235">
        <ele>1773.29</ele>
        <time>2019-09-08T10:29:40Z</time>
      </trkpt>
      <trkpt lat="42.5811747741" lon="1.0263241455">
        <ele>1770.41</ele>
        <time>2019-09-08T10:29:46Z</time>
      </trkpt>
      <trkpt lat="42.5811636262" lon="1.0264485329">
        <ele>1768.48</ele>
        <time>2019-09-08T10:29:52Z</time>
      </trkpt>
      <trkpt lat="42.5810411666" lon="1.0266367905">
        <ele>1765.12</ele>
        <time>2019-09-08T10:30:03Z</time>
      </trkpt>
      <trkpt lat="42.5809902884" lon="1.0267892573">
        <ele>1762.23</ele>
        <time>2019-09-08T10:30:13Z</time>
      </trkpt>
      <trkpt lat="42.5809797272" lon="1.0268495232">
        <ele>1761.75</ele>
        <time>2019-09-08T10:30:16Z</time>
      </trkpt>
      <trkpt lat="42.5809401646" lon="1.0270256270">
        <ele>1759.35</ele>
        <time>2019-09-08T10:30:26Z</time>
      </trkpt>
      <trkpt lat="42.5808736961" lon="1.0271304846">
        <ele>1756.47</ele>
        <time>2019-09-08T10:30:37Z</time>
      </trkpt>
      <trkpt lat="42.5808566809" lon="1.0271615814">
        <ele>1755.50</ele>
        <time>2019-09-08T10:30:39Z</time>
      </trkpt>
      <trkpt lat="42.5808164477" lon="1.0272614937">
        <ele>1753.58</ele>
        <time>2019-09-08T10:30:46Z</time>
      </trkpt>
      <trkpt lat="42.5808129273" lon="1.0273308959">
        <ele>1753.10</ele>
        <time>2019-09-08T10:30:49Z</time>
      </trkpt>
      <trkpt lat="42.5808025338" lon="1.0273904912">
        <ele>1752.62</ele>
        <time>2019-09-08T10:30:52Z</time>
      </trkpt>
      <trkpt lat="42.5808070600" lon="1.0274500865">
        <ele>1751.18</ele>
        <time>2019-09-08T10:30:55Z</time>
      </trkpt>
      <trkpt lat="42.5807902962" lon="1.0275454726">
        <ele>1749.74</ele>
        <time>2019-09-08T10:30:59Z</time>
      </trkpt>
      <trkpt lat="42.5807328802" lon="1.0276624002">
        <ele>1748.29</ele>
        <time>2019-09-08T10:31:09Z</time>
      </trkpt>
      <trkpt lat="42.5806434453" lon="1.0277847759">
        <ele>1746.37</ele>
        <time>2019-09-08T10:31:17Z</time>
      </trkpt>
      <trkpt lat="42.5805600453" lon="1.0279949103">
        <ele>1743.97</ele>
        <time>2019-09-08T10:31:28Z</time>
      </trkpt>
      <trkpt lat="42.5805258472" lon="1.0281356424">
        <ele>1742.53</ele>
        <time>2019-09-08T10:31:37Z</time>
      </trkpt>
      <trkpt lat="42.5805213209" lon="1.0282178689">
        <ele>1741.08</ele>
        <time>2019-09-08T10:31:41Z</time>
      </trkpt>
      <trkpt lat="42.5805136096" lon="1.0284122452">
        <ele>1738.68</ele>
        <time>2019-09-08T10:31:51Z</time>
      </trkpt>
      <trkpt lat="42.5805189740" lon="1.0285811406">
        <ele>1738.20</ele>
        <time>2019-09-08T10:32:00Z</time>
      </trkpt>
      <trkpt lat="42.5804891344" lon="1.0287024267">
        <ele>1737.72</ele>
        <time>2019-09-08T10:32:07Z</time>
      </trkpt>
      <trkpt lat="42.5804837700" lon="1.0289771017">
        <ele>1735.80</ele>
        <time>2019-09-08T10:32:20Z</time>
      </trkpt>
      <trkpt lat="42.5804898888" lon="1.0291643534">
        <ele>1734.84</ele>
        <time>2019-09-08T10:32:26Z</time>
      </trkpt>
      <trkpt lat="42.5804992765" lon="1.0293748230">
        <ele>1731.95</ele>
        <time>2019-09-08T10:32:39Z</time>
      </trkpt>
      <trkpt lat="42.5805343129" lon="1.0295484122">
        <ele>1730.03</ele>
        <time>2019-09-08T10:32:48Z</time>
      </trkpt>
      <trkpt lat="42.5806560181" lon="1.0297634080">
        <ele>1729.07</ele>
        <time>2019-09-08T10:32:59Z</time>
      </trkpt>
      <trkpt lat="42.5806708541" lon="1.0298006237">
        <ele>1729.07</ele>
        <time>2019-09-08T10:33:01Z</time>
      </trkpt>
      <trkpt lat="42.5807011966" lon="1.0299733747">
        <ele>1727.63</ele>
        <time>2019-09-08T10:33:11Z</time>
      </trkpt>
      <trkpt lat="42.5807879493" lon="1.0301637277">
        <ele>1726.67</ele>
        <time>2019-09-08T10:33:22Z</time>
      </trkpt>
      <trkpt lat="42.5808551721" lon="1.0303364787">
        <ele>1724.74</ele>
        <time>2019-09-08T10:33:32Z</time>
      </trkpt>
      <trkpt lat="42.5809109118" lon="1.0304761212">
        <ele>1723.30</ele>
        <time>2019-09-08T10:33:42Z</time>
      </trkpt>
      <trkpt lat="42.5809645560" lon="1.0306313541">
        <ele>1721.38</ele>
        <time>2019-09-08T10:33:51Z</time>
      </trkpt>
      <trkpt lat="42.5809973292" lon="1.0307103954">
        <ele>1720.42</ele>
        <time>2019-09-08T10:33:56Z</time>
      </trkpt>
      <trkpt lat="42.5810566731" lon="1.0308306757">
        <ele>1719.46</ele>
        <time>2019-09-08T10:34:02Z</time>
      </trkpt>
      <trkpt lat="42.5811183639" lon="1.0309510399">
        <ele>1718.97</ele>
        <time>2019-09-08T10:34:08Z</time>
      </trkpt>
      <trkpt lat="42.5811421685" lon="1.0310160834">
        <ele>1718.49</ele>
        <time>2019-09-08T10:34:11Z</time>
      </trkpt>
      <trkpt lat="42.5811850838" lon="1.0312101245">
        <ele>1716.09</ele>
        <time>2019-09-08T10:34:20Z</time>
      </trkpt>
      <trkpt lat="42.5812011771" lon="1.0313273873">
        <ele>1714.17</ele>
        <time>2019-09-08T10:34:26Z</time>
      </trkpt>
      <trkpt lat="42.5812495407" lon="1.0315321572">
        <ele>1711.76</ele>
        <time>2019-09-08T10:34:35Z</time>
      </trkpt>
      <trkpt lat="42.5812628679" lon="1.0316112824">
        <ele>1711.28</ele>
        <time>2019-09-08T10:34:38Z</time>
      </trkpt>
      <trkpt lat="42.5813018437" lon="1.0317236837">
        <ele>1710.80</ele>
        <time>2019-09-08T10:34:43Z</time>
      </trkpt>
      <trkpt lat="42.5813388918" lon="1.0317870509">
        <ele>1710.32</ele>
        <time>2019-09-08T10:34:46Z</time>
      </trkpt>
      <trkpt lat="42.5813934579" lon="1.0318827722">
        <ele>1709.84</ele>
        <time>2019-09-08T10:34:52Z</time>
      </trkpt>
      <trkpt lat="42.5814101379" lon="1.0320400167">
        <ele>1709.36</ele>
        <time>2019-09-08T10:35:03Z</time>
      </trkpt>
      <trkpt lat="42.5814907718" lon="1.0322524980">
        <ele>1708.40</ele>
        <time>2019-09-08T10:35:18Z</time>
      </trkpt>
      <trkpt lat="42.5814968906" lon="1.0323124286">
        <ele>1708.40</ele>
        <time>2019-09-08T10:35:34Z</time>
      </trkpt>
      <trkpt lat="42.5815277360" lon="1.0323715210">
        <ele>1707.92</ele>
        <time>2019-09-08T10:35:56Z</time>
      </trkpt>
      <trkpt lat="42.5815379620" lon="1.0324153583">
        <ele>1707.44</ele>
        <time>2019-09-08T10:35:59Z</time>
      </trkpt>
      <trkpt lat="42.5815299153" lon="1.0324436892">
        <ele>1707.44</ele>
        <time>2019-09-08T10:36:01Z</time>
      </trkpt>
      <trkpt lat="42.5815408118" lon="1.0325180367">
        <ele>1706.96</ele>
        <time>2019-09-08T10:36:05Z</time>
      </trkpt>
      <trkpt lat="42.5816284027" lon="1.0326534882">
        <ele>1706.00</ele>
        <time>2019-09-08T10:36:15Z</time>
      </trkpt>
      <trkpt lat="42.5816516206" lon="1.0327051207">
        <ele>1706.00</ele>
        <time>2019-09-08T10:36:19Z</time>
      </trkpt>
      <trkpt lat="42.5817205198" lon="1.0329001676">
        <ele>1705.52</ele>
        <time>2019-09-08T10:36:31Z</time>
      </trkpt>
      <trkpt lat="42.5818246230" lon="1.0331261437">
        <ele>1705.52</ele>
        <time>2019-09-08T10:36:43Z</time>
      </trkpt>
      <trkpt lat="42.5818340946" lon="1.0331432428">
        <ele>1705.04</ele>
        <time>2019-09-08T10:36:44Z</time>
      </trkpt>
      <trkpt lat="42.5818732381" lon="1.0332630202">
        <ele>1705.04</ele>
        <time>2019-09-08T10:36:50Z</time>
      </trkpt>
      <trkpt lat="42.5818937737" lon="1.0332916863">
        <ele>1704.55</ele>
        <time>2019-09-08T10:36:52Z</time>
      </trkpt>
      <trkpt lat="42.5819778442" lon="1.0334594082">
        <ele>1703.59</ele>
        <time>2019-09-08T10:37:01Z</time>
      </trkpt>
      <trkpt lat="42.5820837915" lon="1.0336586460">
        <ele>1702.63</ele>
        <time>2019-09-08T10:37:12Z</time>
      </trkpt>
      <trkpt lat="42.5821288861" lon="1.0338529386">
        <ele>1701.67</ele>
        <time>2019-09-08T10:37:22Z</time>
      </trkpt>
      <trkpt lat="42.5821951870" lon="1.0340705328">
        <ele>1700.71</ele>
        <time>2019-09-08T10:37:33Z</time>
      </trkpt>
      <trkpt lat="42.5822670199" lon="1.0343346465">
        <ele>1699.75</ele>
        <time>2019-09-08T10:37:46Z</time>
      </trkpt>
      <trkpt lat="42.5823567901" lon="1.0346258339">
        <ele>1698.79</ele>
        <time>2019-09-08T10:38:02Z</time>
      </trkpt>
      <trkpt lat="42.5824260246" lon="1.0349128302">
        <ele>1697.83</ele>
        <time>2019-09-08T10:38:17Z</time>
      </trkpt>
      <trkpt lat="42.5824967679" lon="1.0350955557">
        <ele>1697.34</ele>
        <time>2019-09-08T10:38:28Z</time>
      </trkpt>
      <trkpt lat="42.5825834367" lon="1.0352351982">
        <ele>1696.86</ele>
        <time>2019-09-08T10:38:37Z</time>
      </trkpt>
      <trkpt lat="42.5826487318" lon="1.0354781058">
        <ele>1696.86</ele>
        <time>2019-09-08T10:38:49Z</time>
      </trkpt>
      <trkpt lat="42.5827155355" lon="1.0356506892">
        <ele>1696.38</ele>
        <time>2019-09-08T10:38:58Z</time>
      </trkpt>
      <trkpt lat="42.5827768072" lon="1.0358277988">
        <ele>1695.90</ele>
        <time>2019-09-08T10:39:08Z</time>
      </trkpt>
      <trkpt lat="42.5828002766" lon="1.0360810161">
        <ele>1696.38</ele>
        <time>2019-09-08T10:39:21Z</time>
      </trkpt>
      <trkpt lat="42.5828472152" lon="1.0362382606">
        <ele>1695.42</ele>
        <time>2019-09-08T10:39:29Z</time>
      </trkpt>
      <trkpt lat="42.5828531664" lon="1.0362743028">
        <ele>1694.94</ele>
        <time>2019-09-08T10:39:31Z</time>
      </trkpt>
      <trkpt lat="42.5829293579" lon="1.0364184715">
        <ele>1695.42</ele>
        <time>2019-09-08T10:39:40Z</time>
      </trkpt>
      <trkpt lat="42.5830027834" lon="1.0366525780">
        <ele>1694.46</ele>
        <time>2019-09-08T10:39:52Z</time>
      </trkpt>
      <trkpt lat="42.5830477104" lon="1.0367889516">
        <ele>1694.94</ele>
        <time>2019-09-08T10:40:00Z</time>
      </trkpt>
      <trkpt lat="42.5830913801" lon="1.0369057953">
        <ele>1695.42</ele>
        <time>2019-09-08T10:40:08Z</time>
      </trkpt>
      <trkpt lat="42.5831116643" lon="1.0369825736">
        <ele>1695.42</ele>
        <time>2019-09-08T10:40:12Z</time>
      </trkpt>
      <trkpt lat="42.5831696671" lon="1.0372307617">
        <ele>1694.94</ele>
        <time>2019-09-08T10:40:24Z</time>
      </trkpt>
      <trkpt lat="42.5831900351" lon="1.0372839030">
        <ele>1695.42</ele>
        <time>2019-09-08T10:40:28Z</time>
      </trkpt>
      <trkpt lat="42.5832513068" lon="1.0374506190">
        <ele>1695.42</ele>
        <time>2019-09-08T10:40:37Z</time>
      </trkpt>
      <trkpt lat="42.5833140034" lon="1.0375728272">
        <ele>1695.90</ele>
        <time>2019-09-08T10:40:45Z</time>
      </trkpt>
      <trkpt lat="42.5833906140" lon="1.0378071852">
        <ele>1695.90</ele>
        <time>2019-09-08T10:40:57Z</time>
      </trkpt>
      <trkpt lat="42.5834449288" lon="1.0379661061">
        <ele>1695.42</ele>
        <time>2019-09-08T10:41:07Z</time>
      </trkpt>
      <trkpt lat="42.5834598485" lon="1.0380075127">
        <ele>1694.94</ele>
        <time>2019-09-08T10:41:09Z</time>
      </trkpt>
      <trkpt lat="42.5835385546" lon="1.0382893961">
        <ele>1695.42</ele>
        <time>2019-09-08T10:41:23Z</time>
      </trkpt>
      <trkpt lat="42.5836275704" lon="1.0384928249">
        <ele>1694.46</ele>
        <time>2019-09-08T10:41:36Z</time>
      </trkpt>
      <trkpt lat="42.5837295782" lon="1.0386159550">
        <ele>1693.98</ele>
        <time>2019-09-08T10:41:45Z</time>
      </trkpt>
      <trkpt lat="42.5838026684" lon="1.0386753827">
        <ele>1693.98</ele>
        <time>2019-09-08T10:41:52Z</time>
      </trkpt>
      <trkpt lat="42.5838545524" lon="1.0387580283">
        <ele>1693.50</ele>
        <time>2019-09-08T10:41:58Z</time>
      </trkpt>
      <trkpt lat="42.5839486811" lon="1.0390157718">
        <ele>1692.54</ele>
        <time>2019-09-08T10:42:14Z</time>
      </trkpt>
      <trkpt lat="42.5840220228" lon="1.0392339528">
        <ele>1691.58</ele>
        <time>2019-09-08T10:42:27Z</time>
      </trkpt>
      <trkpt lat="42.5841071829" lon="1.0394491162">
        <ele>1691.58</ele>
        <time>2019-09-08T10:42:39Z</time>
      </trkpt>
      <trkpt lat="42.5841688737" lon="1.0396397207">
        <ele>1691.10</ele>
        <time>2019-09-08T10:42:50Z</time>
      </trkpt>
      <trkpt lat="42.5843164790" lon="1.0399250407">
        <ele>1690.62</ele>
        <time>2019-09-08T10:43:06Z</time>
      </trkpt>
      <trkpt lat="42.5844627433" lon="1.0402193293">
        <ele>1689.17</ele>
        <time>2019-09-08T10:43:22Z</time>
      </trkpt>
      <trkpt lat="42.5845536869" lon="1.0404445510">
        <ele>1689.65</ele>
        <time>2019-09-08T10:43:35Z</time>
      </trkpt>
      <trkpt lat="42.5846494082" lon="1.0407083295">
        <ele>1689.17</ele>
        <time>2019-09-08T10:43:50Z</time>
      </trkpt>
      <trkpt lat="42.5847344846" lon="1.0410141852">
        <ele>1688.21</ele>
        <time>2019-09-08T10:44:06Z</time>
      </trkpt>
      <trkpt lat="42.5847628154" lon="1.0411058832">
        <ele>1688.21</ele>
        <time>2019-09-08T10:44:16Z</time>
      </trkpt>
      <trkpt lat="42.5847625639" lon="1.0411120858">
        <ele>1688.21</ele>
        <time>2019-09-08T10:44:17Z</time>
      </trkpt>
      <trkpt lat="42.5847627316" lon="1.0411450267">
        <ele>1688.21</ele>
        <time>2019-09-08T10:44:19Z</time>
      </trkpt>
      <trkpt lat="42.5847514160" lon="1.0412869323">
        <ele>1686.77</ele>
        <time>2019-09-08T10:44:27Z</time>
      </trkpt>
      <trkpt lat="42.5847222470" lon="1.0415552370">
        <ele>1686.77</ele>
        <time>2019-09-08T10:44:41Z</time>
      </trkpt>
      <trkpt lat="42.5847174693" lon="1.0416384693">
        <ele>1686.77</ele>
        <time>2019-09-08T10:44:45Z</time>
      </trkpt>
      <trkpt lat="42.5846108515" lon="1.0418512858">
        <ele>1684.85</ele>
        <time>2019-09-08T10:44:57Z</time>
      </trkpt>
      <trkpt lat="42.5845509209" lon="1.0418391321">
        <ele>1683.41</ele>
        <time>2019-09-08T10:45:01Z</time>
      </trkpt>
      <trkpt lat="42.5843713805" lon="1.0417170078">
        <ele>1679.56</ele>
        <time>2019-09-08T10:45:10Z</time>
      </trkpt>
      <trkpt lat="42.5843510125" lon="1.0417647846">
        <ele>1677.64</ele>
        <time>2019-09-08T10:45:19Z</time>
      </trkpt>
      <trkpt lat="42.5843573827" lon="1.0417944565">
        <ele>1676.68</ele>
        <time>2019-09-08T10:45:21Z</time>
      </trkpt>
      <trkpt lat="42.5844360888" lon="1.0419005714">
        <ele>1674.27</ele>
        <time>2019-09-08T10:45:32Z</time>
      </trkpt>
      <trkpt lat="42.5845039822" lon="1.0419917665">
        <ele>1673.31</ele>
        <time>2019-09-08T10:45:47Z</time>
      </trkpt>
      <trkpt lat="42.5845066644" lon="1.0420303233">
        <ele>1672.35</ele>
        <time>2019-09-08T10:45:57Z</time>
      </trkpt>
      <trkpt lat="42.5844981987" lon="1.0420216061">
        <ele>1672.35</ele>
        <time>2019-09-08T10:45:58Z</time>
      </trkpt>
      <trkpt lat="42.5843963586" lon="1.0420197621">
        <ele>1670.43</ele>
        <time>2019-09-08T10:46:08Z</time>
      </trkpt>
      <trkpt lat="42.5843961909" lon="1.0421209317">
        <ele>1669.47</ele>
        <time>2019-09-08T10:46:19Z</time>
      </trkpt>
      <trkpt lat="42.5844106916" lon="1.0421350971">
        <ele>1668.99</ele>
        <time>2019-09-08T10:46:20Z</time>
      </trkpt>
      <trkpt lat="42.5844889786" lon="1.0422413796">
        <ele>1668.99</ele>
        <time>2019-09-08T10:46:30Z</time>
      </trkpt>
      <trkpt lat="42.5845243502" lon="1.0422941018">
        <ele>1668.99</ele>
        <time>2019-09-08T10:46:33Z</time>
      </trkpt>
      <trkpt lat="42.5845425390" lon="1.0423891526">
        <ele>1668.51</ele>
        <time>2019-09-08T10:46:39Z</time>
      </trkpt>
      <trkpt lat="42.5845644157" lon="1.0424896516">
        <ele>1668.02</ele>
        <time>2019-09-08T10:46:44Z</time>
      </trkpt>
      <trkpt lat="42.5845551956" lon="1.0426091775">
        <ele>1668.02</ele>
        <time>2019-09-08T10:46:50Z</time>
      </trkpt>
      <trkpt lat="42.5845580455" lon="1.0427097604">
        <ele>1668.02</ele>
        <time>2019-09-08T10:46:55Z</time>
      </trkpt>
      <trkpt lat="42.5845297147" lon="1.0429076571">
        <ele>1667.54</ele>
        <time>2019-09-08T10:47:06Z</time>
      </trkpt>
      <trkpt lat="42.5844755676" lon="1.0430606268">
        <ele>1668.02</ele>
        <time>2019-09-08T10:47:14Z</time>
      </trkpt>
      <trkpt lat="42.5843355060" lon="1.0430929810">
        <ele>1668.02</ele>
        <time>2019-09-08T10:47:25Z</time>
      </trkpt>
      <trkpt lat="42.5842830352" lon="1.0431155283">
        <ele>1667.54</ele>
        <time>2019-09-08T10:47:28Z</time>
      </trkpt>
      <trkpt lat="42.5842307322" lon="1.0432344675">
        <ele>1668.02</ele>
        <time>2019-09-08T10:47:35Z</time>
      </trkpt>
      <trkpt lat="42.5842180755" lon="1.0432740301">
        <ele>1668.02</ele>
        <time>2019-09-08T10:47:37Z</time>
      </trkpt>
      <trkpt lat="42.5841933489" lon="1.0434338730">
        <ele>1667.06</ele>
        <time>2019-09-08T10:47:47Z</time>
      </trkpt>
      <trkpt lat="42.5842052512" lon="1.0436127428">
        <ele>1666.58</ele>
        <time>2019-09-08T10:47:57Z</time>
      </trkpt>
      <trkpt lat="42.5842141360" lon="1.0437158402">
        <ele>1666.58</ele>
        <time>2019-09-08T10:48:03Z</time>
      </trkpt>
      <trkpt lat="42.5842859689" lon="1.0439356975">
        <ele>1666.58</ele>
        <time>2019-09-08T10:48:15Z</time>
      </trkpt>
      <trkpt lat="42.5843494199" lon="1.0440707300">
        <ele>1666.10</ele>
        <time>2019-09-08T10:48:24Z</time>
      </trkpt>
      <trkpt lat="42.5844119489" lon="1.0442017391">
        <ele>1665.14</ele>
        <time>2019-09-08T10:48:33Z</time>
      </trkpt>
      <trkpt lat="42.5844674371" lon="1.0443914216">
        <ele>1664.66</ele>
        <time>2019-09-08T10:48:44Z</time>
      </trkpt>
      <trkpt lat="42.5844712090" lon="1.0444129631">
        <ele>1664.66</ele>
        <time>2019-09-08T10:48:45Z</time>
      </trkpt>
      <trkpt lat="42.5845255237" lon="1.0446638335">
        <ele>1665.14</ele>
        <time>2019-09-08T10:48:56Z</time>
      </trkpt>
      <trkpt lat="42.5845672656" lon="1.0449053999">
        <ele>1665.14</ele>
        <time>2019-09-08T10:49:07Z</time>
      </trkpt>
      <trkpt lat="42.5845979434" lon="1.0450984351">
        <ele>1664.66</ele>
        <time>2019-09-08T10:49:17Z</time>
      </trkpt>
      <trkpt lat="42.5846194848" lon="1.0451550968">
        <ele>1664.66</ele>
        <time>2019-09-08T10:49:20Z</time>
      </trkpt>
      <trkpt lat="42.5846373383" lon="1.0452691745">
        <ele>1664.66</ele>
        <time>2019-09-08T10:49:26Z</time>
      </trkpt>
      <trkpt lat="42.5846725423" lon="1.0454511456">
        <ele>1664.18</ele>
        <time>2019-09-08T10:49:36Z</time>
      </trkpt>
      <trkpt lat="42.5846810080" lon="1.0455384851">
        <ele>1664.18</ele>
        <time>2019-09-08T10:49:40Z</time>
      </trkpt>
      <trkpt lat="42.5846801698" lon="1.0456050374">
        <ele>1663.70</ele>
        <time>2019-09-08T10:49:43Z</time>
      </trkpt>
      <trkpt lat="42.5847012084" lon="1.0457914509">
        <ele>1663.22</ele>
        <time>2019-09-08T10:49:53Z</time>
      </trkpt>
      <trkpt lat="42.5847051479" lon="1.0459043551">
        <ele>1662.74</ele>
        <time>2019-09-08T10:49:59Z</time>
      </trkpt>
      <trkpt lat="42.5847293716" lon="1.0459844023">
        <ele>1661.78</ele>
        <time>2019-09-08T10:50:03Z</time>
      </trkpt>
      <trkpt lat="42.5847333949" lon="1.0460066982">
        <ele>1661.78</ele>
        <time>2019-09-08T10:50:04Z</time>
      </trkpt>
      <trkpt lat="42.5847321376" lon="1.0461306665">
        <ele>1661.78</ele>
        <time>2019-09-08T10:50:10Z</time>
      </trkpt>
      <trkpt lat="42.5847368315" lon="1.0462537967">
        <ele>1660.81</ele>
        <time>2019-09-08T10:50:16Z</time>
      </trkpt>
      <trkpt lat="42.5847373344" lon="1.0462769307">
        <ele>1660.81</ele>
        <time>2019-09-08T10:50:17Z</time>
      </trkpt>
      <trkpt lat="42.5847281143" lon="1.0463455785">
        <ele>1660.81</ele>
        <time>2019-09-08T10:50:21Z</time>
      </trkpt>
      <trkpt lat="42.5847236719" lon="1.0463603307">
        <ele>1660.33</ele>
        <time>2019-09-08T10:50:22Z</time>
      </trkpt>
      <trkpt lat="42.5846907310" lon="1.0464117117">
        <ele>1659.85</ele>
        <time>2019-09-08T10:50:26Z</time>
      </trkpt>
      <trkpt lat="42.5846802536" lon="1.0464247875">
        <ele>1659.85</ele>
        <time>2019-09-08T10:50:27Z</time>
      </trkpt>
      <trkpt lat="42.5846715365" lon="1.0465426371">
        <ele>1659.37</ele>
        <time>2019-09-08T10:50:33Z</time>
      </trkpt>
      <trkpt lat="42.5846756436" lon="1.0465633404">
        <ele>1659.37</ele>
        <time>2019-09-08T10:50:34Z</time>
      </trkpt>
      <trkpt lat="42.5846789125" lon="1.0465824511">
        <ele>1658.89</ele>
        <time>2019-09-08T10:50:35Z</time>
      </trkpt>
      <trkpt lat="42.5846825168" lon="1.0466002207">
        <ele>1658.89</ele>
        <time>2019-09-08T10:50:36Z</time>
      </trkpt>
      <trkpt lat="42.5846856181" lon="1.0466189962">
        <ele>1658.89</ele>
        <time>2019-09-08T10:50:37Z</time>
      </trkpt>
      <trkpt lat="42.5846933294" lon="1.0468415357">
        <ele>1656.97</ele>
        <time>2019-09-08T10:50:49Z</time>
      </trkpt>
      <trkpt lat="42.5846546050" lon="1.0470162984">
        <ele>1654.57</ele>
        <time>2019-09-08T10:50:58Z</time>
      </trkpt>
      <trkpt lat="42.5846251007" lon="1.0470965970">
        <ele>1653.12</ele>
        <time>2019-09-08T10:51:04Z</time>
      </trkpt>
      <trkpt lat="42.5845665950" lon="1.0471185576">
        <ele>1652.16</ele>
        <time>2019-09-08T10:51:09Z</time>
      </trkpt>
      <trkpt lat="42.5845178962" lon="1.0472106747">
        <ele>1651.68</ele>
        <time>2019-09-08T10:51:15Z</time>
      </trkpt>
      <trkpt lat="42.5844825245" lon="1.0473338049">
        <ele>1650.72</ele>
        <time>2019-09-08T10:51:23Z</time>
      </trkpt>
      <trkpt lat="42.5844703708" lon="1.0473906342">
        <ele>1650.72</ele>
        <time>2019-09-08T10:51:26Z</time>
      </trkpt>
      <trkpt lat="42.5844650064" lon="1.0474143550">
        <ele>1650.72</ele>
        <time>2019-09-08T10:51:27Z</time>
      </trkpt>
      <trkpt lat="42.5844555348" lon="1.0474406742">
        <ele>1650.72</ele>
        <time>2019-09-08T10:51:28Z</time>
      </trkpt>
      <trkpt lat="42.5844513439" lon="1.0474674962">
        <ele>1650.24</ele>
        <time>2019-09-08T10:51:29Z</time>
      </trkpt>
      <trkpt lat="42.5844520982" lon="1.0474910494">
        <ele>1650.24</ele>
        <time>2019-09-08T10:51:30Z</time>
      </trkpt>
      <trkpt lat="42.5844486617" lon="1.0475158598">
        <ele>1650.24</ele>
        <time>2019-09-08T10:51:31Z</time>
      </trkpt>
      <trkpt lat="42.5844463985" lon="1.0475368984">
        <ele>1650.24</ele>
        <time>2019-09-08T10:51:32Z</time>
      </trkpt>
      <trkpt lat="42.5844459794" lon="1.0475590266">
        <ele>1650.24</ele>
        <time>2019-09-08T10:51:33Z</time>
      </trkpt>
      <trkpt lat="42.5844386034" lon="1.0477345437">
        <ele>1648.80</ele>
        <time>2019-09-08T10:51:41Z</time>
      </trkpt>
      <trkpt lat="42.5844393577" lon="1.0477557499">
        <ele>1648.80</ele>
        <time>2019-09-08T10:51:42Z</time>
      </trkpt>
      <trkpt lat="42.5844350830" lon="1.0477761179">
        <ele>1648.32</ele>
        <time>2019-09-08T10:51:43Z</time>
      </trkpt>
      <trkpt lat="42.5844280422" lon="1.0477985814">
        <ele>1648.32</ele>
        <time>2019-09-08T10:51:44Z</time>
      </trkpt>
      <trkpt lat="42.5844203308" lon="1.0478217993">
        <ele>1647.84</ele>
        <time>2019-09-08T10:51:45Z</time>
      </trkpt>
      <trkpt lat="42.5844121166" lon="1.0478429217">
        <ele>1647.84</ele>
        <time>2019-09-08T10:51:46Z</time>
      </trkpt>
      <trkpt lat="42.5844090153" lon="1.0478611104">
        <ele>1647.84</ele>
        <time>2019-09-08T10:51:47Z</time>
      </trkpt>
      <trkpt lat="42.5844014715" lon="1.0478953086">
        <ele>1647.84</ele>
        <time>2019-09-08T10:51:49Z</time>
      </trkpt>
      <trkpt lat="42.5843982026" lon="1.0479149222">
        <ele>1647.36</ele>
        <time>2019-09-08T10:51:50Z</time>
      </trkpt>
      <trkpt lat="42.5843984541" lon="1.0479490366">
        <ele>1647.36</ele>
        <time>2019-09-08T10:51:52Z</time>
      </trkpt>
      <trkpt lat="42.5844012201" lon="1.0479639564">
        <ele>1646.88</ele>
        <time>2019-09-08T10:51:53Z</time>
      </trkpt>
      <trkpt lat="42.5844080094" lon="1.0479798820">
        <ele>1646.88</ele>
        <time>2019-09-08T10:51:54Z</time>
      </trkpt>
      <trkpt lat="42.5844131224" lon="1.0479992442">
        <ele>1635.82</ele>
        <time>2019-09-08T10:52:02Z</time>
      </trkpt>
    </trkseg>
  </trk>
</gpx>
